<?xml version="1.0" encoding="UTF-8" standalone="no" ?>
<gpx xmlns="http://www.topografix.com/GPX/1/1" xmlns:xsi="http://www.w3.org/2001/XMLSchema-instance" xsi:schemaLocation="http://www.topografix.com/GPX/1/1 http://www.topografix.com/GPX/1/1/gpx.xsd" version="1.1" creator="VisuGPX - https://www.visugpx.com">
  <metadata>
    <name>Montrond-Amondans-Lizine-Rurey et retour</name>
  </metadata>
  <trk>
    <name><![CDATA[Montrond-Amondans-Lizine-Rurey et retour_1]]></name>
    <trkseg>
      <trkpt lat="47.14245" lon="6.04626">
        <ele>449.6</ele>
        <time>2024-09-01T06:57:34Z</time>
      </trkpt>
      <trkpt lat="47.14244" lon="6.04629">
        <ele>459.6</ele>
        <time>2024-09-01T06:57:35Z</time>
      </trkpt>
      <trkpt lat="47.14243" lon="6.04633">
        <ele>459.6</ele>
        <time>2024-09-01T06:57:36Z</time>
      </trkpt>
      <trkpt lat="47.14242" lon="6.04637">
        <ele>459.8</ele>
        <time>2024-09-01T06:57:37Z</time>
      </trkpt>
      <trkpt lat="47.14241" lon="6.0464">
        <ele>459.6</ele>
        <time>2024-09-01T06:57:38Z</time>
      </trkpt>
      <trkpt lat="47.1424" lon="6.04644">
        <ele>459.6</ele>
        <time>2024-09-01T06:57:39Z</time>
      </trkpt>
      <trkpt lat="47.14238" lon="6.04648">
        <ele>459.8</ele>
        <time>2024-09-01T06:57:40Z</time>
      </trkpt>
      <trkpt lat="47.14236" lon="6.04652">
        <ele>460</ele>
        <time>2024-09-01T06:57:41Z</time>
      </trkpt>
      <trkpt lat="47.14235" lon="6.04656">
        <ele>460</ele>
        <time>2024-09-01T06:57:42Z</time>
      </trkpt>
      <trkpt lat="47.14233" lon="6.0466">
        <ele>460</ele>
        <time>2024-09-01T06:57:43Z</time>
      </trkpt>
      <trkpt lat="47.14232" lon="6.04664">
        <ele>460</ele>
        <time>2024-09-01T06:57:44Z</time>
      </trkpt>
      <trkpt lat="47.1423" lon="6.04664">
        <ele>459.8</ele>
        <time>2024-09-01T06:57:45Z</time>
      </trkpt>
      <trkpt lat="47.14228" lon="6.04666">
        <ele>459.8</ele>
        <time>2024-09-01T06:57:46Z</time>
      </trkpt>
      <trkpt lat="47.14225" lon="6.04667">
        <ele>459.8</ele>
        <time>2024-09-01T06:57:47Z</time>
      </trkpt>
      <trkpt lat="47.14221" lon="6.04668">
        <ele>459.6</ele>
        <time>2024-09-01T06:57:48Z</time>
      </trkpt>
      <trkpt lat="47.14218" lon="6.04669">
        <ele>459.6</ele>
        <time>2024-09-01T06:57:49Z</time>
      </trkpt>
      <trkpt lat="47.14214" lon="6.04671">
        <ele>459.6</ele>
        <time>2024-09-01T06:57:50Z</time>
      </trkpt>
      <trkpt lat="47.14211" lon="6.04673">
        <ele>459.4</ele>
        <time>2024-09-01T06:57:51Z</time>
      </trkpt>
      <trkpt lat="47.14208" lon="6.04675">
        <ele>459.6</ele>
        <time>2024-09-01T06:57:52Z</time>
      </trkpt>
      <trkpt lat="47.14204" lon="6.04677">
        <ele>459.6</ele>
        <time>2024-09-01T06:57:53Z</time>
      </trkpt>
      <trkpt lat="47.14201" lon="6.04681">
        <ele>459.8</ele>
        <time>2024-09-01T06:57:54Z</time>
      </trkpt>
      <trkpt lat="47.14198" lon="6.04686">
        <ele>459.6</ele>
        <time>2024-09-01T06:57:55Z</time>
      </trkpt>
      <trkpt lat="47.14194" lon="6.04688">
        <ele>459.6</ele>
        <time>2024-09-01T06:57:56Z</time>
      </trkpt>
      <trkpt lat="47.14189" lon="6.04691">
        <ele>459.6</ele>
        <time>2024-09-01T06:57:57Z</time>
      </trkpt>
      <trkpt lat="47.14184" lon="6.04695">
        <ele>459.6</ele>
        <time>2024-09-01T06:57:58Z</time>
      </trkpt>
      <trkpt lat="47.1418" lon="6.04699">
        <ele>459.6</ele>
        <time>2024-09-01T06:57:59Z</time>
      </trkpt>
      <trkpt lat="47.14175" lon="6.04704">
        <ele>459.6</ele>
        <time>2024-09-01T06:58:00Z</time>
      </trkpt>
      <trkpt lat="47.14171" lon="6.04708">
        <ele>459.6</ele>
        <time>2024-09-01T06:58:01Z</time>
      </trkpt>
      <trkpt lat="47.14167" lon="6.04712">
        <ele>459.4</ele>
        <time>2024-09-01T06:58:02Z</time>
      </trkpt>
      <trkpt lat="47.14162" lon="6.04716">
        <ele>459.4</ele>
        <time>2024-09-01T06:58:03Z</time>
      </trkpt>
      <trkpt lat="47.14157" lon="6.04717">
        <ele>459.2</ele>
        <time>2024-09-01T06:58:04Z</time>
      </trkpt>
      <trkpt lat="47.14153" lon="6.0472">
        <ele>459.2</ele>
        <time>2024-09-01T06:58:05Z</time>
      </trkpt>
      <trkpt lat="47.14149" lon="6.04722">
        <ele>458.8</ele>
        <time>2024-09-01T06:58:06Z</time>
      </trkpt>
      <trkpt lat="47.14146" lon="6.04724">
        <ele>458.8</ele>
        <time>2024-09-01T06:58:07Z</time>
      </trkpt>
      <trkpt lat="47.14143" lon="6.04726">
        <ele>458.6</ele>
        <time>2024-09-01T06:58:08Z</time>
      </trkpt>
      <trkpt lat="47.14142" lon="6.04724">
        <ele>458.4</ele>
        <time>2024-09-01T06:58:09Z</time>
      </trkpt>
      <trkpt lat="47.14139" lon="6.04725">
        <ele>458.4</ele>
        <time>2024-09-01T06:58:10Z</time>
      </trkpt>
      <trkpt lat="47.14137" lon="6.04727">
        <ele>458.2</ele>
        <time>2024-09-01T06:58:11Z</time>
      </trkpt>
      <trkpt lat="47.14134" lon="6.04728">
        <ele>458.2</ele>
        <time>2024-09-01T06:58:12Z</time>
      </trkpt>
      <trkpt lat="47.14132" lon="6.04731">
        <ele>458</ele>
        <time>2024-09-01T06:58:13Z</time>
      </trkpt>
      <trkpt lat="47.1413" lon="6.04734">
        <ele>458</ele>
        <time>2024-09-01T06:58:14Z</time>
      </trkpt>
      <trkpt lat="47.14127" lon="6.04738">
        <ele>457.8</ele>
        <time>2024-09-01T06:58:15Z</time>
      </trkpt>
      <trkpt lat="47.14124" lon="6.04741">
        <ele>458</ele>
        <time>2024-09-01T06:58:16Z</time>
      </trkpt>
      <trkpt lat="47.14121" lon="6.04745">
        <ele>457.8</ele>
        <time>2024-09-01T06:58:17Z</time>
      </trkpt>
      <trkpt lat="47.14118" lon="6.04749">
        <ele>457.8</ele>
        <time>2024-09-01T06:58:18Z</time>
      </trkpt>
      <trkpt lat="47.14114" lon="6.04753">
        <ele>457.8</ele>
        <time>2024-09-01T06:58:19Z</time>
      </trkpt>
      <trkpt lat="47.14111" lon="6.04758">
        <ele>457.8</ele>
        <time>2024-09-01T06:58:20Z</time>
      </trkpt>
      <trkpt lat="47.14107" lon="6.04764">
        <ele>457.8</ele>
        <time>2024-09-01T06:58:21Z</time>
      </trkpt>
      <trkpt lat="47.14102" lon="6.0477">
        <ele>457.8</ele>
        <time>2024-09-01T06:58:22Z</time>
      </trkpt>
      <trkpt lat="47.14098" lon="6.04775">
        <ele>457.8</ele>
        <time>2024-09-01T06:58:23Z</time>
      </trkpt>
      <trkpt lat="47.14094" lon="6.04778">
        <ele>457.8</ele>
        <time>2024-09-01T06:58:24Z</time>
      </trkpt>
      <trkpt lat="47.14089" lon="6.04781">
        <ele>457.6</ele>
        <time>2024-09-01T06:58:25Z</time>
      </trkpt>
      <trkpt lat="47.14085" lon="6.04786">
        <ele>457.6</ele>
        <time>2024-09-01T06:58:26Z</time>
      </trkpt>
      <trkpt lat="47.1408" lon="6.04791">
        <ele>457.4</ele>
        <time>2024-09-01T06:58:27Z</time>
      </trkpt>
      <trkpt lat="47.14075" lon="6.04795">
        <ele>457.4</ele>
        <time>2024-09-01T06:58:28Z</time>
      </trkpt>
      <trkpt lat="47.14071" lon="6.04798">
        <ele>457</ele>
        <time>2024-09-01T06:58:29Z</time>
      </trkpt>
      <trkpt lat="47.14067" lon="6.04801">
        <ele>456.8</ele>
        <time>2024-09-01T06:58:30Z</time>
      </trkpt>
      <trkpt lat="47.14062" lon="6.04804">
        <ele>456.6</ele>
        <time>2024-09-01T06:58:31Z</time>
      </trkpt>
      <trkpt lat="47.14058" lon="6.04808">
        <ele>456.4</ele>
        <time>2024-09-01T06:58:32Z</time>
      </trkpt>
      <trkpt lat="47.14054" lon="6.04812">
        <ele>456.4</ele>
        <time>2024-09-01T06:58:33Z</time>
      </trkpt>
      <trkpt lat="47.1405" lon="6.04815">
        <ele>456.2</ele>
        <time>2024-09-01T06:58:34Z</time>
      </trkpt>
      <trkpt lat="47.14046" lon="6.04818">
        <ele>456.2</ele>
        <time>2024-09-01T06:58:35Z</time>
      </trkpt>
      <trkpt lat="47.14043" lon="6.04821">
        <ele>456.2</ele>
        <time>2024-09-01T06:58:36Z</time>
      </trkpt>
      <trkpt lat="47.14039" lon="6.04824">
        <ele>456.2</ele>
        <time>2024-09-01T06:58:37Z</time>
      </trkpt>
      <trkpt lat="47.14035" lon="6.04827">
        <ele>456.2</ele>
        <time>2024-09-01T06:58:38Z</time>
      </trkpt>
      <trkpt lat="47.14032" lon="6.04829">
        <ele>456.2</ele>
        <time>2024-09-01T06:58:39Z</time>
      </trkpt>
      <trkpt lat="47.14028" lon="6.04832">
        <ele>456</ele>
        <time>2024-09-01T06:58:40Z</time>
      </trkpt>
      <trkpt lat="47.14024" lon="6.04835">
        <ele>456.2</ele>
        <time>2024-09-01T06:58:41Z</time>
      </trkpt>
      <trkpt lat="47.1402" lon="6.04838">
        <ele>456.2</ele>
        <time>2024-09-01T06:58:42Z</time>
      </trkpt>
      <trkpt lat="47.14016" lon="6.0484">
        <ele>456</ele>
        <time>2024-09-01T06:58:43Z</time>
      </trkpt>
      <trkpt lat="47.14012" lon="6.04842">
        <ele>456.2</ele>
        <time>2024-09-01T06:58:44Z</time>
      </trkpt>
      <trkpt lat="47.14008" lon="6.04845">
        <ele>456</ele>
        <time>2024-09-01T06:58:45Z</time>
      </trkpt>
      <trkpt lat="47.14004" lon="6.04848">
        <ele>456</ele>
        <time>2024-09-01T06:58:46Z</time>
      </trkpt>
      <trkpt lat="47.14" lon="6.04851">
        <ele>456</ele>
        <time>2024-09-01T06:58:47Z</time>
      </trkpt>
      <trkpt lat="47.13997" lon="6.04854">
        <ele>456</ele>
        <time>2024-09-01T06:58:48Z</time>
      </trkpt>
      <trkpt lat="47.13993" lon="6.04857">
        <ele>455.8</ele>
        <time>2024-09-01T06:58:49Z</time>
      </trkpt>
      <trkpt lat="47.1399" lon="6.0486">
        <ele>456</ele>
        <time>2024-09-01T06:58:50Z</time>
      </trkpt>
      <trkpt lat="47.13986" lon="6.04862">
        <ele>455.8</ele>
        <time>2024-09-01T06:58:51Z</time>
      </trkpt>
      <trkpt lat="47.13983" lon="6.04865">
        <ele>455.8</ele>
        <time>2024-09-01T06:58:52Z</time>
      </trkpt>
      <trkpt lat="47.13979" lon="6.04868">
        <ele>455.8</ele>
        <time>2024-09-01T06:58:53Z</time>
      </trkpt>
      <trkpt lat="47.13976" lon="6.04871">
        <ele>455.8</ele>
        <time>2024-09-01T06:58:54Z</time>
      </trkpt>
      <trkpt lat="47.13972" lon="6.04874">
        <ele>455.6</ele>
        <time>2024-09-01T06:58:55Z</time>
      </trkpt>
      <trkpt lat="47.13968" lon="6.04878">
        <ele>455.6</ele>
        <time>2024-09-01T06:58:56Z</time>
      </trkpt>
      <trkpt lat="47.13964" lon="6.04881">
        <ele>455.6</ele>
        <time>2024-09-01T06:58:57Z</time>
      </trkpt>
      <trkpt lat="47.1396" lon="6.04884">
        <ele>455.4</ele>
        <time>2024-09-01T06:58:58Z</time>
      </trkpt>
      <trkpt lat="47.13957" lon="6.04887">
        <ele>455.4</ele>
        <time>2024-09-01T06:58:59Z</time>
      </trkpt>
      <trkpt lat="47.13953" lon="6.04891">
        <ele>455.2</ele>
        <time>2024-09-01T06:59:00Z</time>
      </trkpt>
      <trkpt lat="47.1395" lon="6.04894">
        <ele>455</ele>
        <time>2024-09-01T06:59:01Z</time>
      </trkpt>
      <trkpt lat="47.13946" lon="6.04898">
        <ele>455</ele>
        <time>2024-09-01T06:59:02Z</time>
      </trkpt>
      <trkpt lat="47.13942" lon="6.04901">
        <ele>455.2</ele>
        <time>2024-09-01T06:59:03Z</time>
      </trkpt>
      <trkpt lat="47.13938" lon="6.04904">
        <ele>455</ele>
        <time>2024-09-01T06:59:04Z</time>
      </trkpt>
      <trkpt lat="47.13934" lon="6.04908">
        <ele>455</ele>
        <time>2024-09-01T06:59:05Z</time>
      </trkpt>
      <trkpt lat="47.1393" lon="6.04911">
        <ele>454.8</ele>
        <time>2024-09-01T06:59:06Z</time>
      </trkpt>
      <trkpt lat="47.13926" lon="6.04913">
        <ele>455</ele>
        <time>2024-09-01T06:59:07Z</time>
      </trkpt>
      <trkpt lat="47.13922" lon="6.04915">
        <ele>455</ele>
        <time>2024-09-01T06:59:08Z</time>
      </trkpt>
      <trkpt lat="47.13918" lon="6.04918">
        <ele>455</ele>
        <time>2024-09-01T06:59:09Z</time>
      </trkpt>
      <trkpt lat="47.13914" lon="6.04921">
        <ele>455</ele>
        <time>2024-09-01T06:59:10Z</time>
      </trkpt>
      <trkpt lat="47.1391" lon="6.04924">
        <ele>454.8</ele>
        <time>2024-09-01T06:59:11Z</time>
      </trkpt>
      <trkpt lat="47.13906" lon="6.04927">
        <ele>454.8</ele>
        <time>2024-09-01T06:59:12Z</time>
      </trkpt>
      <trkpt lat="47.13903" lon="6.0493">
        <ele>454.8</ele>
        <time>2024-09-01T06:59:13Z</time>
      </trkpt>
      <trkpt lat="47.13899" lon="6.04934">
        <ele>454.8</ele>
        <time>2024-09-01T06:59:14Z</time>
      </trkpt>
      <trkpt lat="47.13895" lon="6.04937">
        <ele>454.6</ele>
        <time>2024-09-01T06:59:15Z</time>
      </trkpt>
      <trkpt lat="47.13891" lon="6.04943">
        <ele>454.6</ele>
        <time>2024-09-01T06:59:16Z</time>
      </trkpt>
      <trkpt lat="47.13887" lon="6.04947">
        <ele>454.4</ele>
        <time>2024-09-01T06:59:17Z</time>
      </trkpt>
      <trkpt lat="47.13883" lon="6.04951">
        <ele>454.4</ele>
        <time>2024-09-01T06:59:18Z</time>
      </trkpt>
      <trkpt lat="47.13879" lon="6.04954">
        <ele>454.4</ele>
        <time>2024-09-01T06:59:19Z</time>
      </trkpt>
      <trkpt lat="47.13875" lon="6.04958">
        <ele>454.2</ele>
        <time>2024-09-01T06:59:20Z</time>
      </trkpt>
      <trkpt lat="47.13872" lon="6.04961">
        <ele>454.2</ele>
        <time>2024-09-01T06:59:21Z</time>
      </trkpt>
      <trkpt lat="47.13868" lon="6.04965">
        <ele>454</ele>
        <time>2024-09-01T06:59:22Z</time>
      </trkpt>
      <trkpt lat="47.13864" lon="6.04969">
        <ele>453.8</ele>
        <time>2024-09-01T06:59:23Z</time>
      </trkpt>
      <trkpt lat="47.1386" lon="6.04973">
        <ele>453.8</ele>
        <time>2024-09-01T06:59:24Z</time>
      </trkpt>
      <trkpt lat="47.13856" lon="6.04976">
        <ele>453.8</ele>
        <time>2024-09-01T06:59:25Z</time>
      </trkpt>
      <trkpt lat="47.13852" lon="6.04979">
        <ele>453.6</ele>
        <time>2024-09-01T06:59:26Z</time>
      </trkpt>
      <trkpt lat="47.13848" lon="6.04983">
        <ele>453.4</ele>
        <time>2024-09-01T06:59:27Z</time>
      </trkpt>
      <trkpt lat="47.13843" lon="6.04986">
        <ele>453.4</ele>
        <time>2024-09-01T06:59:28Z</time>
      </trkpt>
      <trkpt lat="47.13839" lon="6.04989">
        <ele>453</ele>
        <time>2024-09-01T06:59:29Z</time>
      </trkpt>
      <trkpt lat="47.13835" lon="6.04992">
        <ele>453.2</ele>
        <time>2024-09-01T06:59:30Z</time>
      </trkpt>
      <trkpt lat="47.1383" lon="6.04995">
        <ele>453</ele>
        <time>2024-09-01T06:59:31Z</time>
      </trkpt>
      <trkpt lat="47.13826" lon="6.04998">
        <ele>453</ele>
        <time>2024-09-01T06:59:32Z</time>
      </trkpt>
      <trkpt lat="47.13822" lon="6.05001">
        <ele>452.8</ele>
        <time>2024-09-01T06:59:33Z</time>
      </trkpt>
      <trkpt lat="47.13818" lon="6.05004">
        <ele>453</ele>
        <time>2024-09-01T06:59:34Z</time>
      </trkpt>
      <trkpt lat="47.13814" lon="6.05007">
        <ele>452.8</ele>
        <time>2024-09-01T06:59:35Z</time>
      </trkpt>
      <trkpt lat="47.13811" lon="6.05009">
        <ele>452.8</ele>
        <time>2024-09-01T06:59:36Z</time>
      </trkpt>
      <trkpt lat="47.13807" lon="6.05012">
        <ele>452.6</ele>
        <time>2024-09-01T06:59:37Z</time>
      </trkpt>
      <trkpt lat="47.13803" lon="6.05016">
        <ele>452.6</ele>
        <time>2024-09-01T06:59:38Z</time>
      </trkpt>
      <trkpt lat="47.13799" lon="6.05018">
        <ele>452.8</ele>
        <time>2024-09-01T06:59:39Z</time>
      </trkpt>
      <trkpt lat="47.13794" lon="6.05022">
        <ele>452.6</ele>
        <time>2024-09-01T06:59:40Z</time>
      </trkpt>
      <trkpt lat="47.1379" lon="6.05024">
        <ele>452.8</ele>
        <time>2024-09-01T06:59:41Z</time>
      </trkpt>
      <trkpt lat="47.13786" lon="6.05028">
        <ele>452.8</ele>
        <time>2024-09-01T06:59:42Z</time>
      </trkpt>
      <trkpt lat="47.13782" lon="6.05031">
        <ele>452.8</ele>
        <time>2024-09-01T06:59:43Z</time>
      </trkpt>
      <trkpt lat="47.13777" lon="6.05035">
        <ele>452.6</ele>
        <time>2024-09-01T06:59:44Z</time>
      </trkpt>
      <trkpt lat="47.13773" lon="6.05038">
        <ele>452.8</ele>
        <time>2024-09-01T06:59:45Z</time>
      </trkpt>
      <trkpt lat="47.13769" lon="6.05041">
        <ele>452.8</ele>
        <time>2024-09-01T06:59:46Z</time>
      </trkpt>
      <trkpt lat="47.13765" lon="6.05044">
        <ele>452.6</ele>
        <time>2024-09-01T06:59:47Z</time>
      </trkpt>
      <trkpt lat="47.13761" lon="6.05048">
        <ele>452.6</ele>
        <time>2024-09-01T06:59:48Z</time>
      </trkpt>
      <trkpt lat="47.13756" lon="6.05051">
        <ele>452.6</ele>
        <time>2024-09-01T06:59:49Z</time>
      </trkpt>
      <trkpt lat="47.13753" lon="6.05054">
        <ele>452.6</ele>
        <time>2024-09-01T06:59:50Z</time>
      </trkpt>
      <trkpt lat="47.13749" lon="6.05058">
        <ele>452.8</ele>
        <time>2024-09-01T06:59:51Z</time>
      </trkpt>
      <trkpt lat="47.13744" lon="6.05061">
        <ele>452.6</ele>
        <time>2024-09-01T06:59:52Z</time>
      </trkpt>
      <trkpt lat="47.1374" lon="6.05064">
        <ele>452.6</ele>
        <time>2024-09-01T06:59:53Z</time>
      </trkpt>
      <trkpt lat="47.13736" lon="6.05068">
        <ele>452.6</ele>
        <time>2024-09-01T06:59:54Z</time>
      </trkpt>
      <trkpt lat="47.13732" lon="6.05071">
        <ele>452.6</ele>
        <time>2024-09-01T06:59:55Z</time>
      </trkpt>
      <trkpt lat="47.13728" lon="6.05074">
        <ele>452.6</ele>
        <time>2024-09-01T06:59:56Z</time>
      </trkpt>
      <trkpt lat="47.13724" lon="6.05077">
        <ele>452.8</ele>
        <time>2024-09-01T06:59:57Z</time>
      </trkpt>
      <trkpt lat="47.1372" lon="6.0508">
        <ele>452.6</ele>
        <time>2024-09-01T06:59:58Z</time>
      </trkpt>
      <trkpt lat="47.13716" lon="6.05084">
        <ele>452.8</ele>
        <time>2024-09-01T06:59:59Z</time>
      </trkpt>
      <trkpt lat="47.13712" lon="6.05087">
        <ele>452.8</ele>
        <time>2024-09-01T07:00:00Z</time>
      </trkpt>
      <trkpt lat="47.13708" lon="6.05091">
        <ele>452.6</ele>
        <time>2024-09-01T07:00:01Z</time>
      </trkpt>
      <trkpt lat="47.13704" lon="6.05094">
        <ele>452.6</ele>
        <time>2024-09-01T07:00:02Z</time>
      </trkpt>
      <trkpt lat="47.137" lon="6.05097">
        <ele>452.8</ele>
        <time>2024-09-01T07:00:03Z</time>
      </trkpt>
      <trkpt lat="47.13696" lon="6.051">
        <ele>452.8</ele>
        <time>2024-09-01T07:00:04Z</time>
      </trkpt>
      <trkpt lat="47.13693" lon="6.05103">
        <ele>452.8</ele>
        <time>2024-09-01T07:00:05Z</time>
      </trkpt>
      <trkpt lat="47.13689" lon="6.05106">
        <ele>452.8</ele>
        <time>2024-09-01T07:00:06Z</time>
      </trkpt>
      <trkpt lat="47.13686" lon="6.05109">
        <ele>453</ele>
        <time>2024-09-01T07:00:07Z</time>
      </trkpt>
      <trkpt lat="47.13682" lon="6.05112">
        <ele>453</ele>
        <time>2024-09-01T07:00:08Z</time>
      </trkpt>
      <trkpt lat="47.13678" lon="6.05115">
        <ele>453</ele>
        <time>2024-09-01T07:00:09Z</time>
      </trkpt>
      <trkpt lat="47.13674" lon="6.05118">
        <ele>453.2</ele>
        <time>2024-09-01T07:00:10Z</time>
      </trkpt>
      <trkpt lat="47.13671" lon="6.05121">
        <ele>453.4</ele>
        <time>2024-09-01T07:00:11Z</time>
      </trkpt>
      <trkpt lat="47.13667" lon="6.05124">
        <ele>453.4</ele>
        <time>2024-09-01T07:00:12Z</time>
      </trkpt>
      <trkpt lat="47.13664" lon="6.05127">
        <ele>453.4</ele>
        <time>2024-09-01T07:00:13Z</time>
      </trkpt>
      <trkpt lat="47.1366" lon="6.0513">
        <ele>453.6</ele>
        <time>2024-09-01T07:00:14Z</time>
      </trkpt>
      <trkpt lat="47.13657" lon="6.05133">
        <ele>453.8</ele>
        <time>2024-09-01T07:00:15Z</time>
      </trkpt>
      <trkpt lat="47.13653" lon="6.05135">
        <ele>454</ele>
        <time>2024-09-01T07:00:16Z</time>
      </trkpt>
      <trkpt lat="47.1365" lon="6.05138">
        <ele>454.2</ele>
        <time>2024-09-01T07:00:17Z</time>
      </trkpt>
      <trkpt lat="47.13646" lon="6.05141">
        <ele>454.2</ele>
        <time>2024-09-01T07:00:18Z</time>
      </trkpt>
      <trkpt lat="47.13643" lon="6.05143">
        <ele>454.2</ele>
        <time>2024-09-01T07:00:19Z</time>
      </trkpt>
      <trkpt lat="47.13639" lon="6.05146">
        <ele>454.4</ele>
        <time>2024-09-01T07:00:20Z</time>
      </trkpt>
      <trkpt lat="47.13636" lon="6.05149">
        <ele>454.6</ele>
        <time>2024-09-01T07:00:21Z</time>
      </trkpt>
      <trkpt lat="47.13632" lon="6.05151">
        <ele>454.6</ele>
        <time>2024-09-01T07:00:22Z</time>
      </trkpt>
      <trkpt lat="47.13629" lon="6.05154">
        <ele>454.8</ele>
        <time>2024-09-01T07:00:23Z</time>
      </trkpt>
      <trkpt lat="47.13625" lon="6.05157">
        <ele>455.2</ele>
        <time>2024-09-01T07:00:24Z</time>
      </trkpt>
      <trkpt lat="47.13621" lon="6.05161">
        <ele>455.4</ele>
        <time>2024-09-01T07:00:25Z</time>
      </trkpt>
      <trkpt lat="47.13617" lon="6.05164">
        <ele>455.6</ele>
        <time>2024-09-01T07:00:26Z</time>
      </trkpt>
      <trkpt lat="47.13614" lon="6.05167">
        <ele>455.6</ele>
        <time>2024-09-01T07:00:27Z</time>
      </trkpt>
      <trkpt lat="47.1361" lon="6.0517">
        <ele>455.6</ele>
        <time>2024-09-01T07:00:28Z</time>
      </trkpt>
      <trkpt lat="47.13606" lon="6.05173">
        <ele>455.6</ele>
        <time>2024-09-01T07:00:29Z</time>
      </trkpt>
      <trkpt lat="47.13602" lon="6.05177">
        <ele>455.8</ele>
        <time>2024-09-01T07:00:30Z</time>
      </trkpt>
      <trkpt lat="47.13598" lon="6.0518">
        <ele>455.6</ele>
        <time>2024-09-01T07:00:31Z</time>
      </trkpt>
      <trkpt lat="47.13595" lon="6.05183">
        <ele>455.8</ele>
        <time>2024-09-01T07:00:32Z</time>
      </trkpt>
      <trkpt lat="47.13592" lon="6.05187">
        <ele>455.8</ele>
        <time>2024-09-01T07:00:33Z</time>
      </trkpt>
      <trkpt lat="47.13588" lon="6.0519">
        <ele>455.8</ele>
        <time>2024-09-01T07:00:34Z</time>
      </trkpt>
      <trkpt lat="47.13585" lon="6.05193">
        <ele>455.8</ele>
        <time>2024-09-01T07:00:35Z</time>
      </trkpt>
      <trkpt lat="47.13581" lon="6.05196">
        <ele>456</ele>
        <time>2024-09-01T07:00:36Z</time>
      </trkpt>
      <trkpt lat="47.13577" lon="6.05199">
        <ele>456</ele>
        <time>2024-09-01T07:00:37Z</time>
      </trkpt>
      <trkpt lat="47.13574" lon="6.05202">
        <ele>456</ele>
        <time>2024-09-01T07:00:38Z</time>
      </trkpt>
      <trkpt lat="47.1357" lon="6.05205">
        <ele>456</ele>
        <time>2024-09-01T07:00:39Z</time>
      </trkpt>
      <trkpt lat="47.13566" lon="6.05208">
        <ele>456.2</ele>
        <time>2024-09-01T07:00:40Z</time>
      </trkpt>
      <trkpt lat="47.13562" lon="6.05212">
        <ele>456.2</ele>
        <time>2024-09-01T07:00:41Z</time>
      </trkpt>
      <trkpt lat="47.13558" lon="6.05215">
        <ele>456.2</ele>
        <time>2024-09-01T07:00:42Z</time>
      </trkpt>
      <trkpt lat="47.13554" lon="6.05218">
        <ele>456.2</ele>
        <time>2024-09-01T07:00:43Z</time>
      </trkpt>
      <trkpt lat="47.1355" lon="6.05221">
        <ele>456.4</ele>
        <time>2024-09-01T07:00:44Z</time>
      </trkpt>
      <trkpt lat="47.13546" lon="6.05224">
        <ele>456.6</ele>
        <time>2024-09-01T07:00:45Z</time>
      </trkpt>
      <trkpt lat="47.13542" lon="6.05228">
        <ele>456.6</ele>
        <time>2024-09-01T07:00:46Z</time>
      </trkpt>
      <trkpt lat="47.13538" lon="6.05231">
        <ele>456.6</ele>
        <time>2024-09-01T07:00:47Z</time>
      </trkpt>
      <trkpt lat="47.13534" lon="6.05235">
        <ele>456.6</ele>
        <time>2024-09-01T07:00:48Z</time>
      </trkpt>
      <trkpt lat="47.1353" lon="6.05238">
        <ele>456.6</ele>
        <time>2024-09-01T07:00:49Z</time>
      </trkpt>
      <trkpt lat="47.13526" lon="6.05242">
        <ele>456.6</ele>
        <time>2024-09-01T07:00:50Z</time>
      </trkpt>
      <trkpt lat="47.13522" lon="6.05245">
        <ele>456.8</ele>
        <time>2024-09-01T07:00:51Z</time>
      </trkpt>
      <trkpt lat="47.13518" lon="6.05249">
        <ele>456.6</ele>
        <time>2024-09-01T07:00:52Z</time>
      </trkpt>
      <trkpt lat="47.13514" lon="6.05252">
        <ele>456.6</ele>
        <time>2024-09-01T07:00:53Z</time>
      </trkpt>
      <trkpt lat="47.1351" lon="6.05255">
        <ele>456.8</ele>
        <time>2024-09-01T07:00:54Z</time>
      </trkpt>
      <trkpt lat="47.13506" lon="6.05259">
        <ele>456.8</ele>
        <time>2024-09-01T07:00:55Z</time>
      </trkpt>
      <trkpt lat="47.13501" lon="6.05262">
        <ele>456.8</ele>
        <time>2024-09-01T07:00:56Z</time>
      </trkpt>
      <trkpt lat="47.13497" lon="6.05265">
        <ele>456.8</ele>
        <time>2024-09-01T07:00:57Z</time>
      </trkpt>
      <trkpt lat="47.13492" lon="6.05269">
        <ele>456.8</ele>
        <time>2024-09-01T07:00:58Z</time>
      </trkpt>
      <trkpt lat="47.13487" lon="6.05273">
        <ele>456.8</ele>
        <time>2024-09-01T07:00:59Z</time>
      </trkpt>
      <trkpt lat="47.13483" lon="6.05277">
        <ele>456.8</ele>
        <time>2024-09-01T07:01:00Z</time>
      </trkpt>
      <trkpt lat="47.13478" lon="6.05281">
        <ele>456.8</ele>
        <time>2024-09-01T07:01:01Z</time>
      </trkpt>
      <trkpt lat="47.13474" lon="6.05285">
        <ele>456.8</ele>
        <time>2024-09-01T07:01:02Z</time>
      </trkpt>
      <trkpt lat="47.13469" lon="6.05288">
        <ele>456.8</ele>
        <time>2024-09-01T07:01:03Z</time>
      </trkpt>
      <trkpt lat="47.13465" lon="6.05292">
        <ele>456.8</ele>
        <time>2024-09-01T07:01:04Z</time>
      </trkpt>
      <trkpt lat="47.1346" lon="6.05296">
        <ele>456.8</ele>
        <time>2024-09-01T07:01:05Z</time>
      </trkpt>
      <trkpt lat="47.13456" lon="6.05299">
        <ele>456.8</ele>
        <time>2024-09-01T07:01:06Z</time>
      </trkpt>
      <trkpt lat="47.13452" lon="6.05303">
        <ele>456.8</ele>
        <time>2024-09-01T07:01:07Z</time>
      </trkpt>
      <trkpt lat="47.13448" lon="6.05306">
        <ele>456.8</ele>
        <time>2024-09-01T07:01:08Z</time>
      </trkpt>
      <trkpt lat="47.13444" lon="6.05309">
        <ele>456.6</ele>
        <time>2024-09-01T07:01:09Z</time>
      </trkpt>
      <trkpt lat="47.13441" lon="6.05312">
        <ele>456.6</ele>
        <time>2024-09-01T07:01:10Z</time>
      </trkpt>
      <trkpt lat="47.13437" lon="6.05315">
        <ele>456.8</ele>
        <time>2024-09-01T07:01:11Z</time>
      </trkpt>
      <trkpt lat="47.13433" lon="6.05318">
        <ele>456.8</ele>
        <time>2024-09-01T07:01:12Z</time>
      </trkpt>
      <trkpt lat="47.13429" lon="6.0532">
        <ele>456.8</ele>
        <time>2024-09-01T07:01:13Z</time>
      </trkpt>
      <trkpt lat="47.13426" lon="6.05323">
        <ele>456.8</ele>
        <time>2024-09-01T07:01:14Z</time>
      </trkpt>
      <trkpt lat="47.13422" lon="6.05326">
        <ele>456.8</ele>
        <time>2024-09-01T07:01:15Z</time>
      </trkpt>
      <trkpt lat="47.13419" lon="6.05329">
        <ele>456.8</ele>
        <time>2024-09-01T07:01:16Z</time>
      </trkpt>
      <trkpt lat="47.13415" lon="6.05332">
        <ele>457</ele>
        <time>2024-09-01T07:01:17Z</time>
      </trkpt>
      <trkpt lat="47.13412" lon="6.05334">
        <ele>457.2</ele>
        <time>2024-09-01T07:01:18Z</time>
      </trkpt>
      <trkpt lat="47.13409" lon="6.05337">
        <ele>457.2</ele>
        <time>2024-09-01T07:01:19Z</time>
      </trkpt>
      <trkpt lat="47.13405" lon="6.0534">
        <ele>457.4</ele>
        <time>2024-09-01T07:01:20Z</time>
      </trkpt>
      <trkpt lat="47.13402" lon="6.05343">
        <ele>457.4</ele>
        <time>2024-09-01T07:01:21Z</time>
      </trkpt>
      <trkpt lat="47.13399" lon="6.05345">
        <ele>457.6</ele>
        <time>2024-09-01T07:01:22Z</time>
      </trkpt>
      <trkpt lat="47.13395" lon="6.05348">
        <ele>457.6</ele>
        <time>2024-09-01T07:01:23Z</time>
      </trkpt>
      <trkpt lat="47.13392" lon="6.0535">
        <ele>458</ele>
        <time>2024-09-01T07:01:24Z</time>
      </trkpt>
      <trkpt lat="47.13388" lon="6.05353">
        <ele>458</ele>
        <time>2024-09-01T07:01:25Z</time>
      </trkpt>
      <trkpt lat="47.13385" lon="6.05356">
        <ele>458.4</ele>
        <time>2024-09-01T07:01:26Z</time>
      </trkpt>
      <trkpt lat="47.13382" lon="6.05358">
        <ele>458.6</ele>
        <time>2024-09-01T07:01:27Z</time>
      </trkpt>
      <trkpt lat="47.13378" lon="6.05361">
        <ele>458.8</ele>
        <time>2024-09-01T07:01:28Z</time>
      </trkpt>
      <trkpt lat="47.13375" lon="6.05364">
        <ele>458.6</ele>
        <time>2024-09-01T07:01:29Z</time>
      </trkpt>
      <trkpt lat="47.13372" lon="6.05366">
        <ele>459</ele>
        <time>2024-09-01T07:01:30Z</time>
      </trkpt>
      <trkpt lat="47.13369" lon="6.05368">
        <ele>459.2</ele>
        <time>2024-09-01T07:01:31Z</time>
      </trkpt>
      <trkpt lat="47.13365" lon="6.05371">
        <ele>459.4</ele>
        <time>2024-09-01T07:01:32Z</time>
      </trkpt>
      <trkpt lat="47.13362" lon="6.05374">
        <ele>459.4</ele>
        <time>2024-09-01T07:01:33Z</time>
      </trkpt>
      <trkpt lat="47.13359" lon="6.05377">
        <ele>459.6</ele>
        <time>2024-09-01T07:01:34Z</time>
      </trkpt>
      <trkpt lat="47.13356" lon="6.05379">
        <ele>459.8</ele>
        <time>2024-09-01T07:01:35Z</time>
      </trkpt>
      <trkpt lat="47.13353" lon="6.05381">
        <ele>460</ele>
        <time>2024-09-01T07:01:36Z</time>
      </trkpt>
      <trkpt lat="47.1335" lon="6.05384">
        <ele>460</ele>
        <time>2024-09-01T07:01:37Z</time>
      </trkpt>
      <trkpt lat="47.13347" lon="6.05387">
        <ele>460.4</ele>
        <time>2024-09-01T07:01:38Z</time>
      </trkpt>
      <trkpt lat="47.13344" lon="6.05389">
        <ele>460.6</ele>
        <time>2024-09-01T07:01:39Z</time>
      </trkpt>
      <trkpt lat="47.13341" lon="6.05392">
        <ele>460.6</ele>
        <time>2024-09-01T07:01:40Z</time>
      </trkpt>
      <trkpt lat="47.13338" lon="6.05394">
        <ele>460.8</ele>
        <time>2024-09-01T07:01:41Z</time>
      </trkpt>
      <trkpt lat="47.13335" lon="6.05397">
        <ele>461.2</ele>
        <time>2024-09-01T07:01:42Z</time>
      </trkpt>
      <trkpt lat="47.13332" lon="6.054">
        <ele>461.4</ele>
        <time>2024-09-01T07:01:43Z</time>
      </trkpt>
      <trkpt lat="47.13329" lon="6.05402">
        <ele>461.6</ele>
        <time>2024-09-01T07:01:44Z</time>
      </trkpt>
      <trkpt lat="47.13326" lon="6.05404">
        <ele>461.8</ele>
        <time>2024-09-01T07:01:45Z</time>
      </trkpt>
      <trkpt lat="47.13323" lon="6.05407">
        <ele>462</ele>
        <time>2024-09-01T07:01:46Z</time>
      </trkpt>
      <trkpt lat="47.1332" lon="6.0541">
        <ele>462</ele>
        <time>2024-09-01T07:01:47Z</time>
      </trkpt>
      <trkpt lat="47.13317" lon="6.05412">
        <ele>462.2</ele>
        <time>2024-09-01T07:01:48Z</time>
      </trkpt>
      <trkpt lat="47.13314" lon="6.05415">
        <ele>462.6</ele>
        <time>2024-09-01T07:01:49Z</time>
      </trkpt>
      <trkpt lat="47.13311" lon="6.05418">
        <ele>462.6</ele>
        <time>2024-09-01T07:01:50Z</time>
      </trkpt>
      <trkpt lat="47.13307" lon="6.05422">
        <ele>463</ele>
        <time>2024-09-01T07:01:51Z</time>
      </trkpt>
      <trkpt lat="47.13304" lon="6.05425">
        <ele>463</ele>
        <time>2024-09-01T07:01:52Z</time>
      </trkpt>
      <trkpt lat="47.13301" lon="6.0543">
        <ele>463.2</ele>
        <time>2024-09-01T07:01:53Z</time>
      </trkpt>
      <trkpt lat="47.13298" lon="6.05433">
        <ele>463.4</ele>
        <time>2024-09-01T07:01:54Z</time>
      </trkpt>
      <trkpt lat="47.13295" lon="6.05437">
        <ele>463.6</ele>
        <time>2024-09-01T07:01:55Z</time>
      </trkpt>
      <trkpt lat="47.13292" lon="6.05441">
        <ele>463.6</ele>
        <time>2024-09-01T07:01:56Z</time>
      </trkpt>
      <trkpt lat="47.13289" lon="6.05445">
        <ele>463.6</ele>
        <time>2024-09-01T07:01:57Z</time>
      </trkpt>
      <trkpt lat="47.13286" lon="6.0545">
        <ele>463.6</ele>
        <time>2024-09-01T07:01:58Z</time>
      </trkpt>
      <trkpt lat="47.13282" lon="6.05454">
        <ele>463.6</ele>
        <time>2024-09-01T07:01:59Z</time>
      </trkpt>
      <trkpt lat="47.13279" lon="6.05459">
        <ele>463.6</ele>
        <time>2024-09-01T07:02:00Z</time>
      </trkpt>
      <trkpt lat="47.13275" lon="6.05464">
        <ele>463.6</ele>
        <time>2024-09-01T07:02:01Z</time>
      </trkpt>
      <trkpt lat="47.13271" lon="6.05469">
        <ele>463.6</ele>
        <time>2024-09-01T07:02:02Z</time>
      </trkpt>
      <trkpt lat="47.13267" lon="6.05474">
        <ele>463.6</ele>
        <time>2024-09-01T07:02:03Z</time>
      </trkpt>
      <trkpt lat="47.13262" lon="6.05479">
        <ele>463.6</ele>
        <time>2024-09-01T07:02:04Z</time>
      </trkpt>
      <trkpt lat="47.13257" lon="6.05485">
        <ele>463.6</ele>
        <time>2024-09-01T07:02:05Z</time>
      </trkpt>
      <trkpt lat="47.13253" lon="6.05491">
        <ele>463.4</ele>
        <time>2024-09-01T07:02:06Z</time>
      </trkpt>
      <trkpt lat="47.13247" lon="6.05497">
        <ele>463.4</ele>
        <time>2024-09-01T07:02:07Z</time>
      </trkpt>
      <trkpt lat="47.13242" lon="6.05504">
        <ele>463.2</ele>
        <time>2024-09-01T07:02:08Z</time>
      </trkpt>
      <trkpt lat="47.13237" lon="6.05511">
        <ele>463</ele>
        <time>2024-09-01T07:02:09Z</time>
      </trkpt>
      <trkpt lat="47.13231" lon="6.05517">
        <ele>462.8</ele>
        <time>2024-09-01T07:02:10Z</time>
      </trkpt>
      <trkpt lat="47.13225" lon="6.05524">
        <ele>462.6</ele>
        <time>2024-09-01T07:02:11Z</time>
      </trkpt>
      <trkpt lat="47.13219" lon="6.05531">
        <ele>462.2</ele>
        <time>2024-09-01T07:02:12Z</time>
      </trkpt>
      <trkpt lat="47.13212" lon="6.05539">
        <ele>461.8</ele>
        <time>2024-09-01T07:02:13Z</time>
      </trkpt>
      <trkpt lat="47.13206" lon="6.05546">
        <ele>461.8</ele>
        <time>2024-09-01T07:02:14Z</time>
      </trkpt>
      <trkpt lat="47.13201" lon="6.05553">
        <ele>461.4</ele>
        <time>2024-09-01T07:02:15Z</time>
      </trkpt>
      <trkpt lat="47.13195" lon="6.05561">
        <ele>461.2</ele>
        <time>2024-09-01T07:02:16Z</time>
      </trkpt>
      <trkpt lat="47.13189" lon="6.05568">
        <ele>460.6</ele>
        <time>2024-09-01T07:02:17Z</time>
      </trkpt>
      <trkpt lat="47.13184" lon="6.05575">
        <ele>460</ele>
        <time>2024-09-01T07:02:18Z</time>
      </trkpt>
      <trkpt lat="47.13178" lon="6.05582">
        <ele>459.8</ele>
        <time>2024-09-01T07:02:19Z</time>
      </trkpt>
      <trkpt lat="47.13173" lon="6.05588">
        <ele>459.4</ele>
        <time>2024-09-01T07:02:20Z</time>
      </trkpt>
      <trkpt lat="47.13169" lon="6.05595">
        <ele>459.2</ele>
        <time>2024-09-01T07:02:21Z</time>
      </trkpt>
      <trkpt lat="47.13165" lon="6.05601">
        <ele>458.8</ele>
        <time>2024-09-01T07:02:22Z</time>
      </trkpt>
      <trkpt lat="47.13161" lon="6.05607">
        <ele>458.4</ele>
        <time>2024-09-01T07:02:23Z</time>
      </trkpt>
      <trkpt lat="47.13157" lon="6.05612">
        <ele>458.2</ele>
        <time>2024-09-01T07:02:24Z</time>
      </trkpt>
      <trkpt lat="47.13154" lon="6.05618">
        <ele>458.2</ele>
        <time>2024-09-01T07:02:25Z</time>
      </trkpt>
      <trkpt lat="47.1315" lon="6.05622">
        <ele>458</ele>
        <time>2024-09-01T07:02:26Z</time>
      </trkpt>
      <trkpt lat="47.13147" lon="6.05626">
        <ele>458</ele>
        <time>2024-09-01T07:02:27Z</time>
      </trkpt>
      <trkpt lat="47.13144" lon="6.0563">
        <ele>458</ele>
        <time>2024-09-01T07:02:28Z</time>
      </trkpt>
      <trkpt lat="47.13141" lon="6.05634">
        <ele>458</ele>
        <time>2024-09-01T07:02:29Z</time>
      </trkpt>
      <trkpt lat="47.13138" lon="6.05638">
        <ele>458</ele>
        <time>2024-09-01T07:02:30Z</time>
      </trkpt>
      <trkpt lat="47.13135" lon="6.05641">
        <ele>458</ele>
        <time>2024-09-01T07:02:31Z</time>
      </trkpt>
      <trkpt lat="47.13132" lon="6.05645">
        <ele>458</ele>
        <time>2024-09-01T07:02:32Z</time>
      </trkpt>
      <trkpt lat="47.13129" lon="6.05648">
        <ele>458</ele>
        <time>2024-09-01T07:02:33Z</time>
      </trkpt>
      <trkpt lat="47.13127" lon="6.05652">
        <ele>458.2</ele>
        <time>2024-09-01T07:02:34Z</time>
      </trkpt>
      <trkpt lat="47.13124" lon="6.05655">
        <ele>458.4</ele>
        <time>2024-09-01T07:02:35Z</time>
      </trkpt>
      <trkpt lat="47.13122" lon="6.05658">
        <ele>458.6</ele>
        <time>2024-09-01T07:02:36Z</time>
      </trkpt>
      <trkpt lat="47.1312" lon="6.05661">
        <ele>458.8</ele>
        <time>2024-09-01T07:02:37Z</time>
      </trkpt>
      <trkpt lat="47.13118" lon="6.05663">
        <ele>459.2</ele>
        <time>2024-09-01T07:02:38Z</time>
      </trkpt>
      <trkpt lat="47.13115" lon="6.05666">
        <ele>459.6</ele>
        <time>2024-09-01T07:02:39Z</time>
      </trkpt>
      <trkpt lat="47.13113" lon="6.05669">
        <ele>459.8</ele>
        <time>2024-09-01T07:02:40Z</time>
      </trkpt>
      <trkpt lat="47.13111" lon="6.05672">
        <ele>460.2</ele>
        <time>2024-09-01T07:02:41Z</time>
      </trkpt>
      <trkpt lat="47.13109" lon="6.05675">
        <ele>460.6</ele>
        <time>2024-09-01T07:02:42Z</time>
      </trkpt>
      <trkpt lat="47.13107" lon="6.05677">
        <ele>461</ele>
        <time>2024-09-01T07:02:43Z</time>
      </trkpt>
      <trkpt lat="47.13104" lon="6.0568">
        <ele>461.2</ele>
        <time>2024-09-01T07:02:44Z</time>
      </trkpt>
      <trkpt lat="47.13102" lon="6.05682">
        <ele>461.4</ele>
        <time>2024-09-01T07:02:45Z</time>
      </trkpt>
      <trkpt lat="47.13099" lon="6.05685">
        <ele>461.8</ele>
        <time>2024-09-01T07:02:46Z</time>
      </trkpt>
      <trkpt lat="47.13097" lon="6.05687">
        <ele>462.2</ele>
        <time>2024-09-01T07:02:47Z</time>
      </trkpt>
      <trkpt lat="47.13096" lon="6.0569">
        <ele>462.2</ele>
        <time>2024-09-01T07:02:48Z</time>
      </trkpt>
      <trkpt lat="47.13094" lon="6.05692">
        <ele>462.4</ele>
        <time>2024-09-01T07:02:49Z</time>
      </trkpt>
      <trkpt lat="47.13092" lon="6.05695">
        <ele>462.4</ele>
        <time>2024-09-01T07:02:50Z</time>
      </trkpt>
      <trkpt lat="47.13089" lon="6.05697">
        <ele>462.8</ele>
        <time>2024-09-01T07:02:51Z</time>
      </trkpt>
      <trkpt lat="47.13087" lon="6.05699">
        <ele>462.8</ele>
        <time>2024-09-01T07:02:52Z</time>
      </trkpt>
      <trkpt lat="47.13085" lon="6.05702">
        <ele>463</ele>
        <time>2024-09-01T07:02:53Z</time>
      </trkpt>
      <trkpt lat="47.13083" lon="6.05705">
        <ele>463.4</ele>
        <time>2024-09-01T07:02:54Z</time>
      </trkpt>
      <trkpt lat="47.13081" lon="6.05707">
        <ele>463.6</ele>
        <time>2024-09-01T07:02:55Z</time>
      </trkpt>
      <trkpt lat="47.13079" lon="6.0571">
        <ele>463.8</ele>
        <time>2024-09-01T07:02:56Z</time>
      </trkpt>
      <trkpt lat="47.13077" lon="6.05713">
        <ele>464</ele>
        <time>2024-09-01T07:02:57Z</time>
      </trkpt>
      <trkpt lat="47.13075" lon="6.05716">
        <ele>464.2</ele>
        <time>2024-09-01T07:02:58Z</time>
      </trkpt>
      <trkpt lat="47.13073" lon="6.05719">
        <ele>464.4</ele>
        <time>2024-09-01T07:02:59Z</time>
      </trkpt>
      <trkpt lat="47.13071" lon="6.05721">
        <ele>464.6</ele>
        <time>2024-09-01T07:03:00Z</time>
      </trkpt>
      <trkpt lat="47.13069" lon="6.05724">
        <ele>464.8</ele>
        <time>2024-09-01T07:03:01Z</time>
      </trkpt>
      <trkpt lat="47.13067" lon="6.05726">
        <ele>464.8</ele>
        <time>2024-09-01T07:03:02Z</time>
      </trkpt>
      <trkpt lat="47.13064" lon="6.05729">
        <ele>465.2</ele>
        <time>2024-09-01T07:03:03Z</time>
      </trkpt>
      <trkpt lat="47.13063" lon="6.05732">
        <ele>465.4</ele>
        <time>2024-09-01T07:03:04Z</time>
      </trkpt>
      <trkpt lat="47.1306" lon="6.05735">
        <ele>465.6</ele>
        <time>2024-09-01T07:03:05Z</time>
      </trkpt>
      <trkpt lat="47.13058" lon="6.05738">
        <ele>465.6</ele>
        <time>2024-09-01T07:03:06Z</time>
      </trkpt>
      <trkpt lat="47.13056" lon="6.05741">
        <ele>465.8</ele>
        <time>2024-09-01T07:03:07Z</time>
      </trkpt>
      <trkpt lat="47.13054" lon="6.05744">
        <ele>466</ele>
        <time>2024-09-01T07:03:08Z</time>
      </trkpt>
      <trkpt lat="47.13052" lon="6.05747">
        <ele>466.2</ele>
        <time>2024-09-01T07:03:09Z</time>
      </trkpt>
      <trkpt lat="47.1305" lon="6.0575">
        <ele>466.6</ele>
        <time>2024-09-01T07:03:10Z</time>
      </trkpt>
      <trkpt lat="47.13048" lon="6.05752">
        <ele>466.8</ele>
        <time>2024-09-01T07:03:11Z</time>
      </trkpt>
      <trkpt lat="47.13046" lon="6.05755">
        <ele>466.8</ele>
        <time>2024-09-01T07:03:12Z</time>
      </trkpt>
      <trkpt lat="47.13044" lon="6.05757">
        <ele>467</ele>
        <time>2024-09-01T07:03:13Z</time>
      </trkpt>
      <trkpt lat="47.13041" lon="6.05759">
        <ele>467.2</ele>
        <time>2024-09-01T07:03:14Z</time>
      </trkpt>
      <trkpt lat="47.13039" lon="6.05761">
        <ele>467.4</ele>
        <time>2024-09-01T07:03:15Z</time>
      </trkpt>
      <trkpt lat="47.13037" lon="6.05763">
        <ele>467.6</ele>
        <time>2024-09-01T07:03:16Z</time>
      </trkpt>
      <trkpt lat="47.13035" lon="6.05765">
        <ele>467.8</ele>
        <time>2024-09-01T07:03:17Z</time>
      </trkpt>
      <trkpt lat="47.13033" lon="6.05767">
        <ele>468</ele>
        <time>2024-09-01T07:03:18Z</time>
      </trkpt>
      <trkpt lat="47.13031" lon="6.05768">
        <ele>468.2</ele>
        <time>2024-09-01T07:03:19Z</time>
      </trkpt>
      <trkpt lat="47.13029" lon="6.05771">
        <ele>468.4</ele>
        <time>2024-09-01T07:03:20Z</time>
      </trkpt>
      <trkpt lat="47.13027" lon="6.05774">
        <ele>468.8</ele>
        <time>2024-09-01T07:03:21Z</time>
      </trkpt>
      <trkpt lat="47.13025" lon="6.05776">
        <ele>469</ele>
        <time>2024-09-01T07:03:22Z</time>
      </trkpt>
      <trkpt lat="47.13023" lon="6.05778">
        <ele>469.2</ele>
        <time>2024-09-01T07:03:23Z</time>
      </trkpt>
      <trkpt lat="47.13021" lon="6.05779">
        <ele>469.6</ele>
        <time>2024-09-01T07:03:24Z</time>
      </trkpt>
      <trkpt lat="47.13019" lon="6.05781">
        <ele>469.8</ele>
        <time>2024-09-01T07:03:25Z</time>
      </trkpt>
      <trkpt lat="47.13017" lon="6.05783">
        <ele>470</ele>
        <time>2024-09-01T07:03:26Z</time>
      </trkpt>
      <trkpt lat="47.13015" lon="6.05785">
        <ele>470.2</ele>
        <time>2024-09-01T07:03:27Z</time>
      </trkpt>
      <trkpt lat="47.13013" lon="6.05787">
        <ele>470.4</ele>
        <time>2024-09-01T07:03:28Z</time>
      </trkpt>
      <trkpt lat="47.13011" lon="6.0579">
        <ele>470.8</ele>
        <time>2024-09-01T07:03:29Z</time>
      </trkpt>
      <trkpt lat="47.13009" lon="6.05792">
        <ele>471</ele>
        <time>2024-09-01T07:03:30Z</time>
      </trkpt>
      <trkpt lat="47.13007" lon="6.05795">
        <ele>471.4</ele>
        <time>2024-09-01T07:03:31Z</time>
      </trkpt>
      <trkpt lat="47.13005" lon="6.05797">
        <ele>471.8</ele>
        <time>2024-09-01T07:03:32Z</time>
      </trkpt>
      <trkpt lat="47.13003" lon="6.05799">
        <ele>472</ele>
        <time>2024-09-01T07:03:33Z</time>
      </trkpt>
      <trkpt lat="47.13001" lon="6.05802">
        <ele>472.4</ele>
        <time>2024-09-01T07:03:34Z</time>
      </trkpt>
      <trkpt lat="47.12999" lon="6.05804">
        <ele>472.6</ele>
        <time>2024-09-01T07:03:35Z</time>
      </trkpt>
      <trkpt lat="47.12997" lon="6.05807">
        <ele>473</ele>
        <time>2024-09-01T07:03:36Z</time>
      </trkpt>
      <trkpt lat="47.12995" lon="6.05809">
        <ele>473.2</ele>
        <time>2024-09-01T07:03:37Z</time>
      </trkpt>
      <trkpt lat="47.12993" lon="6.05811">
        <ele>473.6</ele>
        <time>2024-09-01T07:03:38Z</time>
      </trkpt>
      <trkpt lat="47.12991" lon="6.05813">
        <ele>473.8</ele>
        <time>2024-09-01T07:03:39Z</time>
      </trkpt>
      <trkpt lat="47.1299" lon="6.05816">
        <ele>474.2</ele>
        <time>2024-09-01T07:03:40Z</time>
      </trkpt>
      <trkpt lat="47.12988" lon="6.05818">
        <ele>474.8</ele>
        <time>2024-09-01T07:03:41Z</time>
      </trkpt>
      <trkpt lat="47.12987" lon="6.05821">
        <ele>475.2</ele>
        <time>2024-09-01T07:03:42Z</time>
      </trkpt>
      <trkpt lat="47.12985" lon="6.05823">
        <ele>475.4</ele>
        <time>2024-09-01T07:03:43Z</time>
      </trkpt>
      <trkpt lat="47.12984" lon="6.05826">
        <ele>475.6</ele>
        <time>2024-09-01T07:03:44Z</time>
      </trkpt>
      <trkpt lat="47.12982" lon="6.05827">
        <ele>476</ele>
        <time>2024-09-01T07:03:45Z</time>
      </trkpt>
      <trkpt lat="47.12981" lon="6.05829">
        <ele>476.6</ele>
        <time>2024-09-01T07:03:46Z</time>
      </trkpt>
      <trkpt lat="47.1298" lon="6.05831">
        <ele>476.8</ele>
        <time>2024-09-01T07:03:47Z</time>
      </trkpt>
      <trkpt lat="47.12979" lon="6.05833">
        <ele>477.2</ele>
        <time>2024-09-01T07:03:48Z</time>
      </trkpt>
      <trkpt lat="47.12977" lon="6.05835">
        <ele>477.6</ele>
        <time>2024-09-01T07:03:49Z</time>
      </trkpt>
      <trkpt lat="47.12975" lon="6.05837">
        <ele>477.8</ele>
        <time>2024-09-01T07:03:50Z</time>
      </trkpt>
      <trkpt lat="47.12973" lon="6.05838">
        <ele>478.2</ele>
        <time>2024-09-01T07:03:51Z</time>
      </trkpt>
      <trkpt lat="47.12971" lon="6.05841">
        <ele>478.6</ele>
        <time>2024-09-01T07:03:52Z</time>
      </trkpt>
      <trkpt lat="47.1297" lon="6.05844">
        <ele>479</ele>
        <time>2024-09-01T07:03:53Z</time>
      </trkpt>
      <trkpt lat="47.12968" lon="6.05847">
        <ele>479.4</ele>
        <time>2024-09-01T07:03:54Z</time>
      </trkpt>
      <trkpt lat="47.12966" lon="6.0585">
        <ele>479.6</ele>
        <time>2024-09-01T07:03:55Z</time>
      </trkpt>
      <trkpt lat="47.12963" lon="6.05852">
        <ele>479.8</ele>
        <time>2024-09-01T07:03:56Z</time>
      </trkpt>
      <trkpt lat="47.1296" lon="6.05855">
        <ele>480.2</ele>
        <time>2024-09-01T07:03:57Z</time>
      </trkpt>
      <trkpt lat="47.12958" lon="6.05858">
        <ele>480.4</ele>
        <time>2024-09-01T07:03:58Z</time>
      </trkpt>
      <trkpt lat="47.12955" lon="6.0586">
        <ele>480.6</ele>
        <time>2024-09-01T07:03:59Z</time>
      </trkpt>
      <trkpt lat="47.12951" lon="6.05862">
        <ele>481</ele>
        <time>2024-09-01T07:04:00Z</time>
      </trkpt>
      <trkpt lat="47.12949" lon="6.05864">
        <ele>481</ele>
        <time>2024-09-01T07:04:01Z</time>
      </trkpt>
      <trkpt lat="47.12946" lon="6.05866">
        <ele>481.4</ele>
        <time>2024-09-01T07:04:02Z</time>
      </trkpt>
      <trkpt lat="47.12944" lon="6.05868">
        <ele>481.6</ele>
        <time>2024-09-01T07:04:03Z</time>
      </trkpt>
      <trkpt lat="47.12941" lon="6.0587">
        <ele>481.8</ele>
        <time>2024-09-01T07:04:04Z</time>
      </trkpt>
      <trkpt lat="47.12938" lon="6.05873">
        <ele>482.2</ele>
        <time>2024-09-01T07:04:05Z</time>
      </trkpt>
      <trkpt lat="47.12935" lon="6.05877">
        <ele>482.4</ele>
        <time>2024-09-01T07:04:06Z</time>
      </trkpt>
      <trkpt lat="47.12933" lon="6.0588">
        <ele>482.8</ele>
        <time>2024-09-01T07:04:07Z</time>
      </trkpt>
      <trkpt lat="47.1293" lon="6.05883">
        <ele>482.8</ele>
        <time>2024-09-01T07:04:08Z</time>
      </trkpt>
      <trkpt lat="47.12927" lon="6.05887">
        <ele>483.2</ele>
        <time>2024-09-01T07:04:09Z</time>
      </trkpt>
      <trkpt lat="47.12924" lon="6.0589">
        <ele>483.4</ele>
        <time>2024-09-01T07:04:10Z</time>
      </trkpt>
      <trkpt lat="47.12921" lon="6.05894">
        <ele>483.6</ele>
        <time>2024-09-01T07:04:11Z</time>
      </trkpt>
      <trkpt lat="47.12917" lon="6.05898">
        <ele>483.6</ele>
        <time>2024-09-01T07:04:12Z</time>
      </trkpt>
      <trkpt lat="47.12915" lon="6.05903">
        <ele>483.8</ele>
        <time>2024-09-01T07:04:13Z</time>
      </trkpt>
      <trkpt lat="47.12912" lon="6.05907">
        <ele>483.8</ele>
        <time>2024-09-01T07:04:14Z</time>
      </trkpt>
      <trkpt lat="47.12909" lon="6.05911">
        <ele>484</ele>
        <time>2024-09-01T07:04:15Z</time>
      </trkpt>
      <trkpt lat="47.12906" lon="6.05915">
        <ele>484.2</ele>
        <time>2024-09-01T07:04:16Z</time>
      </trkpt>
      <trkpt lat="47.12903" lon="6.05919">
        <ele>484.2</ele>
        <time>2024-09-01T07:04:17Z</time>
      </trkpt>
      <trkpt lat="47.129" lon="6.05923">
        <ele>484.4</ele>
        <time>2024-09-01T07:04:18Z</time>
      </trkpt>
      <trkpt lat="47.12897" lon="6.05928">
        <ele>484.6</ele>
        <time>2024-09-01T07:04:19Z</time>
      </trkpt>
      <trkpt lat="47.12893" lon="6.05931">
        <ele>484.6</ele>
        <time>2024-09-01T07:04:20Z</time>
      </trkpt>
      <trkpt lat="47.12891" lon="6.05935">
        <ele>484.8</ele>
        <time>2024-09-01T07:04:21Z</time>
      </trkpt>
      <trkpt lat="47.12888" lon="6.05939">
        <ele>484.8</ele>
        <time>2024-09-01T07:04:22Z</time>
      </trkpt>
      <trkpt lat="47.12885" lon="6.05942">
        <ele>484.8</ele>
        <time>2024-09-01T07:04:23Z</time>
      </trkpt>
      <trkpt lat="47.12882" lon="6.05947">
        <ele>485</ele>
        <time>2024-09-01T07:04:24Z</time>
      </trkpt>
      <trkpt lat="47.12879" lon="6.05951">
        <ele>485</ele>
        <time>2024-09-01T07:04:25Z</time>
      </trkpt>
      <trkpt lat="47.12877" lon="6.05956">
        <ele>485</ele>
        <time>2024-09-01T07:04:26Z</time>
      </trkpt>
      <trkpt lat="47.12874" lon="6.05959">
        <ele>485</ele>
        <time>2024-09-01T07:04:27Z</time>
      </trkpt>
      <trkpt lat="47.12871" lon="6.05963">
        <ele>485</ele>
        <time>2024-09-01T07:04:28Z</time>
      </trkpt>
      <trkpt lat="47.12869" lon="6.05967">
        <ele>485</ele>
        <time>2024-09-01T07:04:29Z</time>
      </trkpt>
      <trkpt lat="47.12866" lon="6.05971">
        <ele>485</ele>
        <time>2024-09-01T07:04:30Z</time>
      </trkpt>
      <trkpt lat="47.12863" lon="6.05975">
        <ele>485</ele>
        <time>2024-09-01T07:04:31Z</time>
      </trkpt>
      <trkpt lat="47.1286" lon="6.05979">
        <ele>485</ele>
        <time>2024-09-01T07:04:32Z</time>
      </trkpt>
      <trkpt lat="47.12857" lon="6.05983">
        <ele>485</ele>
        <time>2024-09-01T07:04:33Z</time>
      </trkpt>
      <trkpt lat="47.12855" lon="6.05986">
        <ele>485</ele>
        <time>2024-09-01T07:04:34Z</time>
      </trkpt>
      <trkpt lat="47.12852" lon="6.05989">
        <ele>484.8</ele>
        <time>2024-09-01T07:04:35Z</time>
      </trkpt>
      <trkpt lat="47.12848" lon="6.05992">
        <ele>484.6</ele>
        <time>2024-09-01T07:04:36Z</time>
      </trkpt>
      <trkpt lat="47.12846" lon="6.05996">
        <ele>484.4</ele>
        <time>2024-09-01T07:04:37Z</time>
      </trkpt>
      <trkpt lat="47.12843" lon="6.06">
        <ele>484.4</ele>
        <time>2024-09-01T07:04:38Z</time>
      </trkpt>
      <trkpt lat="47.1284" lon="6.06004">
        <ele>484.4</ele>
        <time>2024-09-01T07:04:39Z</time>
      </trkpt>
      <trkpt lat="47.12836" lon="6.06008">
        <ele>484.2</ele>
        <time>2024-09-01T07:04:40Z</time>
      </trkpt>
      <trkpt lat="47.12832" lon="6.06012">
        <ele>484</ele>
        <time>2024-09-01T07:04:41Z</time>
      </trkpt>
      <trkpt lat="47.12828" lon="6.06016">
        <ele>484</ele>
        <time>2024-09-01T07:04:42Z</time>
      </trkpt>
      <trkpt lat="47.12824" lon="6.06021">
        <ele>484</ele>
        <time>2024-09-01T07:04:43Z</time>
      </trkpt>
      <trkpt lat="47.1282" lon="6.06025">
        <ele>484</ele>
        <time>2024-09-01T07:04:44Z</time>
      </trkpt>
      <trkpt lat="47.12815" lon="6.06028">
        <ele>483.8</ele>
        <time>2024-09-01T07:04:45Z</time>
      </trkpt>
      <trkpt lat="47.12812" lon="6.06035">
        <ele>483.8</ele>
        <time>2024-09-01T07:04:46Z</time>
      </trkpt>
      <trkpt lat="47.12808" lon="6.06041">
        <ele>483.6</ele>
        <time>2024-09-01T07:04:47Z</time>
      </trkpt>
      <trkpt lat="47.12804" lon="6.06046">
        <ele>483.6</ele>
        <time>2024-09-01T07:04:48Z</time>
      </trkpt>
      <trkpt lat="47.12801" lon="6.06051">
        <ele>483.4</ele>
        <time>2024-09-01T07:04:49Z</time>
      </trkpt>
      <trkpt lat="47.12797" lon="6.06057">
        <ele>483</ele>
        <time>2024-09-01T07:04:50Z</time>
      </trkpt>
      <trkpt lat="47.12793" lon="6.06063">
        <ele>482.8</ele>
        <time>2024-09-01T07:04:51Z</time>
      </trkpt>
      <trkpt lat="47.12789" lon="6.06068">
        <ele>482.2</ele>
        <time>2024-09-01T07:04:52Z</time>
      </trkpt>
      <trkpt lat="47.12785" lon="6.06074">
        <ele>481.8</ele>
        <time>2024-09-01T07:04:53Z</time>
      </trkpt>
      <trkpt lat="47.12781" lon="6.06079">
        <ele>481.8</ele>
        <time>2024-09-01T07:04:54Z</time>
      </trkpt>
      <trkpt lat="47.12777" lon="6.06083">
        <ele>481.6</ele>
        <time>2024-09-01T07:04:55Z</time>
      </trkpt>
      <trkpt lat="47.12773" lon="6.06088">
        <ele>481.6</ele>
        <time>2024-09-01T07:04:56Z</time>
      </trkpt>
      <trkpt lat="47.12769" lon="6.06094">
        <ele>481.4</ele>
        <time>2024-09-01T07:04:57Z</time>
      </trkpt>
      <trkpt lat="47.12765" lon="6.06099">
        <ele>481.2</ele>
        <time>2024-09-01T07:04:58Z</time>
      </trkpt>
      <trkpt lat="47.12761" lon="6.06105">
        <ele>481.4</ele>
        <time>2024-09-01T07:04:59Z</time>
      </trkpt>
      <trkpt lat="47.12756" lon="6.06111">
        <ele>481.2</ele>
        <time>2024-09-01T07:05:00Z</time>
      </trkpt>
      <trkpt lat="47.12752" lon="6.06117">
        <ele>481.2</ele>
        <time>2024-09-01T07:05:01Z</time>
      </trkpt>
      <trkpt lat="47.12747" lon="6.06122">
        <ele>481.2</ele>
        <time>2024-09-01T07:05:02Z</time>
      </trkpt>
      <trkpt lat="47.12743" lon="6.06127">
        <ele>481.2</ele>
        <time>2024-09-01T07:05:03Z</time>
      </trkpt>
      <trkpt lat="47.12739" lon="6.06131">
        <ele>481.2</ele>
        <time>2024-09-01T07:05:04Z</time>
      </trkpt>
      <trkpt lat="47.12734" lon="6.06136">
        <ele>481.2</ele>
        <time>2024-09-01T07:05:05Z</time>
      </trkpt>
      <trkpt lat="47.1273" lon="6.0614">
        <ele>481.2</ele>
        <time>2024-09-01T07:05:06Z</time>
      </trkpt>
      <trkpt lat="47.12726" lon="6.06143">
        <ele>481.2</ele>
        <time>2024-09-01T07:05:07Z</time>
      </trkpt>
      <trkpt lat="47.12723" lon="6.06146">
        <ele>481.2</ele>
        <time>2024-09-01T07:05:08Z</time>
      </trkpt>
      <trkpt lat="47.1272" lon="6.06148">
        <ele>481.2</ele>
        <time>2024-09-01T07:05:09Z</time>
      </trkpt>
      <trkpt lat="47.12717" lon="6.0615">
        <ele>481.2</ele>
        <time>2024-09-01T07:05:10Z</time>
      </trkpt>
      <trkpt lat="47.12714" lon="6.06153">
        <ele>481.2</ele>
        <time>2024-09-01T07:05:11Z</time>
      </trkpt>
      <trkpt lat="47.12711" lon="6.06155">
        <ele>481.4</ele>
        <time>2024-09-01T07:05:12Z</time>
      </trkpt>
      <trkpt lat="47.12708" lon="6.06157">
        <ele>481.2</ele>
        <time>2024-09-01T07:05:13Z</time>
      </trkpt>
      <trkpt lat="47.12705" lon="6.06159">
        <ele>481.2</ele>
        <time>2024-09-01T07:05:14Z</time>
      </trkpt>
      <trkpt lat="47.12702" lon="6.0616">
        <ele>481.4</ele>
        <time>2024-09-01T07:05:15Z</time>
      </trkpt>
      <trkpt lat="47.12699" lon="6.06161">
        <ele>481.4</ele>
        <time>2024-09-01T07:05:16Z</time>
      </trkpt>
      <trkpt lat="47.12695" lon="6.06162">
        <ele>481.4</ele>
        <time>2024-09-01T07:05:17Z</time>
      </trkpt>
      <trkpt lat="47.12692" lon="6.06163">
        <ele>481.6</ele>
        <time>2024-09-01T07:05:18Z</time>
      </trkpt>
      <trkpt lat="47.12689" lon="6.06163">
        <ele>481.6</ele>
        <time>2024-09-01T07:05:19Z</time>
      </trkpt>
      <trkpt lat="47.12686" lon="6.06163">
        <ele>481.8</ele>
        <time>2024-09-01T07:05:20Z</time>
      </trkpt>
      <trkpt lat="47.12683" lon="6.06163">
        <ele>481.8</ele>
        <time>2024-09-01T07:05:21Z</time>
      </trkpt>
      <trkpt lat="47.1268" lon="6.06164">
        <ele>482</ele>
        <time>2024-09-01T07:05:22Z</time>
      </trkpt>
      <trkpt lat="47.12677" lon="6.06164">
        <ele>482.2</ele>
        <time>2024-09-01T07:05:23Z</time>
      </trkpt>
      <trkpt lat="47.12675" lon="6.06164">
        <ele>482.2</ele>
        <time>2024-09-01T07:05:24Z</time>
      </trkpt>
      <trkpt lat="47.12672" lon="6.06164">
        <ele>482.2</ele>
        <time>2024-09-01T07:05:25Z</time>
      </trkpt>
      <trkpt lat="47.1267" lon="6.06164">
        <ele>482.2</ele>
        <time>2024-09-01T07:05:26Z</time>
      </trkpt>
      <trkpt lat="47.12667" lon="6.06163">
        <ele>482.4</ele>
        <time>2024-09-01T07:05:27Z</time>
      </trkpt>
      <trkpt lat="47.12665" lon="6.06163">
        <ele>482.6</ele>
        <time>2024-09-01T07:05:28Z</time>
      </trkpt>
      <trkpt lat="47.12663" lon="6.06164">
        <ele>482.6</ele>
        <time>2024-09-01T07:05:29Z</time>
      </trkpt>
      <trkpt lat="47.12661" lon="6.06164">
        <ele>482.6</ele>
        <time>2024-09-01T07:05:30Z</time>
      </trkpt>
      <trkpt lat="47.12658" lon="6.06165">
        <ele>482.8</ele>
        <time>2024-09-01T07:05:31Z</time>
      </trkpt>
      <trkpt lat="47.12657" lon="6.06165">
        <ele>482.8</ele>
        <time>2024-09-01T07:05:32Z</time>
      </trkpt>
      <trkpt lat="47.12655" lon="6.06165">
        <ele>482.6</ele>
        <time>2024-09-01T07:05:33Z</time>
      </trkpt>
      <trkpt lat="47.12654" lon="6.06165">
        <ele>482.8</ele>
        <time>2024-09-01T07:05:34Z</time>
      </trkpt>
      <trkpt lat="47.12653" lon="6.06166">
        <ele>483</ele>
        <time>2024-09-01T07:05:35Z</time>
      </trkpt>
      <trkpt lat="47.12652" lon="6.06166">
        <ele>483</ele>
        <time>2024-09-01T07:05:36Z</time>
      </trkpt>
      <trkpt lat="47.1265" lon="6.06165">
        <ele>483.2</ele>
        <time>2024-09-01T07:05:37Z</time>
      </trkpt>
      <trkpt lat="47.12649" lon="6.06165">
        <ele>483.2</ele>
        <time>2024-09-01T07:05:38Z</time>
      </trkpt>
      <trkpt lat="47.12647" lon="6.06165">
        <ele>483.2</ele>
        <time>2024-09-01T07:05:39Z</time>
      </trkpt>
      <trkpt lat="47.12644" lon="6.06165">
        <ele>483.2</ele>
        <time>2024-09-01T07:05:40Z</time>
      </trkpt>
      <trkpt lat="47.1264" lon="6.06165">
        <ele>483.4</ele>
        <time>2024-09-01T07:05:41Z</time>
      </trkpt>
      <trkpt lat="47.12637" lon="6.06165">
        <ele>483.4</ele>
        <time>2024-09-01T07:05:42Z</time>
      </trkpt>
      <trkpt lat="47.12634" lon="6.06165">
        <ele>483.4</ele>
        <time>2024-09-01T07:05:43Z</time>
      </trkpt>
      <trkpt lat="47.12632" lon="6.06166">
        <ele>483.4</ele>
        <time>2024-09-01T07:05:44Z</time>
      </trkpt>
      <trkpt lat="47.12631" lon="6.06166">
        <ele>483.6</ele>
        <time>2024-09-01T07:05:45Z</time>
      </trkpt>
      <trkpt lat="47.12628" lon="6.06166">
        <ele>483.8</ele>
        <time>2024-09-01T07:05:46Z</time>
      </trkpt>
      <trkpt lat="47.12625" lon="6.06166">
        <ele>483.8</ele>
        <time>2024-09-01T07:05:47Z</time>
      </trkpt>
      <trkpt lat="47.12622" lon="6.06168">
        <ele>483.8</ele>
        <time>2024-09-01T07:05:48Z</time>
      </trkpt>
      <trkpt lat="47.12619" lon="6.06169">
        <ele>483.8</ele>
        <time>2024-09-01T07:05:49Z</time>
      </trkpt>
      <trkpt lat="47.12616" lon="6.06169">
        <ele>483.8</ele>
        <time>2024-09-01T07:05:50Z</time>
      </trkpt>
      <trkpt lat="47.12613" lon="6.06169">
        <ele>484</ele>
        <time>2024-09-01T07:05:51Z</time>
      </trkpt>
      <trkpt lat="47.12609" lon="6.06168">
        <ele>483.8</ele>
        <time>2024-09-01T07:05:52Z</time>
      </trkpt>
      <trkpt lat="47.12605" lon="6.06168">
        <ele>483.8</ele>
        <time>2024-09-01T07:05:53Z</time>
      </trkpt>
      <trkpt lat="47.12601" lon="6.06168">
        <ele>484</ele>
        <time>2024-09-01T07:05:54Z</time>
      </trkpt>
      <trkpt lat="47.12597" lon="6.06168">
        <ele>484</ele>
        <time>2024-09-01T07:05:55Z</time>
      </trkpt>
      <trkpt lat="47.12592" lon="6.06168">
        <ele>483.8</ele>
        <time>2024-09-01T07:05:56Z</time>
      </trkpt>
      <trkpt lat="47.12588" lon="6.06168">
        <ele>483.8</ele>
        <time>2024-09-01T07:05:57Z</time>
      </trkpt>
      <trkpt lat="47.12584" lon="6.06168">
        <ele>483.8</ele>
        <time>2024-09-01T07:05:58Z</time>
      </trkpt>
      <trkpt lat="47.1258" lon="6.06168">
        <ele>483.6</ele>
        <time>2024-09-01T07:05:59Z</time>
      </trkpt>
      <trkpt lat="47.12576" lon="6.06168">
        <ele>483.4</ele>
        <time>2024-09-01T07:06:00Z</time>
      </trkpt>
      <trkpt lat="47.12572" lon="6.06168">
        <ele>483.6</ele>
        <time>2024-09-01T07:06:01Z</time>
      </trkpt>
      <trkpt lat="47.12568" lon="6.06167">
        <ele>483.4</ele>
        <time>2024-09-01T07:06:02Z</time>
      </trkpt>
      <trkpt lat="47.12564" lon="6.06167">
        <ele>483.4</ele>
        <time>2024-09-01T07:06:03Z</time>
      </trkpt>
      <trkpt lat="47.1256" lon="6.06165">
        <ele>483.4</ele>
        <time>2024-09-01T07:06:04Z</time>
      </trkpt>
      <trkpt lat="47.12557" lon="6.06164">
        <ele>483.4</ele>
        <time>2024-09-01T07:06:05Z</time>
      </trkpt>
      <trkpt lat="47.12553" lon="6.06163">
        <ele>483.2</ele>
        <time>2024-09-01T07:06:06Z</time>
      </trkpt>
      <trkpt lat="47.1255" lon="6.06162">
        <ele>483.2</ele>
        <time>2024-09-01T07:06:07Z</time>
      </trkpt>
      <trkpt lat="47.12547" lon="6.06162">
        <ele>483.4</ele>
        <time>2024-09-01T07:06:08Z</time>
      </trkpt>
      <trkpt lat="47.12543" lon="6.06162">
        <ele>483.4</ele>
        <time>2024-09-01T07:06:09Z</time>
      </trkpt>
      <trkpt lat="47.12539" lon="6.06162">
        <ele>483.4</ele>
        <time>2024-09-01T07:06:10Z</time>
      </trkpt>
      <trkpt lat="47.12536" lon="6.06162">
        <ele>483.4</ele>
        <time>2024-09-01T07:06:11Z</time>
      </trkpt>
      <trkpt lat="47.12533" lon="6.06163">
        <ele>483.4</ele>
        <time>2024-09-01T07:06:12Z</time>
      </trkpt>
      <trkpt lat="47.1253" lon="6.06163">
        <ele>483.4</ele>
        <time>2024-09-01T07:06:13Z</time>
      </trkpt>
      <trkpt lat="47.12526" lon="6.06164">
        <ele>483.8</ele>
        <time>2024-09-01T07:06:14Z</time>
      </trkpt>
      <trkpt lat="47.12523" lon="6.06163">
        <ele>483.8</ele>
        <time>2024-09-01T07:06:15Z</time>
      </trkpt>
      <trkpt lat="47.1252" lon="6.06164">
        <ele>483.8</ele>
        <time>2024-09-01T07:06:16Z</time>
      </trkpt>
      <trkpt lat="47.12516" lon="6.06164">
        <ele>484.2</ele>
        <time>2024-09-01T07:06:17Z</time>
      </trkpt>
      <trkpt lat="47.12513" lon="6.06163">
        <ele>484.4</ele>
        <time>2024-09-01T07:06:18Z</time>
      </trkpt>
      <trkpt lat="47.12509" lon="6.06164">
        <ele>484.6</ele>
        <time>2024-09-01T07:06:19Z</time>
      </trkpt>
      <trkpt lat="47.12506" lon="6.06163">
        <ele>484.6</ele>
        <time>2024-09-01T07:06:20Z</time>
      </trkpt>
      <trkpt lat="47.12502" lon="6.06164">
        <ele>485</ele>
        <time>2024-09-01T07:06:21Z</time>
      </trkpt>
      <trkpt lat="47.12499" lon="6.06163">
        <ele>485</ele>
        <time>2024-09-01T07:06:22Z</time>
      </trkpt>
      <trkpt lat="47.12496" lon="6.06163">
        <ele>485.4</ele>
        <time>2024-09-01T07:06:23Z</time>
      </trkpt>
      <trkpt lat="47.12493" lon="6.06163">
        <ele>485.4</ele>
        <time>2024-09-01T07:06:24Z</time>
      </trkpt>
      <trkpt lat="47.1249" lon="6.06163">
        <ele>485.4</ele>
        <time>2024-09-01T07:06:25Z</time>
      </trkpt>
      <trkpt lat="47.12486" lon="6.06163">
        <ele>485.8</ele>
        <time>2024-09-01T07:06:26Z</time>
      </trkpt>
      <trkpt lat="47.12483" lon="6.06163">
        <ele>485.8</ele>
        <time>2024-09-01T07:06:27Z</time>
      </trkpt>
      <trkpt lat="47.1248" lon="6.06163">
        <ele>486</ele>
        <time>2024-09-01T07:06:28Z</time>
      </trkpt>
      <trkpt lat="47.12477" lon="6.06163">
        <ele>486</ele>
        <time>2024-09-01T07:06:29Z</time>
      </trkpt>
      <trkpt lat="47.12473" lon="6.06162">
        <ele>486</ele>
        <time>2024-09-01T07:06:30Z</time>
      </trkpt>
      <trkpt lat="47.1247" lon="6.06161">
        <ele>486</ele>
        <time>2024-09-01T07:06:31Z</time>
      </trkpt>
      <trkpt lat="47.12467" lon="6.06161">
        <ele>486.2</ele>
        <time>2024-09-01T07:06:32Z</time>
      </trkpt>
      <trkpt lat="47.12463" lon="6.06161">
        <ele>486.2</ele>
        <time>2024-09-01T07:06:33Z</time>
      </trkpt>
      <trkpt lat="47.1246" lon="6.0616">
        <ele>486.2</ele>
        <time>2024-09-01T07:06:34Z</time>
      </trkpt>
      <trkpt lat="47.12457" lon="6.06159">
        <ele>486.2</ele>
        <time>2024-09-01T07:06:35Z</time>
      </trkpt>
      <trkpt lat="47.12454" lon="6.06159">
        <ele>486.4</ele>
        <time>2024-09-01T07:06:36Z</time>
      </trkpt>
      <trkpt lat="47.12451" lon="6.06158">
        <ele>486.6</ele>
        <time>2024-09-01T07:06:37Z</time>
      </trkpt>
      <trkpt lat="47.12448" lon="6.06158">
        <ele>486.6</ele>
        <time>2024-09-01T07:06:38Z</time>
      </trkpt>
      <trkpt lat="47.12445" lon="6.06158">
        <ele>486.8</ele>
        <time>2024-09-01T07:06:39Z</time>
      </trkpt>
      <trkpt lat="47.12442" lon="6.06158">
        <ele>487</ele>
        <time>2024-09-01T07:06:40Z</time>
      </trkpt>
      <trkpt lat="47.1244" lon="6.06158">
        <ele>487</ele>
        <time>2024-09-01T07:06:41Z</time>
      </trkpt>
      <trkpt lat="47.12437" lon="6.06158">
        <ele>487</ele>
        <time>2024-09-01T07:06:42Z</time>
      </trkpt>
      <trkpt lat="47.12434" lon="6.06158">
        <ele>487.2</ele>
        <time>2024-09-01T07:06:43Z</time>
      </trkpt>
      <trkpt lat="47.12431" lon="6.06157">
        <ele>487.4</ele>
        <time>2024-09-01T07:06:44Z</time>
      </trkpt>
      <trkpt lat="47.12428" lon="6.06157">
        <ele>487.6</ele>
        <time>2024-09-01T07:06:45Z</time>
      </trkpt>
      <trkpt lat="47.12426" lon="6.06157">
        <ele>487.6</ele>
        <time>2024-09-01T07:06:46Z</time>
      </trkpt>
      <trkpt lat="47.12423" lon="6.06157">
        <ele>487.8</ele>
        <time>2024-09-01T07:06:47Z</time>
      </trkpt>
      <trkpt lat="47.12421" lon="6.06157">
        <ele>488</ele>
        <time>2024-09-01T07:06:48Z</time>
      </trkpt>
      <trkpt lat="47.12418" lon="6.06157">
        <ele>488.2</ele>
        <time>2024-09-01T07:06:49Z</time>
      </trkpt>
      <trkpt lat="47.12415" lon="6.06157">
        <ele>488.4</ele>
        <time>2024-09-01T07:06:50Z</time>
      </trkpt>
      <trkpt lat="47.12412" lon="6.06157">
        <ele>488.4</ele>
        <time>2024-09-01T07:06:51Z</time>
      </trkpt>
      <trkpt lat="47.1241" lon="6.06157">
        <ele>488.8</ele>
        <time>2024-09-01T07:06:52Z</time>
      </trkpt>
      <trkpt lat="47.12407" lon="6.06157">
        <ele>489</ele>
        <time>2024-09-01T07:06:53Z</time>
      </trkpt>
      <trkpt lat="47.12404" lon="6.06155">
        <ele>489</ele>
        <time>2024-09-01T07:06:54Z</time>
      </trkpt>
      <trkpt lat="47.12401" lon="6.06155">
        <ele>489.4</ele>
        <time>2024-09-01T07:06:55Z</time>
      </trkpt>
      <trkpt lat="47.12399" lon="6.06153">
        <ele>489.6</ele>
        <time>2024-09-01T07:06:56Z</time>
      </trkpt>
      <trkpt lat="47.12397" lon="6.06152">
        <ele>489.6</ele>
        <time>2024-09-01T07:06:57Z</time>
      </trkpt>
      <trkpt lat="47.12394" lon="6.0615">
        <ele>489.6</ele>
        <time>2024-09-01T07:06:58Z</time>
      </trkpt>
      <trkpt lat="47.12391" lon="6.06147">
        <ele>490</ele>
        <time>2024-09-01T07:06:59Z</time>
      </trkpt>
      <trkpt lat="47.12388" lon="6.06144">
        <ele>490.4</ele>
        <time>2024-09-01T07:07:00Z</time>
      </trkpt>
      <trkpt lat="47.12386" lon="6.06142">
        <ele>490.4</ele>
        <time>2024-09-01T07:07:01Z</time>
      </trkpt>
      <trkpt lat="47.12383" lon="6.06139">
        <ele>490.8</ele>
        <time>2024-09-01T07:07:02Z</time>
      </trkpt>
      <trkpt lat="47.1238" lon="6.06137">
        <ele>490.8</ele>
        <time>2024-09-01T07:07:03Z</time>
      </trkpt>
      <trkpt lat="47.12377" lon="6.06135">
        <ele>490.8</ele>
        <time>2024-09-01T07:07:04Z</time>
      </trkpt>
      <trkpt lat="47.12374" lon="6.06133">
        <ele>491</ele>
        <time>2024-09-01T07:07:05Z</time>
      </trkpt>
      <trkpt lat="47.12372" lon="6.06131">
        <ele>491.4</ele>
        <time>2024-09-01T07:07:06Z</time>
      </trkpt>
      <trkpt lat="47.1237" lon="6.06129">
        <ele>491.6</ele>
        <time>2024-09-01T07:07:07Z</time>
      </trkpt>
      <trkpt lat="47.12367" lon="6.06128">
        <ele>491.8</ele>
        <time>2024-09-01T07:07:08Z</time>
      </trkpt>
      <trkpt lat="47.12365" lon="6.06126">
        <ele>492.2</ele>
        <time>2024-09-01T07:07:09Z</time>
      </trkpt>
      <trkpt lat="47.12362" lon="6.06125">
        <ele>492.4</ele>
        <time>2024-09-01T07:07:10Z</time>
      </trkpt>
      <trkpt lat="47.1236" lon="6.06124">
        <ele>492.8</ele>
        <time>2024-09-01T07:07:11Z</time>
      </trkpt>
      <trkpt lat="47.12358" lon="6.06122">
        <ele>493</ele>
        <time>2024-09-01T07:07:12Z</time>
      </trkpt>
      <trkpt lat="47.12354" lon="6.06121">
        <ele>493.4</ele>
        <time>2024-09-01T07:07:13Z</time>
      </trkpt>
      <trkpt lat="47.12351" lon="6.0612">
        <ele>493.4</ele>
        <time>2024-09-01T07:07:14Z</time>
      </trkpt>
      <trkpt lat="47.12347" lon="6.06118">
        <ele>493.6</ele>
        <time>2024-09-01T07:07:15Z</time>
      </trkpt>
      <trkpt lat="47.12344" lon="6.06117">
        <ele>493.8</ele>
        <time>2024-09-01T07:07:16Z</time>
      </trkpt>
      <trkpt lat="47.12341" lon="6.06115">
        <ele>494.2</ele>
        <time>2024-09-01T07:07:17Z</time>
      </trkpt>
      <trkpt lat="47.12338" lon="6.06114">
        <ele>494.6</ele>
        <time>2024-09-01T07:07:18Z</time>
      </trkpt>
      <trkpt lat="47.12335" lon="6.06112">
        <ele>494.8</ele>
        <time>2024-09-01T07:07:19Z</time>
      </trkpt>
      <trkpt lat="47.12333" lon="6.06111">
        <ele>495</ele>
        <time>2024-09-01T07:07:20Z</time>
      </trkpt>
      <trkpt lat="47.1233" lon="6.0611">
        <ele>495</ele>
        <time>2024-09-01T07:07:21Z</time>
      </trkpt>
      <trkpt lat="47.12328" lon="6.06108">
        <ele>495.2</ele>
        <time>2024-09-01T07:07:22Z</time>
      </trkpt>
      <trkpt lat="47.12325" lon="6.06107">
        <ele>495.2</ele>
        <time>2024-09-01T07:07:23Z</time>
      </trkpt>
      <trkpt lat="47.12322" lon="6.06105">
        <ele>495.6</ele>
        <time>2024-09-01T07:07:24Z</time>
      </trkpt>
      <trkpt lat="47.12319" lon="6.06104">
        <ele>496.2</ele>
        <time>2024-09-01T07:07:25Z</time>
      </trkpt>
      <trkpt lat="47.12316" lon="6.06103">
        <ele>496.4</ele>
        <time>2024-09-01T07:07:26Z</time>
      </trkpt>
      <trkpt lat="47.12314" lon="6.06101">
        <ele>496.6</ele>
        <time>2024-09-01T07:07:27Z</time>
      </trkpt>
      <trkpt lat="47.12312" lon="6.061">
        <ele>496.8</ele>
        <time>2024-09-01T07:07:28Z</time>
      </trkpt>
      <trkpt lat="47.1231" lon="6.06099">
        <ele>497</ele>
        <time>2024-09-01T07:07:29Z</time>
      </trkpt>
      <trkpt lat="47.12308" lon="6.06098">
        <ele>497.4</ele>
        <time>2024-09-01T07:07:30Z</time>
      </trkpt>
      <trkpt lat="47.12306" lon="6.06097">
        <ele>497.4</ele>
        <time>2024-09-01T07:07:31Z</time>
      </trkpt>
      <trkpt lat="47.12304" lon="6.06096">
        <ele>498</ele>
        <time>2024-09-01T07:07:32Z</time>
      </trkpt>
      <trkpt lat="47.12302" lon="6.06095">
        <ele>498.6</ele>
        <time>2024-09-01T07:07:33Z</time>
      </trkpt>
      <trkpt lat="47.123" lon="6.06094">
        <ele>499</ele>
        <time>2024-09-01T07:07:34Z</time>
      </trkpt>
      <trkpt lat="47.12298" lon="6.06093">
        <ele>499.2</ele>
        <time>2024-09-01T07:07:35Z</time>
      </trkpt>
      <trkpt lat="47.12296" lon="6.06092">
        <ele>499.8</ele>
        <time>2024-09-01T07:07:36Z</time>
      </trkpt>
      <trkpt lat="47.12294" lon="6.06092">
        <ele>500.2</ele>
        <time>2024-09-01T07:07:37Z</time>
      </trkpt>
      <trkpt lat="47.12291" lon="6.06091">
        <ele>501</ele>
        <time>2024-09-01T07:07:38Z</time>
      </trkpt>
      <trkpt lat="47.12289" lon="6.0609">
        <ele>501.2</ele>
        <time>2024-09-01T07:07:39Z</time>
      </trkpt>
      <trkpt lat="47.12286" lon="6.0609">
        <ele>501.4</ele>
        <time>2024-09-01T07:07:40Z</time>
      </trkpt>
      <trkpt lat="47.12283" lon="6.06089">
        <ele>501.8</ele>
        <time>2024-09-01T07:07:41Z</time>
      </trkpt>
      <trkpt lat="47.1228" lon="6.06088">
        <ele>502</ele>
        <time>2024-09-01T07:07:42Z</time>
      </trkpt>
      <trkpt lat="47.12278" lon="6.06088">
        <ele>502</ele>
        <time>2024-09-01T07:07:43Z</time>
      </trkpt>
      <trkpt lat="47.12275" lon="6.06087">
        <ele>502.2</ele>
        <time>2024-09-01T07:07:44Z</time>
      </trkpt>
      <trkpt lat="47.12273" lon="6.06086">
        <ele>502.6</ele>
        <time>2024-09-01T07:07:45Z</time>
      </trkpt>
      <trkpt lat="47.1227" lon="6.06085">
        <ele>502.6</ele>
        <time>2024-09-01T07:07:46Z</time>
      </trkpt>
      <trkpt lat="47.12267" lon="6.06085">
        <ele>502.8</ele>
        <time>2024-09-01T07:07:47Z</time>
      </trkpt>
      <trkpt lat="47.12264" lon="6.06084">
        <ele>503</ele>
        <time>2024-09-01T07:07:48Z</time>
      </trkpt>
      <trkpt lat="47.12262" lon="6.06082">
        <ele>503.2</ele>
        <time>2024-09-01T07:07:49Z</time>
      </trkpt>
      <trkpt lat="47.12259" lon="6.06081">
        <ele>503.2</ele>
        <time>2024-09-01T07:07:50Z</time>
      </trkpt>
      <trkpt lat="47.12257" lon="6.0608">
        <ele>503.4</ele>
        <time>2024-09-01T07:07:51Z</time>
      </trkpt>
      <trkpt lat="47.12254" lon="6.06079">
        <ele>503.4</ele>
        <time>2024-09-01T07:07:52Z</time>
      </trkpt>
      <trkpt lat="47.12252" lon="6.06078">
        <ele>503.8</ele>
        <time>2024-09-01T07:07:53Z</time>
      </trkpt>
      <trkpt lat="47.1225" lon="6.06078">
        <ele>503.8</ele>
        <time>2024-09-01T07:07:54Z</time>
      </trkpt>
      <trkpt lat="47.12247" lon="6.06077">
        <ele>504</ele>
        <time>2024-09-01T07:07:55Z</time>
      </trkpt>
      <trkpt lat="47.12245" lon="6.06076">
        <ele>504.2</ele>
        <time>2024-09-01T07:07:56Z</time>
      </trkpt>
      <trkpt lat="47.12243" lon="6.06075">
        <ele>504.4</ele>
        <time>2024-09-01T07:07:57Z</time>
      </trkpt>
      <trkpt lat="47.12241" lon="6.06074">
        <ele>504.4</ele>
        <time>2024-09-01T07:07:58Z</time>
      </trkpt>
      <trkpt lat="47.12239" lon="6.06073">
        <ele>504.6</ele>
        <time>2024-09-01T07:07:59Z</time>
      </trkpt>
      <trkpt lat="47.12238" lon="6.06072">
        <ele>504.8</ele>
        <time>2024-09-01T07:08:00Z</time>
      </trkpt>
      <trkpt lat="47.12235" lon="6.06072">
        <ele>505</ele>
        <time>2024-09-01T07:08:01Z</time>
      </trkpt>
      <trkpt lat="47.12233" lon="6.06071">
        <ele>505</ele>
        <time>2024-09-01T07:08:02Z</time>
      </trkpt>
      <trkpt lat="47.1223" lon="6.06069">
        <ele>505.2</ele>
        <time>2024-09-01T07:08:03Z</time>
      </trkpt>
      <trkpt lat="47.12228" lon="6.06068">
        <ele>505.4</ele>
        <time>2024-09-01T07:08:04Z</time>
      </trkpt>
      <trkpt lat="47.12226" lon="6.06067">
        <ele>505.8</ele>
        <time>2024-09-01T07:08:05Z</time>
      </trkpt>
      <trkpt lat="47.12223" lon="6.06065">
        <ele>506</ele>
        <time>2024-09-01T07:08:06Z</time>
      </trkpt>
      <trkpt lat="47.1222" lon="6.06063">
        <ele>505.8</ele>
        <time>2024-09-01T07:08:07Z</time>
      </trkpt>
      <trkpt lat="47.12218" lon="6.06062">
        <ele>506</ele>
        <time>2024-09-01T07:08:08Z</time>
      </trkpt>
      <trkpt lat="47.12215" lon="6.0606">
        <ele>506.4</ele>
        <time>2024-09-01T07:08:09Z</time>
      </trkpt>
      <trkpt lat="47.12214" lon="6.06059">
        <ele>506.6</ele>
        <time>2024-09-01T07:08:10Z</time>
      </trkpt>
      <trkpt lat="47.12212" lon="6.06058">
        <ele>506.6</ele>
        <time>2024-09-01T07:08:11Z</time>
      </trkpt>
      <trkpt lat="47.1221" lon="6.06056">
        <ele>506.8</ele>
        <time>2024-09-01T07:08:12Z</time>
      </trkpt>
      <trkpt lat="47.12208" lon="6.06055">
        <ele>507</ele>
        <time>2024-09-01T07:08:13Z</time>
      </trkpt>
      <trkpt lat="47.12205" lon="6.06054">
        <ele>507.2</ele>
        <time>2024-09-01T07:08:14Z</time>
      </trkpt>
      <trkpt lat="47.12202" lon="6.06053">
        <ele>507.4</ele>
        <time>2024-09-01T07:08:15Z</time>
      </trkpt>
      <trkpt lat="47.122" lon="6.06053">
        <ele>507.4</ele>
        <time>2024-09-01T07:08:16Z</time>
      </trkpt>
      <trkpt lat="47.12198" lon="6.06051">
        <ele>507.6</ele>
        <time>2024-09-01T07:08:17Z</time>
      </trkpt>
      <trkpt lat="47.12195" lon="6.06049">
        <ele>507.6</ele>
        <time>2024-09-01T07:08:18Z</time>
      </trkpt>
      <trkpt lat="47.12192" lon="6.06047">
        <ele>508</ele>
        <time>2024-09-01T07:08:19Z</time>
      </trkpt>
      <trkpt lat="47.12188" lon="6.06044">
        <ele>508</ele>
        <time>2024-09-01T07:08:20Z</time>
      </trkpt>
      <trkpt lat="47.12185" lon="6.06043">
        <ele>508.2</ele>
        <time>2024-09-01T07:08:21Z</time>
      </trkpt>
      <trkpt lat="47.12182" lon="6.06042">
        <ele>508.2</ele>
        <time>2024-09-01T07:08:22Z</time>
      </trkpt>
      <trkpt lat="47.12178" lon="6.06041">
        <ele>508.4</ele>
        <time>2024-09-01T07:08:23Z</time>
      </trkpt>
      <trkpt lat="47.12175" lon="6.0604">
        <ele>508.4</ele>
        <time>2024-09-01T07:08:24Z</time>
      </trkpt>
      <trkpt lat="47.12171" lon="6.06039">
        <ele>508.4</ele>
        <time>2024-09-01T07:08:25Z</time>
      </trkpt>
      <trkpt lat="47.12166" lon="6.06038">
        <ele>508.6</ele>
        <time>2024-09-01T07:08:26Z</time>
      </trkpt>
      <trkpt lat="47.12163" lon="6.06038">
        <ele>508.6</ele>
        <time>2024-09-01T07:08:27Z</time>
      </trkpt>
      <trkpt lat="47.12159" lon="6.06037">
        <ele>508.8</ele>
        <time>2024-09-01T07:08:28Z</time>
      </trkpt>
      <trkpt lat="47.12156" lon="6.06036">
        <ele>508.8</ele>
        <time>2024-09-01T07:08:29Z</time>
      </trkpt>
      <trkpt lat="47.12152" lon="6.06035">
        <ele>508.8</ele>
        <time>2024-09-01T07:08:30Z</time>
      </trkpt>
      <trkpt lat="47.12149" lon="6.06035">
        <ele>508.8</ele>
        <time>2024-09-01T07:08:31Z</time>
      </trkpt>
      <trkpt lat="47.12145" lon="6.06034">
        <ele>508.8</ele>
        <time>2024-09-01T07:08:32Z</time>
      </trkpt>
      <trkpt lat="47.12141" lon="6.06033">
        <ele>508.8</ele>
        <time>2024-09-01T07:08:33Z</time>
      </trkpt>
      <trkpt lat="47.12137" lon="6.06033">
        <ele>509</ele>
        <time>2024-09-01T07:08:34Z</time>
      </trkpt>
      <trkpt lat="47.12134" lon="6.06033">
        <ele>509</ele>
        <time>2024-09-01T07:08:35Z</time>
      </trkpt>
      <trkpt lat="47.12131" lon="6.06032">
        <ele>509</ele>
        <time>2024-09-01T07:08:36Z</time>
      </trkpt>
      <trkpt lat="47.12127" lon="6.06032">
        <ele>509.2</ele>
        <time>2024-09-01T07:08:37Z</time>
      </trkpt>
      <trkpt lat="47.12124" lon="6.06032">
        <ele>509.2</ele>
        <time>2024-09-01T07:08:38Z</time>
      </trkpt>
      <trkpt lat="47.1212" lon="6.06032">
        <ele>509.2</ele>
        <time>2024-09-01T07:08:39Z</time>
      </trkpt>
      <trkpt lat="47.12117" lon="6.06032">
        <ele>509.2</ele>
        <time>2024-09-01T07:08:40Z</time>
      </trkpt>
      <trkpt lat="47.12114" lon="6.06032">
        <ele>509.6</ele>
        <time>2024-09-01T07:08:41Z</time>
      </trkpt>
      <trkpt lat="47.12111" lon="6.06033">
        <ele>509.6</ele>
        <time>2024-09-01T07:08:42Z</time>
      </trkpt>
      <trkpt lat="47.12108" lon="6.06033">
        <ele>509.6</ele>
        <time>2024-09-01T07:08:43Z</time>
      </trkpt>
      <trkpt lat="47.12105" lon="6.06033">
        <ele>510</ele>
        <time>2024-09-01T07:08:44Z</time>
      </trkpt>
      <trkpt lat="47.12102" lon="6.06033">
        <ele>510</ele>
        <time>2024-09-01T07:08:45Z</time>
      </trkpt>
      <trkpt lat="47.12099" lon="6.06032">
        <ele>510.2</ele>
        <time>2024-09-01T07:08:46Z</time>
      </trkpt>
      <trkpt lat="47.12096" lon="6.06031">
        <ele>510.4</ele>
        <time>2024-09-01T07:08:47Z</time>
      </trkpt>
      <trkpt lat="47.12093" lon="6.06031">
        <ele>510.8</ele>
        <time>2024-09-01T07:08:48Z</time>
      </trkpt>
      <trkpt lat="47.1209" lon="6.06031">
        <ele>511.2</ele>
        <time>2024-09-01T07:08:49Z</time>
      </trkpt>
      <trkpt lat="47.12087" lon="6.06032">
        <ele>511.2</ele>
        <time>2024-09-01T07:08:50Z</time>
      </trkpt>
      <trkpt lat="47.12084" lon="6.06032">
        <ele>511.4</ele>
        <time>2024-09-01T07:08:51Z</time>
      </trkpt>
      <trkpt lat="47.12082" lon="6.06032">
        <ele>511.6</ele>
        <time>2024-09-01T07:08:52Z</time>
      </trkpt>
      <trkpt lat="47.12079" lon="6.06032">
        <ele>512</ele>
        <time>2024-09-01T07:08:53Z</time>
      </trkpt>
      <trkpt lat="47.12076" lon="6.06032">
        <ele>512.2</ele>
        <time>2024-09-01T07:08:54Z</time>
      </trkpt>
      <trkpt lat="47.12074" lon="6.06032">
        <ele>512.2</ele>
        <time>2024-09-01T07:08:55Z</time>
      </trkpt>
      <trkpt lat="47.12071" lon="6.06031">
        <ele>512.6</ele>
        <time>2024-09-01T07:08:56Z</time>
      </trkpt>
      <trkpt lat="47.12068" lon="6.0603">
        <ele>512.6</ele>
        <time>2024-09-01T07:08:57Z</time>
      </trkpt>
      <trkpt lat="47.12064" lon="6.06028">
        <ele>513</ele>
        <time>2024-09-01T07:08:58Z</time>
      </trkpt>
      <trkpt lat="47.12061" lon="6.06027">
        <ele>513.2</ele>
        <time>2024-09-01T07:08:59Z</time>
      </trkpt>
      <trkpt lat="47.12058" lon="6.06026">
        <ele>513.2</ele>
        <time>2024-09-01T07:09:00Z</time>
      </trkpt>
      <trkpt lat="47.12056" lon="6.06026">
        <ele>513.6</ele>
        <time>2024-09-01T07:09:01Z</time>
      </trkpt>
      <trkpt lat="47.12053" lon="6.06026">
        <ele>513.6</ele>
        <time>2024-09-01T07:09:02Z</time>
      </trkpt>
      <trkpt lat="47.1205" lon="6.06026">
        <ele>513.6</ele>
        <time>2024-09-01T07:09:03Z</time>
      </trkpt>
      <trkpt lat="47.12047" lon="6.06026">
        <ele>513.8</ele>
        <time>2024-09-01T07:09:04Z</time>
      </trkpt>
      <trkpt lat="47.12044" lon="6.06026">
        <ele>514</ele>
        <time>2024-09-01T07:09:05Z</time>
      </trkpt>
      <trkpt lat="47.12042" lon="6.06028">
        <ele>514</ele>
        <time>2024-09-01T07:09:06Z</time>
      </trkpt>
      <trkpt lat="47.1204" lon="6.06028">
        <ele>514</ele>
        <time>2024-09-01T07:09:07Z</time>
      </trkpt>
      <trkpt lat="47.12038" lon="6.06027">
        <ele>514</ele>
        <time>2024-09-01T07:09:08Z</time>
      </trkpt>
      <trkpt lat="47.12036" lon="6.06027">
        <ele>514</ele>
        <time>2024-09-01T07:09:09Z</time>
      </trkpt>
      <trkpt lat="47.12034" lon="6.06027">
        <ele>514.2</ele>
        <time>2024-09-01T07:09:10Z</time>
      </trkpt>
      <trkpt lat="47.12033" lon="6.06026">
        <ele>514.2</ele>
        <time>2024-09-01T07:09:11Z</time>
      </trkpt>
      <trkpt lat="47.12031" lon="6.06026">
        <ele>514.2</ele>
        <time>2024-09-01T07:09:12Z</time>
      </trkpt>
      <trkpt lat="47.1203" lon="6.06025">
        <ele>514</ele>
        <time>2024-09-01T07:09:13Z</time>
      </trkpt>
      <trkpt lat="47.12029" lon="6.06026">
        <ele>514</ele>
        <time>2024-09-01T07:09:14Z</time>
      </trkpt>
      <trkpt lat="47.12027" lon="6.06026">
        <ele>514</ele>
        <time>2024-09-01T07:09:15Z</time>
      </trkpt>
      <trkpt lat="47.12026" lon="6.06027">
        <ele>514</ele>
        <time>2024-09-01T07:09:16Z</time>
      </trkpt>
      <trkpt lat="47.12024" lon="6.06028">
        <ele>514</ele>
        <time>2024-09-01T07:09:17Z</time>
      </trkpt>
      <trkpt lat="47.12023" lon="6.06029">
        <ele>514</ele>
        <time>2024-09-01T07:09:18Z</time>
      </trkpt>
      <trkpt lat="47.12023" lon="6.06029">
        <ele>513.8</ele>
        <time>2024-09-01T07:09:19Z</time>
      </trkpt>
      <trkpt lat="47.12022" lon="6.0603">
        <ele>514</ele>
        <time>2024-09-01T07:09:20Z</time>
      </trkpt>
      <trkpt lat="47.12021" lon="6.0603">
        <ele>514</ele>
        <time>2024-09-01T07:09:21Z</time>
      </trkpt>
      <trkpt lat="47.12021" lon="6.06031">
        <ele>513.8</ele>
        <time>2024-09-01T07:09:22Z</time>
      </trkpt>
      <trkpt lat="47.1202" lon="6.0603">
        <ele>514</ele>
        <time>2024-09-01T07:09:23Z</time>
      </trkpt>
      <trkpt lat="47.1202" lon="6.0603">
        <ele>513.6</ele>
        <time>2024-09-01T07:09:24Z</time>
      </trkpt>
      <trkpt lat="47.12019" lon="6.06031">
        <ele>513.8</ele>
        <time>2024-09-01T07:09:25Z</time>
      </trkpt>
      <trkpt lat="47.12019" lon="6.06031">
        <ele>513.8</ele>
        <time>2024-09-01T07:09:26Z</time>
      </trkpt>
      <trkpt lat="47.12019" lon="6.06031">
        <ele>513.8</ele>
        <time>2024-09-01T07:09:27Z</time>
      </trkpt>
      <trkpt lat="47.12019" lon="6.06031">
        <ele>513.8</ele>
        <time>2024-09-01T07:09:28Z</time>
      </trkpt>
      <trkpt lat="47.12019" lon="6.06031">
        <ele>513.6</ele>
        <time>2024-09-01T07:09:29Z</time>
      </trkpt>
      <trkpt lat="47.12019" lon="6.06031">
        <ele>513.8</ele>
        <time>2024-09-01T07:09:30Z</time>
      </trkpt>
      <trkpt lat="47.12019" lon="6.06031">
        <ele>513.6</ele>
        <time>2024-09-01T07:09:31Z</time>
      </trkpt>
      <trkpt lat="47.12019" lon="6.06031">
        <ele>513.6</ele>
        <time>2024-09-01T07:09:32Z</time>
      </trkpt>
      <trkpt lat="47.12019" lon="6.06031">
        <ele>513.6</ele>
        <time>2024-09-01T07:09:33Z</time>
      </trkpt>
      <trkpt lat="47.12019" lon="6.06031">
        <ele>513.6</ele>
        <time>2024-09-01T07:09:34Z</time>
      </trkpt>
      <trkpt lat="47.12019" lon="6.06031">
        <ele>513.6</ele>
        <time>2024-09-01T07:09:35Z</time>
      </trkpt>
      <trkpt lat="47.12019" lon="6.06031">
        <ele>513.8</ele>
        <time>2024-09-01T07:09:36Z</time>
      </trkpt>
      <trkpt lat="47.12019" lon="6.06031">
        <ele>513.8</ele>
        <time>2024-09-01T07:09:37Z</time>
      </trkpt>
      <trkpt lat="47.12019" lon="6.06031">
        <ele>513.8</ele>
        <time>2024-09-01T07:09:38Z</time>
      </trkpt>
      <trkpt lat="47.12018" lon="6.06031">
        <ele>513.8</ele>
        <time>2024-09-01T07:09:39Z</time>
      </trkpt>
      <trkpt lat="47.12018" lon="6.06031">
        <ele>513.8</ele>
        <time>2024-09-01T07:09:40Z</time>
      </trkpt>
      <trkpt lat="47.12018" lon="6.06031">
        <ele>513.8</ele>
        <time>2024-09-01T07:09:41Z</time>
      </trkpt>
      <trkpt lat="47.12018" lon="6.06031">
        <ele>513.8</ele>
        <time>2024-09-01T07:09:42Z</time>
      </trkpt>
      <trkpt lat="47.12018" lon="6.06032">
        <ele>513.8</ele>
        <time>2024-09-01T07:09:43Z</time>
      </trkpt>
      <trkpt lat="47.12018" lon="6.06032">
        <ele>513.6</ele>
        <time>2024-09-01T07:09:44Z</time>
      </trkpt>
      <trkpt lat="47.12018" lon="6.06032">
        <ele>513.6</ele>
        <time>2024-09-01T07:09:45Z</time>
      </trkpt>
      <trkpt lat="47.12018" lon="6.06032">
        <ele>513.8</ele>
        <time>2024-09-01T07:09:46Z</time>
      </trkpt>
      <trkpt lat="47.12018" lon="6.06032">
        <ele>513.8</ele>
        <time>2024-09-01T07:09:47Z</time>
      </trkpt>
      <trkpt lat="47.12018" lon="6.06032">
        <ele>513.6</ele>
        <time>2024-09-01T07:09:48Z</time>
      </trkpt>
      <trkpt lat="47.12018" lon="6.06032">
        <ele>513.8</ele>
        <time>2024-09-01T07:09:49Z</time>
      </trkpt>
      <trkpt lat="47.12018" lon="6.06032">
        <ele>513.8</ele>
        <time>2024-09-01T07:09:50Z</time>
      </trkpt>
      <trkpt lat="47.12018" lon="6.06032">
        <ele>513.8</ele>
        <time>2024-09-01T07:09:51Z</time>
      </trkpt>
      <trkpt lat="47.12018" lon="6.06032">
        <ele>513.8</ele>
        <time>2024-09-01T07:09:52Z</time>
      </trkpt>
      <trkpt lat="47.12018" lon="6.06031">
        <ele>513.6</ele>
        <time>2024-09-01T07:09:53Z</time>
      </trkpt>
      <trkpt lat="47.12018" lon="6.06031">
        <ele>513.8</ele>
        <time>2024-09-01T07:09:54Z</time>
      </trkpt>
      <trkpt lat="47.12018" lon="6.06031">
        <ele>513.8</ele>
        <time>2024-09-01T07:09:55Z</time>
      </trkpt>
      <trkpt lat="47.12018" lon="6.06031">
        <ele>513.8</ele>
        <time>2024-09-01T07:09:56Z</time>
      </trkpt>
      <trkpt lat="47.12018" lon="6.06031">
        <ele>513.8</ele>
        <time>2024-09-01T07:09:57Z</time>
      </trkpt>
      <trkpt lat="47.12018" lon="6.06031">
        <ele>513.8</ele>
        <time>2024-09-01T07:09:58Z</time>
      </trkpt>
      <trkpt lat="47.12018" lon="6.06031">
        <ele>513.8</ele>
        <time>2024-09-01T07:09:59Z</time>
      </trkpt>
      <trkpt lat="47.12018" lon="6.06031">
        <ele>513.8</ele>
        <time>2024-09-01T07:10:00Z</time>
      </trkpt>
      <trkpt lat="47.12018" lon="6.06031">
        <ele>513.8</ele>
        <time>2024-09-01T07:10:01Z</time>
      </trkpt>
      <trkpt lat="47.12018" lon="6.06031">
        <ele>513.8</ele>
        <time>2024-09-01T07:10:02Z</time>
      </trkpt>
      <trkpt lat="47.12018" lon="6.06031">
        <ele>513.8</ele>
        <time>2024-09-01T07:10:03Z</time>
      </trkpt>
      <trkpt lat="47.12018" lon="6.06031">
        <ele>513.8</ele>
        <time>2024-09-01T07:10:04Z</time>
      </trkpt>
      <trkpt lat="47.12018" lon="6.06031">
        <ele>513.8</ele>
        <time>2024-09-01T07:10:05Z</time>
      </trkpt>
      <trkpt lat="47.12017" lon="6.06031">
        <ele>513.8</ele>
        <time>2024-09-01T07:10:06Z</time>
      </trkpt>
      <trkpt lat="47.12017" lon="6.06031">
        <ele>513.8</ele>
        <time>2024-09-01T07:10:07Z</time>
      </trkpt>
      <trkpt lat="47.12017" lon="6.06031">
        <ele>513.8</ele>
        <time>2024-09-01T07:10:08Z</time>
      </trkpt>
      <trkpt lat="47.12017" lon="6.06031">
        <ele>513.6</ele>
        <time>2024-09-01T07:10:09Z</time>
      </trkpt>
      <trkpt lat="47.12017" lon="6.06031">
        <ele>513.8</ele>
        <time>2024-09-01T07:10:10Z</time>
      </trkpt>
      <trkpt lat="47.12017" lon="6.06031">
        <ele>513.8</ele>
        <time>2024-09-01T07:10:11Z</time>
      </trkpt>
      <trkpt lat="47.12017" lon="6.06031">
        <ele>513.6</ele>
        <time>2024-09-01T07:10:12Z</time>
      </trkpt>
      <trkpt lat="47.12017" lon="6.06031">
        <ele>513.8</ele>
        <time>2024-09-01T07:10:13Z</time>
      </trkpt>
      <trkpt lat="47.12017" lon="6.06031">
        <ele>513.8</ele>
        <time>2024-09-01T07:10:14Z</time>
      </trkpt>
      <trkpt lat="47.12017" lon="6.06031">
        <ele>513.8</ele>
        <time>2024-09-01T07:10:15Z</time>
      </trkpt>
      <trkpt lat="47.12017" lon="6.06031">
        <ele>513.8</ele>
        <time>2024-09-01T07:10:16Z</time>
      </trkpt>
      <trkpt lat="47.12017" lon="6.06032">
        <ele>513.8</ele>
        <time>2024-09-01T07:10:17Z</time>
      </trkpt>
      <trkpt lat="47.12017" lon="6.06032">
        <ele>513.6</ele>
        <time>2024-09-01T07:10:18Z</time>
      </trkpt>
      <trkpt lat="47.12016" lon="6.06032">
        <ele>513.6</ele>
        <time>2024-09-01T07:10:19Z</time>
      </trkpt>
      <trkpt lat="47.12016" lon="6.06031">
        <ele>513.6</ele>
        <time>2024-09-01T07:10:20Z</time>
      </trkpt>
      <trkpt lat="47.12016" lon="6.06031">
        <ele>513.6</ele>
        <time>2024-09-01T07:10:21Z</time>
      </trkpt>
      <trkpt lat="47.12015" lon="6.06032">
        <ele>513.6</ele>
        <time>2024-09-01T07:10:22Z</time>
      </trkpt>
      <trkpt lat="47.12015" lon="6.06032">
        <ele>513.8</ele>
        <time>2024-09-01T07:10:23Z</time>
      </trkpt>
      <trkpt lat="47.12014" lon="6.06032">
        <ele>513.6</ele>
        <time>2024-09-01T07:10:24Z</time>
      </trkpt>
      <trkpt lat="47.12014" lon="6.06031">
        <ele>513.6</ele>
        <time>2024-09-01T07:10:25Z</time>
      </trkpt>
      <trkpt lat="47.12014" lon="6.06031">
        <ele>513.6</ele>
        <time>2024-09-01T07:10:26Z</time>
      </trkpt>
      <trkpt lat="47.12014" lon="6.06031">
        <ele>513.6</ele>
        <time>2024-09-01T07:10:27Z</time>
      </trkpt>
      <trkpt lat="47.12014" lon="6.06031">
        <ele>513.6</ele>
        <time>2024-09-01T07:10:28Z</time>
      </trkpt>
      <trkpt lat="47.12014" lon="6.06031">
        <ele>513.6</ele>
        <time>2024-09-01T07:10:29Z</time>
      </trkpt>
      <trkpt lat="47.12014" lon="6.06031">
        <ele>513.6</ele>
        <time>2024-09-01T07:10:30Z</time>
      </trkpt>
      <trkpt lat="47.12014" lon="6.06031">
        <ele>513.8</ele>
        <time>2024-09-01T07:10:31Z</time>
      </trkpt>
      <trkpt lat="47.12014" lon="6.06031">
        <ele>513.6</ele>
        <time>2024-09-01T07:10:32Z</time>
      </trkpt>
      <trkpt lat="47.12014" lon="6.06031">
        <ele>513.6</ele>
        <time>2024-09-01T07:10:33Z</time>
      </trkpt>
      <trkpt lat="47.12014" lon="6.06031">
        <ele>513.6</ele>
        <time>2024-09-01T07:10:34Z</time>
      </trkpt>
      <trkpt lat="47.12014" lon="6.06031">
        <ele>513.6</ele>
        <time>2024-09-01T07:10:35Z</time>
      </trkpt>
      <trkpt lat="47.12014" lon="6.06031">
        <ele>513.6</ele>
        <time>2024-09-01T07:10:36Z</time>
      </trkpt>
      <trkpt lat="47.12014" lon="6.06031">
        <ele>513.6</ele>
        <time>2024-09-01T07:10:37Z</time>
      </trkpt>
      <trkpt lat="47.12014" lon="6.06031">
        <ele>513.6</ele>
        <time>2024-09-01T07:10:38Z</time>
      </trkpt>
      <trkpt lat="47.12014" lon="6.06031">
        <ele>513.6</ele>
        <time>2024-09-01T07:10:39Z</time>
      </trkpt>
      <trkpt lat="47.12014" lon="6.06031">
        <ele>513.6</ele>
        <time>2024-09-01T07:10:40Z</time>
      </trkpt>
      <trkpt lat="47.12014" lon="6.06031">
        <ele>513.8</ele>
        <time>2024-09-01T07:10:41Z</time>
      </trkpt>
      <trkpt lat="47.12014" lon="6.06031">
        <ele>513.8</ele>
        <time>2024-09-01T07:10:42Z</time>
      </trkpt>
      <trkpt lat="47.12014" lon="6.06031">
        <ele>513.8</ele>
        <time>2024-09-01T07:10:43Z</time>
      </trkpt>
      <trkpt lat="47.12014" lon="6.06031">
        <ele>513.8</ele>
        <time>2024-09-01T07:10:44Z</time>
      </trkpt>
      <trkpt lat="47.12014" lon="6.06031">
        <ele>513.8</ele>
        <time>2024-09-01T07:10:45Z</time>
      </trkpt>
      <trkpt lat="47.12014" lon="6.06031">
        <ele>513.6</ele>
        <time>2024-09-01T07:10:46Z</time>
      </trkpt>
      <trkpt lat="47.12014" lon="6.06031">
        <ele>513.8</ele>
        <time>2024-09-01T07:10:47Z</time>
      </trkpt>
      <trkpt lat="47.12013" lon="6.06031">
        <ele>513.6</ele>
        <time>2024-09-01T07:10:48Z</time>
      </trkpt>
      <trkpt lat="47.12012" lon="6.0603">
        <ele>513.6</ele>
        <time>2024-09-01T07:10:49Z</time>
      </trkpt>
      <trkpt lat="47.12011" lon="6.0603">
        <ele>513.6</ele>
        <time>2024-09-01T07:10:50Z</time>
      </trkpt>
      <trkpt lat="47.12009" lon="6.0603">
        <ele>513.6</ele>
        <time>2024-09-01T07:10:51Z</time>
      </trkpt>
      <trkpt lat="47.12008" lon="6.0603">
        <ele>513.6</ele>
        <time>2024-09-01T07:10:52Z</time>
      </trkpt>
      <trkpt lat="47.12006" lon="6.06029">
        <ele>513.8</ele>
        <time>2024-09-01T07:10:53Z</time>
      </trkpt>
      <trkpt lat="47.12003" lon="6.06028">
        <ele>513.6</ele>
        <time>2024-09-01T07:10:54Z</time>
      </trkpt>
      <trkpt lat="47.12" lon="6.06028">
        <ele>513.6</ele>
        <time>2024-09-01T07:10:55Z</time>
      </trkpt>
      <trkpt lat="47.11996" lon="6.06028">
        <ele>513.6</ele>
        <time>2024-09-01T07:10:56Z</time>
      </trkpt>
      <trkpt lat="47.11992" lon="6.06029">
        <ele>513.6</ele>
        <time>2024-09-01T07:10:57Z</time>
      </trkpt>
      <trkpt lat="47.11989" lon="6.06029">
        <ele>513.6</ele>
        <time>2024-09-01T07:10:58Z</time>
      </trkpt>
      <trkpt lat="47.11984" lon="6.06029">
        <ele>513.6</ele>
        <time>2024-09-01T07:10:59Z</time>
      </trkpt>
      <trkpt lat="47.1198" lon="6.0603">
        <ele>513.4</ele>
        <time>2024-09-01T07:11:00Z</time>
      </trkpt>
      <trkpt lat="47.11975" lon="6.0603">
        <ele>513.4</ele>
        <time>2024-09-01T07:11:01Z</time>
      </trkpt>
      <trkpt lat="47.1197" lon="6.06031">
        <ele>513.2</ele>
        <time>2024-09-01T07:11:02Z</time>
      </trkpt>
      <trkpt lat="47.11964" lon="6.06032">
        <ele>513</ele>
        <time>2024-09-01T07:11:03Z</time>
      </trkpt>
      <trkpt lat="47.11959" lon="6.06033">
        <ele>512.8</ele>
        <time>2024-09-01T07:11:04Z</time>
      </trkpt>
      <trkpt lat="47.11953" lon="6.06033">
        <ele>512.8</ele>
        <time>2024-09-01T07:11:05Z</time>
      </trkpt>
      <trkpt lat="47.11947" lon="6.06034">
        <ele>512.6</ele>
        <time>2024-09-01T07:11:06Z</time>
      </trkpt>
      <trkpt lat="47.1194" lon="6.06034">
        <ele>512.4</ele>
        <time>2024-09-01T07:11:07Z</time>
      </trkpt>
      <trkpt lat="47.11933" lon="6.06035">
        <ele>512.4</ele>
        <time>2024-09-01T07:11:08Z</time>
      </trkpt>
      <trkpt lat="47.11926" lon="6.06037">
        <ele>512.2</ele>
        <time>2024-09-01T07:11:09Z</time>
      </trkpt>
      <trkpt lat="47.11918" lon="6.06039">
        <ele>511.8</ele>
        <time>2024-09-01T07:11:10Z</time>
      </trkpt>
      <trkpt lat="47.11909" lon="6.06041">
        <ele>511.8</ele>
        <time>2024-09-01T07:11:11Z</time>
      </trkpt>
      <trkpt lat="47.11901" lon="6.06042">
        <ele>511</ele>
        <time>2024-09-01T07:11:12Z</time>
      </trkpt>
      <trkpt lat="47.11894" lon="6.06044">
        <ele>510.6</ele>
        <time>2024-09-01T07:11:13Z</time>
      </trkpt>
      <trkpt lat="47.11886" lon="6.06044">
        <ele>510.4</ele>
        <time>2024-09-01T07:11:14Z</time>
      </trkpt>
      <trkpt lat="47.11878" lon="6.06045">
        <ele>510</ele>
        <time>2024-09-01T07:11:15Z</time>
      </trkpt>
      <trkpt lat="47.1187" lon="6.06046">
        <ele>509.2</ele>
        <time>2024-09-01T07:11:16Z</time>
      </trkpt>
      <trkpt lat="47.11862" lon="6.06048">
        <ele>508.6</ele>
        <time>2024-09-01T07:11:17Z</time>
      </trkpt>
      <trkpt lat="47.11854" lon="6.06048">
        <ele>508</ele>
        <time>2024-09-01T07:11:18Z</time>
      </trkpt>
      <trkpt lat="47.11846" lon="6.06049">
        <ele>507.2</ele>
        <time>2024-09-01T07:11:19Z</time>
      </trkpt>
      <trkpt lat="47.11839" lon="6.0605">
        <ele>507</ele>
        <time>2024-09-01T07:11:20Z</time>
      </trkpt>
      <trkpt lat="47.11833" lon="6.06051">
        <ele>506.2</ele>
        <time>2024-09-01T07:11:21Z</time>
      </trkpt>
      <trkpt lat="47.11827" lon="6.06053">
        <ele>505.6</ele>
        <time>2024-09-01T07:11:22Z</time>
      </trkpt>
      <trkpt lat="47.11822" lon="6.06055">
        <ele>505.2</ele>
        <time>2024-09-01T07:11:23Z</time>
      </trkpt>
      <trkpt lat="47.11817" lon="6.06057">
        <ele>505</ele>
        <time>2024-09-01T07:11:24Z</time>
      </trkpt>
      <trkpt lat="47.11813" lon="6.06058">
        <ele>505</ele>
        <time>2024-09-01T07:11:25Z</time>
      </trkpt>
      <trkpt lat="47.11807" lon="6.0606">
        <ele>505</ele>
        <time>2024-09-01T07:11:26Z</time>
      </trkpt>
      <trkpt lat="47.11802" lon="6.06061">
        <ele>504.8</ele>
        <time>2024-09-01T07:11:27Z</time>
      </trkpt>
      <trkpt lat="47.11797" lon="6.06062">
        <ele>504.6</ele>
        <time>2024-09-01T07:11:28Z</time>
      </trkpt>
      <trkpt lat="47.1179" lon="6.06062">
        <ele>504.6</ele>
        <time>2024-09-01T07:11:29Z</time>
      </trkpt>
      <trkpt lat="47.11783" lon="6.06064">
        <ele>504.6</ele>
        <time>2024-09-01T07:11:30Z</time>
      </trkpt>
      <trkpt lat="47.11776" lon="6.06066">
        <ele>504.6</ele>
        <time>2024-09-01T07:11:31Z</time>
      </trkpt>
      <trkpt lat="47.11768" lon="6.06068">
        <ele>504.4</ele>
        <time>2024-09-01T07:11:32Z</time>
      </trkpt>
      <trkpt lat="47.11761" lon="6.06069">
        <ele>504.4</ele>
        <time>2024-09-01T07:11:33Z</time>
      </trkpt>
      <trkpt lat="47.11754" lon="6.06071">
        <ele>504.4</ele>
        <time>2024-09-01T07:11:34Z</time>
      </trkpt>
      <trkpt lat="47.11746" lon="6.06072">
        <ele>504.2</ele>
        <time>2024-09-01T07:11:35Z</time>
      </trkpt>
      <trkpt lat="47.11738" lon="6.06074">
        <ele>504</ele>
        <time>2024-09-01T07:11:36Z</time>
      </trkpt>
      <trkpt lat="47.1173" lon="6.06075">
        <ele>503.8</ele>
        <time>2024-09-01T07:11:37Z</time>
      </trkpt>
      <trkpt lat="47.11722" lon="6.06077">
        <ele>503.6</ele>
        <time>2024-09-01T07:11:38Z</time>
      </trkpt>
      <trkpt lat="47.11714" lon="6.06079">
        <ele>503.4</ele>
        <time>2024-09-01T07:11:39Z</time>
      </trkpt>
      <trkpt lat="47.11706" lon="6.06081">
        <ele>503</ele>
        <time>2024-09-01T07:11:40Z</time>
      </trkpt>
      <trkpt lat="47.11698" lon="6.06082">
        <ele>502.2</ele>
        <time>2024-09-01T07:11:41Z</time>
      </trkpt>
      <trkpt lat="47.1169" lon="6.06083">
        <ele>502.2</ele>
        <time>2024-09-01T07:11:42Z</time>
      </trkpt>
      <trkpt lat="47.11683" lon="6.06084">
        <ele>501.8</ele>
        <time>2024-09-01T07:11:43Z</time>
      </trkpt>
      <trkpt lat="47.11676" lon="6.06084">
        <ele>501.4</ele>
        <time>2024-09-01T07:11:44Z</time>
      </trkpt>
      <trkpt lat="47.1167" lon="6.06084">
        <ele>501</ele>
        <time>2024-09-01T07:11:45Z</time>
      </trkpt>
      <trkpt lat="47.11664" lon="6.06085">
        <ele>500.8</ele>
        <time>2024-09-01T07:11:46Z</time>
      </trkpt>
      <trkpt lat="47.11659" lon="6.06086">
        <ele>501</ele>
        <time>2024-09-01T07:11:47Z</time>
      </trkpt>
      <trkpt lat="47.11653" lon="6.06087">
        <ele>500.8</ele>
        <time>2024-09-01T07:11:48Z</time>
      </trkpt>
      <trkpt lat="47.11648" lon="6.06089">
        <ele>500.8</ele>
        <time>2024-09-01T07:11:49Z</time>
      </trkpt>
      <trkpt lat="47.11642" lon="6.0609">
        <ele>500.6</ele>
        <time>2024-09-01T07:11:50Z</time>
      </trkpt>
      <trkpt lat="47.11637" lon="6.06091">
        <ele>500.8</ele>
        <time>2024-09-01T07:11:51Z</time>
      </trkpt>
      <trkpt lat="47.11632" lon="6.06093">
        <ele>500.8</ele>
        <time>2024-09-01T07:11:52Z</time>
      </trkpt>
      <trkpt lat="47.11627" lon="6.06094">
        <ele>500.8</ele>
        <time>2024-09-01T07:11:53Z</time>
      </trkpt>
      <trkpt lat="47.11622" lon="6.06096">
        <ele>500.8</ele>
        <time>2024-09-01T07:11:54Z</time>
      </trkpt>
      <trkpt lat="47.11617" lon="6.06097">
        <ele>500.6</ele>
        <time>2024-09-01T07:11:55Z</time>
      </trkpt>
      <trkpt lat="47.11611" lon="6.06098">
        <ele>500.8</ele>
        <time>2024-09-01T07:11:56Z</time>
      </trkpt>
      <trkpt lat="47.11606" lon="6.06099">
        <ele>500.6</ele>
        <time>2024-09-01T07:11:57Z</time>
      </trkpt>
      <trkpt lat="47.11601" lon="6.061">
        <ele>500.6</ele>
        <time>2024-09-01T07:11:58Z</time>
      </trkpt>
      <trkpt lat="47.11596" lon="6.06101">
        <ele>500.8</ele>
        <time>2024-09-01T07:11:59Z</time>
      </trkpt>
      <trkpt lat="47.1159" lon="6.06101">
        <ele>500.6</ele>
        <time>2024-09-01T07:12:00Z</time>
      </trkpt>
      <trkpt lat="47.11585" lon="6.06101">
        <ele>500.8</ele>
        <time>2024-09-01T07:12:01Z</time>
      </trkpt>
      <trkpt lat="47.1158" lon="6.06102">
        <ele>500.8</ele>
        <time>2024-09-01T07:12:02Z</time>
      </trkpt>
      <trkpt lat="47.11574" lon="6.06103">
        <ele>500.8</ele>
        <time>2024-09-01T07:12:03Z</time>
      </trkpt>
      <trkpt lat="47.11569" lon="6.06102">
        <ele>500.8</ele>
        <time>2024-09-01T07:12:04Z</time>
      </trkpt>
      <trkpt lat="47.11563" lon="6.06103">
        <ele>500.8</ele>
        <time>2024-09-01T07:12:05Z</time>
      </trkpt>
      <trkpt lat="47.11557" lon="6.06103">
        <ele>500.8</ele>
        <time>2024-09-01T07:12:06Z</time>
      </trkpt>
      <trkpt lat="47.1155" lon="6.06104">
        <ele>500.6</ele>
        <time>2024-09-01T07:12:07Z</time>
      </trkpt>
      <trkpt lat="47.11544" lon="6.06104">
        <ele>500.6</ele>
        <time>2024-09-01T07:12:08Z</time>
      </trkpt>
      <trkpt lat="47.11536" lon="6.06105">
        <ele>500.6</ele>
        <time>2024-09-01T07:12:09Z</time>
      </trkpt>
      <trkpt lat="47.11529" lon="6.06107">
        <ele>500.6</ele>
        <time>2024-09-01T07:12:10Z</time>
      </trkpt>
      <trkpt lat="47.11522" lon="6.06108">
        <ele>500.4</ele>
        <time>2024-09-01T07:12:11Z</time>
      </trkpt>
      <trkpt lat="47.11515" lon="6.06107">
        <ele>500.4</ele>
        <time>2024-09-01T07:12:12Z</time>
      </trkpt>
      <trkpt lat="47.11509" lon="6.06107">
        <ele>500</ele>
        <time>2024-09-01T07:12:13Z</time>
      </trkpt>
      <trkpt lat="47.11502" lon="6.06106">
        <ele>499.6</ele>
        <time>2024-09-01T07:12:14Z</time>
      </trkpt>
      <trkpt lat="47.11496" lon="6.06106">
        <ele>499.2</ele>
        <time>2024-09-01T07:12:15Z</time>
      </trkpt>
      <trkpt lat="47.11489" lon="6.06107">
        <ele>498.6</ele>
        <time>2024-09-01T07:12:16Z</time>
      </trkpt>
      <trkpt lat="47.11483" lon="6.06108">
        <ele>498.4</ele>
        <time>2024-09-01T07:12:17Z</time>
      </trkpt>
      <trkpt lat="47.11477" lon="6.0611">
        <ele>498.2</ele>
        <time>2024-09-01T07:12:18Z</time>
      </trkpt>
      <trkpt lat="47.11471" lon="6.06111">
        <ele>498.2</ele>
        <time>2024-09-01T07:12:19Z</time>
      </trkpt>
      <trkpt lat="47.11464" lon="6.06112">
        <ele>498.2</ele>
        <time>2024-09-01T07:12:20Z</time>
      </trkpt>
      <trkpt lat="47.11458" lon="6.06112">
        <ele>498</ele>
        <time>2024-09-01T07:12:21Z</time>
      </trkpt>
      <trkpt lat="47.11451" lon="6.06112">
        <ele>498</ele>
        <time>2024-09-01T07:12:22Z</time>
      </trkpt>
      <trkpt lat="47.11444" lon="6.06112">
        <ele>497.6</ele>
        <time>2024-09-01T07:12:23Z</time>
      </trkpt>
      <trkpt lat="47.11436" lon="6.06113">
        <ele>497.2</ele>
        <time>2024-09-01T07:12:24Z</time>
      </trkpt>
      <trkpt lat="47.11429" lon="6.06114">
        <ele>497</ele>
        <time>2024-09-01T07:12:25Z</time>
      </trkpt>
      <trkpt lat="47.1142" lon="6.06114">
        <ele>496.6</ele>
        <time>2024-09-01T07:12:26Z</time>
      </trkpt>
      <trkpt lat="47.11412" lon="6.06115">
        <ele>496.4</ele>
        <time>2024-09-01T07:12:27Z</time>
      </trkpt>
      <trkpt lat="47.11404" lon="6.06116">
        <ele>496.4</ele>
        <time>2024-09-01T07:12:28Z</time>
      </trkpt>
      <trkpt lat="47.11396" lon="6.06117">
        <ele>496.2</ele>
        <time>2024-09-01T07:12:29Z</time>
      </trkpt>
      <trkpt lat="47.11388" lon="6.06118">
        <ele>496</ele>
        <time>2024-09-01T07:12:30Z</time>
      </trkpt>
      <trkpt lat="47.1138" lon="6.06119">
        <ele>495.4</ele>
        <time>2024-09-01T07:12:31Z</time>
      </trkpt>
      <trkpt lat="47.11373" lon="6.0612">
        <ele>495.2</ele>
        <time>2024-09-01T07:12:32Z</time>
      </trkpt>
      <trkpt lat="47.11366" lon="6.06121">
        <ele>494.8</ele>
        <time>2024-09-01T07:12:33Z</time>
      </trkpt>
      <trkpt lat="47.11359" lon="6.06122">
        <ele>494.4</ele>
        <time>2024-09-01T07:12:34Z</time>
      </trkpt>
      <trkpt lat="47.11352" lon="6.06123">
        <ele>494.2</ele>
        <time>2024-09-01T07:12:35Z</time>
      </trkpt>
      <trkpt lat="47.11345" lon="6.06124">
        <ele>494</ele>
        <time>2024-09-01T07:12:36Z</time>
      </trkpt>
      <trkpt lat="47.11339" lon="6.06125">
        <ele>494</ele>
        <time>2024-09-01T07:12:37Z</time>
      </trkpt>
      <trkpt lat="47.11332" lon="6.06127">
        <ele>493.8</ele>
        <time>2024-09-01T07:12:38Z</time>
      </trkpt>
      <trkpt lat="47.11326" lon="6.06127">
        <ele>493.8</ele>
        <time>2024-09-01T07:12:39Z</time>
      </trkpt>
      <trkpt lat="47.1132" lon="6.06128">
        <ele>493.8</ele>
        <time>2024-09-01T07:12:40Z</time>
      </trkpt>
      <trkpt lat="47.11314" lon="6.06129">
        <ele>493.8</ele>
        <time>2024-09-01T07:12:41Z</time>
      </trkpt>
      <trkpt lat="47.11307" lon="6.0613">
        <ele>493.8</ele>
        <time>2024-09-01T07:12:42Z</time>
      </trkpt>
      <trkpt lat="47.11301" lon="6.06131">
        <ele>493.8</ele>
        <time>2024-09-01T07:12:43Z</time>
      </trkpt>
      <trkpt lat="47.11295" lon="6.06131">
        <ele>493.8</ele>
        <time>2024-09-01T07:12:44Z</time>
      </trkpt>
      <trkpt lat="47.11288" lon="6.06132">
        <ele>493.8</ele>
        <time>2024-09-01T07:12:45Z</time>
      </trkpt>
      <trkpt lat="47.11281" lon="6.06133">
        <ele>493.8</ele>
        <time>2024-09-01T07:12:46Z</time>
      </trkpt>
      <trkpt lat="47.11275" lon="6.06133">
        <ele>493.6</ele>
        <time>2024-09-01T07:12:47Z</time>
      </trkpt>
      <trkpt lat="47.11268" lon="6.06134">
        <ele>493.8</ele>
        <time>2024-09-01T07:12:48Z</time>
      </trkpt>
      <trkpt lat="47.11262" lon="6.06135">
        <ele>493.8</ele>
        <time>2024-09-01T07:12:49Z</time>
      </trkpt>
      <trkpt lat="47.11255" lon="6.06135">
        <ele>493.6</ele>
        <time>2024-09-01T07:12:50Z</time>
      </trkpt>
      <trkpt lat="47.11249" lon="6.06136">
        <ele>493.6</ele>
        <time>2024-09-01T07:12:51Z</time>
      </trkpt>
      <trkpt lat="47.11242" lon="6.06137">
        <ele>493.6</ele>
        <time>2024-09-01T07:12:52Z</time>
      </trkpt>
      <trkpt lat="47.11236" lon="6.06138">
        <ele>493.6</ele>
        <time>2024-09-01T07:12:53Z</time>
      </trkpt>
      <trkpt lat="47.11231" lon="6.06139">
        <ele>493.6</ele>
        <time>2024-09-01T07:12:54Z</time>
      </trkpt>
      <trkpt lat="47.11225" lon="6.0614">
        <ele>493.6</ele>
        <time>2024-09-01T07:12:55Z</time>
      </trkpt>
      <trkpt lat="47.11219" lon="6.0614">
        <ele>493.6</ele>
        <time>2024-09-01T07:12:56Z</time>
      </trkpt>
      <trkpt lat="47.11214" lon="6.0614">
        <ele>493.6</ele>
        <time>2024-09-01T07:12:57Z</time>
      </trkpt>
      <trkpt lat="47.11208" lon="6.06141">
        <ele>493.6</ele>
        <time>2024-09-01T07:12:58Z</time>
      </trkpt>
      <trkpt lat="47.11202" lon="6.06142">
        <ele>493.6</ele>
        <time>2024-09-01T07:12:59Z</time>
      </trkpt>
      <trkpt lat="47.11196" lon="6.06143">
        <ele>493.4</ele>
        <time>2024-09-01T07:13:00Z</time>
      </trkpt>
      <trkpt lat="47.1119" lon="6.06143">
        <ele>493.4</ele>
        <time>2024-09-01T07:13:01Z</time>
      </trkpt>
      <trkpt lat="47.11185" lon="6.06144">
        <ele>493.4</ele>
        <time>2024-09-01T07:13:02Z</time>
      </trkpt>
      <trkpt lat="47.11179" lon="6.06145">
        <ele>493.6</ele>
        <time>2024-09-01T07:13:03Z</time>
      </trkpt>
      <trkpt lat="47.11174" lon="6.06146">
        <ele>493.4</ele>
        <time>2024-09-01T07:13:04Z</time>
      </trkpt>
      <trkpt lat="47.11168" lon="6.06146">
        <ele>493.6</ele>
        <time>2024-09-01T07:13:05Z</time>
      </trkpt>
      <trkpt lat="47.11163" lon="6.06146">
        <ele>493.4</ele>
        <time>2024-09-01T07:13:06Z</time>
      </trkpt>
      <trkpt lat="47.11158" lon="6.06146">
        <ele>493.6</ele>
        <time>2024-09-01T07:13:07Z</time>
      </trkpt>
      <trkpt lat="47.11154" lon="6.06146">
        <ele>493.4</ele>
        <time>2024-09-01T07:13:08Z</time>
      </trkpt>
      <trkpt lat="47.11149" lon="6.06146">
        <ele>493.6</ele>
        <time>2024-09-01T07:13:09Z</time>
      </trkpt>
      <trkpt lat="47.11145" lon="6.06145">
        <ele>493.6</ele>
        <time>2024-09-01T07:13:10Z</time>
      </trkpt>
      <trkpt lat="47.11141" lon="6.06144">
        <ele>493.8</ele>
        <time>2024-09-01T07:13:11Z</time>
      </trkpt>
      <trkpt lat="47.11137" lon="6.06142">
        <ele>494.2</ele>
        <time>2024-09-01T07:13:12Z</time>
      </trkpt>
      <trkpt lat="47.11133" lon="6.0614">
        <ele>494.4</ele>
        <time>2024-09-01T07:13:13Z</time>
      </trkpt>
      <trkpt lat="47.11128" lon="6.06137">
        <ele>494.4</ele>
        <time>2024-09-01T07:13:14Z</time>
      </trkpt>
      <trkpt lat="47.11124" lon="6.06135">
        <ele>494.4</ele>
        <time>2024-09-01T07:13:15Z</time>
      </trkpt>
      <trkpt lat="47.1112" lon="6.06133">
        <ele>494.4</ele>
        <time>2024-09-01T07:13:16Z</time>
      </trkpt>
      <trkpt lat="47.11115" lon="6.06129">
        <ele>494.6</ele>
        <time>2024-09-01T07:13:17Z</time>
      </trkpt>
      <trkpt lat="47.11111" lon="6.06125">
        <ele>494.6</ele>
        <time>2024-09-01T07:13:18Z</time>
      </trkpt>
      <trkpt lat="47.11106" lon="6.0612">
        <ele>494.6</ele>
        <time>2024-09-01T07:13:19Z</time>
      </trkpt>
      <trkpt lat="47.11101" lon="6.06114">
        <ele>494.6</ele>
        <time>2024-09-01T07:13:20Z</time>
      </trkpt>
      <trkpt lat="47.11095" lon="6.06109">
        <ele>494.4</ele>
        <time>2024-09-01T07:13:21Z</time>
      </trkpt>
      <trkpt lat="47.1109" lon="6.06103">
        <ele>494.4</ele>
        <time>2024-09-01T07:13:22Z</time>
      </trkpt>
      <trkpt lat="47.11085" lon="6.06097">
        <ele>494.6</ele>
        <time>2024-09-01T07:13:23Z</time>
      </trkpt>
      <trkpt lat="47.1108" lon="6.0609">
        <ele>494.6</ele>
        <time>2024-09-01T07:13:24Z</time>
      </trkpt>
      <trkpt lat="47.11074" lon="6.06083">
        <ele>494.4</ele>
        <time>2024-09-01T07:13:25Z</time>
      </trkpt>
      <trkpt lat="47.11069" lon="6.06076">
        <ele>494.4</ele>
        <time>2024-09-01T07:13:26Z</time>
      </trkpt>
      <trkpt lat="47.11064" lon="6.0607">
        <ele>494.4</ele>
        <time>2024-09-01T07:13:27Z</time>
      </trkpt>
      <trkpt lat="47.11059" lon="6.06063">
        <ele>494.4</ele>
        <time>2024-09-01T07:13:28Z</time>
      </trkpt>
      <trkpt lat="47.11054" lon="6.06056">
        <ele>494.4</ele>
        <time>2024-09-01T07:13:29Z</time>
      </trkpt>
      <trkpt lat="47.11049" lon="6.06048">
        <ele>494.2</ele>
        <time>2024-09-01T07:13:30Z</time>
      </trkpt>
      <trkpt lat="47.11045" lon="6.0604">
        <ele>494</ele>
        <time>2024-09-01T07:13:31Z</time>
      </trkpt>
      <trkpt lat="47.11041" lon="6.06031">
        <ele>493.8</ele>
        <time>2024-09-01T07:13:32Z</time>
      </trkpt>
      <trkpt lat="47.11038" lon="6.06022">
        <ele>493.8</ele>
        <time>2024-09-01T07:13:33Z</time>
      </trkpt>
      <trkpt lat="47.11034" lon="6.06014">
        <ele>493.6</ele>
        <time>2024-09-01T07:13:34Z</time>
      </trkpt>
      <trkpt lat="47.1103" lon="6.06005">
        <ele>493.4</ele>
        <time>2024-09-01T07:13:35Z</time>
      </trkpt>
      <trkpt lat="47.11027" lon="6.05997">
        <ele>493.4</ele>
        <time>2024-09-01T07:13:36Z</time>
      </trkpt>
      <trkpt lat="47.11023" lon="6.05988">
        <ele>493.2</ele>
        <time>2024-09-01T07:13:37Z</time>
      </trkpt>
      <trkpt lat="47.11019" lon="6.0598">
        <ele>493</ele>
        <time>2024-09-01T07:13:38Z</time>
      </trkpt>
      <trkpt lat="47.11015" lon="6.05972">
        <ele>493</ele>
        <time>2024-09-01T07:13:39Z</time>
      </trkpt>
      <trkpt lat="47.11011" lon="6.05964">
        <ele>492.8</ele>
        <time>2024-09-01T07:13:40Z</time>
      </trkpt>
      <trkpt lat="47.11007" lon="6.05956">
        <ele>492.6</ele>
        <time>2024-09-01T07:13:41Z</time>
      </trkpt>
      <trkpt lat="47.11002" lon="6.05949">
        <ele>492.2</ele>
        <time>2024-09-01T07:13:42Z</time>
      </trkpt>
      <trkpt lat="47.10997" lon="6.05942">
        <ele>492</ele>
        <time>2024-09-01T07:13:43Z</time>
      </trkpt>
      <trkpt lat="47.10991" lon="6.05935">
        <ele>491.8</ele>
        <time>2024-09-01T07:13:44Z</time>
      </trkpt>
      <trkpt lat="47.10986" lon="6.05927">
        <ele>491.6</ele>
        <time>2024-09-01T07:13:45Z</time>
      </trkpt>
      <trkpt lat="47.10981" lon="6.0592">
        <ele>491.6</ele>
        <time>2024-09-01T07:13:46Z</time>
      </trkpt>
      <trkpt lat="47.10976" lon="6.05913">
        <ele>491.4</ele>
        <time>2024-09-01T07:13:47Z</time>
      </trkpt>
      <trkpt lat="47.10971" lon="6.05906">
        <ele>491.2</ele>
        <time>2024-09-01T07:13:48Z</time>
      </trkpt>
      <trkpt lat="47.10967" lon="6.059">
        <ele>491.2</ele>
        <time>2024-09-01T07:13:49Z</time>
      </trkpt>
      <trkpt lat="47.10962" lon="6.05894">
        <ele>491</ele>
        <time>2024-09-01T07:13:50Z</time>
      </trkpt>
      <trkpt lat="47.10957" lon="6.05888">
        <ele>490.6</ele>
        <time>2024-09-01T07:13:51Z</time>
      </trkpt>
      <trkpt lat="47.10952" lon="6.05882">
        <ele>490.4</ele>
        <time>2024-09-01T07:13:52Z</time>
      </trkpt>
      <trkpt lat="47.10946" lon="6.05877">
        <ele>490.4</ele>
        <time>2024-09-01T07:13:53Z</time>
      </trkpt>
      <trkpt lat="47.10939" lon="6.05873">
        <ele>490.4</ele>
        <time>2024-09-01T07:13:54Z</time>
      </trkpt>
      <trkpt lat="47.10932" lon="6.05869">
        <ele>490.2</ele>
        <time>2024-09-01T07:13:55Z</time>
      </trkpt>
      <trkpt lat="47.10925" lon="6.05866">
        <ele>490.2</ele>
        <time>2024-09-01T07:13:56Z</time>
      </trkpt>
      <trkpt lat="47.10918" lon="6.05862">
        <ele>490</ele>
        <time>2024-09-01T07:13:57Z</time>
      </trkpt>
      <trkpt lat="47.10911" lon="6.05858">
        <ele>490</ele>
        <time>2024-09-01T07:13:58Z</time>
      </trkpt>
      <trkpt lat="47.10905" lon="6.05852">
        <ele>489.4</ele>
        <time>2024-09-01T07:13:59Z</time>
      </trkpt>
      <trkpt lat="47.10899" lon="6.05847">
        <ele>489.2</ele>
        <time>2024-09-01T07:14:00Z</time>
      </trkpt>
      <trkpt lat="47.10893" lon="6.0584">
        <ele>489.2</ele>
        <time>2024-09-01T07:14:01Z</time>
      </trkpt>
      <trkpt lat="47.10888" lon="6.05834">
        <ele>489</ele>
        <time>2024-09-01T07:14:02Z</time>
      </trkpt>
      <trkpt lat="47.10882" lon="6.05827">
        <ele>488.8</ele>
        <time>2024-09-01T07:14:03Z</time>
      </trkpt>
      <trkpt lat="47.10877" lon="6.0582">
        <ele>488.8</ele>
        <time>2024-09-01T07:14:04Z</time>
      </trkpt>
      <trkpt lat="47.10871" lon="6.05814">
        <ele>488.6</ele>
        <time>2024-09-01T07:14:05Z</time>
      </trkpt>
      <trkpt lat="47.10866" lon="6.05808">
        <ele>488.6</ele>
        <time>2024-09-01T07:14:06Z</time>
      </trkpt>
      <trkpt lat="47.1086" lon="6.05803">
        <ele>488.4</ele>
        <time>2024-09-01T07:14:07Z</time>
      </trkpt>
      <trkpt lat="47.10853" lon="6.05797">
        <ele>488.2</ele>
        <time>2024-09-01T07:14:08Z</time>
      </trkpt>
      <trkpt lat="47.10846" lon="6.05791">
        <ele>488</ele>
        <time>2024-09-01T07:14:09Z</time>
      </trkpt>
      <trkpt lat="47.10839" lon="6.05786">
        <ele>488</ele>
        <time>2024-09-01T07:14:10Z</time>
      </trkpt>
      <trkpt lat="47.10833" lon="6.05779">
        <ele>487.8</ele>
        <time>2024-09-01T07:14:11Z</time>
      </trkpt>
      <trkpt lat="47.10826" lon="6.05773">
        <ele>487.6</ele>
        <time>2024-09-01T07:14:12Z</time>
      </trkpt>
      <trkpt lat="47.10819" lon="6.05768">
        <ele>487.4</ele>
        <time>2024-09-01T07:14:13Z</time>
      </trkpt>
      <trkpt lat="47.10813" lon="6.05762">
        <ele>487.4</ele>
        <time>2024-09-01T07:14:14Z</time>
      </trkpt>
      <trkpt lat="47.10806" lon="6.05755">
        <ele>487.2</ele>
        <time>2024-09-01T07:14:15Z</time>
      </trkpt>
      <trkpt lat="47.108" lon="6.05747">
        <ele>487.2</ele>
        <time>2024-09-01T07:14:16Z</time>
      </trkpt>
      <trkpt lat="47.10794" lon="6.05739">
        <ele>486.8</ele>
        <time>2024-09-01T07:14:17Z</time>
      </trkpt>
      <trkpt lat="47.10788" lon="6.05729">
        <ele>486.8</ele>
        <time>2024-09-01T07:14:18Z</time>
      </trkpt>
      <trkpt lat="47.10783" lon="6.0572">
        <ele>486.6</ele>
        <time>2024-09-01T07:14:19Z</time>
      </trkpt>
      <trkpt lat="47.10778" lon="6.05711">
        <ele>486.4</ele>
        <time>2024-09-01T07:14:20Z</time>
      </trkpt>
      <trkpt lat="47.10773" lon="6.05702">
        <ele>486.2</ele>
        <time>2024-09-01T07:14:21Z</time>
      </trkpt>
      <trkpt lat="47.10769" lon="6.05693">
        <ele>486</ele>
        <time>2024-09-01T07:14:22Z</time>
      </trkpt>
      <trkpt lat="47.10765" lon="6.05685">
        <ele>486</ele>
        <time>2024-09-01T07:14:23Z</time>
      </trkpt>
      <trkpt lat="47.10761" lon="6.05677">
        <ele>485.8</ele>
        <time>2024-09-01T07:14:24Z</time>
      </trkpt>
      <trkpt lat="47.10757" lon="6.0567">
        <ele>485.6</ele>
        <time>2024-09-01T07:14:25Z</time>
      </trkpt>
      <trkpt lat="47.10753" lon="6.05662">
        <ele>485.6</ele>
        <time>2024-09-01T07:14:26Z</time>
      </trkpt>
      <trkpt lat="47.10748" lon="6.05656">
        <ele>485.4</ele>
        <time>2024-09-01T07:14:27Z</time>
      </trkpt>
      <trkpt lat="47.10743" lon="6.05649">
        <ele>485.4</ele>
        <time>2024-09-01T07:14:28Z</time>
      </trkpt>
      <trkpt lat="47.10737" lon="6.05643">
        <ele>485</ele>
        <time>2024-09-01T07:14:29Z</time>
      </trkpt>
      <trkpt lat="47.10731" lon="6.05637">
        <ele>485</ele>
        <time>2024-09-01T07:14:30Z</time>
      </trkpt>
      <trkpt lat="47.10724" lon="6.05631">
        <ele>484.8</ele>
        <time>2024-09-01T07:14:31Z</time>
      </trkpt>
      <trkpt lat="47.10718" lon="6.05626">
        <ele>484.6</ele>
        <time>2024-09-01T07:14:32Z</time>
      </trkpt>
      <trkpt lat="47.10713" lon="6.05622">
        <ele>484.6</ele>
        <time>2024-09-01T07:14:33Z</time>
      </trkpt>
      <trkpt lat="47.10708" lon="6.05619">
        <ele>484.4</ele>
        <time>2024-09-01T07:14:34Z</time>
      </trkpt>
      <trkpt lat="47.10703" lon="6.05615">
        <ele>484.4</ele>
        <time>2024-09-01T07:14:35Z</time>
      </trkpt>
      <trkpt lat="47.10699" lon="6.05611">
        <ele>484.2</ele>
        <time>2024-09-01T07:14:36Z</time>
      </trkpt>
      <trkpt lat="47.10694" lon="6.05606">
        <ele>483.6</ele>
        <time>2024-09-01T07:14:37Z</time>
      </trkpt>
      <trkpt lat="47.10691" lon="6.05602">
        <ele>483.4</ele>
        <time>2024-09-01T07:14:38Z</time>
      </trkpt>
      <trkpt lat="47.10687" lon="6.05597">
        <ele>483.2</ele>
        <time>2024-09-01T07:14:39Z</time>
      </trkpt>
      <trkpt lat="47.10684" lon="6.05594">
        <ele>483.2</ele>
        <time>2024-09-01T07:14:40Z</time>
      </trkpt>
      <trkpt lat="47.1068" lon="6.05593">
        <ele>483</ele>
        <time>2024-09-01T07:14:41Z</time>
      </trkpt>
      <trkpt lat="47.10677" lon="6.05592">
        <ele>483</ele>
        <time>2024-09-01T07:14:42Z</time>
      </trkpt>
      <trkpt lat="47.10672" lon="6.05592">
        <ele>483</ele>
        <time>2024-09-01T07:14:43Z</time>
      </trkpt>
      <trkpt lat="47.10667" lon="6.0559">
        <ele>482.8</ele>
        <time>2024-09-01T07:14:44Z</time>
      </trkpt>
      <trkpt lat="47.10661" lon="6.05587">
        <ele>482.8</ele>
        <time>2024-09-01T07:14:45Z</time>
      </trkpt>
      <trkpt lat="47.10654" lon="6.05583">
        <ele>482.8</ele>
        <time>2024-09-01T07:14:46Z</time>
      </trkpt>
      <trkpt lat="47.10647" lon="6.05579">
        <ele>482.6</ele>
        <time>2024-09-01T07:14:47Z</time>
      </trkpt>
      <trkpt lat="47.1064" lon="6.05575">
        <ele>482.2</ele>
        <time>2024-09-01T07:14:48Z</time>
      </trkpt>
      <trkpt lat="47.10632" lon="6.0557">
        <ele>482.2</ele>
        <time>2024-09-01T07:14:49Z</time>
      </trkpt>
      <trkpt lat="47.10624" lon="6.05565">
        <ele>481.6</ele>
        <time>2024-09-01T07:14:50Z</time>
      </trkpt>
      <trkpt lat="47.10616" lon="6.05558">
        <ele>481.2</ele>
        <time>2024-09-01T07:14:51Z</time>
      </trkpt>
      <trkpt lat="47.10606" lon="6.05551">
        <ele>480.8</ele>
        <time>2024-09-01T07:14:52Z</time>
      </trkpt>
      <trkpt lat="47.10597" lon="6.05544">
        <ele>480.4</ele>
        <time>2024-09-01T07:14:53Z</time>
      </trkpt>
      <trkpt lat="47.10589" lon="6.0554">
        <ele>479.8</ele>
        <time>2024-09-01T07:14:54Z</time>
      </trkpt>
      <trkpt lat="47.1058" lon="6.05536">
        <ele>479.4</ele>
        <time>2024-09-01T07:14:55Z</time>
      </trkpt>
      <trkpt lat="47.10572" lon="6.05533">
        <ele>479</ele>
        <time>2024-09-01T07:14:56Z</time>
      </trkpt>
      <trkpt lat="47.10563" lon="6.0553">
        <ele>478.6</ele>
        <time>2024-09-01T07:14:57Z</time>
      </trkpt>
      <trkpt lat="47.10554" lon="6.05528">
        <ele>477.8</ele>
        <time>2024-09-01T07:14:58Z</time>
      </trkpt>
      <trkpt lat="47.10546" lon="6.05525">
        <ele>477.4</ele>
        <time>2024-09-01T07:14:59Z</time>
      </trkpt>
      <trkpt lat="47.10538" lon="6.05523">
        <ele>476.8</ele>
        <time>2024-09-01T07:15:00Z</time>
      </trkpt>
      <trkpt lat="47.1053" lon="6.05523">
        <ele>476.4</ele>
        <time>2024-09-01T07:15:01Z</time>
      </trkpt>
      <trkpt lat="47.10523" lon="6.05523">
        <ele>475.6</ele>
        <time>2024-09-01T07:15:02Z</time>
      </trkpt>
      <trkpt lat="47.10517" lon="6.05524">
        <ele>475</ele>
        <time>2024-09-01T07:15:03Z</time>
      </trkpt>
      <trkpt lat="47.1051" lon="6.05527">
        <ele>474.4</ele>
        <time>2024-09-01T07:15:04Z</time>
      </trkpt>
      <trkpt lat="47.10504" lon="6.05529">
        <ele>473.2</ele>
        <time>2024-09-01T07:15:05Z</time>
      </trkpt>
      <trkpt lat="47.10498" lon="6.05532">
        <ele>472.4</ele>
        <time>2024-09-01T07:15:06Z</time>
      </trkpt>
      <trkpt lat="47.10491" lon="6.05533">
        <ele>471.8</ele>
        <time>2024-09-01T07:15:07Z</time>
      </trkpt>
      <trkpt lat="47.10484" lon="6.05533">
        <ele>471.4</ele>
        <time>2024-09-01T07:15:08Z</time>
      </trkpt>
      <trkpt lat="47.10476" lon="6.05534">
        <ele>470.8</ele>
        <time>2024-09-01T07:15:09Z</time>
      </trkpt>
      <trkpt lat="47.10467" lon="6.05534">
        <ele>470.6</ele>
        <time>2024-09-01T07:15:10Z</time>
      </trkpt>
      <trkpt lat="47.10459" lon="6.05536">
        <ele>470</ele>
        <time>2024-09-01T07:15:11Z</time>
      </trkpt>
      <trkpt lat="47.10452" lon="6.05538">
        <ele>469.2</ele>
        <time>2024-09-01T07:15:12Z</time>
      </trkpt>
      <trkpt lat="47.10444" lon="6.05539">
        <ele>468</ele>
        <time>2024-09-01T07:15:13Z</time>
      </trkpt>
      <trkpt lat="47.10436" lon="6.0554">
        <ele>466.6</ele>
        <time>2024-09-01T07:15:14Z</time>
      </trkpt>
      <trkpt lat="47.10429" lon="6.05542">
        <ele>465.6</ele>
        <time>2024-09-01T07:15:15Z</time>
      </trkpt>
      <trkpt lat="47.10423" lon="6.05544">
        <ele>465</ele>
        <time>2024-09-01T07:15:16Z</time>
      </trkpt>
      <trkpt lat="47.10417" lon="6.05548">
        <ele>464.4</ele>
        <time>2024-09-01T07:15:17Z</time>
      </trkpt>
      <trkpt lat="47.10411" lon="6.05551">
        <ele>463.6</ele>
        <time>2024-09-01T07:15:18Z</time>
      </trkpt>
      <trkpt lat="47.10404" lon="6.05554">
        <ele>462.8</ele>
        <time>2024-09-01T07:15:19Z</time>
      </trkpt>
      <trkpt lat="47.10397" lon="6.05556">
        <ele>462.2</ele>
        <time>2024-09-01T07:15:20Z</time>
      </trkpt>
      <trkpt lat="47.1039" lon="6.05557">
        <ele>461.6</ele>
        <time>2024-09-01T07:15:21Z</time>
      </trkpt>
      <trkpt lat="47.10383" lon="6.05558">
        <ele>461</ele>
        <time>2024-09-01T07:15:22Z</time>
      </trkpt>
      <trkpt lat="47.10376" lon="6.05558">
        <ele>460.6</ele>
        <time>2024-09-01T07:15:23Z</time>
      </trkpt>
      <trkpt lat="47.10368" lon="6.05559">
        <ele>459.8</ele>
        <time>2024-09-01T07:15:24Z</time>
      </trkpt>
      <trkpt lat="47.10361" lon="6.0556">
        <ele>459.6</ele>
        <time>2024-09-01T07:15:25Z</time>
      </trkpt>
      <trkpt lat="47.10353" lon="6.05561">
        <ele>459.4</ele>
        <time>2024-09-01T07:15:26Z</time>
      </trkpt>
      <trkpt lat="47.10346" lon="6.05563">
        <ele>459</ele>
        <time>2024-09-01T07:15:27Z</time>
      </trkpt>
      <trkpt lat="47.10339" lon="6.05564">
        <ele>458.8</ele>
        <time>2024-09-01T07:15:28Z</time>
      </trkpt>
      <trkpt lat="47.10333" lon="6.05566">
        <ele>458.4</ele>
        <time>2024-09-01T07:15:29Z</time>
      </trkpt>
      <trkpt lat="47.10327" lon="6.05568">
        <ele>458.2</ele>
        <time>2024-09-01T07:15:30Z</time>
      </trkpt>
      <trkpt lat="47.10321" lon="6.05569">
        <ele>457.8</ele>
        <time>2024-09-01T07:15:31Z</time>
      </trkpt>
      <trkpt lat="47.10316" lon="6.05571">
        <ele>457.6</ele>
        <time>2024-09-01T07:15:32Z</time>
      </trkpt>
      <trkpt lat="47.1031" lon="6.05573">
        <ele>457.4</ele>
        <time>2024-09-01T07:15:33Z</time>
      </trkpt>
      <trkpt lat="47.10303" lon="6.05574">
        <ele>457.2</ele>
        <time>2024-09-01T07:15:34Z</time>
      </trkpt>
      <trkpt lat="47.10297" lon="6.05575">
        <ele>457.2</ele>
        <time>2024-09-01T07:15:35Z</time>
      </trkpt>
      <trkpt lat="47.10291" lon="6.05577">
        <ele>456.8</ele>
        <time>2024-09-01T07:15:36Z</time>
      </trkpt>
      <trkpt lat="47.10284" lon="6.05578">
        <ele>456.6</ele>
        <time>2024-09-01T07:15:37Z</time>
      </trkpt>
      <trkpt lat="47.10278" lon="6.05579">
        <ele>456.4</ele>
        <time>2024-09-01T07:15:38Z</time>
      </trkpt>
      <trkpt lat="47.10272" lon="6.0558">
        <ele>456.2</ele>
        <time>2024-09-01T07:15:39Z</time>
      </trkpt>
      <trkpt lat="47.10266" lon="6.05581">
        <ele>456.2</ele>
        <time>2024-09-01T07:15:40Z</time>
      </trkpt>
      <trkpt lat="47.10261" lon="6.05582">
        <ele>456.2</ele>
        <time>2024-09-01T07:15:41Z</time>
      </trkpt>
      <trkpt lat="47.10255" lon="6.05582">
        <ele>456</ele>
        <time>2024-09-01T07:15:42Z</time>
      </trkpt>
      <trkpt lat="47.10249" lon="6.0558">
        <ele>455.8</ele>
        <time>2024-09-01T07:15:43Z</time>
      </trkpt>
      <trkpt lat="47.10244" lon="6.05578">
        <ele>455.6</ele>
        <time>2024-09-01T07:15:44Z</time>
      </trkpt>
      <trkpt lat="47.10241" lon="6.05575">
        <ele>455.2</ele>
        <time>2024-09-01T07:15:45Z</time>
      </trkpt>
      <trkpt lat="47.10239" lon="6.05573">
        <ele>454.8</ele>
        <time>2024-09-01T07:15:46Z</time>
      </trkpt>
      <trkpt lat="47.10239" lon="6.05572">
        <ele>454.6</ele>
        <time>2024-09-01T07:15:47Z</time>
      </trkpt>
      <trkpt lat="47.10239" lon="6.05571">
        <ele>454.6</ele>
        <time>2024-09-01T07:15:48Z</time>
      </trkpt>
      <trkpt lat="47.10239" lon="6.05572">
        <ele>454.4</ele>
        <time>2024-09-01T07:15:49Z</time>
      </trkpt>
      <trkpt lat="47.1024" lon="6.05573">
        <ele>454.2</ele>
        <time>2024-09-01T07:15:50Z</time>
      </trkpt>
      <trkpt lat="47.1024" lon="6.05574">
        <ele>453.8</ele>
        <time>2024-09-01T07:15:51Z</time>
      </trkpt>
      <trkpt lat="47.10241" lon="6.05575">
        <ele>453.6</ele>
        <time>2024-09-01T07:15:52Z</time>
      </trkpt>
      <trkpt lat="47.10242" lon="6.05575">
        <ele>453.2</ele>
        <time>2024-09-01T07:15:53Z</time>
      </trkpt>
      <trkpt lat="47.10243" lon="6.05576">
        <ele>453</ele>
        <time>2024-09-01T07:15:54Z</time>
      </trkpt>
      <trkpt lat="47.10243" lon="6.05578">
        <ele>453</ele>
        <time>2024-09-01T07:15:55Z</time>
      </trkpt>
      <trkpt lat="47.10245" lon="6.05579">
        <ele>452.8</ele>
        <time>2024-09-01T07:15:56Z</time>
      </trkpt>
      <trkpt lat="47.10246" lon="6.05579">
        <ele>452.8</ele>
        <time>2024-09-01T07:15:57Z</time>
      </trkpt>
      <trkpt lat="47.10247" lon="6.0558">
        <ele>452.6</ele>
        <time>2024-09-01T07:15:58Z</time>
      </trkpt>
      <trkpt lat="47.10248" lon="6.0558">
        <ele>452.8</ele>
        <time>2024-09-01T07:15:59Z</time>
      </trkpt>
      <trkpt lat="47.10248" lon="6.0558">
        <ele>452.8</ele>
        <time>2024-09-01T07:16:00Z</time>
      </trkpt>
      <trkpt lat="47.1025" lon="6.05581">
        <ele>452.8</ele>
        <time>2024-09-01T07:16:01Z</time>
      </trkpt>
      <trkpt lat="47.10251" lon="6.05581">
        <ele>452.8</ele>
        <time>2024-09-01T07:16:02Z</time>
      </trkpt>
      <trkpt lat="47.10252" lon="6.0558">
        <ele>452.6</ele>
        <time>2024-09-01T07:16:03Z</time>
      </trkpt>
      <trkpt lat="47.10253" lon="6.0558">
        <ele>452.8</ele>
        <time>2024-09-01T07:16:04Z</time>
      </trkpt>
      <trkpt lat="47.10254" lon="6.0558">
        <ele>452.8</ele>
        <time>2024-09-01T07:16:05Z</time>
      </trkpt>
      <trkpt lat="47.10255" lon="6.05581">
        <ele>453</ele>
        <time>2024-09-01T07:16:06Z</time>
      </trkpt>
      <trkpt lat="47.10256" lon="6.05582">
        <ele>453</ele>
        <time>2024-09-01T07:16:07Z</time>
      </trkpt>
      <trkpt lat="47.10256" lon="6.05582">
        <ele>453</ele>
        <time>2024-09-01T07:16:08Z</time>
      </trkpt>
      <trkpt lat="47.10257" lon="6.05583">
        <ele>453.2</ele>
        <time>2024-09-01T07:16:09Z</time>
      </trkpt>
      <trkpt lat="47.10257" lon="6.05584">
        <ele>453.2</ele>
        <time>2024-09-01T07:16:10Z</time>
      </trkpt>
      <trkpt lat="47.10257" lon="6.05586">
        <ele>453.4</ele>
        <time>2024-09-01T07:16:11Z</time>
      </trkpt>
      <trkpt lat="47.10257" lon="6.05587">
        <ele>453.4</ele>
        <time>2024-09-01T07:16:12Z</time>
      </trkpt>
      <trkpt lat="47.10257" lon="6.05588">
        <ele>453.6</ele>
        <time>2024-09-01T07:16:13Z</time>
      </trkpt>
      <trkpt lat="47.10257" lon="6.05589">
        <ele>453.4</ele>
        <time>2024-09-01T07:16:14Z</time>
      </trkpt>
      <trkpt lat="47.10256" lon="6.0559">
        <ele>453.6</ele>
        <time>2024-09-01T07:16:15Z</time>
      </trkpt>
      <trkpt lat="47.10256" lon="6.05591">
        <ele>453.6</ele>
        <time>2024-09-01T07:16:16Z</time>
      </trkpt>
      <trkpt lat="47.10256" lon="6.05592">
        <ele>453.6</ele>
        <time>2024-09-01T07:16:17Z</time>
      </trkpt>
      <trkpt lat="47.10256" lon="6.05593">
        <ele>453.8</ele>
        <time>2024-09-01T07:16:18Z</time>
      </trkpt>
      <trkpt lat="47.10256" lon="6.05593">
        <ele>453.8</ele>
        <time>2024-09-01T07:16:19Z</time>
      </trkpt>
      <trkpt lat="47.10256" lon="6.05594">
        <ele>453.8</ele>
        <time>2024-09-01T07:16:20Z</time>
      </trkpt>
      <trkpt lat="47.10256" lon="6.05594">
        <ele>453.8</ele>
        <time>2024-09-01T07:16:21Z</time>
      </trkpt>
      <trkpt lat="47.10256" lon="6.05594">
        <ele>453.8</ele>
        <time>2024-09-01T07:16:22Z</time>
      </trkpt>
      <trkpt lat="47.10256" lon="6.05594">
        <ele>454</ele>
        <time>2024-09-01T07:16:23Z</time>
      </trkpt>
      <trkpt lat="47.10255" lon="6.05594">
        <ele>454</ele>
        <time>2024-09-01T07:16:24Z</time>
      </trkpt>
      <trkpt lat="47.10255" lon="6.05594">
        <ele>454</ele>
        <time>2024-09-01T07:16:25Z</time>
      </trkpt>
      <trkpt lat="47.10255" lon="6.05594">
        <ele>454.2</ele>
        <time>2024-09-01T07:16:26Z</time>
      </trkpt>
      <trkpt lat="47.10255" lon="6.05594">
        <ele>454.2</ele>
        <time>2024-09-01T07:16:27Z</time>
      </trkpt>
      <trkpt lat="47.10255" lon="6.05594">
        <ele>454.2</ele>
        <time>2024-09-01T07:16:28Z</time>
      </trkpt>
      <trkpt lat="47.10255" lon="6.05594">
        <ele>454</ele>
        <time>2024-09-01T07:16:29Z</time>
      </trkpt>
      <trkpt lat="47.10255" lon="6.05594">
        <ele>454</ele>
        <time>2024-09-01T07:16:30Z</time>
      </trkpt>
      <trkpt lat="47.10255" lon="6.05594">
        <ele>454</ele>
        <time>2024-09-01T07:16:31Z</time>
      </trkpt>
      <trkpt lat="47.10255" lon="6.05594">
        <ele>454</ele>
        <time>2024-09-01T07:16:32Z</time>
      </trkpt>
      <trkpt lat="47.10255" lon="6.05594">
        <ele>454.2</ele>
        <time>2024-09-01T07:16:33Z</time>
      </trkpt>
      <trkpt lat="47.10255" lon="6.05595">
        <ele>454.2</ele>
        <time>2024-09-01T07:16:34Z</time>
      </trkpt>
      <trkpt lat="47.10254" lon="6.05595">
        <ele>454</ele>
        <time>2024-09-01T07:16:35Z</time>
      </trkpt>
      <trkpt lat="47.10254" lon="6.05596">
        <ele>454.2</ele>
        <time>2024-09-01T07:16:36Z</time>
      </trkpt>
      <trkpt lat="47.10254" lon="6.05596">
        <ele>454.2</ele>
        <time>2024-09-01T07:16:37Z</time>
      </trkpt>
      <trkpt lat="47.10254" lon="6.05596">
        <ele>454</ele>
        <time>2024-09-01T07:16:38Z</time>
      </trkpt>
      <trkpt lat="47.10254" lon="6.05596">
        <ele>454</ele>
        <time>2024-09-01T07:16:39Z</time>
      </trkpt>
      <trkpt lat="47.10254" lon="6.05596">
        <ele>454.2</ele>
        <time>2024-09-01T07:16:40Z</time>
      </trkpt>
      <trkpt lat="47.10254" lon="6.05596">
        <ele>454.2</ele>
        <time>2024-09-01T07:16:41Z</time>
      </trkpt>
      <trkpt lat="47.10254" lon="6.05596">
        <ele>454.2</ele>
        <time>2024-09-01T07:16:42Z</time>
      </trkpt>
      <trkpt lat="47.10254" lon="6.05596">
        <ele>454.4</ele>
        <time>2024-09-01T07:16:43Z</time>
      </trkpt>
      <trkpt lat="47.10253" lon="6.05597">
        <ele>454.2</ele>
        <time>2024-09-01T07:16:44Z</time>
      </trkpt>
      <trkpt lat="47.10253" lon="6.05597">
        <ele>454.4</ele>
        <time>2024-09-01T07:16:45Z</time>
      </trkpt>
      <trkpt lat="47.10253" lon="6.05597">
        <ele>454.6</ele>
        <time>2024-09-01T07:16:46Z</time>
      </trkpt>
      <trkpt lat="47.10253" lon="6.05597">
        <ele>454.4</ele>
        <time>2024-09-01T07:16:47Z</time>
      </trkpt>
      <trkpt lat="47.10253" lon="6.05597">
        <ele>454.4</ele>
        <time>2024-09-01T07:16:48Z</time>
      </trkpt>
      <trkpt lat="47.10253" lon="6.05597">
        <ele>454.4</ele>
        <time>2024-09-01T07:16:49Z</time>
      </trkpt>
      <trkpt lat="47.10253" lon="6.05597">
        <ele>454.4</ele>
        <time>2024-09-01T07:16:50Z</time>
      </trkpt>
      <trkpt lat="47.10253" lon="6.05597">
        <ele>454.4</ele>
        <time>2024-09-01T07:16:51Z</time>
      </trkpt>
      <trkpt lat="47.10253" lon="6.05598">
        <ele>454.4</ele>
        <time>2024-09-01T07:16:52Z</time>
      </trkpt>
      <trkpt lat="47.10252" lon="6.05597">
        <ele>454.2</ele>
        <time>2024-09-01T07:16:53Z</time>
      </trkpt>
      <trkpt lat="47.10251" lon="6.05597">
        <ele>454.4</ele>
        <time>2024-09-01T07:16:54Z</time>
      </trkpt>
      <trkpt lat="47.10251" lon="6.05597">
        <ele>454.4</ele>
        <time>2024-09-01T07:16:55Z</time>
      </trkpt>
      <trkpt lat="47.1025" lon="6.05597">
        <ele>454.2</ele>
        <time>2024-09-01T07:16:56Z</time>
      </trkpt>
      <trkpt lat="47.1025" lon="6.05597">
        <ele>454.2</ele>
        <time>2024-09-01T07:16:57Z</time>
      </trkpt>
      <trkpt lat="47.10249" lon="6.05597">
        <ele>454.2</ele>
        <time>2024-09-01T07:16:58Z</time>
      </trkpt>
      <trkpt lat="47.10249" lon="6.05597">
        <ele>454.2</ele>
        <time>2024-09-01T07:16:59Z</time>
      </trkpt>
      <trkpt lat="47.10249" lon="6.05597">
        <ele>454.2</ele>
        <time>2024-09-01T07:17:00Z</time>
      </trkpt>
      <trkpt lat="47.10248" lon="6.05597">
        <ele>454.2</ele>
        <time>2024-09-01T07:17:01Z</time>
      </trkpt>
      <trkpt lat="47.10248" lon="6.05596">
        <ele>454.2</ele>
        <time>2024-09-01T07:17:02Z</time>
      </trkpt>
      <trkpt lat="47.10247" lon="6.05596">
        <ele>454</ele>
        <time>2024-09-01T07:17:03Z</time>
      </trkpt>
      <trkpt lat="47.10246" lon="6.05595">
        <ele>454</ele>
        <time>2024-09-01T07:17:04Z</time>
      </trkpt>
      <trkpt lat="47.10245" lon="6.05594">
        <ele>453.8</ele>
        <time>2024-09-01T07:17:05Z</time>
      </trkpt>
      <trkpt lat="47.10244" lon="6.05592">
        <ele>453.8</ele>
        <time>2024-09-01T07:17:06Z</time>
      </trkpt>
      <trkpt lat="47.10242" lon="6.05591">
        <ele>453.8</ele>
        <time>2024-09-01T07:17:07Z</time>
      </trkpt>
      <trkpt lat="47.10241" lon="6.0559">
        <ele>453.6</ele>
        <time>2024-09-01T07:17:08Z</time>
      </trkpt>
      <trkpt lat="47.10239" lon="6.05588">
        <ele>453.6</ele>
        <time>2024-09-01T07:17:09Z</time>
      </trkpt>
      <trkpt lat="47.10236" lon="6.05588">
        <ele>453.6</ele>
        <time>2024-09-01T07:17:10Z</time>
      </trkpt>
      <trkpt lat="47.10234" lon="6.05587">
        <ele>453.6</ele>
        <time>2024-09-01T07:17:11Z</time>
      </trkpt>
      <trkpt lat="47.10232" lon="6.05585">
        <ele>453.2</ele>
        <time>2024-09-01T07:17:12Z</time>
      </trkpt>
      <trkpt lat="47.1023" lon="6.05584">
        <ele>453</ele>
        <time>2024-09-01T07:17:13Z</time>
      </trkpt>
      <trkpt lat="47.10228" lon="6.05583">
        <ele>452.8</ele>
        <time>2024-09-01T07:17:14Z</time>
      </trkpt>
      <trkpt lat="47.10227" lon="6.05582">
        <ele>452.8</ele>
        <time>2024-09-01T07:17:15Z</time>
      </trkpt>
      <trkpt lat="47.10226" lon="6.05581">
        <ele>452.4</ele>
        <time>2024-09-01T07:17:16Z</time>
      </trkpt>
      <trkpt lat="47.10226" lon="6.05581">
        <ele>452.2</ele>
        <time>2024-09-01T07:17:17Z</time>
      </trkpt>
      <trkpt lat="47.10225" lon="6.0558">
        <ele>452</ele>
        <time>2024-09-01T07:17:18Z</time>
      </trkpt>
      <trkpt lat="47.10224" lon="6.05579">
        <ele>451.8</ele>
        <time>2024-09-01T07:17:19Z</time>
      </trkpt>
      <trkpt lat="47.10223" lon="6.05578">
        <ele>451.4</ele>
        <time>2024-09-01T07:17:20Z</time>
      </trkpt>
      <trkpt lat="47.10222" lon="6.05577">
        <ele>451.2</ele>
        <time>2024-09-01T07:17:21Z</time>
      </trkpt>
      <trkpt lat="47.1022" lon="6.05577">
        <ele>450.8</ele>
        <time>2024-09-01T07:17:22Z</time>
      </trkpt>
      <trkpt lat="47.10219" lon="6.05576">
        <ele>450.4</ele>
        <time>2024-09-01T07:17:23Z</time>
      </trkpt>
      <trkpt lat="47.10218" lon="6.05575">
        <ele>450.4</ele>
        <time>2024-09-01T07:17:24Z</time>
      </trkpt>
      <trkpt lat="47.10216" lon="6.05575">
        <ele>450.2</ele>
        <time>2024-09-01T07:17:25Z</time>
      </trkpt>
      <trkpt lat="47.10215" lon="6.05574">
        <ele>450.2</ele>
        <time>2024-09-01T07:17:26Z</time>
      </trkpt>
      <trkpt lat="47.10214" lon="6.05573">
        <ele>450.2</ele>
        <time>2024-09-01T07:17:27Z</time>
      </trkpt>
      <trkpt lat="47.10214" lon="6.05573">
        <ele>450</ele>
        <time>2024-09-01T07:17:28Z</time>
      </trkpt>
      <trkpt lat="47.10213" lon="6.05573">
        <ele>450</ele>
        <time>2024-09-01T07:17:29Z</time>
      </trkpt>
      <trkpt lat="47.10212" lon="6.05572">
        <ele>449.8</ele>
        <time>2024-09-01T07:17:30Z</time>
      </trkpt>
      <trkpt lat="47.10211" lon="6.05572">
        <ele>449.6</ele>
        <time>2024-09-01T07:17:31Z</time>
      </trkpt>
      <trkpt lat="47.10209" lon="6.05571">
        <ele>449.6</ele>
        <time>2024-09-01T07:17:32Z</time>
      </trkpt>
      <trkpt lat="47.10207" lon="6.05571">
        <ele>449.4</ele>
        <time>2024-09-01T07:17:33Z</time>
      </trkpt>
      <trkpt lat="47.10205" lon="6.05571">
        <ele>449.2</ele>
        <time>2024-09-01T07:17:34Z</time>
      </trkpt>
      <trkpt lat="47.10204" lon="6.05572">
        <ele>449.2</ele>
        <time>2024-09-01T07:17:35Z</time>
      </trkpt>
      <trkpt lat="47.10202" lon="6.05572">
        <ele>449</ele>
        <time>2024-09-01T07:17:36Z</time>
      </trkpt>
      <trkpt lat="47.102" lon="6.05572">
        <ele>449</ele>
        <time>2024-09-01T07:17:37Z</time>
      </trkpt>
      <trkpt lat="47.10199" lon="6.05573">
        <ele>449</ele>
        <time>2024-09-01T07:17:38Z</time>
      </trkpt>
      <trkpt lat="47.10197" lon="6.05573">
        <ele>448.8</ele>
        <time>2024-09-01T07:17:39Z</time>
      </trkpt>
      <trkpt lat="47.10195" lon="6.05574">
        <ele>448.8</ele>
        <time>2024-09-01T07:17:40Z</time>
      </trkpt>
      <trkpt lat="47.10193" lon="6.05574">
        <ele>448.6</ele>
        <time>2024-09-01T07:17:41Z</time>
      </trkpt>
      <trkpt lat="47.10191" lon="6.05574">
        <ele>448.6</ele>
        <time>2024-09-01T07:17:42Z</time>
      </trkpt>
      <trkpt lat="47.10189" lon="6.05575">
        <ele>448.4</ele>
        <time>2024-09-01T07:17:43Z</time>
      </trkpt>
      <trkpt lat="47.10187" lon="6.05575">
        <ele>448.2</ele>
        <time>2024-09-01T07:17:44Z</time>
      </trkpt>
      <trkpt lat="47.10184" lon="6.05576">
        <ele>448</ele>
        <time>2024-09-01T07:17:45Z</time>
      </trkpt>
      <trkpt lat="47.10181" lon="6.05577">
        <ele>448</ele>
        <time>2024-09-01T07:17:46Z</time>
      </trkpt>
      <trkpt lat="47.10178" lon="6.05579">
        <ele>447.6</ele>
        <time>2024-09-01T07:17:47Z</time>
      </trkpt>
      <trkpt lat="47.10174" lon="6.05582">
        <ele>447.6</ele>
        <time>2024-09-01T07:17:48Z</time>
      </trkpt>
      <trkpt lat="47.10171" lon="6.05585">
        <ele>447.2</ele>
        <time>2024-09-01T07:17:49Z</time>
      </trkpt>
      <trkpt lat="47.10167" lon="6.05588">
        <ele>447</ele>
        <time>2024-09-01T07:17:50Z</time>
      </trkpt>
      <trkpt lat="47.10163" lon="6.05592">
        <ele>446.8</ele>
        <time>2024-09-01T07:17:51Z</time>
      </trkpt>
      <trkpt lat="47.10159" lon="6.05596">
        <ele>446.6</ele>
        <time>2024-09-01T07:17:52Z</time>
      </trkpt>
      <trkpt lat="47.10156" lon="6.05599">
        <ele>446.2</ele>
        <time>2024-09-01T07:17:53Z</time>
      </trkpt>
      <trkpt lat="47.10152" lon="6.05602">
        <ele>445.4</ele>
        <time>2024-09-01T07:17:54Z</time>
      </trkpt>
      <trkpt lat="47.10148" lon="6.05606">
        <ele>445.2</ele>
        <time>2024-09-01T07:17:55Z</time>
      </trkpt>
      <trkpt lat="47.10144" lon="6.0561">
        <ele>444.8</ele>
        <time>2024-09-01T07:17:56Z</time>
      </trkpt>
      <trkpt lat="47.10141" lon="6.05614">
        <ele>444</ele>
        <time>2024-09-01T07:17:57Z</time>
      </trkpt>
      <trkpt lat="47.10137" lon="6.05618">
        <ele>443.6</ele>
        <time>2024-09-01T07:17:58Z</time>
      </trkpt>
      <trkpt lat="47.10134" lon="6.05624">
        <ele>443.2</ele>
        <time>2024-09-01T07:17:59Z</time>
      </trkpt>
      <trkpt lat="47.10132" lon="6.05631">
        <ele>442.4</ele>
        <time>2024-09-01T07:18:00Z</time>
      </trkpt>
      <trkpt lat="47.10129" lon="6.05639">
        <ele>442</ele>
        <time>2024-09-01T07:18:01Z</time>
      </trkpt>
      <trkpt lat="47.10127" lon="6.05647">
        <ele>441.6</ele>
        <time>2024-09-01T07:18:02Z</time>
      </trkpt>
      <trkpt lat="47.10125" lon="6.05655">
        <ele>441</ele>
        <time>2024-09-01T07:18:03Z</time>
      </trkpt>
      <trkpt lat="47.10124" lon="6.0566">
        <ele>440.4</ele>
        <time>2024-09-01T07:18:04Z</time>
      </trkpt>
      <trkpt lat="47.10122" lon="6.05664">
        <ele>439.8</ele>
        <time>2024-09-01T07:18:05Z</time>
      </trkpt>
      <trkpt lat="47.10119" lon="6.05669">
        <ele>439</ele>
        <time>2024-09-01T07:18:06Z</time>
      </trkpt>
      <trkpt lat="47.10115" lon="6.05673">
        <ele>438.6</ele>
        <time>2024-09-01T07:18:07Z</time>
      </trkpt>
      <trkpt lat="47.10111" lon="6.05678">
        <ele>437.8</ele>
        <time>2024-09-01T07:18:08Z</time>
      </trkpt>
      <trkpt lat="47.10108" lon="6.05682">
        <ele>437.2</ele>
        <time>2024-09-01T07:18:09Z</time>
      </trkpt>
      <trkpt lat="47.10104" lon="6.05685">
        <ele>436.4</ele>
        <time>2024-09-01T07:18:10Z</time>
      </trkpt>
      <trkpt lat="47.10099" lon="6.05687">
        <ele>435.4</ele>
        <time>2024-09-01T07:18:11Z</time>
      </trkpt>
      <trkpt lat="47.10094" lon="6.05689">
        <ele>434.6</ele>
        <time>2024-09-01T07:18:12Z</time>
      </trkpt>
      <trkpt lat="47.10088" lon="6.0569">
        <ele>434</ele>
        <time>2024-09-01T07:18:13Z</time>
      </trkpt>
      <trkpt lat="47.1008" lon="6.05693">
        <ele>433.2</ele>
        <time>2024-09-01T07:18:14Z</time>
      </trkpt>
      <trkpt lat="47.10073" lon="6.05697">
        <ele>432.8</ele>
        <time>2024-09-01T07:18:15Z</time>
      </trkpt>
      <trkpt lat="47.10066" lon="6.05702">
        <ele>432.2</ele>
        <time>2024-09-01T07:18:16Z</time>
      </trkpt>
      <trkpt lat="47.1006" lon="6.05705">
        <ele>431.6</ele>
        <time>2024-09-01T07:18:17Z</time>
      </trkpt>
      <trkpt lat="47.10053" lon="6.05709">
        <ele>430.8</ele>
        <time>2024-09-01T07:18:18Z</time>
      </trkpt>
      <trkpt lat="47.10046" lon="6.05713">
        <ele>430.2</ele>
        <time>2024-09-01T07:18:19Z</time>
      </trkpt>
      <trkpt lat="47.10039" lon="6.05717">
        <ele>429.2</ele>
        <time>2024-09-01T07:18:20Z</time>
      </trkpt>
      <trkpt lat="47.10032" lon="6.05721">
        <ele>428.6</ele>
        <time>2024-09-01T07:18:21Z</time>
      </trkpt>
      <trkpt lat="47.10025" lon="6.05724">
        <ele>428</ele>
        <time>2024-09-01T07:18:22Z</time>
      </trkpt>
      <trkpt lat="47.10019" lon="6.05728">
        <ele>427.2</ele>
        <time>2024-09-01T07:18:23Z</time>
      </trkpt>
      <trkpt lat="47.10012" lon="6.05732">
        <ele>426.8</ele>
        <time>2024-09-01T07:18:24Z</time>
      </trkpt>
      <trkpt lat="47.10005" lon="6.05736">
        <ele>426</ele>
        <time>2024-09-01T07:18:25Z</time>
      </trkpt>
      <trkpt lat="47.09998" lon="6.05741">
        <ele>425.4</ele>
        <time>2024-09-01T07:18:26Z</time>
      </trkpt>
      <trkpt lat="47.09992" lon="6.05745">
        <ele>424.8</ele>
        <time>2024-09-01T07:18:27Z</time>
      </trkpt>
      <trkpt lat="47.09985" lon="6.05748">
        <ele>424.2</ele>
        <time>2024-09-01T07:18:28Z</time>
      </trkpt>
      <trkpt lat="47.09978" lon="6.05752">
        <ele>423.6</ele>
        <time>2024-09-01T07:18:29Z</time>
      </trkpt>
      <trkpt lat="47.09972" lon="6.05756">
        <ele>423.2</ele>
        <time>2024-09-01T07:18:30Z</time>
      </trkpt>
      <trkpt lat="47.09965" lon="6.05759">
        <ele>422.8</ele>
        <time>2024-09-01T07:18:31Z</time>
      </trkpt>
      <trkpt lat="47.09958" lon="6.05762">
        <ele>422</ele>
        <time>2024-09-01T07:18:32Z</time>
      </trkpt>
      <trkpt lat="47.09951" lon="6.05765">
        <ele>421.4</ele>
        <time>2024-09-01T07:18:33Z</time>
      </trkpt>
      <trkpt lat="47.09944" lon="6.0577">
        <ele>421</ele>
        <time>2024-09-01T07:18:34Z</time>
      </trkpt>
      <trkpt lat="47.09937" lon="6.05774">
        <ele>420.8</ele>
        <time>2024-09-01T07:18:35Z</time>
      </trkpt>
      <trkpt lat="47.09931" lon="6.05779">
        <ele>420.6</ele>
        <time>2024-09-01T07:18:36Z</time>
      </trkpt>
      <trkpt lat="47.09924" lon="6.05784">
        <ele>420.4</ele>
        <time>2024-09-01T07:18:37Z</time>
      </trkpt>
      <trkpt lat="47.09919" lon="6.05791">
        <ele>419.8</ele>
        <time>2024-09-01T07:18:38Z</time>
      </trkpt>
      <trkpt lat="47.09913" lon="6.05797">
        <ele>419.6</ele>
        <time>2024-09-01T07:18:39Z</time>
      </trkpt>
      <trkpt lat="47.09907" lon="6.05804">
        <ele>419.6</ele>
        <time>2024-09-01T07:18:40Z</time>
      </trkpt>
      <trkpt lat="47.099" lon="6.05812">
        <ele>419.4</ele>
        <time>2024-09-01T07:18:41Z</time>
      </trkpt>
      <trkpt lat="47.09895" lon="6.0582">
        <ele>419</ele>
        <time>2024-09-01T07:18:42Z</time>
      </trkpt>
      <trkpt lat="47.09889" lon="6.05829">
        <ele>418.2</ele>
        <time>2024-09-01T07:18:43Z</time>
      </trkpt>
      <trkpt lat="47.09884" lon="6.05838">
        <ele>417.6</ele>
        <time>2024-09-01T07:18:44Z</time>
      </trkpt>
      <trkpt lat="47.0988" lon="6.05847">
        <ele>417</ele>
        <time>2024-09-01T07:18:45Z</time>
      </trkpt>
      <trkpt lat="47.09875" lon="6.05856">
        <ele>416.8</ele>
        <time>2024-09-01T07:18:46Z</time>
      </trkpt>
      <trkpt lat="47.0987" lon="6.05866">
        <ele>416.4</ele>
        <time>2024-09-01T07:18:47Z</time>
      </trkpt>
      <trkpt lat="47.09866" lon="6.05875">
        <ele>415.6</ele>
        <time>2024-09-01T07:18:48Z</time>
      </trkpt>
      <trkpt lat="47.09861" lon="6.05883">
        <ele>415</ele>
        <time>2024-09-01T07:18:49Z</time>
      </trkpt>
      <trkpt lat="47.09856" lon="6.0589">
        <ele>414.6</ele>
        <time>2024-09-01T07:18:50Z</time>
      </trkpt>
      <trkpt lat="47.09851" lon="6.05897">
        <ele>414</ele>
        <time>2024-09-01T07:18:51Z</time>
      </trkpt>
      <trkpt lat="47.09846" lon="6.05904">
        <ele>413.4</ele>
        <time>2024-09-01T07:18:52Z</time>
      </trkpt>
      <trkpt lat="47.09841" lon="6.05911">
        <ele>412.6</ele>
        <time>2024-09-01T07:18:53Z</time>
      </trkpt>
      <trkpt lat="47.09836" lon="6.05919">
        <ele>411.6</ele>
        <time>2024-09-01T07:18:54Z</time>
      </trkpt>
      <trkpt lat="47.09832" lon="6.05926">
        <ele>411</ele>
        <time>2024-09-01T07:18:55Z</time>
      </trkpt>
      <trkpt lat="47.09828" lon="6.05934">
        <ele>410.4</ele>
        <time>2024-09-01T07:18:56Z</time>
      </trkpt>
      <trkpt lat="47.09825" lon="6.05941">
        <ele>409.6</ele>
        <time>2024-09-01T07:18:57Z</time>
      </trkpt>
      <trkpt lat="47.09823" lon="6.05948">
        <ele>408.8</ele>
        <time>2024-09-01T07:18:58Z</time>
      </trkpt>
      <trkpt lat="47.09821" lon="6.05954">
        <ele>408.2</ele>
        <time>2024-09-01T07:18:59Z</time>
      </trkpt>
      <trkpt lat="47.09819" lon="6.0596">
        <ele>407.4</ele>
        <time>2024-09-01T07:19:00Z</time>
      </trkpt>
      <trkpt lat="47.09816" lon="6.05965">
        <ele>406.8</ele>
        <time>2024-09-01T07:19:01Z</time>
      </trkpt>
      <trkpt lat="47.09814" lon="6.05969">
        <ele>406</ele>
        <time>2024-09-01T07:19:02Z</time>
      </trkpt>
      <trkpt lat="47.09813" lon="6.05973">
        <ele>405.4</ele>
        <time>2024-09-01T07:19:03Z</time>
      </trkpt>
      <trkpt lat="47.09812" lon="6.05974">
        <ele>404.8</ele>
        <time>2024-09-01T07:19:04Z</time>
      </trkpt>
      <trkpt lat="47.09811" lon="6.05975">
        <ele>404.4</ele>
        <time>2024-09-01T07:19:05Z</time>
      </trkpt>
      <trkpt lat="47.09812" lon="6.05975">
        <ele>403.8</ele>
        <time>2024-09-01T07:19:06Z</time>
      </trkpt>
      <trkpt lat="47.09812" lon="6.05975">
        <ele>403.4</ele>
        <time>2024-09-01T07:19:07Z</time>
      </trkpt>
      <trkpt lat="47.09812" lon="6.05975">
        <ele>402.8</ele>
        <time>2024-09-01T07:19:08Z</time>
      </trkpt>
      <trkpt lat="47.09812" lon="6.05975">
        <ele>402.4</ele>
        <time>2024-09-01T07:19:09Z</time>
      </trkpt>
      <trkpt lat="47.09812" lon="6.05975">
        <ele>402.2</ele>
        <time>2024-09-01T07:19:10Z</time>
      </trkpt>
      <trkpt lat="47.09812" lon="6.05975">
        <ele>401.8</ele>
        <time>2024-09-01T07:19:11Z</time>
      </trkpt>
      <trkpt lat="47.09812" lon="6.05975">
        <ele>401.6</ele>
        <time>2024-09-01T07:19:12Z</time>
      </trkpt>
      <trkpt lat="47.09812" lon="6.05975">
        <ele>401.4</ele>
        <time>2024-09-01T07:19:13Z</time>
      </trkpt>
      <trkpt lat="47.09812" lon="6.05975">
        <ele>401.4</ele>
        <time>2024-09-01T07:19:14Z</time>
      </trkpt>
      <trkpt lat="47.09812" lon="6.05975">
        <ele>401.2</ele>
        <time>2024-09-01T07:19:15Z</time>
      </trkpt>
      <trkpt lat="47.09812" lon="6.05975">
        <ele>401.2</ele>
        <time>2024-09-01T07:19:16Z</time>
      </trkpt>
      <trkpt lat="47.09812" lon="6.05975">
        <ele>401</ele>
        <time>2024-09-01T07:19:17Z</time>
      </trkpt>
      <trkpt lat="47.09812" lon="6.05975">
        <ele>401.2</ele>
        <time>2024-09-01T07:19:18Z</time>
      </trkpt>
      <trkpt lat="47.09812" lon="6.05975">
        <ele>401.2</ele>
        <time>2024-09-01T07:19:19Z</time>
      </trkpt>
      <trkpt lat="47.09812" lon="6.05975">
        <ele>401</ele>
        <time>2024-09-01T07:19:20Z</time>
      </trkpt>
      <trkpt lat="47.09812" lon="6.05975">
        <ele>401.2</ele>
        <time>2024-09-01T07:19:21Z</time>
      </trkpt>
      <trkpt lat="47.09812" lon="6.05975">
        <ele>401</ele>
        <time>2024-09-01T07:19:22Z</time>
      </trkpt>
      <trkpt lat="47.09812" lon="6.05975">
        <ele>401.2</ele>
        <time>2024-09-01T07:19:23Z</time>
      </trkpt>
      <trkpt lat="47.09812" lon="6.05975">
        <ele>401</ele>
        <time>2024-09-01T07:19:24Z</time>
      </trkpt>
      <trkpt lat="47.09813" lon="6.05975">
        <ele>401.2</ele>
        <time>2024-09-01T07:19:25Z</time>
      </trkpt>
      <trkpt lat="47.09813" lon="6.05976">
        <ele>401</ele>
        <time>2024-09-01T07:19:26Z</time>
      </trkpt>
      <trkpt lat="47.09813" lon="6.05976">
        <ele>401.2</ele>
        <time>2024-09-01T07:19:27Z</time>
      </trkpt>
      <trkpt lat="47.09813" lon="6.05976">
        <ele>401</ele>
        <time>2024-09-01T07:19:28Z</time>
      </trkpt>
      <trkpt lat="47.09814" lon="6.05976">
        <ele>401.2</ele>
        <time>2024-09-01T07:19:29Z</time>
      </trkpt>
      <trkpt lat="47.09814" lon="6.05976">
        <ele>401.2</ele>
        <time>2024-09-01T07:19:30Z</time>
      </trkpt>
      <trkpt lat="47.09814" lon="6.05976">
        <ele>401.2</ele>
        <time>2024-09-01T07:19:31Z</time>
      </trkpt>
      <trkpt lat="47.09814" lon="6.05976">
        <ele>401</ele>
        <time>2024-09-01T07:19:32Z</time>
      </trkpt>
      <trkpt lat="47.09814" lon="6.05977">
        <ele>401.2</ele>
        <time>2024-09-01T07:19:33Z</time>
      </trkpt>
      <trkpt lat="47.09814" lon="6.05977">
        <ele>401.2</ele>
        <time>2024-09-01T07:19:34Z</time>
      </trkpt>
      <trkpt lat="47.09814" lon="6.05977">
        <ele>401</ele>
        <time>2024-09-01T07:19:35Z</time>
      </trkpt>
      <trkpt lat="47.09814" lon="6.05976">
        <ele>401</ele>
        <time>2024-09-01T07:19:36Z</time>
      </trkpt>
      <trkpt lat="47.09814" lon="6.05977">
        <ele>401</ele>
        <time>2024-09-01T07:19:37Z</time>
      </trkpt>
      <trkpt lat="47.09813" lon="6.05977">
        <ele>401</ele>
        <time>2024-09-01T07:19:38Z</time>
      </trkpt>
      <trkpt lat="47.09813" lon="6.05977">
        <ele>401.2</ele>
        <time>2024-09-01T07:19:39Z</time>
      </trkpt>
      <trkpt lat="47.09813" lon="6.05977">
        <ele>401</ele>
        <time>2024-09-01T07:19:40Z</time>
      </trkpt>
      <trkpt lat="47.09813" lon="6.05977">
        <ele>401.2</ele>
        <time>2024-09-01T07:19:41Z</time>
      </trkpt>
      <trkpt lat="47.09813" lon="6.05977">
        <ele>401.2</ele>
        <time>2024-09-01T07:19:42Z</time>
      </trkpt>
      <trkpt lat="47.09813" lon="6.05977">
        <ele>401.2</ele>
        <time>2024-09-01T07:19:43Z</time>
      </trkpt>
      <trkpt lat="47.09813" lon="6.05977">
        <ele>401.2</ele>
        <time>2024-09-01T07:19:44Z</time>
      </trkpt>
      <trkpt lat="47.09813" lon="6.05977">
        <ele>401</ele>
        <time>2024-09-01T07:19:45Z</time>
      </trkpt>
      <trkpt lat="47.09813" lon="6.05977">
        <ele>401.2</ele>
        <time>2024-09-01T07:19:46Z</time>
      </trkpt>
      <trkpt lat="47.09813" lon="6.05977">
        <ele>401.2</ele>
        <time>2024-09-01T07:19:47Z</time>
      </trkpt>
      <trkpt lat="47.09813" lon="6.05977">
        <ele>401.2</ele>
        <time>2024-09-01T07:19:48Z</time>
      </trkpt>
      <trkpt lat="47.09813" lon="6.05977">
        <ele>401.2</ele>
        <time>2024-09-01T07:19:49Z</time>
      </trkpt>
      <trkpt lat="47.09813" lon="6.05977">
        <ele>401</ele>
        <time>2024-09-01T07:19:50Z</time>
      </trkpt>
      <trkpt lat="47.09813" lon="6.05978">
        <ele>401.2</ele>
        <time>2024-09-01T07:19:51Z</time>
      </trkpt>
      <trkpt lat="47.09812" lon="6.05979">
        <ele>401.2</ele>
        <time>2024-09-01T07:19:52Z</time>
      </trkpt>
      <trkpt lat="47.09812" lon="6.0598">
        <ele>401.2</ele>
        <time>2024-09-01T07:19:53Z</time>
      </trkpt>
      <trkpt lat="47.0981" lon="6.05982">
        <ele>401.2</ele>
        <time>2024-09-01T07:19:54Z</time>
      </trkpt>
      <trkpt lat="47.09808" lon="6.05984">
        <ele>401.2</ele>
        <time>2024-09-01T07:19:55Z</time>
      </trkpt>
      <trkpt lat="47.09806" lon="6.05987">
        <ele>401.2</ele>
        <time>2024-09-01T07:19:56Z</time>
      </trkpt>
      <trkpt lat="47.09803" lon="6.05991">
        <ele>401.2</ele>
        <time>2024-09-01T07:19:57Z</time>
      </trkpt>
      <trkpt lat="47.09799" lon="6.05996">
        <ele>401.2</ele>
        <time>2024-09-01T07:19:58Z</time>
      </trkpt>
      <trkpt lat="47.09796" lon="6.06001">
        <ele>401.2</ele>
        <time>2024-09-01T07:19:59Z</time>
      </trkpt>
      <trkpt lat="47.09792" lon="6.06007">
        <ele>401.2</ele>
        <time>2024-09-01T07:20:00Z</time>
      </trkpt>
      <trkpt lat="47.09788" lon="6.06013">
        <ele>401</ele>
        <time>2024-09-01T07:20:01Z</time>
      </trkpt>
      <trkpt lat="47.09785" lon="6.0602">
        <ele>401</ele>
        <time>2024-09-01T07:20:02Z</time>
      </trkpt>
      <trkpt lat="47.09782" lon="6.06028">
        <ele>401</ele>
        <time>2024-09-01T07:20:03Z</time>
      </trkpt>
      <trkpt lat="47.09779" lon="6.06035">
        <ele>401</ele>
        <time>2024-09-01T07:20:04Z</time>
      </trkpt>
      <trkpt lat="47.09776" lon="6.06044">
        <ele>400.6</ele>
        <time>2024-09-01T07:20:05Z</time>
      </trkpt>
      <trkpt lat="47.09773" lon="6.06053">
        <ele>400.4</ele>
        <time>2024-09-01T07:20:06Z</time>
      </trkpt>
      <trkpt lat="47.09769" lon="6.06063">
        <ele>400.2</ele>
        <time>2024-09-01T07:20:07Z</time>
      </trkpt>
      <trkpt lat="47.09766" lon="6.06073">
        <ele>400.2</ele>
        <time>2024-09-01T07:20:08Z</time>
      </trkpt>
      <trkpt lat="47.09763" lon="6.06083">
        <ele>399.8</ele>
        <time>2024-09-01T07:20:09Z</time>
      </trkpt>
      <trkpt lat="47.09759" lon="6.06093">
        <ele>399.6</ele>
        <time>2024-09-01T07:20:10Z</time>
      </trkpt>
      <trkpt lat="47.09756" lon="6.06104">
        <ele>399.6</ele>
        <time>2024-09-01T07:20:11Z</time>
      </trkpt>
      <trkpt lat="47.09754" lon="6.06115">
        <ele>399.2</ele>
        <time>2024-09-01T07:20:12Z</time>
      </trkpt>
      <trkpt lat="47.09752" lon="6.06128">
        <ele>399</ele>
        <time>2024-09-01T07:20:13Z</time>
      </trkpt>
      <trkpt lat="47.09751" lon="6.0614">
        <ele>398.8</ele>
        <time>2024-09-01T07:20:14Z</time>
      </trkpt>
      <trkpt lat="47.0975" lon="6.06153">
        <ele>398.2</ele>
        <time>2024-09-01T07:20:15Z</time>
      </trkpt>
      <trkpt lat="47.09749" lon="6.06165">
        <ele>397.8</ele>
        <time>2024-09-01T07:20:16Z</time>
      </trkpt>
      <trkpt lat="47.09749" lon="6.06178">
        <ele>397.6</ele>
        <time>2024-09-01T07:20:17Z</time>
      </trkpt>
      <trkpt lat="47.09748" lon="6.06192">
        <ele>397.4</ele>
        <time>2024-09-01T07:20:18Z</time>
      </trkpt>
      <trkpt lat="47.09747" lon="6.06205">
        <ele>397</ele>
        <time>2024-09-01T07:20:19Z</time>
      </trkpt>
      <trkpt lat="47.09746" lon="6.06218">
        <ele>396.8</ele>
        <time>2024-09-01T07:20:20Z</time>
      </trkpt>
      <trkpt lat="47.09745" lon="6.06232">
        <ele>396.2</ele>
        <time>2024-09-01T07:20:21Z</time>
      </trkpt>
      <trkpt lat="47.09744" lon="6.06246">
        <ele>395.8</ele>
        <time>2024-09-01T07:20:22Z</time>
      </trkpt>
      <trkpt lat="47.09743" lon="6.06261">
        <ele>395.6</ele>
        <time>2024-09-01T07:20:23Z</time>
      </trkpt>
      <trkpt lat="47.09742" lon="6.06276">
        <ele>395.4</ele>
        <time>2024-09-01T07:20:24Z</time>
      </trkpt>
      <trkpt lat="47.09741" lon="6.0629">
        <ele>394.6</ele>
        <time>2024-09-01T07:20:25Z</time>
      </trkpt>
      <trkpt lat="47.0974" lon="6.06305">
        <ele>394.2</ele>
        <time>2024-09-01T07:20:26Z</time>
      </trkpt>
      <trkpt lat="47.0974" lon="6.06319">
        <ele>393.8</ele>
        <time>2024-09-01T07:20:27Z</time>
      </trkpt>
      <trkpt lat="47.0974" lon="6.06334">
        <ele>393</ele>
        <time>2024-09-01T07:20:28Z</time>
      </trkpt>
      <trkpt lat="47.09741" lon="6.06348">
        <ele>392.4</ele>
        <time>2024-09-01T07:20:29Z</time>
      </trkpt>
      <trkpt lat="47.09743" lon="6.06362">
        <ele>392.2</ele>
        <time>2024-09-01T07:20:30Z</time>
      </trkpt>
      <trkpt lat="47.09746" lon="6.06376">
        <ele>391.6</ele>
        <time>2024-09-01T07:20:31Z</time>
      </trkpt>
      <trkpt lat="47.0975" lon="6.06389">
        <ele>391.2</ele>
        <time>2024-09-01T07:20:32Z</time>
      </trkpt>
      <trkpt lat="47.09755" lon="6.06402">
        <ele>390.6</ele>
        <time>2024-09-01T07:20:33Z</time>
      </trkpt>
      <trkpt lat="47.09763" lon="6.06413">
        <ele>389.8</ele>
        <time>2024-09-01T07:20:34Z</time>
      </trkpt>
      <trkpt lat="47.09771" lon="6.06421">
        <ele>389.4</ele>
        <time>2024-09-01T07:20:35Z</time>
      </trkpt>
      <trkpt lat="47.09779" lon="6.06429">
        <ele>389</ele>
        <time>2024-09-01T07:20:36Z</time>
      </trkpt>
      <trkpt lat="47.09785" lon="6.06437">
        <ele>388.4</ele>
        <time>2024-09-01T07:20:37Z</time>
      </trkpt>
      <trkpt lat="47.09789" lon="6.06445">
        <ele>387.8</ele>
        <time>2024-09-01T07:20:38Z</time>
      </trkpt>
      <trkpt lat="47.09792" lon="6.06453">
        <ele>387.4</ele>
        <time>2024-09-01T07:20:39Z</time>
      </trkpt>
      <trkpt lat="47.09793" lon="6.06461">
        <ele>386.8</ele>
        <time>2024-09-01T07:20:40Z</time>
      </trkpt>
      <trkpt lat="47.09793" lon="6.06468">
        <ele>386</ele>
        <time>2024-09-01T07:20:41Z</time>
      </trkpt>
      <trkpt lat="47.09792" lon="6.06475">
        <ele>385.8</ele>
        <time>2024-09-01T07:20:42Z</time>
      </trkpt>
      <trkpt lat="47.0979" lon="6.0648">
        <ele>385.2</ele>
        <time>2024-09-01T07:20:43Z</time>
      </trkpt>
      <trkpt lat="47.09787" lon="6.06484">
        <ele>384.6</ele>
        <time>2024-09-01T07:20:44Z</time>
      </trkpt>
      <trkpt lat="47.09784" lon="6.06486">
        <ele>384.2</ele>
        <time>2024-09-01T07:20:45Z</time>
      </trkpt>
      <trkpt lat="47.09781" lon="6.06486">
        <ele>384</ele>
        <time>2024-09-01T07:20:46Z</time>
      </trkpt>
      <trkpt lat="47.09778" lon="6.06483">
        <ele>383.6</ele>
        <time>2024-09-01T07:20:47Z</time>
      </trkpt>
      <trkpt lat="47.09775" lon="6.06479">
        <ele>383.2</ele>
        <time>2024-09-01T07:20:48Z</time>
      </trkpt>
      <trkpt lat="47.09773" lon="6.06474">
        <ele>382.8</ele>
        <time>2024-09-01T07:20:49Z</time>
      </trkpt>
      <trkpt lat="47.09771" lon="6.06469">
        <ele>382.4</ele>
        <time>2024-09-01T07:20:50Z</time>
      </trkpt>
      <trkpt lat="47.09768" lon="6.06464">
        <ele>382</ele>
        <time>2024-09-01T07:20:51Z</time>
      </trkpt>
      <trkpt lat="47.09765" lon="6.06459">
        <ele>381.6</ele>
        <time>2024-09-01T07:20:52Z</time>
      </trkpt>
      <trkpt lat="47.09762" lon="6.06454">
        <ele>381.6</ele>
        <time>2024-09-01T07:20:53Z</time>
      </trkpt>
      <trkpt lat="47.0976" lon="6.06449">
        <ele>381.4</ele>
        <time>2024-09-01T07:20:54Z</time>
      </trkpt>
      <trkpt lat="47.09757" lon="6.06445">
        <ele>381.4</ele>
        <time>2024-09-01T07:20:55Z</time>
      </trkpt>
      <trkpt lat="47.09755" lon="6.06441">
        <ele>381.4</ele>
        <time>2024-09-01T07:20:56Z</time>
      </trkpt>
      <trkpt lat="47.09752" lon="6.06436">
        <ele>381.4</ele>
        <time>2024-09-01T07:20:57Z</time>
      </trkpt>
      <trkpt lat="47.0975" lon="6.06432">
        <ele>381.4</ele>
        <time>2024-09-01T07:20:58Z</time>
      </trkpt>
      <trkpt lat="47.09748" lon="6.06427">
        <ele>381.4</ele>
        <time>2024-09-01T07:20:59Z</time>
      </trkpt>
      <trkpt lat="47.09745" lon="6.06423">
        <ele>381.2</ele>
        <time>2024-09-01T07:21:00Z</time>
      </trkpt>
      <trkpt lat="47.09743" lon="6.06419">
        <ele>381.4</ele>
        <time>2024-09-01T07:21:01Z</time>
      </trkpt>
      <trkpt lat="47.0974" lon="6.06415">
        <ele>381.4</ele>
        <time>2024-09-01T07:21:02Z</time>
      </trkpt>
      <trkpt lat="47.09738" lon="6.06411">
        <ele>381.4</ele>
        <time>2024-09-01T07:21:03Z</time>
      </trkpt>
      <trkpt lat="47.09735" lon="6.06406">
        <ele>381.6</ele>
        <time>2024-09-01T07:21:04Z</time>
      </trkpt>
      <trkpt lat="47.09733" lon="6.06402">
        <ele>381.8</ele>
        <time>2024-09-01T07:21:05Z</time>
      </trkpt>
      <trkpt lat="47.0973" lon="6.06397">
        <ele>381.6</ele>
        <time>2024-09-01T07:21:06Z</time>
      </trkpt>
      <trkpt lat="47.09728" lon="6.06392">
        <ele>381.8</ele>
        <time>2024-09-01T07:21:07Z</time>
      </trkpt>
      <trkpt lat="47.09725" lon="6.06388">
        <ele>382</ele>
        <time>2024-09-01T07:21:08Z</time>
      </trkpt>
      <trkpt lat="47.09723" lon="6.06383">
        <ele>382.2</ele>
        <time>2024-09-01T07:21:09Z</time>
      </trkpt>
      <trkpt lat="47.0972" lon="6.06379">
        <ele>382</ele>
        <time>2024-09-01T07:21:10Z</time>
      </trkpt>
      <trkpt lat="47.09717" lon="6.06375">
        <ele>382.2</ele>
        <time>2024-09-01T07:21:11Z</time>
      </trkpt>
      <trkpt lat="47.09714" lon="6.0637">
        <ele>382.4</ele>
        <time>2024-09-01T07:21:12Z</time>
      </trkpt>
      <trkpt lat="47.09712" lon="6.06365">
        <ele>382.6</ele>
        <time>2024-09-01T07:21:13Z</time>
      </trkpt>
      <trkpt lat="47.09709" lon="6.06361">
        <ele>382.4</ele>
        <time>2024-09-01T07:21:14Z</time>
      </trkpt>
      <trkpt lat="47.09706" lon="6.06356">
        <ele>382.6</ele>
        <time>2024-09-01T07:21:15Z</time>
      </trkpt>
      <trkpt lat="47.09703" lon="6.06351">
        <ele>382.8</ele>
        <time>2024-09-01T07:21:16Z</time>
      </trkpt>
      <trkpt lat="47.097" lon="6.06347">
        <ele>382.8</ele>
        <time>2024-09-01T07:21:17Z</time>
      </trkpt>
      <trkpt lat="47.09697" lon="6.06342">
        <ele>382.6</ele>
        <time>2024-09-01T07:21:18Z</time>
      </trkpt>
      <trkpt lat="47.09693" lon="6.06337">
        <ele>382.8</ele>
        <time>2024-09-01T07:21:19Z</time>
      </trkpt>
      <trkpt lat="47.0969" lon="6.06332">
        <ele>382.6</ele>
        <time>2024-09-01T07:21:20Z</time>
      </trkpt>
      <trkpt lat="47.09687" lon="6.06326">
        <ele>382.6</ele>
        <time>2024-09-01T07:21:21Z</time>
      </trkpt>
      <trkpt lat="47.09684" lon="6.06321">
        <ele>382.8</ele>
        <time>2024-09-01T07:21:22Z</time>
      </trkpt>
      <trkpt lat="47.09681" lon="6.06316">
        <ele>382.8</ele>
        <time>2024-09-01T07:21:23Z</time>
      </trkpt>
      <trkpt lat="47.09679" lon="6.06311">
        <ele>382.8</ele>
        <time>2024-09-01T07:21:24Z</time>
      </trkpt>
      <trkpt lat="47.09676" lon="6.06306">
        <ele>382.6</ele>
        <time>2024-09-01T07:21:25Z</time>
      </trkpt>
      <trkpt lat="47.09674" lon="6.06302">
        <ele>382.6</ele>
        <time>2024-09-01T07:21:26Z</time>
      </trkpt>
      <trkpt lat="47.09671" lon="6.06297">
        <ele>382.6</ele>
        <time>2024-09-01T07:21:27Z</time>
      </trkpt>
      <trkpt lat="47.09668" lon="6.06293">
        <ele>382.4</ele>
        <time>2024-09-01T07:21:28Z</time>
      </trkpt>
      <trkpt lat="47.09665" lon="6.06289">
        <ele>382.6</ele>
        <time>2024-09-01T07:21:29Z</time>
      </trkpt>
      <trkpt lat="47.09662" lon="6.06285">
        <ele>382.4</ele>
        <time>2024-09-01T07:21:30Z</time>
      </trkpt>
      <trkpt lat="47.09658" lon="6.06282">
        <ele>382.2</ele>
        <time>2024-09-01T07:21:31Z</time>
      </trkpt>
      <trkpt lat="47.09655" lon="6.06278">
        <ele>382</ele>
        <time>2024-09-01T07:21:32Z</time>
      </trkpt>
      <trkpt lat="47.09651" lon="6.06275">
        <ele>382</ele>
        <time>2024-09-01T07:21:33Z</time>
      </trkpt>
      <trkpt lat="47.09647" lon="6.06272">
        <ele>381.8</ele>
        <time>2024-09-01T07:21:34Z</time>
      </trkpt>
      <trkpt lat="47.09644" lon="6.06268">
        <ele>381.6</ele>
        <time>2024-09-01T07:21:35Z</time>
      </trkpt>
      <trkpt lat="47.0964" lon="6.06264">
        <ele>381.4</ele>
        <time>2024-09-01T07:21:36Z</time>
      </trkpt>
      <trkpt lat="47.09636" lon="6.06259">
        <ele>381.4</ele>
        <time>2024-09-01T07:21:37Z</time>
      </trkpt>
      <trkpt lat="47.09633" lon="6.06255">
        <ele>381</ele>
        <time>2024-09-01T07:21:38Z</time>
      </trkpt>
      <trkpt lat="47.0963" lon="6.0625">
        <ele>380.8</ele>
        <time>2024-09-01T07:21:39Z</time>
      </trkpt>
      <trkpt lat="47.09627" lon="6.06246">
        <ele>380.6</ele>
        <time>2024-09-01T07:21:40Z</time>
      </trkpt>
      <trkpt lat="47.09624" lon="6.06241">
        <ele>380.4</ele>
        <time>2024-09-01T07:21:41Z</time>
      </trkpt>
      <trkpt lat="47.09621" lon="6.06236">
        <ele>380.4</ele>
        <time>2024-09-01T07:21:42Z</time>
      </trkpt>
      <trkpt lat="47.09617" lon="6.06232">
        <ele>380.2</ele>
        <time>2024-09-01T07:21:43Z</time>
      </trkpt>
      <trkpt lat="47.09613" lon="6.06229">
        <ele>380.2</ele>
        <time>2024-09-01T07:21:44Z</time>
      </trkpt>
      <trkpt lat="47.09609" lon="6.06225">
        <ele>380.2</ele>
        <time>2024-09-01T07:21:45Z</time>
      </trkpt>
      <trkpt lat="47.09605" lon="6.06221">
        <ele>380</ele>
        <time>2024-09-01T07:21:46Z</time>
      </trkpt>
      <trkpt lat="47.09601" lon="6.06217">
        <ele>380</ele>
        <time>2024-09-01T07:21:47Z</time>
      </trkpt>
      <trkpt lat="47.09597" lon="6.06213">
        <ele>379.8</ele>
        <time>2024-09-01T07:21:48Z</time>
      </trkpt>
      <trkpt lat="47.09592" lon="6.06209">
        <ele>379.8</ele>
        <time>2024-09-01T07:21:49Z</time>
      </trkpt>
      <trkpt lat="47.09588" lon="6.06206">
        <ele>379.6</ele>
        <time>2024-09-01T07:21:50Z</time>
      </trkpt>
      <trkpt lat="47.09584" lon="6.06202">
        <ele>379.6</ele>
        <time>2024-09-01T07:21:51Z</time>
      </trkpt>
      <trkpt lat="47.0958" lon="6.06199">
        <ele>379.6</ele>
        <time>2024-09-01T07:21:52Z</time>
      </trkpt>
      <trkpt lat="47.09576" lon="6.06196">
        <ele>379.4</ele>
        <time>2024-09-01T07:21:53Z</time>
      </trkpt>
      <trkpt lat="47.09572" lon="6.06192">
        <ele>379.2</ele>
        <time>2024-09-01T07:21:54Z</time>
      </trkpt>
      <trkpt lat="47.09568" lon="6.06189">
        <ele>379.2</ele>
        <time>2024-09-01T07:21:55Z</time>
      </trkpt>
      <trkpt lat="47.09563" lon="6.06185">
        <ele>379.2</ele>
        <time>2024-09-01T07:21:56Z</time>
      </trkpt>
      <trkpt lat="47.09559" lon="6.06182">
        <ele>379</ele>
        <time>2024-09-01T07:21:57Z</time>
      </trkpt>
      <trkpt lat="47.09555" lon="6.06179">
        <ele>378.6</ele>
        <time>2024-09-01T07:21:58Z</time>
      </trkpt>
      <trkpt lat="47.09551" lon="6.06176">
        <ele>378.6</ele>
        <time>2024-09-01T07:21:59Z</time>
      </trkpt>
      <trkpt lat="47.09546" lon="6.06172">
        <ele>378.2</ele>
        <time>2024-09-01T07:22:00Z</time>
      </trkpt>
      <trkpt lat="47.09542" lon="6.06169">
        <ele>378.2</ele>
        <time>2024-09-01T07:22:01Z</time>
      </trkpt>
      <trkpt lat="47.09538" lon="6.06166">
        <ele>377.8</ele>
        <time>2024-09-01T07:22:02Z</time>
      </trkpt>
      <trkpt lat="47.09534" lon="6.06162">
        <ele>377.6</ele>
        <time>2024-09-01T07:22:03Z</time>
      </trkpt>
      <trkpt lat="47.0953" lon="6.06159">
        <ele>377.8</ele>
        <time>2024-09-01T07:22:04Z</time>
      </trkpt>
      <trkpt lat="47.09526" lon="6.06156">
        <ele>377.6</ele>
        <time>2024-09-01T07:22:05Z</time>
      </trkpt>
      <trkpt lat="47.09521" lon="6.06153">
        <ele>377.2</ele>
        <time>2024-09-01T07:22:06Z</time>
      </trkpt>
      <trkpt lat="47.09517" lon="6.0615">
        <ele>377.2</ele>
        <time>2024-09-01T07:22:07Z</time>
      </trkpt>
      <trkpt lat="47.09513" lon="6.06148">
        <ele>377</ele>
        <time>2024-09-01T07:22:08Z</time>
      </trkpt>
      <trkpt lat="47.09509" lon="6.06145">
        <ele>376.8</ele>
        <time>2024-09-01T07:22:09Z</time>
      </trkpt>
      <trkpt lat="47.09504" lon="6.06142">
        <ele>376.6</ele>
        <time>2024-09-01T07:22:10Z</time>
      </trkpt>
      <trkpt lat="47.095" lon="6.06139">
        <ele>376.4</ele>
        <time>2024-09-01T07:22:11Z</time>
      </trkpt>
      <trkpt lat="47.09496" lon="6.06137">
        <ele>376.2</ele>
        <time>2024-09-01T07:22:12Z</time>
      </trkpt>
      <trkpt lat="47.09492" lon="6.06134">
        <ele>376.2</ele>
        <time>2024-09-01T07:22:13Z</time>
      </trkpt>
      <trkpt lat="47.09488" lon="6.06132">
        <ele>376</ele>
        <time>2024-09-01T07:22:14Z</time>
      </trkpt>
      <trkpt lat="47.09484" lon="6.06129">
        <ele>375.8</ele>
        <time>2024-09-01T07:22:15Z</time>
      </trkpt>
      <trkpt lat="47.09479" lon="6.06127">
        <ele>375.6</ele>
        <time>2024-09-01T07:22:16Z</time>
      </trkpt>
      <trkpt lat="47.09475" lon="6.06124">
        <ele>375.8</ele>
        <time>2024-09-01T07:22:17Z</time>
      </trkpt>
      <trkpt lat="47.09471" lon="6.06121">
        <ele>375.6</ele>
        <time>2024-09-01T07:22:18Z</time>
      </trkpt>
      <trkpt lat="47.09467" lon="6.06118">
        <ele>375.6</ele>
        <time>2024-09-01T07:22:19Z</time>
      </trkpt>
      <trkpt lat="47.09463" lon="6.06116">
        <ele>375.4</ele>
        <time>2024-09-01T07:22:20Z</time>
      </trkpt>
      <trkpt lat="47.09459" lon="6.06113">
        <ele>375.4</ele>
        <time>2024-09-01T07:22:21Z</time>
      </trkpt>
      <trkpt lat="47.09454" lon="6.06111">
        <ele>375.2</ele>
        <time>2024-09-01T07:22:22Z</time>
      </trkpt>
      <trkpt lat="47.0945" lon="6.06108">
        <ele>375</ele>
        <time>2024-09-01T07:22:23Z</time>
      </trkpt>
      <trkpt lat="47.09446" lon="6.06106">
        <ele>375</ele>
        <time>2024-09-01T07:22:24Z</time>
      </trkpt>
      <trkpt lat="47.09442" lon="6.06103">
        <ele>374.8</ele>
        <time>2024-09-01T07:22:25Z</time>
      </trkpt>
      <trkpt lat="47.09438" lon="6.06101">
        <ele>374.8</ele>
        <time>2024-09-01T07:22:26Z</time>
      </trkpt>
      <trkpt lat="47.09434" lon="6.06099">
        <ele>374.4</ele>
        <time>2024-09-01T07:22:27Z</time>
      </trkpt>
      <trkpt lat="47.0943" lon="6.06096">
        <ele>374.2</ele>
        <time>2024-09-01T07:22:28Z</time>
      </trkpt>
      <trkpt lat="47.09426" lon="6.06094">
        <ele>374.2</ele>
        <time>2024-09-01T07:22:29Z</time>
      </trkpt>
      <trkpt lat="47.09423" lon="6.06092">
        <ele>374.2</ele>
        <time>2024-09-01T07:22:30Z</time>
      </trkpt>
      <trkpt lat="47.09419" lon="6.0609">
        <ele>374</ele>
        <time>2024-09-01T07:22:31Z</time>
      </trkpt>
      <trkpt lat="47.09415" lon="6.06088">
        <ele>373.8</ele>
        <time>2024-09-01T07:22:32Z</time>
      </trkpt>
      <trkpt lat="47.09411" lon="6.06086">
        <ele>373.6</ele>
        <time>2024-09-01T07:22:33Z</time>
      </trkpt>
      <trkpt lat="47.09407" lon="6.06085">
        <ele>373.2</ele>
        <time>2024-09-01T07:22:34Z</time>
      </trkpt>
      <trkpt lat="47.09403" lon="6.06083">
        <ele>373</ele>
        <time>2024-09-01T07:22:35Z</time>
      </trkpt>
      <trkpt lat="47.094" lon="6.06082">
        <ele>372.6</ele>
        <time>2024-09-01T07:22:36Z</time>
      </trkpt>
      <trkpt lat="47.09396" lon="6.0608">
        <ele>372.4</ele>
        <time>2024-09-01T07:22:37Z</time>
      </trkpt>
      <trkpt lat="47.09393" lon="6.06078">
        <ele>372.2</ele>
        <time>2024-09-01T07:22:38Z</time>
      </trkpt>
      <trkpt lat="47.09389" lon="6.06076">
        <ele>372.2</ele>
        <time>2024-09-01T07:22:39Z</time>
      </trkpt>
      <trkpt lat="47.09385" lon="6.06073">
        <ele>372</ele>
        <time>2024-09-01T07:22:40Z</time>
      </trkpt>
      <trkpt lat="47.09382" lon="6.06071">
        <ele>372</ele>
        <time>2024-09-01T07:22:41Z</time>
      </trkpt>
      <trkpt lat="47.09378" lon="6.06069">
        <ele>371.8</ele>
        <time>2024-09-01T07:22:42Z</time>
      </trkpt>
      <trkpt lat="47.09374" lon="6.06067">
        <ele>371.6</ele>
        <time>2024-09-01T07:22:43Z</time>
      </trkpt>
      <trkpt lat="47.0937" lon="6.06064">
        <ele>371.8</ele>
        <time>2024-09-01T07:22:44Z</time>
      </trkpt>
      <trkpt lat="47.09366" lon="6.06061">
        <ele>371.6</ele>
        <time>2024-09-01T07:22:45Z</time>
      </trkpt>
      <trkpt lat="47.09362" lon="6.06059">
        <ele>371.6</ele>
        <time>2024-09-01T07:22:46Z</time>
      </trkpt>
      <trkpt lat="47.09358" lon="6.06055">
        <ele>371.2</ele>
        <time>2024-09-01T07:22:47Z</time>
      </trkpt>
      <trkpt lat="47.09354" lon="6.06052">
        <ele>371.4</ele>
        <time>2024-09-01T07:22:48Z</time>
      </trkpt>
      <trkpt lat="47.0935" lon="6.06048">
        <ele>371.2</ele>
        <time>2024-09-01T07:22:49Z</time>
      </trkpt>
      <trkpt lat="47.09345" lon="6.06045">
        <ele>371</ele>
        <time>2024-09-01T07:22:50Z</time>
      </trkpt>
      <trkpt lat="47.09341" lon="6.06042">
        <ele>370.6</ele>
        <time>2024-09-01T07:22:51Z</time>
      </trkpt>
      <trkpt lat="47.09336" lon="6.06039">
        <ele>370.4</ele>
        <time>2024-09-01T07:22:52Z</time>
      </trkpt>
      <trkpt lat="47.09332" lon="6.06037">
        <ele>370</ele>
        <time>2024-09-01T07:22:53Z</time>
      </trkpt>
      <trkpt lat="47.09327" lon="6.06035">
        <ele>369.6</ele>
        <time>2024-09-01T07:22:54Z</time>
      </trkpt>
      <trkpt lat="47.09323" lon="6.06034">
        <ele>369.2</ele>
        <time>2024-09-01T07:22:55Z</time>
      </trkpt>
      <trkpt lat="47.09319" lon="6.06032">
        <ele>369</ele>
        <time>2024-09-01T07:22:56Z</time>
      </trkpt>
      <trkpt lat="47.09316" lon="6.0603">
        <ele>368.2</ele>
        <time>2024-09-01T07:22:57Z</time>
      </trkpt>
      <trkpt lat="47.09312" lon="6.06028">
        <ele>367.8</ele>
        <time>2024-09-01T07:22:58Z</time>
      </trkpt>
      <trkpt lat="47.0931" lon="6.06026">
        <ele>367.6</ele>
        <time>2024-09-01T07:22:59Z</time>
      </trkpt>
      <trkpt lat="47.09307" lon="6.06024">
        <ele>367.2</ele>
        <time>2024-09-01T07:23:00Z</time>
      </trkpt>
      <trkpt lat="47.09303" lon="6.06021">
        <ele>367</ele>
        <time>2024-09-01T07:23:01Z</time>
      </trkpt>
      <trkpt lat="47.093" lon="6.06019">
        <ele>366.4</ele>
        <time>2024-09-01T07:23:02Z</time>
      </trkpt>
      <trkpt lat="47.09297" lon="6.06016">
        <ele>366.2</ele>
        <time>2024-09-01T07:23:03Z</time>
      </trkpt>
      <trkpt lat="47.09294" lon="6.06013">
        <ele>366</ele>
        <time>2024-09-01T07:23:04Z</time>
      </trkpt>
      <trkpt lat="47.09291" lon="6.06009">
        <ele>365.8</ele>
        <time>2024-09-01T07:23:05Z</time>
      </trkpt>
      <trkpt lat="47.0929" lon="6.06005">
        <ele>365.6</ele>
        <time>2024-09-01T07:23:06Z</time>
      </trkpt>
      <trkpt lat="47.09288" lon="6.06">
        <ele>365.6</ele>
        <time>2024-09-01T07:23:07Z</time>
      </trkpt>
      <trkpt lat="47.09287" lon="6.05995">
        <ele>365.4</ele>
        <time>2024-09-01T07:23:08Z</time>
      </trkpt>
      <trkpt lat="47.09285" lon="6.05989">
        <ele>365</ele>
        <time>2024-09-01T07:23:09Z</time>
      </trkpt>
      <trkpt lat="47.09281" lon="6.05984">
        <ele>365</ele>
        <time>2024-09-01T07:23:10Z</time>
      </trkpt>
      <trkpt lat="47.09276" lon="6.05981">
        <ele>364.4</ele>
        <time>2024-09-01T07:23:11Z</time>
      </trkpt>
      <trkpt lat="47.09269" lon="6.05979">
        <ele>364.2</ele>
        <time>2024-09-01T07:23:12Z</time>
      </trkpt>
      <trkpt lat="47.09263" lon="6.05977">
        <ele>364</ele>
        <time>2024-09-01T07:23:13Z</time>
      </trkpt>
      <trkpt lat="47.09258" lon="6.05976">
        <ele>363.6</ele>
        <time>2024-09-01T07:23:14Z</time>
      </trkpt>
      <trkpt lat="47.09252" lon="6.05975">
        <ele>363</ele>
        <time>2024-09-01T07:23:15Z</time>
      </trkpt>
      <trkpt lat="47.09247" lon="6.05974">
        <ele>362.2</ele>
        <time>2024-09-01T07:23:16Z</time>
      </trkpt>
      <trkpt lat="47.09241" lon="6.05973">
        <ele>361.4</ele>
        <time>2024-09-01T07:23:17Z</time>
      </trkpt>
      <trkpt lat="47.09236" lon="6.05971">
        <ele>360.8</ele>
        <time>2024-09-01T07:23:18Z</time>
      </trkpt>
      <trkpt lat="47.09231" lon="6.0597">
        <ele>360.2</ele>
        <time>2024-09-01T07:23:19Z</time>
      </trkpt>
      <trkpt lat="47.09226" lon="6.05968">
        <ele>359.6</ele>
        <time>2024-09-01T07:23:20Z</time>
      </trkpt>
      <trkpt lat="47.09221" lon="6.05966">
        <ele>359.2</ele>
        <time>2024-09-01T07:23:21Z</time>
      </trkpt>
      <trkpt lat="47.09216" lon="6.05964">
        <ele>359</ele>
        <time>2024-09-01T07:23:22Z</time>
      </trkpt>
      <trkpt lat="47.09211" lon="6.05962">
        <ele>358.8</ele>
        <time>2024-09-01T07:23:23Z</time>
      </trkpt>
      <trkpt lat="47.09206" lon="6.0596">
        <ele>358.4</ele>
        <time>2024-09-01T07:23:24Z</time>
      </trkpt>
      <trkpt lat="47.09202" lon="6.05958">
        <ele>358</ele>
        <time>2024-09-01T07:23:25Z</time>
      </trkpt>
      <trkpt lat="47.09197" lon="6.05957">
        <ele>357.8</ele>
        <time>2024-09-01T07:23:26Z</time>
      </trkpt>
      <trkpt lat="47.09193" lon="6.05954">
        <ele>357.6</ele>
        <time>2024-09-01T07:23:27Z</time>
      </trkpt>
      <trkpt lat="47.09188" lon="6.05952">
        <ele>357.4</ele>
        <time>2024-09-01T07:23:28Z</time>
      </trkpt>
      <trkpt lat="47.09184" lon="6.0595">
        <ele>357</ele>
        <time>2024-09-01T07:23:29Z</time>
      </trkpt>
      <trkpt lat="47.0918" lon="6.05948">
        <ele>356.6</ele>
        <time>2024-09-01T07:23:30Z</time>
      </trkpt>
      <trkpt lat="47.09176" lon="6.05946">
        <ele>356</ele>
        <time>2024-09-01T07:23:31Z</time>
      </trkpt>
      <trkpt lat="47.09172" lon="6.05944">
        <ele>355.6</ele>
        <time>2024-09-01T07:23:32Z</time>
      </trkpt>
      <trkpt lat="47.09167" lon="6.05941">
        <ele>355.4</ele>
        <time>2024-09-01T07:23:33Z</time>
      </trkpt>
      <trkpt lat="47.09163" lon="6.05939">
        <ele>354.8</ele>
        <time>2024-09-01T07:23:34Z</time>
      </trkpt>
      <trkpt lat="47.09159" lon="6.05937">
        <ele>354.8</ele>
        <time>2024-09-01T07:23:35Z</time>
      </trkpt>
      <trkpt lat="47.09154" lon="6.05935">
        <ele>354.2</ele>
        <time>2024-09-01T07:23:36Z</time>
      </trkpt>
      <trkpt lat="47.09151" lon="6.05933">
        <ele>353.8</ele>
        <time>2024-09-01T07:23:37Z</time>
      </trkpt>
      <trkpt lat="47.09147" lon="6.05931">
        <ele>353.4</ele>
        <time>2024-09-01T07:23:38Z</time>
      </trkpt>
      <trkpt lat="47.09143" lon="6.05928">
        <ele>353.2</ele>
        <time>2024-09-01T07:23:39Z</time>
      </trkpt>
      <trkpt lat="47.0914" lon="6.05925">
        <ele>352.8</ele>
        <time>2024-09-01T07:23:40Z</time>
      </trkpt>
      <trkpt lat="47.09136" lon="6.05921">
        <ele>352.2</ele>
        <time>2024-09-01T07:23:41Z</time>
      </trkpt>
      <trkpt lat="47.09132" lon="6.05917">
        <ele>351.8</ele>
        <time>2024-09-01T07:23:42Z</time>
      </trkpt>
      <trkpt lat="47.09128" lon="6.05913">
        <ele>351.6</ele>
        <time>2024-09-01T07:23:43Z</time>
      </trkpt>
      <trkpt lat="47.09123" lon="6.05908">
        <ele>351.2</ele>
        <time>2024-09-01T07:23:44Z</time>
      </trkpt>
      <trkpt lat="47.09118" lon="6.05903">
        <ele>350.8</ele>
        <time>2024-09-01T07:23:45Z</time>
      </trkpt>
      <trkpt lat="47.09112" lon="6.059">
        <ele>350.4</ele>
        <time>2024-09-01T07:23:46Z</time>
      </trkpt>
      <trkpt lat="47.09106" lon="6.05896">
        <ele>350</ele>
        <time>2024-09-01T07:23:47Z</time>
      </trkpt>
      <trkpt lat="47.09101" lon="6.0589">
        <ele>349.4</ele>
        <time>2024-09-01T07:23:48Z</time>
      </trkpt>
      <trkpt lat="47.09096" lon="6.05884">
        <ele>348.6</ele>
        <time>2024-09-01T07:23:49Z</time>
      </trkpt>
      <trkpt lat="47.09091" lon="6.05877">
        <ele>347.8</ele>
        <time>2024-09-01T07:23:50Z</time>
      </trkpt>
      <trkpt lat="47.09085" lon="6.0587">
        <ele>346.8</ele>
        <time>2024-09-01T07:23:51Z</time>
      </trkpt>
      <trkpt lat="47.09079" lon="6.05863">
        <ele>346.2</ele>
        <time>2024-09-01T07:23:52Z</time>
      </trkpt>
      <trkpt lat="47.09072" lon="6.05856">
        <ele>345.4</ele>
        <time>2024-09-01T07:23:53Z</time>
      </trkpt>
      <trkpt lat="47.09067" lon="6.05849">
        <ele>344.8</ele>
        <time>2024-09-01T07:23:54Z</time>
      </trkpt>
      <trkpt lat="47.09062" lon="6.05842">
        <ele>344.2</ele>
        <time>2024-09-01T07:23:55Z</time>
      </trkpt>
      <trkpt lat="47.09058" lon="6.05837">
        <ele>343.8</ele>
        <time>2024-09-01T07:23:56Z</time>
      </trkpt>
      <trkpt lat="47.09054" lon="6.05833">
        <ele>343.2</ele>
        <time>2024-09-01T07:23:57Z</time>
      </trkpt>
      <trkpt lat="47.09051" lon="6.05832">
        <ele>342.8</ele>
        <time>2024-09-01T07:23:58Z</time>
      </trkpt>
      <trkpt lat="47.09047" lon="6.05833">
        <ele>342.4</ele>
        <time>2024-09-01T07:23:59Z</time>
      </trkpt>
      <trkpt lat="47.09044" lon="6.05835">
        <ele>341.8</ele>
        <time>2024-09-01T07:24:00Z</time>
      </trkpt>
      <trkpt lat="47.09041" lon="6.05837">
        <ele>341.4</ele>
        <time>2024-09-01T07:24:01Z</time>
      </trkpt>
      <trkpt lat="47.09036" lon="6.05837">
        <ele>341</ele>
        <time>2024-09-01T07:24:02Z</time>
      </trkpt>
      <trkpt lat="47.09031" lon="6.05837">
        <ele>340.4</ele>
        <time>2024-09-01T07:24:03Z</time>
      </trkpt>
      <trkpt lat="47.09024" lon="6.05837">
        <ele>340</ele>
        <time>2024-09-01T07:24:04Z</time>
      </trkpt>
      <trkpt lat="47.09019" lon="6.05838">
        <ele>339.6</ele>
        <time>2024-09-01T07:24:05Z</time>
      </trkpt>
      <trkpt lat="47.09013" lon="6.05838">
        <ele>339.2</ele>
        <time>2024-09-01T07:24:06Z</time>
      </trkpt>
      <trkpt lat="47.09009" lon="6.05839">
        <ele>338.6</ele>
        <time>2024-09-01T07:24:07Z</time>
      </trkpt>
      <trkpt lat="47.09005" lon="6.05839">
        <ele>338.2</ele>
        <time>2024-09-01T07:24:08Z</time>
      </trkpt>
      <trkpt lat="47.09002" lon="6.05839">
        <ele>338.2</ele>
        <time>2024-09-01T07:24:09Z</time>
      </trkpt>
      <trkpt lat="47.08999" lon="6.0584">
        <ele>338</ele>
        <time>2024-09-01T07:24:10Z</time>
      </trkpt>
      <trkpt lat="47.08996" lon="6.05841">
        <ele>338</ele>
        <time>2024-09-01T07:24:11Z</time>
      </trkpt>
      <trkpt lat="47.08995" lon="6.05842">
        <ele>337.6</ele>
        <time>2024-09-01T07:24:12Z</time>
      </trkpt>
      <trkpt lat="47.08993" lon="6.05843">
        <ele>337.6</ele>
        <time>2024-09-01T07:24:13Z</time>
      </trkpt>
      <trkpt lat="47.08991" lon="6.05844">
        <ele>337.4</ele>
        <time>2024-09-01T07:24:14Z</time>
      </trkpt>
      <trkpt lat="47.08988" lon="6.05844">
        <ele>337.2</ele>
        <time>2024-09-01T07:24:15Z</time>
      </trkpt>
      <trkpt lat="47.08986" lon="6.05844">
        <ele>337.2</ele>
        <time>2024-09-01T07:24:16Z</time>
      </trkpt>
      <trkpt lat="47.08984" lon="6.05844">
        <ele>337.2</ele>
        <time>2024-09-01T07:24:17Z</time>
      </trkpt>
      <trkpt lat="47.08982" lon="6.05845">
        <ele>336.8</ele>
        <time>2024-09-01T07:24:18Z</time>
      </trkpt>
      <trkpt lat="47.08979" lon="6.05846">
        <ele>336.8</ele>
        <time>2024-09-01T07:24:19Z</time>
      </trkpt>
      <trkpt lat="47.08977" lon="6.05847">
        <ele>336.8</ele>
        <time>2024-09-01T07:24:20Z</time>
      </trkpt>
      <trkpt lat="47.08974" lon="6.05848">
        <ele>336.6</ele>
        <time>2024-09-01T07:24:21Z</time>
      </trkpt>
      <trkpt lat="47.0897" lon="6.0585">
        <ele>336.6</ele>
        <time>2024-09-01T07:24:22Z</time>
      </trkpt>
      <trkpt lat="47.08967" lon="6.05851">
        <ele>336.6</ele>
        <time>2024-09-01T07:24:23Z</time>
      </trkpt>
      <trkpt lat="47.08964" lon="6.05853">
        <ele>336.2</ele>
        <time>2024-09-01T07:24:24Z</time>
      </trkpt>
      <trkpt lat="47.08961" lon="6.05854">
        <ele>336.2</ele>
        <time>2024-09-01T07:24:25Z</time>
      </trkpt>
      <trkpt lat="47.08958" lon="6.05855">
        <ele>336.2</ele>
        <time>2024-09-01T07:24:26Z</time>
      </trkpt>
      <trkpt lat="47.08954" lon="6.05856">
        <ele>336.2</ele>
        <time>2024-09-01T07:24:27Z</time>
      </trkpt>
      <trkpt lat="47.08951" lon="6.05858">
        <ele>336</ele>
        <time>2024-09-01T07:24:28Z</time>
      </trkpt>
      <trkpt lat="47.08947" lon="6.0586">
        <ele>336</ele>
        <time>2024-09-01T07:24:29Z</time>
      </trkpt>
      <trkpt lat="47.08944" lon="6.05861">
        <ele>335.8</ele>
        <time>2024-09-01T07:24:30Z</time>
      </trkpt>
      <trkpt lat="47.0894" lon="6.05863">
        <ele>335.6</ele>
        <time>2024-09-01T07:24:31Z</time>
      </trkpt>
      <trkpt lat="47.08937" lon="6.05865">
        <ele>335.6</ele>
        <time>2024-09-01T07:24:32Z</time>
      </trkpt>
      <trkpt lat="47.08934" lon="6.05868">
        <ele>335.4</ele>
        <time>2024-09-01T07:24:33Z</time>
      </trkpt>
      <trkpt lat="47.0893" lon="6.0587">
        <ele>335.4</ele>
        <time>2024-09-01T07:24:34Z</time>
      </trkpt>
      <trkpt lat="47.08926" lon="6.05872">
        <ele>335.2</ele>
        <time>2024-09-01T07:24:35Z</time>
      </trkpt>
      <trkpt lat="47.08923" lon="6.05874">
        <ele>335</ele>
        <time>2024-09-01T07:24:36Z</time>
      </trkpt>
      <trkpt lat="47.08919" lon="6.05877">
        <ele>334.8</ele>
        <time>2024-09-01T07:24:37Z</time>
      </trkpt>
      <trkpt lat="47.08915" lon="6.05879">
        <ele>334.8</ele>
        <time>2024-09-01T07:24:38Z</time>
      </trkpt>
      <trkpt lat="47.08911" lon="6.05882">
        <ele>334.6</ele>
        <time>2024-09-01T07:24:39Z</time>
      </trkpt>
      <trkpt lat="47.08907" lon="6.05885">
        <ele>334.6</ele>
        <time>2024-09-01T07:24:40Z</time>
      </trkpt>
      <trkpt lat="47.08904" lon="6.05888">
        <ele>334.4</ele>
        <time>2024-09-01T07:24:41Z</time>
      </trkpt>
      <trkpt lat="47.089" lon="6.05891">
        <ele>334.2</ele>
        <time>2024-09-01T07:24:42Z</time>
      </trkpt>
      <trkpt lat="47.08897" lon="6.05893">
        <ele>334.2</ele>
        <time>2024-09-01T07:24:43Z</time>
      </trkpt>
      <trkpt lat="47.08894" lon="6.05896">
        <ele>334</ele>
        <time>2024-09-01T07:24:44Z</time>
      </trkpt>
      <trkpt lat="47.08892" lon="6.05898">
        <ele>333.8</ele>
        <time>2024-09-01T07:24:45Z</time>
      </trkpt>
      <trkpt lat="47.08889" lon="6.05898">
        <ele>333.4</ele>
        <time>2024-09-01T07:24:46Z</time>
      </trkpt>
      <trkpt lat="47.08886" lon="6.059">
        <ele>333.4</ele>
        <time>2024-09-01T07:24:47Z</time>
      </trkpt>
      <trkpt lat="47.08884" lon="6.05901">
        <ele>333.4</ele>
        <time>2024-09-01T07:24:48Z</time>
      </trkpt>
      <trkpt lat="47.08882" lon="6.05902">
        <ele>333.2</ele>
        <time>2024-09-01T07:24:49Z</time>
      </trkpt>
      <trkpt lat="47.0888" lon="6.05902">
        <ele>333.2</ele>
        <time>2024-09-01T07:24:50Z</time>
      </trkpt>
      <trkpt lat="47.08879" lon="6.05902">
        <ele>333</ele>
        <time>2024-09-01T07:24:51Z</time>
      </trkpt>
      <trkpt lat="47.08877" lon="6.05902">
        <ele>333</ele>
        <time>2024-09-01T07:24:52Z</time>
      </trkpt>
      <trkpt lat="47.08876" lon="6.05903">
        <ele>332.6</ele>
        <time>2024-09-01T07:24:53Z</time>
      </trkpt>
      <trkpt lat="47.08875" lon="6.05903">
        <ele>332.6</ele>
        <time>2024-09-01T07:24:54Z</time>
      </trkpt>
      <trkpt lat="47.08875" lon="6.05902">
        <ele>332.4</ele>
        <time>2024-09-01T07:24:55Z</time>
      </trkpt>
      <trkpt lat="47.08875" lon="6.05902">
        <ele>332.4</ele>
        <time>2024-09-01T07:24:56Z</time>
      </trkpt>
      <trkpt lat="47.08875" lon="6.05902">
        <ele>332.4</ele>
        <time>2024-09-01T07:24:57Z</time>
      </trkpt>
      <trkpt lat="47.08875" lon="6.05902">
        <ele>332.4</ele>
        <time>2024-09-01T07:24:58Z</time>
      </trkpt>
      <trkpt lat="47.08875" lon="6.05901">
        <ele>332.2</ele>
        <time>2024-09-01T07:24:59Z</time>
      </trkpt>
      <trkpt lat="47.08875" lon="6.05901">
        <ele>332.2</ele>
        <time>2024-09-01T07:25:00Z</time>
      </trkpt>
      <trkpt lat="47.08875" lon="6.05901">
        <ele>332</ele>
        <time>2024-09-01T07:25:01Z</time>
      </trkpt>
      <trkpt lat="47.08874" lon="6.05902">
        <ele>332</ele>
        <time>2024-09-01T07:25:02Z</time>
      </trkpt>
      <trkpt lat="47.08874" lon="6.05902">
        <ele>332</ele>
        <time>2024-09-01T07:25:03Z</time>
      </trkpt>
      <trkpt lat="47.08874" lon="6.05902">
        <ele>332</ele>
        <time>2024-09-01T07:25:04Z</time>
      </trkpt>
      <trkpt lat="47.08874" lon="6.05902">
        <ele>332</ele>
        <time>2024-09-01T07:25:05Z</time>
      </trkpt>
      <trkpt lat="47.08874" lon="6.05902">
        <ele>332</ele>
        <time>2024-09-01T07:25:06Z</time>
      </trkpt>
      <trkpt lat="47.08874" lon="6.05902">
        <ele>332</ele>
        <time>2024-09-01T07:25:07Z</time>
      </trkpt>
      <trkpt lat="47.08874" lon="6.05902">
        <ele>332</ele>
        <time>2024-09-01T07:25:08Z</time>
      </trkpt>
      <trkpt lat="47.08875" lon="6.05902">
        <ele>332</ele>
        <time>2024-09-01T07:25:09Z</time>
      </trkpt>
      <trkpt lat="47.08874" lon="6.05902">
        <ele>332</ele>
        <time>2024-09-01T07:25:10Z</time>
      </trkpt>
      <trkpt lat="47.08874" lon="6.05902">
        <ele>332</ele>
        <time>2024-09-01T07:25:11Z</time>
      </trkpt>
      <trkpt lat="47.08874" lon="6.05902">
        <ele>332</ele>
        <time>2024-09-01T07:25:12Z</time>
      </trkpt>
      <trkpt lat="47.08874" lon="6.05902">
        <ele>332</ele>
        <time>2024-09-01T07:25:13Z</time>
      </trkpt>
      <trkpt lat="47.08874" lon="6.05902">
        <ele>332</ele>
        <time>2024-09-01T07:25:14Z</time>
      </trkpt>
      <trkpt lat="47.08874" lon="6.05903">
        <ele>332</ele>
        <time>2024-09-01T07:25:15Z</time>
      </trkpt>
      <trkpt lat="47.08873" lon="6.05903">
        <ele>332</ele>
        <time>2024-09-01T07:25:16Z</time>
      </trkpt>
      <trkpt lat="47.08872" lon="6.05904">
        <ele>332</ele>
        <time>2024-09-01T07:25:17Z</time>
      </trkpt>
      <trkpt lat="47.0887" lon="6.05905">
        <ele>332</ele>
        <time>2024-09-01T07:25:18Z</time>
      </trkpt>
      <trkpt lat="47.08868" lon="6.05906">
        <ele>332</ele>
        <time>2024-09-01T07:25:19Z</time>
      </trkpt>
      <trkpt lat="47.08866" lon="6.05908">
        <ele>332</ele>
        <time>2024-09-01T07:25:20Z</time>
      </trkpt>
      <trkpt lat="47.08864" lon="6.05909">
        <ele>332</ele>
        <time>2024-09-01T07:25:21Z</time>
      </trkpt>
      <trkpt lat="47.08862" lon="6.05911">
        <ele>332.2</ele>
        <time>2024-09-01T07:25:22Z</time>
      </trkpt>
      <trkpt lat="47.08859" lon="6.05913">
        <ele>332</ele>
        <time>2024-09-01T07:25:23Z</time>
      </trkpt>
      <trkpt lat="47.08857" lon="6.05915">
        <ele>332</ele>
        <time>2024-09-01T07:25:24Z</time>
      </trkpt>
      <trkpt lat="47.08854" lon="6.05917">
        <ele>332</ele>
        <time>2024-09-01T07:25:25Z</time>
      </trkpt>
      <trkpt lat="47.08851" lon="6.0592">
        <ele>332</ele>
        <time>2024-09-01T07:25:26Z</time>
      </trkpt>
      <trkpt lat="47.08848" lon="6.05922">
        <ele>332</ele>
        <time>2024-09-01T07:25:27Z</time>
      </trkpt>
      <trkpt lat="47.08845" lon="6.05924">
        <ele>331.8</ele>
        <time>2024-09-01T07:25:28Z</time>
      </trkpt>
      <trkpt lat="47.08842" lon="6.05926">
        <ele>331.8</ele>
        <time>2024-09-01T07:25:29Z</time>
      </trkpt>
      <trkpt lat="47.08839" lon="6.05928">
        <ele>331.6</ele>
        <time>2024-09-01T07:25:30Z</time>
      </trkpt>
      <trkpt lat="47.08836" lon="6.05931">
        <ele>331.4</ele>
        <time>2024-09-01T07:25:31Z</time>
      </trkpt>
      <trkpt lat="47.08832" lon="6.05933">
        <ele>331.6</ele>
        <time>2024-09-01T07:25:32Z</time>
      </trkpt>
      <trkpt lat="47.08829" lon="6.05936">
        <ele>331.4</ele>
        <time>2024-09-01T07:25:33Z</time>
      </trkpt>
      <trkpt lat="47.08825" lon="6.05939">
        <ele>331.4</ele>
        <time>2024-09-01T07:25:34Z</time>
      </trkpt>
      <trkpt lat="47.08821" lon="6.05942">
        <ele>331.2</ele>
        <time>2024-09-01T07:25:35Z</time>
      </trkpt>
      <trkpt lat="47.08818" lon="6.05944">
        <ele>331.2</ele>
        <time>2024-09-01T07:25:36Z</time>
      </trkpt>
      <trkpt lat="47.08814" lon="6.05945">
        <ele>331</ele>
        <time>2024-09-01T07:25:37Z</time>
      </trkpt>
      <trkpt lat="47.0881" lon="6.05947">
        <ele>330.8</ele>
        <time>2024-09-01T07:25:38Z</time>
      </trkpt>
      <trkpt lat="47.08806" lon="6.05948">
        <ele>330.8</ele>
        <time>2024-09-01T07:25:39Z</time>
      </trkpt>
      <trkpt lat="47.08801" lon="6.05949">
        <ele>330.8</ele>
        <time>2024-09-01T07:25:40Z</time>
      </trkpt>
      <trkpt lat="47.08797" lon="6.0595">
        <ele>330.4</ele>
        <time>2024-09-01T07:25:41Z</time>
      </trkpt>
      <trkpt lat="47.08793" lon="6.0595">
        <ele>330.2</ele>
        <time>2024-09-01T07:25:42Z</time>
      </trkpt>
      <trkpt lat="47.08789" lon="6.05951">
        <ele>329.8</ele>
        <time>2024-09-01T07:25:43Z</time>
      </trkpt>
      <trkpt lat="47.08785" lon="6.05951">
        <ele>329.6</ele>
        <time>2024-09-01T07:25:44Z</time>
      </trkpt>
      <trkpt lat="47.08781" lon="6.05951">
        <ele>329.4</ele>
        <time>2024-09-01T07:25:45Z</time>
      </trkpt>
      <trkpt lat="47.08778" lon="6.05952">
        <ele>329.4</ele>
        <time>2024-09-01T07:25:46Z</time>
      </trkpt>
      <trkpt lat="47.08774" lon="6.05952">
        <ele>329.2</ele>
        <time>2024-09-01T07:25:47Z</time>
      </trkpt>
      <trkpt lat="47.0877" lon="6.05952">
        <ele>329</ele>
        <time>2024-09-01T07:25:48Z</time>
      </trkpt>
      <trkpt lat="47.08765" lon="6.05953">
        <ele>329</ele>
        <time>2024-09-01T07:25:49Z</time>
      </trkpt>
      <trkpt lat="47.08761" lon="6.05953">
        <ele>329</ele>
        <time>2024-09-01T07:25:50Z</time>
      </trkpt>
      <trkpt lat="47.08756" lon="6.05952">
        <ele>329</ele>
        <time>2024-09-01T07:25:51Z</time>
      </trkpt>
      <trkpt lat="47.08752" lon="6.05952">
        <ele>328.6</ele>
        <time>2024-09-01T07:25:52Z</time>
      </trkpt>
      <trkpt lat="47.08748" lon="6.05952">
        <ele>328.8</ele>
        <time>2024-09-01T07:25:53Z</time>
      </trkpt>
      <trkpt lat="47.08744" lon="6.05951">
        <ele>328.6</ele>
        <time>2024-09-01T07:25:54Z</time>
      </trkpt>
      <trkpt lat="47.08741" lon="6.05949">
        <ele>328.6</ele>
        <time>2024-09-01T07:25:55Z</time>
      </trkpt>
      <trkpt lat="47.08738" lon="6.05948">
        <ele>328.6</ele>
        <time>2024-09-01T07:25:56Z</time>
      </trkpt>
      <trkpt lat="47.08734" lon="6.05946">
        <ele>328.6</ele>
        <time>2024-09-01T07:25:57Z</time>
      </trkpt>
      <trkpt lat="47.0873" lon="6.05944">
        <ele>328.6</ele>
        <time>2024-09-01T07:25:58Z</time>
      </trkpt>
      <trkpt lat="47.08726" lon="6.05943">
        <ele>328.4</ele>
        <time>2024-09-01T07:25:59Z</time>
      </trkpt>
      <trkpt lat="47.08722" lon="6.05942">
        <ele>328.6</ele>
        <time>2024-09-01T07:26:00Z</time>
      </trkpt>
      <trkpt lat="47.08719" lon="6.05941">
        <ele>328.4</ele>
        <time>2024-09-01T07:26:01Z</time>
      </trkpt>
      <trkpt lat="47.08715" lon="6.0594">
        <ele>328.6</ele>
        <time>2024-09-01T07:26:02Z</time>
      </trkpt>
      <trkpt lat="47.08711" lon="6.05939">
        <ele>328.4</ele>
        <time>2024-09-01T07:26:03Z</time>
      </trkpt>
      <trkpt lat="47.08708" lon="6.05938">
        <ele>328.6</ele>
        <time>2024-09-01T07:26:04Z</time>
      </trkpt>
      <trkpt lat="47.08705" lon="6.05936">
        <ele>328.6</ele>
        <time>2024-09-01T07:26:05Z</time>
      </trkpt>
      <trkpt lat="47.08702" lon="6.05934">
        <ele>328.6</ele>
        <time>2024-09-01T07:26:06Z</time>
      </trkpt>
      <trkpt lat="47.08699" lon="6.05932">
        <ele>328.8</ele>
        <time>2024-09-01T07:26:07Z</time>
      </trkpt>
      <trkpt lat="47.08696" lon="6.0593">
        <ele>328.8</ele>
        <time>2024-09-01T07:26:08Z</time>
      </trkpt>
      <trkpt lat="47.08692" lon="6.05928">
        <ele>328.8</ele>
        <time>2024-09-01T07:26:09Z</time>
      </trkpt>
      <trkpt lat="47.08689" lon="6.05925">
        <ele>329.2</ele>
        <time>2024-09-01T07:26:10Z</time>
      </trkpt>
      <trkpt lat="47.08686" lon="6.05923">
        <ele>329.2</ele>
        <time>2024-09-01T07:26:11Z</time>
      </trkpt>
      <trkpt lat="47.08682" lon="6.0592">
        <ele>329.2</ele>
        <time>2024-09-01T07:26:12Z</time>
      </trkpt>
      <trkpt lat="47.08679" lon="6.05917">
        <ele>329.4</ele>
        <time>2024-09-01T07:26:13Z</time>
      </trkpt>
      <trkpt lat="47.08676" lon="6.05915">
        <ele>329.4</ele>
        <time>2024-09-01T07:26:14Z</time>
      </trkpt>
      <trkpt lat="47.08673" lon="6.05912">
        <ele>329.6</ele>
        <time>2024-09-01T07:26:15Z</time>
      </trkpt>
      <trkpt lat="47.0867" lon="6.05909">
        <ele>329.4</ele>
        <time>2024-09-01T07:26:16Z</time>
      </trkpt>
      <trkpt lat="47.08666" lon="6.05905">
        <ele>329.6</ele>
        <time>2024-09-01T07:26:17Z</time>
      </trkpt>
      <trkpt lat="47.08663" lon="6.05902">
        <ele>329.6</ele>
        <time>2024-09-01T07:26:18Z</time>
      </trkpt>
      <trkpt lat="47.08661" lon="6.05899">
        <ele>329.6</ele>
        <time>2024-09-01T07:26:19Z</time>
      </trkpt>
      <trkpt lat="47.08658" lon="6.05896">
        <ele>329.6</ele>
        <time>2024-09-01T07:26:20Z</time>
      </trkpt>
      <trkpt lat="47.08655" lon="6.05893">
        <ele>329.8</ele>
        <time>2024-09-01T07:26:21Z</time>
      </trkpt>
      <trkpt lat="47.08653" lon="6.05892">
        <ele>330</ele>
        <time>2024-09-01T07:26:22Z</time>
      </trkpt>
      <trkpt lat="47.08651" lon="6.0589">
        <ele>330</ele>
        <time>2024-09-01T07:26:23Z</time>
      </trkpt>
      <trkpt lat="47.08649" lon="6.05888">
        <ele>330.2</ele>
        <time>2024-09-01T07:26:24Z</time>
      </trkpt>
      <trkpt lat="47.08647" lon="6.05885">
        <ele>330.4</ele>
        <time>2024-09-01T07:26:25Z</time>
      </trkpt>
      <trkpt lat="47.08645" lon="6.05883">
        <ele>330.4</ele>
        <time>2024-09-01T07:26:26Z</time>
      </trkpt>
      <trkpt lat="47.08643" lon="6.05881">
        <ele>330.6</ele>
        <time>2024-09-01T07:26:27Z</time>
      </trkpt>
      <trkpt lat="47.0864" lon="6.05879">
        <ele>330.8</ele>
        <time>2024-09-01T07:26:28Z</time>
      </trkpt>
      <trkpt lat="47.08638" lon="6.05877">
        <ele>331</ele>
        <time>2024-09-01T07:26:29Z</time>
      </trkpt>
      <trkpt lat="47.08636" lon="6.05875">
        <ele>331.2</ele>
        <time>2024-09-01T07:26:30Z</time>
      </trkpt>
      <trkpt lat="47.08634" lon="6.05873">
        <ele>331.6</ele>
        <time>2024-09-01T07:26:31Z</time>
      </trkpt>
      <trkpt lat="47.08632" lon="6.05871">
        <ele>332</ele>
        <time>2024-09-01T07:26:32Z</time>
      </trkpt>
      <trkpt lat="47.0863" lon="6.05869">
        <ele>332.4</ele>
        <time>2024-09-01T07:26:33Z</time>
      </trkpt>
      <trkpt lat="47.08628" lon="6.05868">
        <ele>332.6</ele>
        <time>2024-09-01T07:26:34Z</time>
      </trkpt>
      <trkpt lat="47.08626" lon="6.05867">
        <ele>333</ele>
        <time>2024-09-01T07:26:35Z</time>
      </trkpt>
      <trkpt lat="47.08625" lon="6.05868">
        <ele>333.8</ele>
        <time>2024-09-01T07:26:36Z</time>
      </trkpt>
      <trkpt lat="47.08624" lon="6.0587">
        <ele>334</ele>
        <time>2024-09-01T07:26:37Z</time>
      </trkpt>
      <trkpt lat="47.08622" lon="6.05872">
        <ele>334.2</ele>
        <time>2024-09-01T07:26:38Z</time>
      </trkpt>
      <trkpt lat="47.0862" lon="6.05874">
        <ele>334.6</ele>
        <time>2024-09-01T07:26:39Z</time>
      </trkpt>
      <trkpt lat="47.08618" lon="6.05876">
        <ele>335</ele>
        <time>2024-09-01T07:26:40Z</time>
      </trkpt>
      <trkpt lat="47.08616" lon="6.05877">
        <ele>335.4</ele>
        <time>2024-09-01T07:26:41Z</time>
      </trkpt>
      <trkpt lat="47.08614" lon="6.05877">
        <ele>335.8</ele>
        <time>2024-09-01T07:26:42Z</time>
      </trkpt>
      <trkpt lat="47.08612" lon="6.05876">
        <ele>336.4</ele>
        <time>2024-09-01T07:26:43Z</time>
      </trkpt>
      <trkpt lat="47.08611" lon="6.05874">
        <ele>336.8</ele>
        <time>2024-09-01T07:26:44Z</time>
      </trkpt>
      <trkpt lat="47.08609" lon="6.0587">
        <ele>337</ele>
        <time>2024-09-01T07:26:45Z</time>
      </trkpt>
      <trkpt lat="47.08607" lon="6.05867">
        <ele>337.2</ele>
        <time>2024-09-01T07:26:46Z</time>
      </trkpt>
      <trkpt lat="47.08605" lon="6.05863">
        <ele>337.2</ele>
        <time>2024-09-01T07:26:47Z</time>
      </trkpt>
      <trkpt lat="47.08604" lon="6.0586">
        <ele>337.4</ele>
        <time>2024-09-01T07:26:48Z</time>
      </trkpt>
      <trkpt lat="47.08602" lon="6.05858">
        <ele>337.4</ele>
        <time>2024-09-01T07:26:49Z</time>
      </trkpt>
      <trkpt lat="47.086" lon="6.05856">
        <ele>337.4</ele>
        <time>2024-09-01T07:26:50Z</time>
      </trkpt>
      <trkpt lat="47.08598" lon="6.05855">
        <ele>337.2</ele>
        <time>2024-09-01T07:26:51Z</time>
      </trkpt>
      <trkpt lat="47.08595" lon="6.05854">
        <ele>337.2</ele>
        <time>2024-09-01T07:26:52Z</time>
      </trkpt>
      <trkpt lat="47.08592" lon="6.05856">
        <ele>337.2</ele>
        <time>2024-09-01T07:26:53Z</time>
      </trkpt>
      <trkpt lat="47.08589" lon="6.05857">
        <ele>337.4</ele>
        <time>2024-09-01T07:26:54Z</time>
      </trkpt>
      <trkpt lat="47.08586" lon="6.05857">
        <ele>337.2</ele>
        <time>2024-09-01T07:26:55Z</time>
      </trkpt>
      <trkpt lat="47.08583" lon="6.05856">
        <ele>337.4</ele>
        <time>2024-09-01T07:26:56Z</time>
      </trkpt>
      <trkpt lat="47.0858" lon="6.05854">
        <ele>337.2</ele>
        <time>2024-09-01T07:26:57Z</time>
      </trkpt>
      <trkpt lat="47.08577" lon="6.05852">
        <ele>337.4</ele>
        <time>2024-09-01T07:26:58Z</time>
      </trkpt>
      <trkpt lat="47.08575" lon="6.05849">
        <ele>337.4</ele>
        <time>2024-09-01T07:26:59Z</time>
      </trkpt>
      <trkpt lat="47.08572" lon="6.05846">
        <ele>337.6</ele>
        <time>2024-09-01T07:27:00Z</time>
      </trkpt>
      <trkpt lat="47.08569" lon="6.05843">
        <ele>337.8</ele>
        <time>2024-09-01T07:27:01Z</time>
      </trkpt>
      <trkpt lat="47.08566" lon="6.05841">
        <ele>338</ele>
        <time>2024-09-01T07:27:02Z</time>
      </trkpt>
      <trkpt lat="47.08563" lon="6.05838">
        <ele>337.8</ele>
        <time>2024-09-01T07:27:03Z</time>
      </trkpt>
      <trkpt lat="47.0856" lon="6.05836">
        <ele>338</ele>
        <time>2024-09-01T07:27:04Z</time>
      </trkpt>
      <trkpt lat="47.08557" lon="6.05833">
        <ele>338.2</ele>
        <time>2024-09-01T07:27:05Z</time>
      </trkpt>
      <trkpt lat="47.08554" lon="6.05831">
        <ele>338.4</ele>
        <time>2024-09-01T07:27:06Z</time>
      </trkpt>
      <trkpt lat="47.0855" lon="6.05829">
        <ele>338.4</ele>
        <time>2024-09-01T07:27:07Z</time>
      </trkpt>
      <trkpt lat="47.08547" lon="6.05828">
        <ele>338.2</ele>
        <time>2024-09-01T07:27:08Z</time>
      </trkpt>
      <trkpt lat="47.08544" lon="6.05827">
        <ele>338.4</ele>
        <time>2024-09-01T07:27:09Z</time>
      </trkpt>
      <trkpt lat="47.0854" lon="6.05826">
        <ele>338.4</ele>
        <time>2024-09-01T07:27:10Z</time>
      </trkpt>
      <trkpt lat="47.08537" lon="6.05826">
        <ele>338.4</ele>
        <time>2024-09-01T07:27:11Z</time>
      </trkpt>
      <trkpt lat="47.08534" lon="6.05827">
        <ele>338.6</ele>
        <time>2024-09-01T07:27:12Z</time>
      </trkpt>
      <trkpt lat="47.08531" lon="6.05827">
        <ele>338.6</ele>
        <time>2024-09-01T07:27:13Z</time>
      </trkpt>
      <trkpt lat="47.08528" lon="6.05827">
        <ele>338.6</ele>
        <time>2024-09-01T07:27:14Z</time>
      </trkpt>
      <trkpt lat="47.08526" lon="6.05825">
        <ele>338.6</ele>
        <time>2024-09-01T07:27:15Z</time>
      </trkpt>
      <trkpt lat="47.08524" lon="6.05822">
        <ele>338.6</ele>
        <time>2024-09-01T07:27:16Z</time>
      </trkpt>
      <trkpt lat="47.08521" lon="6.05818">
        <ele>338.8</ele>
        <time>2024-09-01T07:27:17Z</time>
      </trkpt>
      <trkpt lat="47.0852" lon="6.05814">
        <ele>339</ele>
        <time>2024-09-01T07:27:18Z</time>
      </trkpt>
      <trkpt lat="47.08518" lon="6.0581">
        <ele>339.2</ele>
        <time>2024-09-01T07:27:19Z</time>
      </trkpt>
      <trkpt lat="47.08517" lon="6.05804">
        <ele>339.2</ele>
        <time>2024-09-01T07:27:20Z</time>
      </trkpt>
      <trkpt lat="47.08515" lon="6.05798">
        <ele>339.2</ele>
        <time>2024-09-01T07:27:21Z</time>
      </trkpt>
      <trkpt lat="47.08513" lon="6.05792">
        <ele>339.2</ele>
        <time>2024-09-01T07:27:22Z</time>
      </trkpt>
      <trkpt lat="47.08511" lon="6.05786">
        <ele>339.2</ele>
        <time>2024-09-01T07:27:23Z</time>
      </trkpt>
      <trkpt lat="47.0851" lon="6.0578">
        <ele>339.2</ele>
        <time>2024-09-01T07:27:24Z</time>
      </trkpt>
      <trkpt lat="47.08508" lon="6.05773">
        <ele>339.2</ele>
        <time>2024-09-01T07:27:25Z</time>
      </trkpt>
      <trkpt lat="47.08506" lon="6.05767">
        <ele>339.4</ele>
        <time>2024-09-01T07:27:26Z</time>
      </trkpt>
      <trkpt lat="47.08504" lon="6.0576">
        <ele>339.2</ele>
        <time>2024-09-01T07:27:27Z</time>
      </trkpt>
      <trkpt lat="47.08501" lon="6.05753">
        <ele>339.2</ele>
        <time>2024-09-01T07:27:28Z</time>
      </trkpt>
      <trkpt lat="47.08498" lon="6.05747">
        <ele>339.2</ele>
        <time>2024-09-01T07:27:29Z</time>
      </trkpt>
      <trkpt lat="47.08494" lon="6.05741">
        <ele>339.2</ele>
        <time>2024-09-01T07:27:30Z</time>
      </trkpt>
      <trkpt lat="47.08489" lon="6.05736">
        <ele>338.8</ele>
        <time>2024-09-01T07:27:31Z</time>
      </trkpt>
      <trkpt lat="47.08483" lon="6.05733">
        <ele>338.6</ele>
        <time>2024-09-01T07:27:32Z</time>
      </trkpt>
      <trkpt lat="47.08477" lon="6.0573">
        <ele>338.4</ele>
        <time>2024-09-01T07:27:33Z</time>
      </trkpt>
      <trkpt lat="47.0847" lon="6.05727">
        <ele>338.2</ele>
        <time>2024-09-01T07:27:34Z</time>
      </trkpt>
      <trkpt lat="47.08464" lon="6.05723">
        <ele>338</ele>
        <time>2024-09-01T07:27:35Z</time>
      </trkpt>
      <trkpt lat="47.08457" lon="6.05719">
        <ele>337.8</ele>
        <time>2024-09-01T07:27:36Z</time>
      </trkpt>
      <trkpt lat="47.0845" lon="6.05714">
        <ele>337.4</ele>
        <time>2024-09-01T07:27:37Z</time>
      </trkpt>
      <trkpt lat="47.08444" lon="6.05709">
        <ele>337</ele>
        <time>2024-09-01T07:27:38Z</time>
      </trkpt>
      <trkpt lat="47.08437" lon="6.05706">
        <ele>336.6</ele>
        <time>2024-09-01T07:27:39Z</time>
      </trkpt>
      <trkpt lat="47.0843" lon="6.05703">
        <ele>336.2</ele>
        <time>2024-09-01T07:27:40Z</time>
      </trkpt>
      <trkpt lat="47.08424" lon="6.057">
        <ele>335.6</ele>
        <time>2024-09-01T07:27:41Z</time>
      </trkpt>
      <trkpt lat="47.08417" lon="6.05698">
        <ele>335</ele>
        <time>2024-09-01T07:27:42Z</time>
      </trkpt>
      <trkpt lat="47.08411" lon="6.05695">
        <ele>334.6</ele>
        <time>2024-09-01T07:27:43Z</time>
      </trkpt>
      <trkpt lat="47.08406" lon="6.05691">
        <ele>334.4</ele>
        <time>2024-09-01T07:27:44Z</time>
      </trkpt>
      <trkpt lat="47.084" lon="6.05687">
        <ele>334.2</ele>
        <time>2024-09-01T07:27:45Z</time>
      </trkpt>
      <trkpt lat="47.08395" lon="6.05683">
        <ele>334.2</ele>
        <time>2024-09-01T07:27:46Z</time>
      </trkpt>
      <trkpt lat="47.08389" lon="6.0568">
        <ele>334.2</ele>
        <time>2024-09-01T07:27:47Z</time>
      </trkpt>
      <trkpt lat="47.08384" lon="6.05676">
        <ele>334</ele>
        <time>2024-09-01T07:27:48Z</time>
      </trkpt>
      <trkpt lat="47.08379" lon="6.05672">
        <ele>334</ele>
        <time>2024-09-01T07:27:49Z</time>
      </trkpt>
      <trkpt lat="47.08375" lon="6.05667">
        <ele>334.2</ele>
        <time>2024-09-01T07:27:50Z</time>
      </trkpt>
      <trkpt lat="47.08371" lon="6.05663">
        <ele>334.2</ele>
        <time>2024-09-01T07:27:51Z</time>
      </trkpt>
      <trkpt lat="47.08368" lon="6.05658">
        <ele>334.2</ele>
        <time>2024-09-01T07:27:52Z</time>
      </trkpt>
      <trkpt lat="47.08364" lon="6.05653">
        <ele>334.2</ele>
        <time>2024-09-01T07:27:53Z</time>
      </trkpt>
      <trkpt lat="47.08361" lon="6.05648">
        <ele>334.2</ele>
        <time>2024-09-01T07:27:54Z</time>
      </trkpt>
      <trkpt lat="47.08358" lon="6.05642">
        <ele>334.4</ele>
        <time>2024-09-01T07:27:55Z</time>
      </trkpt>
      <trkpt lat="47.08356" lon="6.05637">
        <ele>334.6</ele>
        <time>2024-09-01T07:27:56Z</time>
      </trkpt>
      <trkpt lat="47.08354" lon="6.05631">
        <ele>334.8</ele>
        <time>2024-09-01T07:27:57Z</time>
      </trkpt>
      <trkpt lat="47.08353" lon="6.05625">
        <ele>335</ele>
        <time>2024-09-01T07:27:58Z</time>
      </trkpt>
      <trkpt lat="47.08351" lon="6.0562">
        <ele>335.2</ele>
        <time>2024-09-01T07:27:59Z</time>
      </trkpt>
      <trkpt lat="47.0835" lon="6.05615">
        <ele>335.4</ele>
        <time>2024-09-01T07:28:00Z</time>
      </trkpt>
      <trkpt lat="47.08349" lon="6.0561">
        <ele>335.8</ele>
        <time>2024-09-01T07:28:01Z</time>
      </trkpt>
      <trkpt lat="47.08348" lon="6.05605">
        <ele>336</ele>
        <time>2024-09-01T07:28:02Z</time>
      </trkpt>
      <trkpt lat="47.08347" lon="6.056">
        <ele>336</ele>
        <time>2024-09-01T07:28:03Z</time>
      </trkpt>
      <trkpt lat="47.08346" lon="6.05595">
        <ele>336.2</ele>
        <time>2024-09-01T07:28:04Z</time>
      </trkpt>
      <trkpt lat="47.08346" lon="6.05591">
        <ele>336.2</ele>
        <time>2024-09-01T07:28:05Z</time>
      </trkpt>
      <trkpt lat="47.08345" lon="6.05586">
        <ele>336.2</ele>
        <time>2024-09-01T07:28:06Z</time>
      </trkpt>
      <trkpt lat="47.08345" lon="6.05581">
        <ele>336.2</ele>
        <time>2024-09-01T07:28:07Z</time>
      </trkpt>
      <trkpt lat="47.08344" lon="6.05577">
        <ele>336.4</ele>
        <time>2024-09-01T07:28:08Z</time>
      </trkpt>
      <trkpt lat="47.08344" lon="6.05572">
        <ele>336.4</ele>
        <time>2024-09-01T07:28:09Z</time>
      </trkpt>
      <trkpt lat="47.08343" lon="6.05567">
        <ele>336.6</ele>
        <time>2024-09-01T07:28:10Z</time>
      </trkpt>
      <trkpt lat="47.08343" lon="6.05562">
        <ele>336.8</ele>
        <time>2024-09-01T07:28:11Z</time>
      </trkpt>
      <trkpt lat="47.08343" lon="6.05558">
        <ele>337</ele>
        <time>2024-09-01T07:28:12Z</time>
      </trkpt>
      <trkpt lat="47.08343" lon="6.05553">
        <ele>337.2</ele>
        <time>2024-09-01T07:28:13Z</time>
      </trkpt>
      <trkpt lat="47.08344" lon="6.05548">
        <ele>337.2</ele>
        <time>2024-09-01T07:28:14Z</time>
      </trkpt>
      <trkpt lat="47.08344" lon="6.05543">
        <ele>337.2</ele>
        <time>2024-09-01T07:28:15Z</time>
      </trkpt>
      <trkpt lat="47.08344" lon="6.05539">
        <ele>337.2</ele>
        <time>2024-09-01T07:28:16Z</time>
      </trkpt>
      <trkpt lat="47.08345" lon="6.05535">
        <ele>337.4</ele>
        <time>2024-09-01T07:28:17Z</time>
      </trkpt>
      <trkpt lat="47.08345" lon="6.0553">
        <ele>337.6</ele>
        <time>2024-09-01T07:28:18Z</time>
      </trkpt>
      <trkpt lat="47.08346" lon="6.05525">
        <ele>337.6</ele>
        <time>2024-09-01T07:28:19Z</time>
      </trkpt>
      <trkpt lat="47.08347" lon="6.0552">
        <ele>337.8</ele>
        <time>2024-09-01T07:28:20Z</time>
      </trkpt>
      <trkpt lat="47.08348" lon="6.05516">
        <ele>337.8</ele>
        <time>2024-09-01T07:28:21Z</time>
      </trkpt>
      <trkpt lat="47.0835" lon="6.05512">
        <ele>338</ele>
        <time>2024-09-01T07:28:22Z</time>
      </trkpt>
      <trkpt lat="47.08351" lon="6.05508">
        <ele>338.2</ele>
        <time>2024-09-01T07:28:23Z</time>
      </trkpt>
      <trkpt lat="47.08354" lon="6.05502">
        <ele>338.2</ele>
        <time>2024-09-01T07:28:24Z</time>
      </trkpt>
      <trkpt lat="47.08356" lon="6.05498">
        <ele>338.4</ele>
        <time>2024-09-01T07:28:25Z</time>
      </trkpt>
      <trkpt lat="47.08358" lon="6.05494">
        <ele>338.6</ele>
        <time>2024-09-01T07:28:26Z</time>
      </trkpt>
      <trkpt lat="47.0836" lon="6.0549">
        <ele>338.6</ele>
        <time>2024-09-01T07:28:27Z</time>
      </trkpt>
      <trkpt lat="47.08361" lon="6.05487">
        <ele>338.6</ele>
        <time>2024-09-01T07:28:28Z</time>
      </trkpt>
      <trkpt lat="47.08363" lon="6.05484">
        <ele>338.8</ele>
        <time>2024-09-01T07:28:29Z</time>
      </trkpt>
      <trkpt lat="47.08365" lon="6.05482">
        <ele>339</ele>
        <time>2024-09-01T07:28:30Z</time>
      </trkpt>
      <trkpt lat="47.08367" lon="6.05478">
        <ele>339</ele>
        <time>2024-09-01T07:28:31Z</time>
      </trkpt>
      <trkpt lat="47.0837" lon="6.05476">
        <ele>339.2</ele>
        <time>2024-09-01T07:28:32Z</time>
      </trkpt>
      <trkpt lat="47.08372" lon="6.05473">
        <ele>339.4</ele>
        <time>2024-09-01T07:28:33Z</time>
      </trkpt>
      <trkpt lat="47.08374" lon="6.0547">
        <ele>339.6</ele>
        <time>2024-09-01T07:28:34Z</time>
      </trkpt>
      <trkpt lat="47.08377" lon="6.05467">
        <ele>339.4</ele>
        <time>2024-09-01T07:28:35Z</time>
      </trkpt>
      <trkpt lat="47.08379" lon="6.05465">
        <ele>339.6</ele>
        <time>2024-09-01T07:28:36Z</time>
      </trkpt>
      <trkpt lat="47.08382" lon="6.05463">
        <ele>339.8</ele>
        <time>2024-09-01T07:28:37Z</time>
      </trkpt>
      <trkpt lat="47.08384" lon="6.05461">
        <ele>340</ele>
        <time>2024-09-01T07:28:38Z</time>
      </trkpt>
      <trkpt lat="47.08386" lon="6.0546">
        <ele>340</ele>
        <time>2024-09-01T07:28:39Z</time>
      </trkpt>
      <trkpt lat="47.0839" lon="6.05458">
        <ele>340.2</ele>
        <time>2024-09-01T07:28:40Z</time>
      </trkpt>
      <trkpt lat="47.08393" lon="6.05457">
        <ele>340.6</ele>
        <time>2024-09-01T07:28:41Z</time>
      </trkpt>
      <trkpt lat="47.08395" lon="6.05456">
        <ele>340.8</ele>
        <time>2024-09-01T07:28:42Z</time>
      </trkpt>
      <trkpt lat="47.08398" lon="6.05455">
        <ele>340.8</ele>
        <time>2024-09-01T07:28:43Z</time>
      </trkpt>
      <trkpt lat="47.08402" lon="6.05454">
        <ele>341.4</ele>
        <time>2024-09-01T07:28:44Z</time>
      </trkpt>
      <trkpt lat="47.08405" lon="6.05454">
        <ele>341.4</ele>
        <time>2024-09-01T07:28:45Z</time>
      </trkpt>
      <trkpt lat="47.08408" lon="6.05453">
        <ele>341.6</ele>
        <time>2024-09-01T07:28:46Z</time>
      </trkpt>
      <trkpt lat="47.08412" lon="6.05453">
        <ele>341.8</ele>
        <time>2024-09-01T07:28:47Z</time>
      </trkpt>
      <trkpt lat="47.08414" lon="6.05453">
        <ele>341.8</ele>
        <time>2024-09-01T07:28:48Z</time>
      </trkpt>
      <trkpt lat="47.08417" lon="6.05454">
        <ele>341.8</ele>
        <time>2024-09-01T07:28:49Z</time>
      </trkpt>
      <trkpt lat="47.0842" lon="6.05454">
        <ele>341.8</ele>
        <time>2024-09-01T07:28:50Z</time>
      </trkpt>
      <trkpt lat="47.08422" lon="6.05454">
        <ele>342</ele>
        <time>2024-09-01T07:28:51Z</time>
      </trkpt>
      <trkpt lat="47.08425" lon="6.05455">
        <ele>342.2</ele>
        <time>2024-09-01T07:28:52Z</time>
      </trkpt>
      <trkpt lat="47.08427" lon="6.05456">
        <ele>342.4</ele>
        <time>2024-09-01T07:28:53Z</time>
      </trkpt>
      <trkpt lat="47.0843" lon="6.05456">
        <ele>342.6</ele>
        <time>2024-09-01T07:28:54Z</time>
      </trkpt>
      <trkpt lat="47.08434" lon="6.05457">
        <ele>342.6</ele>
        <time>2024-09-01T07:28:55Z</time>
      </trkpt>
      <trkpt lat="47.08437" lon="6.05457">
        <ele>342.8</ele>
        <time>2024-09-01T07:28:56Z</time>
      </trkpt>
      <trkpt lat="47.0844" lon="6.05457">
        <ele>342.8</ele>
        <time>2024-09-01T07:28:57Z</time>
      </trkpt>
      <trkpt lat="47.08443" lon="6.05458">
        <ele>343.2</ele>
        <time>2024-09-01T07:28:58Z</time>
      </trkpt>
      <trkpt lat="47.08447" lon="6.05459">
        <ele>343.6</ele>
        <time>2024-09-01T07:28:59Z</time>
      </trkpt>
      <trkpt lat="47.08451" lon="6.05461">
        <ele>343.8</ele>
        <time>2024-09-01T07:29:00Z</time>
      </trkpt>
      <trkpt lat="47.08455" lon="6.05462">
        <ele>344</ele>
        <time>2024-09-01T07:29:01Z</time>
      </trkpt>
      <trkpt lat="47.08459" lon="6.05463">
        <ele>344</ele>
        <time>2024-09-01T07:29:02Z</time>
      </trkpt>
      <trkpt lat="47.08462" lon="6.05464">
        <ele>344.2</ele>
        <time>2024-09-01T07:29:03Z</time>
      </trkpt>
      <trkpt lat="47.08467" lon="6.05465">
        <ele>344.2</ele>
        <time>2024-09-01T07:29:04Z</time>
      </trkpt>
      <trkpt lat="47.0847" lon="6.05465">
        <ele>344.4</ele>
        <time>2024-09-01T07:29:05Z</time>
      </trkpt>
      <trkpt lat="47.08473" lon="6.05466">
        <ele>344.6</ele>
        <time>2024-09-01T07:29:06Z</time>
      </trkpt>
      <trkpt lat="47.08476" lon="6.05465">
        <ele>344.6</ele>
        <time>2024-09-01T07:29:07Z</time>
      </trkpt>
      <trkpt lat="47.08478" lon="6.05465">
        <ele>344.8</ele>
        <time>2024-09-01T07:29:08Z</time>
      </trkpt>
      <trkpt lat="47.08479" lon="6.05465">
        <ele>345</ele>
        <time>2024-09-01T07:29:09Z</time>
      </trkpt>
      <trkpt lat="47.08481" lon="6.05465">
        <ele>345.2</ele>
        <time>2024-09-01T07:29:10Z</time>
      </trkpt>
      <trkpt lat="47.08483" lon="6.05464">
        <ele>345.4</ele>
        <time>2024-09-01T07:29:11Z</time>
      </trkpt>
      <trkpt lat="47.08486" lon="6.05463">
        <ele>345.4</ele>
        <time>2024-09-01T07:29:12Z</time>
      </trkpt>
      <trkpt lat="47.08489" lon="6.05461">
        <ele>345.8</ele>
        <time>2024-09-01T07:29:13Z</time>
      </trkpt>
      <trkpt lat="47.08492" lon="6.05457">
        <ele>346.2</ele>
        <time>2024-09-01T07:29:14Z</time>
      </trkpt>
      <trkpt lat="47.08494" lon="6.05454">
        <ele>347</ele>
        <time>2024-09-01T07:29:15Z</time>
      </trkpt>
      <trkpt lat="47.08495" lon="6.05451">
        <ele>347.2</ele>
        <time>2024-09-01T07:29:16Z</time>
      </trkpt>
      <trkpt lat="47.08494" lon="6.05448">
        <ele>347.8</ele>
        <time>2024-09-01T07:29:17Z</time>
      </trkpt>
      <trkpt lat="47.08493" lon="6.05445">
        <ele>348</ele>
        <time>2024-09-01T07:29:18Z</time>
      </trkpt>
      <trkpt lat="47.08492" lon="6.05444">
        <ele>348</ele>
        <time>2024-09-01T07:29:19Z</time>
      </trkpt>
      <trkpt lat="47.08491" lon="6.05443">
        <ele>348.2</ele>
        <time>2024-09-01T07:29:20Z</time>
      </trkpt>
      <trkpt lat="47.0849" lon="6.05441">
        <ele>348.6</ele>
        <time>2024-09-01T07:29:21Z</time>
      </trkpt>
      <trkpt lat="47.08488" lon="6.05439">
        <ele>348.6</ele>
        <time>2024-09-01T07:29:22Z</time>
      </trkpt>
      <trkpt lat="47.08487" lon="6.05437">
        <ele>348.8</ele>
        <time>2024-09-01T07:29:23Z</time>
      </trkpt>
      <trkpt lat="47.08485" lon="6.05435">
        <ele>348.8</ele>
        <time>2024-09-01T07:29:24Z</time>
      </trkpt>
      <trkpt lat="47.08484" lon="6.05433">
        <ele>349</ele>
        <time>2024-09-01T07:29:25Z</time>
      </trkpt>
      <trkpt lat="47.08483" lon="6.05431">
        <ele>349.2</ele>
        <time>2024-09-01T07:29:26Z</time>
      </trkpt>
      <trkpt lat="47.08482" lon="6.05429">
        <ele>349.4</ele>
        <time>2024-09-01T07:29:27Z</time>
      </trkpt>
      <trkpt lat="47.0848" lon="6.05427">
        <ele>349.4</ele>
        <time>2024-09-01T07:29:28Z</time>
      </trkpt>
      <trkpt lat="47.08478" lon="6.05424">
        <ele>350</ele>
        <time>2024-09-01T07:29:29Z</time>
      </trkpt>
      <trkpt lat="47.08476" lon="6.05421">
        <ele>350</ele>
        <time>2024-09-01T07:29:30Z</time>
      </trkpt>
      <trkpt lat="47.08474" lon="6.05418">
        <ele>350.2</ele>
        <time>2024-09-01T07:29:31Z</time>
      </trkpt>
      <trkpt lat="47.08471" lon="6.05416">
        <ele>350.4</ele>
        <time>2024-09-01T07:29:32Z</time>
      </trkpt>
      <trkpt lat="47.08469" lon="6.05413">
        <ele>350.4</ele>
        <time>2024-09-01T07:29:33Z</time>
      </trkpt>
      <trkpt lat="47.08467" lon="6.0541">
        <ele>350.8</ele>
        <time>2024-09-01T07:29:34Z</time>
      </trkpt>
      <trkpt lat="47.08465" lon="6.05407">
        <ele>351</ele>
        <time>2024-09-01T07:29:35Z</time>
      </trkpt>
      <trkpt lat="47.08463" lon="6.05404">
        <ele>351.2</ele>
        <time>2024-09-01T07:29:36Z</time>
      </trkpt>
      <trkpt lat="47.08462" lon="6.054">
        <ele>351.2</ele>
        <time>2024-09-01T07:29:37Z</time>
      </trkpt>
      <trkpt lat="47.0846" lon="6.05397">
        <ele>351.4</ele>
        <time>2024-09-01T07:29:38Z</time>
      </trkpt>
      <trkpt lat="47.08458" lon="6.05393">
        <ele>351.6</ele>
        <time>2024-09-01T07:29:39Z</time>
      </trkpt>
      <trkpt lat="47.08456" lon="6.0539">
        <ele>351.8</ele>
        <time>2024-09-01T07:29:40Z</time>
      </trkpt>
      <trkpt lat="47.08454" lon="6.05387">
        <ele>352</ele>
        <time>2024-09-01T07:29:41Z</time>
      </trkpt>
      <trkpt lat="47.08452" lon="6.05384">
        <ele>352.2</ele>
        <time>2024-09-01T07:29:42Z</time>
      </trkpt>
      <trkpt lat="47.0845" lon="6.05381">
        <ele>352.4</ele>
        <time>2024-09-01T07:29:43Z</time>
      </trkpt>
      <trkpt lat="47.08447" lon="6.05378">
        <ele>352.4</ele>
        <time>2024-09-01T07:29:44Z</time>
      </trkpt>
      <trkpt lat="47.08445" lon="6.05374">
        <ele>352.8</ele>
        <time>2024-09-01T07:29:45Z</time>
      </trkpt>
      <trkpt lat="47.08442" lon="6.0537">
        <ele>352.8</ele>
        <time>2024-09-01T07:29:46Z</time>
      </trkpt>
      <trkpt lat="47.0844" lon="6.05366">
        <ele>353.2</ele>
        <time>2024-09-01T07:29:47Z</time>
      </trkpt>
      <trkpt lat="47.08438" lon="6.05363">
        <ele>353.4</ele>
        <time>2024-09-01T07:29:48Z</time>
      </trkpt>
      <trkpt lat="47.08436" lon="6.0536">
        <ele>353.6</ele>
        <time>2024-09-01T07:29:49Z</time>
      </trkpt>
      <trkpt lat="47.08434" lon="6.05357">
        <ele>353.8</ele>
        <time>2024-09-01T07:29:50Z</time>
      </trkpt>
      <trkpt lat="47.08432" lon="6.05354">
        <ele>354</ele>
        <time>2024-09-01T07:29:51Z</time>
      </trkpt>
      <trkpt lat="47.08429" lon="6.05351">
        <ele>354.2</ele>
        <time>2024-09-01T07:29:52Z</time>
      </trkpt>
      <trkpt lat="47.08427" lon="6.05348">
        <ele>354.4</ele>
        <time>2024-09-01T07:29:53Z</time>
      </trkpt>
      <trkpt lat="47.08425" lon="6.05344">
        <ele>354.6</ele>
        <time>2024-09-01T07:29:54Z</time>
      </trkpt>
      <trkpt lat="47.08423" lon="6.0534">
        <ele>354.8</ele>
        <time>2024-09-01T07:29:55Z</time>
      </trkpt>
      <trkpt lat="47.08421" lon="6.05337">
        <ele>355</ele>
        <time>2024-09-01T07:29:56Z</time>
      </trkpt>
      <trkpt lat="47.08418" lon="6.05333">
        <ele>355.4</ele>
        <time>2024-09-01T07:29:57Z</time>
      </trkpt>
      <trkpt lat="47.08416" lon="6.0533">
        <ele>355.4</ele>
        <time>2024-09-01T07:29:58Z</time>
      </trkpt>
      <trkpt lat="47.08413" lon="6.05326">
        <ele>355.6</ele>
        <time>2024-09-01T07:29:59Z</time>
      </trkpt>
      <trkpt lat="47.08411" lon="6.05323">
        <ele>355.6</ele>
        <time>2024-09-01T07:30:00Z</time>
      </trkpt>
      <trkpt lat="47.08408" lon="6.05319">
        <ele>356</ele>
        <time>2024-09-01T07:30:01Z</time>
      </trkpt>
      <trkpt lat="47.08405" lon="6.05315">
        <ele>356.2</ele>
        <time>2024-09-01T07:30:02Z</time>
      </trkpt>
      <trkpt lat="47.08403" lon="6.05311">
        <ele>356.6</ele>
        <time>2024-09-01T07:30:03Z</time>
      </trkpt>
      <trkpt lat="47.084" lon="6.05307">
        <ele>356.8</ele>
        <time>2024-09-01T07:30:04Z</time>
      </trkpt>
      <trkpt lat="47.08399" lon="6.05303">
        <ele>356.8</ele>
        <time>2024-09-01T07:30:05Z</time>
      </trkpt>
      <trkpt lat="47.08396" lon="6.05299">
        <ele>357</ele>
        <time>2024-09-01T07:30:06Z</time>
      </trkpt>
      <trkpt lat="47.08394" lon="6.05297">
        <ele>357.2</ele>
        <time>2024-09-01T07:30:07Z</time>
      </trkpt>
      <trkpt lat="47.08392" lon="6.05294">
        <ele>357.4</ele>
        <time>2024-09-01T07:30:08Z</time>
      </trkpt>
      <trkpt lat="47.0839" lon="6.05292">
        <ele>357.4</ele>
        <time>2024-09-01T07:30:09Z</time>
      </trkpt>
      <trkpt lat="47.08388" lon="6.05289">
        <ele>357.8</ele>
        <time>2024-09-01T07:30:10Z</time>
      </trkpt>
      <trkpt lat="47.08386" lon="6.05287">
        <ele>358</ele>
        <time>2024-09-01T07:30:11Z</time>
      </trkpt>
      <trkpt lat="47.08384" lon="6.05284">
        <ele>358.4</ele>
        <time>2024-09-01T07:30:12Z</time>
      </trkpt>
      <trkpt lat="47.08382" lon="6.05282">
        <ele>358.6</ele>
        <time>2024-09-01T07:30:13Z</time>
      </trkpt>
      <trkpt lat="47.08379" lon="6.05278">
        <ele>358.6</ele>
        <time>2024-09-01T07:30:14Z</time>
      </trkpt>
      <trkpt lat="47.08377" lon="6.05275">
        <ele>358.8</ele>
        <time>2024-09-01T07:30:15Z</time>
      </trkpt>
      <trkpt lat="47.08375" lon="6.05271">
        <ele>359</ele>
        <time>2024-09-01T07:30:16Z</time>
      </trkpt>
      <trkpt lat="47.08372" lon="6.05268">
        <ele>359.2</ele>
        <time>2024-09-01T07:30:17Z</time>
      </trkpt>
      <trkpt lat="47.0837" lon="6.05264">
        <ele>359.6</ele>
        <time>2024-09-01T07:30:18Z</time>
      </trkpt>
      <trkpt lat="47.08367" lon="6.05259">
        <ele>359.8</ele>
        <time>2024-09-01T07:30:19Z</time>
      </trkpt>
      <trkpt lat="47.08365" lon="6.05255">
        <ele>360</ele>
        <time>2024-09-01T07:30:20Z</time>
      </trkpt>
      <trkpt lat="47.08363" lon="6.05251">
        <ele>360.2</ele>
        <time>2024-09-01T07:30:21Z</time>
      </trkpt>
      <trkpt lat="47.08361" lon="6.05247">
        <ele>360.4</ele>
        <time>2024-09-01T07:30:22Z</time>
      </trkpt>
      <trkpt lat="47.08359" lon="6.05244">
        <ele>360.8</ele>
        <time>2024-09-01T07:30:23Z</time>
      </trkpt>
      <trkpt lat="47.08357" lon="6.0524">
        <ele>361</ele>
        <time>2024-09-01T07:30:24Z</time>
      </trkpt>
      <trkpt lat="47.08355" lon="6.05237">
        <ele>361</ele>
        <time>2024-09-01T07:30:25Z</time>
      </trkpt>
      <trkpt lat="47.08352" lon="6.05234">
        <ele>361.2</ele>
        <time>2024-09-01T07:30:26Z</time>
      </trkpt>
      <trkpt lat="47.0835" lon="6.0523">
        <ele>361.6</ele>
        <time>2024-09-01T07:30:27Z</time>
      </trkpt>
      <trkpt lat="47.08348" lon="6.05228">
        <ele>361.6</ele>
        <time>2024-09-01T07:30:28Z</time>
      </trkpt>
      <trkpt lat="47.08345" lon="6.05225">
        <ele>361.8</ele>
        <time>2024-09-01T07:30:29Z</time>
      </trkpt>
      <trkpt lat="47.08343" lon="6.05222">
        <ele>362</ele>
        <time>2024-09-01T07:30:30Z</time>
      </trkpt>
      <trkpt lat="47.08341" lon="6.05219">
        <ele>362.2</ele>
        <time>2024-09-01T07:30:31Z</time>
      </trkpt>
      <trkpt lat="47.08339" lon="6.05216">
        <ele>362.4</ele>
        <time>2024-09-01T07:30:32Z</time>
      </trkpt>
      <trkpt lat="47.08337" lon="6.05213">
        <ele>362.4</ele>
        <time>2024-09-01T07:30:33Z</time>
      </trkpt>
      <trkpt lat="47.08335" lon="6.0521">
        <ele>362.8</ele>
        <time>2024-09-01T07:30:34Z</time>
      </trkpt>
      <trkpt lat="47.08333" lon="6.05207">
        <ele>362.8</ele>
        <time>2024-09-01T07:30:35Z</time>
      </trkpt>
      <trkpt lat="47.08331" lon="6.05203">
        <ele>363</ele>
        <time>2024-09-01T07:30:36Z</time>
      </trkpt>
      <trkpt lat="47.08329" lon="6.052">
        <ele>363.2</ele>
        <time>2024-09-01T07:30:37Z</time>
      </trkpt>
      <trkpt lat="47.08327" lon="6.05198">
        <ele>363.6</ele>
        <time>2024-09-01T07:30:38Z</time>
      </trkpt>
      <trkpt lat="47.08324" lon="6.05195">
        <ele>363.6</ele>
        <time>2024-09-01T07:30:39Z</time>
      </trkpt>
      <trkpt lat="47.08322" lon="6.05192">
        <ele>364</ele>
        <time>2024-09-01T07:30:40Z</time>
      </trkpt>
      <trkpt lat="47.0832" lon="6.05189">
        <ele>364</ele>
        <time>2024-09-01T07:30:41Z</time>
      </trkpt>
      <trkpt lat="47.08318" lon="6.05186">
        <ele>364.4</ele>
        <time>2024-09-01T07:30:42Z</time>
      </trkpt>
      <trkpt lat="47.08316" lon="6.05183">
        <ele>364.6</ele>
        <time>2024-09-01T07:30:43Z</time>
      </trkpt>
      <trkpt lat="47.08314" lon="6.05179">
        <ele>364.6</ele>
        <time>2024-09-01T07:30:44Z</time>
      </trkpt>
      <trkpt lat="47.08312" lon="6.05176">
        <ele>365</ele>
        <time>2024-09-01T07:30:45Z</time>
      </trkpt>
      <trkpt lat="47.08309" lon="6.05173">
        <ele>365</ele>
        <time>2024-09-01T07:30:46Z</time>
      </trkpt>
      <trkpt lat="47.08307" lon="6.05169">
        <ele>365.2</ele>
        <time>2024-09-01T07:30:47Z</time>
      </trkpt>
      <trkpt lat="47.08304" lon="6.05166">
        <ele>365.6</ele>
        <time>2024-09-01T07:30:48Z</time>
      </trkpt>
      <trkpt lat="47.08302" lon="6.05163">
        <ele>365.6</ele>
        <time>2024-09-01T07:30:49Z</time>
      </trkpt>
      <trkpt lat="47.08299" lon="6.0516">
        <ele>365.8</ele>
        <time>2024-09-01T07:30:50Z</time>
      </trkpt>
      <trkpt lat="47.08296" lon="6.05157">
        <ele>366</ele>
        <time>2024-09-01T07:30:51Z</time>
      </trkpt>
      <trkpt lat="47.08294" lon="6.05153">
        <ele>366.2</ele>
        <time>2024-09-01T07:30:52Z</time>
      </trkpt>
      <trkpt lat="47.08292" lon="6.0515">
        <ele>366.2</ele>
        <time>2024-09-01T07:30:53Z</time>
      </trkpt>
      <trkpt lat="47.0829" lon="6.05147">
        <ele>366.6</ele>
        <time>2024-09-01T07:30:54Z</time>
      </trkpt>
      <trkpt lat="47.08287" lon="6.05143">
        <ele>366.8</ele>
        <time>2024-09-01T07:30:55Z</time>
      </trkpt>
      <trkpt lat="47.08285" lon="6.05139">
        <ele>367</ele>
        <time>2024-09-01T07:30:56Z</time>
      </trkpt>
      <trkpt lat="47.08283" lon="6.05136">
        <ele>367</ele>
        <time>2024-09-01T07:30:57Z</time>
      </trkpt>
      <trkpt lat="47.08281" lon="6.05132">
        <ele>367.2</ele>
        <time>2024-09-01T07:30:58Z</time>
      </trkpt>
      <trkpt lat="47.08279" lon="6.05129">
        <ele>367.4</ele>
        <time>2024-09-01T07:30:59Z</time>
      </trkpt>
      <trkpt lat="47.08276" lon="6.05125">
        <ele>367.8</ele>
        <time>2024-09-01T07:31:00Z</time>
      </trkpt>
      <trkpt lat="47.08274" lon="6.05122">
        <ele>367.8</ele>
        <time>2024-09-01T07:31:01Z</time>
      </trkpt>
      <trkpt lat="47.08272" lon="6.05118">
        <ele>367.8</ele>
        <time>2024-09-01T07:31:02Z</time>
      </trkpt>
      <trkpt lat="47.0827" lon="6.05115">
        <ele>368.2</ele>
        <time>2024-09-01T07:31:03Z</time>
      </trkpt>
      <trkpt lat="47.08268" lon="6.05111">
        <ele>368.4</ele>
        <time>2024-09-01T07:31:04Z</time>
      </trkpt>
      <trkpt lat="47.08266" lon="6.05108">
        <ele>368.6</ele>
        <time>2024-09-01T07:31:05Z</time>
      </trkpt>
      <trkpt lat="47.08263" lon="6.05104">
        <ele>369</ele>
        <time>2024-09-01T07:31:06Z</time>
      </trkpt>
      <trkpt lat="47.08261" lon="6.05101">
        <ele>369</ele>
        <time>2024-09-01T07:31:07Z</time>
      </trkpt>
      <trkpt lat="47.08259" lon="6.05097">
        <ele>369.4</ele>
        <time>2024-09-01T07:31:08Z</time>
      </trkpt>
      <trkpt lat="47.08257" lon="6.05093">
        <ele>369.6</ele>
        <time>2024-09-01T07:31:09Z</time>
      </trkpt>
      <trkpt lat="47.08255" lon="6.05089">
        <ele>369.6</ele>
        <time>2024-09-01T07:31:10Z</time>
      </trkpt>
      <trkpt lat="47.08253" lon="6.05085">
        <ele>370</ele>
        <time>2024-09-01T07:31:11Z</time>
      </trkpt>
      <trkpt lat="47.08251" lon="6.05081">
        <ele>370</ele>
        <time>2024-09-01T07:31:12Z</time>
      </trkpt>
      <trkpt lat="47.08248" lon="6.05078">
        <ele>370</ele>
        <time>2024-09-01T07:31:13Z</time>
      </trkpt>
      <trkpt lat="47.08246" lon="6.05075">
        <ele>370.2</ele>
        <time>2024-09-01T07:31:14Z</time>
      </trkpt>
      <trkpt lat="47.08244" lon="6.05071">
        <ele>370.6</ele>
        <time>2024-09-01T07:31:15Z</time>
      </trkpt>
      <trkpt lat="47.08242" lon="6.05067">
        <ele>370.6</ele>
        <time>2024-09-01T07:31:16Z</time>
      </trkpt>
      <trkpt lat="47.0824" lon="6.05064">
        <ele>370.8</ele>
        <time>2024-09-01T07:31:17Z</time>
      </trkpt>
      <trkpt lat="47.08238" lon="6.0506">
        <ele>370.8</ele>
        <time>2024-09-01T07:31:18Z</time>
      </trkpt>
      <trkpt lat="47.08236" lon="6.05057">
        <ele>371</ele>
        <time>2024-09-01T07:31:19Z</time>
      </trkpt>
      <trkpt lat="47.08234" lon="6.05054">
        <ele>371.4</ele>
        <time>2024-09-01T07:31:20Z</time>
      </trkpt>
      <trkpt lat="47.08232" lon="6.0505">
        <ele>371.6</ele>
        <time>2024-09-01T07:31:21Z</time>
      </trkpt>
      <trkpt lat="47.0823" lon="6.05047">
        <ele>371.6</ele>
        <time>2024-09-01T07:31:22Z</time>
      </trkpt>
      <trkpt lat="47.08228" lon="6.05044">
        <ele>372</ele>
        <time>2024-09-01T07:31:23Z</time>
      </trkpt>
      <trkpt lat="47.08225" lon="6.05041">
        <ele>372.4</ele>
        <time>2024-09-01T07:31:24Z</time>
      </trkpt>
      <trkpt lat="47.08223" lon="6.05038">
        <ele>372.4</ele>
        <time>2024-09-01T07:31:25Z</time>
      </trkpt>
      <trkpt lat="47.08221" lon="6.05035">
        <ele>372.6</ele>
        <time>2024-09-01T07:31:26Z</time>
      </trkpt>
      <trkpt lat="47.08219" lon="6.05032">
        <ele>372.6</ele>
        <time>2024-09-01T07:31:27Z</time>
      </trkpt>
      <trkpt lat="47.08217" lon="6.05029">
        <ele>373</ele>
        <time>2024-09-01T07:31:28Z</time>
      </trkpt>
      <trkpt lat="47.08215" lon="6.05026">
        <ele>373.2</ele>
        <time>2024-09-01T07:31:29Z</time>
      </trkpt>
      <trkpt lat="47.08212" lon="6.05023">
        <ele>373.6</ele>
        <time>2024-09-01T07:31:30Z</time>
      </trkpt>
      <trkpt lat="47.0821" lon="6.0502">
        <ele>373.8</ele>
        <time>2024-09-01T07:31:31Z</time>
      </trkpt>
      <trkpt lat="47.08208" lon="6.05017">
        <ele>374</ele>
        <time>2024-09-01T07:31:32Z</time>
      </trkpt>
      <trkpt lat="47.08206" lon="6.05014">
        <ele>374</ele>
        <time>2024-09-01T07:31:33Z</time>
      </trkpt>
      <trkpt lat="47.08204" lon="6.05011">
        <ele>374.4</ele>
        <time>2024-09-01T07:31:34Z</time>
      </trkpt>
      <trkpt lat="47.08201" lon="6.05008">
        <ele>374.4</ele>
        <time>2024-09-01T07:31:35Z</time>
      </trkpt>
      <trkpt lat="47.08199" lon="6.05005">
        <ele>374.8</ele>
        <time>2024-09-01T07:31:36Z</time>
      </trkpt>
      <trkpt lat="47.08197" lon="6.05002">
        <ele>374.8</ele>
        <time>2024-09-01T07:31:37Z</time>
      </trkpt>
      <trkpt lat="47.08195" lon="6.04999">
        <ele>375.2</ele>
        <time>2024-09-01T07:31:38Z</time>
      </trkpt>
      <trkpt lat="47.08193" lon="6.04997">
        <ele>375.2</ele>
        <time>2024-09-01T07:31:39Z</time>
      </trkpt>
      <trkpt lat="47.08191" lon="6.04994">
        <ele>375.4</ele>
        <time>2024-09-01T07:31:40Z</time>
      </trkpt>
      <trkpt lat="47.08189" lon="6.04991">
        <ele>375.6</ele>
        <time>2024-09-01T07:31:41Z</time>
      </trkpt>
      <trkpt lat="47.08186" lon="6.04989">
        <ele>375.6</ele>
        <time>2024-09-01T07:31:42Z</time>
      </trkpt>
      <trkpt lat="47.08184" lon="6.04987">
        <ele>376</ele>
        <time>2024-09-01T07:31:43Z</time>
      </trkpt>
      <trkpt lat="47.08183" lon="6.04984">
        <ele>376.2</ele>
        <time>2024-09-01T07:31:44Z</time>
      </trkpt>
      <trkpt lat="47.08181" lon="6.04981">
        <ele>376.2</ele>
        <time>2024-09-01T07:31:45Z</time>
      </trkpt>
      <trkpt lat="47.08179" lon="6.04979">
        <ele>376.4</ele>
        <time>2024-09-01T07:31:46Z</time>
      </trkpt>
      <trkpt lat="47.08176" lon="6.04976">
        <ele>376.4</ele>
        <time>2024-09-01T07:31:47Z</time>
      </trkpt>
      <trkpt lat="47.08173" lon="6.04974">
        <ele>376.8</ele>
        <time>2024-09-01T07:31:48Z</time>
      </trkpt>
      <trkpt lat="47.08171" lon="6.04971">
        <ele>377</ele>
        <time>2024-09-01T07:31:49Z</time>
      </trkpt>
      <trkpt lat="47.08168" lon="6.04969">
        <ele>377.2</ele>
        <time>2024-09-01T07:31:50Z</time>
      </trkpt>
      <trkpt lat="47.08165" lon="6.04966">
        <ele>377.4</ele>
        <time>2024-09-01T07:31:51Z</time>
      </trkpt>
      <trkpt lat="47.08163" lon="6.04964">
        <ele>377.6</ele>
        <time>2024-09-01T07:31:52Z</time>
      </trkpt>
      <trkpt lat="47.0816" lon="6.04961">
        <ele>377.8</ele>
        <time>2024-09-01T07:31:53Z</time>
      </trkpt>
      <trkpt lat="47.08157" lon="6.04959">
        <ele>378.2</ele>
        <time>2024-09-01T07:31:54Z</time>
      </trkpt>
      <trkpt lat="47.08154" lon="6.04957">
        <ele>378.2</ele>
        <time>2024-09-01T07:31:55Z</time>
      </trkpt>
      <trkpt lat="47.08151" lon="6.04955">
        <ele>378.6</ele>
        <time>2024-09-01T07:31:56Z</time>
      </trkpt>
      <trkpt lat="47.08148" lon="6.04952">
        <ele>378.8</ele>
        <time>2024-09-01T07:31:57Z</time>
      </trkpt>
      <trkpt lat="47.08146" lon="6.0495">
        <ele>379</ele>
        <time>2024-09-01T07:31:58Z</time>
      </trkpt>
      <trkpt lat="47.08143" lon="6.04947">
        <ele>379.2</ele>
        <time>2024-09-01T07:31:59Z</time>
      </trkpt>
      <trkpt lat="47.0814" lon="6.04945">
        <ele>379.6</ele>
        <time>2024-09-01T07:32:00Z</time>
      </trkpt>
      <trkpt lat="47.08137" lon="6.04942">
        <ele>379.8</ele>
        <time>2024-09-01T07:32:01Z</time>
      </trkpt>
      <trkpt lat="47.08135" lon="6.0494">
        <ele>380</ele>
        <time>2024-09-01T07:32:02Z</time>
      </trkpt>
      <trkpt lat="47.08132" lon="6.04939">
        <ele>380.2</ele>
        <time>2024-09-01T07:32:03Z</time>
      </trkpt>
      <trkpt lat="47.08129" lon="6.04937">
        <ele>380.4</ele>
        <time>2024-09-01T07:32:04Z</time>
      </trkpt>
      <trkpt lat="47.08127" lon="6.04935">
        <ele>380.6</ele>
        <time>2024-09-01T07:32:05Z</time>
      </trkpt>
      <trkpt lat="47.08125" lon="6.04934">
        <ele>380.8</ele>
        <time>2024-09-01T07:32:06Z</time>
      </trkpt>
      <trkpt lat="47.08122" lon="6.04932">
        <ele>381</ele>
        <time>2024-09-01T07:32:07Z</time>
      </trkpt>
      <trkpt lat="47.08119" lon="6.04931">
        <ele>381.2</ele>
        <time>2024-09-01T07:32:08Z</time>
      </trkpt>
      <trkpt lat="47.08117" lon="6.04929">
        <ele>381.4</ele>
        <time>2024-09-01T07:32:09Z</time>
      </trkpt>
      <trkpt lat="47.08114" lon="6.04927">
        <ele>381.8</ele>
        <time>2024-09-01T07:32:10Z</time>
      </trkpt>
      <trkpt lat="47.08112" lon="6.04923">
        <ele>381.8</ele>
        <time>2024-09-01T07:32:11Z</time>
      </trkpt>
      <trkpt lat="47.08109" lon="6.04921">
        <ele>382.2</ele>
        <time>2024-09-01T07:32:12Z</time>
      </trkpt>
      <trkpt lat="47.08106" lon="6.04919">
        <ele>382.2</ele>
        <time>2024-09-01T07:32:13Z</time>
      </trkpt>
      <trkpt lat="47.08104" lon="6.04914">
        <ele>382.6</ele>
        <time>2024-09-01T07:32:14Z</time>
      </trkpt>
      <trkpt lat="47.081" lon="6.04911">
        <ele>382.8</ele>
        <time>2024-09-01T07:32:15Z</time>
      </trkpt>
      <trkpt lat="47.08097" lon="6.04907">
        <ele>382.8</ele>
        <time>2024-09-01T07:32:16Z</time>
      </trkpt>
      <trkpt lat="47.08094" lon="6.04903">
        <ele>383</ele>
        <time>2024-09-01T07:32:17Z</time>
      </trkpt>
      <trkpt lat="47.08091" lon="6.049">
        <ele>383.2</ele>
        <time>2024-09-01T07:32:18Z</time>
      </trkpt>
      <trkpt lat="47.08088" lon="6.04897">
        <ele>383.4</ele>
        <time>2024-09-01T07:32:19Z</time>
      </trkpt>
      <trkpt lat="47.08085" lon="6.04895">
        <ele>383.6</ele>
        <time>2024-09-01T07:32:20Z</time>
      </trkpt>
      <trkpt lat="47.08081" lon="6.04893">
        <ele>383.8</ele>
        <time>2024-09-01T07:32:21Z</time>
      </trkpt>
      <trkpt lat="47.08078" lon="6.0489">
        <ele>384.2</ele>
        <time>2024-09-01T07:32:22Z</time>
      </trkpt>
      <trkpt lat="47.08076" lon="6.04887">
        <ele>384.2</ele>
        <time>2024-09-01T07:32:23Z</time>
      </trkpt>
      <trkpt lat="47.08073" lon="6.04885">
        <ele>384.6</ele>
        <time>2024-09-01T07:32:24Z</time>
      </trkpt>
      <trkpt lat="47.0807" lon="6.04882">
        <ele>384.8</ele>
        <time>2024-09-01T07:32:25Z</time>
      </trkpt>
      <trkpt lat="47.08067" lon="6.04879">
        <ele>385</ele>
        <time>2024-09-01T07:32:26Z</time>
      </trkpt>
      <trkpt lat="47.08065" lon="6.04876">
        <ele>385.2</ele>
        <time>2024-09-01T07:32:27Z</time>
      </trkpt>
      <trkpt lat="47.08062" lon="6.04873">
        <ele>385.4</ele>
        <time>2024-09-01T07:32:28Z</time>
      </trkpt>
      <trkpt lat="47.08059" lon="6.0487">
        <ele>385.8</ele>
        <time>2024-09-01T07:32:29Z</time>
      </trkpt>
      <trkpt lat="47.08056" lon="6.04868">
        <ele>385.8</ele>
        <time>2024-09-01T07:32:30Z</time>
      </trkpt>
      <trkpt lat="47.08053" lon="6.04865">
        <ele>386</ele>
        <time>2024-09-01T07:32:31Z</time>
      </trkpt>
      <trkpt lat="47.0805" lon="6.04863">
        <ele>386.2</ele>
        <time>2024-09-01T07:32:32Z</time>
      </trkpt>
      <trkpt lat="47.08047" lon="6.04861">
        <ele>386.4</ele>
        <time>2024-09-01T07:32:33Z</time>
      </trkpt>
      <trkpt lat="47.08043" lon="6.04858">
        <ele>386.4</ele>
        <time>2024-09-01T07:32:34Z</time>
      </trkpt>
      <trkpt lat="47.0804" lon="6.04856">
        <ele>386.6</ele>
        <time>2024-09-01T07:32:35Z</time>
      </trkpt>
      <trkpt lat="47.08037" lon="6.04854">
        <ele>387</ele>
        <time>2024-09-01T07:32:36Z</time>
      </trkpt>
      <trkpt lat="47.08034" lon="6.04851">
        <ele>387.4</ele>
        <time>2024-09-01T07:32:37Z</time>
      </trkpt>
      <trkpt lat="47.08032" lon="6.04849">
        <ele>387.6</ele>
        <time>2024-09-01T07:32:38Z</time>
      </trkpt>
      <trkpt lat="47.08029" lon="6.04847">
        <ele>387.8</ele>
        <time>2024-09-01T07:32:39Z</time>
      </trkpt>
      <trkpt lat="47.08026" lon="6.04845">
        <ele>388</ele>
        <time>2024-09-01T07:32:40Z</time>
      </trkpt>
      <trkpt lat="47.08023" lon="6.04842">
        <ele>388.2</ele>
        <time>2024-09-01T07:32:41Z</time>
      </trkpt>
      <trkpt lat="47.0802" lon="6.0484">
        <ele>388.4</ele>
        <time>2024-09-01T07:32:42Z</time>
      </trkpt>
      <trkpt lat="47.08017" lon="6.04838">
        <ele>388.6</ele>
        <time>2024-09-01T07:32:43Z</time>
      </trkpt>
      <trkpt lat="47.08014" lon="6.04835">
        <ele>388.6</ele>
        <time>2024-09-01T07:32:44Z</time>
      </trkpt>
      <trkpt lat="47.08011" lon="6.04833">
        <ele>388.8</ele>
        <time>2024-09-01T07:32:45Z</time>
      </trkpt>
      <trkpt lat="47.08009" lon="6.0483">
        <ele>389.4</ele>
        <time>2024-09-01T07:32:46Z</time>
      </trkpt>
      <trkpt lat="47.08006" lon="6.04828">
        <ele>389.4</ele>
        <time>2024-09-01T07:32:47Z</time>
      </trkpt>
      <trkpt lat="47.08003" lon="6.04825">
        <ele>389.6</ele>
        <time>2024-09-01T07:32:48Z</time>
      </trkpt>
      <trkpt lat="47.08" lon="6.04823">
        <ele>389.8</ele>
        <time>2024-09-01T07:32:49Z</time>
      </trkpt>
      <trkpt lat="47.07997" lon="6.0482">
        <ele>390</ele>
        <time>2024-09-01T07:32:50Z</time>
      </trkpt>
      <trkpt lat="47.07995" lon="6.04818">
        <ele>390.4</ele>
        <time>2024-09-01T07:32:51Z</time>
      </trkpt>
      <trkpt lat="47.07993" lon="6.04816">
        <ele>390.4</ele>
        <time>2024-09-01T07:32:52Z</time>
      </trkpt>
      <trkpt lat="47.0799" lon="6.04814">
        <ele>390.6</ele>
        <time>2024-09-01T07:32:53Z</time>
      </trkpt>
      <trkpt lat="47.07988" lon="6.04812">
        <ele>391</ele>
        <time>2024-09-01T07:32:54Z</time>
      </trkpt>
      <trkpt lat="47.07985" lon="6.04809">
        <ele>391</ele>
        <time>2024-09-01T07:32:55Z</time>
      </trkpt>
      <trkpt lat="47.07983" lon="6.04807">
        <ele>391.2</ele>
        <time>2024-09-01T07:32:56Z</time>
      </trkpt>
      <trkpt lat="47.07981" lon="6.04804">
        <ele>391</ele>
        <time>2024-09-01T07:32:57Z</time>
      </trkpt>
      <trkpt lat="47.07978" lon="6.04802">
        <ele>391.4</ele>
        <time>2024-09-01T07:32:58Z</time>
      </trkpt>
      <trkpt lat="47.07976" lon="6.04799">
        <ele>391.6</ele>
        <time>2024-09-01T07:32:59Z</time>
      </trkpt>
      <trkpt lat="47.07973" lon="6.04797">
        <ele>391.8</ele>
        <time>2024-09-01T07:33:00Z</time>
      </trkpt>
      <trkpt lat="47.07971" lon="6.04794">
        <ele>392.2</ele>
        <time>2024-09-01T07:33:01Z</time>
      </trkpt>
      <trkpt lat="47.07968" lon="6.04791">
        <ele>392.4</ele>
        <time>2024-09-01T07:33:02Z</time>
      </trkpt>
      <trkpt lat="47.07966" lon="6.04789">
        <ele>392.6</ele>
        <time>2024-09-01T07:33:03Z</time>
      </trkpt>
      <trkpt lat="47.07964" lon="6.04786">
        <ele>392.8</ele>
        <time>2024-09-01T07:33:04Z</time>
      </trkpt>
      <trkpt lat="47.07961" lon="6.04783">
        <ele>392.8</ele>
        <time>2024-09-01T07:33:05Z</time>
      </trkpt>
      <trkpt lat="47.07959" lon="6.04779">
        <ele>393</ele>
        <time>2024-09-01T07:33:06Z</time>
      </trkpt>
      <trkpt lat="47.07957" lon="6.04776">
        <ele>393</ele>
        <time>2024-09-01T07:33:07Z</time>
      </trkpt>
      <trkpt lat="47.07955" lon="6.04773">
        <ele>393.4</ele>
        <time>2024-09-01T07:33:08Z</time>
      </trkpt>
      <trkpt lat="47.07952" lon="6.0477">
        <ele>393.4</ele>
        <time>2024-09-01T07:33:09Z</time>
      </trkpt>
      <trkpt lat="47.07949" lon="6.04768">
        <ele>393.6</ele>
        <time>2024-09-01T07:33:10Z</time>
      </trkpt>
      <trkpt lat="47.07947" lon="6.04766">
        <ele>393.8</ele>
        <time>2024-09-01T07:33:11Z</time>
      </trkpt>
      <trkpt lat="47.07944" lon="6.04763">
        <ele>394</ele>
        <time>2024-09-01T07:33:12Z</time>
      </trkpt>
      <trkpt lat="47.07942" lon="6.0476">
        <ele>394.2</ele>
        <time>2024-09-01T07:33:13Z</time>
      </trkpt>
      <trkpt lat="47.0794" lon="6.04757">
        <ele>394.4</ele>
        <time>2024-09-01T07:33:14Z</time>
      </trkpt>
      <trkpt lat="47.07937" lon="6.04754">
        <ele>394.8</ele>
        <time>2024-09-01T07:33:15Z</time>
      </trkpt>
      <trkpt lat="47.07935" lon="6.04751">
        <ele>394.8</ele>
        <time>2024-09-01T07:33:16Z</time>
      </trkpt>
      <trkpt lat="47.07933" lon="6.04748">
        <ele>395</ele>
        <time>2024-09-01T07:33:17Z</time>
      </trkpt>
      <trkpt lat="47.07931" lon="6.04745">
        <ele>395.2</ele>
        <time>2024-09-01T07:33:18Z</time>
      </trkpt>
      <trkpt lat="47.07929" lon="6.04741">
        <ele>395.4</ele>
        <time>2024-09-01T07:33:19Z</time>
      </trkpt>
      <trkpt lat="47.07927" lon="6.04737">
        <ele>395.8</ele>
        <time>2024-09-01T07:33:20Z</time>
      </trkpt>
      <trkpt lat="47.07926" lon="6.04733">
        <ele>396</ele>
        <time>2024-09-01T07:33:21Z</time>
      </trkpt>
      <trkpt lat="47.07924" lon="6.0473">
        <ele>396</ele>
        <time>2024-09-01T07:33:22Z</time>
      </trkpt>
      <trkpt lat="47.07922" lon="6.04727">
        <ele>396.2</ele>
        <time>2024-09-01T07:33:23Z</time>
      </trkpt>
      <trkpt lat="47.07921" lon="6.04724">
        <ele>396.6</ele>
        <time>2024-09-01T07:33:24Z</time>
      </trkpt>
      <trkpt lat="47.07919" lon="6.04721">
        <ele>396.6</ele>
        <time>2024-09-01T07:33:25Z</time>
      </trkpt>
      <trkpt lat="47.07917" lon="6.04717">
        <ele>396.8</ele>
        <time>2024-09-01T07:33:26Z</time>
      </trkpt>
      <trkpt lat="47.07915" lon="6.04715">
        <ele>397</ele>
        <time>2024-09-01T07:33:27Z</time>
      </trkpt>
      <trkpt lat="47.07912" lon="6.04712">
        <ele>397.2</ele>
        <time>2024-09-01T07:33:28Z</time>
      </trkpt>
      <trkpt lat="47.0791" lon="6.04709">
        <ele>397.4</ele>
        <time>2024-09-01T07:33:29Z</time>
      </trkpt>
      <trkpt lat="47.07908" lon="6.04706">
        <ele>397.6</ele>
        <time>2024-09-01T07:33:30Z</time>
      </trkpt>
      <trkpt lat="47.07906" lon="6.04703">
        <ele>397.6</ele>
        <time>2024-09-01T07:33:31Z</time>
      </trkpt>
      <trkpt lat="47.07904" lon="6.047">
        <ele>397.8</ele>
        <time>2024-09-01T07:33:32Z</time>
      </trkpt>
      <trkpt lat="47.07901" lon="6.04698">
        <ele>398</ele>
        <time>2024-09-01T07:33:33Z</time>
      </trkpt>
      <trkpt lat="47.07899" lon="6.04694">
        <ele>398.2</ele>
        <time>2024-09-01T07:33:34Z</time>
      </trkpt>
      <trkpt lat="47.07896" lon="6.04691">
        <ele>398.4</ele>
        <time>2024-09-01T07:33:35Z</time>
      </trkpt>
      <trkpt lat="47.07893" lon="6.04688">
        <ele>398.6</ele>
        <time>2024-09-01T07:33:36Z</time>
      </trkpt>
      <trkpt lat="47.0789" lon="6.04685">
        <ele>398.4</ele>
        <time>2024-09-01T07:33:37Z</time>
      </trkpt>
      <trkpt lat="47.07888" lon="6.04682">
        <ele>398.8</ele>
        <time>2024-09-01T07:33:38Z</time>
      </trkpt>
      <trkpt lat="47.07885" lon="6.0468">
        <ele>399.2</ele>
        <time>2024-09-01T07:33:39Z</time>
      </trkpt>
      <trkpt lat="47.07882" lon="6.04677">
        <ele>399.2</ele>
        <time>2024-09-01T07:33:40Z</time>
      </trkpt>
      <trkpt lat="47.07879" lon="6.04674">
        <ele>399.4</ele>
        <time>2024-09-01T07:33:41Z</time>
      </trkpt>
      <trkpt lat="47.07876" lon="6.04671">
        <ele>399.8</ele>
        <time>2024-09-01T07:33:42Z</time>
      </trkpt>
      <trkpt lat="47.07873" lon="6.04668">
        <ele>400.2</ele>
        <time>2024-09-01T07:33:43Z</time>
      </trkpt>
      <trkpt lat="47.07871" lon="6.04665">
        <ele>400.2</ele>
        <time>2024-09-01T07:33:44Z</time>
      </trkpt>
      <trkpt lat="47.07868" lon="6.04662">
        <ele>400.6</ele>
        <time>2024-09-01T07:33:45Z</time>
      </trkpt>
      <trkpt lat="47.07866" lon="6.0466">
        <ele>400.6</ele>
        <time>2024-09-01T07:33:46Z</time>
      </trkpt>
      <trkpt lat="47.07864" lon="6.04657">
        <ele>400.8</ele>
        <time>2024-09-01T07:33:47Z</time>
      </trkpt>
      <trkpt lat="47.07862" lon="6.04655">
        <ele>401.2</ele>
        <time>2024-09-01T07:33:48Z</time>
      </trkpt>
      <trkpt lat="47.0786" lon="6.04653">
        <ele>401.2</ele>
        <time>2024-09-01T07:33:49Z</time>
      </trkpt>
      <trkpt lat="47.07857" lon="6.0465">
        <ele>401.4</ele>
        <time>2024-09-01T07:33:50Z</time>
      </trkpt>
      <trkpt lat="47.07855" lon="6.04647">
        <ele>401.6</ele>
        <time>2024-09-01T07:33:51Z</time>
      </trkpt>
      <trkpt lat="47.07852" lon="6.04644">
        <ele>401.8</ele>
        <time>2024-09-01T07:33:52Z</time>
      </trkpt>
      <trkpt lat="47.07849" lon="6.04642">
        <ele>402.2</ele>
        <time>2024-09-01T07:33:53Z</time>
      </trkpt>
      <trkpt lat="47.07847" lon="6.04639">
        <ele>402.4</ele>
        <time>2024-09-01T07:33:54Z</time>
      </trkpt>
      <trkpt lat="47.07844" lon="6.04637">
        <ele>402.6</ele>
        <time>2024-09-01T07:33:55Z</time>
      </trkpt>
      <trkpt lat="47.07842" lon="6.04635">
        <ele>402.8</ele>
        <time>2024-09-01T07:33:56Z</time>
      </trkpt>
      <trkpt lat="47.07839" lon="6.04632">
        <ele>403</ele>
        <time>2024-09-01T07:33:57Z</time>
      </trkpt>
      <trkpt lat="47.07836" lon="6.04629">
        <ele>403.2</ele>
        <time>2024-09-01T07:33:58Z</time>
      </trkpt>
      <trkpt lat="47.07833" lon="6.04626">
        <ele>403.4</ele>
        <time>2024-09-01T07:33:59Z</time>
      </trkpt>
      <trkpt lat="47.0783" lon="6.04623">
        <ele>403.4</ele>
        <time>2024-09-01T07:34:00Z</time>
      </trkpt>
      <trkpt lat="47.07827" lon="6.0462">
        <ele>403.6</ele>
        <time>2024-09-01T07:34:01Z</time>
      </trkpt>
      <trkpt lat="47.07825" lon="6.04617">
        <ele>403.6</ele>
        <time>2024-09-01T07:34:02Z</time>
      </trkpt>
      <trkpt lat="47.07822" lon="6.04614">
        <ele>404.2</ele>
        <time>2024-09-01T07:34:03Z</time>
      </trkpt>
      <trkpt lat="47.0782" lon="6.04611">
        <ele>404.4</ele>
        <time>2024-09-01T07:34:04Z</time>
      </trkpt>
      <trkpt lat="47.07817" lon="6.04609">
        <ele>404.8</ele>
        <time>2024-09-01T07:34:05Z</time>
      </trkpt>
      <trkpt lat="47.07814" lon="6.04606">
        <ele>405</ele>
        <time>2024-09-01T07:34:06Z</time>
      </trkpt>
      <trkpt lat="47.07811" lon="6.04603">
        <ele>405.2</ele>
        <time>2024-09-01T07:34:07Z</time>
      </trkpt>
      <trkpt lat="47.07809" lon="6.04601">
        <ele>405.2</ele>
        <time>2024-09-01T07:34:08Z</time>
      </trkpt>
      <trkpt lat="47.07806" lon="6.04598">
        <ele>405.4</ele>
        <time>2024-09-01T07:34:09Z</time>
      </trkpt>
      <trkpt lat="47.07803" lon="6.04595">
        <ele>405.4</ele>
        <time>2024-09-01T07:34:10Z</time>
      </trkpt>
      <trkpt lat="47.07801" lon="6.04593">
        <ele>405.6</ele>
        <time>2024-09-01T07:34:11Z</time>
      </trkpt>
      <trkpt lat="47.07799" lon="6.0459">
        <ele>406</ele>
        <time>2024-09-01T07:34:12Z</time>
      </trkpt>
      <trkpt lat="47.07796" lon="6.04588">
        <ele>406.2</ele>
        <time>2024-09-01T07:34:13Z</time>
      </trkpt>
      <trkpt lat="47.07793" lon="6.04586">
        <ele>406.2</ele>
        <time>2024-09-01T07:34:14Z</time>
      </trkpt>
      <trkpt lat="47.0779" lon="6.04583">
        <ele>406.4</ele>
        <time>2024-09-01T07:34:15Z</time>
      </trkpt>
      <trkpt lat="47.07788" lon="6.04581">
        <ele>406.6</ele>
        <time>2024-09-01T07:34:16Z</time>
      </trkpt>
      <trkpt lat="47.07785" lon="6.04579">
        <ele>406.8</ele>
        <time>2024-09-01T07:34:17Z</time>
      </trkpt>
      <trkpt lat="47.07783" lon="6.04577">
        <ele>407</ele>
        <time>2024-09-01T07:34:18Z</time>
      </trkpt>
      <trkpt lat="47.0778" lon="6.04575">
        <ele>407</ele>
        <time>2024-09-01T07:34:19Z</time>
      </trkpt>
      <trkpt lat="47.07778" lon="6.04573">
        <ele>407.2</ele>
        <time>2024-09-01T07:34:20Z</time>
      </trkpt>
      <trkpt lat="47.07775" lon="6.04571">
        <ele>407.4</ele>
        <time>2024-09-01T07:34:21Z</time>
      </trkpt>
      <trkpt lat="47.07772" lon="6.04569">
        <ele>407.6</ele>
        <time>2024-09-01T07:34:22Z</time>
      </trkpt>
      <trkpt lat="47.07769" lon="6.04567">
        <ele>407.8</ele>
        <time>2024-09-01T07:34:23Z</time>
      </trkpt>
      <trkpt lat="47.07766" lon="6.04565">
        <ele>407.8</ele>
        <time>2024-09-01T07:34:24Z</time>
      </trkpt>
      <trkpt lat="47.07764" lon="6.04564">
        <ele>408.2</ele>
        <time>2024-09-01T07:34:25Z</time>
      </trkpt>
      <trkpt lat="47.07761" lon="6.04562">
        <ele>408.2</ele>
        <time>2024-09-01T07:34:26Z</time>
      </trkpt>
      <trkpt lat="47.07759" lon="6.04561">
        <ele>408.4</ele>
        <time>2024-09-01T07:34:27Z</time>
      </trkpt>
      <trkpt lat="47.07756" lon="6.04558">
        <ele>408.8</ele>
        <time>2024-09-01T07:34:28Z</time>
      </trkpt>
      <trkpt lat="47.07754" lon="6.04556">
        <ele>409</ele>
        <time>2024-09-01T07:34:29Z</time>
      </trkpt>
      <trkpt lat="47.07751" lon="6.04553">
        <ele>409.2</ele>
        <time>2024-09-01T07:34:30Z</time>
      </trkpt>
      <trkpt lat="47.07748" lon="6.04551">
        <ele>409.4</ele>
        <time>2024-09-01T07:34:31Z</time>
      </trkpt>
      <trkpt lat="47.07746" lon="6.04549">
        <ele>409.4</ele>
        <time>2024-09-01T07:34:32Z</time>
      </trkpt>
      <trkpt lat="47.07743" lon="6.04546">
        <ele>409.6</ele>
        <time>2024-09-01T07:34:33Z</time>
      </trkpt>
      <trkpt lat="47.0774" lon="6.04544">
        <ele>409.8</ele>
        <time>2024-09-01T07:34:34Z</time>
      </trkpt>
      <trkpt lat="47.07737" lon="6.04541">
        <ele>410.2</ele>
        <time>2024-09-01T07:34:35Z</time>
      </trkpt>
      <trkpt lat="47.07735" lon="6.04539">
        <ele>410.2</ele>
        <time>2024-09-01T07:34:36Z</time>
      </trkpt>
      <trkpt lat="47.07732" lon="6.04536">
        <ele>410.4</ele>
        <time>2024-09-01T07:34:37Z</time>
      </trkpt>
      <trkpt lat="47.0773" lon="6.04534">
        <ele>410.8</ele>
        <time>2024-09-01T07:34:38Z</time>
      </trkpt>
      <trkpt lat="47.07727" lon="6.04531">
        <ele>411</ele>
        <time>2024-09-01T07:34:39Z</time>
      </trkpt>
      <trkpt lat="47.07725" lon="6.04529">
        <ele>411</ele>
        <time>2024-09-01T07:34:40Z</time>
      </trkpt>
      <trkpt lat="47.07723" lon="6.04527">
        <ele>411.2</ele>
        <time>2024-09-01T07:34:41Z</time>
      </trkpt>
      <trkpt lat="47.07721" lon="6.04525">
        <ele>411.4</ele>
        <time>2024-09-01T07:34:42Z</time>
      </trkpt>
      <trkpt lat="47.07719" lon="6.04523">
        <ele>411.6</ele>
        <time>2024-09-01T07:34:43Z</time>
      </trkpt>
      <trkpt lat="47.07717" lon="6.0452">
        <ele>412.2</ele>
        <time>2024-09-01T07:34:44Z</time>
      </trkpt>
      <trkpt lat="47.07715" lon="6.04517">
        <ele>412.4</ele>
        <time>2024-09-01T07:34:45Z</time>
      </trkpt>
      <trkpt lat="47.07713" lon="6.04514">
        <ele>412.6</ele>
        <time>2024-09-01T07:34:46Z</time>
      </trkpt>
      <trkpt lat="47.07711" lon="6.04512">
        <ele>413</ele>
        <time>2024-09-01T07:34:47Z</time>
      </trkpt>
      <trkpt lat="47.07709" lon="6.04509">
        <ele>413.2</ele>
        <time>2024-09-01T07:34:48Z</time>
      </trkpt>
      <trkpt lat="47.07707" lon="6.04505">
        <ele>413.4</ele>
        <time>2024-09-01T07:34:49Z</time>
      </trkpt>
      <trkpt lat="47.07705" lon="6.04502">
        <ele>413.8</ele>
        <time>2024-09-01T07:34:50Z</time>
      </trkpt>
      <trkpt lat="47.07703" lon="6.04498">
        <ele>413.8</ele>
        <time>2024-09-01T07:34:51Z</time>
      </trkpt>
      <trkpt lat="47.07701" lon="6.04494">
        <ele>414</ele>
        <time>2024-09-01T07:34:52Z</time>
      </trkpt>
      <trkpt lat="47.077" lon="6.0449">
        <ele>414.4</ele>
        <time>2024-09-01T07:34:53Z</time>
      </trkpt>
      <trkpt lat="47.07698" lon="6.04486">
        <ele>414.4</ele>
        <time>2024-09-01T07:34:54Z</time>
      </trkpt>
      <trkpt lat="47.07697" lon="6.04482">
        <ele>414.4</ele>
        <time>2024-09-01T07:34:55Z</time>
      </trkpt>
      <trkpt lat="47.07695" lon="6.04478">
        <ele>414.6</ele>
        <time>2024-09-01T07:34:56Z</time>
      </trkpt>
      <trkpt lat="47.07694" lon="6.04474">
        <ele>414.8</ele>
        <time>2024-09-01T07:34:57Z</time>
      </trkpt>
      <trkpt lat="47.07692" lon="6.0447">
        <ele>415</ele>
        <time>2024-09-01T07:34:58Z</time>
      </trkpt>
      <trkpt lat="47.07691" lon="6.04466">
        <ele>415.4</ele>
        <time>2024-09-01T07:34:59Z</time>
      </trkpt>
      <trkpt lat="47.07689" lon="6.04462">
        <ele>415.4</ele>
        <time>2024-09-01T07:35:00Z</time>
      </trkpt>
      <trkpt lat="47.07688" lon="6.04458">
        <ele>415.6</ele>
        <time>2024-09-01T07:35:01Z</time>
      </trkpt>
      <trkpt lat="47.07687" lon="6.04455">
        <ele>415.8</ele>
        <time>2024-09-01T07:35:02Z</time>
      </trkpt>
      <trkpt lat="47.07686" lon="6.04451">
        <ele>416</ele>
        <time>2024-09-01T07:35:03Z</time>
      </trkpt>
      <trkpt lat="47.07684" lon="6.04447">
        <ele>415.8</ele>
        <time>2024-09-01T07:35:04Z</time>
      </trkpt>
      <trkpt lat="47.07683" lon="6.04443">
        <ele>416.2</ele>
        <time>2024-09-01T07:35:05Z</time>
      </trkpt>
      <trkpt lat="47.07682" lon="6.04439">
        <ele>416.6</ele>
        <time>2024-09-01T07:35:06Z</time>
      </trkpt>
      <trkpt lat="47.0768" lon="6.04435">
        <ele>416.6</ele>
        <time>2024-09-01T07:35:07Z</time>
      </trkpt>
      <trkpt lat="47.07679" lon="6.0443">
        <ele>416.8</ele>
        <time>2024-09-01T07:35:08Z</time>
      </trkpt>
      <trkpt lat="47.07677" lon="6.04426">
        <ele>417</ele>
        <time>2024-09-01T07:35:09Z</time>
      </trkpt>
      <trkpt lat="47.07676" lon="6.04423">
        <ele>417</ele>
        <time>2024-09-01T07:35:10Z</time>
      </trkpt>
      <trkpt lat="47.07675" lon="6.04419">
        <ele>417.2</ele>
        <time>2024-09-01T07:35:11Z</time>
      </trkpt>
      <trkpt lat="47.07673" lon="6.04416">
        <ele>417.6</ele>
        <time>2024-09-01T07:35:12Z</time>
      </trkpt>
      <trkpt lat="47.07671" lon="6.04412">
        <ele>417.8</ele>
        <time>2024-09-01T07:35:13Z</time>
      </trkpt>
      <trkpt lat="47.0767" lon="6.04408">
        <ele>418</ele>
        <time>2024-09-01T07:35:14Z</time>
      </trkpt>
      <trkpt lat="47.07668" lon="6.04405">
        <ele>418.2</ele>
        <time>2024-09-01T07:35:15Z</time>
      </trkpt>
      <trkpt lat="47.07667" lon="6.04401">
        <ele>418.4</ele>
        <time>2024-09-01T07:35:16Z</time>
      </trkpt>
      <trkpt lat="47.07666" lon="6.04397">
        <ele>418.6</ele>
        <time>2024-09-01T07:35:17Z</time>
      </trkpt>
      <trkpt lat="47.07666" lon="6.04394">
        <ele>418.8</ele>
        <time>2024-09-01T07:35:18Z</time>
      </trkpt>
      <trkpt lat="47.07665" lon="6.0439">
        <ele>419.2</ele>
        <time>2024-09-01T07:35:19Z</time>
      </trkpt>
      <trkpt lat="47.07664" lon="6.04386">
        <ele>419.2</ele>
        <time>2024-09-01T07:35:20Z</time>
      </trkpt>
      <trkpt lat="47.07663" lon="6.04383">
        <ele>419.4</ele>
        <time>2024-09-01T07:35:21Z</time>
      </trkpt>
      <trkpt lat="47.07662" lon="6.0438">
        <ele>419.4</ele>
        <time>2024-09-01T07:35:22Z</time>
      </trkpt>
      <trkpt lat="47.0766" lon="6.04378">
        <ele>419.6</ele>
        <time>2024-09-01T07:35:23Z</time>
      </trkpt>
      <trkpt lat="47.07659" lon="6.04374">
        <ele>419.8</ele>
        <time>2024-09-01T07:35:24Z</time>
      </trkpt>
      <trkpt lat="47.07658" lon="6.04372">
        <ele>420</ele>
        <time>2024-09-01T07:35:25Z</time>
      </trkpt>
      <trkpt lat="47.07657" lon="6.04369">
        <ele>420.4</ele>
        <time>2024-09-01T07:35:26Z</time>
      </trkpt>
      <trkpt lat="47.07656" lon="6.04367">
        <ele>420.4</ele>
        <time>2024-09-01T07:35:27Z</time>
      </trkpt>
      <trkpt lat="47.07655" lon="6.04365">
        <ele>420.6</ele>
        <time>2024-09-01T07:35:28Z</time>
      </trkpt>
      <trkpt lat="47.07654" lon="6.04363">
        <ele>420.6</ele>
        <time>2024-09-01T07:35:29Z</time>
      </trkpt>
      <trkpt lat="47.07653" lon="6.04361">
        <ele>420.8</ele>
        <time>2024-09-01T07:35:30Z</time>
      </trkpt>
      <trkpt lat="47.07652" lon="6.04361">
        <ele>421</ele>
        <time>2024-09-01T07:35:31Z</time>
      </trkpt>
      <trkpt lat="47.07651" lon="6.0436">
        <ele>421</ele>
        <time>2024-09-01T07:35:32Z</time>
      </trkpt>
      <trkpt lat="47.0765" lon="6.04359">
        <ele>421.4</ele>
        <time>2024-09-01T07:35:33Z</time>
      </trkpt>
      <trkpt lat="47.07649" lon="6.04358">
        <ele>421.4</ele>
        <time>2024-09-01T07:35:34Z</time>
      </trkpt>
      <trkpt lat="47.07647" lon="6.04358">
        <ele>421.6</ele>
        <time>2024-09-01T07:35:35Z</time>
      </trkpt>
      <trkpt lat="47.07646" lon="6.04357">
        <ele>421.8</ele>
        <time>2024-09-01T07:35:36Z</time>
      </trkpt>
      <trkpt lat="47.07644" lon="6.04357">
        <ele>422</ele>
        <time>2024-09-01T07:35:37Z</time>
      </trkpt>
      <trkpt lat="47.07642" lon="6.04356">
        <ele>422.2</ele>
        <time>2024-09-01T07:35:38Z</time>
      </trkpt>
      <trkpt lat="47.07641" lon="6.04355">
        <ele>422.4</ele>
        <time>2024-09-01T07:35:39Z</time>
      </trkpt>
      <trkpt lat="47.0764" lon="6.04354">
        <ele>422.4</ele>
        <time>2024-09-01T07:35:40Z</time>
      </trkpt>
      <trkpt lat="47.07638" lon="6.04353">
        <ele>422.6</ele>
        <time>2024-09-01T07:35:41Z</time>
      </trkpt>
      <trkpt lat="47.07637" lon="6.04353">
        <ele>422.6</ele>
        <time>2024-09-01T07:35:42Z</time>
      </trkpt>
      <trkpt lat="47.07635" lon="6.04352">
        <ele>422.8</ele>
        <time>2024-09-01T07:35:43Z</time>
      </trkpt>
      <trkpt lat="47.07633" lon="6.04351">
        <ele>423</ele>
        <time>2024-09-01T07:35:44Z</time>
      </trkpt>
      <trkpt lat="47.0763" lon="6.04351">
        <ele>423</ele>
        <time>2024-09-01T07:35:45Z</time>
      </trkpt>
      <trkpt lat="47.07628" lon="6.04351">
        <ele>423.2</ele>
        <time>2024-09-01T07:35:46Z</time>
      </trkpt>
      <trkpt lat="47.07625" lon="6.04351">
        <ele>423.2</ele>
        <time>2024-09-01T07:35:47Z</time>
      </trkpt>
      <trkpt lat="47.07622" lon="6.04352">
        <ele>423.2</ele>
        <time>2024-09-01T07:35:48Z</time>
      </trkpt>
      <trkpt lat="47.07619" lon="6.04352">
        <ele>423.4</ele>
        <time>2024-09-01T07:35:49Z</time>
      </trkpt>
      <trkpt lat="47.07617" lon="6.04352">
        <ele>423.2</ele>
        <time>2024-09-01T07:35:50Z</time>
      </trkpt>
      <trkpt lat="47.07615" lon="6.04352">
        <ele>423.4</ele>
        <time>2024-09-01T07:35:51Z</time>
      </trkpt>
      <trkpt lat="47.07613" lon="6.04352">
        <ele>423.8</ele>
        <time>2024-09-01T07:35:52Z</time>
      </trkpt>
      <trkpt lat="47.07611" lon="6.04353">
        <ele>424</ele>
        <time>2024-09-01T07:35:53Z</time>
      </trkpt>
      <trkpt lat="47.07608" lon="6.04355">
        <ele>424</ele>
        <time>2024-09-01T07:35:54Z</time>
      </trkpt>
      <trkpt lat="47.07606" lon="6.04357">
        <ele>424.2</ele>
        <time>2024-09-01T07:35:55Z</time>
      </trkpt>
      <trkpt lat="47.07603" lon="6.04359">
        <ele>424.4</ele>
        <time>2024-09-01T07:35:56Z</time>
      </trkpt>
      <trkpt lat="47.076" lon="6.0436">
        <ele>424.4</ele>
        <time>2024-09-01T07:35:57Z</time>
      </trkpt>
      <trkpt lat="47.07597" lon="6.04361">
        <ele>424.6</ele>
        <time>2024-09-01T07:35:58Z</time>
      </trkpt>
      <trkpt lat="47.07594" lon="6.04361">
        <ele>424.6</ele>
        <time>2024-09-01T07:35:59Z</time>
      </trkpt>
      <trkpt lat="47.07591" lon="6.04362">
        <ele>424.8</ele>
        <time>2024-09-01T07:36:00Z</time>
      </trkpt>
      <trkpt lat="47.07589" lon="6.04363">
        <ele>424.6</ele>
        <time>2024-09-01T07:36:01Z</time>
      </trkpt>
      <trkpt lat="47.07586" lon="6.04364">
        <ele>424.8</ele>
        <time>2024-09-01T07:36:02Z</time>
      </trkpt>
      <trkpt lat="47.07584" lon="6.04365">
        <ele>424.8</ele>
        <time>2024-09-01T07:36:03Z</time>
      </trkpt>
      <trkpt lat="47.07582" lon="6.04366">
        <ele>425</ele>
        <time>2024-09-01T07:36:04Z</time>
      </trkpt>
      <trkpt lat="47.07581" lon="6.04367">
        <ele>425</ele>
        <time>2024-09-01T07:36:05Z</time>
      </trkpt>
      <trkpt lat="47.07579" lon="6.04368">
        <ele>425.2</ele>
        <time>2024-09-01T07:36:06Z</time>
      </trkpt>
      <trkpt lat="47.07578" lon="6.04369">
        <ele>425.4</ele>
        <time>2024-09-01T07:36:07Z</time>
      </trkpt>
      <trkpt lat="47.07576" lon="6.0437">
        <ele>425.6</ele>
        <time>2024-09-01T07:36:08Z</time>
      </trkpt>
      <trkpt lat="47.07574" lon="6.04371">
        <ele>425.6</ele>
        <time>2024-09-01T07:36:09Z</time>
      </trkpt>
      <trkpt lat="47.07572" lon="6.04372">
        <ele>425.6</ele>
        <time>2024-09-01T07:36:10Z</time>
      </trkpt>
      <trkpt lat="47.0757" lon="6.04373">
        <ele>425.6</ele>
        <time>2024-09-01T07:36:11Z</time>
      </trkpt>
      <trkpt lat="47.07568" lon="6.04374">
        <ele>425.6</ele>
        <time>2024-09-01T07:36:12Z</time>
      </trkpt>
      <trkpt lat="47.07566" lon="6.04373">
        <ele>426</ele>
        <time>2024-09-01T07:36:13Z</time>
      </trkpt>
      <trkpt lat="47.07564" lon="6.04374">
        <ele>426.2</ele>
        <time>2024-09-01T07:36:14Z</time>
      </trkpt>
      <trkpt lat="47.07562" lon="6.04375">
        <ele>426.6</ele>
        <time>2024-09-01T07:36:15Z</time>
      </trkpt>
      <trkpt lat="47.0756" lon="6.04376">
        <ele>426.6</ele>
        <time>2024-09-01T07:36:16Z</time>
      </trkpt>
      <trkpt lat="47.07557" lon="6.04377">
        <ele>426.8</ele>
        <time>2024-09-01T07:36:17Z</time>
      </trkpt>
      <trkpt lat="47.07555" lon="6.04377">
        <ele>427</ele>
        <time>2024-09-01T07:36:18Z</time>
      </trkpt>
      <trkpt lat="47.07554" lon="6.04377">
        <ele>427.4</ele>
        <time>2024-09-01T07:36:19Z</time>
      </trkpt>
      <trkpt lat="47.07552" lon="6.04378">
        <ele>428</ele>
        <time>2024-09-01T07:36:20Z</time>
      </trkpt>
      <trkpt lat="47.07549" lon="6.04379">
        <ele>428.2</ele>
        <time>2024-09-01T07:36:21Z</time>
      </trkpt>
      <trkpt lat="47.07546" lon="6.04379">
        <ele>428.4</ele>
        <time>2024-09-01T07:36:22Z</time>
      </trkpt>
      <trkpt lat="47.07544" lon="6.04379">
        <ele>428.6</ele>
        <time>2024-09-01T07:36:23Z</time>
      </trkpt>
      <trkpt lat="47.07542" lon="6.04379">
        <ele>429</ele>
        <time>2024-09-01T07:36:24Z</time>
      </trkpt>
      <trkpt lat="47.07539" lon="6.04379">
        <ele>429.4</ele>
        <time>2024-09-01T07:36:25Z</time>
      </trkpt>
      <trkpt lat="47.07537" lon="6.04379">
        <ele>429.6</ele>
        <time>2024-09-01T07:36:26Z</time>
      </trkpt>
      <trkpt lat="47.07536" lon="6.04379">
        <ele>429.8</ele>
        <time>2024-09-01T07:36:27Z</time>
      </trkpt>
      <trkpt lat="47.07534" lon="6.04379">
        <ele>430</ele>
        <time>2024-09-01T07:36:28Z</time>
      </trkpt>
      <trkpt lat="47.07532" lon="6.04378">
        <ele>430.2</ele>
        <time>2024-09-01T07:36:29Z</time>
      </trkpt>
      <trkpt lat="47.0753" lon="6.04377">
        <ele>430.6</ele>
        <time>2024-09-01T07:36:30Z</time>
      </trkpt>
      <trkpt lat="47.07529" lon="6.04376">
        <ele>430.8</ele>
        <time>2024-09-01T07:36:31Z</time>
      </trkpt>
      <trkpt lat="47.07527" lon="6.04375">
        <ele>430.8</ele>
        <time>2024-09-01T07:36:32Z</time>
      </trkpt>
      <trkpt lat="47.07526" lon="6.04374">
        <ele>431.2</ele>
        <time>2024-09-01T07:36:33Z</time>
      </trkpt>
      <trkpt lat="47.07524" lon="6.04373">
        <ele>431.2</ele>
        <time>2024-09-01T07:36:34Z</time>
      </trkpt>
      <trkpt lat="47.07523" lon="6.04372">
        <ele>431.6</ele>
        <time>2024-09-01T07:36:35Z</time>
      </trkpt>
      <trkpt lat="47.07521" lon="6.04371">
        <ele>431.8</ele>
        <time>2024-09-01T07:36:36Z</time>
      </trkpt>
      <trkpt lat="47.0752" lon="6.0437">
        <ele>431.8</ele>
        <time>2024-09-01T07:36:37Z</time>
      </trkpt>
      <trkpt lat="47.07518" lon="6.04368">
        <ele>432</ele>
        <time>2024-09-01T07:36:38Z</time>
      </trkpt>
      <trkpt lat="47.07517" lon="6.04367">
        <ele>432.2</ele>
        <time>2024-09-01T07:36:39Z</time>
      </trkpt>
      <trkpt lat="47.07516" lon="6.04367">
        <ele>432.4</ele>
        <time>2024-09-01T07:36:40Z</time>
      </trkpt>
      <trkpt lat="47.07514" lon="6.04366">
        <ele>432.8</ele>
        <time>2024-09-01T07:36:41Z</time>
      </trkpt>
      <trkpt lat="47.07512" lon="6.04365">
        <ele>433.2</ele>
        <time>2024-09-01T07:36:42Z</time>
      </trkpt>
      <trkpt lat="47.0751" lon="6.04364">
        <ele>433.4</ele>
        <time>2024-09-01T07:36:43Z</time>
      </trkpt>
      <trkpt lat="47.07508" lon="6.04362">
        <ele>433.6</ele>
        <time>2024-09-01T07:36:44Z</time>
      </trkpt>
      <trkpt lat="47.07506" lon="6.04361">
        <ele>433.8</ele>
        <time>2024-09-01T07:36:45Z</time>
      </trkpt>
      <trkpt lat="47.07504" lon="6.0436">
        <ele>434</ele>
        <time>2024-09-01T07:36:46Z</time>
      </trkpt>
      <trkpt lat="47.07501" lon="6.0436">
        <ele>434.2</ele>
        <time>2024-09-01T07:36:47Z</time>
      </trkpt>
      <trkpt lat="47.07499" lon="6.04359">
        <ele>434.4</ele>
        <time>2024-09-01T07:36:48Z</time>
      </trkpt>
      <trkpt lat="47.07497" lon="6.04358">
        <ele>434.6</ele>
        <time>2024-09-01T07:36:49Z</time>
      </trkpt>
      <trkpt lat="47.07496" lon="6.04357">
        <ele>434.8</ele>
        <time>2024-09-01T07:36:50Z</time>
      </trkpt>
      <trkpt lat="47.07495" lon="6.04355">
        <ele>435</ele>
        <time>2024-09-01T07:36:51Z</time>
      </trkpt>
      <trkpt lat="47.07493" lon="6.04353">
        <ele>435</ele>
        <time>2024-09-01T07:36:52Z</time>
      </trkpt>
      <trkpt lat="47.07492" lon="6.04351">
        <ele>435.2</ele>
        <time>2024-09-01T07:36:53Z</time>
      </trkpt>
      <trkpt lat="47.07492" lon="6.04349">
        <ele>435.6</ele>
        <time>2024-09-01T07:36:54Z</time>
      </trkpt>
      <trkpt lat="47.07491" lon="6.04347">
        <ele>436</ele>
        <time>2024-09-01T07:36:55Z</time>
      </trkpt>
      <trkpt lat="47.0749" lon="6.04345">
        <ele>436.2</ele>
        <time>2024-09-01T07:36:56Z</time>
      </trkpt>
      <trkpt lat="47.07489" lon="6.04344">
        <ele>436.4</ele>
        <time>2024-09-01T07:36:57Z</time>
      </trkpt>
      <trkpt lat="47.07488" lon="6.04343">
        <ele>436.6</ele>
        <time>2024-09-01T07:36:58Z</time>
      </trkpt>
      <trkpt lat="47.07487" lon="6.04342">
        <ele>436.8</ele>
        <time>2024-09-01T07:36:59Z</time>
      </trkpt>
      <trkpt lat="47.07486" lon="6.04341">
        <ele>437</ele>
        <time>2024-09-01T07:37:00Z</time>
      </trkpt>
      <trkpt lat="47.07485" lon="6.04339">
        <ele>437.4</ele>
        <time>2024-09-01T07:37:01Z</time>
      </trkpt>
      <trkpt lat="47.07485" lon="6.04338">
        <ele>437.6</ele>
        <time>2024-09-01T07:37:02Z</time>
      </trkpt>
      <trkpt lat="47.07484" lon="6.04337">
        <ele>437.8</ele>
        <time>2024-09-01T07:37:03Z</time>
      </trkpt>
      <trkpt lat="47.07482" lon="6.04336">
        <ele>438</ele>
        <time>2024-09-01T07:37:04Z</time>
      </trkpt>
      <trkpt lat="47.07481" lon="6.04335">
        <ele>438.2</ele>
        <time>2024-09-01T07:37:05Z</time>
      </trkpt>
      <trkpt lat="47.0748" lon="6.04333">
        <ele>438.6</ele>
        <time>2024-09-01T07:37:06Z</time>
      </trkpt>
      <trkpt lat="47.07479" lon="6.04332">
        <ele>439</ele>
        <time>2024-09-01T07:37:07Z</time>
      </trkpt>
      <trkpt lat="47.07478" lon="6.04331">
        <ele>439</ele>
        <time>2024-09-01T07:37:08Z</time>
      </trkpt>
      <trkpt lat="47.07476" lon="6.04329">
        <ele>439.2</ele>
        <time>2024-09-01T07:37:09Z</time>
      </trkpt>
      <trkpt lat="47.07475" lon="6.04327">
        <ele>439.6</ele>
        <time>2024-09-01T07:37:10Z</time>
      </trkpt>
      <trkpt lat="47.07473" lon="6.04326">
        <ele>439.8</ele>
        <time>2024-09-01T07:37:11Z</time>
      </trkpt>
      <trkpt lat="47.07472" lon="6.04325">
        <ele>440</ele>
        <time>2024-09-01T07:37:12Z</time>
      </trkpt>
      <trkpt lat="47.07471" lon="6.04324">
        <ele>440</ele>
        <time>2024-09-01T07:37:13Z</time>
      </trkpt>
      <trkpt lat="47.07469" lon="6.04323">
        <ele>440.4</ele>
        <time>2024-09-01T07:37:14Z</time>
      </trkpt>
      <trkpt lat="47.07468" lon="6.04323">
        <ele>440.6</ele>
        <time>2024-09-01T07:37:15Z</time>
      </trkpt>
      <trkpt lat="47.07468" lon="6.04322">
        <ele>440.8</ele>
        <time>2024-09-01T07:37:16Z</time>
      </trkpt>
      <trkpt lat="47.07467" lon="6.04321">
        <ele>441.2</ele>
        <time>2024-09-01T07:37:17Z</time>
      </trkpt>
      <trkpt lat="47.07465" lon="6.04321">
        <ele>441.4</ele>
        <time>2024-09-01T07:37:18Z</time>
      </trkpt>
      <trkpt lat="47.07464" lon="6.04321">
        <ele>441.6</ele>
        <time>2024-09-01T07:37:19Z</time>
      </trkpt>
      <trkpt lat="47.07462" lon="6.04321">
        <ele>441.8</ele>
        <time>2024-09-01T07:37:20Z</time>
      </trkpt>
      <trkpt lat="47.07461" lon="6.04321">
        <ele>442</ele>
        <time>2024-09-01T07:37:21Z</time>
      </trkpt>
      <trkpt lat="47.0746" lon="6.04321">
        <ele>442.4</ele>
        <time>2024-09-01T07:37:22Z</time>
      </trkpt>
      <trkpt lat="47.07458" lon="6.04319">
        <ele>442.8</ele>
        <time>2024-09-01T07:37:23Z</time>
      </trkpt>
      <trkpt lat="47.07457" lon="6.0432">
        <ele>443</ele>
        <time>2024-09-01T07:37:24Z</time>
      </trkpt>
      <trkpt lat="47.07455" lon="6.04319">
        <ele>443.2</ele>
        <time>2024-09-01T07:37:25Z</time>
      </trkpt>
      <trkpt lat="47.07453" lon="6.0432">
        <ele>443.4</ele>
        <time>2024-09-01T07:37:26Z</time>
      </trkpt>
      <trkpt lat="47.07452" lon="6.04319">
        <ele>443.6</ele>
        <time>2024-09-01T07:37:27Z</time>
      </trkpt>
      <trkpt lat="47.0745" lon="6.04318">
        <ele>444</ele>
        <time>2024-09-01T07:37:28Z</time>
      </trkpt>
      <trkpt lat="47.07449" lon="6.04318">
        <ele>444.4</ele>
        <time>2024-09-01T07:37:29Z</time>
      </trkpt>
      <trkpt lat="47.07448" lon="6.04317">
        <ele>444.8</ele>
        <time>2024-09-01T07:37:30Z</time>
      </trkpt>
      <trkpt lat="47.07447" lon="6.04316">
        <ele>445.2</ele>
        <time>2024-09-01T07:37:31Z</time>
      </trkpt>
      <trkpt lat="47.07446" lon="6.04317">
        <ele>445.6</ele>
        <time>2024-09-01T07:37:32Z</time>
      </trkpt>
      <trkpt lat="47.07445" lon="6.04317">
        <ele>445.6</ele>
        <time>2024-09-01T07:37:33Z</time>
      </trkpt>
      <trkpt lat="47.07443" lon="6.04316">
        <ele>446</ele>
        <time>2024-09-01T07:37:34Z</time>
      </trkpt>
      <trkpt lat="47.07442" lon="6.04315">
        <ele>446.2</ele>
        <time>2024-09-01T07:37:35Z</time>
      </trkpt>
      <trkpt lat="47.07441" lon="6.04314">
        <ele>446.4</ele>
        <time>2024-09-01T07:37:36Z</time>
      </trkpt>
      <trkpt lat="47.0744" lon="6.04314">
        <ele>446.8</ele>
        <time>2024-09-01T07:37:37Z</time>
      </trkpt>
      <trkpt lat="47.07438" lon="6.04313">
        <ele>447.2</ele>
        <time>2024-09-01T07:37:38Z</time>
      </trkpt>
      <trkpt lat="47.07437" lon="6.04312">
        <ele>447.2</ele>
        <time>2024-09-01T07:37:39Z</time>
      </trkpt>
      <trkpt lat="47.07435" lon="6.04312">
        <ele>447.6</ele>
        <time>2024-09-01T07:37:40Z</time>
      </trkpt>
      <trkpt lat="47.07434" lon="6.0431">
        <ele>447.6</ele>
        <time>2024-09-01T07:37:41Z</time>
      </trkpt>
      <trkpt lat="47.07433" lon="6.04309">
        <ele>448</ele>
        <time>2024-09-01T07:37:42Z</time>
      </trkpt>
      <trkpt lat="47.07432" lon="6.04309">
        <ele>448.2</ele>
        <time>2024-09-01T07:37:43Z</time>
      </trkpt>
      <trkpt lat="47.07431" lon="6.04308">
        <ele>448.4</ele>
        <time>2024-09-01T07:37:44Z</time>
      </trkpt>
      <trkpt lat="47.07429" lon="6.04308">
        <ele>448.8</ele>
        <time>2024-09-01T07:37:45Z</time>
      </trkpt>
      <trkpt lat="47.07427" lon="6.04308">
        <ele>449</ele>
        <time>2024-09-01T07:37:46Z</time>
      </trkpt>
      <trkpt lat="47.07425" lon="6.04307">
        <ele>449</ele>
        <time>2024-09-01T07:37:47Z</time>
      </trkpt>
      <trkpt lat="47.07423" lon="6.04307">
        <ele>449.4</ele>
        <time>2024-09-01T07:37:48Z</time>
      </trkpt>
      <trkpt lat="47.07421" lon="6.04307">
        <ele>449.4</ele>
        <time>2024-09-01T07:37:49Z</time>
      </trkpt>
      <trkpt lat="47.07419" lon="6.04306">
        <ele>449.6</ele>
        <time>2024-09-01T07:37:50Z</time>
      </trkpt>
      <trkpt lat="47.07418" lon="6.04307">
        <ele>449.6</ele>
        <time>2024-09-01T07:37:51Z</time>
      </trkpt>
      <trkpt lat="47.07416" lon="6.04307">
        <ele>450</ele>
        <time>2024-09-01T07:37:52Z</time>
      </trkpt>
      <trkpt lat="47.07414" lon="6.04307">
        <ele>450</ele>
        <time>2024-09-01T07:37:53Z</time>
      </trkpt>
      <trkpt lat="47.07412" lon="6.04308">
        <ele>450.2</ele>
        <time>2024-09-01T07:37:54Z</time>
      </trkpt>
      <trkpt lat="47.0741" lon="6.04308">
        <ele>450.2</ele>
        <time>2024-09-01T07:37:55Z</time>
      </trkpt>
      <trkpt lat="47.07409" lon="6.04308">
        <ele>450.6</ele>
        <time>2024-09-01T07:37:56Z</time>
      </trkpt>
      <trkpt lat="47.07407" lon="6.04309">
        <ele>450.6</ele>
        <time>2024-09-01T07:37:57Z</time>
      </trkpt>
      <trkpt lat="47.07405" lon="6.0431">
        <ele>451</ele>
        <time>2024-09-01T07:37:58Z</time>
      </trkpt>
      <trkpt lat="47.07403" lon="6.0431">
        <ele>451</ele>
        <time>2024-09-01T07:37:59Z</time>
      </trkpt>
      <trkpt lat="47.07402" lon="6.04311">
        <ele>451.2</ele>
        <time>2024-09-01T07:38:00Z</time>
      </trkpt>
      <trkpt lat="47.074" lon="6.04311">
        <ele>451.6</ele>
        <time>2024-09-01T07:38:01Z</time>
      </trkpt>
      <trkpt lat="47.07398" lon="6.04311">
        <ele>451.8</ele>
        <time>2024-09-01T07:38:02Z</time>
      </trkpt>
      <trkpt lat="47.07396" lon="6.04311">
        <ele>452.2</ele>
        <time>2024-09-01T07:38:03Z</time>
      </trkpt>
      <trkpt lat="47.07394" lon="6.0431">
        <ele>452.2</ele>
        <time>2024-09-01T07:38:04Z</time>
      </trkpt>
      <trkpt lat="47.07392" lon="6.0431">
        <ele>452.6</ele>
        <time>2024-09-01T07:38:05Z</time>
      </trkpt>
      <trkpt lat="47.0739" lon="6.0431">
        <ele>452.6</ele>
        <time>2024-09-01T07:38:06Z</time>
      </trkpt>
      <trkpt lat="47.07389" lon="6.04309">
        <ele>452.8</ele>
        <time>2024-09-01T07:38:07Z</time>
      </trkpt>
      <trkpt lat="47.07387" lon="6.04308">
        <ele>452.8</ele>
        <time>2024-09-01T07:38:08Z</time>
      </trkpt>
      <trkpt lat="47.07385" lon="6.04309">
        <ele>453</ele>
        <time>2024-09-01T07:38:09Z</time>
      </trkpt>
      <trkpt lat="47.07384" lon="6.04308">
        <ele>453.2</ele>
        <time>2024-09-01T07:38:10Z</time>
      </trkpt>
      <trkpt lat="47.07382" lon="6.04308">
        <ele>453.4</ele>
        <time>2024-09-01T07:38:11Z</time>
      </trkpt>
      <trkpt lat="47.07381" lon="6.04308">
        <ele>453.4</ele>
        <time>2024-09-01T07:38:12Z</time>
      </trkpt>
      <trkpt lat="47.07379" lon="6.04307">
        <ele>453.6</ele>
        <time>2024-09-01T07:38:13Z</time>
      </trkpt>
      <trkpt lat="47.07377" lon="6.04306">
        <ele>453.8</ele>
        <time>2024-09-01T07:38:14Z</time>
      </trkpt>
      <trkpt lat="47.07375" lon="6.04306">
        <ele>454</ele>
        <time>2024-09-01T07:38:15Z</time>
      </trkpt>
      <trkpt lat="47.07374" lon="6.04305">
        <ele>454</ele>
        <time>2024-09-01T07:38:16Z</time>
      </trkpt>
      <trkpt lat="47.07373" lon="6.04303">
        <ele>454.4</ele>
        <time>2024-09-01T07:38:17Z</time>
      </trkpt>
      <trkpt lat="47.07372" lon="6.04304">
        <ele>454.6</ele>
        <time>2024-09-01T07:38:18Z</time>
      </trkpt>
      <trkpt lat="47.0737" lon="6.04303">
        <ele>454.8</ele>
        <time>2024-09-01T07:38:19Z</time>
      </trkpt>
      <trkpt lat="47.07369" lon="6.04303">
        <ele>455</ele>
        <time>2024-09-01T07:38:20Z</time>
      </trkpt>
      <trkpt lat="47.07368" lon="6.04303">
        <ele>455.2</ele>
        <time>2024-09-01T07:38:21Z</time>
      </trkpt>
      <trkpt lat="47.07367" lon="6.04302">
        <ele>455.4</ele>
        <time>2024-09-01T07:38:22Z</time>
      </trkpt>
      <trkpt lat="47.07366" lon="6.04301">
        <ele>455.4</ele>
        <time>2024-09-01T07:38:23Z</time>
      </trkpt>
      <trkpt lat="47.07364" lon="6.043">
        <ele>455.6</ele>
        <time>2024-09-01T07:38:24Z</time>
      </trkpt>
      <trkpt lat="47.07363" lon="6.043">
        <ele>455.6</ele>
        <time>2024-09-01T07:38:25Z</time>
      </trkpt>
      <trkpt lat="47.07362" lon="6.04299">
        <ele>455.6</ele>
        <time>2024-09-01T07:38:26Z</time>
      </trkpt>
      <trkpt lat="47.07361" lon="6.04299">
        <ele>456</ele>
        <time>2024-09-01T07:38:27Z</time>
      </trkpt>
      <trkpt lat="47.07359" lon="6.04299">
        <ele>456</ele>
        <time>2024-09-01T07:38:28Z</time>
      </trkpt>
      <trkpt lat="47.07358" lon="6.04299">
        <ele>456.2</ele>
        <time>2024-09-01T07:38:29Z</time>
      </trkpt>
      <trkpt lat="47.07357" lon="6.04299">
        <ele>456.4</ele>
        <time>2024-09-01T07:38:30Z</time>
      </trkpt>
      <trkpt lat="47.07356" lon="6.043">
        <ele>456.4</ele>
        <time>2024-09-01T07:38:31Z</time>
      </trkpt>
      <trkpt lat="47.07354" lon="6.043">
        <ele>456.6</ele>
        <time>2024-09-01T07:38:32Z</time>
      </trkpt>
      <trkpt lat="47.07352" lon="6.043">
        <ele>456.8</ele>
        <time>2024-09-01T07:38:33Z</time>
      </trkpt>
      <trkpt lat="47.0735" lon="6.04301">
        <ele>457</ele>
        <time>2024-09-01T07:38:34Z</time>
      </trkpt>
      <trkpt lat="47.07348" lon="6.04301">
        <ele>457.2</ele>
        <time>2024-09-01T07:38:35Z</time>
      </trkpt>
      <trkpt lat="47.07347" lon="6.04301">
        <ele>457.4</ele>
        <time>2024-09-01T07:38:36Z</time>
      </trkpt>
      <trkpt lat="47.07345" lon="6.04303">
        <ele>458</ele>
        <time>2024-09-01T07:38:37Z</time>
      </trkpt>
      <trkpt lat="47.07344" lon="6.04303">
        <ele>458.2</ele>
        <time>2024-09-01T07:38:38Z</time>
      </trkpt>
      <trkpt lat="47.07342" lon="6.04305">
        <ele>458.6</ele>
        <time>2024-09-01T07:38:39Z</time>
      </trkpt>
      <trkpt lat="47.0734" lon="6.04305">
        <ele>458.8</ele>
        <time>2024-09-01T07:38:40Z</time>
      </trkpt>
      <trkpt lat="47.07339" lon="6.04306">
        <ele>459.2</ele>
        <time>2024-09-01T07:38:41Z</time>
      </trkpt>
      <trkpt lat="47.07338" lon="6.04307">
        <ele>459.2</ele>
        <time>2024-09-01T07:38:42Z</time>
      </trkpt>
      <trkpt lat="47.07337" lon="6.04307">
        <ele>459.2</ele>
        <time>2024-09-01T07:38:43Z</time>
      </trkpt>
      <trkpt lat="47.07336" lon="6.04308">
        <ele>459.4</ele>
        <time>2024-09-01T07:38:44Z</time>
      </trkpt>
      <trkpt lat="47.07336" lon="6.04308">
        <ele>459.6</ele>
        <time>2024-09-01T07:38:45Z</time>
      </trkpt>
      <trkpt lat="47.07335" lon="6.04309">
        <ele>459.6</ele>
        <time>2024-09-01T07:38:46Z</time>
      </trkpt>
      <trkpt lat="47.07334" lon="6.0431">
        <ele>460</ele>
        <time>2024-09-01T07:38:47Z</time>
      </trkpt>
      <trkpt lat="47.07332" lon="6.04311">
        <ele>460.4</ele>
        <time>2024-09-01T07:38:48Z</time>
      </trkpt>
      <trkpt lat="47.07331" lon="6.04311">
        <ele>460.4</ele>
        <time>2024-09-01T07:38:49Z</time>
      </trkpt>
      <trkpt lat="47.07331" lon="6.04312">
        <ele>460.8</ele>
        <time>2024-09-01T07:38:50Z</time>
      </trkpt>
      <trkpt lat="47.0733" lon="6.04313">
        <ele>461</ele>
        <time>2024-09-01T07:38:51Z</time>
      </trkpt>
      <trkpt lat="47.07329" lon="6.04314">
        <ele>461.2</ele>
        <time>2024-09-01T07:38:52Z</time>
      </trkpt>
      <trkpt lat="47.07328" lon="6.04315">
        <ele>461.4</ele>
        <time>2024-09-01T07:38:53Z</time>
      </trkpt>
      <trkpt lat="47.07328" lon="6.04316">
        <ele>461.6</ele>
        <time>2024-09-01T07:38:54Z</time>
      </trkpt>
      <trkpt lat="47.07326" lon="6.04318">
        <ele>461.8</ele>
        <time>2024-09-01T07:38:55Z</time>
      </trkpt>
      <trkpt lat="47.07326" lon="6.04319">
        <ele>462</ele>
        <time>2024-09-01T07:38:56Z</time>
      </trkpt>
      <trkpt lat="47.07325" lon="6.04319">
        <ele>462</ele>
        <time>2024-09-01T07:38:57Z</time>
      </trkpt>
      <trkpt lat="47.07324" lon="6.0432">
        <ele>462.2</ele>
        <time>2024-09-01T07:38:58Z</time>
      </trkpt>
      <trkpt lat="47.07324" lon="6.04322">
        <ele>462.4</ele>
        <time>2024-09-01T07:38:59Z</time>
      </trkpt>
      <trkpt lat="47.07324" lon="6.04323">
        <ele>462.8</ele>
        <time>2024-09-01T07:39:00Z</time>
      </trkpt>
      <trkpt lat="47.07323" lon="6.04325">
        <ele>463</ele>
        <time>2024-09-01T07:39:01Z</time>
      </trkpt>
      <trkpt lat="47.07321" lon="6.04327">
        <ele>463.2</ele>
        <time>2024-09-01T07:39:02Z</time>
      </trkpt>
      <trkpt lat="47.07319" lon="6.0433">
        <ele>463.6</ele>
        <time>2024-09-01T07:39:03Z</time>
      </trkpt>
      <trkpt lat="47.07317" lon="6.04332">
        <ele>463.8</ele>
        <time>2024-09-01T07:39:04Z</time>
      </trkpt>
      <trkpt lat="47.07314" lon="6.04335">
        <ele>463.8</ele>
        <time>2024-09-01T07:39:05Z</time>
      </trkpt>
      <trkpt lat="47.07313" lon="6.04338">
        <ele>464.2</ele>
        <time>2024-09-01T07:39:06Z</time>
      </trkpt>
      <trkpt lat="47.07311" lon="6.0434">
        <ele>464.4</ele>
        <time>2024-09-01T07:39:07Z</time>
      </trkpt>
      <trkpt lat="47.0731" lon="6.04342">
        <ele>464.8</ele>
        <time>2024-09-01T07:39:08Z</time>
      </trkpt>
      <trkpt lat="47.07309" lon="6.04344">
        <ele>465.2</ele>
        <time>2024-09-01T07:39:09Z</time>
      </trkpt>
      <trkpt lat="47.07308" lon="6.04346">
        <ele>465.6</ele>
        <time>2024-09-01T07:39:10Z</time>
      </trkpt>
      <trkpt lat="47.07307" lon="6.04347">
        <ele>466</ele>
        <time>2024-09-01T07:39:11Z</time>
      </trkpt>
      <trkpt lat="47.07306" lon="6.04349">
        <ele>466.6</ele>
        <time>2024-09-01T07:39:12Z</time>
      </trkpt>
      <trkpt lat="47.07305" lon="6.04351">
        <ele>466.8</ele>
        <time>2024-09-01T07:39:13Z</time>
      </trkpt>
      <trkpt lat="47.07305" lon="6.04352">
        <ele>467</ele>
        <time>2024-09-01T07:39:14Z</time>
      </trkpt>
      <trkpt lat="47.07304" lon="6.04354">
        <ele>467.4</ele>
        <time>2024-09-01T07:39:15Z</time>
      </trkpt>
      <trkpt lat="47.07303" lon="6.04355">
        <ele>467.8</ele>
        <time>2024-09-01T07:39:16Z</time>
      </trkpt>
      <trkpt lat="47.07302" lon="6.04357">
        <ele>468</ele>
        <time>2024-09-01T07:39:17Z</time>
      </trkpt>
      <trkpt lat="47.07301" lon="6.04359">
        <ele>468.6</ele>
        <time>2024-09-01T07:39:18Z</time>
      </trkpt>
      <trkpt lat="47.07301" lon="6.0436">
        <ele>468.8</ele>
        <time>2024-09-01T07:39:19Z</time>
      </trkpt>
      <trkpt lat="47.073" lon="6.04361">
        <ele>469.2</ele>
        <time>2024-09-01T07:39:20Z</time>
      </trkpt>
      <trkpt lat="47.07301" lon="6.04363">
        <ele>469.4</ele>
        <time>2024-09-01T07:39:21Z</time>
      </trkpt>
      <trkpt lat="47.073" lon="6.04365">
        <ele>469.8</ele>
        <time>2024-09-01T07:39:22Z</time>
      </trkpt>
      <trkpt lat="47.073" lon="6.04366">
        <ele>470.2</ele>
        <time>2024-09-01T07:39:23Z</time>
      </trkpt>
      <trkpt lat="47.073" lon="6.04367">
        <ele>470.6</ele>
        <time>2024-09-01T07:39:24Z</time>
      </trkpt>
      <trkpt lat="47.073" lon="6.04368">
        <ele>470.8</ele>
        <time>2024-09-01T07:39:25Z</time>
      </trkpt>
      <trkpt lat="47.07299" lon="6.04369">
        <ele>471.4</ele>
        <time>2024-09-01T07:39:26Z</time>
      </trkpt>
      <trkpt lat="47.07299" lon="6.04371">
        <ele>471.6</ele>
        <time>2024-09-01T07:39:27Z</time>
      </trkpt>
      <trkpt lat="47.07298" lon="6.04372">
        <ele>472</ele>
        <time>2024-09-01T07:39:28Z</time>
      </trkpt>
      <trkpt lat="47.07297" lon="6.04373">
        <ele>472.2</ele>
        <time>2024-09-01T07:39:29Z</time>
      </trkpt>
      <trkpt lat="47.07297" lon="6.04374">
        <ele>472.6</ele>
        <time>2024-09-01T07:39:30Z</time>
      </trkpt>
      <trkpt lat="47.07297" lon="6.04376">
        <ele>472.8</ele>
        <time>2024-09-01T07:39:31Z</time>
      </trkpt>
      <trkpt lat="47.07296" lon="6.04377">
        <ele>473</ele>
        <time>2024-09-01T07:39:32Z</time>
      </trkpt>
      <trkpt lat="47.07295" lon="6.04378">
        <ele>473.4</ele>
        <time>2024-09-01T07:39:33Z</time>
      </trkpt>
      <trkpt lat="47.07294" lon="6.04379">
        <ele>473.8</ele>
        <time>2024-09-01T07:39:34Z</time>
      </trkpt>
      <trkpt lat="47.07293" lon="6.0438">
        <ele>473.8</ele>
        <time>2024-09-01T07:39:35Z</time>
      </trkpt>
      <trkpt lat="47.07292" lon="6.04381">
        <ele>474.4</ele>
        <time>2024-09-01T07:39:36Z</time>
      </trkpt>
      <trkpt lat="47.07291" lon="6.04381">
        <ele>474.6</ele>
        <time>2024-09-01T07:39:37Z</time>
      </trkpt>
      <trkpt lat="47.0729" lon="6.04381">
        <ele>474.8</ele>
        <time>2024-09-01T07:39:38Z</time>
      </trkpt>
      <trkpt lat="47.07289" lon="6.04382">
        <ele>475.2</ele>
        <time>2024-09-01T07:39:39Z</time>
      </trkpt>
      <trkpt lat="47.07288" lon="6.04381">
        <ele>475.6</ele>
        <time>2024-09-01T07:39:40Z</time>
      </trkpt>
      <trkpt lat="47.07288" lon="6.0438">
        <ele>475.6</ele>
        <time>2024-09-01T07:39:41Z</time>
      </trkpt>
      <trkpt lat="47.07287" lon="6.0438">
        <ele>476.2</ele>
        <time>2024-09-01T07:39:42Z</time>
      </trkpt>
      <trkpt lat="47.07287" lon="6.04379">
        <ele>476.4</ele>
        <time>2024-09-01T07:39:43Z</time>
      </trkpt>
      <trkpt lat="47.07285" lon="6.04377">
        <ele>476.8</ele>
        <time>2024-09-01T07:39:44Z</time>
      </trkpt>
      <trkpt lat="47.07284" lon="6.04375">
        <ele>477</ele>
        <time>2024-09-01T07:39:45Z</time>
      </trkpt>
      <trkpt lat="47.07283" lon="6.04374">
        <ele>477.4</ele>
        <time>2024-09-01T07:39:46Z</time>
      </trkpt>
      <trkpt lat="47.07281" lon="6.04372">
        <ele>477.6</ele>
        <time>2024-09-01T07:39:47Z</time>
      </trkpt>
      <trkpt lat="47.07279" lon="6.0437">
        <ele>477.8</ele>
        <time>2024-09-01T07:39:48Z</time>
      </trkpt>
      <trkpt lat="47.07278" lon="6.04368">
        <ele>478</ele>
        <time>2024-09-01T07:39:49Z</time>
      </trkpt>
      <trkpt lat="47.07277" lon="6.04366">
        <ele>478.4</ele>
        <time>2024-09-01T07:39:50Z</time>
      </trkpt>
      <trkpt lat="47.07276" lon="6.04364">
        <ele>478.6</ele>
        <time>2024-09-01T07:39:51Z</time>
      </trkpt>
      <trkpt lat="47.07276" lon="6.04362">
        <ele>478.8</ele>
        <time>2024-09-01T07:39:52Z</time>
      </trkpt>
      <trkpt lat="47.07275" lon="6.0436">
        <ele>478.8</ele>
        <time>2024-09-01T07:39:53Z</time>
      </trkpt>
      <trkpt lat="47.07274" lon="6.04359">
        <ele>479</ele>
        <time>2024-09-01T07:39:54Z</time>
      </trkpt>
      <trkpt lat="47.07273" lon="6.04357">
        <ele>479</ele>
        <time>2024-09-01T07:39:55Z</time>
      </trkpt>
      <trkpt lat="47.07272" lon="6.04355">
        <ele>479</ele>
        <time>2024-09-01T07:39:56Z</time>
      </trkpt>
      <trkpt lat="47.07271" lon="6.04353">
        <ele>479.2</ele>
        <time>2024-09-01T07:39:57Z</time>
      </trkpt>
      <trkpt lat="47.07269" lon="6.04352">
        <ele>479.4</ele>
        <time>2024-09-01T07:39:58Z</time>
      </trkpt>
      <trkpt lat="47.07268" lon="6.04349">
        <ele>479.8</ele>
        <time>2024-09-01T07:39:59Z</time>
      </trkpt>
      <trkpt lat="47.07267" lon="6.04347">
        <ele>479.8</ele>
        <time>2024-09-01T07:40:00Z</time>
      </trkpt>
      <trkpt lat="47.07266" lon="6.04345">
        <ele>480</ele>
        <time>2024-09-01T07:40:01Z</time>
      </trkpt>
      <trkpt lat="47.07265" lon="6.04343">
        <ele>480.4</ele>
        <time>2024-09-01T07:40:02Z</time>
      </trkpt>
      <trkpt lat="47.07265" lon="6.04341">
        <ele>480.6</ele>
        <time>2024-09-01T07:40:03Z</time>
      </trkpt>
      <trkpt lat="47.07265" lon="6.04338">
        <ele>481</ele>
        <time>2024-09-01T07:40:04Z</time>
      </trkpt>
      <trkpt lat="47.07264" lon="6.04337">
        <ele>481</ele>
        <time>2024-09-01T07:40:05Z</time>
      </trkpt>
      <trkpt lat="47.07263" lon="6.04335">
        <ele>481.4</ele>
        <time>2024-09-01T07:40:06Z</time>
      </trkpt>
      <trkpt lat="47.07262" lon="6.04333">
        <ele>481.8</ele>
        <time>2024-09-01T07:40:07Z</time>
      </trkpt>
      <trkpt lat="47.07261" lon="6.04332">
        <ele>481.8</ele>
        <time>2024-09-01T07:40:08Z</time>
      </trkpt>
      <trkpt lat="47.0726" lon="6.04331">
        <ele>482.4</ele>
        <time>2024-09-01T07:40:09Z</time>
      </trkpt>
      <trkpt lat="47.07259" lon="6.0433">
        <ele>482.6</ele>
        <time>2024-09-01T07:40:10Z</time>
      </trkpt>
      <trkpt lat="47.07257" lon="6.04328">
        <ele>482.6</ele>
        <time>2024-09-01T07:40:11Z</time>
      </trkpt>
      <trkpt lat="47.07256" lon="6.04326">
        <ele>482.8</ele>
        <time>2024-09-01T07:40:12Z</time>
      </trkpt>
      <trkpt lat="47.07255" lon="6.04325">
        <ele>483.2</ele>
        <time>2024-09-01T07:40:13Z</time>
      </trkpt>
      <trkpt lat="47.07255" lon="6.04323">
        <ele>483.4</ele>
        <time>2024-09-01T07:40:14Z</time>
      </trkpt>
      <trkpt lat="47.07254" lon="6.0432">
        <ele>483.6</ele>
        <time>2024-09-01T07:40:15Z</time>
      </trkpt>
      <trkpt lat="47.07252" lon="6.04317">
        <ele>483.8</ele>
        <time>2024-09-01T07:40:16Z</time>
      </trkpt>
      <trkpt lat="47.07251" lon="6.04315">
        <ele>484</ele>
        <time>2024-09-01T07:40:17Z</time>
      </trkpt>
      <trkpt lat="47.0725" lon="6.04312">
        <ele>484.4</ele>
        <time>2024-09-01T07:40:18Z</time>
      </trkpt>
      <trkpt lat="47.07248" lon="6.0431">
        <ele>484.6</ele>
        <time>2024-09-01T07:40:19Z</time>
      </trkpt>
      <trkpt lat="47.07246" lon="6.04309">
        <ele>484.8</ele>
        <time>2024-09-01T07:40:20Z</time>
      </trkpt>
      <trkpt lat="47.07244" lon="6.04309">
        <ele>485</ele>
        <time>2024-09-01T07:40:21Z</time>
      </trkpt>
      <trkpt lat="47.07242" lon="6.04308">
        <ele>485.4</ele>
        <time>2024-09-01T07:40:22Z</time>
      </trkpt>
      <trkpt lat="47.0724" lon="6.04308">
        <ele>485.6</ele>
        <time>2024-09-01T07:40:23Z</time>
      </trkpt>
      <trkpt lat="47.07239" lon="6.04309">
        <ele>486</ele>
        <time>2024-09-01T07:40:24Z</time>
      </trkpt>
      <trkpt lat="47.07237" lon="6.04309">
        <ele>486.4</ele>
        <time>2024-09-01T07:40:25Z</time>
      </trkpt>
      <trkpt lat="47.07235" lon="6.04308">
        <ele>486.8</ele>
        <time>2024-09-01T07:40:26Z</time>
      </trkpt>
      <trkpt lat="47.07234" lon="6.04307">
        <ele>487</ele>
        <time>2024-09-01T07:40:27Z</time>
      </trkpt>
      <trkpt lat="47.07232" lon="6.04307">
        <ele>487.2</ele>
        <time>2024-09-01T07:40:28Z</time>
      </trkpt>
      <trkpt lat="47.0723" lon="6.04305">
        <ele>487.6</ele>
        <time>2024-09-01T07:40:29Z</time>
      </trkpt>
      <trkpt lat="47.07228" lon="6.04304">
        <ele>488</ele>
        <time>2024-09-01T07:40:30Z</time>
      </trkpt>
      <trkpt lat="47.07226" lon="6.04302">
        <ele>488.2</ele>
        <time>2024-09-01T07:40:31Z</time>
      </trkpt>
      <trkpt lat="47.07223" lon="6.04301">
        <ele>488.4</ele>
        <time>2024-09-01T07:40:32Z</time>
      </trkpt>
      <trkpt lat="47.0722" lon="6.043">
        <ele>488.6</ele>
        <time>2024-09-01T07:40:33Z</time>
      </trkpt>
      <trkpt lat="47.07218" lon="6.04298">
        <ele>489</ele>
        <time>2024-09-01T07:40:34Z</time>
      </trkpt>
      <trkpt lat="47.07216" lon="6.04296">
        <ele>489.2</ele>
        <time>2024-09-01T07:40:35Z</time>
      </trkpt>
      <trkpt lat="47.07213" lon="6.04295">
        <ele>489.4</ele>
        <time>2024-09-01T07:40:36Z</time>
      </trkpt>
      <trkpt lat="47.07211" lon="6.04293">
        <ele>489.6</ele>
        <time>2024-09-01T07:40:37Z</time>
      </trkpt>
      <trkpt lat="47.07208" lon="6.04292">
        <ele>489.8</ele>
        <time>2024-09-01T07:40:38Z</time>
      </trkpt>
      <trkpt lat="47.07206" lon="6.0429">
        <ele>490</ele>
        <time>2024-09-01T07:40:39Z</time>
      </trkpt>
      <trkpt lat="47.07204" lon="6.04288">
        <ele>490.2</ele>
        <time>2024-09-01T07:40:40Z</time>
      </trkpt>
      <trkpt lat="47.07202" lon="6.04286">
        <ele>490.6</ele>
        <time>2024-09-01T07:40:41Z</time>
      </trkpt>
      <trkpt lat="47.07199" lon="6.04284">
        <ele>490.8</ele>
        <time>2024-09-01T07:40:42Z</time>
      </trkpt>
      <trkpt lat="47.07198" lon="6.04282">
        <ele>491</ele>
        <time>2024-09-01T07:40:43Z</time>
      </trkpt>
      <trkpt lat="47.07196" lon="6.04279">
        <ele>491</ele>
        <time>2024-09-01T07:40:44Z</time>
      </trkpt>
      <trkpt lat="47.07195" lon="6.04276">
        <ele>491.4</ele>
        <time>2024-09-01T07:40:45Z</time>
      </trkpt>
      <trkpt lat="47.07194" lon="6.04274">
        <ele>491.6</ele>
        <time>2024-09-01T07:40:46Z</time>
      </trkpt>
      <trkpt lat="47.07193" lon="6.04271">
        <ele>491.6</ele>
        <time>2024-09-01T07:40:47Z</time>
      </trkpt>
      <trkpt lat="47.07191" lon="6.04268">
        <ele>491.8</ele>
        <time>2024-09-01T07:40:48Z</time>
      </trkpt>
      <trkpt lat="47.0719" lon="6.04265">
        <ele>492</ele>
        <time>2024-09-01T07:40:49Z</time>
      </trkpt>
      <trkpt lat="47.07189" lon="6.04263">
        <ele>492</ele>
        <time>2024-09-01T07:40:50Z</time>
      </trkpt>
      <trkpt lat="47.07187" lon="6.0426">
        <ele>492.2</ele>
        <time>2024-09-01T07:40:51Z</time>
      </trkpt>
      <trkpt lat="47.07185" lon="6.04258">
        <ele>492.4</ele>
        <time>2024-09-01T07:40:52Z</time>
      </trkpt>
      <trkpt lat="47.07182" lon="6.04257">
        <ele>492.6</ele>
        <time>2024-09-01T07:40:53Z</time>
      </trkpt>
      <trkpt lat="47.0718" lon="6.04255">
        <ele>493</ele>
        <time>2024-09-01T07:40:54Z</time>
      </trkpt>
      <trkpt lat="47.07178" lon="6.04254">
        <ele>493.4</ele>
        <time>2024-09-01T07:40:55Z</time>
      </trkpt>
      <trkpt lat="47.07175" lon="6.04253">
        <ele>493.6</ele>
        <time>2024-09-01T07:40:56Z</time>
      </trkpt>
      <trkpt lat="47.07173" lon="6.04251">
        <ele>493.8</ele>
        <time>2024-09-01T07:40:57Z</time>
      </trkpt>
      <trkpt lat="47.07171" lon="6.0425">
        <ele>493.8</ele>
        <time>2024-09-01T07:40:58Z</time>
      </trkpt>
      <trkpt lat="47.07168" lon="6.04249">
        <ele>493.8</ele>
        <time>2024-09-01T07:40:59Z</time>
      </trkpt>
      <trkpt lat="47.07166" lon="6.04248">
        <ele>494</ele>
        <time>2024-09-01T07:41:00Z</time>
      </trkpt>
      <trkpt lat="47.07164" lon="6.04247">
        <ele>494</ele>
        <time>2024-09-01T07:41:01Z</time>
      </trkpt>
      <trkpt lat="47.07161" lon="6.04246">
        <ele>494.2</ele>
        <time>2024-09-01T07:41:02Z</time>
      </trkpt>
      <trkpt lat="47.0716" lon="6.04246">
        <ele>494.2</ele>
        <time>2024-09-01T07:41:03Z</time>
      </trkpt>
      <trkpt lat="47.07158" lon="6.04245">
        <ele>494.2</ele>
        <time>2024-09-01T07:41:04Z</time>
      </trkpt>
      <trkpt lat="47.07156" lon="6.04244">
        <ele>494.4</ele>
        <time>2024-09-01T07:41:05Z</time>
      </trkpt>
      <trkpt lat="47.07154" lon="6.04244">
        <ele>494.6</ele>
        <time>2024-09-01T07:41:06Z</time>
      </trkpt>
      <trkpt lat="47.07152" lon="6.04243">
        <ele>494.4</ele>
        <time>2024-09-01T07:41:07Z</time>
      </trkpt>
      <trkpt lat="47.0715" lon="6.04243">
        <ele>494.6</ele>
        <time>2024-09-01T07:41:08Z</time>
      </trkpt>
      <trkpt lat="47.07148" lon="6.04242">
        <ele>494.8</ele>
        <time>2024-09-01T07:41:09Z</time>
      </trkpt>
      <trkpt lat="47.07145" lon="6.04243">
        <ele>494.8</ele>
        <time>2024-09-01T07:41:10Z</time>
      </trkpt>
      <trkpt lat="47.07144" lon="6.04245">
        <ele>494.8</ele>
        <time>2024-09-01T07:41:11Z</time>
      </trkpt>
      <trkpt lat="47.07143" lon="6.04246">
        <ele>495</ele>
        <time>2024-09-01T07:41:12Z</time>
      </trkpt>
      <trkpt lat="47.07142" lon="6.04249">
        <ele>494.8</ele>
        <time>2024-09-01T07:41:13Z</time>
      </trkpt>
      <trkpt lat="47.07143" lon="6.04251">
        <ele>495.2</ele>
        <time>2024-09-01T07:41:14Z</time>
      </trkpt>
      <trkpt lat="47.07143" lon="6.04253">
        <ele>495</ele>
        <time>2024-09-01T07:41:15Z</time>
      </trkpt>
      <trkpt lat="47.07143" lon="6.04256">
        <ele>495</ele>
        <time>2024-09-01T07:41:16Z</time>
      </trkpt>
      <trkpt lat="47.07143" lon="6.04258">
        <ele>495.2</ele>
        <time>2024-09-01T07:41:17Z</time>
      </trkpt>
      <trkpt lat="47.07142" lon="6.0426">
        <ele>495.2</ele>
        <time>2024-09-01T07:41:18Z</time>
      </trkpt>
      <trkpt lat="47.07142" lon="6.04262">
        <ele>495.2</ele>
        <time>2024-09-01T07:41:19Z</time>
      </trkpt>
      <trkpt lat="47.07141" lon="6.04264">
        <ele>495.4</ele>
        <time>2024-09-01T07:41:20Z</time>
      </trkpt>
      <trkpt lat="47.07141" lon="6.04265">
        <ele>495.4</ele>
        <time>2024-09-01T07:41:21Z</time>
      </trkpt>
      <trkpt lat="47.0714" lon="6.04266">
        <ele>495.6</ele>
        <time>2024-09-01T07:41:22Z</time>
      </trkpt>
      <trkpt lat="47.0714" lon="6.04266">
        <ele>495.6</ele>
        <time>2024-09-01T07:41:23Z</time>
      </trkpt>
      <trkpt lat="47.07139" lon="6.04266">
        <ele>495.4</ele>
        <time>2024-09-01T07:41:24Z</time>
      </trkpt>
      <trkpt lat="47.07138" lon="6.04267">
        <ele>495.4</ele>
        <time>2024-09-01T07:41:25Z</time>
      </trkpt>
      <trkpt lat="47.07137" lon="6.04267">
        <ele>495.4</ele>
        <time>2024-09-01T07:41:26Z</time>
      </trkpt>
      <trkpt lat="47.07137" lon="6.04268">
        <ele>495.4</ele>
        <time>2024-09-01T07:41:27Z</time>
      </trkpt>
      <trkpt lat="47.07136" lon="6.04268">
        <ele>495.6</ele>
        <time>2024-09-01T07:41:28Z</time>
      </trkpt>
      <trkpt lat="47.07136" lon="6.04268">
        <ele>495.4</ele>
        <time>2024-09-01T07:41:29Z</time>
      </trkpt>
      <trkpt lat="47.07136" lon="6.04268">
        <ele>495.6</ele>
        <time>2024-09-01T07:41:30Z</time>
      </trkpt>
      <trkpt lat="47.07135" lon="6.04269">
        <ele>495.4</ele>
        <time>2024-09-01T07:41:31Z</time>
      </trkpt>
      <trkpt lat="47.07135" lon="6.0427">
        <ele>495.4</ele>
        <time>2024-09-01T07:41:32Z</time>
      </trkpt>
      <trkpt lat="47.07135" lon="6.0427">
        <ele>495.6</ele>
        <time>2024-09-01T07:41:33Z</time>
      </trkpt>
      <trkpt lat="47.07135" lon="6.04271">
        <ele>495.4</ele>
        <time>2024-09-01T07:41:34Z</time>
      </trkpt>
      <trkpt lat="47.07135" lon="6.04271">
        <ele>495.4</ele>
        <time>2024-09-01T07:41:35Z</time>
      </trkpt>
      <trkpt lat="47.07135" lon="6.04272">
        <ele>495.4</ele>
        <time>2024-09-01T07:41:36Z</time>
      </trkpt>
      <trkpt lat="47.07134" lon="6.04272">
        <ele>495.6</ele>
        <time>2024-09-01T07:41:37Z</time>
      </trkpt>
      <trkpt lat="47.07134" lon="6.04272">
        <ele>495.6</ele>
        <time>2024-09-01T07:41:38Z</time>
      </trkpt>
      <trkpt lat="47.07134" lon="6.04273">
        <ele>495.6</ele>
        <time>2024-09-01T07:41:39Z</time>
      </trkpt>
      <trkpt lat="47.07133" lon="6.04274">
        <ele>495.6</ele>
        <time>2024-09-01T07:41:40Z</time>
      </trkpt>
      <trkpt lat="47.07133" lon="6.04274">
        <ele>495.6</ele>
        <time>2024-09-01T07:41:41Z</time>
      </trkpt>
      <trkpt lat="47.07133" lon="6.04274">
        <ele>495.6</ele>
        <time>2024-09-01T07:41:42Z</time>
      </trkpt>
      <trkpt lat="47.07133" lon="6.04274">
        <ele>495.6</ele>
        <time>2024-09-01T07:41:43Z</time>
      </trkpt>
      <trkpt lat="47.07133" lon="6.04274">
        <ele>495.4</ele>
        <time>2024-09-01T07:41:44Z</time>
      </trkpt>
      <trkpt lat="47.07133" lon="6.04274">
        <ele>495.6</ele>
        <time>2024-09-01T07:41:45Z</time>
      </trkpt>
      <trkpt lat="47.07134" lon="6.04274">
        <ele>495.6</ele>
        <time>2024-09-01T07:41:46Z</time>
      </trkpt>
      <trkpt lat="47.07134" lon="6.04273">
        <ele>495.6</ele>
        <time>2024-09-01T07:41:47Z</time>
      </trkpt>
      <trkpt lat="47.07134" lon="6.04273">
        <ele>495.6</ele>
        <time>2024-09-01T07:41:48Z</time>
      </trkpt>
      <trkpt lat="47.07135" lon="6.04273">
        <ele>495.6</ele>
        <time>2024-09-01T07:41:49Z</time>
      </trkpt>
      <trkpt lat="47.07135" lon="6.04273">
        <ele>495.6</ele>
        <time>2024-09-01T07:41:50Z</time>
      </trkpt>
      <trkpt lat="47.07135" lon="6.04272">
        <ele>495.6</ele>
        <time>2024-09-01T07:41:51Z</time>
      </trkpt>
      <trkpt lat="47.07136" lon="6.04271">
        <ele>495.6</ele>
        <time>2024-09-01T07:41:52Z</time>
      </trkpt>
      <trkpt lat="47.07135" lon="6.04272">
        <ele>495.6</ele>
        <time>2024-09-01T07:41:53Z</time>
      </trkpt>
      <trkpt lat="47.07135" lon="6.04272">
        <ele>495.8</ele>
        <time>2024-09-01T07:41:54Z</time>
      </trkpt>
      <trkpt lat="47.07135" lon="6.04272">
        <ele>495.6</ele>
        <time>2024-09-01T07:41:55Z</time>
      </trkpt>
      <trkpt lat="47.07135" lon="6.04272">
        <ele>495.6</ele>
        <time>2024-09-01T07:41:56Z</time>
      </trkpt>
      <trkpt lat="47.07135" lon="6.04272">
        <ele>495.8</ele>
        <time>2024-09-01T07:41:57Z</time>
      </trkpt>
      <trkpt lat="47.07135" lon="6.04272">
        <ele>495.6</ele>
        <time>2024-09-01T07:41:58Z</time>
      </trkpt>
      <trkpt lat="47.07135" lon="6.04271">
        <ele>495.8</ele>
        <time>2024-09-01T07:41:59Z</time>
      </trkpt>
      <trkpt lat="47.07135" lon="6.04272">
        <ele>495.8</ele>
        <time>2024-09-01T07:42:00Z</time>
      </trkpt>
      <trkpt lat="47.07135" lon="6.04272">
        <ele>495.8</ele>
        <time>2024-09-01T07:42:01Z</time>
      </trkpt>
      <trkpt lat="47.07135" lon="6.04272">
        <ele>495.6</ele>
        <time>2024-09-01T07:42:02Z</time>
      </trkpt>
      <trkpt lat="47.07135" lon="6.04272">
        <ele>495.6</ele>
        <time>2024-09-01T07:42:03Z</time>
      </trkpt>
      <trkpt lat="47.07135" lon="6.04272">
        <ele>495.6</ele>
        <time>2024-09-01T07:42:04Z</time>
      </trkpt>
      <trkpt lat="47.07135" lon="6.04272">
        <ele>495.8</ele>
        <time>2024-09-01T07:42:05Z</time>
      </trkpt>
      <trkpt lat="47.07135" lon="6.04272">
        <ele>495.8</ele>
        <time>2024-09-01T07:42:06Z</time>
      </trkpt>
      <trkpt lat="47.07135" lon="6.04272">
        <ele>495.8</ele>
        <time>2024-09-01T07:42:07Z</time>
      </trkpt>
      <trkpt lat="47.07135" lon="6.04271">
        <ele>495.8</ele>
        <time>2024-09-01T07:42:08Z</time>
      </trkpt>
      <trkpt lat="47.07135" lon="6.04272">
        <ele>495.8</ele>
        <time>2024-09-01T07:42:09Z</time>
      </trkpt>
      <trkpt lat="47.07135" lon="6.04272">
        <ele>495.8</ele>
        <time>2024-09-01T07:42:10Z</time>
      </trkpt>
      <trkpt lat="47.07134" lon="6.04272">
        <ele>495.8</ele>
        <time>2024-09-01T07:42:11Z</time>
      </trkpt>
      <trkpt lat="47.07134" lon="6.04272">
        <ele>495.8</ele>
        <time>2024-09-01T07:42:12Z</time>
      </trkpt>
      <trkpt lat="47.07134" lon="6.04272">
        <ele>495.6</ele>
        <time>2024-09-01T07:42:13Z</time>
      </trkpt>
      <trkpt lat="47.07134" lon="6.04272">
        <ele>495.8</ele>
        <time>2024-09-01T07:42:14Z</time>
      </trkpt>
      <trkpt lat="47.07134" lon="6.04271">
        <ele>495.8</ele>
        <time>2024-09-01T07:42:15Z</time>
      </trkpt>
      <trkpt lat="47.07134" lon="6.04271">
        <ele>495.8</ele>
        <time>2024-09-01T07:42:16Z</time>
      </trkpt>
      <trkpt lat="47.07134" lon="6.04271">
        <ele>495.8</ele>
        <time>2024-09-01T07:42:17Z</time>
      </trkpt>
      <trkpt lat="47.07134" lon="6.0427">
        <ele>495.8</ele>
        <time>2024-09-01T07:42:18Z</time>
      </trkpt>
      <trkpt lat="47.07134" lon="6.0427">
        <ele>495.8</ele>
        <time>2024-09-01T07:42:19Z</time>
      </trkpt>
      <trkpt lat="47.07134" lon="6.0427">
        <ele>495.8</ele>
        <time>2024-09-01T07:42:20Z</time>
      </trkpt>
      <trkpt lat="47.07134" lon="6.0427">
        <ele>495.6</ele>
        <time>2024-09-01T07:42:21Z</time>
      </trkpt>
      <trkpt lat="47.07134" lon="6.04269">
        <ele>495.6</ele>
        <time>2024-09-01T07:42:22Z</time>
      </trkpt>
      <trkpt lat="47.07134" lon="6.04269">
        <ele>495.6</ele>
        <time>2024-09-01T07:42:23Z</time>
      </trkpt>
      <trkpt lat="47.07134" lon="6.04269">
        <ele>495.8</ele>
        <time>2024-09-01T07:42:24Z</time>
      </trkpt>
      <trkpt lat="47.07134" lon="6.04269">
        <ele>495.8</ele>
        <time>2024-09-01T07:42:25Z</time>
      </trkpt>
      <trkpt lat="47.07134" lon="6.04269">
        <ele>495.8</ele>
        <time>2024-09-01T07:42:26Z</time>
      </trkpt>
      <trkpt lat="47.07134" lon="6.04269">
        <ele>495.8</ele>
        <time>2024-09-01T07:42:27Z</time>
      </trkpt>
      <trkpt lat="47.07134" lon="6.04269">
        <ele>495.8</ele>
        <time>2024-09-01T07:42:28Z</time>
      </trkpt>
      <trkpt lat="47.07134" lon="6.04269">
        <ele>495.8</ele>
        <time>2024-09-01T07:42:29Z</time>
      </trkpt>
      <trkpt lat="47.07134" lon="6.04269">
        <ele>495.6</ele>
        <time>2024-09-01T07:42:30Z</time>
      </trkpt>
      <trkpt lat="47.07134" lon="6.04269">
        <ele>495.8</ele>
        <time>2024-09-01T07:42:31Z</time>
      </trkpt>
      <trkpt lat="47.07134" lon="6.04269">
        <ele>495.8</ele>
        <time>2024-09-01T07:42:32Z</time>
      </trkpt>
      <trkpt lat="47.07133" lon="6.04269">
        <ele>495.6</ele>
        <time>2024-09-01T07:42:33Z</time>
      </trkpt>
      <trkpt lat="47.07133" lon="6.04269">
        <ele>495.6</ele>
        <time>2024-09-01T07:42:34Z</time>
      </trkpt>
      <trkpt lat="47.07133" lon="6.04269">
        <ele>495.8</ele>
        <time>2024-09-01T07:42:35Z</time>
      </trkpt>
      <trkpt lat="47.07133" lon="6.04269">
        <ele>495.8</ele>
        <time>2024-09-01T07:42:36Z</time>
      </trkpt>
      <trkpt lat="47.07133" lon="6.04269">
        <ele>495.6</ele>
        <time>2024-09-01T07:42:37Z</time>
      </trkpt>
      <trkpt lat="47.07133" lon="6.04269">
        <ele>495.8</ele>
        <time>2024-09-01T07:42:38Z</time>
      </trkpt>
      <trkpt lat="47.07133" lon="6.04269">
        <ele>495.8</ele>
        <time>2024-09-01T07:42:39Z</time>
      </trkpt>
      <trkpt lat="47.07133" lon="6.04269">
        <ele>495.6</ele>
        <time>2024-09-01T07:42:40Z</time>
      </trkpt>
      <trkpt lat="47.07133" lon="6.04269">
        <ele>495.6</ele>
        <time>2024-09-01T07:42:41Z</time>
      </trkpt>
      <trkpt lat="47.07133" lon="6.04269">
        <ele>495.8</ele>
        <time>2024-09-01T07:42:42Z</time>
      </trkpt>
      <trkpt lat="47.07133" lon="6.04269">
        <ele>495.8</ele>
        <time>2024-09-01T07:42:43Z</time>
      </trkpt>
      <trkpt lat="47.07133" lon="6.04269">
        <ele>495.8</ele>
        <time>2024-09-01T07:42:44Z</time>
      </trkpt>
      <trkpt lat="47.07133" lon="6.04269">
        <ele>495.6</ele>
        <time>2024-09-01T07:42:45Z</time>
      </trkpt>
      <trkpt lat="47.07133" lon="6.04269">
        <ele>495.8</ele>
        <time>2024-09-01T07:42:46Z</time>
      </trkpt>
      <trkpt lat="47.07133" lon="6.04269">
        <ele>495.8</ele>
        <time>2024-09-01T07:42:47Z</time>
      </trkpt>
      <trkpt lat="47.07133" lon="6.04269">
        <ele>495.8</ele>
        <time>2024-09-01T07:42:48Z</time>
      </trkpt>
      <trkpt lat="47.07133" lon="6.04269">
        <ele>495.8</ele>
        <time>2024-09-01T07:42:49Z</time>
      </trkpt>
      <trkpt lat="47.07133" lon="6.04269">
        <ele>495.6</ele>
        <time>2024-09-01T07:42:50Z</time>
      </trkpt>
      <trkpt lat="47.07133" lon="6.04269">
        <ele>495.8</ele>
        <time>2024-09-01T07:42:51Z</time>
      </trkpt>
      <trkpt lat="47.07133" lon="6.04269">
        <ele>495.6</ele>
        <time>2024-09-01T07:42:52Z</time>
      </trkpt>
      <trkpt lat="47.07133" lon="6.04269">
        <ele>495.6</ele>
        <time>2024-09-01T07:42:53Z</time>
      </trkpt>
      <trkpt lat="47.07133" lon="6.04269">
        <ele>495.6</ele>
        <time>2024-09-01T07:42:54Z</time>
      </trkpt>
      <trkpt lat="47.07133" lon="6.04269">
        <ele>495.6</ele>
        <time>2024-09-01T07:42:55Z</time>
      </trkpt>
      <trkpt lat="47.07133" lon="6.04269">
        <ele>495.6</ele>
        <time>2024-09-01T07:42:56Z</time>
      </trkpt>
      <trkpt lat="47.07133" lon="6.04269">
        <ele>495.6</ele>
        <time>2024-09-01T07:42:57Z</time>
      </trkpt>
      <trkpt lat="47.07133" lon="6.04269">
        <ele>495.6</ele>
        <time>2024-09-01T07:42:58Z</time>
      </trkpt>
      <trkpt lat="47.07133" lon="6.04269">
        <ele>495.8</ele>
        <time>2024-09-01T07:42:59Z</time>
      </trkpt>
      <trkpt lat="47.07133" lon="6.04269">
        <ele>495.6</ele>
        <time>2024-09-01T07:43:00Z</time>
      </trkpt>
      <trkpt lat="47.07133" lon="6.04269">
        <ele>495.6</ele>
        <time>2024-09-01T07:43:01Z</time>
      </trkpt>
      <trkpt lat="47.07133" lon="6.04269">
        <ele>495.6</ele>
        <time>2024-09-01T07:43:02Z</time>
      </trkpt>
      <trkpt lat="47.07133" lon="6.04269">
        <ele>495.6</ele>
        <time>2024-09-01T07:43:03Z</time>
      </trkpt>
      <trkpt lat="47.07133" lon="6.04269">
        <ele>495.6</ele>
        <time>2024-09-01T07:43:04Z</time>
      </trkpt>
      <trkpt lat="47.07133" lon="6.04269">
        <ele>495.6</ele>
        <time>2024-09-01T07:43:05Z</time>
      </trkpt>
      <trkpt lat="47.07133" lon="6.04269">
        <ele>495.6</ele>
        <time>2024-09-01T07:43:06Z</time>
      </trkpt>
      <trkpt lat="47.07133" lon="6.04269">
        <ele>495.6</ele>
        <time>2024-09-01T07:43:07Z</time>
      </trkpt>
      <trkpt lat="47.07133" lon="6.04269">
        <ele>495.6</ele>
        <time>2024-09-01T07:43:08Z</time>
      </trkpt>
      <trkpt lat="47.07133" lon="6.04269">
        <ele>495.6</ele>
        <time>2024-09-01T07:43:09Z</time>
      </trkpt>
      <trkpt lat="47.07133" lon="6.04269">
        <ele>495.6</ele>
        <time>2024-09-01T07:43:10Z</time>
      </trkpt>
      <trkpt lat="47.07133" lon="6.04269">
        <ele>495.6</ele>
        <time>2024-09-01T07:43:11Z</time>
      </trkpt>
      <trkpt lat="47.07133" lon="6.04269">
        <ele>495.6</ele>
        <time>2024-09-01T07:43:12Z</time>
      </trkpt>
      <trkpt lat="47.07133" lon="6.04269">
        <ele>495.6</ele>
        <time>2024-09-01T07:43:13Z</time>
      </trkpt>
      <trkpt lat="47.07133" lon="6.04269">
        <ele>495.6</ele>
        <time>2024-09-01T07:43:14Z</time>
      </trkpt>
      <trkpt lat="47.07133" lon="6.04269">
        <ele>495.6</ele>
        <time>2024-09-01T07:43:15Z</time>
      </trkpt>
      <trkpt lat="47.07133" lon="6.04269">
        <ele>495.4</ele>
        <time>2024-09-01T07:43:16Z</time>
      </trkpt>
      <trkpt lat="47.07133" lon="6.04269">
        <ele>495.6</ele>
        <time>2024-09-01T07:43:17Z</time>
      </trkpt>
      <trkpt lat="47.07133" lon="6.04269">
        <ele>495.6</ele>
        <time>2024-09-01T07:43:18Z</time>
      </trkpt>
      <trkpt lat="47.07133" lon="6.04269">
        <ele>495.6</ele>
        <time>2024-09-01T07:43:19Z</time>
      </trkpt>
      <trkpt lat="47.07133" lon="6.04269">
        <ele>495.6</ele>
        <time>2024-09-01T07:43:20Z</time>
      </trkpt>
      <trkpt lat="47.07133" lon="6.04269">
        <ele>495.6</ele>
        <time>2024-09-01T07:43:21Z</time>
      </trkpt>
      <trkpt lat="47.07133" lon="6.04269">
        <ele>495.6</ele>
        <time>2024-09-01T07:43:22Z</time>
      </trkpt>
      <trkpt lat="47.07133" lon="6.04269">
        <ele>495.6</ele>
        <time>2024-09-01T07:43:23Z</time>
      </trkpt>
      <trkpt lat="47.07133" lon="6.04269">
        <ele>495.6</ele>
        <time>2024-09-01T07:43:24Z</time>
      </trkpt>
      <trkpt lat="47.07133" lon="6.04269">
        <ele>495.6</ele>
        <time>2024-09-01T07:43:25Z</time>
      </trkpt>
      <trkpt lat="47.07133" lon="6.04269">
        <ele>495.6</ele>
        <time>2024-09-01T07:43:26Z</time>
      </trkpt>
      <trkpt lat="47.07133" lon="6.04269">
        <ele>495.6</ele>
        <time>2024-09-01T07:43:27Z</time>
      </trkpt>
      <trkpt lat="47.07133" lon="6.04269">
        <ele>495.6</ele>
        <time>2024-09-01T07:43:28Z</time>
      </trkpt>
      <trkpt lat="47.07133" lon="6.04269">
        <ele>495.6</ele>
        <time>2024-09-01T07:43:29Z</time>
      </trkpt>
      <trkpt lat="47.07133" lon="6.04269">
        <ele>495.4</ele>
        <time>2024-09-01T07:43:30Z</time>
      </trkpt>
      <trkpt lat="47.07133" lon="6.04269">
        <ele>495.4</ele>
        <time>2024-09-01T07:43:31Z</time>
      </trkpt>
      <trkpt lat="47.07134" lon="6.04269">
        <ele>495.4</ele>
        <time>2024-09-01T07:43:32Z</time>
      </trkpt>
      <trkpt lat="47.07134" lon="6.04269">
        <ele>495.4</ele>
        <time>2024-09-01T07:43:33Z</time>
      </trkpt>
      <trkpt lat="47.07134" lon="6.04269">
        <ele>495.4</ele>
        <time>2024-09-01T07:43:34Z</time>
      </trkpt>
      <trkpt lat="47.07134" lon="6.04269">
        <ele>495.6</ele>
        <time>2024-09-01T07:43:35Z</time>
      </trkpt>
      <trkpt lat="47.07134" lon="6.04269">
        <ele>495.6</ele>
        <time>2024-09-01T07:43:36Z</time>
      </trkpt>
      <trkpt lat="47.07134" lon="6.04269">
        <ele>495.4</ele>
        <time>2024-09-01T07:43:37Z</time>
      </trkpt>
      <trkpt lat="47.07134" lon="6.04269">
        <ele>495.6</ele>
        <time>2024-09-01T07:43:38Z</time>
      </trkpt>
      <trkpt lat="47.07134" lon="6.04269">
        <ele>495.4</ele>
        <time>2024-09-01T07:43:39Z</time>
      </trkpt>
      <trkpt lat="47.07134" lon="6.04269">
        <ele>495.6</ele>
        <time>2024-09-01T07:43:40Z</time>
      </trkpt>
      <trkpt lat="47.07135" lon="6.04269">
        <ele>495.4</ele>
        <time>2024-09-01T07:43:41Z</time>
      </trkpt>
      <trkpt lat="47.07135" lon="6.04269">
        <ele>495.4</ele>
        <time>2024-09-01T07:43:42Z</time>
      </trkpt>
      <trkpt lat="47.07135" lon="6.04269">
        <ele>495.4</ele>
        <time>2024-09-01T07:43:43Z</time>
      </trkpt>
      <trkpt lat="47.07135" lon="6.04269">
        <ele>495.4</ele>
        <time>2024-09-01T07:43:44Z</time>
      </trkpt>
      <trkpt lat="47.07135" lon="6.04269">
        <ele>495.4</ele>
        <time>2024-09-01T07:43:45Z</time>
      </trkpt>
      <trkpt lat="47.07135" lon="6.04269">
        <ele>495.6</ele>
        <time>2024-09-01T07:43:46Z</time>
      </trkpt>
      <trkpt lat="47.07135" lon="6.04269">
        <ele>495.4</ele>
        <time>2024-09-01T07:43:47Z</time>
      </trkpt>
      <trkpt lat="47.07135" lon="6.04269">
        <ele>495.4</ele>
        <time>2024-09-01T07:43:48Z</time>
      </trkpt>
      <trkpt lat="47.07135" lon="6.0427">
        <ele>495.4</ele>
        <time>2024-09-01T07:43:49Z</time>
      </trkpt>
      <trkpt lat="47.07135" lon="6.0427">
        <ele>495.4</ele>
        <time>2024-09-01T07:43:50Z</time>
      </trkpt>
      <trkpt lat="47.07135" lon="6.0427">
        <ele>495.4</ele>
        <time>2024-09-01T07:43:51Z</time>
      </trkpt>
      <trkpt lat="47.07135" lon="6.0427">
        <ele>495.6</ele>
        <time>2024-09-01T07:43:52Z</time>
      </trkpt>
      <trkpt lat="47.07135" lon="6.0427">
        <ele>495.4</ele>
        <time>2024-09-01T07:43:53Z</time>
      </trkpt>
      <trkpt lat="47.07135" lon="6.0427">
        <ele>495.4</ele>
        <time>2024-09-01T07:43:54Z</time>
      </trkpt>
      <trkpt lat="47.07135" lon="6.0427">
        <ele>495.4</ele>
        <time>2024-09-01T07:43:55Z</time>
      </trkpt>
      <trkpt lat="47.07135" lon="6.0427">
        <ele>495.4</ele>
        <time>2024-09-01T07:43:56Z</time>
      </trkpt>
      <trkpt lat="47.07134" lon="6.0427">
        <ele>495.4</ele>
        <time>2024-09-01T07:43:57Z</time>
      </trkpt>
      <trkpt lat="47.07134" lon="6.04269">
        <ele>495.6</ele>
        <time>2024-09-01T07:43:58Z</time>
      </trkpt>
      <trkpt lat="47.07134" lon="6.04269">
        <ele>495.4</ele>
        <time>2024-09-01T07:43:59Z</time>
      </trkpt>
      <trkpt lat="47.07135" lon="6.04269">
        <ele>495.4</ele>
        <time>2024-09-01T07:44:00Z</time>
      </trkpt>
      <trkpt lat="47.07134" lon="6.04269">
        <ele>495.6</ele>
        <time>2024-09-01T07:44:01Z</time>
      </trkpt>
      <trkpt lat="47.07134" lon="6.04269">
        <ele>495.4</ele>
        <time>2024-09-01T07:44:02Z</time>
      </trkpt>
      <trkpt lat="47.07134" lon="6.0427">
        <ele>495.6</ele>
        <time>2024-09-01T07:44:03Z</time>
      </trkpt>
      <trkpt lat="47.07134" lon="6.0427">
        <ele>495.6</ele>
        <time>2024-09-01T07:44:04Z</time>
      </trkpt>
      <trkpt lat="47.07134" lon="6.0427">
        <ele>495.4</ele>
        <time>2024-09-01T07:44:05Z</time>
      </trkpt>
      <trkpt lat="47.07134" lon="6.0427">
        <ele>495.4</ele>
        <time>2024-09-01T07:44:06Z</time>
      </trkpt>
      <trkpt lat="47.07134" lon="6.0427">
        <ele>495.6</ele>
        <time>2024-09-01T07:44:07Z</time>
      </trkpt>
      <trkpt lat="47.07134" lon="6.0427">
        <ele>495.4</ele>
        <time>2024-09-01T07:44:08Z</time>
      </trkpt>
      <trkpt lat="47.07134" lon="6.0427">
        <ele>495.6</ele>
        <time>2024-09-01T07:44:09Z</time>
      </trkpt>
      <trkpt lat="47.07134" lon="6.0427">
        <ele>495.4</ele>
        <time>2024-09-01T07:44:10Z</time>
      </trkpt>
      <trkpt lat="47.07134" lon="6.0427">
        <ele>495.4</ele>
        <time>2024-09-01T07:44:11Z</time>
      </trkpt>
      <trkpt lat="47.07134" lon="6.0427">
        <ele>495.4</ele>
        <time>2024-09-01T07:44:12Z</time>
      </trkpt>
      <trkpt lat="47.07134" lon="6.0427">
        <ele>495.6</ele>
        <time>2024-09-01T07:44:13Z</time>
      </trkpt>
      <trkpt lat="47.07134" lon="6.0427">
        <ele>495.4</ele>
        <time>2024-09-01T07:44:14Z</time>
      </trkpt>
      <trkpt lat="47.07134" lon="6.0427">
        <ele>495.4</ele>
        <time>2024-09-01T07:44:15Z</time>
      </trkpt>
      <trkpt lat="47.07134" lon="6.0427">
        <ele>495.4</ele>
        <time>2024-09-01T07:44:16Z</time>
      </trkpt>
      <trkpt lat="47.07134" lon="6.0427">
        <ele>495.4</ele>
        <time>2024-09-01T07:44:17Z</time>
      </trkpt>
      <trkpt lat="47.07134" lon="6.0427">
        <ele>495.4</ele>
        <time>2024-09-01T07:44:18Z</time>
      </trkpt>
      <trkpt lat="47.07134" lon="6.0427">
        <ele>495.4</ele>
        <time>2024-09-01T07:44:19Z</time>
      </trkpt>
      <trkpt lat="47.07134" lon="6.0427">
        <ele>495.4</ele>
        <time>2024-09-01T07:44:20Z</time>
      </trkpt>
      <trkpt lat="47.07134" lon="6.0427">
        <ele>495.4</ele>
        <time>2024-09-01T07:44:21Z</time>
      </trkpt>
      <trkpt lat="47.07134" lon="6.0427">
        <ele>495.6</ele>
        <time>2024-09-01T07:44:22Z</time>
      </trkpt>
      <trkpt lat="47.07134" lon="6.0427">
        <ele>495.6</ele>
        <time>2024-09-01T07:44:23Z</time>
      </trkpt>
      <trkpt lat="47.07134" lon="6.0427">
        <ele>495.6</ele>
        <time>2024-09-01T07:44:24Z</time>
      </trkpt>
      <trkpt lat="47.07134" lon="6.0427">
        <ele>495.6</ele>
        <time>2024-09-01T07:44:25Z</time>
      </trkpt>
      <trkpt lat="47.07134" lon="6.0427">
        <ele>495.6</ele>
        <time>2024-09-01T07:44:26Z</time>
      </trkpt>
      <trkpt lat="47.07134" lon="6.0427">
        <ele>495.6</ele>
        <time>2024-09-01T07:44:27Z</time>
      </trkpt>
      <trkpt lat="47.07134" lon="6.0427">
        <ele>495.6</ele>
        <time>2024-09-01T07:44:28Z</time>
      </trkpt>
      <trkpt lat="47.07134" lon="6.0427">
        <ele>495.6</ele>
        <time>2024-09-01T07:44:29Z</time>
      </trkpt>
      <trkpt lat="47.07134" lon="6.0427">
        <ele>495.6</ele>
        <time>2024-09-01T07:44:30Z</time>
      </trkpt>
      <trkpt lat="47.07134" lon="6.0427">
        <ele>495.6</ele>
        <time>2024-09-01T07:44:31Z</time>
      </trkpt>
      <trkpt lat="47.07134" lon="6.0427">
        <ele>495.6</ele>
        <time>2024-09-01T07:44:32Z</time>
      </trkpt>
      <trkpt lat="47.07135" lon="6.0427">
        <ele>495.6</ele>
        <time>2024-09-01T07:44:33Z</time>
      </trkpt>
      <trkpt lat="47.07134" lon="6.04269">
        <ele>495.6</ele>
        <time>2024-09-01T07:44:34Z</time>
      </trkpt>
      <trkpt lat="47.07134" lon="6.04269">
        <ele>495.6</ele>
        <time>2024-09-01T07:44:35Z</time>
      </trkpt>
      <trkpt lat="47.07134" lon="6.04268">
        <ele>495.6</ele>
        <time>2024-09-01T07:44:36Z</time>
      </trkpt>
      <trkpt lat="47.07135" lon="6.04268">
        <ele>495.6</ele>
        <time>2024-09-01T07:44:37Z</time>
      </trkpt>
      <trkpt lat="47.07135" lon="6.04268">
        <ele>495.6</ele>
        <time>2024-09-01T07:44:38Z</time>
      </trkpt>
      <trkpt lat="47.07135" lon="6.04268">
        <ele>495.6</ele>
        <time>2024-09-01T07:44:39Z</time>
      </trkpt>
      <trkpt lat="47.07135" lon="6.04268">
        <ele>495.6</ele>
        <time>2024-09-01T07:44:40Z</time>
      </trkpt>
      <trkpt lat="47.07135" lon="6.04268">
        <ele>495.4</ele>
        <time>2024-09-01T07:44:41Z</time>
      </trkpt>
      <trkpt lat="47.07135" lon="6.04268">
        <ele>495.6</ele>
        <time>2024-09-01T07:44:42Z</time>
      </trkpt>
      <trkpt lat="47.07135" lon="6.04268">
        <ele>495.4</ele>
        <time>2024-09-01T07:44:43Z</time>
      </trkpt>
      <trkpt lat="47.07135" lon="6.04268">
        <ele>495.6</ele>
        <time>2024-09-01T07:44:44Z</time>
      </trkpt>
      <trkpt lat="47.07135" lon="6.04268">
        <ele>495.6</ele>
        <time>2024-09-01T07:44:45Z</time>
      </trkpt>
      <trkpt lat="47.07135" lon="6.04268">
        <ele>495.6</ele>
        <time>2024-09-01T07:44:46Z</time>
      </trkpt>
      <trkpt lat="47.07135" lon="6.04268">
        <ele>495.6</ele>
        <time>2024-09-01T07:44:47Z</time>
      </trkpt>
      <trkpt lat="47.07134" lon="6.04268">
        <ele>495.6</ele>
        <time>2024-09-01T07:44:48Z</time>
      </trkpt>
      <trkpt lat="47.07134" lon="6.04268">
        <ele>495.6</ele>
        <time>2024-09-01T07:44:49Z</time>
      </trkpt>
      <trkpt lat="47.07134" lon="6.04269">
        <ele>495.4</ele>
        <time>2024-09-01T07:44:50Z</time>
      </trkpt>
      <trkpt lat="47.07134" lon="6.04269">
        <ele>495.4</ele>
        <time>2024-09-01T07:44:51Z</time>
      </trkpt>
      <trkpt lat="47.07134" lon="6.04268">
        <ele>495.4</ele>
        <time>2024-09-01T07:44:52Z</time>
      </trkpt>
      <trkpt lat="47.07135" lon="6.04268">
        <ele>495.6</ele>
        <time>2024-09-01T07:44:53Z</time>
      </trkpt>
      <trkpt lat="47.07135" lon="6.04268">
        <ele>495.4</ele>
        <time>2024-09-01T07:44:54Z</time>
      </trkpt>
      <trkpt lat="47.07135" lon="6.04268">
        <ele>495.6</ele>
        <time>2024-09-01T07:44:55Z</time>
      </trkpt>
      <trkpt lat="47.07134" lon="6.04268">
        <ele>495.6</ele>
        <time>2024-09-01T07:44:56Z</time>
      </trkpt>
      <trkpt lat="47.07134" lon="6.04268">
        <ele>495.6</ele>
        <time>2024-09-01T07:44:57Z</time>
      </trkpt>
      <trkpt lat="47.07134" lon="6.04268">
        <ele>495.6</ele>
        <time>2024-09-01T07:44:58Z</time>
      </trkpt>
      <trkpt lat="47.07134" lon="6.04268">
        <ele>495.6</ele>
        <time>2024-09-01T07:44:59Z</time>
      </trkpt>
      <trkpt lat="47.07134" lon="6.04268">
        <ele>495.6</ele>
        <time>2024-09-01T07:45:00Z</time>
      </trkpt>
      <trkpt lat="47.07134" lon="6.04269">
        <ele>495.6</ele>
        <time>2024-09-01T07:45:01Z</time>
      </trkpt>
      <trkpt lat="47.07135" lon="6.04269">
        <ele>495.6</ele>
        <time>2024-09-01T07:45:02Z</time>
      </trkpt>
      <trkpt lat="47.07135" lon="6.04269">
        <ele>495.6</ele>
        <time>2024-09-01T07:45:03Z</time>
      </trkpt>
      <trkpt lat="47.07135" lon="6.04269">
        <ele>495.6</ele>
        <time>2024-09-01T07:45:04Z</time>
      </trkpt>
      <trkpt lat="47.07135" lon="6.04269">
        <ele>495.6</ele>
        <time>2024-09-01T07:45:05Z</time>
      </trkpt>
      <trkpt lat="47.07135" lon="6.04269">
        <ele>495.6</ele>
        <time>2024-09-01T07:45:06Z</time>
      </trkpt>
      <trkpt lat="47.07135" lon="6.04269">
        <ele>495.6</ele>
        <time>2024-09-01T07:45:07Z</time>
      </trkpt>
      <trkpt lat="47.07135" lon="6.04269">
        <ele>495.6</ele>
        <time>2024-09-01T07:45:08Z</time>
      </trkpt>
      <trkpt lat="47.07135" lon="6.04269">
        <ele>495.6</ele>
        <time>2024-09-01T07:45:09Z</time>
      </trkpt>
      <trkpt lat="47.07135" lon="6.04269">
        <ele>495.6</ele>
        <time>2024-09-01T07:45:10Z</time>
      </trkpt>
      <trkpt lat="47.07135" lon="6.04269">
        <ele>495.8</ele>
        <time>2024-09-01T07:45:11Z</time>
      </trkpt>
      <trkpt lat="47.07135" lon="6.04269">
        <ele>495.8</ele>
        <time>2024-09-01T07:45:12Z</time>
      </trkpt>
      <trkpt lat="47.07135" lon="6.04269">
        <ele>495.6</ele>
        <time>2024-09-01T07:45:13Z</time>
      </trkpt>
      <trkpt lat="47.07135" lon="6.04269">
        <ele>495.6</ele>
        <time>2024-09-01T07:45:14Z</time>
      </trkpt>
      <trkpt lat="47.07135" lon="6.04269">
        <ele>495.6</ele>
        <time>2024-09-01T07:45:15Z</time>
      </trkpt>
      <trkpt lat="47.07135" lon="6.04269">
        <ele>495.6</ele>
        <time>2024-09-01T07:45:16Z</time>
      </trkpt>
      <trkpt lat="47.07135" lon="6.04269">
        <ele>495.6</ele>
        <time>2024-09-01T07:45:17Z</time>
      </trkpt>
      <trkpt lat="47.07135" lon="6.04269">
        <ele>495.8</ele>
        <time>2024-09-01T07:45:18Z</time>
      </trkpt>
      <trkpt lat="47.07135" lon="6.04269">
        <ele>495.8</ele>
        <time>2024-09-01T07:45:19Z</time>
      </trkpt>
      <trkpt lat="47.07135" lon="6.04269">
        <ele>495.6</ele>
        <time>2024-09-01T07:45:20Z</time>
      </trkpt>
      <trkpt lat="47.07135" lon="6.04269">
        <ele>495.6</ele>
        <time>2024-09-01T07:45:21Z</time>
      </trkpt>
      <trkpt lat="47.07135" lon="6.0427">
        <ele>495.6</ele>
        <time>2024-09-01T07:45:22Z</time>
      </trkpt>
      <trkpt lat="47.07135" lon="6.0427">
        <ele>495.8</ele>
        <time>2024-09-01T07:45:23Z</time>
      </trkpt>
      <trkpt lat="47.07134" lon="6.0427">
        <ele>495.6</ele>
        <time>2024-09-01T07:45:24Z</time>
      </trkpt>
      <trkpt lat="47.07134" lon="6.0427">
        <ele>495.6</ele>
        <time>2024-09-01T07:45:25Z</time>
      </trkpt>
      <trkpt lat="47.07134" lon="6.0427">
        <ele>495.8</ele>
        <time>2024-09-01T07:45:26Z</time>
      </trkpt>
      <trkpt lat="47.07134" lon="6.0427">
        <ele>495.8</ele>
        <time>2024-09-01T07:45:27Z</time>
      </trkpt>
      <trkpt lat="47.07134" lon="6.0427">
        <ele>495.8</ele>
        <time>2024-09-01T07:45:28Z</time>
      </trkpt>
      <trkpt lat="47.07134" lon="6.04271">
        <ele>495.8</ele>
        <time>2024-09-01T07:45:29Z</time>
      </trkpt>
      <trkpt lat="47.07134" lon="6.04271">
        <ele>495.8</ele>
        <time>2024-09-01T07:45:30Z</time>
      </trkpt>
      <trkpt lat="47.07134" lon="6.04271">
        <ele>495.6</ele>
        <time>2024-09-01T07:45:31Z</time>
      </trkpt>
      <trkpt lat="47.07134" lon="6.04271">
        <ele>495.8</ele>
        <time>2024-09-01T07:45:32Z</time>
      </trkpt>
      <trkpt lat="47.07134" lon="6.04271">
        <ele>495.6</ele>
        <time>2024-09-01T07:45:33Z</time>
      </trkpt>
      <trkpt lat="47.07134" lon="6.04272">
        <ele>495.8</ele>
        <time>2024-09-01T07:45:34Z</time>
      </trkpt>
      <trkpt lat="47.07134" lon="6.04272">
        <ele>495.6</ele>
        <time>2024-09-01T07:45:35Z</time>
      </trkpt>
      <trkpt lat="47.07134" lon="6.04272">
        <ele>495.6</ele>
        <time>2024-09-01T07:45:36Z</time>
      </trkpt>
      <trkpt lat="47.07134" lon="6.04272">
        <ele>495.8</ele>
        <time>2024-09-01T07:45:37Z</time>
      </trkpt>
      <trkpt lat="47.07134" lon="6.04272">
        <ele>495.8</ele>
        <time>2024-09-01T07:45:38Z</time>
      </trkpt>
      <trkpt lat="47.07134" lon="6.04272">
        <ele>495.8</ele>
        <time>2024-09-01T07:45:39Z</time>
      </trkpt>
      <trkpt lat="47.07134" lon="6.04272">
        <ele>495.8</ele>
        <time>2024-09-01T07:45:40Z</time>
      </trkpt>
      <trkpt lat="47.07134" lon="6.04272">
        <ele>495.8</ele>
        <time>2024-09-01T07:45:41Z</time>
      </trkpt>
      <trkpt lat="47.07134" lon="6.04272">
        <ele>495.6</ele>
        <time>2024-09-01T07:45:42Z</time>
      </trkpt>
      <trkpt lat="47.07134" lon="6.04272">
        <ele>495.8</ele>
        <time>2024-09-01T07:45:43Z</time>
      </trkpt>
      <trkpt lat="47.07134" lon="6.04272">
        <ele>495.6</ele>
        <time>2024-09-01T07:45:44Z</time>
      </trkpt>
      <trkpt lat="47.07134" lon="6.04273">
        <ele>495.6</ele>
        <time>2024-09-01T07:45:45Z</time>
      </trkpt>
      <trkpt lat="47.07134" lon="6.04273">
        <ele>495.8</ele>
        <time>2024-09-01T07:45:46Z</time>
      </trkpt>
      <trkpt lat="47.07134" lon="6.04273">
        <ele>495.6</ele>
        <time>2024-09-01T07:45:47Z</time>
      </trkpt>
      <trkpt lat="47.07134" lon="6.04273">
        <ele>495.6</ele>
        <time>2024-09-01T07:45:48Z</time>
      </trkpt>
      <trkpt lat="47.07134" lon="6.04273">
        <ele>495.8</ele>
        <time>2024-09-01T07:45:49Z</time>
      </trkpt>
      <trkpt lat="47.07134" lon="6.04273">
        <ele>495.6</ele>
        <time>2024-09-01T07:45:50Z</time>
      </trkpt>
      <trkpt lat="47.07134" lon="6.04273">
        <ele>495.8</ele>
        <time>2024-09-01T07:45:51Z</time>
      </trkpt>
      <trkpt lat="47.07135" lon="6.04274">
        <ele>495.6</ele>
        <time>2024-09-01T07:45:52Z</time>
      </trkpt>
      <trkpt lat="47.07135" lon="6.04274">
        <ele>495.6</ele>
        <time>2024-09-01T07:45:53Z</time>
      </trkpt>
      <trkpt lat="47.07135" lon="6.04274">
        <ele>495.6</ele>
        <time>2024-09-01T07:45:54Z</time>
      </trkpt>
      <trkpt lat="47.07135" lon="6.04274">
        <ele>495.6</ele>
        <time>2024-09-01T07:45:55Z</time>
      </trkpt>
      <trkpt lat="47.07134" lon="6.04274">
        <ele>495.6</ele>
        <time>2024-09-01T07:45:56Z</time>
      </trkpt>
      <trkpt lat="47.07134" lon="6.04273">
        <ele>495.6</ele>
        <time>2024-09-01T07:45:57Z</time>
      </trkpt>
      <trkpt lat="47.07134" lon="6.04272">
        <ele>495.6</ele>
        <time>2024-09-01T07:45:58Z</time>
      </trkpt>
      <trkpt lat="47.07134" lon="6.04272">
        <ele>495.6</ele>
        <time>2024-09-01T07:45:59Z</time>
      </trkpt>
      <trkpt lat="47.07134" lon="6.04272">
        <ele>495.8</ele>
        <time>2024-09-01T07:46:00Z</time>
      </trkpt>
      <trkpt lat="47.07134" lon="6.04271">
        <ele>495.8</ele>
        <time>2024-09-01T07:46:01Z</time>
      </trkpt>
      <trkpt lat="47.07134" lon="6.04272">
        <ele>495.6</ele>
        <time>2024-09-01T07:46:02Z</time>
      </trkpt>
      <trkpt lat="47.07134" lon="6.04272">
        <ele>495.8</ele>
        <time>2024-09-01T07:46:03Z</time>
      </trkpt>
      <trkpt lat="47.07134" lon="6.04272">
        <ele>495.8</ele>
        <time>2024-09-01T07:46:04Z</time>
      </trkpt>
      <trkpt lat="47.07134" lon="6.04272">
        <ele>495.6</ele>
        <time>2024-09-01T07:46:05Z</time>
      </trkpt>
      <trkpt lat="47.07134" lon="6.04272">
        <ele>495.8</ele>
        <time>2024-09-01T07:46:06Z</time>
      </trkpt>
      <trkpt lat="47.07134" lon="6.04272">
        <ele>495.6</ele>
        <time>2024-09-01T07:46:07Z</time>
      </trkpt>
      <trkpt lat="47.07134" lon="6.04272">
        <ele>495.6</ele>
        <time>2024-09-01T07:46:08Z</time>
      </trkpt>
      <trkpt lat="47.07134" lon="6.04273">
        <ele>495.6</ele>
        <time>2024-09-01T07:46:09Z</time>
      </trkpt>
      <trkpt lat="47.07134" lon="6.04272">
        <ele>495.6</ele>
        <time>2024-09-01T07:46:10Z</time>
      </trkpt>
      <trkpt lat="47.07134" lon="6.04272">
        <ele>495.6</ele>
        <time>2024-09-01T07:46:11Z</time>
      </trkpt>
      <trkpt lat="47.07134" lon="6.04273">
        <ele>495.6</ele>
        <time>2024-09-01T07:46:12Z</time>
      </trkpt>
      <trkpt lat="47.07134" lon="6.04273">
        <ele>495.8</ele>
        <time>2024-09-01T07:46:13Z</time>
      </trkpt>
      <trkpt lat="47.07134" lon="6.04273">
        <ele>495.6</ele>
        <time>2024-09-01T07:46:14Z</time>
      </trkpt>
      <trkpt lat="47.07134" lon="6.04273">
        <ele>495.6</ele>
        <time>2024-09-01T07:46:15Z</time>
      </trkpt>
      <trkpt lat="47.07134" lon="6.04273">
        <ele>495.6</ele>
        <time>2024-09-01T07:46:16Z</time>
      </trkpt>
      <trkpt lat="47.07134" lon="6.04274">
        <ele>495.6</ele>
        <time>2024-09-01T07:46:17Z</time>
      </trkpt>
      <trkpt lat="47.07134" lon="6.04274">
        <ele>495.6</ele>
        <time>2024-09-01T07:46:18Z</time>
      </trkpt>
      <trkpt lat="47.07134" lon="6.04274">
        <ele>495.6</ele>
        <time>2024-09-01T07:46:19Z</time>
      </trkpt>
      <trkpt lat="47.07134" lon="6.04275">
        <ele>495.6</ele>
        <time>2024-09-01T07:46:20Z</time>
      </trkpt>
      <trkpt lat="47.07134" lon="6.04275">
        <ele>495.6</ele>
        <time>2024-09-01T07:46:21Z</time>
      </trkpt>
      <trkpt lat="47.07134" lon="6.04275">
        <ele>495.6</ele>
        <time>2024-09-01T07:46:22Z</time>
      </trkpt>
      <trkpt lat="47.07134" lon="6.04275">
        <ele>495.6</ele>
        <time>2024-09-01T07:46:23Z</time>
      </trkpt>
      <trkpt lat="47.07134" lon="6.04275">
        <ele>495.8</ele>
        <time>2024-09-01T07:46:24Z</time>
      </trkpt>
      <trkpt lat="47.07134" lon="6.04275">
        <ele>495.6</ele>
        <time>2024-09-01T07:46:25Z</time>
      </trkpt>
      <trkpt lat="47.07134" lon="6.04274">
        <ele>495.6</ele>
        <time>2024-09-01T07:46:26Z</time>
      </trkpt>
      <trkpt lat="47.07134" lon="6.04274">
        <ele>495.8</ele>
        <time>2024-09-01T07:46:27Z</time>
      </trkpt>
      <trkpt lat="47.07134" lon="6.04274">
        <ele>495.6</ele>
        <time>2024-09-01T07:46:28Z</time>
      </trkpt>
      <trkpt lat="47.07134" lon="6.04274">
        <ele>495.6</ele>
        <time>2024-09-01T07:46:29Z</time>
      </trkpt>
      <trkpt lat="47.07134" lon="6.04274">
        <ele>495.6</ele>
        <time>2024-09-01T07:46:30Z</time>
      </trkpt>
      <trkpt lat="47.07134" lon="6.04274">
        <ele>495.6</ele>
        <time>2024-09-01T07:46:31Z</time>
      </trkpt>
      <trkpt lat="47.07134" lon="6.04274">
        <ele>495.6</ele>
        <time>2024-09-01T07:46:32Z</time>
      </trkpt>
      <trkpt lat="47.07134" lon="6.04274">
        <ele>495.6</ele>
        <time>2024-09-01T07:46:33Z</time>
      </trkpt>
      <trkpt lat="47.07134" lon="6.04274">
        <ele>495.8</ele>
        <time>2024-09-01T07:46:34Z</time>
      </trkpt>
      <trkpt lat="47.07134" lon="6.04274">
        <ele>495.8</ele>
        <time>2024-09-01T07:46:35Z</time>
      </trkpt>
      <trkpt lat="47.07134" lon="6.04274">
        <ele>495.8</ele>
        <time>2024-09-01T07:46:36Z</time>
      </trkpt>
      <trkpt lat="47.07134" lon="6.04274">
        <ele>495.6</ele>
        <time>2024-09-01T07:46:37Z</time>
      </trkpt>
      <trkpt lat="47.07134" lon="6.04274">
        <ele>495.6</ele>
        <time>2024-09-01T07:46:38Z</time>
      </trkpt>
      <trkpt lat="47.07134" lon="6.04274">
        <ele>495.8</ele>
        <time>2024-09-01T07:46:39Z</time>
      </trkpt>
      <trkpt lat="47.07134" lon="6.04274">
        <ele>495.6</ele>
        <time>2024-09-01T07:46:40Z</time>
      </trkpt>
      <trkpt lat="47.07134" lon="6.04274">
        <ele>495.8</ele>
        <time>2024-09-01T07:46:41Z</time>
      </trkpt>
      <trkpt lat="47.07134" lon="6.04274">
        <ele>495.6</ele>
        <time>2024-09-01T07:46:42Z</time>
      </trkpt>
      <trkpt lat="47.07134" lon="6.04274">
        <ele>495.6</ele>
        <time>2024-09-01T07:46:43Z</time>
      </trkpt>
      <trkpt lat="47.07134" lon="6.04274">
        <ele>495.6</ele>
        <time>2024-09-01T07:46:44Z</time>
      </trkpt>
      <trkpt lat="47.07134" lon="6.04274">
        <ele>495.8</ele>
        <time>2024-09-01T07:46:45Z</time>
      </trkpt>
      <trkpt lat="47.07133" lon="6.04274">
        <ele>495.8</ele>
        <time>2024-09-01T07:46:46Z</time>
      </trkpt>
      <trkpt lat="47.07133" lon="6.04274">
        <ele>495.8</ele>
        <time>2024-09-01T07:46:47Z</time>
      </trkpt>
      <trkpt lat="47.07133" lon="6.04274">
        <ele>495.8</ele>
        <time>2024-09-01T07:46:48Z</time>
      </trkpt>
      <trkpt lat="47.07133" lon="6.04274">
        <ele>495.8</ele>
        <time>2024-09-01T07:46:49Z</time>
      </trkpt>
      <trkpt lat="47.07133" lon="6.04274">
        <ele>495.8</ele>
        <time>2024-09-01T07:46:50Z</time>
      </trkpt>
      <trkpt lat="47.07133" lon="6.04274">
        <ele>495.6</ele>
        <time>2024-09-01T07:46:51Z</time>
      </trkpt>
      <trkpt lat="47.07133" lon="6.04274">
        <ele>495.8</ele>
        <time>2024-09-01T07:46:52Z</time>
      </trkpt>
      <trkpt lat="47.07133" lon="6.04274">
        <ele>495.8</ele>
        <time>2024-09-01T07:46:53Z</time>
      </trkpt>
      <trkpt lat="47.07133" lon="6.04274">
        <ele>495.8</ele>
        <time>2024-09-01T07:46:54Z</time>
      </trkpt>
      <trkpt lat="47.07133" lon="6.04274">
        <ele>495.8</ele>
        <time>2024-09-01T07:46:55Z</time>
      </trkpt>
      <trkpt lat="47.07133" lon="6.04274">
        <ele>495.8</ele>
        <time>2024-09-01T07:46:56Z</time>
      </trkpt>
      <trkpt lat="47.07133" lon="6.04274">
        <ele>495.8</ele>
        <time>2024-09-01T07:46:57Z</time>
      </trkpt>
      <trkpt lat="47.07133" lon="6.04274">
        <ele>495.8</ele>
        <time>2024-09-01T07:46:58Z</time>
      </trkpt>
      <trkpt lat="47.07133" lon="6.04274">
        <ele>495.8</ele>
        <time>2024-09-01T07:46:59Z</time>
      </trkpt>
      <trkpt lat="47.07133" lon="6.04274">
        <ele>495.8</ele>
        <time>2024-09-01T07:47:00Z</time>
      </trkpt>
      <trkpt lat="47.07133" lon="6.04274">
        <ele>495.8</ele>
        <time>2024-09-01T07:47:01Z</time>
      </trkpt>
      <trkpt lat="47.07133" lon="6.04274">
        <ele>495.8</ele>
        <time>2024-09-01T07:47:02Z</time>
      </trkpt>
      <trkpt lat="47.07133" lon="6.04274">
        <ele>495.8</ele>
        <time>2024-09-01T07:47:03Z</time>
      </trkpt>
      <trkpt lat="47.07133" lon="6.04274">
        <ele>495.8</ele>
        <time>2024-09-01T07:47:04Z</time>
      </trkpt>
      <trkpt lat="47.07133" lon="6.04274">
        <ele>495.8</ele>
        <time>2024-09-01T07:47:05Z</time>
      </trkpt>
      <trkpt lat="47.07133" lon="6.04274">
        <ele>495.8</ele>
        <time>2024-09-01T07:47:06Z</time>
      </trkpt>
      <trkpt lat="47.07133" lon="6.04274">
        <ele>495.8</ele>
        <time>2024-09-01T07:47:07Z</time>
      </trkpt>
      <trkpt lat="47.07133" lon="6.04274">
        <ele>495.8</ele>
        <time>2024-09-01T07:47:08Z</time>
      </trkpt>
      <trkpt lat="47.07133" lon="6.04274">
        <ele>495.8</ele>
        <time>2024-09-01T07:47:09Z</time>
      </trkpt>
      <trkpt lat="47.07133" lon="6.04274">
        <ele>495.6</ele>
        <time>2024-09-01T07:47:10Z</time>
      </trkpt>
      <trkpt lat="47.07133" lon="6.04274">
        <ele>495.8</ele>
        <time>2024-09-01T07:47:11Z</time>
      </trkpt>
      <trkpt lat="47.07133" lon="6.04274">
        <ele>495.8</ele>
        <time>2024-09-01T07:47:12Z</time>
      </trkpt>
      <trkpt lat="47.07133" lon="6.04274">
        <ele>495.8</ele>
        <time>2024-09-01T07:47:13Z</time>
      </trkpt>
      <trkpt lat="47.07133" lon="6.04274">
        <ele>495.8</ele>
        <time>2024-09-01T07:47:14Z</time>
      </trkpt>
      <trkpt lat="47.07133" lon="6.04274">
        <ele>495.8</ele>
        <time>2024-09-01T07:47:15Z</time>
      </trkpt>
      <trkpt lat="47.07133" lon="6.04274">
        <ele>495.8</ele>
        <time>2024-09-01T07:47:16Z</time>
      </trkpt>
      <trkpt lat="47.07133" lon="6.04274">
        <ele>495.8</ele>
        <time>2024-09-01T07:47:17Z</time>
      </trkpt>
      <trkpt lat="47.07133" lon="6.04274">
        <ele>495.8</ele>
        <time>2024-09-01T07:47:18Z</time>
      </trkpt>
      <trkpt lat="47.07133" lon="6.04274">
        <ele>495.8</ele>
        <time>2024-09-01T07:47:19Z</time>
      </trkpt>
      <trkpt lat="47.07133" lon="6.04274">
        <ele>495.8</ele>
        <time>2024-09-01T07:47:20Z</time>
      </trkpt>
      <trkpt lat="47.07133" lon="6.04274">
        <ele>495.8</ele>
        <time>2024-09-01T07:47:21Z</time>
      </trkpt>
      <trkpt lat="47.07133" lon="6.04274">
        <ele>495.8</ele>
        <time>2024-09-01T07:47:22Z</time>
      </trkpt>
      <trkpt lat="47.07133" lon="6.04274">
        <ele>496</ele>
        <time>2024-09-01T07:47:23Z</time>
      </trkpt>
      <trkpt lat="47.07133" lon="6.04274">
        <ele>495.8</ele>
        <time>2024-09-01T07:47:24Z</time>
      </trkpt>
      <trkpt lat="47.07133" lon="6.04274">
        <ele>495.8</ele>
        <time>2024-09-01T07:47:25Z</time>
      </trkpt>
      <trkpt lat="47.07133" lon="6.04274">
        <ele>495.8</ele>
        <time>2024-09-01T07:47:26Z</time>
      </trkpt>
      <trkpt lat="47.07133" lon="6.04274">
        <ele>496</ele>
        <time>2024-09-01T07:47:27Z</time>
      </trkpt>
      <trkpt lat="47.07133" lon="6.04274">
        <ele>495.8</ele>
        <time>2024-09-01T07:47:28Z</time>
      </trkpt>
      <trkpt lat="47.07133" lon="6.04274">
        <ele>496</ele>
        <time>2024-09-01T07:47:29Z</time>
      </trkpt>
      <trkpt lat="47.07133" lon="6.04274">
        <ele>496</ele>
        <time>2024-09-01T07:47:30Z</time>
      </trkpt>
      <trkpt lat="47.07133" lon="6.04274">
        <ele>495.8</ele>
        <time>2024-09-01T07:47:31Z</time>
      </trkpt>
      <trkpt lat="47.07133" lon="6.04274">
        <ele>495.8</ele>
        <time>2024-09-01T07:47:32Z</time>
      </trkpt>
      <trkpt lat="47.07133" lon="6.04274">
        <ele>495.8</ele>
        <time>2024-09-01T07:47:33Z</time>
      </trkpt>
      <trkpt lat="47.07133" lon="6.04274">
        <ele>496</ele>
        <time>2024-09-01T07:47:34Z</time>
      </trkpt>
      <trkpt lat="47.07133" lon="6.04274">
        <ele>495.8</ele>
        <time>2024-09-01T07:47:35Z</time>
      </trkpt>
      <trkpt lat="47.07133" lon="6.04274">
        <ele>496</ele>
        <time>2024-09-01T07:47:36Z</time>
      </trkpt>
      <trkpt lat="47.07133" lon="6.04274">
        <ele>496</ele>
        <time>2024-09-01T07:47:37Z</time>
      </trkpt>
      <trkpt lat="47.07132" lon="6.04274">
        <ele>495.8</ele>
        <time>2024-09-01T07:47:38Z</time>
      </trkpt>
      <trkpt lat="47.07132" lon="6.04274">
        <ele>496</ele>
        <time>2024-09-01T07:47:39Z</time>
      </trkpt>
      <trkpt lat="47.07132" lon="6.04274">
        <ele>496</ele>
        <time>2024-09-01T07:47:40Z</time>
      </trkpt>
      <trkpt lat="47.07132" lon="6.04274">
        <ele>495.8</ele>
        <time>2024-09-01T07:47:41Z</time>
      </trkpt>
      <trkpt lat="47.07132" lon="6.04274">
        <ele>495.8</ele>
        <time>2024-09-01T07:47:42Z</time>
      </trkpt>
      <trkpt lat="47.07132" lon="6.04274">
        <ele>495.8</ele>
        <time>2024-09-01T07:47:43Z</time>
      </trkpt>
      <trkpt lat="47.07132" lon="6.04274">
        <ele>496</ele>
        <time>2024-09-01T07:47:44Z</time>
      </trkpt>
      <trkpt lat="47.07132" lon="6.04274">
        <ele>495.8</ele>
        <time>2024-09-01T07:47:45Z</time>
      </trkpt>
      <trkpt lat="47.07132" lon="6.04274">
        <ele>495.8</ele>
        <time>2024-09-01T07:47:46Z</time>
      </trkpt>
      <trkpt lat="47.07132" lon="6.04274">
        <ele>495.8</ele>
        <time>2024-09-01T07:47:47Z</time>
      </trkpt>
      <trkpt lat="47.07132" lon="6.04274">
        <ele>495.8</ele>
        <time>2024-09-01T07:47:48Z</time>
      </trkpt>
      <trkpt lat="47.07132" lon="6.04274">
        <ele>495.8</ele>
        <time>2024-09-01T07:47:49Z</time>
      </trkpt>
      <trkpt lat="47.07132" lon="6.04274">
        <ele>496</ele>
        <time>2024-09-01T07:47:50Z</time>
      </trkpt>
      <trkpt lat="47.07132" lon="6.04274">
        <ele>495.8</ele>
        <time>2024-09-01T07:47:51Z</time>
      </trkpt>
      <trkpt lat="47.07132" lon="6.04274">
        <ele>495.8</ele>
        <time>2024-09-01T07:47:52Z</time>
      </trkpt>
      <trkpt lat="47.07132" lon="6.04274">
        <ele>495.8</ele>
        <time>2024-09-01T07:47:53Z</time>
      </trkpt>
      <trkpt lat="47.07132" lon="6.04274">
        <ele>496</ele>
        <time>2024-09-01T07:47:54Z</time>
      </trkpt>
      <trkpt lat="47.07132" lon="6.04274">
        <ele>496</ele>
        <time>2024-09-01T07:47:55Z</time>
      </trkpt>
      <trkpt lat="47.07132" lon="6.04274">
        <ele>495.8</ele>
        <time>2024-09-01T07:47:56Z</time>
      </trkpt>
      <trkpt lat="47.07132" lon="6.04274">
        <ele>495.8</ele>
        <time>2024-09-01T07:47:57Z</time>
      </trkpt>
      <trkpt lat="47.07132" lon="6.04274">
        <ele>496</ele>
        <time>2024-09-01T07:47:58Z</time>
      </trkpt>
      <trkpt lat="47.07132" lon="6.04274">
        <ele>496</ele>
        <time>2024-09-01T07:47:59Z</time>
      </trkpt>
      <trkpt lat="47.07132" lon="6.04274">
        <ele>496</ele>
        <time>2024-09-01T07:48:00Z</time>
      </trkpt>
      <trkpt lat="47.07132" lon="6.04274">
        <ele>495.8</ele>
        <time>2024-09-01T07:48:01Z</time>
      </trkpt>
      <trkpt lat="47.07132" lon="6.04274">
        <ele>496</ele>
        <time>2024-09-01T07:48:02Z</time>
      </trkpt>
      <trkpt lat="47.07132" lon="6.04274">
        <ele>496</ele>
        <time>2024-09-01T07:48:03Z</time>
      </trkpt>
      <trkpt lat="47.07132" lon="6.04274">
        <ele>495.8</ele>
        <time>2024-09-01T07:48:04Z</time>
      </trkpt>
      <trkpt lat="47.07132" lon="6.04274">
        <ele>496</ele>
        <time>2024-09-01T07:48:05Z</time>
      </trkpt>
      <trkpt lat="47.07132" lon="6.04274">
        <ele>496</ele>
        <time>2024-09-01T07:48:06Z</time>
      </trkpt>
      <trkpt lat="47.07132" lon="6.04274">
        <ele>495.8</ele>
        <time>2024-09-01T07:48:07Z</time>
      </trkpt>
      <trkpt lat="47.07132" lon="6.04274">
        <ele>496</ele>
        <time>2024-09-01T07:48:08Z</time>
      </trkpt>
      <trkpt lat="47.07132" lon="6.04274">
        <ele>496</ele>
        <time>2024-09-01T07:48:09Z</time>
      </trkpt>
      <trkpt lat="47.07132" lon="6.04274">
        <ele>496</ele>
        <time>2024-09-01T07:48:10Z</time>
      </trkpt>
      <trkpt lat="47.07132" lon="6.04274">
        <ele>495.8</ele>
        <time>2024-09-01T07:48:11Z</time>
      </trkpt>
      <trkpt lat="47.07132" lon="6.04274">
        <ele>496</ele>
        <time>2024-09-01T07:48:12Z</time>
      </trkpt>
      <trkpt lat="47.07132" lon="6.04274">
        <ele>496</ele>
        <time>2024-09-01T07:48:13Z</time>
      </trkpt>
      <trkpt lat="47.07132" lon="6.04274">
        <ele>495.8</ele>
        <time>2024-09-01T07:48:14Z</time>
      </trkpt>
      <trkpt lat="47.07132" lon="6.04274">
        <ele>496</ele>
        <time>2024-09-01T07:48:15Z</time>
      </trkpt>
      <trkpt lat="47.07132" lon="6.04274">
        <ele>495.8</ele>
        <time>2024-09-01T07:48:16Z</time>
      </trkpt>
      <trkpt lat="47.07132" lon="6.04274">
        <ele>496</ele>
        <time>2024-09-01T07:48:17Z</time>
      </trkpt>
      <trkpt lat="47.07132" lon="6.04274">
        <ele>495.8</ele>
        <time>2024-09-01T07:48:18Z</time>
      </trkpt>
      <trkpt lat="47.07132" lon="6.04274">
        <ele>496</ele>
        <time>2024-09-01T07:48:19Z</time>
      </trkpt>
      <trkpt lat="47.07132" lon="6.04274">
        <ele>495.8</ele>
        <time>2024-09-01T07:48:20Z</time>
      </trkpt>
      <trkpt lat="47.07132" lon="6.04274">
        <ele>496</ele>
        <time>2024-09-01T07:48:21Z</time>
      </trkpt>
      <trkpt lat="47.07131" lon="6.04274">
        <ele>496</ele>
        <time>2024-09-01T07:48:22Z</time>
      </trkpt>
      <trkpt lat="47.07131" lon="6.04274">
        <ele>495.8</ele>
        <time>2024-09-01T07:48:23Z</time>
      </trkpt>
      <trkpt lat="47.07131" lon="6.04274">
        <ele>496</ele>
        <time>2024-09-01T07:48:24Z</time>
      </trkpt>
      <trkpt lat="47.07131" lon="6.04274">
        <ele>496</ele>
        <time>2024-09-01T07:48:25Z</time>
      </trkpt>
      <trkpt lat="47.07131" lon="6.04274">
        <ele>496</ele>
        <time>2024-09-01T07:48:26Z</time>
      </trkpt>
      <trkpt lat="47.07131" lon="6.04274">
        <ele>496</ele>
        <time>2024-09-01T07:48:27Z</time>
      </trkpt>
      <trkpt lat="47.07131" lon="6.04274">
        <ele>495.8</ele>
        <time>2024-09-01T07:48:28Z</time>
      </trkpt>
      <trkpt lat="47.07131" lon="6.04274">
        <ele>496</ele>
        <time>2024-09-01T07:48:29Z</time>
      </trkpt>
      <trkpt lat="47.07131" lon="6.04273">
        <ele>496</ele>
        <time>2024-09-01T07:48:30Z</time>
      </trkpt>
      <trkpt lat="47.07131" lon="6.04273">
        <ele>496</ele>
        <time>2024-09-01T07:48:31Z</time>
      </trkpt>
      <trkpt lat="47.07131" lon="6.04273">
        <ele>495.8</ele>
        <time>2024-09-01T07:48:32Z</time>
      </trkpt>
      <trkpt lat="47.07131" lon="6.04273">
        <ele>496</ele>
        <time>2024-09-01T07:48:33Z</time>
      </trkpt>
      <trkpt lat="47.07131" lon="6.04273">
        <ele>496</ele>
        <time>2024-09-01T07:48:34Z</time>
      </trkpt>
      <trkpt lat="47.07131" lon="6.04273">
        <ele>496</ele>
        <time>2024-09-01T07:48:35Z</time>
      </trkpt>
      <trkpt lat="47.07131" lon="6.04273">
        <ele>496</ele>
        <time>2024-09-01T07:48:36Z</time>
      </trkpt>
      <trkpt lat="47.07131" lon="6.04273">
        <ele>496</ele>
        <time>2024-09-01T07:48:37Z</time>
      </trkpt>
      <trkpt lat="47.07131" lon="6.04273">
        <ele>496</ele>
        <time>2024-09-01T07:48:38Z</time>
      </trkpt>
      <trkpt lat="47.07131" lon="6.04274">
        <ele>496</ele>
        <time>2024-09-01T07:48:39Z</time>
      </trkpt>
      <trkpt lat="47.07131" lon="6.04273">
        <ele>495.8</ele>
        <time>2024-09-01T07:48:40Z</time>
      </trkpt>
      <trkpt lat="47.07131" lon="6.04273">
        <ele>496</ele>
        <time>2024-09-01T07:48:41Z</time>
      </trkpt>
      <trkpt lat="47.07131" lon="6.04273">
        <ele>495.8</ele>
        <time>2024-09-01T07:48:42Z</time>
      </trkpt>
      <trkpt lat="47.07131" lon="6.04274">
        <ele>496</ele>
        <time>2024-09-01T07:48:43Z</time>
      </trkpt>
      <trkpt lat="47.07131" lon="6.04274">
        <ele>495.8</ele>
        <time>2024-09-01T07:48:44Z</time>
      </trkpt>
      <trkpt lat="47.07131" lon="6.04274">
        <ele>496</ele>
        <time>2024-09-01T07:48:45Z</time>
      </trkpt>
      <trkpt lat="47.07131" lon="6.04274">
        <ele>496</ele>
        <time>2024-09-01T07:48:46Z</time>
      </trkpt>
      <trkpt lat="47.07131" lon="6.04274">
        <ele>495.8</ele>
        <time>2024-09-01T07:48:47Z</time>
      </trkpt>
      <trkpt lat="47.07131" lon="6.04274">
        <ele>496</ele>
        <time>2024-09-01T07:48:48Z</time>
      </trkpt>
      <trkpt lat="47.07131" lon="6.04274">
        <ele>496</ele>
        <time>2024-09-01T07:48:49Z</time>
      </trkpt>
      <trkpt lat="47.07131" lon="6.04274">
        <ele>496</ele>
        <time>2024-09-01T07:48:50Z</time>
      </trkpt>
      <trkpt lat="47.07131" lon="6.04274">
        <ele>495.8</ele>
        <time>2024-09-01T07:48:51Z</time>
      </trkpt>
      <trkpt lat="47.07131" lon="6.04274">
        <ele>495.8</ele>
        <time>2024-09-01T07:48:52Z</time>
      </trkpt>
      <trkpt lat="47.07131" lon="6.04274">
        <ele>496</ele>
        <time>2024-09-01T07:48:53Z</time>
      </trkpt>
      <trkpt lat="47.07131" lon="6.04274">
        <ele>496</ele>
        <time>2024-09-01T07:48:54Z</time>
      </trkpt>
      <trkpt lat="47.07131" lon="6.04274">
        <ele>496</ele>
        <time>2024-09-01T07:48:55Z</time>
      </trkpt>
      <trkpt lat="47.07131" lon="6.04274">
        <ele>496</ele>
        <time>2024-09-01T07:48:56Z</time>
      </trkpt>
      <trkpt lat="47.07131" lon="6.04274">
        <ele>496</ele>
        <time>2024-09-01T07:48:57Z</time>
      </trkpt>
      <trkpt lat="47.07131" lon="6.04274">
        <ele>496</ele>
        <time>2024-09-01T07:48:58Z</time>
      </trkpt>
      <trkpt lat="47.07131" lon="6.04274">
        <ele>496</ele>
        <time>2024-09-01T07:48:59Z</time>
      </trkpt>
      <trkpt lat="47.07131" lon="6.04274">
        <ele>496</ele>
        <time>2024-09-01T07:49:00Z</time>
      </trkpt>
      <trkpt lat="47.07131" lon="6.04274">
        <ele>496</ele>
        <time>2024-09-01T07:49:01Z</time>
      </trkpt>
      <trkpt lat="47.07131" lon="6.04274">
        <ele>496</ele>
        <time>2024-09-01T07:49:02Z</time>
      </trkpt>
      <trkpt lat="47.07131" lon="6.04274">
        <ele>496</ele>
        <time>2024-09-01T07:49:03Z</time>
      </trkpt>
      <trkpt lat="47.07131" lon="6.04274">
        <ele>496</ele>
        <time>2024-09-01T07:49:04Z</time>
      </trkpt>
      <trkpt lat="47.07131" lon="6.04274">
        <ele>496</ele>
        <time>2024-09-01T07:49:05Z</time>
      </trkpt>
      <trkpt lat="47.07131" lon="6.04274">
        <ele>496</ele>
        <time>2024-09-01T07:49:06Z</time>
      </trkpt>
      <trkpt lat="47.07131" lon="6.04274">
        <ele>496</ele>
        <time>2024-09-01T07:49:07Z</time>
      </trkpt>
      <trkpt lat="47.07131" lon="6.04274">
        <ele>495.8</ele>
        <time>2024-09-01T07:49:08Z</time>
      </trkpt>
      <trkpt lat="47.07131" lon="6.04274">
        <ele>496</ele>
        <time>2024-09-01T07:49:09Z</time>
      </trkpt>
      <trkpt lat="47.07131" lon="6.04273">
        <ele>496</ele>
        <time>2024-09-01T07:49:10Z</time>
      </trkpt>
      <trkpt lat="47.0713" lon="6.04273">
        <ele>495.8</ele>
        <time>2024-09-01T07:49:11Z</time>
      </trkpt>
      <trkpt lat="47.0713" lon="6.04271">
        <ele>495.8</ele>
        <time>2024-09-01T07:49:12Z</time>
      </trkpt>
      <trkpt lat="47.0713" lon="6.0427">
        <ele>496</ele>
        <time>2024-09-01T07:49:13Z</time>
      </trkpt>
      <trkpt lat="47.0713" lon="6.04268">
        <ele>495.8</ele>
        <time>2024-09-01T07:49:14Z</time>
      </trkpt>
      <trkpt lat="47.0713" lon="6.04266">
        <ele>496</ele>
        <time>2024-09-01T07:49:15Z</time>
      </trkpt>
      <trkpt lat="47.0713" lon="6.04265">
        <ele>495.8</ele>
        <time>2024-09-01T07:49:16Z</time>
      </trkpt>
      <trkpt lat="47.0713" lon="6.04265">
        <ele>495.8</ele>
        <time>2024-09-01T07:49:17Z</time>
      </trkpt>
      <trkpt lat="47.0713" lon="6.04265">
        <ele>496</ele>
        <time>2024-09-01T07:49:18Z</time>
      </trkpt>
      <trkpt lat="47.0713" lon="6.04264">
        <ele>496</ele>
        <time>2024-09-01T07:49:19Z</time>
      </trkpt>
      <trkpt lat="47.07131" lon="6.04265">
        <ele>496</ele>
        <time>2024-09-01T07:49:20Z</time>
      </trkpt>
      <trkpt lat="47.0713" lon="6.04265">
        <ele>496</ele>
        <time>2024-09-01T07:49:21Z</time>
      </trkpt>
      <trkpt lat="47.0713" lon="6.04265">
        <ele>496</ele>
        <time>2024-09-01T07:49:22Z</time>
      </trkpt>
      <trkpt lat="47.0713" lon="6.04266">
        <ele>496</ele>
        <time>2024-09-01T07:49:23Z</time>
      </trkpt>
      <trkpt lat="47.0713" lon="6.04266">
        <ele>496</ele>
        <time>2024-09-01T07:49:24Z</time>
      </trkpt>
      <trkpt lat="47.0713" lon="6.04265">
        <ele>496</ele>
        <time>2024-09-01T07:49:25Z</time>
      </trkpt>
      <trkpt lat="47.0713" lon="6.04265">
        <ele>496</ele>
        <time>2024-09-01T07:49:26Z</time>
      </trkpt>
      <trkpt lat="47.0713" lon="6.04265">
        <ele>496</ele>
        <time>2024-09-01T07:49:27Z</time>
      </trkpt>
      <trkpt lat="47.07131" lon="6.04265">
        <ele>496</ele>
        <time>2024-09-01T07:49:28Z</time>
      </trkpt>
      <trkpt lat="47.07131" lon="6.04265">
        <ele>496</ele>
        <time>2024-09-01T07:49:29Z</time>
      </trkpt>
      <trkpt lat="47.07131" lon="6.04265">
        <ele>496</ele>
        <time>2024-09-01T07:49:30Z</time>
      </trkpt>
      <trkpt lat="47.07131" lon="6.04265">
        <ele>496</ele>
        <time>2024-09-01T07:49:31Z</time>
      </trkpt>
      <trkpt lat="47.07131" lon="6.04265">
        <ele>496</ele>
        <time>2024-09-01T07:49:32Z</time>
      </trkpt>
      <trkpt lat="47.07131" lon="6.04265">
        <ele>496</ele>
        <time>2024-09-01T07:49:33Z</time>
      </trkpt>
      <trkpt lat="47.07131" lon="6.04265">
        <ele>496.2</ele>
        <time>2024-09-01T07:49:34Z</time>
      </trkpt>
      <trkpt lat="47.07131" lon="6.04265">
        <ele>496</ele>
        <time>2024-09-01T07:49:35Z</time>
      </trkpt>
      <trkpt lat="47.07131" lon="6.04265">
        <ele>496</ele>
        <time>2024-09-01T07:49:36Z</time>
      </trkpt>
      <trkpt lat="47.0713" lon="6.04265">
        <ele>496</ele>
        <time>2024-09-01T07:49:37Z</time>
      </trkpt>
      <trkpt lat="47.07131" lon="6.04265">
        <ele>496</ele>
        <time>2024-09-01T07:49:38Z</time>
      </trkpt>
      <trkpt lat="47.07131" lon="6.04265">
        <ele>496</ele>
        <time>2024-09-01T07:49:39Z</time>
      </trkpt>
      <trkpt lat="47.07131" lon="6.04265">
        <ele>496.2</ele>
        <time>2024-09-01T07:49:40Z</time>
      </trkpt>
      <trkpt lat="47.07131" lon="6.04266">
        <ele>496.2</ele>
        <time>2024-09-01T07:49:41Z</time>
      </trkpt>
      <trkpt lat="47.0713" lon="6.04266">
        <ele>496.2</ele>
        <time>2024-09-01T07:49:42Z</time>
      </trkpt>
      <trkpt lat="47.0713" lon="6.04266">
        <ele>496</ele>
        <time>2024-09-01T07:49:43Z</time>
      </trkpt>
      <trkpt lat="47.0713" lon="6.04266">
        <ele>496.2</ele>
        <time>2024-09-01T07:49:44Z</time>
      </trkpt>
      <trkpt lat="47.0713" lon="6.04266">
        <ele>496</ele>
        <time>2024-09-01T07:49:45Z</time>
      </trkpt>
      <trkpt lat="47.0713" lon="6.04266">
        <ele>496.2</ele>
        <time>2024-09-01T07:49:46Z</time>
      </trkpt>
      <trkpt lat="47.0713" lon="6.04267">
        <ele>496.2</ele>
        <time>2024-09-01T07:49:47Z</time>
      </trkpt>
      <trkpt lat="47.0713" lon="6.04267">
        <ele>496</ele>
        <time>2024-09-01T07:49:48Z</time>
      </trkpt>
      <trkpt lat="47.0713" lon="6.04267">
        <ele>496.2</ele>
        <time>2024-09-01T07:49:49Z</time>
      </trkpt>
      <trkpt lat="47.0713" lon="6.04267">
        <ele>496</ele>
        <time>2024-09-01T07:49:50Z</time>
      </trkpt>
      <trkpt lat="47.0713" lon="6.04267">
        <ele>496</ele>
        <time>2024-09-01T07:49:51Z</time>
      </trkpt>
      <trkpt lat="47.07129" lon="6.04268">
        <ele>496</ele>
        <time>2024-09-01T07:49:52Z</time>
      </trkpt>
      <trkpt lat="47.07129" lon="6.04268">
        <ele>496</ele>
        <time>2024-09-01T07:49:53Z</time>
      </trkpt>
      <trkpt lat="47.07129" lon="6.04268">
        <ele>496</ele>
        <time>2024-09-01T07:49:54Z</time>
      </trkpt>
      <trkpt lat="47.07129" lon="6.04268">
        <ele>496</ele>
        <time>2024-09-01T07:49:55Z</time>
      </trkpt>
      <trkpt lat="47.07129" lon="6.04268">
        <ele>496</ele>
        <time>2024-09-01T07:49:56Z</time>
      </trkpt>
      <trkpt lat="47.0713" lon="6.04268">
        <ele>496</ele>
        <time>2024-09-01T07:49:57Z</time>
      </trkpt>
      <trkpt lat="47.0713" lon="6.04268">
        <ele>496.2</ele>
        <time>2024-09-01T07:49:58Z</time>
      </trkpt>
      <trkpt lat="47.0713" lon="6.04268">
        <ele>496</ele>
        <time>2024-09-01T07:49:59Z</time>
      </trkpt>
      <trkpt lat="47.0713" lon="6.04269">
        <ele>496.2</ele>
        <time>2024-09-01T07:50:00Z</time>
      </trkpt>
      <trkpt lat="47.0713" lon="6.04269">
        <ele>496</ele>
        <time>2024-09-01T07:50:01Z</time>
      </trkpt>
      <trkpt lat="47.0713" lon="6.04269">
        <ele>496</ele>
        <time>2024-09-01T07:50:02Z</time>
      </trkpt>
      <trkpt lat="47.07131" lon="6.04269">
        <ele>496</ele>
        <time>2024-09-01T07:50:03Z</time>
      </trkpt>
      <trkpt lat="47.07131" lon="6.04269">
        <ele>496</ele>
        <time>2024-09-01T07:50:04Z</time>
      </trkpt>
      <trkpt lat="47.07131" lon="6.0427">
        <ele>496.2</ele>
        <time>2024-09-01T07:50:05Z</time>
      </trkpt>
      <trkpt lat="47.07131" lon="6.0427">
        <ele>496</ele>
        <time>2024-09-01T07:50:06Z</time>
      </trkpt>
      <trkpt lat="47.07131" lon="6.0427">
        <ele>496</ele>
        <time>2024-09-01T07:50:07Z</time>
      </trkpt>
      <trkpt lat="47.07131" lon="6.0427">
        <ele>496</ele>
        <time>2024-09-01T07:50:08Z</time>
      </trkpt>
      <trkpt lat="47.07131" lon="6.0427">
        <ele>496</ele>
        <time>2024-09-01T07:50:09Z</time>
      </trkpt>
      <trkpt lat="47.07131" lon="6.0427">
        <ele>496.2</ele>
        <time>2024-09-01T07:50:10Z</time>
      </trkpt>
      <trkpt lat="47.07131" lon="6.0427">
        <ele>496.2</ele>
        <time>2024-09-01T07:50:11Z</time>
      </trkpt>
      <trkpt lat="47.07131" lon="6.0427">
        <ele>496.2</ele>
        <time>2024-09-01T07:50:12Z</time>
      </trkpt>
      <trkpt lat="47.07131" lon="6.0427">
        <ele>496</ele>
        <time>2024-09-01T07:50:13Z</time>
      </trkpt>
      <trkpt lat="47.07131" lon="6.04268">
        <ele>496</ele>
        <time>2024-09-01T07:50:14Z</time>
      </trkpt>
      <trkpt lat="47.07131" lon="6.04267">
        <ele>496</ele>
        <time>2024-09-01T07:50:15Z</time>
      </trkpt>
      <trkpt lat="47.07131" lon="6.04267">
        <ele>496</ele>
        <time>2024-09-01T07:50:16Z</time>
      </trkpt>
      <trkpt lat="47.0713" lon="6.04266">
        <ele>496.2</ele>
        <time>2024-09-01T07:50:17Z</time>
      </trkpt>
      <trkpt lat="47.0713" lon="6.04264">
        <ele>496.2</ele>
        <time>2024-09-01T07:50:18Z</time>
      </trkpt>
      <trkpt lat="47.0713" lon="6.04262">
        <ele>496</ele>
        <time>2024-09-01T07:50:19Z</time>
      </trkpt>
      <trkpt lat="47.07129" lon="6.0426">
        <ele>496.2</ele>
        <time>2024-09-01T07:50:20Z</time>
      </trkpt>
      <trkpt lat="47.07129" lon="6.04259">
        <ele>496.2</ele>
        <time>2024-09-01T07:50:21Z</time>
      </trkpt>
      <trkpt lat="47.07129" lon="6.04259">
        <ele>496.2</ele>
        <time>2024-09-01T07:50:22Z</time>
      </trkpt>
      <trkpt lat="47.07129" lon="6.04258">
        <ele>496</ele>
        <time>2024-09-01T07:50:23Z</time>
      </trkpt>
      <trkpt lat="47.07129" lon="6.04257">
        <ele>496</ele>
        <time>2024-09-01T07:50:24Z</time>
      </trkpt>
      <trkpt lat="47.0713" lon="6.04256">
        <ele>496.2</ele>
        <time>2024-09-01T07:50:25Z</time>
      </trkpt>
      <trkpt lat="47.0713" lon="6.04256">
        <ele>496.2</ele>
        <time>2024-09-01T07:50:26Z</time>
      </trkpt>
      <trkpt lat="47.0713" lon="6.04256">
        <ele>496.2</ele>
        <time>2024-09-01T07:50:27Z</time>
      </trkpt>
      <trkpt lat="47.07131" lon="6.04256">
        <ele>496.2</ele>
        <time>2024-09-01T07:50:28Z</time>
      </trkpt>
      <trkpt lat="47.07131" lon="6.04256">
        <ele>496.2</ele>
        <time>2024-09-01T07:50:29Z</time>
      </trkpt>
      <trkpt lat="47.07131" lon="6.04256">
        <ele>496.2</ele>
        <time>2024-09-01T07:50:30Z</time>
      </trkpt>
      <trkpt lat="47.07132" lon="6.04256">
        <ele>496.2</ele>
        <time>2024-09-01T07:50:31Z</time>
      </trkpt>
      <trkpt lat="47.07132" lon="6.04256">
        <ele>496.2</ele>
        <time>2024-09-01T07:50:32Z</time>
      </trkpt>
      <trkpt lat="47.07132" lon="6.04256">
        <ele>496.2</ele>
        <time>2024-09-01T07:50:33Z</time>
      </trkpt>
      <trkpt lat="47.07132" lon="6.04255">
        <ele>496.2</ele>
        <time>2024-09-01T07:50:34Z</time>
      </trkpt>
      <trkpt lat="47.07132" lon="6.04255">
        <ele>496.2</ele>
        <time>2024-09-01T07:50:35Z</time>
      </trkpt>
      <trkpt lat="47.07132" lon="6.04256">
        <ele>496.2</ele>
        <time>2024-09-01T07:50:36Z</time>
      </trkpt>
      <trkpt lat="47.07132" lon="6.04256">
        <ele>496.2</ele>
        <time>2024-09-01T07:50:37Z</time>
      </trkpt>
      <trkpt lat="47.07132" lon="6.04257">
        <ele>496.2</ele>
        <time>2024-09-01T07:50:38Z</time>
      </trkpt>
      <trkpt lat="47.07131" lon="6.04257">
        <ele>496.2</ele>
        <time>2024-09-01T07:50:39Z</time>
      </trkpt>
      <trkpt lat="47.07131" lon="6.04257">
        <ele>496.2</ele>
        <time>2024-09-01T07:50:40Z</time>
      </trkpt>
      <trkpt lat="47.07131" lon="6.04257">
        <ele>496.2</ele>
        <time>2024-09-01T07:50:41Z</time>
      </trkpt>
      <trkpt lat="47.07131" lon="6.04257">
        <ele>496.2</ele>
        <time>2024-09-01T07:50:42Z</time>
      </trkpt>
      <trkpt lat="47.07131" lon="6.04257">
        <ele>496.2</ele>
        <time>2024-09-01T07:50:43Z</time>
      </trkpt>
      <trkpt lat="47.07131" lon="6.04258">
        <ele>496.2</ele>
        <time>2024-09-01T07:50:44Z</time>
      </trkpt>
      <trkpt lat="47.0713" lon="6.04257">
        <ele>496.2</ele>
        <time>2024-09-01T07:50:45Z</time>
      </trkpt>
      <trkpt lat="47.07131" lon="6.04257">
        <ele>496.2</ele>
        <time>2024-09-01T07:50:46Z</time>
      </trkpt>
      <trkpt lat="47.0713" lon="6.04257">
        <ele>496</ele>
        <time>2024-09-01T07:50:47Z</time>
      </trkpt>
      <trkpt lat="47.07131" lon="6.04257">
        <ele>496</ele>
        <time>2024-09-01T07:50:48Z</time>
      </trkpt>
      <trkpt lat="47.07131" lon="6.04258">
        <ele>496</ele>
        <time>2024-09-01T07:50:49Z</time>
      </trkpt>
      <trkpt lat="47.07131" lon="6.04259">
        <ele>496.2</ele>
        <time>2024-09-01T07:50:50Z</time>
      </trkpt>
      <trkpt lat="47.07131" lon="6.04259">
        <ele>496.2</ele>
        <time>2024-09-01T07:50:51Z</time>
      </trkpt>
      <trkpt lat="47.07131" lon="6.0426">
        <ele>496.2</ele>
        <time>2024-09-01T07:50:52Z</time>
      </trkpt>
      <trkpt lat="47.07132" lon="6.04261">
        <ele>496</ele>
        <time>2024-09-01T07:50:53Z</time>
      </trkpt>
      <trkpt lat="47.07132" lon="6.04262">
        <ele>496</ele>
        <time>2024-09-01T07:50:54Z</time>
      </trkpt>
      <trkpt lat="47.07133" lon="6.04263">
        <ele>496.2</ele>
        <time>2024-09-01T07:50:55Z</time>
      </trkpt>
      <trkpt lat="47.07133" lon="6.04264">
        <ele>496</ele>
        <time>2024-09-01T07:50:56Z</time>
      </trkpt>
      <trkpt lat="47.07133" lon="6.04264">
        <ele>496</ele>
        <time>2024-09-01T07:50:57Z</time>
      </trkpt>
      <trkpt lat="47.07133" lon="6.04265">
        <ele>496</ele>
        <time>2024-09-01T07:50:58Z</time>
      </trkpt>
      <trkpt lat="47.07134" lon="6.04265">
        <ele>495.8</ele>
        <time>2024-09-01T07:50:59Z</time>
      </trkpt>
      <trkpt lat="47.07133" lon="6.04265">
        <ele>496</ele>
        <time>2024-09-01T07:51:00Z</time>
      </trkpt>
      <trkpt lat="47.07134" lon="6.04265">
        <ele>496</ele>
        <time>2024-09-01T07:51:01Z</time>
      </trkpt>
      <trkpt lat="47.07134" lon="6.04265">
        <ele>496</ele>
        <time>2024-09-01T07:51:02Z</time>
      </trkpt>
      <trkpt lat="47.07134" lon="6.04265">
        <ele>496</ele>
        <time>2024-09-01T07:51:03Z</time>
      </trkpt>
      <trkpt lat="47.07134" lon="6.04266">
        <ele>496</ele>
        <time>2024-09-01T07:51:04Z</time>
      </trkpt>
      <trkpt lat="47.07134" lon="6.04266">
        <ele>496</ele>
        <time>2024-09-01T07:51:05Z</time>
      </trkpt>
      <trkpt lat="47.07134" lon="6.04266">
        <ele>496</ele>
        <time>2024-09-01T07:51:06Z</time>
      </trkpt>
      <trkpt lat="47.07134" lon="6.04267">
        <ele>496</ele>
        <time>2024-09-01T07:51:07Z</time>
      </trkpt>
      <trkpt lat="47.07134" lon="6.04267">
        <ele>496</ele>
        <time>2024-09-01T07:51:08Z</time>
      </trkpt>
      <trkpt lat="47.07134" lon="6.04267">
        <ele>496</ele>
        <time>2024-09-01T07:51:09Z</time>
      </trkpt>
      <trkpt lat="47.07133" lon="6.04267">
        <ele>495.8</ele>
        <time>2024-09-01T07:51:10Z</time>
      </trkpt>
      <trkpt lat="47.07133" lon="6.04268">
        <ele>495.8</ele>
        <time>2024-09-01T07:51:11Z</time>
      </trkpt>
      <trkpt lat="47.07132" lon="6.04267">
        <ele>495.8</ele>
        <time>2024-09-01T07:51:12Z</time>
      </trkpt>
      <trkpt lat="47.07131" lon="6.04267">
        <ele>495.8</ele>
        <time>2024-09-01T07:51:13Z</time>
      </trkpt>
      <trkpt lat="47.0713" lon="6.04267">
        <ele>495.8</ele>
        <time>2024-09-01T07:51:14Z</time>
      </trkpt>
      <trkpt lat="47.07128" lon="6.04267">
        <ele>496</ele>
        <time>2024-09-01T07:51:15Z</time>
      </trkpt>
      <trkpt lat="47.07126" lon="6.04267">
        <ele>496</ele>
        <time>2024-09-01T07:51:16Z</time>
      </trkpt>
      <trkpt lat="47.07124" lon="6.04267">
        <ele>496</ele>
        <time>2024-09-01T07:51:17Z</time>
      </trkpt>
      <trkpt lat="47.07122" lon="6.04267">
        <ele>496</ele>
        <time>2024-09-01T07:51:18Z</time>
      </trkpt>
      <trkpt lat="47.07119" lon="6.04267">
        <ele>496</ele>
        <time>2024-09-01T07:51:19Z</time>
      </trkpt>
      <trkpt lat="47.07117" lon="6.04267">
        <ele>496</ele>
        <time>2024-09-01T07:51:20Z</time>
      </trkpt>
      <trkpt lat="47.07115" lon="6.04266">
        <ele>496.2</ele>
        <time>2024-09-01T07:51:21Z</time>
      </trkpt>
      <trkpt lat="47.07113" lon="6.04266">
        <ele>496.2</ele>
        <time>2024-09-01T07:51:22Z</time>
      </trkpt>
      <trkpt lat="47.07111" lon="6.04266">
        <ele>496.2</ele>
        <time>2024-09-01T07:51:23Z</time>
      </trkpt>
      <trkpt lat="47.07108" lon="6.04266">
        <ele>496.4</ele>
        <time>2024-09-01T07:51:24Z</time>
      </trkpt>
      <trkpt lat="47.07106" lon="6.04266">
        <ele>496.6</ele>
        <time>2024-09-01T07:51:25Z</time>
      </trkpt>
      <trkpt lat="47.07105" lon="6.04266">
        <ele>496.8</ele>
        <time>2024-09-01T07:51:26Z</time>
      </trkpt>
      <trkpt lat="47.07103" lon="6.04266">
        <ele>496.8</ele>
        <time>2024-09-01T07:51:27Z</time>
      </trkpt>
      <trkpt lat="47.07101" lon="6.04267">
        <ele>497</ele>
        <time>2024-09-01T07:51:28Z</time>
      </trkpt>
      <trkpt lat="47.07099" lon="6.04267">
        <ele>497</ele>
        <time>2024-09-01T07:51:29Z</time>
      </trkpt>
      <trkpt lat="47.07097" lon="6.04266">
        <ele>497.2</ele>
        <time>2024-09-01T07:51:30Z</time>
      </trkpt>
      <trkpt lat="47.07095" lon="6.04266">
        <ele>497.4</ele>
        <time>2024-09-01T07:51:31Z</time>
      </trkpt>
      <trkpt lat="47.07092" lon="6.04266">
        <ele>497.6</ele>
        <time>2024-09-01T07:51:32Z</time>
      </trkpt>
      <trkpt lat="47.07091" lon="6.04266">
        <ele>497.8</ele>
        <time>2024-09-01T07:51:33Z</time>
      </trkpt>
      <trkpt lat="47.07088" lon="6.04266">
        <ele>498</ele>
        <time>2024-09-01T07:51:34Z</time>
      </trkpt>
      <trkpt lat="47.07086" lon="6.04266">
        <ele>498</ele>
        <time>2024-09-01T07:51:35Z</time>
      </trkpt>
      <trkpt lat="47.07084" lon="6.04266">
        <ele>498</ele>
        <time>2024-09-01T07:51:36Z</time>
      </trkpt>
      <trkpt lat="47.07082" lon="6.04265">
        <ele>498.2</ele>
        <time>2024-09-01T07:51:37Z</time>
      </trkpt>
      <trkpt lat="47.0708" lon="6.04265">
        <ele>498.4</ele>
        <time>2024-09-01T07:51:38Z</time>
      </trkpt>
      <trkpt lat="47.07078" lon="6.04264">
        <ele>498.6</ele>
        <time>2024-09-01T07:51:39Z</time>
      </trkpt>
      <trkpt lat="47.07076" lon="6.04263">
        <ele>498.6</ele>
        <time>2024-09-01T07:51:40Z</time>
      </trkpt>
      <trkpt lat="47.07074" lon="6.04262">
        <ele>499</ele>
        <time>2024-09-01T07:51:41Z</time>
      </trkpt>
      <trkpt lat="47.07072" lon="6.04261">
        <ele>499</ele>
        <time>2024-09-01T07:51:42Z</time>
      </trkpt>
      <trkpt lat="47.0707" lon="6.04259">
        <ele>499.2</ele>
        <time>2024-09-01T07:51:43Z</time>
      </trkpt>
      <trkpt lat="47.07068" lon="6.04257">
        <ele>499.4</ele>
        <time>2024-09-01T07:51:44Z</time>
      </trkpt>
      <trkpt lat="47.07067" lon="6.04256">
        <ele>499.8</ele>
        <time>2024-09-01T07:51:45Z</time>
      </trkpt>
      <trkpt lat="47.07065" lon="6.04253">
        <ele>499.8</ele>
        <time>2024-09-01T07:51:46Z</time>
      </trkpt>
      <trkpt lat="47.07064" lon="6.04251">
        <ele>500.2</ele>
        <time>2024-09-01T07:51:47Z</time>
      </trkpt>
      <trkpt lat="47.07062" lon="6.04249">
        <ele>500.4</ele>
        <time>2024-09-01T07:51:48Z</time>
      </trkpt>
      <trkpt lat="47.07061" lon="6.04247">
        <ele>500.6</ele>
        <time>2024-09-01T07:51:49Z</time>
      </trkpt>
      <trkpt lat="47.0706" lon="6.04245">
        <ele>500.6</ele>
        <time>2024-09-01T07:51:50Z</time>
      </trkpt>
      <trkpt lat="47.07058" lon="6.04243">
        <ele>500.8</ele>
        <time>2024-09-01T07:51:51Z</time>
      </trkpt>
      <trkpt lat="47.07056" lon="6.04241">
        <ele>501</ele>
        <time>2024-09-01T07:51:52Z</time>
      </trkpt>
      <trkpt lat="47.07054" lon="6.0424">
        <ele>501</ele>
        <time>2024-09-01T07:51:53Z</time>
      </trkpt>
      <trkpt lat="47.07052" lon="6.04237">
        <ele>501.4</ele>
        <time>2024-09-01T07:51:54Z</time>
      </trkpt>
      <trkpt lat="47.0705" lon="6.04235">
        <ele>501.4</ele>
        <time>2024-09-01T07:51:55Z</time>
      </trkpt>
      <trkpt lat="47.07048" lon="6.04232">
        <ele>501.6</ele>
        <time>2024-09-01T07:51:56Z</time>
      </trkpt>
      <trkpt lat="47.07046" lon="6.04229">
        <ele>501.8</ele>
        <time>2024-09-01T07:51:57Z</time>
      </trkpt>
      <trkpt lat="47.07044" lon="6.04226">
        <ele>502</ele>
        <time>2024-09-01T07:51:58Z</time>
      </trkpt>
      <trkpt lat="47.07043" lon="6.04224">
        <ele>502</ele>
        <time>2024-09-01T07:51:59Z</time>
      </trkpt>
      <trkpt lat="47.07041" lon="6.04222">
        <ele>502.2</ele>
        <time>2024-09-01T07:52:00Z</time>
      </trkpt>
      <trkpt lat="47.07039" lon="6.0422">
        <ele>502.2</ele>
        <time>2024-09-01T07:52:01Z</time>
      </trkpt>
      <trkpt lat="47.07037" lon="6.04218">
        <ele>502.2</ele>
        <time>2024-09-01T07:52:02Z</time>
      </trkpt>
      <trkpt lat="47.07035" lon="6.04215">
        <ele>502.2</ele>
        <time>2024-09-01T07:52:03Z</time>
      </trkpt>
      <trkpt lat="47.07033" lon="6.04212">
        <ele>502.4</ele>
        <time>2024-09-01T07:52:04Z</time>
      </trkpt>
      <trkpt lat="47.07031" lon="6.0421">
        <ele>502.6</ele>
        <time>2024-09-01T07:52:05Z</time>
      </trkpt>
      <trkpt lat="47.07029" lon="6.04207">
        <ele>502.6</ele>
        <time>2024-09-01T07:52:06Z</time>
      </trkpt>
      <trkpt lat="47.07026" lon="6.04205">
        <ele>502.6</ele>
        <time>2024-09-01T07:52:07Z</time>
      </trkpt>
      <trkpt lat="47.07024" lon="6.04202">
        <ele>502.8</ele>
        <time>2024-09-01T07:52:08Z</time>
      </trkpt>
      <trkpt lat="47.07021" lon="6.042">
        <ele>502.8</ele>
        <time>2024-09-01T07:52:09Z</time>
      </trkpt>
      <trkpt lat="47.07019" lon="6.04198">
        <ele>503</ele>
        <time>2024-09-01T07:52:10Z</time>
      </trkpt>
      <trkpt lat="47.07016" lon="6.04196">
        <ele>503</ele>
        <time>2024-09-01T07:52:11Z</time>
      </trkpt>
      <trkpt lat="47.07013" lon="6.04193">
        <ele>503</ele>
        <time>2024-09-01T07:52:12Z</time>
      </trkpt>
      <trkpt lat="47.0701" lon="6.04191">
        <ele>503</ele>
        <time>2024-09-01T07:52:13Z</time>
      </trkpt>
      <trkpt lat="47.07007" lon="6.04189">
        <ele>503.2</ele>
        <time>2024-09-01T07:52:14Z</time>
      </trkpt>
      <trkpt lat="47.07004" lon="6.04186">
        <ele>503.2</ele>
        <time>2024-09-01T07:52:15Z</time>
      </trkpt>
      <trkpt lat="47.07001" lon="6.04184">
        <ele>503.2</ele>
        <time>2024-09-01T07:52:16Z</time>
      </trkpt>
      <trkpt lat="47.06997" lon="6.04182">
        <ele>503.4</ele>
        <time>2024-09-01T07:52:17Z</time>
      </trkpt>
      <trkpt lat="47.06994" lon="6.04179">
        <ele>503.4</ele>
        <time>2024-09-01T07:52:18Z</time>
      </trkpt>
      <trkpt lat="47.0699" lon="6.04176">
        <ele>503.4</ele>
        <time>2024-09-01T07:52:19Z</time>
      </trkpt>
      <trkpt lat="47.06987" lon="6.04173">
        <ele>503.4</ele>
        <time>2024-09-01T07:52:20Z</time>
      </trkpt>
      <trkpt lat="47.06984" lon="6.0417">
        <ele>503.6</ele>
        <time>2024-09-01T07:52:21Z</time>
      </trkpt>
      <trkpt lat="47.06981" lon="6.04166">
        <ele>503.4</ele>
        <time>2024-09-01T07:52:22Z</time>
      </trkpt>
      <trkpt lat="47.06978" lon="6.04163">
        <ele>503.4</ele>
        <time>2024-09-01T07:52:23Z</time>
      </trkpt>
      <trkpt lat="47.06976" lon="6.04159">
        <ele>503.4</ele>
        <time>2024-09-01T07:52:24Z</time>
      </trkpt>
      <trkpt lat="47.06973" lon="6.04157">
        <ele>503.4</ele>
        <time>2024-09-01T07:52:25Z</time>
      </trkpt>
      <trkpt lat="47.0697" lon="6.04155">
        <ele>503.4</ele>
        <time>2024-09-01T07:52:26Z</time>
      </trkpt>
      <trkpt lat="47.06967" lon="6.04153">
        <ele>503.4</ele>
        <time>2024-09-01T07:52:27Z</time>
      </trkpt>
      <trkpt lat="47.06963" lon="6.04153">
        <ele>503.4</ele>
        <time>2024-09-01T07:52:28Z</time>
      </trkpt>
      <trkpt lat="47.0696" lon="6.04153">
        <ele>503.4</ele>
        <time>2024-09-01T07:52:29Z</time>
      </trkpt>
      <trkpt lat="47.06956" lon="6.04153">
        <ele>503.4</ele>
        <time>2024-09-01T07:52:30Z</time>
      </trkpt>
      <trkpt lat="47.06952" lon="6.04152">
        <ele>503.4</ele>
        <time>2024-09-01T07:52:31Z</time>
      </trkpt>
      <trkpt lat="47.06947" lon="6.0415">
        <ele>503.4</ele>
        <time>2024-09-01T07:52:32Z</time>
      </trkpt>
      <trkpt lat="47.06943" lon="6.04149">
        <ele>503.6</ele>
        <time>2024-09-01T07:52:33Z</time>
      </trkpt>
      <trkpt lat="47.0694" lon="6.04148">
        <ele>503.4</ele>
        <time>2024-09-01T07:52:34Z</time>
      </trkpt>
      <trkpt lat="47.06936" lon="6.04147">
        <ele>503.6</ele>
        <time>2024-09-01T07:52:35Z</time>
      </trkpt>
      <trkpt lat="47.06932" lon="6.04147">
        <ele>503.4</ele>
        <time>2024-09-01T07:52:36Z</time>
      </trkpt>
      <trkpt lat="47.06928" lon="6.04146">
        <ele>503.4</ele>
        <time>2024-09-01T07:52:37Z</time>
      </trkpt>
      <trkpt lat="47.06925" lon="6.04145">
        <ele>503.4</ele>
        <time>2024-09-01T07:52:38Z</time>
      </trkpt>
      <trkpt lat="47.06921" lon="6.04143">
        <ele>503.4</ele>
        <time>2024-09-01T07:52:39Z</time>
      </trkpt>
      <trkpt lat="47.06917" lon="6.04142">
        <ele>503.4</ele>
        <time>2024-09-01T07:52:40Z</time>
      </trkpt>
      <trkpt lat="47.06913" lon="6.0414">
        <ele>503.4</ele>
        <time>2024-09-01T07:52:41Z</time>
      </trkpt>
      <trkpt lat="47.06909" lon="6.04138">
        <ele>503.4</ele>
        <time>2024-09-01T07:52:42Z</time>
      </trkpt>
      <trkpt lat="47.06906" lon="6.04137">
        <ele>503.4</ele>
        <time>2024-09-01T07:52:43Z</time>
      </trkpt>
      <trkpt lat="47.06903" lon="6.04134">
        <ele>503.4</ele>
        <time>2024-09-01T07:52:44Z</time>
      </trkpt>
      <trkpt lat="47.069" lon="6.0413">
        <ele>503.4</ele>
        <time>2024-09-01T07:52:45Z</time>
      </trkpt>
      <trkpt lat="47.06898" lon="6.04123">
        <ele>503.4</ele>
        <time>2024-09-01T07:52:46Z</time>
      </trkpt>
      <trkpt lat="47.06897" lon="6.04115">
        <ele>503.4</ele>
        <time>2024-09-01T07:52:47Z</time>
      </trkpt>
      <trkpt lat="47.06896" lon="6.04107">
        <ele>503.2</ele>
        <time>2024-09-01T07:52:48Z</time>
      </trkpt>
      <trkpt lat="47.06896" lon="6.04099">
        <ele>503.2</ele>
        <time>2024-09-01T07:52:49Z</time>
      </trkpt>
      <trkpt lat="47.06896" lon="6.04091">
        <ele>503</ele>
        <time>2024-09-01T07:52:50Z</time>
      </trkpt>
      <trkpt lat="47.06896" lon="6.04082">
        <ele>502.8</ele>
        <time>2024-09-01T07:52:51Z</time>
      </trkpt>
      <trkpt lat="47.06896" lon="6.04074">
        <ele>502.4</ele>
        <time>2024-09-01T07:52:52Z</time>
      </trkpt>
      <trkpt lat="47.06895" lon="6.04066">
        <ele>502.2</ele>
        <time>2024-09-01T07:52:53Z</time>
      </trkpt>
      <trkpt lat="47.06894" lon="6.04058">
        <ele>501.8</ele>
        <time>2024-09-01T07:52:54Z</time>
      </trkpt>
      <trkpt lat="47.06893" lon="6.04051">
        <ele>501.8</ele>
        <time>2024-09-01T07:52:55Z</time>
      </trkpt>
      <trkpt lat="47.06892" lon="6.04045">
        <ele>501.4</ele>
        <time>2024-09-01T07:52:56Z</time>
      </trkpt>
      <trkpt lat="47.06891" lon="6.04039">
        <ele>501.2</ele>
        <time>2024-09-01T07:52:57Z</time>
      </trkpt>
      <trkpt lat="47.06893" lon="6.04031">
        <ele>501</ele>
        <time>2024-09-01T07:52:58Z</time>
      </trkpt>
      <trkpt lat="47.06896" lon="6.04025">
        <ele>500.8</ele>
        <time>2024-09-01T07:52:59Z</time>
      </trkpt>
      <trkpt lat="47.06899" lon="6.04022">
        <ele>500.8</ele>
        <time>2024-09-01T07:53:00Z</time>
      </trkpt>
      <trkpt lat="47.06904" lon="6.0402">
        <ele>500.6</ele>
        <time>2024-09-01T07:53:01Z</time>
      </trkpt>
      <trkpt lat="47.06908" lon="6.04019">
        <ele>500.6</ele>
        <time>2024-09-01T07:53:02Z</time>
      </trkpt>
      <trkpt lat="47.06912" lon="6.04018">
        <ele>500.4</ele>
        <time>2024-09-01T07:53:03Z</time>
      </trkpt>
      <trkpt lat="47.06916" lon="6.04017">
        <ele>500.2</ele>
        <time>2024-09-01T07:53:04Z</time>
      </trkpt>
      <trkpt lat="47.0692" lon="6.04017">
        <ele>500.2</ele>
        <time>2024-09-01T07:53:05Z</time>
      </trkpt>
      <trkpt lat="47.06925" lon="6.04017">
        <ele>500</ele>
        <time>2024-09-01T07:53:06Z</time>
      </trkpt>
      <trkpt lat="47.06929" lon="6.04017">
        <ele>500</ele>
        <time>2024-09-01T07:53:07Z</time>
      </trkpt>
      <trkpt lat="47.06933" lon="6.04016">
        <ele>499.8</ele>
        <time>2024-09-01T07:53:08Z</time>
      </trkpt>
      <trkpt lat="47.06938" lon="6.04015">
        <ele>499.8</ele>
        <time>2024-09-01T07:53:09Z</time>
      </trkpt>
      <trkpt lat="47.06943" lon="6.04013">
        <ele>499.8</ele>
        <time>2024-09-01T07:53:10Z</time>
      </trkpt>
      <trkpt lat="47.06947" lon="6.0401">
        <ele>499.8</ele>
        <time>2024-09-01T07:53:11Z</time>
      </trkpt>
      <trkpt lat="47.06952" lon="6.04006">
        <ele>499.6</ele>
        <time>2024-09-01T07:53:12Z</time>
      </trkpt>
      <trkpt lat="47.06956" lon="6.04002">
        <ele>499.6</ele>
        <time>2024-09-01T07:53:13Z</time>
      </trkpt>
      <trkpt lat="47.0696" lon="6.03996">
        <ele>499.6</ele>
        <time>2024-09-01T07:53:14Z</time>
      </trkpt>
      <trkpt lat="47.06964" lon="6.0399">
        <ele>499.4</ele>
        <time>2024-09-01T07:53:15Z</time>
      </trkpt>
      <trkpt lat="47.06968" lon="6.03984">
        <ele>499.4</ele>
        <time>2024-09-01T07:53:16Z</time>
      </trkpt>
      <trkpt lat="47.06972" lon="6.03977">
        <ele>499.4</ele>
        <time>2024-09-01T07:53:17Z</time>
      </trkpt>
      <trkpt lat="47.06977" lon="6.03971">
        <ele>499.2</ele>
        <time>2024-09-01T07:53:18Z</time>
      </trkpt>
      <trkpt lat="47.06981" lon="6.03965">
        <ele>499.2</ele>
        <time>2024-09-01T07:53:19Z</time>
      </trkpt>
      <trkpt lat="47.06985" lon="6.03959">
        <ele>499</ele>
        <time>2024-09-01T07:53:20Z</time>
      </trkpt>
      <trkpt lat="47.06989" lon="6.03953">
        <ele>498.8</ele>
        <time>2024-09-01T07:53:21Z</time>
      </trkpt>
      <trkpt lat="47.06993" lon="6.03948">
        <ele>498.4</ele>
        <time>2024-09-01T07:53:22Z</time>
      </trkpt>
      <trkpt lat="47.06998" lon="6.03942">
        <ele>498.4</ele>
        <time>2024-09-01T07:53:23Z</time>
      </trkpt>
      <trkpt lat="47.07002" lon="6.03936">
        <ele>498.2</ele>
        <time>2024-09-01T07:53:24Z</time>
      </trkpt>
      <trkpt lat="47.07006" lon="6.0393">
        <ele>498</ele>
        <time>2024-09-01T07:53:25Z</time>
      </trkpt>
      <trkpt lat="47.0701" lon="6.03924">
        <ele>497.8</ele>
        <time>2024-09-01T07:53:26Z</time>
      </trkpt>
      <trkpt lat="47.07015" lon="6.03918">
        <ele>497.8</ele>
        <time>2024-09-01T07:53:27Z</time>
      </trkpt>
      <trkpt lat="47.07019" lon="6.03912">
        <ele>497.6</ele>
        <time>2024-09-01T07:53:28Z</time>
      </trkpt>
      <trkpt lat="47.07024" lon="6.03905">
        <ele>497.4</ele>
        <time>2024-09-01T07:53:29Z</time>
      </trkpt>
      <trkpt lat="47.07028" lon="6.03899">
        <ele>497.2</ele>
        <time>2024-09-01T07:53:30Z</time>
      </trkpt>
      <trkpt lat="47.07033" lon="6.03892">
        <ele>497</ele>
        <time>2024-09-01T07:53:31Z</time>
      </trkpt>
      <trkpt lat="47.07038" lon="6.03885">
        <ele>497</ele>
        <time>2024-09-01T07:53:32Z</time>
      </trkpt>
      <trkpt lat="47.07043" lon="6.03878">
        <ele>497</ele>
        <time>2024-09-01T07:53:33Z</time>
      </trkpt>
      <trkpt lat="47.07047" lon="6.03871">
        <ele>496.8</ele>
        <time>2024-09-01T07:53:34Z</time>
      </trkpt>
      <trkpt lat="47.07051" lon="6.03862">
        <ele>496.6</ele>
        <time>2024-09-01T07:53:35Z</time>
      </trkpt>
      <trkpt lat="47.07055" lon="6.03853">
        <ele>496.4</ele>
        <time>2024-09-01T07:53:36Z</time>
      </trkpt>
      <trkpt lat="47.07057" lon="6.03843">
        <ele>496.2</ele>
        <time>2024-09-01T07:53:37Z</time>
      </trkpt>
      <trkpt lat="47.0706" lon="6.03833">
        <ele>495.8</ele>
        <time>2024-09-01T07:53:38Z</time>
      </trkpt>
      <trkpt lat="47.07062" lon="6.03823">
        <ele>495.6</ele>
        <time>2024-09-01T07:53:39Z</time>
      </trkpt>
      <trkpt lat="47.07064" lon="6.03813">
        <ele>495.2</ele>
        <time>2024-09-01T07:53:40Z</time>
      </trkpt>
      <trkpt lat="47.07066" lon="6.03802">
        <ele>495</ele>
        <time>2024-09-01T07:53:41Z</time>
      </trkpt>
      <trkpt lat="47.07067" lon="6.03791">
        <ele>494.6</ele>
        <time>2024-09-01T07:53:42Z</time>
      </trkpt>
      <trkpt lat="47.07067" lon="6.03779">
        <ele>494.4</ele>
        <time>2024-09-01T07:53:43Z</time>
      </trkpt>
      <trkpt lat="47.07066" lon="6.03767">
        <ele>493.8</ele>
        <time>2024-09-01T07:53:44Z</time>
      </trkpt>
      <trkpt lat="47.07063" lon="6.03756">
        <ele>493.8</ele>
        <time>2024-09-01T07:53:45Z</time>
      </trkpt>
      <trkpt lat="47.07059" lon="6.03746">
        <ele>493.4</ele>
        <time>2024-09-01T07:53:46Z</time>
      </trkpt>
      <trkpt lat="47.07053" lon="6.03737">
        <ele>493.2</ele>
        <time>2024-09-01T07:53:47Z</time>
      </trkpt>
      <trkpt lat="47.07049" lon="6.03729">
        <ele>492.6</ele>
        <time>2024-09-01T07:53:48Z</time>
      </trkpt>
      <trkpt lat="47.07046" lon="6.0372">
        <ele>492.2</ele>
        <time>2024-09-01T07:53:49Z</time>
      </trkpt>
      <trkpt lat="47.07044" lon="6.03711">
        <ele>491.4</ele>
        <time>2024-09-01T07:53:50Z</time>
      </trkpt>
      <trkpt lat="47.07044" lon="6.03701">
        <ele>490.6</ele>
        <time>2024-09-01T07:53:51Z</time>
      </trkpt>
      <trkpt lat="47.07045" lon="6.03691">
        <ele>490</ele>
        <time>2024-09-01T07:53:52Z</time>
      </trkpt>
      <trkpt lat="47.07045" lon="6.03681">
        <ele>489.4</ele>
        <time>2024-09-01T07:53:53Z</time>
      </trkpt>
      <trkpt lat="47.07045" lon="6.03671">
        <ele>488.6</ele>
        <time>2024-09-01T07:53:54Z</time>
      </trkpt>
      <trkpt lat="47.07044" lon="6.03661">
        <ele>488</ele>
        <time>2024-09-01T07:53:55Z</time>
      </trkpt>
      <trkpt lat="47.0704" lon="6.03651">
        <ele>487.6</ele>
        <time>2024-09-01T07:53:56Z</time>
      </trkpt>
      <trkpt lat="47.07037" lon="6.03641">
        <ele>486.8</ele>
        <time>2024-09-01T07:53:57Z</time>
      </trkpt>
      <trkpt lat="47.07034" lon="6.03631">
        <ele>486.2</ele>
        <time>2024-09-01T07:53:58Z</time>
      </trkpt>
      <trkpt lat="47.07031" lon="6.03621">
        <ele>485.8</ele>
        <time>2024-09-01T07:53:59Z</time>
      </trkpt>
      <trkpt lat="47.07027" lon="6.03611">
        <ele>485.4</ele>
        <time>2024-09-01T07:54:00Z</time>
      </trkpt>
      <trkpt lat="47.07023" lon="6.036">
        <ele>484.6</ele>
        <time>2024-09-01T07:54:01Z</time>
      </trkpt>
      <trkpt lat="47.07019" lon="6.03589">
        <ele>483.8</ele>
        <time>2024-09-01T07:54:02Z</time>
      </trkpt>
      <trkpt lat="47.07016" lon="6.03577">
        <ele>483.2</ele>
        <time>2024-09-01T07:54:03Z</time>
      </trkpt>
      <trkpt lat="47.07012" lon="6.03564">
        <ele>482.6</ele>
        <time>2024-09-01T07:54:04Z</time>
      </trkpt>
      <trkpt lat="47.0701" lon="6.0355">
        <ele>482</ele>
        <time>2024-09-01T07:54:05Z</time>
      </trkpt>
      <trkpt lat="47.07005" lon="6.03536">
        <ele>481.4</ele>
        <time>2024-09-01T07:54:06Z</time>
      </trkpt>
      <trkpt lat="47.07001" lon="6.03522">
        <ele>480.4</ele>
        <time>2024-09-01T07:54:07Z</time>
      </trkpt>
      <trkpt lat="47.06997" lon="6.03508">
        <ele>479.6</ele>
        <time>2024-09-01T07:54:08Z</time>
      </trkpt>
      <trkpt lat="47.06992" lon="6.03494">
        <ele>478.6</ele>
        <time>2024-09-01T07:54:09Z</time>
      </trkpt>
      <trkpt lat="47.06988" lon="6.0348">
        <ele>477.4</ele>
        <time>2024-09-01T07:54:10Z</time>
      </trkpt>
      <trkpt lat="47.06985" lon="6.03464">
        <ele>476.2</ele>
        <time>2024-09-01T07:54:11Z</time>
      </trkpt>
      <trkpt lat="47.06982" lon="6.03449">
        <ele>475</ele>
        <time>2024-09-01T07:54:12Z</time>
      </trkpt>
      <trkpt lat="47.06979" lon="6.03438">
        <ele>473.4</ele>
        <time>2024-09-01T07:54:13Z</time>
      </trkpt>
      <trkpt lat="47.06977" lon="6.03425">
        <ele>471.6</ele>
        <time>2024-09-01T07:54:14Z</time>
      </trkpt>
      <trkpt lat="47.06975" lon="6.03411">
        <ele>469.8</ele>
        <time>2024-09-01T07:54:15Z</time>
      </trkpt>
      <trkpt lat="47.06974" lon="6.03399">
        <ele>467.8</ele>
        <time>2024-09-01T07:54:16Z</time>
      </trkpt>
      <trkpt lat="47.06973" lon="6.03386">
        <ele>466</ele>
        <time>2024-09-01T07:54:17Z</time>
      </trkpt>
      <trkpt lat="47.06972" lon="6.03374">
        <ele>464</ele>
        <time>2024-09-01T07:54:18Z</time>
      </trkpt>
      <trkpt lat="47.06969" lon="6.03362">
        <ele>462.6</ele>
        <time>2024-09-01T07:54:19Z</time>
      </trkpt>
      <trkpt lat="47.06967" lon="6.0335">
        <ele>460.6</ele>
        <time>2024-09-01T07:54:20Z</time>
      </trkpt>
      <trkpt lat="47.06964" lon="6.03338">
        <ele>459.4</ele>
        <time>2024-09-01T07:54:21Z</time>
      </trkpt>
      <trkpt lat="47.06961" lon="6.03328">
        <ele>458.2</ele>
        <time>2024-09-01T07:54:22Z</time>
      </trkpt>
      <trkpt lat="47.06959" lon="6.03315">
        <ele>456.6</ele>
        <time>2024-09-01T07:54:23Z</time>
      </trkpt>
      <trkpt lat="47.06956" lon="6.03303">
        <ele>455.2</ele>
        <time>2024-09-01T07:54:24Z</time>
      </trkpt>
      <trkpt lat="47.06952" lon="6.0329">
        <ele>453.8</ele>
        <time>2024-09-01T07:54:25Z</time>
      </trkpt>
      <trkpt lat="47.06948" lon="6.03277">
        <ele>452.2</ele>
        <time>2024-09-01T07:54:26Z</time>
      </trkpt>
      <trkpt lat="47.06943" lon="6.03263">
        <ele>451</ele>
        <time>2024-09-01T07:54:27Z</time>
      </trkpt>
      <trkpt lat="47.06939" lon="6.0325">
        <ele>449.4</ele>
        <time>2024-09-01T07:54:28Z</time>
      </trkpt>
      <trkpt lat="47.06935" lon="6.03237">
        <ele>448</ele>
        <time>2024-09-01T07:54:29Z</time>
      </trkpt>
      <trkpt lat="47.0693" lon="6.03223">
        <ele>446.8</ele>
        <time>2024-09-01T07:54:30Z</time>
      </trkpt>
      <trkpt lat="47.06927" lon="6.03209">
        <ele>445.8</ele>
        <time>2024-09-01T07:54:31Z</time>
      </trkpt>
      <trkpt lat="47.06924" lon="6.03196">
        <ele>444.6</ele>
        <time>2024-09-01T07:54:32Z</time>
      </trkpt>
      <trkpt lat="47.06922" lon="6.03182">
        <ele>443.4</ele>
        <time>2024-09-01T07:54:33Z</time>
      </trkpt>
      <trkpt lat="47.0692" lon="6.03169">
        <ele>442.6</ele>
        <time>2024-09-01T07:54:34Z</time>
      </trkpt>
      <trkpt lat="47.06919" lon="6.03156">
        <ele>441.8</ele>
        <time>2024-09-01T07:54:35Z</time>
      </trkpt>
      <trkpt lat="47.06918" lon="6.03145">
        <ele>441</ele>
        <time>2024-09-01T07:54:36Z</time>
      </trkpt>
      <trkpt lat="47.06917" lon="6.03134">
        <ele>440.6</ele>
        <time>2024-09-01T07:54:37Z</time>
      </trkpt>
      <trkpt lat="47.06916" lon="6.03123">
        <ele>440.2</ele>
        <time>2024-09-01T07:54:38Z</time>
      </trkpt>
      <trkpt lat="47.06915" lon="6.03113">
        <ele>440</ele>
        <time>2024-09-01T07:54:39Z</time>
      </trkpt>
      <trkpt lat="47.06913" lon="6.03103">
        <ele>440</ele>
        <time>2024-09-01T07:54:40Z</time>
      </trkpt>
      <trkpt lat="47.06911" lon="6.03094">
        <ele>440</ele>
        <time>2024-09-01T07:54:41Z</time>
      </trkpt>
      <trkpt lat="47.0691" lon="6.03085">
        <ele>440</ele>
        <time>2024-09-01T07:54:42Z</time>
      </trkpt>
      <trkpt lat="47.06909" lon="6.03076">
        <ele>440</ele>
        <time>2024-09-01T07:54:43Z</time>
      </trkpt>
      <trkpt lat="47.06908" lon="6.03067">
        <ele>439.8</ele>
        <time>2024-09-01T07:54:44Z</time>
      </trkpt>
      <trkpt lat="47.06908" lon="6.03058">
        <ele>440</ele>
        <time>2024-09-01T07:54:45Z</time>
      </trkpt>
      <trkpt lat="47.06907" lon="6.03049">
        <ele>440</ele>
        <time>2024-09-01T07:54:46Z</time>
      </trkpt>
      <trkpt lat="47.06905" lon="6.03039">
        <ele>440</ele>
        <time>2024-09-01T07:54:47Z</time>
      </trkpt>
      <trkpt lat="47.06904" lon="6.0303">
        <ele>440.2</ele>
        <time>2024-09-01T07:54:48Z</time>
      </trkpt>
      <trkpt lat="47.06903" lon="6.03021">
        <ele>440.2</ele>
        <time>2024-09-01T07:54:49Z</time>
      </trkpt>
      <trkpt lat="47.06901" lon="6.03012">
        <ele>440.2</ele>
        <time>2024-09-01T07:54:50Z</time>
      </trkpt>
      <trkpt lat="47.069" lon="6.03004">
        <ele>440.4</ele>
        <time>2024-09-01T07:54:51Z</time>
      </trkpt>
      <trkpt lat="47.069" lon="6.02996">
        <ele>440.6</ele>
        <time>2024-09-01T07:54:52Z</time>
      </trkpt>
      <trkpt lat="47.06899" lon="6.02987">
        <ele>440.6</ele>
        <time>2024-09-01T07:54:53Z</time>
      </trkpt>
      <trkpt lat="47.06899" lon="6.02978">
        <ele>440.6</ele>
        <time>2024-09-01T07:54:54Z</time>
      </trkpt>
      <trkpt lat="47.06899" lon="6.02967">
        <ele>440.6</ele>
        <time>2024-09-01T07:54:55Z</time>
      </trkpt>
      <trkpt lat="47.06898" lon="6.02957">
        <ele>440.8</ele>
        <time>2024-09-01T07:54:56Z</time>
      </trkpt>
      <trkpt lat="47.06897" lon="6.02947">
        <ele>440.6</ele>
        <time>2024-09-01T07:54:57Z</time>
      </trkpt>
      <trkpt lat="47.06896" lon="6.02937">
        <ele>440.8</ele>
        <time>2024-09-01T07:54:58Z</time>
      </trkpt>
      <trkpt lat="47.06895" lon="6.02927">
        <ele>440.8</ele>
        <time>2024-09-01T07:54:59Z</time>
      </trkpt>
      <trkpt lat="47.06893" lon="6.02917">
        <ele>441</ele>
        <time>2024-09-01T07:55:00Z</time>
      </trkpt>
      <trkpt lat="47.06891" lon="6.02907">
        <ele>440.8</ele>
        <time>2024-09-01T07:55:01Z</time>
      </trkpt>
      <trkpt lat="47.06889" lon="6.02898">
        <ele>440.8</ele>
        <time>2024-09-01T07:55:02Z</time>
      </trkpt>
      <trkpt lat="47.06886" lon="6.0289">
        <ele>440.8</ele>
        <time>2024-09-01T07:55:03Z</time>
      </trkpt>
      <trkpt lat="47.06885" lon="6.02882">
        <ele>441</ele>
        <time>2024-09-01T07:55:04Z</time>
      </trkpt>
      <trkpt lat="47.06884" lon="6.02873">
        <ele>440.8</ele>
        <time>2024-09-01T07:55:05Z</time>
      </trkpt>
      <trkpt lat="47.06882" lon="6.02864">
        <ele>440.8</ele>
        <time>2024-09-01T07:55:06Z</time>
      </trkpt>
      <trkpt lat="47.0688" lon="6.02854">
        <ele>440.8</ele>
        <time>2024-09-01T07:55:07Z</time>
      </trkpt>
      <trkpt lat="47.06879" lon="6.02844">
        <ele>440.8</ele>
        <time>2024-09-01T07:55:08Z</time>
      </trkpt>
      <trkpt lat="47.06878" lon="6.02834">
        <ele>440.8</ele>
        <time>2024-09-01T07:55:09Z</time>
      </trkpt>
      <trkpt lat="47.06877" lon="6.02824">
        <ele>440.8</ele>
        <time>2024-09-01T07:55:10Z</time>
      </trkpt>
      <trkpt lat="47.06877" lon="6.02814">
        <ele>440.8</ele>
        <time>2024-09-01T07:55:11Z</time>
      </trkpt>
      <trkpt lat="47.06877" lon="6.02805">
        <ele>440.8</ele>
        <time>2024-09-01T07:55:12Z</time>
      </trkpt>
      <trkpt lat="47.06876" lon="6.02797">
        <ele>440.8</ele>
        <time>2024-09-01T07:55:13Z</time>
      </trkpt>
      <trkpt lat="47.06875" lon="6.02788">
        <ele>440.8</ele>
        <time>2024-09-01T07:55:14Z</time>
      </trkpt>
      <trkpt lat="47.06873" lon="6.02779">
        <ele>440.8</ele>
        <time>2024-09-01T07:55:15Z</time>
      </trkpt>
      <trkpt lat="47.06872" lon="6.02769">
        <ele>440.6</ele>
        <time>2024-09-01T07:55:16Z</time>
      </trkpt>
      <trkpt lat="47.06871" lon="6.02759">
        <ele>440.8</ele>
        <time>2024-09-01T07:55:17Z</time>
      </trkpt>
      <trkpt lat="47.06871" lon="6.02746">
        <ele>440.6</ele>
        <time>2024-09-01T07:55:18Z</time>
      </trkpt>
      <trkpt lat="47.0687" lon="6.02733">
        <ele>440.6</ele>
        <time>2024-09-01T07:55:19Z</time>
      </trkpt>
      <trkpt lat="47.0687" lon="6.0272">
        <ele>440.6</ele>
        <time>2024-09-01T07:55:20Z</time>
      </trkpt>
      <trkpt lat="47.06869" lon="6.02706">
        <ele>440.4</ele>
        <time>2024-09-01T07:55:21Z</time>
      </trkpt>
      <trkpt lat="47.06867" lon="6.02691">
        <ele>440.2</ele>
        <time>2024-09-01T07:55:22Z</time>
      </trkpt>
      <trkpt lat="47.06865" lon="6.02677">
        <ele>440.4</ele>
        <time>2024-09-01T07:55:23Z</time>
      </trkpt>
      <trkpt lat="47.06864" lon="6.02663">
        <ele>440.2</ele>
        <time>2024-09-01T07:55:24Z</time>
      </trkpt>
      <trkpt lat="47.06862" lon="6.0265">
        <ele>440.2</ele>
        <time>2024-09-01T07:55:25Z</time>
      </trkpt>
      <trkpt lat="47.06861" lon="6.02637">
        <ele>439.8</ele>
        <time>2024-09-01T07:55:26Z</time>
      </trkpt>
      <trkpt lat="47.06861" lon="6.02625">
        <ele>439.6</ele>
        <time>2024-09-01T07:55:27Z</time>
      </trkpt>
      <trkpt lat="47.06861" lon="6.02612">
        <ele>439.4</ele>
        <time>2024-09-01T07:55:28Z</time>
      </trkpt>
      <trkpt lat="47.0686" lon="6.02599">
        <ele>439.2</ele>
        <time>2024-09-01T07:55:29Z</time>
      </trkpt>
      <trkpt lat="47.06858" lon="6.02585">
        <ele>438.8</ele>
        <time>2024-09-01T07:55:30Z</time>
      </trkpt>
      <trkpt lat="47.06856" lon="6.02572">
        <ele>438.2</ele>
        <time>2024-09-01T07:55:31Z</time>
      </trkpt>
      <trkpt lat="47.06854" lon="6.02557">
        <ele>437.8</ele>
        <time>2024-09-01T07:55:32Z</time>
      </trkpt>
      <trkpt lat="47.06851" lon="6.02543">
        <ele>437.6</ele>
        <time>2024-09-01T07:55:33Z</time>
      </trkpt>
      <trkpt lat="47.06848" lon="6.02529">
        <ele>437.4</ele>
        <time>2024-09-01T07:55:34Z</time>
      </trkpt>
      <trkpt lat="47.06844" lon="6.02515">
        <ele>437</ele>
        <time>2024-09-01T07:55:35Z</time>
      </trkpt>
      <trkpt lat="47.06841" lon="6.02502">
        <ele>436.6</ele>
        <time>2024-09-01T07:55:36Z</time>
      </trkpt>
      <trkpt lat="47.06837" lon="6.02488">
        <ele>436.2</ele>
        <time>2024-09-01T07:55:37Z</time>
      </trkpt>
      <trkpt lat="47.06834" lon="6.02474">
        <ele>435.6</ele>
        <time>2024-09-01T07:55:38Z</time>
      </trkpt>
      <trkpt lat="47.0683" lon="6.0246">
        <ele>435.2</ele>
        <time>2024-09-01T07:55:39Z</time>
      </trkpt>
      <trkpt lat="47.06827" lon="6.02445">
        <ele>435</ele>
        <time>2024-09-01T07:55:40Z</time>
      </trkpt>
      <trkpt lat="47.06825" lon="6.02431">
        <ele>434.2</ele>
        <time>2024-09-01T07:55:41Z</time>
      </trkpt>
      <trkpt lat="47.06822" lon="6.02416">
        <ele>433.6</ele>
        <time>2024-09-01T07:55:42Z</time>
      </trkpt>
      <trkpt lat="47.0682" lon="6.02402">
        <ele>432.8</ele>
        <time>2024-09-01T07:55:43Z</time>
      </trkpt>
      <trkpt lat="47.06817" lon="6.02389">
        <ele>432.4</ele>
        <time>2024-09-01T07:55:44Z</time>
      </trkpt>
      <trkpt lat="47.06813" lon="6.02377">
        <ele>432</ele>
        <time>2024-09-01T07:55:45Z</time>
      </trkpt>
      <trkpt lat="47.06807" lon="6.02366">
        <ele>431</ele>
        <time>2024-09-01T07:55:46Z</time>
      </trkpt>
      <trkpt lat="47.068" lon="6.02356">
        <ele>430.4</ele>
        <time>2024-09-01T07:55:47Z</time>
      </trkpt>
      <trkpt lat="47.0679" lon="6.02346">
        <ele>429.4</ele>
        <time>2024-09-01T07:55:48Z</time>
      </trkpt>
      <trkpt lat="47.06781" lon="6.02336">
        <ele>428.2</ele>
        <time>2024-09-01T07:55:49Z</time>
      </trkpt>
      <trkpt lat="47.06772" lon="6.02326">
        <ele>427</ele>
        <time>2024-09-01T07:55:50Z</time>
      </trkpt>
      <trkpt lat="47.06764" lon="6.02315">
        <ele>425.8</ele>
        <time>2024-09-01T07:55:51Z</time>
      </trkpt>
      <trkpt lat="47.06757" lon="6.02306">
        <ele>424.4</ele>
        <time>2024-09-01T07:55:52Z</time>
      </trkpt>
      <trkpt lat="47.0675" lon="6.02297">
        <ele>422.8</ele>
        <time>2024-09-01T07:55:53Z</time>
      </trkpt>
      <trkpt lat="47.06744" lon="6.02291">
        <ele>421.4</ele>
        <time>2024-09-01T07:55:54Z</time>
      </trkpt>
      <trkpt lat="47.06737" lon="6.02287">
        <ele>420.4</ele>
        <time>2024-09-01T07:55:55Z</time>
      </trkpt>
      <trkpt lat="47.0673" lon="6.02287">
        <ele>419.2</ele>
        <time>2024-09-01T07:55:56Z</time>
      </trkpt>
      <trkpt lat="47.06722" lon="6.0229">
        <ele>418</ele>
        <time>2024-09-01T07:55:57Z</time>
      </trkpt>
      <trkpt lat="47.06715" lon="6.02295">
        <ele>416.8</ele>
        <time>2024-09-01T07:55:58Z</time>
      </trkpt>
      <trkpt lat="47.06708" lon="6.02302">
        <ele>414.8</ele>
        <time>2024-09-01T07:55:59Z</time>
      </trkpt>
      <trkpt lat="47.06701" lon="6.02308">
        <ele>413.4</ele>
        <time>2024-09-01T07:56:00Z</time>
      </trkpt>
      <trkpt lat="47.06694" lon="6.02313">
        <ele>411.6</ele>
        <time>2024-09-01T07:56:01Z</time>
      </trkpt>
      <trkpt lat="47.06688" lon="6.02316">
        <ele>409.8</ele>
        <time>2024-09-01T07:56:02Z</time>
      </trkpt>
      <trkpt lat="47.06682" lon="6.02317">
        <ele>408.6</ele>
        <time>2024-09-01T07:56:03Z</time>
      </trkpt>
      <trkpt lat="47.06677" lon="6.02315">
        <ele>407.2</ele>
        <time>2024-09-01T07:56:04Z</time>
      </trkpt>
      <trkpt lat="47.06671" lon="6.02313">
        <ele>406.2</ele>
        <time>2024-09-01T07:56:05Z</time>
      </trkpt>
      <trkpt lat="47.06665" lon="6.02312">
        <ele>405.4</ele>
        <time>2024-09-01T07:56:06Z</time>
      </trkpt>
      <trkpt lat="47.06659" lon="6.0231">
        <ele>404.6</ele>
        <time>2024-09-01T07:56:07Z</time>
      </trkpt>
      <trkpt lat="47.06653" lon="6.02309">
        <ele>404.2</ele>
        <time>2024-09-01T07:56:08Z</time>
      </trkpt>
      <trkpt lat="47.06648" lon="6.02309">
        <ele>404</ele>
        <time>2024-09-01T07:56:09Z</time>
      </trkpt>
      <trkpt lat="47.06642" lon="6.02309">
        <ele>404</ele>
        <time>2024-09-01T07:56:10Z</time>
      </trkpt>
      <trkpt lat="47.06636" lon="6.02309">
        <ele>404</ele>
        <time>2024-09-01T07:56:11Z</time>
      </trkpt>
      <trkpt lat="47.06631" lon="6.02309">
        <ele>403.8</ele>
        <time>2024-09-01T07:56:12Z</time>
      </trkpt>
      <trkpt lat="47.06625" lon="6.0231">
        <ele>403.8</ele>
        <time>2024-09-01T07:56:13Z</time>
      </trkpt>
      <trkpt lat="47.06619" lon="6.02312">
        <ele>403.8</ele>
        <time>2024-09-01T07:56:14Z</time>
      </trkpt>
      <trkpt lat="47.06613" lon="6.02313">
        <ele>403.6</ele>
        <time>2024-09-01T07:56:15Z</time>
      </trkpt>
      <trkpt lat="47.06607" lon="6.02315">
        <ele>403.6</ele>
        <time>2024-09-01T07:56:16Z</time>
      </trkpt>
      <trkpt lat="47.06601" lon="6.02317">
        <ele>403.4</ele>
        <time>2024-09-01T07:56:17Z</time>
      </trkpt>
      <trkpt lat="47.06595" lon="6.02319">
        <ele>403.6</ele>
        <time>2024-09-01T07:56:18Z</time>
      </trkpt>
      <trkpt lat="47.06589" lon="6.02321">
        <ele>403.4</ele>
        <time>2024-09-01T07:56:19Z</time>
      </trkpt>
      <trkpt lat="47.06583" lon="6.02324">
        <ele>403.4</ele>
        <time>2024-09-01T07:56:20Z</time>
      </trkpt>
      <trkpt lat="47.06577" lon="6.02327">
        <ele>403.4</ele>
        <time>2024-09-01T07:56:21Z</time>
      </trkpt>
      <trkpt lat="47.06572" lon="6.02329">
        <ele>403.4</ele>
        <time>2024-09-01T07:56:22Z</time>
      </trkpt>
      <trkpt lat="47.06567" lon="6.02333">
        <ele>403.4</ele>
        <time>2024-09-01T07:56:23Z</time>
      </trkpt>
      <trkpt lat="47.06561" lon="6.02337">
        <ele>403.6</ele>
        <time>2024-09-01T07:56:24Z</time>
      </trkpt>
      <trkpt lat="47.06556" lon="6.02343">
        <ele>403.6</ele>
        <time>2024-09-01T07:56:25Z</time>
      </trkpt>
      <trkpt lat="47.06551" lon="6.02348">
        <ele>403.6</ele>
        <time>2024-09-01T07:56:26Z</time>
      </trkpt>
      <trkpt lat="47.06546" lon="6.02355">
        <ele>403.4</ele>
        <time>2024-09-01T07:56:27Z</time>
      </trkpt>
      <trkpt lat="47.06541" lon="6.0236">
        <ele>403.4</ele>
        <time>2024-09-01T07:56:28Z</time>
      </trkpt>
      <trkpt lat="47.06536" lon="6.02364">
        <ele>403.4</ele>
        <time>2024-09-01T07:56:29Z</time>
      </trkpt>
      <trkpt lat="47.0653" lon="6.02368">
        <ele>403.4</ele>
        <time>2024-09-01T07:56:30Z</time>
      </trkpt>
      <trkpt lat="47.06524" lon="6.02371">
        <ele>403.4</ele>
        <time>2024-09-01T07:56:31Z</time>
      </trkpt>
      <trkpt lat="47.06519" lon="6.02375">
        <ele>403.4</ele>
        <time>2024-09-01T07:56:32Z</time>
      </trkpt>
      <trkpt lat="47.06513" lon="6.02378">
        <ele>403.6</ele>
        <time>2024-09-01T07:56:33Z</time>
      </trkpt>
      <trkpt lat="47.06507" lon="6.02381">
        <ele>403.6</ele>
        <time>2024-09-01T07:56:34Z</time>
      </trkpt>
      <trkpt lat="47.06502" lon="6.02385">
        <ele>403.8</ele>
        <time>2024-09-01T07:56:35Z</time>
      </trkpt>
      <trkpt lat="47.06497" lon="6.02389">
        <ele>404</ele>
        <time>2024-09-01T07:56:36Z</time>
      </trkpt>
      <trkpt lat="47.06493" lon="6.02393">
        <ele>404.2</ele>
        <time>2024-09-01T07:56:37Z</time>
      </trkpt>
      <trkpt lat="47.06488" lon="6.02398">
        <ele>404.6</ele>
        <time>2024-09-01T07:56:38Z</time>
      </trkpt>
      <trkpt lat="47.06484" lon="6.02402">
        <ele>404.6</ele>
        <time>2024-09-01T07:56:39Z</time>
      </trkpt>
      <trkpt lat="47.0648" lon="6.02406">
        <ele>404.8</ele>
        <time>2024-09-01T07:56:40Z</time>
      </trkpt>
      <trkpt lat="47.06476" lon="6.0241">
        <ele>405</ele>
        <time>2024-09-01T07:56:41Z</time>
      </trkpt>
      <trkpt lat="47.06473" lon="6.02414">
        <ele>405</ele>
        <time>2024-09-01T07:56:42Z</time>
      </trkpt>
      <trkpt lat="47.0647" lon="6.02417">
        <ele>405.4</ele>
        <time>2024-09-01T07:56:43Z</time>
      </trkpt>
      <trkpt lat="47.06467" lon="6.0242">
        <ele>405.4</ele>
        <time>2024-09-01T07:56:44Z</time>
      </trkpt>
      <trkpt lat="47.06464" lon="6.02423">
        <ele>405.6</ele>
        <time>2024-09-01T07:56:45Z</time>
      </trkpt>
      <trkpt lat="47.06461" lon="6.02426">
        <ele>405.8</ele>
        <time>2024-09-01T07:56:46Z</time>
      </trkpt>
      <trkpt lat="47.06458" lon="6.02429">
        <ele>405.6</ele>
        <time>2024-09-01T07:56:47Z</time>
      </trkpt>
      <trkpt lat="47.06455" lon="6.02432">
        <ele>406</ele>
        <time>2024-09-01T07:56:48Z</time>
      </trkpt>
      <trkpt lat="47.06452" lon="6.02434">
        <ele>406</ele>
        <time>2024-09-01T07:56:49Z</time>
      </trkpt>
      <trkpt lat="47.06449" lon="6.02436">
        <ele>406.6</ele>
        <time>2024-09-01T07:56:50Z</time>
      </trkpt>
      <trkpt lat="47.06446" lon="6.02439">
        <ele>407</ele>
        <time>2024-09-01T07:56:51Z</time>
      </trkpt>
      <trkpt lat="47.06442" lon="6.0244">
        <ele>407.4</ele>
        <time>2024-09-01T07:56:52Z</time>
      </trkpt>
      <trkpt lat="47.06438" lon="6.02442">
        <ele>407.6</ele>
        <time>2024-09-01T07:56:53Z</time>
      </trkpt>
      <trkpt lat="47.06434" lon="6.02445">
        <ele>407.8</ele>
        <time>2024-09-01T07:56:54Z</time>
      </trkpt>
      <trkpt lat="47.06431" lon="6.0245">
        <ele>408.4</ele>
        <time>2024-09-01T07:56:55Z</time>
      </trkpt>
      <trkpt lat="47.06427" lon="6.02454">
        <ele>408.4</ele>
        <time>2024-09-01T07:56:56Z</time>
      </trkpt>
      <trkpt lat="47.06424" lon="6.0246">
        <ele>408.6</ele>
        <time>2024-09-01T07:56:57Z</time>
      </trkpt>
      <trkpt lat="47.06421" lon="6.02466">
        <ele>408.6</ele>
        <time>2024-09-01T07:56:58Z</time>
      </trkpt>
      <trkpt lat="47.06418" lon="6.02471">
        <ele>408.6</ele>
        <time>2024-09-01T07:56:59Z</time>
      </trkpt>
      <trkpt lat="47.06415" lon="6.02479">
        <ele>408.8</ele>
        <time>2024-09-01T07:57:00Z</time>
      </trkpt>
      <trkpt lat="47.06412" lon="6.02487">
        <ele>408.8</ele>
        <time>2024-09-01T07:57:01Z</time>
      </trkpt>
      <trkpt lat="47.06409" lon="6.02494">
        <ele>408.8</ele>
        <time>2024-09-01T07:57:02Z</time>
      </trkpt>
      <trkpt lat="47.06406" lon="6.02501">
        <ele>408.8</ele>
        <time>2024-09-01T07:57:03Z</time>
      </trkpt>
      <trkpt lat="47.06403" lon="6.02508">
        <ele>408.6</ele>
        <time>2024-09-01T07:57:04Z</time>
      </trkpt>
      <trkpt lat="47.06399" lon="6.02515">
        <ele>408.8</ele>
        <time>2024-09-01T07:57:05Z</time>
      </trkpt>
      <trkpt lat="47.06396" lon="6.02521">
        <ele>408.8</ele>
        <time>2024-09-01T07:57:06Z</time>
      </trkpt>
      <trkpt lat="47.06393" lon="6.02527">
        <ele>408.8</ele>
        <time>2024-09-01T07:57:07Z</time>
      </trkpt>
      <trkpt lat="47.0639" lon="6.02533">
        <ele>408.8</ele>
        <time>2024-09-01T07:57:08Z</time>
      </trkpt>
      <trkpt lat="47.06386" lon="6.0254">
        <ele>408.8</ele>
        <time>2024-09-01T07:57:09Z</time>
      </trkpt>
      <trkpt lat="47.06383" lon="6.02546">
        <ele>408.8</ele>
        <time>2024-09-01T07:57:10Z</time>
      </trkpt>
      <trkpt lat="47.0638" lon="6.02552">
        <ele>408.8</ele>
        <time>2024-09-01T07:57:11Z</time>
      </trkpt>
      <trkpt lat="47.06377" lon="6.02558">
        <ele>409</ele>
        <time>2024-09-01T07:57:12Z</time>
      </trkpt>
      <trkpt lat="47.06374" lon="6.02565">
        <ele>408.8</ele>
        <time>2024-09-01T07:57:13Z</time>
      </trkpt>
      <trkpt lat="47.0637" lon="6.02572">
        <ele>408.8</ele>
        <time>2024-09-01T07:57:14Z</time>
      </trkpt>
      <trkpt lat="47.06367" lon="6.02578">
        <ele>409</ele>
        <time>2024-09-01T07:57:15Z</time>
      </trkpt>
      <trkpt lat="47.06364" lon="6.02584">
        <ele>408.8</ele>
        <time>2024-09-01T07:57:16Z</time>
      </trkpt>
      <trkpt lat="47.06361" lon="6.02591">
        <ele>409</ele>
        <time>2024-09-01T07:57:17Z</time>
      </trkpt>
      <trkpt lat="47.06358" lon="6.02597">
        <ele>409</ele>
        <time>2024-09-01T07:57:18Z</time>
      </trkpt>
      <trkpt lat="47.06355" lon="6.02603">
        <ele>409</ele>
        <time>2024-09-01T07:57:19Z</time>
      </trkpt>
      <trkpt lat="47.06352" lon="6.02609">
        <ele>409</ele>
        <time>2024-09-01T07:57:20Z</time>
      </trkpt>
      <trkpt lat="47.0635" lon="6.02616">
        <ele>409.2</ele>
        <time>2024-09-01T07:57:21Z</time>
      </trkpt>
      <trkpt lat="47.06347" lon="6.02623">
        <ele>409</ele>
        <time>2024-09-01T07:57:22Z</time>
      </trkpt>
      <trkpt lat="47.06345" lon="6.02629">
        <ele>409.2</ele>
        <time>2024-09-01T07:57:23Z</time>
      </trkpt>
      <trkpt lat="47.06344" lon="6.02636">
        <ele>409.2</ele>
        <time>2024-09-01T07:57:24Z</time>
      </trkpt>
      <trkpt lat="47.06342" lon="6.02643">
        <ele>409.2</ele>
        <time>2024-09-01T07:57:25Z</time>
      </trkpt>
      <trkpt lat="47.06341" lon="6.0265">
        <ele>409.2</ele>
        <time>2024-09-01T07:57:26Z</time>
      </trkpt>
      <trkpt lat="47.0634" lon="6.02657">
        <ele>409.4</ele>
        <time>2024-09-01T07:57:27Z</time>
      </trkpt>
      <trkpt lat="47.06339" lon="6.02664">
        <ele>409.4</ele>
        <time>2024-09-01T07:57:28Z</time>
      </trkpt>
      <trkpt lat="47.06338" lon="6.0267">
        <ele>409.4</ele>
        <time>2024-09-01T07:57:29Z</time>
      </trkpt>
      <trkpt lat="47.06337" lon="6.02677">
        <ele>409.6</ele>
        <time>2024-09-01T07:57:30Z</time>
      </trkpt>
      <trkpt lat="47.06336" lon="6.02684">
        <ele>409.8</ele>
        <time>2024-09-01T07:57:31Z</time>
      </trkpt>
      <trkpt lat="47.06335" lon="6.0269">
        <ele>409.8</ele>
        <time>2024-09-01T07:57:32Z</time>
      </trkpt>
      <trkpt lat="47.06334" lon="6.02697">
        <ele>409.8</ele>
        <time>2024-09-01T07:57:33Z</time>
      </trkpt>
      <trkpt lat="47.06333" lon="6.02703">
        <ele>410</ele>
        <time>2024-09-01T07:57:34Z</time>
      </trkpt>
      <trkpt lat="47.06332" lon="6.02708">
        <ele>410</ele>
        <time>2024-09-01T07:57:35Z</time>
      </trkpt>
      <trkpt lat="47.06331" lon="6.02714">
        <ele>410.2</ele>
        <time>2024-09-01T07:57:36Z</time>
      </trkpt>
      <trkpt lat="47.0633" lon="6.02718">
        <ele>410.4</ele>
        <time>2024-09-01T07:57:37Z</time>
      </trkpt>
      <trkpt lat="47.06328" lon="6.02724">
        <ele>410.6</ele>
        <time>2024-09-01T07:57:38Z</time>
      </trkpt>
      <trkpt lat="47.06327" lon="6.02729">
        <ele>411</ele>
        <time>2024-09-01T07:57:39Z</time>
      </trkpt>
      <trkpt lat="47.06325" lon="6.02735">
        <ele>410.8</ele>
        <time>2024-09-01T07:57:40Z</time>
      </trkpt>
      <trkpt lat="47.06324" lon="6.0274">
        <ele>411.2</ele>
        <time>2024-09-01T07:57:41Z</time>
      </trkpt>
      <trkpt lat="47.06323" lon="6.02745">
        <ele>411.2</ele>
        <time>2024-09-01T07:57:42Z</time>
      </trkpt>
      <trkpt lat="47.06322" lon="6.02751">
        <ele>411.4</ele>
        <time>2024-09-01T07:57:43Z</time>
      </trkpt>
      <trkpt lat="47.06321" lon="6.02756">
        <ele>411.8</ele>
        <time>2024-09-01T07:57:44Z</time>
      </trkpt>
      <trkpt lat="47.0632" lon="6.02761">
        <ele>411.8</ele>
        <time>2024-09-01T07:57:45Z</time>
      </trkpt>
      <trkpt lat="47.0632" lon="6.02766">
        <ele>411.8</ele>
        <time>2024-09-01T07:57:46Z</time>
      </trkpt>
      <trkpt lat="47.06319" lon="6.02772">
        <ele>412</ele>
        <time>2024-09-01T07:57:47Z</time>
      </trkpt>
      <trkpt lat="47.06319" lon="6.02778">
        <ele>412</ele>
        <time>2024-09-01T07:57:48Z</time>
      </trkpt>
      <trkpt lat="47.0632" lon="6.02784">
        <ele>412.2</ele>
        <time>2024-09-01T07:57:49Z</time>
      </trkpt>
      <trkpt lat="47.0632" lon="6.0279">
        <ele>412.4</ele>
        <time>2024-09-01T07:57:50Z</time>
      </trkpt>
      <trkpt lat="47.0632" lon="6.02796">
        <ele>412.6</ele>
        <time>2024-09-01T07:57:51Z</time>
      </trkpt>
      <trkpt lat="47.06321" lon="6.02802">
        <ele>412.6</ele>
        <time>2024-09-01T07:57:52Z</time>
      </trkpt>
      <trkpt lat="47.06322" lon="6.02809">
        <ele>412.6</ele>
        <time>2024-09-01T07:57:53Z</time>
      </trkpt>
      <trkpt lat="47.06324" lon="6.02815">
        <ele>412.8</ele>
        <time>2024-09-01T07:57:54Z</time>
      </trkpt>
      <trkpt lat="47.06325" lon="6.02822">
        <ele>413</ele>
        <time>2024-09-01T07:57:55Z</time>
      </trkpt>
      <trkpt lat="47.06327" lon="6.02828">
        <ele>413</ele>
        <time>2024-09-01T07:57:56Z</time>
      </trkpt>
      <trkpt lat="47.06328" lon="6.02834">
        <ele>413.2</ele>
        <time>2024-09-01T07:57:57Z</time>
      </trkpt>
      <trkpt lat="47.06331" lon="6.02841">
        <ele>413</ele>
        <time>2024-09-01T07:57:58Z</time>
      </trkpt>
      <trkpt lat="47.06333" lon="6.02847">
        <ele>413.2</ele>
        <time>2024-09-01T07:57:59Z</time>
      </trkpt>
      <trkpt lat="47.06335" lon="6.02853">
        <ele>413.4</ele>
        <time>2024-09-01T07:58:00Z</time>
      </trkpt>
      <trkpt lat="47.06337" lon="6.0286">
        <ele>413.4</ele>
        <time>2024-09-01T07:58:01Z</time>
      </trkpt>
      <trkpt lat="47.06339" lon="6.02866">
        <ele>413.4</ele>
        <time>2024-09-01T07:58:02Z</time>
      </trkpt>
      <trkpt lat="47.06342" lon="6.02872">
        <ele>413.4</ele>
        <time>2024-09-01T07:58:03Z</time>
      </trkpt>
      <trkpt lat="47.06344" lon="6.02879">
        <ele>413.4</ele>
        <time>2024-09-01T07:58:04Z</time>
      </trkpt>
      <trkpt lat="47.06346" lon="6.02886">
        <ele>413.4</ele>
        <time>2024-09-01T07:58:05Z</time>
      </trkpt>
      <trkpt lat="47.06349" lon="6.02893">
        <ele>413.6</ele>
        <time>2024-09-01T07:58:06Z</time>
      </trkpt>
      <trkpt lat="47.06352" lon="6.02899">
        <ele>413.6</ele>
        <time>2024-09-01T07:58:07Z</time>
      </trkpt>
      <trkpt lat="47.06355" lon="6.02906">
        <ele>413.6</ele>
        <time>2024-09-01T07:58:08Z</time>
      </trkpt>
      <trkpt lat="47.06358" lon="6.02913">
        <ele>413.6</ele>
        <time>2024-09-01T07:58:09Z</time>
      </trkpt>
      <trkpt lat="47.06361" lon="6.0292">
        <ele>413.6</ele>
        <time>2024-09-01T07:58:10Z</time>
      </trkpt>
      <trkpt lat="47.06364" lon="6.02927">
        <ele>413.6</ele>
        <time>2024-09-01T07:58:11Z</time>
      </trkpt>
      <trkpt lat="47.06367" lon="6.02933">
        <ele>413.6</ele>
        <time>2024-09-01T07:58:12Z</time>
      </trkpt>
      <trkpt lat="47.06371" lon="6.0294">
        <ele>413.4</ele>
        <time>2024-09-01T07:58:13Z</time>
      </trkpt>
      <trkpt lat="47.06374" lon="6.02947">
        <ele>413.4</ele>
        <time>2024-09-01T07:58:14Z</time>
      </trkpt>
      <trkpt lat="47.06377" lon="6.02954">
        <ele>413.4</ele>
        <time>2024-09-01T07:58:15Z</time>
      </trkpt>
      <trkpt lat="47.06379" lon="6.02961">
        <ele>413.6</ele>
        <time>2024-09-01T07:58:16Z</time>
      </trkpt>
      <trkpt lat="47.06382" lon="6.02968">
        <ele>413.4</ele>
        <time>2024-09-01T07:58:17Z</time>
      </trkpt>
      <trkpt lat="47.06384" lon="6.02974">
        <ele>413.2</ele>
        <time>2024-09-01T07:58:18Z</time>
      </trkpt>
      <trkpt lat="47.06388" lon="6.0298">
        <ele>413</ele>
        <time>2024-09-01T07:58:19Z</time>
      </trkpt>
      <trkpt lat="47.0639" lon="6.02987">
        <ele>412.8</ele>
        <time>2024-09-01T07:58:20Z</time>
      </trkpt>
      <trkpt lat="47.06393" lon="6.02993">
        <ele>412.8</ele>
        <time>2024-09-01T07:58:21Z</time>
      </trkpt>
      <trkpt lat="47.06395" lon="6.02999">
        <ele>412.6</ele>
        <time>2024-09-01T07:58:22Z</time>
      </trkpt>
      <trkpt lat="47.06398" lon="6.03004">
        <ele>412.4</ele>
        <time>2024-09-01T07:58:23Z</time>
      </trkpt>
      <trkpt lat="47.06401" lon="6.0301">
        <ele>412.2</ele>
        <time>2024-09-01T07:58:24Z</time>
      </trkpt>
      <trkpt lat="47.06404" lon="6.03016">
        <ele>412</ele>
        <time>2024-09-01T07:58:25Z</time>
      </trkpt>
      <trkpt lat="47.06407" lon="6.03023">
        <ele>411.8</ele>
        <time>2024-09-01T07:58:26Z</time>
      </trkpt>
      <trkpt lat="47.0641" lon="6.03029">
        <ele>411.6</ele>
        <time>2024-09-01T07:58:27Z</time>
      </trkpt>
      <trkpt lat="47.06412" lon="6.03035">
        <ele>411.4</ele>
        <time>2024-09-01T07:58:28Z</time>
      </trkpt>
      <trkpt lat="47.06415" lon="6.03041">
        <ele>411.4</ele>
        <time>2024-09-01T07:58:29Z</time>
      </trkpt>
      <trkpt lat="47.06418" lon="6.03046">
        <ele>411.2</ele>
        <time>2024-09-01T07:58:30Z</time>
      </trkpt>
      <trkpt lat="47.0642" lon="6.03051">
        <ele>411.2</ele>
        <time>2024-09-01T07:58:31Z</time>
      </trkpt>
      <trkpt lat="47.06422" lon="6.03055">
        <ele>411</ele>
        <time>2024-09-01T07:58:32Z</time>
      </trkpt>
      <trkpt lat="47.06424" lon="6.03059">
        <ele>411</ele>
        <time>2024-09-01T07:58:33Z</time>
      </trkpt>
      <trkpt lat="47.06426" lon="6.03064">
        <ele>411.2</ele>
        <time>2024-09-01T07:58:34Z</time>
      </trkpt>
      <trkpt lat="47.06427" lon="6.03066">
        <ele>411</ele>
        <time>2024-09-01T07:58:35Z</time>
      </trkpt>
      <trkpt lat="47.06429" lon="6.03069">
        <ele>411</ele>
        <time>2024-09-01T07:58:36Z</time>
      </trkpt>
      <trkpt lat="47.06429" lon="6.03072">
        <ele>411</ele>
        <time>2024-09-01T07:58:37Z</time>
      </trkpt>
      <trkpt lat="47.0643" lon="6.03075">
        <ele>411</ele>
        <time>2024-09-01T07:58:38Z</time>
      </trkpt>
      <trkpt lat="47.0643" lon="6.03077">
        <ele>410.8</ele>
        <time>2024-09-01T07:58:39Z</time>
      </trkpt>
      <trkpt lat="47.06429" lon="6.03081">
        <ele>410.8</ele>
        <time>2024-09-01T07:58:40Z</time>
      </trkpt>
      <trkpt lat="47.06427" lon="6.03085">
        <ele>411</ele>
        <time>2024-09-01T07:58:41Z</time>
      </trkpt>
      <trkpt lat="47.06425" lon="6.03085">
        <ele>411</ele>
        <time>2024-09-01T07:58:42Z</time>
      </trkpt>
      <trkpt lat="47.06423" lon="6.03085">
        <ele>410.8</ele>
        <time>2024-09-01T07:58:43Z</time>
      </trkpt>
      <trkpt lat="47.06421" lon="6.03085">
        <ele>410.6</ele>
        <time>2024-09-01T07:58:44Z</time>
      </trkpt>
      <trkpt lat="47.0642" lon="6.03083">
        <ele>410.8</ele>
        <time>2024-09-01T07:58:45Z</time>
      </trkpt>
      <trkpt lat="47.06418" lon="6.03082">
        <ele>410.6</ele>
        <time>2024-09-01T07:58:46Z</time>
      </trkpt>
      <trkpt lat="47.06416" lon="6.0308">
        <ele>410.8</ele>
        <time>2024-09-01T07:58:47Z</time>
      </trkpt>
      <trkpt lat="47.06414" lon="6.03078">
        <ele>410.6</ele>
        <time>2024-09-01T07:58:48Z</time>
      </trkpt>
      <trkpt lat="47.06413" lon="6.03076">
        <ele>410.4</ele>
        <time>2024-09-01T07:58:49Z</time>
      </trkpt>
      <trkpt lat="47.06411" lon="6.03074">
        <ele>410.4</ele>
        <time>2024-09-01T07:58:50Z</time>
      </trkpt>
      <trkpt lat="47.06409" lon="6.03071">
        <ele>410.4</ele>
        <time>2024-09-01T07:58:51Z</time>
      </trkpt>
      <trkpt lat="47.06407" lon="6.03069">
        <ele>410.2</ele>
        <time>2024-09-01T07:58:52Z</time>
      </trkpt>
      <trkpt lat="47.06405" lon="6.03067">
        <ele>410.2</ele>
        <time>2024-09-01T07:58:53Z</time>
      </trkpt>
      <trkpt lat="47.06403" lon="6.03065">
        <ele>409.8</ele>
        <time>2024-09-01T07:58:54Z</time>
      </trkpt>
      <trkpt lat="47.06402" lon="6.03063">
        <ele>409.8</ele>
        <time>2024-09-01T07:58:55Z</time>
      </trkpt>
      <trkpt lat="47.06402" lon="6.03062">
        <ele>409.8</ele>
        <time>2024-09-01T07:58:56Z</time>
      </trkpt>
      <trkpt lat="47.06401" lon="6.0306">
        <ele>409.6</ele>
        <time>2024-09-01T07:58:57Z</time>
      </trkpt>
      <trkpt lat="47.064" lon="6.03059">
        <ele>409.6</ele>
        <time>2024-09-01T07:58:58Z</time>
      </trkpt>
      <trkpt lat="47.06399" lon="6.03058">
        <ele>409.4</ele>
        <time>2024-09-01T07:58:59Z</time>
      </trkpt>
      <trkpt lat="47.06398" lon="6.03057">
        <ele>409.2</ele>
        <time>2024-09-01T07:59:00Z</time>
      </trkpt>
      <trkpt lat="47.06397" lon="6.03056">
        <ele>409</ele>
        <time>2024-09-01T07:59:01Z</time>
      </trkpt>
      <trkpt lat="47.06396" lon="6.03055">
        <ele>409</ele>
        <time>2024-09-01T07:59:02Z</time>
      </trkpt>
      <trkpt lat="47.06394" lon="6.03053">
        <ele>408.8</ele>
        <time>2024-09-01T07:59:03Z</time>
      </trkpt>
      <trkpt lat="47.06393" lon="6.03052">
        <ele>408.4</ele>
        <time>2024-09-01T07:59:04Z</time>
      </trkpt>
      <trkpt lat="47.06392" lon="6.0305">
        <ele>408.4</ele>
        <time>2024-09-01T07:59:05Z</time>
      </trkpt>
      <trkpt lat="47.06391" lon="6.03048">
        <ele>408.4</ele>
        <time>2024-09-01T07:59:06Z</time>
      </trkpt>
      <trkpt lat="47.0639" lon="6.03046">
        <ele>408</ele>
        <time>2024-09-01T07:59:07Z</time>
      </trkpt>
      <trkpt lat="47.06389" lon="6.03045">
        <ele>408</ele>
        <time>2024-09-01T07:59:08Z</time>
      </trkpt>
      <trkpt lat="47.06388" lon="6.03044">
        <ele>408.2</ele>
        <time>2024-09-01T07:59:09Z</time>
      </trkpt>
      <trkpt lat="47.06386" lon="6.03043">
        <ele>407.8</ele>
        <time>2024-09-01T07:59:10Z</time>
      </trkpt>
      <trkpt lat="47.06384" lon="6.03042">
        <ele>407.8</ele>
        <time>2024-09-01T07:59:11Z</time>
      </trkpt>
      <trkpt lat="47.06382" lon="6.0304">
        <ele>407.6</ele>
        <time>2024-09-01T07:59:12Z</time>
      </trkpt>
      <trkpt lat="47.0638" lon="6.03037">
        <ele>407.4</ele>
        <time>2024-09-01T07:59:13Z</time>
      </trkpt>
      <trkpt lat="47.06378" lon="6.03034">
        <ele>407.4</ele>
        <time>2024-09-01T07:59:14Z</time>
      </trkpt>
      <trkpt lat="47.06375" lon="6.03031">
        <ele>407.2</ele>
        <time>2024-09-01T07:59:15Z</time>
      </trkpt>
      <trkpt lat="47.06373" lon="6.03027">
        <ele>407.2</ele>
        <time>2024-09-01T07:59:16Z</time>
      </trkpt>
      <trkpt lat="47.06372" lon="6.03023">
        <ele>407</ele>
        <time>2024-09-01T07:59:17Z</time>
      </trkpt>
      <trkpt lat="47.06369" lon="6.03019">
        <ele>406.8</ele>
        <time>2024-09-01T07:59:18Z</time>
      </trkpt>
      <trkpt lat="47.06366" lon="6.03016">
        <ele>406.6</ele>
        <time>2024-09-01T07:59:19Z</time>
      </trkpt>
      <trkpt lat="47.06364" lon="6.03011">
        <ele>406.6</ele>
        <time>2024-09-01T07:59:20Z</time>
      </trkpt>
      <trkpt lat="47.06362" lon="6.03008">
        <ele>406.6</ele>
        <time>2024-09-01T07:59:21Z</time>
      </trkpt>
      <trkpt lat="47.06359" lon="6.03006">
        <ele>406.4</ele>
        <time>2024-09-01T07:59:22Z</time>
      </trkpt>
      <trkpt lat="47.06356" lon="6.03001">
        <ele>406</ele>
        <time>2024-09-01T07:59:23Z</time>
      </trkpt>
      <trkpt lat="47.06352" lon="6.02998">
        <ele>406</ele>
        <time>2024-09-01T07:59:24Z</time>
      </trkpt>
      <trkpt lat="47.0635" lon="6.02994">
        <ele>405.6</ele>
        <time>2024-09-01T07:59:25Z</time>
      </trkpt>
      <trkpt lat="47.06346" lon="6.0299">
        <ele>405.6</ele>
        <time>2024-09-01T07:59:26Z</time>
      </trkpt>
      <trkpt lat="47.06342" lon="6.02986">
        <ele>405.2</ele>
        <time>2024-09-01T07:59:27Z</time>
      </trkpt>
      <trkpt lat="47.06337" lon="6.02983">
        <ele>405</ele>
        <time>2024-09-01T07:59:28Z</time>
      </trkpt>
      <trkpt lat="47.06332" lon="6.02978">
        <ele>404.6</ele>
        <time>2024-09-01T07:59:29Z</time>
      </trkpt>
      <trkpt lat="47.06327" lon="6.02973">
        <ele>404.4</ele>
        <time>2024-09-01T07:59:30Z</time>
      </trkpt>
      <trkpt lat="47.06322" lon="6.02968">
        <ele>404.2</ele>
        <time>2024-09-01T07:59:31Z</time>
      </trkpt>
      <trkpt lat="47.06316" lon="6.02962">
        <ele>404</ele>
        <time>2024-09-01T07:59:32Z</time>
      </trkpt>
      <trkpt lat="47.06311" lon="6.02958">
        <ele>403.8</ele>
        <time>2024-09-01T07:59:33Z</time>
      </trkpt>
      <trkpt lat="47.06306" lon="6.02954">
        <ele>403.6</ele>
        <time>2024-09-01T07:59:34Z</time>
      </trkpt>
      <trkpt lat="47.063" lon="6.02949">
        <ele>403.2</ele>
        <time>2024-09-01T07:59:35Z</time>
      </trkpt>
      <trkpt lat="47.06296" lon="6.02944">
        <ele>403.2</ele>
        <time>2024-09-01T07:59:36Z</time>
      </trkpt>
      <trkpt lat="47.06291" lon="6.02938">
        <ele>403</ele>
        <time>2024-09-01T07:59:37Z</time>
      </trkpt>
      <trkpt lat="47.06286" lon="6.02931">
        <ele>402.6</ele>
        <time>2024-09-01T07:59:38Z</time>
      </trkpt>
      <trkpt lat="47.06281" lon="6.02923">
        <ele>402.4</ele>
        <time>2024-09-01T07:59:39Z</time>
      </trkpt>
      <trkpt lat="47.06275" lon="6.02913">
        <ele>402.2</ele>
        <time>2024-09-01T07:59:40Z</time>
      </trkpt>
      <trkpt lat="47.06269" lon="6.02904">
        <ele>402</ele>
        <time>2024-09-01T07:59:41Z</time>
      </trkpt>
      <trkpt lat="47.06263" lon="6.02894">
        <ele>401.4</ele>
        <time>2024-09-01T07:59:42Z</time>
      </trkpt>
      <trkpt lat="47.06256" lon="6.02883">
        <ele>401.4</ele>
        <time>2024-09-01T07:59:43Z</time>
      </trkpt>
      <trkpt lat="47.06248" lon="6.02873">
        <ele>401</ele>
        <time>2024-09-01T07:59:44Z</time>
      </trkpt>
      <trkpt lat="47.0624" lon="6.02866">
        <ele>400.8</ele>
        <time>2024-09-01T07:59:45Z</time>
      </trkpt>
      <trkpt lat="47.06232" lon="6.02859">
        <ele>400.6</ele>
        <time>2024-09-01T07:59:46Z</time>
      </trkpt>
      <trkpt lat="47.06225" lon="6.02852">
        <ele>400</ele>
        <time>2024-09-01T07:59:47Z</time>
      </trkpt>
      <trkpt lat="47.06219" lon="6.02845">
        <ele>399.6</ele>
        <time>2024-09-01T07:59:48Z</time>
      </trkpt>
      <trkpt lat="47.06212" lon="6.0284">
        <ele>399.2</ele>
        <time>2024-09-01T07:59:49Z</time>
      </trkpt>
      <trkpt lat="47.06205" lon="6.02836">
        <ele>399</ele>
        <time>2024-09-01T07:59:50Z</time>
      </trkpt>
      <trkpt lat="47.06198" lon="6.02835">
        <ele>398.6</ele>
        <time>2024-09-01T07:59:51Z</time>
      </trkpt>
      <trkpt lat="47.06191" lon="6.02836">
        <ele>398.2</ele>
        <time>2024-09-01T07:59:52Z</time>
      </trkpt>
      <trkpt lat="47.06184" lon="6.02837">
        <ele>397.6</ele>
        <time>2024-09-01T07:59:53Z</time>
      </trkpt>
      <trkpt lat="47.06177" lon="6.02839">
        <ele>397.2</ele>
        <time>2024-09-01T07:59:54Z</time>
      </trkpt>
      <trkpt lat="47.06171" lon="6.02842">
        <ele>397</ele>
        <time>2024-09-01T07:59:55Z</time>
      </trkpt>
      <trkpt lat="47.06166" lon="6.02846">
        <ele>396.8</ele>
        <time>2024-09-01T07:59:56Z</time>
      </trkpt>
      <trkpt lat="47.06162" lon="6.0285">
        <ele>396.4</ele>
        <time>2024-09-01T07:59:57Z</time>
      </trkpt>
      <trkpt lat="47.06157" lon="6.02854">
        <ele>396.4</ele>
        <time>2024-09-01T07:59:58Z</time>
      </trkpt>
      <trkpt lat="47.06153" lon="6.02857">
        <ele>396.4</ele>
        <time>2024-09-01T07:59:59Z</time>
      </trkpt>
      <trkpt lat="47.06149" lon="6.0286">
        <ele>396.4</ele>
        <time>2024-09-01T08:00:00Z</time>
      </trkpt>
      <trkpt lat="47.06145" lon="6.02864">
        <ele>396.2</ele>
        <time>2024-09-01T08:00:01Z</time>
      </trkpt>
      <trkpt lat="47.06141" lon="6.02868">
        <ele>396.4</ele>
        <time>2024-09-01T08:00:02Z</time>
      </trkpt>
      <trkpt lat="47.06137" lon="6.02872">
        <ele>396.2</ele>
        <time>2024-09-01T08:00:03Z</time>
      </trkpt>
      <trkpt lat="47.06134" lon="6.02877">
        <ele>396.4</ele>
        <time>2024-09-01T08:00:04Z</time>
      </trkpt>
      <trkpt lat="47.0613" lon="6.02882">
        <ele>396.4</ele>
        <time>2024-09-01T08:00:05Z</time>
      </trkpt>
      <trkpt lat="47.06127" lon="6.02887">
        <ele>396.2</ele>
        <time>2024-09-01T08:00:06Z</time>
      </trkpt>
      <trkpt lat="47.06124" lon="6.02892">
        <ele>396.4</ele>
        <time>2024-09-01T08:00:07Z</time>
      </trkpt>
      <trkpt lat="47.0612" lon="6.02897">
        <ele>396.6</ele>
        <time>2024-09-01T08:00:08Z</time>
      </trkpt>
      <trkpt lat="47.06116" lon="6.02901">
        <ele>396.6</ele>
        <time>2024-09-01T08:00:09Z</time>
      </trkpt>
      <trkpt lat="47.06112" lon="6.02906">
        <ele>396.6</ele>
        <time>2024-09-01T08:00:10Z</time>
      </trkpt>
      <trkpt lat="47.06108" lon="6.0291">
        <ele>396.8</ele>
        <time>2024-09-01T08:00:11Z</time>
      </trkpt>
      <trkpt lat="47.06104" lon="6.02914">
        <ele>396.6</ele>
        <time>2024-09-01T08:00:12Z</time>
      </trkpt>
      <trkpt lat="47.061" lon="6.02917">
        <ele>396.8</ele>
        <time>2024-09-01T08:00:13Z</time>
      </trkpt>
      <trkpt lat="47.06096" lon="6.02921">
        <ele>396.8</ele>
        <time>2024-09-01T08:00:14Z</time>
      </trkpt>
      <trkpt lat="47.06092" lon="6.02924">
        <ele>396.6</ele>
        <time>2024-09-01T08:00:15Z</time>
      </trkpt>
      <trkpt lat="47.06088" lon="6.02926">
        <ele>396.8</ele>
        <time>2024-09-01T08:00:16Z</time>
      </trkpt>
      <trkpt lat="47.06083" lon="6.0293">
        <ele>396.8</ele>
        <time>2024-09-01T08:00:17Z</time>
      </trkpt>
      <trkpt lat="47.0608" lon="6.02934">
        <ele>396.8</ele>
        <time>2024-09-01T08:00:18Z</time>
      </trkpt>
      <trkpt lat="47.06076" lon="6.02938">
        <ele>397</ele>
        <time>2024-09-01T08:00:19Z</time>
      </trkpt>
      <trkpt lat="47.06072" lon="6.02942">
        <ele>396.8</ele>
        <time>2024-09-01T08:00:20Z</time>
      </trkpt>
      <trkpt lat="47.06068" lon="6.02948">
        <ele>397</ele>
        <time>2024-09-01T08:00:21Z</time>
      </trkpt>
      <trkpt lat="47.06064" lon="6.02951">
        <ele>397</ele>
        <time>2024-09-01T08:00:22Z</time>
      </trkpt>
      <trkpt lat="47.0606" lon="6.02954">
        <ele>397</ele>
        <time>2024-09-01T08:00:23Z</time>
      </trkpt>
      <trkpt lat="47.06056" lon="6.02957">
        <ele>397.2</ele>
        <time>2024-09-01T08:00:24Z</time>
      </trkpt>
      <trkpt lat="47.06052" lon="6.0296">
        <ele>397.2</ele>
        <time>2024-09-01T08:00:25Z</time>
      </trkpt>
      <trkpt lat="47.06048" lon="6.02962">
        <ele>397.2</ele>
        <time>2024-09-01T08:00:26Z</time>
      </trkpt>
      <trkpt lat="47.06044" lon="6.02965">
        <ele>397.4</ele>
        <time>2024-09-01T08:00:27Z</time>
      </trkpt>
      <trkpt lat="47.06041" lon="6.02969">
        <ele>397.4</ele>
        <time>2024-09-01T08:00:28Z</time>
      </trkpt>
      <trkpt lat="47.06037" lon="6.02972">
        <ele>397.6</ele>
        <time>2024-09-01T08:00:29Z</time>
      </trkpt>
      <trkpt lat="47.06033" lon="6.02975">
        <ele>397.8</ele>
        <time>2024-09-01T08:00:30Z</time>
      </trkpt>
      <trkpt lat="47.06029" lon="6.02978">
        <ele>398</ele>
        <time>2024-09-01T08:00:31Z</time>
      </trkpt>
      <trkpt lat="47.06024" lon="6.02981">
        <ele>398</ele>
        <time>2024-09-01T08:00:32Z</time>
      </trkpt>
      <trkpt lat="47.0602" lon="6.02984">
        <ele>398</ele>
        <time>2024-09-01T08:00:33Z</time>
      </trkpt>
      <trkpt lat="47.06016" lon="6.02986">
        <ele>398.2</ele>
        <time>2024-09-01T08:00:34Z</time>
      </trkpt>
      <trkpt lat="47.06012" lon="6.02989">
        <ele>398.4</ele>
        <time>2024-09-01T08:00:35Z</time>
      </trkpt>
      <trkpt lat="47.06008" lon="6.02992">
        <ele>398.4</ele>
        <time>2024-09-01T08:00:36Z</time>
      </trkpt>
      <trkpt lat="47.06005" lon="6.02996">
        <ele>398.6</ele>
        <time>2024-09-01T08:00:37Z</time>
      </trkpt>
      <trkpt lat="47.06001" lon="6.02999">
        <ele>398.8</ele>
        <time>2024-09-01T08:00:38Z</time>
      </trkpt>
      <trkpt lat="47.05997" lon="6.03003">
        <ele>399</ele>
        <time>2024-09-01T08:00:39Z</time>
      </trkpt>
      <trkpt lat="47.05994" lon="6.03006">
        <ele>399</ele>
        <time>2024-09-01T08:00:40Z</time>
      </trkpt>
      <trkpt lat="47.0599" lon="6.03009">
        <ele>399.2</ele>
        <time>2024-09-01T08:00:41Z</time>
      </trkpt>
      <trkpt lat="47.05986" lon="6.03012">
        <ele>399.4</ele>
        <time>2024-09-01T08:00:42Z</time>
      </trkpt>
      <trkpt lat="47.05982" lon="6.03015">
        <ele>399.6</ele>
        <time>2024-09-01T08:00:43Z</time>
      </trkpt>
      <trkpt lat="47.05979" lon="6.03017">
        <ele>400</ele>
        <time>2024-09-01T08:00:44Z</time>
      </trkpt>
      <trkpt lat="47.05975" lon="6.0302">
        <ele>400.2</ele>
        <time>2024-09-01T08:00:45Z</time>
      </trkpt>
      <trkpt lat="47.05971" lon="6.03022">
        <ele>400.4</ele>
        <time>2024-09-01T08:00:46Z</time>
      </trkpt>
      <trkpt lat="47.05967" lon="6.03024">
        <ele>400.6</ele>
        <time>2024-09-01T08:00:47Z</time>
      </trkpt>
      <trkpt lat="47.05963" lon="6.03026">
        <ele>401</ele>
        <time>2024-09-01T08:00:48Z</time>
      </trkpt>
      <trkpt lat="47.05959" lon="6.03027">
        <ele>401.2</ele>
        <time>2024-09-01T08:00:49Z</time>
      </trkpt>
      <trkpt lat="47.05955" lon="6.03029">
        <ele>401.4</ele>
        <time>2024-09-01T08:00:50Z</time>
      </trkpt>
      <trkpt lat="47.05951" lon="6.03031">
        <ele>401.6</ele>
        <time>2024-09-01T08:00:51Z</time>
      </trkpt>
      <trkpt lat="47.05947" lon="6.03032">
        <ele>401.8</ele>
        <time>2024-09-01T08:00:52Z</time>
      </trkpt>
      <trkpt lat="47.05943" lon="6.03034">
        <ele>402.2</ele>
        <time>2024-09-01T08:00:53Z</time>
      </trkpt>
      <trkpt lat="47.05938" lon="6.03035">
        <ele>402.4</ele>
        <time>2024-09-01T08:00:54Z</time>
      </trkpt>
      <trkpt lat="47.05934" lon="6.03037">
        <ele>402.6</ele>
        <time>2024-09-01T08:00:55Z</time>
      </trkpt>
      <trkpt lat="47.05929" lon="6.03038">
        <ele>402.6</ele>
        <time>2024-09-01T08:00:56Z</time>
      </trkpt>
      <trkpt lat="47.05924" lon="6.03039">
        <ele>402.8</ele>
        <time>2024-09-01T08:00:57Z</time>
      </trkpt>
      <trkpt lat="47.05919" lon="6.0304">
        <ele>403</ele>
        <time>2024-09-01T08:00:58Z</time>
      </trkpt>
      <trkpt lat="47.05914" lon="6.0304">
        <ele>403.2</ele>
        <time>2024-09-01T08:00:59Z</time>
      </trkpt>
      <trkpt lat="47.05909" lon="6.03041">
        <ele>403.6</ele>
        <time>2024-09-01T08:01:00Z</time>
      </trkpt>
      <trkpt lat="47.05903" lon="6.03041">
        <ele>403.8</ele>
        <time>2024-09-01T08:01:01Z</time>
      </trkpt>
      <trkpt lat="47.05898" lon="6.03042">
        <ele>404</ele>
        <time>2024-09-01T08:01:02Z</time>
      </trkpt>
      <trkpt lat="47.05892" lon="6.03042">
        <ele>404.2</ele>
        <time>2024-09-01T08:01:03Z</time>
      </trkpt>
      <trkpt lat="47.05887" lon="6.03043">
        <ele>404.2</ele>
        <time>2024-09-01T08:01:04Z</time>
      </trkpt>
      <trkpt lat="47.05881" lon="6.03043">
        <ele>404.4</ele>
        <time>2024-09-01T08:01:05Z</time>
      </trkpt>
      <trkpt lat="47.05876" lon="6.03044">
        <ele>404.6</ele>
        <time>2024-09-01T08:01:06Z</time>
      </trkpt>
      <trkpt lat="47.05871" lon="6.03044">
        <ele>404.6</ele>
        <time>2024-09-01T08:01:07Z</time>
      </trkpt>
      <trkpt lat="47.05866" lon="6.03045">
        <ele>404.8</ele>
        <time>2024-09-01T08:01:08Z</time>
      </trkpt>
      <trkpt lat="47.0586" lon="6.03046">
        <ele>404.8</ele>
        <time>2024-09-01T08:01:09Z</time>
      </trkpt>
      <trkpt lat="47.05855" lon="6.03047">
        <ele>405</ele>
        <time>2024-09-01T08:01:10Z</time>
      </trkpt>
      <trkpt lat="47.0585" lon="6.03048">
        <ele>404.8</ele>
        <time>2024-09-01T08:01:11Z</time>
      </trkpt>
      <trkpt lat="47.05845" lon="6.03049">
        <ele>405.2</ele>
        <time>2024-09-01T08:01:12Z</time>
      </trkpt>
      <trkpt lat="47.0584" lon="6.0305">
        <ele>405.2</ele>
        <time>2024-09-01T08:01:13Z</time>
      </trkpt>
      <trkpt lat="47.05835" lon="6.03051">
        <ele>405.2</ele>
        <time>2024-09-01T08:01:14Z</time>
      </trkpt>
      <trkpt lat="47.0583" lon="6.03052">
        <ele>405.2</ele>
        <time>2024-09-01T08:01:15Z</time>
      </trkpt>
      <trkpt lat="47.05825" lon="6.03053">
        <ele>405.2</ele>
        <time>2024-09-01T08:01:16Z</time>
      </trkpt>
      <trkpt lat="47.0582" lon="6.03054">
        <ele>405.4</ele>
        <time>2024-09-01T08:01:17Z</time>
      </trkpt>
      <trkpt lat="47.05815" lon="6.03055">
        <ele>405.4</ele>
        <time>2024-09-01T08:01:18Z</time>
      </trkpt>
      <trkpt lat="47.0581" lon="6.03056">
        <ele>405.6</ele>
        <time>2024-09-01T08:01:19Z</time>
      </trkpt>
      <trkpt lat="47.05805" lon="6.03057">
        <ele>405.6</ele>
        <time>2024-09-01T08:01:20Z</time>
      </trkpt>
      <trkpt lat="47.058" lon="6.03057">
        <ele>405.6</ele>
        <time>2024-09-01T08:01:21Z</time>
      </trkpt>
      <trkpt lat="47.05795" lon="6.03058">
        <ele>405.8</ele>
        <time>2024-09-01T08:01:22Z</time>
      </trkpt>
      <trkpt lat="47.0579" lon="6.03059">
        <ele>406</ele>
        <time>2024-09-01T08:01:23Z</time>
      </trkpt>
      <trkpt lat="47.05785" lon="6.0306">
        <ele>406</ele>
        <time>2024-09-01T08:01:24Z</time>
      </trkpt>
      <trkpt lat="47.0578" lon="6.0306">
        <ele>406.2</ele>
        <time>2024-09-01T08:01:25Z</time>
      </trkpt>
      <trkpt lat="47.05775" lon="6.03061">
        <ele>406.4</ele>
        <time>2024-09-01T08:01:26Z</time>
      </trkpt>
      <trkpt lat="47.0577" lon="6.03062">
        <ele>406.4</ele>
        <time>2024-09-01T08:01:27Z</time>
      </trkpt>
      <trkpt lat="47.05765" lon="6.03062">
        <ele>406.6</ele>
        <time>2024-09-01T08:01:28Z</time>
      </trkpt>
      <trkpt lat="47.0576" lon="6.03062">
        <ele>406.8</ele>
        <time>2024-09-01T08:01:29Z</time>
      </trkpt>
      <trkpt lat="47.05755" lon="6.03063">
        <ele>406.8</ele>
        <time>2024-09-01T08:01:30Z</time>
      </trkpt>
      <trkpt lat="47.05751" lon="6.03064">
        <ele>407</ele>
        <time>2024-09-01T08:01:31Z</time>
      </trkpt>
      <trkpt lat="47.05746" lon="6.03065">
        <ele>407.2</ele>
        <time>2024-09-01T08:01:32Z</time>
      </trkpt>
      <trkpt lat="47.05741" lon="6.03066">
        <ele>407.2</ele>
        <time>2024-09-01T08:01:33Z</time>
      </trkpt>
      <trkpt lat="47.05736" lon="6.03067">
        <ele>407.4</ele>
        <time>2024-09-01T08:01:34Z</time>
      </trkpt>
      <trkpt lat="47.05732" lon="6.03067">
        <ele>407.4</ele>
        <time>2024-09-01T08:01:35Z</time>
      </trkpt>
      <trkpt lat="47.05727" lon="6.03068">
        <ele>407.4</ele>
        <time>2024-09-01T08:01:36Z</time>
      </trkpt>
      <trkpt lat="47.05723" lon="6.03068">
        <ele>407.8</ele>
        <time>2024-09-01T08:01:37Z</time>
      </trkpt>
      <trkpt lat="47.05719" lon="6.03069">
        <ele>407.8</ele>
        <time>2024-09-01T08:01:38Z</time>
      </trkpt>
      <trkpt lat="47.05715" lon="6.0307">
        <ele>408</ele>
        <time>2024-09-01T08:01:39Z</time>
      </trkpt>
      <trkpt lat="47.05711" lon="6.03072">
        <ele>408.2</ele>
        <time>2024-09-01T08:01:40Z</time>
      </trkpt>
      <trkpt lat="47.05707" lon="6.03073">
        <ele>408.4</ele>
        <time>2024-09-01T08:01:41Z</time>
      </trkpt>
      <trkpt lat="47.05703" lon="6.03073">
        <ele>408.2</ele>
        <time>2024-09-01T08:01:42Z</time>
      </trkpt>
      <trkpt lat="47.05698" lon="6.03073">
        <ele>408.4</ele>
        <time>2024-09-01T08:01:43Z</time>
      </trkpt>
      <trkpt lat="47.05693" lon="6.03072">
        <ele>408.4</ele>
        <time>2024-09-01T08:01:44Z</time>
      </trkpt>
      <trkpt lat="47.05688" lon="6.03071">
        <ele>408.4</ele>
        <time>2024-09-01T08:01:45Z</time>
      </trkpt>
      <trkpt lat="47.05682" lon="6.03068">
        <ele>408.4</ele>
        <time>2024-09-01T08:01:46Z</time>
      </trkpt>
      <trkpt lat="47.05677" lon="6.03066">
        <ele>408.2</ele>
        <time>2024-09-01T08:01:47Z</time>
      </trkpt>
      <trkpt lat="47.05671" lon="6.03064">
        <ele>408.4</ele>
        <time>2024-09-01T08:01:48Z</time>
      </trkpt>
      <trkpt lat="47.05665" lon="6.03063">
        <ele>408.4</ele>
        <time>2024-09-01T08:01:49Z</time>
      </trkpt>
      <trkpt lat="47.0566" lon="6.03063">
        <ele>408.4</ele>
        <time>2024-09-01T08:01:50Z</time>
      </trkpt>
      <trkpt lat="47.05654" lon="6.03063">
        <ele>408.4</ele>
        <time>2024-09-01T08:01:51Z</time>
      </trkpt>
      <trkpt lat="47.05648" lon="6.03064">
        <ele>408.4</ele>
        <time>2024-09-01T08:01:52Z</time>
      </trkpt>
      <trkpt lat="47.05642" lon="6.03065">
        <ele>408</ele>
        <time>2024-09-01T08:01:53Z</time>
      </trkpt>
      <trkpt lat="47.05636" lon="6.03066">
        <ele>407.8</ele>
        <time>2024-09-01T08:01:54Z</time>
      </trkpt>
      <trkpt lat="47.0563" lon="6.03067">
        <ele>407.8</ele>
        <time>2024-09-01T08:01:55Z</time>
      </trkpt>
      <trkpt lat="47.05623" lon="6.03068">
        <ele>407.6</ele>
        <time>2024-09-01T08:01:56Z</time>
      </trkpt>
      <trkpt lat="47.05616" lon="6.03068">
        <ele>407.6</ele>
        <time>2024-09-01T08:01:57Z</time>
      </trkpt>
      <trkpt lat="47.05609" lon="6.03066">
        <ele>407.4</ele>
        <time>2024-09-01T08:01:58Z</time>
      </trkpt>
      <trkpt lat="47.05603" lon="6.03064">
        <ele>407</ele>
        <time>2024-09-01T08:01:59Z</time>
      </trkpt>
      <trkpt lat="47.05597" lon="6.0306">
        <ele>406.8</ele>
        <time>2024-09-01T08:02:00Z</time>
      </trkpt>
      <trkpt lat="47.05591" lon="6.03055">
        <ele>406.8</ele>
        <time>2024-09-01T08:02:01Z</time>
      </trkpt>
      <trkpt lat="47.05585" lon="6.03051">
        <ele>406.6</ele>
        <time>2024-09-01T08:02:02Z</time>
      </trkpt>
      <trkpt lat="47.0558" lon="6.03045">
        <ele>406.2</ele>
        <time>2024-09-01T08:02:03Z</time>
      </trkpt>
      <trkpt lat="47.05574" lon="6.0304">
        <ele>406.4</ele>
        <time>2024-09-01T08:02:04Z</time>
      </trkpt>
      <trkpt lat="47.05569" lon="6.03034">
        <ele>406.2</ele>
        <time>2024-09-01T08:02:05Z</time>
      </trkpt>
      <trkpt lat="47.05564" lon="6.03028">
        <ele>406.2</ele>
        <time>2024-09-01T08:02:06Z</time>
      </trkpt>
      <trkpt lat="47.05559" lon="6.03023">
        <ele>406.2</ele>
        <time>2024-09-01T08:02:07Z</time>
      </trkpt>
      <trkpt lat="47.05555" lon="6.03018">
        <ele>406</ele>
        <time>2024-09-01T08:02:08Z</time>
      </trkpt>
      <trkpt lat="47.05551" lon="6.03015">
        <ele>406.2</ele>
        <time>2024-09-01T08:02:09Z</time>
      </trkpt>
      <trkpt lat="47.05547" lon="6.03011">
        <ele>406.2</ele>
        <time>2024-09-01T08:02:10Z</time>
      </trkpt>
      <trkpt lat="47.05544" lon="6.03008">
        <ele>406.2</ele>
        <time>2024-09-01T08:02:11Z</time>
      </trkpt>
      <trkpt lat="47.05543" lon="6.03003">
        <ele>406.2</ele>
        <time>2024-09-01T08:02:12Z</time>
      </trkpt>
      <trkpt lat="47.05542" lon="6.02999">
        <ele>406.2</ele>
        <time>2024-09-01T08:02:13Z</time>
      </trkpt>
      <trkpt lat="47.05543" lon="6.02997">
        <ele>406.2</ele>
        <time>2024-09-01T08:02:14Z</time>
      </trkpt>
      <trkpt lat="47.05543" lon="6.02994">
        <ele>406.4</ele>
        <time>2024-09-01T08:02:15Z</time>
      </trkpt>
      <trkpt lat="47.05544" lon="6.02991">
        <ele>406.6</ele>
        <time>2024-09-01T08:02:16Z</time>
      </trkpt>
      <trkpt lat="47.05544" lon="6.02988">
        <ele>406.8</ele>
        <time>2024-09-01T08:02:17Z</time>
      </trkpt>
      <trkpt lat="47.05545" lon="6.02986">
        <ele>407</ele>
        <time>2024-09-01T08:02:18Z</time>
      </trkpt>
      <trkpt lat="47.05546" lon="6.02984">
        <ele>407.4</ele>
        <time>2024-09-01T08:02:19Z</time>
      </trkpt>
      <trkpt lat="47.05547" lon="6.02983">
        <ele>407.6</ele>
        <time>2024-09-01T08:02:20Z</time>
      </trkpt>
      <trkpt lat="47.05547" lon="6.02982">
        <ele>407.6</ele>
        <time>2024-09-01T08:02:21Z</time>
      </trkpt>
      <trkpt lat="47.05547" lon="6.02982">
        <ele>407.6</ele>
        <time>2024-09-01T08:02:22Z</time>
      </trkpt>
      <trkpt lat="47.05547" lon="6.02982">
        <ele>407.6</ele>
        <time>2024-09-01T08:02:23Z</time>
      </trkpt>
      <trkpt lat="47.05547" lon="6.02983">
        <ele>407.8</ele>
        <time>2024-09-01T08:02:24Z</time>
      </trkpt>
      <trkpt lat="47.05547" lon="6.02983">
        <ele>407.6</ele>
        <time>2024-09-01T08:02:25Z</time>
      </trkpt>
      <trkpt lat="47.05547" lon="6.02983">
        <ele>407.8</ele>
        <time>2024-09-01T08:02:26Z</time>
      </trkpt>
      <trkpt lat="47.05547" lon="6.02983">
        <ele>407.6</ele>
        <time>2024-09-01T08:02:27Z</time>
      </trkpt>
      <trkpt lat="47.05547" lon="6.02983">
        <ele>407.6</ele>
        <time>2024-09-01T08:02:28Z</time>
      </trkpt>
      <trkpt lat="47.05547" lon="6.02982">
        <ele>407.8</ele>
        <time>2024-09-01T08:02:29Z</time>
      </trkpt>
      <trkpt lat="47.05547" lon="6.02982">
        <ele>407.6</ele>
        <time>2024-09-01T08:02:30Z</time>
      </trkpt>
      <trkpt lat="47.05547" lon="6.02982">
        <ele>407.8</ele>
        <time>2024-09-01T08:02:31Z</time>
      </trkpt>
      <trkpt lat="47.05548" lon="6.02982">
        <ele>407.6</ele>
        <time>2024-09-01T08:02:32Z</time>
      </trkpt>
      <trkpt lat="47.05548" lon="6.02982">
        <ele>407.6</ele>
        <time>2024-09-01T08:02:33Z</time>
      </trkpt>
      <trkpt lat="47.05548" lon="6.02982">
        <ele>407.6</ele>
        <time>2024-09-01T08:02:34Z</time>
      </trkpt>
      <trkpt lat="47.05548" lon="6.02981">
        <ele>407.6</ele>
        <time>2024-09-01T08:02:35Z</time>
      </trkpt>
      <trkpt lat="47.05548" lon="6.0298">
        <ele>407.6</ele>
        <time>2024-09-01T08:02:36Z</time>
      </trkpt>
      <trkpt lat="47.05548" lon="6.02978">
        <ele>407.6</ele>
        <time>2024-09-01T08:02:37Z</time>
      </trkpt>
      <trkpt lat="47.05548" lon="6.02976">
        <ele>407.4</ele>
        <time>2024-09-01T08:02:38Z</time>
      </trkpt>
      <trkpt lat="47.05548" lon="6.02975">
        <ele>407.6</ele>
        <time>2024-09-01T08:02:39Z</time>
      </trkpt>
      <trkpt lat="47.05547" lon="6.02973">
        <ele>407.6</ele>
        <time>2024-09-01T08:02:40Z</time>
      </trkpt>
      <trkpt lat="47.05546" lon="6.02971">
        <ele>407.4</ele>
        <time>2024-09-01T08:02:41Z</time>
      </trkpt>
      <trkpt lat="47.05546" lon="6.02968">
        <ele>407.6</ele>
        <time>2024-09-01T08:02:42Z</time>
      </trkpt>
      <trkpt lat="47.05545" lon="6.02966">
        <ele>407.6</ele>
        <time>2024-09-01T08:02:43Z</time>
      </trkpt>
      <trkpt lat="47.05545" lon="6.02963">
        <ele>407.4</ele>
        <time>2024-09-01T08:02:44Z</time>
      </trkpt>
      <trkpt lat="47.05546" lon="6.02959">
        <ele>407.6</ele>
        <time>2024-09-01T08:02:45Z</time>
      </trkpt>
      <trkpt lat="47.05546" lon="6.02956">
        <ele>407.4</ele>
        <time>2024-09-01T08:02:46Z</time>
      </trkpt>
      <trkpt lat="47.05546" lon="6.02953">
        <ele>407.6</ele>
        <time>2024-09-01T08:02:47Z</time>
      </trkpt>
      <trkpt lat="47.05546" lon="6.0295">
        <ele>407.4</ele>
        <time>2024-09-01T08:02:48Z</time>
      </trkpt>
      <trkpt lat="47.05547" lon="6.02948">
        <ele>407.4</ele>
        <time>2024-09-01T08:02:49Z</time>
      </trkpt>
      <trkpt lat="47.05547" lon="6.02946">
        <ele>407.4</ele>
        <time>2024-09-01T08:02:50Z</time>
      </trkpt>
      <trkpt lat="47.05548" lon="6.02944">
        <ele>407.4</ele>
        <time>2024-09-01T08:02:51Z</time>
      </trkpt>
      <trkpt lat="47.05548" lon="6.02943">
        <ele>407.2</ele>
        <time>2024-09-01T08:02:52Z</time>
      </trkpt>
      <trkpt lat="47.05549" lon="6.02941">
        <ele>407</ele>
        <time>2024-09-01T08:02:53Z</time>
      </trkpt>
      <trkpt lat="47.0555" lon="6.0294">
        <ele>407</ele>
        <time>2024-09-01T08:02:54Z</time>
      </trkpt>
      <trkpt lat="47.05551" lon="6.02938">
        <ele>406.8</ele>
        <time>2024-09-01T08:02:55Z</time>
      </trkpt>
      <trkpt lat="47.05552" lon="6.02937">
        <ele>406.8</ele>
        <time>2024-09-01T08:02:56Z</time>
      </trkpt>
      <trkpt lat="47.05553" lon="6.02936">
        <ele>406.8</ele>
        <time>2024-09-01T08:02:57Z</time>
      </trkpt>
      <trkpt lat="47.05553" lon="6.02934">
        <ele>406.8</ele>
        <time>2024-09-01T08:02:58Z</time>
      </trkpt>
      <trkpt lat="47.05554" lon="6.02932">
        <ele>406.8</ele>
        <time>2024-09-01T08:02:59Z</time>
      </trkpt>
      <trkpt lat="47.05555" lon="6.0293">
        <ele>406.8</ele>
        <time>2024-09-01T08:03:00Z</time>
      </trkpt>
      <trkpt lat="47.05557" lon="6.02928">
        <ele>406.8</ele>
        <time>2024-09-01T08:03:01Z</time>
      </trkpt>
      <trkpt lat="47.05558" lon="6.02927">
        <ele>406.6</ele>
        <time>2024-09-01T08:03:02Z</time>
      </trkpt>
      <trkpt lat="47.0556" lon="6.02926">
        <ele>406.8</ele>
        <time>2024-09-01T08:03:03Z</time>
      </trkpt>
      <trkpt lat="47.05563" lon="6.02926">
        <ele>406.6</ele>
        <time>2024-09-01T08:03:04Z</time>
      </trkpt>
      <trkpt lat="47.05566" lon="6.02925">
        <ele>406.8</ele>
        <time>2024-09-01T08:03:05Z</time>
      </trkpt>
      <trkpt lat="47.05569" lon="6.02924">
        <ele>406.8</ele>
        <time>2024-09-01T08:03:06Z</time>
      </trkpt>
      <trkpt lat="47.05572" lon="6.02924">
        <ele>406.8</ele>
        <time>2024-09-01T08:03:07Z</time>
      </trkpt>
      <trkpt lat="47.05576" lon="6.02923">
        <ele>406.8</ele>
        <time>2024-09-01T08:03:08Z</time>
      </trkpt>
      <trkpt lat="47.05579" lon="6.02924">
        <ele>406.8</ele>
        <time>2024-09-01T08:03:09Z</time>
      </trkpt>
      <trkpt lat="47.05582" lon="6.02924">
        <ele>407</ele>
        <time>2024-09-01T08:03:10Z</time>
      </trkpt>
      <trkpt lat="47.05586" lon="6.02924">
        <ele>407</ele>
        <time>2024-09-01T08:03:11Z</time>
      </trkpt>
      <trkpt lat="47.05589" lon="6.02925">
        <ele>407</ele>
        <time>2024-09-01T08:03:12Z</time>
      </trkpt>
      <trkpt lat="47.05593" lon="6.02926">
        <ele>407.2</ele>
        <time>2024-09-01T08:03:13Z</time>
      </trkpt>
      <trkpt lat="47.05596" lon="6.02927">
        <ele>407.2</ele>
        <time>2024-09-01T08:03:14Z</time>
      </trkpt>
      <trkpt lat="47.05599" lon="6.02927">
        <ele>407.4</ele>
        <time>2024-09-01T08:03:15Z</time>
      </trkpt>
      <trkpt lat="47.05603" lon="6.02927">
        <ele>407.8</ele>
        <time>2024-09-01T08:03:16Z</time>
      </trkpt>
      <trkpt lat="47.05606" lon="6.02928">
        <ele>407.8</ele>
        <time>2024-09-01T08:03:17Z</time>
      </trkpt>
      <trkpt lat="47.05609" lon="6.02928">
        <ele>407.8</ele>
        <time>2024-09-01T08:03:18Z</time>
      </trkpt>
      <trkpt lat="47.05613" lon="6.02929">
        <ele>407.8</ele>
        <time>2024-09-01T08:03:19Z</time>
      </trkpt>
      <trkpt lat="47.05616" lon="6.02929">
        <ele>408.4</ele>
        <time>2024-09-01T08:03:20Z</time>
      </trkpt>
      <trkpt lat="47.05619" lon="6.02929">
        <ele>408.6</ele>
        <time>2024-09-01T08:03:21Z</time>
      </trkpt>
      <trkpt lat="47.05623" lon="6.02928">
        <ele>408.8</ele>
        <time>2024-09-01T08:03:22Z</time>
      </trkpt>
      <trkpt lat="47.05627" lon="6.02927">
        <ele>408.8</ele>
        <time>2024-09-01T08:03:23Z</time>
      </trkpt>
      <trkpt lat="47.05631" lon="6.02926">
        <ele>409.2</ele>
        <time>2024-09-01T08:03:24Z</time>
      </trkpt>
      <trkpt lat="47.05635" lon="6.02925">
        <ele>409.2</ele>
        <time>2024-09-01T08:03:25Z</time>
      </trkpt>
      <trkpt lat="47.05639" lon="6.02922">
        <ele>409.4</ele>
        <time>2024-09-01T08:03:26Z</time>
      </trkpt>
      <trkpt lat="47.05643" lon="6.02921">
        <ele>409.6</ele>
        <time>2024-09-01T08:03:27Z</time>
      </trkpt>
      <trkpt lat="47.05646" lon="6.02918">
        <ele>409.8</ele>
        <time>2024-09-01T08:03:28Z</time>
      </trkpt>
      <trkpt lat="47.0565" lon="6.02915">
        <ele>410</ele>
        <time>2024-09-01T08:03:29Z</time>
      </trkpt>
      <trkpt lat="47.05654" lon="6.02913">
        <ele>410</ele>
        <time>2024-09-01T08:03:30Z</time>
      </trkpt>
      <trkpt lat="47.05657" lon="6.0291">
        <ele>410</ele>
        <time>2024-09-01T08:03:31Z</time>
      </trkpt>
      <trkpt lat="47.05661" lon="6.02909">
        <ele>410.2</ele>
        <time>2024-09-01T08:03:32Z</time>
      </trkpt>
      <trkpt lat="47.05664" lon="6.02907">
        <ele>410.2</ele>
        <time>2024-09-01T08:03:33Z</time>
      </trkpt>
      <trkpt lat="47.05667" lon="6.02905">
        <ele>410.2</ele>
        <time>2024-09-01T08:03:34Z</time>
      </trkpt>
      <trkpt lat="47.0567" lon="6.02902">
        <ele>410.2</ele>
        <time>2024-09-01T08:03:35Z</time>
      </trkpt>
      <trkpt lat="47.05674" lon="6.02899">
        <ele>410.2</ele>
        <time>2024-09-01T08:03:36Z</time>
      </trkpt>
      <trkpt lat="47.05677" lon="6.02895">
        <ele>410.4</ele>
        <time>2024-09-01T08:03:37Z</time>
      </trkpt>
      <trkpt lat="47.05681" lon="6.02889">
        <ele>410.6</ele>
        <time>2024-09-01T08:03:38Z</time>
      </trkpt>
      <trkpt lat="47.05683" lon="6.02884">
        <ele>410.8</ele>
        <time>2024-09-01T08:03:39Z</time>
      </trkpt>
      <trkpt lat="47.05684" lon="6.02878">
        <ele>410.8</ele>
        <time>2024-09-01T08:03:40Z</time>
      </trkpt>
      <trkpt lat="47.05684" lon="6.02872">
        <ele>411</ele>
        <time>2024-09-01T08:03:41Z</time>
      </trkpt>
      <trkpt lat="47.05684" lon="6.02867">
        <ele>411</ele>
        <time>2024-09-01T08:03:42Z</time>
      </trkpt>
      <trkpt lat="47.05684" lon="6.02861">
        <ele>411</ele>
        <time>2024-09-01T08:03:43Z</time>
      </trkpt>
      <trkpt lat="47.05683" lon="6.02856">
        <ele>411.4</ele>
        <time>2024-09-01T08:03:44Z</time>
      </trkpt>
      <trkpt lat="47.05682" lon="6.02851">
        <ele>411.2</ele>
        <time>2024-09-01T08:03:45Z</time>
      </trkpt>
      <trkpt lat="47.0568" lon="6.02847">
        <ele>411.4</ele>
        <time>2024-09-01T08:03:46Z</time>
      </trkpt>
      <trkpt lat="47.05679" lon="6.02842">
        <ele>411.6</ele>
        <time>2024-09-01T08:03:47Z</time>
      </trkpt>
      <trkpt lat="47.05677" lon="6.02838">
        <ele>411.8</ele>
        <time>2024-09-01T08:03:48Z</time>
      </trkpt>
      <trkpt lat="47.05675" lon="6.02834">
        <ele>412</ele>
        <time>2024-09-01T08:03:49Z</time>
      </trkpt>
      <trkpt lat="47.05674" lon="6.0283">
        <ele>412.4</ele>
        <time>2024-09-01T08:03:50Z</time>
      </trkpt>
      <trkpt lat="47.05672" lon="6.02826">
        <ele>412.4</ele>
        <time>2024-09-01T08:03:51Z</time>
      </trkpt>
      <trkpt lat="47.05671" lon="6.02821">
        <ele>412.6</ele>
        <time>2024-09-01T08:03:52Z</time>
      </trkpt>
      <trkpt lat="47.05669" lon="6.02817">
        <ele>412.8</ele>
        <time>2024-09-01T08:03:53Z</time>
      </trkpt>
      <trkpt lat="47.05668" lon="6.02812">
        <ele>413</ele>
        <time>2024-09-01T08:03:54Z</time>
      </trkpt>
      <trkpt lat="47.05666" lon="6.02807">
        <ele>413</ele>
        <time>2024-09-01T08:03:55Z</time>
      </trkpt>
      <trkpt lat="47.05665" lon="6.02802">
        <ele>413</ele>
        <time>2024-09-01T08:03:56Z</time>
      </trkpt>
      <trkpt lat="47.05663" lon="6.02797">
        <ele>413.4</ele>
        <time>2024-09-01T08:03:57Z</time>
      </trkpt>
      <trkpt lat="47.05662" lon="6.02792">
        <ele>413.6</ele>
        <time>2024-09-01T08:03:58Z</time>
      </trkpt>
      <trkpt lat="47.05661" lon="6.02787">
        <ele>413.8</ele>
        <time>2024-09-01T08:03:59Z</time>
      </trkpt>
      <trkpt lat="47.05659" lon="6.02782">
        <ele>414.2</ele>
        <time>2024-09-01T08:04:00Z</time>
      </trkpt>
      <trkpt lat="47.05658" lon="6.02777">
        <ele>414.4</ele>
        <time>2024-09-01T08:04:01Z</time>
      </trkpt>
      <trkpt lat="47.05656" lon="6.02772">
        <ele>414.8</ele>
        <time>2024-09-01T08:04:02Z</time>
      </trkpt>
      <trkpt lat="47.05655" lon="6.02768">
        <ele>415</ele>
        <time>2024-09-01T08:04:03Z</time>
      </trkpt>
      <trkpt lat="47.05654" lon="6.02763">
        <ele>415.2</ele>
        <time>2024-09-01T08:04:04Z</time>
      </trkpt>
      <trkpt lat="47.05654" lon="6.02759">
        <ele>415.4</ele>
        <time>2024-09-01T08:04:05Z</time>
      </trkpt>
      <trkpt lat="47.05653" lon="6.02754">
        <ele>415.4</ele>
        <time>2024-09-01T08:04:06Z</time>
      </trkpt>
      <trkpt lat="47.05652" lon="6.02749">
        <ele>415.6</ele>
        <time>2024-09-01T08:04:07Z</time>
      </trkpt>
      <trkpt lat="47.05651" lon="6.02745">
        <ele>415.6</ele>
        <time>2024-09-01T08:04:08Z</time>
      </trkpt>
      <trkpt lat="47.0565" lon="6.0274">
        <ele>415.8</ele>
        <time>2024-09-01T08:04:09Z</time>
      </trkpt>
      <trkpt lat="47.0565" lon="6.02735">
        <ele>416.2</ele>
        <time>2024-09-01T08:04:10Z</time>
      </trkpt>
      <trkpt lat="47.05649" lon="6.02731">
        <ele>416.4</ele>
        <time>2024-09-01T08:04:11Z</time>
      </trkpt>
      <trkpt lat="47.05648" lon="6.02726">
        <ele>416.6</ele>
        <time>2024-09-01T08:04:12Z</time>
      </trkpt>
      <trkpt lat="47.05646" lon="6.02721">
        <ele>416.6</ele>
        <time>2024-09-01T08:04:13Z</time>
      </trkpt>
      <trkpt lat="47.05645" lon="6.02717">
        <ele>417</ele>
        <time>2024-09-01T08:04:14Z</time>
      </trkpt>
      <trkpt lat="47.05643" lon="6.02713">
        <ele>417</ele>
        <time>2024-09-01T08:04:15Z</time>
      </trkpt>
      <trkpt lat="47.05642" lon="6.02708">
        <ele>417</ele>
        <time>2024-09-01T08:04:16Z</time>
      </trkpt>
      <trkpt lat="47.05641" lon="6.02703">
        <ele>417.4</ele>
        <time>2024-09-01T08:04:17Z</time>
      </trkpt>
      <trkpt lat="47.0564" lon="6.02699">
        <ele>417.6</ele>
        <time>2024-09-01T08:04:18Z</time>
      </trkpt>
      <trkpt lat="47.05639" lon="6.02695">
        <ele>417.8</ele>
        <time>2024-09-01T08:04:19Z</time>
      </trkpt>
      <trkpt lat="47.05637" lon="6.02691">
        <ele>418</ele>
        <time>2024-09-01T08:04:20Z</time>
      </trkpt>
      <trkpt lat="47.05635" lon="6.02687">
        <ele>418.2</ele>
        <time>2024-09-01T08:04:21Z</time>
      </trkpt>
      <trkpt lat="47.05633" lon="6.02685">
        <ele>418.4</ele>
        <time>2024-09-01T08:04:22Z</time>
      </trkpt>
      <trkpt lat="47.0563" lon="6.02683">
        <ele>418.6</ele>
        <time>2024-09-01T08:04:23Z</time>
      </trkpt>
      <trkpt lat="47.05628" lon="6.02681">
        <ele>418.8</ele>
        <time>2024-09-01T08:04:24Z</time>
      </trkpt>
      <trkpt lat="47.05626" lon="6.0268">
        <ele>419</ele>
        <time>2024-09-01T08:04:25Z</time>
      </trkpt>
      <trkpt lat="47.05623" lon="6.02678">
        <ele>419.2</ele>
        <time>2024-09-01T08:04:26Z</time>
      </trkpt>
      <trkpt lat="47.05621" lon="6.02676">
        <ele>419.6</ele>
        <time>2024-09-01T08:04:27Z</time>
      </trkpt>
      <trkpt lat="47.05618" lon="6.02675">
        <ele>420</ele>
        <time>2024-09-01T08:04:28Z</time>
      </trkpt>
      <trkpt lat="47.05616" lon="6.02674">
        <ele>420.2</ele>
        <time>2024-09-01T08:04:29Z</time>
      </trkpt>
      <trkpt lat="47.05613" lon="6.02673">
        <ele>420.4</ele>
        <time>2024-09-01T08:04:30Z</time>
      </trkpt>
      <trkpt lat="47.05611" lon="6.02673">
        <ele>420.4</ele>
        <time>2024-09-01T08:04:31Z</time>
      </trkpt>
      <trkpt lat="47.05608" lon="6.02671">
        <ele>420.6</ele>
        <time>2024-09-01T08:04:32Z</time>
      </trkpt>
      <trkpt lat="47.05605" lon="6.02669">
        <ele>420.6</ele>
        <time>2024-09-01T08:04:33Z</time>
      </trkpt>
      <trkpt lat="47.05602" lon="6.02668">
        <ele>420.8</ele>
        <time>2024-09-01T08:04:34Z</time>
      </trkpt>
      <trkpt lat="47.056" lon="6.02667">
        <ele>421</ele>
        <time>2024-09-01T08:04:35Z</time>
      </trkpt>
      <trkpt lat="47.05597" lon="6.02666">
        <ele>421.2</ele>
        <time>2024-09-01T08:04:36Z</time>
      </trkpt>
      <trkpt lat="47.05594" lon="6.02665">
        <ele>421.4</ele>
        <time>2024-09-01T08:04:37Z</time>
      </trkpt>
      <trkpt lat="47.05591" lon="6.02664">
        <ele>421.8</ele>
        <time>2024-09-01T08:04:38Z</time>
      </trkpt>
      <trkpt lat="47.05588" lon="6.02662">
        <ele>422</ele>
        <time>2024-09-01T08:04:39Z</time>
      </trkpt>
      <trkpt lat="47.05585" lon="6.0266">
        <ele>422</ele>
        <time>2024-09-01T08:04:40Z</time>
      </trkpt>
      <trkpt lat="47.05582" lon="6.02658">
        <ele>422.2</ele>
        <time>2024-09-01T08:04:41Z</time>
      </trkpt>
      <trkpt lat="47.05579" lon="6.02655">
        <ele>422.4</ele>
        <time>2024-09-01T08:04:42Z</time>
      </trkpt>
      <trkpt lat="47.05577" lon="6.02652">
        <ele>422.6</ele>
        <time>2024-09-01T08:04:43Z</time>
      </trkpt>
      <trkpt lat="47.05575" lon="6.02648">
        <ele>422.6</ele>
        <time>2024-09-01T08:04:44Z</time>
      </trkpt>
      <trkpt lat="47.05574" lon="6.02645">
        <ele>422.8</ele>
        <time>2024-09-01T08:04:45Z</time>
      </trkpt>
      <trkpt lat="47.05572" lon="6.02641">
        <ele>423</ele>
        <time>2024-09-01T08:04:46Z</time>
      </trkpt>
      <trkpt lat="47.0557" lon="6.02636">
        <ele>423</ele>
        <time>2024-09-01T08:04:47Z</time>
      </trkpt>
      <trkpt lat="47.05568" lon="6.02631">
        <ele>423.2</ele>
        <time>2024-09-01T08:04:48Z</time>
      </trkpt>
      <trkpt lat="47.05567" lon="6.02626">
        <ele>423.2</ele>
        <time>2024-09-01T08:04:49Z</time>
      </trkpt>
      <trkpt lat="47.05565" lon="6.02622">
        <ele>423.4</ele>
        <time>2024-09-01T08:04:50Z</time>
      </trkpt>
      <trkpt lat="47.05564" lon="6.02619">
        <ele>423.6</ele>
        <time>2024-09-01T08:04:51Z</time>
      </trkpt>
      <trkpt lat="47.05562" lon="6.02615">
        <ele>423.8</ele>
        <time>2024-09-01T08:04:52Z</time>
      </trkpt>
      <trkpt lat="47.05561" lon="6.02612">
        <ele>423.8</ele>
        <time>2024-09-01T08:04:53Z</time>
      </trkpt>
      <trkpt lat="47.0556" lon="6.02608">
        <ele>424</ele>
        <time>2024-09-01T08:04:54Z</time>
      </trkpt>
      <trkpt lat="47.0556" lon="6.02605">
        <ele>424.2</ele>
        <time>2024-09-01T08:04:55Z</time>
      </trkpt>
      <trkpt lat="47.0556" lon="6.02601">
        <ele>424.2</ele>
        <time>2024-09-01T08:04:56Z</time>
      </trkpt>
      <trkpt lat="47.05561" lon="6.02598">
        <ele>424.4</ele>
        <time>2024-09-01T08:04:57Z</time>
      </trkpt>
      <trkpt lat="47.05562" lon="6.02595">
        <ele>424.6</ele>
        <time>2024-09-01T08:04:58Z</time>
      </trkpt>
      <trkpt lat="47.05563" lon="6.02593">
        <ele>424.8</ele>
        <time>2024-09-01T08:04:59Z</time>
      </trkpt>
      <trkpt lat="47.05564" lon="6.0259">
        <ele>425</ele>
        <time>2024-09-01T08:05:00Z</time>
      </trkpt>
      <trkpt lat="47.05565" lon="6.02588">
        <ele>425</ele>
        <time>2024-09-01T08:05:01Z</time>
      </trkpt>
      <trkpt lat="47.05567" lon="6.02586">
        <ele>425.2</ele>
        <time>2024-09-01T08:05:02Z</time>
      </trkpt>
      <trkpt lat="47.05568" lon="6.02584">
        <ele>425.4</ele>
        <time>2024-09-01T08:05:03Z</time>
      </trkpt>
      <trkpt lat="47.0557" lon="6.02582">
        <ele>425.6</ele>
        <time>2024-09-01T08:05:04Z</time>
      </trkpt>
      <trkpt lat="47.05571" lon="6.0258">
        <ele>426.2</ele>
        <time>2024-09-01T08:05:05Z</time>
      </trkpt>
      <trkpt lat="47.05573" lon="6.02579">
        <ele>426.4</ele>
        <time>2024-09-01T08:05:06Z</time>
      </trkpt>
      <trkpt lat="47.05575" lon="6.02577">
        <ele>426.6</ele>
        <time>2024-09-01T08:05:07Z</time>
      </trkpt>
      <trkpt lat="47.05576" lon="6.02576">
        <ele>426.8</ele>
        <time>2024-09-01T08:05:08Z</time>
      </trkpt>
      <trkpt lat="47.05577" lon="6.02573">
        <ele>427</ele>
        <time>2024-09-01T08:05:09Z</time>
      </trkpt>
      <trkpt lat="47.05578" lon="6.02571">
        <ele>427.2</ele>
        <time>2024-09-01T08:05:10Z</time>
      </trkpt>
      <trkpt lat="47.05578" lon="6.02568">
        <ele>427.4</ele>
        <time>2024-09-01T08:05:11Z</time>
      </trkpt>
      <trkpt lat="47.05578" lon="6.02565">
        <ele>427.8</ele>
        <time>2024-09-01T08:05:12Z</time>
      </trkpt>
      <trkpt lat="47.05579" lon="6.02562">
        <ele>428</ele>
        <time>2024-09-01T08:05:13Z</time>
      </trkpt>
      <trkpt lat="47.05579" lon="6.02558">
        <ele>428.2</ele>
        <time>2024-09-01T08:05:14Z</time>
      </trkpt>
      <trkpt lat="47.05579" lon="6.02555">
        <ele>428.2</ele>
        <time>2024-09-01T08:05:15Z</time>
      </trkpt>
      <trkpt lat="47.05579" lon="6.02552">
        <ele>428.4</ele>
        <time>2024-09-01T08:05:16Z</time>
      </trkpt>
      <trkpt lat="47.05578" lon="6.02549">
        <ele>429.2</ele>
        <time>2024-09-01T08:05:17Z</time>
      </trkpt>
      <trkpt lat="47.05578" lon="6.02546">
        <ele>429.2</ele>
        <time>2024-09-01T08:05:18Z</time>
      </trkpt>
      <trkpt lat="47.05578" lon="6.02542">
        <ele>429.6</ele>
        <time>2024-09-01T08:05:19Z</time>
      </trkpt>
      <trkpt lat="47.05577" lon="6.02539">
        <ele>429.8</ele>
        <time>2024-09-01T08:05:20Z</time>
      </trkpt>
      <trkpt lat="47.05576" lon="6.02536">
        <ele>430.2</ele>
        <time>2024-09-01T08:05:21Z</time>
      </trkpt>
      <trkpt lat="47.05575" lon="6.02533">
        <ele>430.2</ele>
        <time>2024-09-01T08:05:22Z</time>
      </trkpt>
      <trkpt lat="47.05574" lon="6.0253">
        <ele>430.4</ele>
        <time>2024-09-01T08:05:23Z</time>
      </trkpt>
      <trkpt lat="47.05573" lon="6.02527">
        <ele>430.8</ele>
        <time>2024-09-01T08:05:24Z</time>
      </trkpt>
      <trkpt lat="47.05573" lon="6.02524">
        <ele>431</ele>
        <time>2024-09-01T08:05:25Z</time>
      </trkpt>
      <trkpt lat="47.05572" lon="6.02521">
        <ele>431</ele>
        <time>2024-09-01T08:05:26Z</time>
      </trkpt>
      <trkpt lat="47.05571" lon="6.02518">
        <ele>431.2</ele>
        <time>2024-09-01T08:05:27Z</time>
      </trkpt>
      <trkpt lat="47.0557" lon="6.02515">
        <ele>431.4</ele>
        <time>2024-09-01T08:05:28Z</time>
      </trkpt>
      <trkpt lat="47.05568" lon="6.02512">
        <ele>431.8</ele>
        <time>2024-09-01T08:05:29Z</time>
      </trkpt>
      <trkpt lat="47.05567" lon="6.02509">
        <ele>432</ele>
        <time>2024-09-01T08:05:30Z</time>
      </trkpt>
      <trkpt lat="47.05566" lon="6.02506">
        <ele>432.2</ele>
        <time>2024-09-01T08:05:31Z</time>
      </trkpt>
      <trkpt lat="47.05564" lon="6.02503">
        <ele>432.2</ele>
        <time>2024-09-01T08:05:32Z</time>
      </trkpt>
      <trkpt lat="47.05562" lon="6.025">
        <ele>432.6</ele>
        <time>2024-09-01T08:05:33Z</time>
      </trkpt>
      <trkpt lat="47.05561" lon="6.02497">
        <ele>432.8</ele>
        <time>2024-09-01T08:05:34Z</time>
      </trkpt>
      <trkpt lat="47.05559" lon="6.02494">
        <ele>432.8</ele>
        <time>2024-09-01T08:05:35Z</time>
      </trkpt>
      <trkpt lat="47.05558" lon="6.02491">
        <ele>433</ele>
        <time>2024-09-01T08:05:36Z</time>
      </trkpt>
      <trkpt lat="47.05557" lon="6.02488">
        <ele>433.2</ele>
        <time>2024-09-01T08:05:37Z</time>
      </trkpt>
      <trkpt lat="47.05556" lon="6.02485">
        <ele>433.4</ele>
        <time>2024-09-01T08:05:38Z</time>
      </trkpt>
      <trkpt lat="47.05555" lon="6.02483">
        <ele>433.4</ele>
        <time>2024-09-01T08:05:39Z</time>
      </trkpt>
      <trkpt lat="47.05554" lon="6.0248">
        <ele>433.6</ele>
        <time>2024-09-01T08:05:40Z</time>
      </trkpt>
      <trkpt lat="47.05554" lon="6.02477">
        <ele>433.6</ele>
        <time>2024-09-01T08:05:41Z</time>
      </trkpt>
      <trkpt lat="47.05553" lon="6.02473">
        <ele>434</ele>
        <time>2024-09-01T08:05:42Z</time>
      </trkpt>
      <trkpt lat="47.05552" lon="6.0247">
        <ele>434</ele>
        <time>2024-09-01T08:05:43Z</time>
      </trkpt>
      <trkpt lat="47.05552" lon="6.02466">
        <ele>434.2</ele>
        <time>2024-09-01T08:05:44Z</time>
      </trkpt>
      <trkpt lat="47.05551" lon="6.02463">
        <ele>434.6</ele>
        <time>2024-09-01T08:05:45Z</time>
      </trkpt>
      <trkpt lat="47.0555" lon="6.0246">
        <ele>434.6</ele>
        <time>2024-09-01T08:05:46Z</time>
      </trkpt>
      <trkpt lat="47.0555" lon="6.02457">
        <ele>434.6</ele>
        <time>2024-09-01T08:05:47Z</time>
      </trkpt>
      <trkpt lat="47.05549" lon="6.02454">
        <ele>434.8</ele>
        <time>2024-09-01T08:05:48Z</time>
      </trkpt>
      <trkpt lat="47.05548" lon="6.02451">
        <ele>435</ele>
        <time>2024-09-01T08:05:49Z</time>
      </trkpt>
      <trkpt lat="47.05547" lon="6.02448">
        <ele>435</ele>
        <time>2024-09-01T08:05:50Z</time>
      </trkpt>
      <trkpt lat="47.05546" lon="6.02446">
        <ele>435.4</ele>
        <time>2024-09-01T08:05:51Z</time>
      </trkpt>
      <trkpt lat="47.05546" lon="6.02443">
        <ele>435.6</ele>
        <time>2024-09-01T08:05:52Z</time>
      </trkpt>
      <trkpt lat="47.05545" lon="6.02441">
        <ele>435.6</ele>
        <time>2024-09-01T08:05:53Z</time>
      </trkpt>
      <trkpt lat="47.05545" lon="6.02439">
        <ele>435.6</ele>
        <time>2024-09-01T08:05:54Z</time>
      </trkpt>
      <trkpt lat="47.05544" lon="6.02436">
        <ele>436</ele>
        <time>2024-09-01T08:05:55Z</time>
      </trkpt>
      <trkpt lat="47.05543" lon="6.02434">
        <ele>436.2</ele>
        <time>2024-09-01T08:05:56Z</time>
      </trkpt>
      <trkpt lat="47.05543" lon="6.02431">
        <ele>436.2</ele>
        <time>2024-09-01T08:05:57Z</time>
      </trkpt>
      <trkpt lat="47.05542" lon="6.02429">
        <ele>436.6</ele>
        <time>2024-09-01T08:05:58Z</time>
      </trkpt>
      <trkpt lat="47.05541" lon="6.02426">
        <ele>436.6</ele>
        <time>2024-09-01T08:05:59Z</time>
      </trkpt>
      <trkpt lat="47.0554" lon="6.02424">
        <ele>437</ele>
        <time>2024-09-01T08:06:00Z</time>
      </trkpt>
      <trkpt lat="47.0554" lon="6.02421">
        <ele>437</ele>
        <time>2024-09-01T08:06:01Z</time>
      </trkpt>
      <trkpt lat="47.05539" lon="6.02418">
        <ele>437.2</ele>
        <time>2024-09-01T08:06:02Z</time>
      </trkpt>
      <trkpt lat="47.05538" lon="6.02416">
        <ele>437.6</ele>
        <time>2024-09-01T08:06:03Z</time>
      </trkpt>
      <trkpt lat="47.05537" lon="6.02413">
        <ele>437.6</ele>
        <time>2024-09-01T08:06:04Z</time>
      </trkpt>
      <trkpt lat="47.05536" lon="6.0241">
        <ele>437.8</ele>
        <time>2024-09-01T08:06:05Z</time>
      </trkpt>
      <trkpt lat="47.05535" lon="6.02408">
        <ele>438</ele>
        <time>2024-09-01T08:06:06Z</time>
      </trkpt>
      <trkpt lat="47.05534" lon="6.02405">
        <ele>438</ele>
        <time>2024-09-01T08:06:07Z</time>
      </trkpt>
      <trkpt lat="47.05533" lon="6.02402">
        <ele>438.2</ele>
        <time>2024-09-01T08:06:08Z</time>
      </trkpt>
      <trkpt lat="47.05532" lon="6.024">
        <ele>438.4</ele>
        <time>2024-09-01T08:06:09Z</time>
      </trkpt>
      <trkpt lat="47.05531" lon="6.02397">
        <ele>438.6</ele>
        <time>2024-09-01T08:06:10Z</time>
      </trkpt>
      <trkpt lat="47.0553" lon="6.02395">
        <ele>438.6</ele>
        <time>2024-09-01T08:06:11Z</time>
      </trkpt>
      <trkpt lat="47.05529" lon="6.02393">
        <ele>439</ele>
        <time>2024-09-01T08:06:12Z</time>
      </trkpt>
      <trkpt lat="47.05528" lon="6.02391">
        <ele>439</ele>
        <time>2024-09-01T08:06:13Z</time>
      </trkpt>
      <trkpt lat="47.05527" lon="6.02389">
        <ele>439.2</ele>
        <time>2024-09-01T08:06:14Z</time>
      </trkpt>
      <trkpt lat="47.05525" lon="6.02387">
        <ele>439.4</ele>
        <time>2024-09-01T08:06:15Z</time>
      </trkpt>
      <trkpt lat="47.05525" lon="6.02385">
        <ele>439.4</ele>
        <time>2024-09-01T08:06:16Z</time>
      </trkpt>
      <trkpt lat="47.05523" lon="6.02383">
        <ele>439.6</ele>
        <time>2024-09-01T08:06:17Z</time>
      </trkpt>
      <trkpt lat="47.05522" lon="6.0238">
        <ele>439.6</ele>
        <time>2024-09-01T08:06:18Z</time>
      </trkpt>
      <trkpt lat="47.05521" lon="6.02378">
        <ele>440</ele>
        <time>2024-09-01T08:06:19Z</time>
      </trkpt>
      <trkpt lat="47.05519" lon="6.02375">
        <ele>440.2</ele>
        <time>2024-09-01T08:06:20Z</time>
      </trkpt>
      <trkpt lat="47.05518" lon="6.02372">
        <ele>440.4</ele>
        <time>2024-09-01T08:06:21Z</time>
      </trkpt>
      <trkpt lat="47.05517" lon="6.02371">
        <ele>440.6</ele>
        <time>2024-09-01T08:06:22Z</time>
      </trkpt>
      <trkpt lat="47.05516" lon="6.02368">
        <ele>440.6</ele>
        <time>2024-09-01T08:06:23Z</time>
      </trkpt>
      <trkpt lat="47.05515" lon="6.02366">
        <ele>440.8</ele>
        <time>2024-09-01T08:06:24Z</time>
      </trkpt>
      <trkpt lat="47.05514" lon="6.02363">
        <ele>440.8</ele>
        <time>2024-09-01T08:06:25Z</time>
      </trkpt>
      <trkpt lat="47.05513" lon="6.02361">
        <ele>440.8</ele>
        <time>2024-09-01T08:06:26Z</time>
      </trkpt>
      <trkpt lat="47.05511" lon="6.02358">
        <ele>441</ele>
        <time>2024-09-01T08:06:27Z</time>
      </trkpt>
      <trkpt lat="47.05511" lon="6.02355">
        <ele>441.4</ele>
        <time>2024-09-01T08:06:28Z</time>
      </trkpt>
      <trkpt lat="47.0551" lon="6.02351">
        <ele>441.4</ele>
        <time>2024-09-01T08:06:29Z</time>
      </trkpt>
      <trkpt lat="47.05509" lon="6.02348">
        <ele>441.6</ele>
        <time>2024-09-01T08:06:30Z</time>
      </trkpt>
      <trkpt lat="47.05508" lon="6.02345">
        <ele>441.8</ele>
        <time>2024-09-01T08:06:31Z</time>
      </trkpt>
      <trkpt lat="47.05507" lon="6.02343">
        <ele>441.8</ele>
        <time>2024-09-01T08:06:32Z</time>
      </trkpt>
      <trkpt lat="47.05506" lon="6.02341">
        <ele>442</ele>
        <time>2024-09-01T08:06:33Z</time>
      </trkpt>
      <trkpt lat="47.05505" lon="6.02339">
        <ele>442.2</ele>
        <time>2024-09-01T08:06:34Z</time>
      </trkpt>
      <trkpt lat="47.05505" lon="6.02338">
        <ele>442.4</ele>
        <time>2024-09-01T08:06:35Z</time>
      </trkpt>
      <trkpt lat="47.05503" lon="6.02337">
        <ele>442.4</ele>
        <time>2024-09-01T08:06:36Z</time>
      </trkpt>
      <trkpt lat="47.05503" lon="6.02336">
        <ele>442.6</ele>
        <time>2024-09-01T08:06:37Z</time>
      </trkpt>
      <trkpt lat="47.05502" lon="6.02335">
        <ele>442.8</ele>
        <time>2024-09-01T08:06:38Z</time>
      </trkpt>
      <trkpt lat="47.05501" lon="6.02334">
        <ele>443</ele>
        <time>2024-09-01T08:06:39Z</time>
      </trkpt>
      <trkpt lat="47.05501" lon="6.02332">
        <ele>443.4</ele>
        <time>2024-09-01T08:06:40Z</time>
      </trkpt>
      <trkpt lat="47.055" lon="6.0233">
        <ele>443.4</ele>
        <time>2024-09-01T08:06:41Z</time>
      </trkpt>
      <trkpt lat="47.05498" lon="6.02328">
        <ele>443.6</ele>
        <time>2024-09-01T08:06:42Z</time>
      </trkpt>
      <trkpt lat="47.05497" lon="6.02325">
        <ele>443.6</ele>
        <time>2024-09-01T08:06:43Z</time>
      </trkpt>
      <trkpt lat="47.05496" lon="6.02323">
        <ele>443.8</ele>
        <time>2024-09-01T08:06:44Z</time>
      </trkpt>
      <trkpt lat="47.05495" lon="6.0232">
        <ele>444.2</ele>
        <time>2024-09-01T08:06:45Z</time>
      </trkpt>
      <trkpt lat="47.05494" lon="6.02318">
        <ele>444.2</ele>
        <time>2024-09-01T08:06:46Z</time>
      </trkpt>
      <trkpt lat="47.05492" lon="6.02315">
        <ele>444.4</ele>
        <time>2024-09-01T08:06:47Z</time>
      </trkpt>
      <trkpt lat="47.05491" lon="6.02313">
        <ele>444.4</ele>
        <time>2024-09-01T08:06:48Z</time>
      </trkpt>
      <trkpt lat="47.0549" lon="6.02312">
        <ele>444.8</ele>
        <time>2024-09-01T08:06:49Z</time>
      </trkpt>
      <trkpt lat="47.05489" lon="6.02309">
        <ele>445</ele>
        <time>2024-09-01T08:06:50Z</time>
      </trkpt>
      <trkpt lat="47.05487" lon="6.02307">
        <ele>445</ele>
        <time>2024-09-01T08:06:51Z</time>
      </trkpt>
      <trkpt lat="47.05487" lon="6.02304">
        <ele>445</ele>
        <time>2024-09-01T08:06:52Z</time>
      </trkpt>
      <trkpt lat="47.05486" lon="6.02302">
        <ele>445.4</ele>
        <time>2024-09-01T08:06:53Z</time>
      </trkpt>
      <trkpt lat="47.05485" lon="6.023">
        <ele>445.4</ele>
        <time>2024-09-01T08:06:54Z</time>
      </trkpt>
      <trkpt lat="47.05485" lon="6.02298">
        <ele>445.4</ele>
        <time>2024-09-01T08:06:55Z</time>
      </trkpt>
      <trkpt lat="47.05484" lon="6.02295">
        <ele>445.8</ele>
        <time>2024-09-01T08:06:56Z</time>
      </trkpt>
      <trkpt lat="47.05483" lon="6.02293">
        <ele>445.8</ele>
        <time>2024-09-01T08:06:57Z</time>
      </trkpt>
      <trkpt lat="47.05482" lon="6.02291">
        <ele>446</ele>
        <time>2024-09-01T08:06:58Z</time>
      </trkpt>
      <trkpt lat="47.05481" lon="6.02288">
        <ele>446.2</ele>
        <time>2024-09-01T08:06:59Z</time>
      </trkpt>
      <trkpt lat="47.0548" lon="6.02286">
        <ele>446.2</ele>
        <time>2024-09-01T08:07:00Z</time>
      </trkpt>
      <trkpt lat="47.05479" lon="6.02285">
        <ele>446.2</ele>
        <time>2024-09-01T08:07:01Z</time>
      </trkpt>
      <trkpt lat="47.05478" lon="6.02283">
        <ele>446.4</ele>
        <time>2024-09-01T08:07:02Z</time>
      </trkpt>
      <trkpt lat="47.05477" lon="6.02282">
        <ele>446.6</ele>
        <time>2024-09-01T08:07:03Z</time>
      </trkpt>
      <trkpt lat="47.05477" lon="6.02281">
        <ele>446.8</ele>
        <time>2024-09-01T08:07:04Z</time>
      </trkpt>
      <trkpt lat="47.05476" lon="6.02279">
        <ele>447</ele>
        <time>2024-09-01T08:07:05Z</time>
      </trkpt>
      <trkpt lat="47.05475" lon="6.02278">
        <ele>447</ele>
        <time>2024-09-01T08:07:06Z</time>
      </trkpt>
      <trkpt lat="47.05474" lon="6.02276">
        <ele>447.2</ele>
        <time>2024-09-01T08:07:07Z</time>
      </trkpt>
      <trkpt lat="47.05474" lon="6.02275">
        <ele>447.4</ele>
        <time>2024-09-01T08:07:08Z</time>
      </trkpt>
      <trkpt lat="47.05474" lon="6.02273">
        <ele>447.4</ele>
        <time>2024-09-01T08:07:09Z</time>
      </trkpt>
      <trkpt lat="47.05473" lon="6.02271">
        <ele>447.6</ele>
        <time>2024-09-01T08:07:10Z</time>
      </trkpt>
      <trkpt lat="47.05473" lon="6.02269">
        <ele>447.8</ele>
        <time>2024-09-01T08:07:11Z</time>
      </trkpt>
      <trkpt lat="47.05472" lon="6.02267">
        <ele>448</ele>
        <time>2024-09-01T08:07:12Z</time>
      </trkpt>
      <trkpt lat="47.05471" lon="6.02266">
        <ele>448.2</ele>
        <time>2024-09-01T08:07:13Z</time>
      </trkpt>
      <trkpt lat="47.05471" lon="6.02264">
        <ele>448.2</ele>
        <time>2024-09-01T08:07:14Z</time>
      </trkpt>
      <trkpt lat="47.0547" lon="6.02262">
        <ele>448.4</ele>
        <time>2024-09-01T08:07:15Z</time>
      </trkpt>
      <trkpt lat="47.0547" lon="6.0226">
        <ele>448.4</ele>
        <time>2024-09-01T08:07:16Z</time>
      </trkpt>
      <trkpt lat="47.05469" lon="6.02258">
        <ele>448.4</ele>
        <time>2024-09-01T08:07:17Z</time>
      </trkpt>
      <trkpt lat="47.05468" lon="6.02256">
        <ele>448.6</ele>
        <time>2024-09-01T08:07:18Z</time>
      </trkpt>
      <trkpt lat="47.05467" lon="6.02253">
        <ele>448.8</ele>
        <time>2024-09-01T08:07:19Z</time>
      </trkpt>
      <trkpt lat="47.05466" lon="6.02251">
        <ele>448.8</ele>
        <time>2024-09-01T08:07:20Z</time>
      </trkpt>
      <trkpt lat="47.05465" lon="6.02248">
        <ele>449</ele>
        <time>2024-09-01T08:07:21Z</time>
      </trkpt>
      <trkpt lat="47.05464" lon="6.02246">
        <ele>449.2</ele>
        <time>2024-09-01T08:07:22Z</time>
      </trkpt>
      <trkpt lat="47.05463" lon="6.02243">
        <ele>449.2</ele>
        <time>2024-09-01T08:07:23Z</time>
      </trkpt>
      <trkpt lat="47.05462" lon="6.0224">
        <ele>449.4</ele>
        <time>2024-09-01T08:07:24Z</time>
      </trkpt>
      <trkpt lat="47.0546" lon="6.02238">
        <ele>449.6</ele>
        <time>2024-09-01T08:07:25Z</time>
      </trkpt>
      <trkpt lat="47.05459" lon="6.02235">
        <ele>449.6</ele>
        <time>2024-09-01T08:07:26Z</time>
      </trkpt>
      <trkpt lat="47.05458" lon="6.02233">
        <ele>449.8</ele>
        <time>2024-09-01T08:07:27Z</time>
      </trkpt>
      <trkpt lat="47.05457" lon="6.0223">
        <ele>449.8</ele>
        <time>2024-09-01T08:07:28Z</time>
      </trkpt>
      <trkpt lat="47.05456" lon="6.02227">
        <ele>450</ele>
        <time>2024-09-01T08:07:29Z</time>
      </trkpt>
      <trkpt lat="47.05455" lon="6.02225">
        <ele>450.4</ele>
        <time>2024-09-01T08:07:30Z</time>
      </trkpt>
      <trkpt lat="47.05454" lon="6.02223">
        <ele>450.4</ele>
        <time>2024-09-01T08:07:31Z</time>
      </trkpt>
      <trkpt lat="47.05453" lon="6.02221">
        <ele>450.6</ele>
        <time>2024-09-01T08:07:32Z</time>
      </trkpt>
      <trkpt lat="47.05452" lon="6.02219">
        <ele>450.6</ele>
        <time>2024-09-01T08:07:33Z</time>
      </trkpt>
      <trkpt lat="47.05451" lon="6.02218">
        <ele>451</ele>
        <time>2024-09-01T08:07:34Z</time>
      </trkpt>
      <trkpt lat="47.0545" lon="6.02216">
        <ele>451</ele>
        <time>2024-09-01T08:07:35Z</time>
      </trkpt>
      <trkpt lat="47.05449" lon="6.02215">
        <ele>451</ele>
        <time>2024-09-01T08:07:36Z</time>
      </trkpt>
      <trkpt lat="47.05448" lon="6.02213">
        <ele>451.2</ele>
        <time>2024-09-01T08:07:37Z</time>
      </trkpt>
      <trkpt lat="47.05447" lon="6.02211">
        <ele>451.4</ele>
        <time>2024-09-01T08:07:38Z</time>
      </trkpt>
      <trkpt lat="47.05446" lon="6.02209">
        <ele>451.8</ele>
        <time>2024-09-01T08:07:39Z</time>
      </trkpt>
      <trkpt lat="47.05445" lon="6.02207">
        <ele>451.8</ele>
        <time>2024-09-01T08:07:40Z</time>
      </trkpt>
      <trkpt lat="47.05443" lon="6.02205">
        <ele>452</ele>
        <time>2024-09-01T08:07:41Z</time>
      </trkpt>
      <trkpt lat="47.05442" lon="6.02203">
        <ele>452</ele>
        <time>2024-09-01T08:07:42Z</time>
      </trkpt>
      <trkpt lat="47.05441" lon="6.02201">
        <ele>452.2</ele>
        <time>2024-09-01T08:07:43Z</time>
      </trkpt>
      <trkpt lat="47.0544" lon="6.022">
        <ele>452.6</ele>
        <time>2024-09-01T08:07:44Z</time>
      </trkpt>
      <trkpt lat="47.05439" lon="6.02198">
        <ele>452.6</ele>
        <time>2024-09-01T08:07:45Z</time>
      </trkpt>
      <trkpt lat="47.05437" lon="6.02197">
        <ele>453</ele>
        <time>2024-09-01T08:07:46Z</time>
      </trkpt>
      <trkpt lat="47.05436" lon="6.02195">
        <ele>453</ele>
        <time>2024-09-01T08:07:47Z</time>
      </trkpt>
      <trkpt lat="47.05434" lon="6.02193">
        <ele>453</ele>
        <time>2024-09-01T08:07:48Z</time>
      </trkpt>
      <trkpt lat="47.05433" lon="6.02192">
        <ele>453.4</ele>
        <time>2024-09-01T08:07:49Z</time>
      </trkpt>
      <trkpt lat="47.05433" lon="6.02189">
        <ele>453.8</ele>
        <time>2024-09-01T08:07:50Z</time>
      </trkpt>
      <trkpt lat="47.05432" lon="6.02186">
        <ele>453.8</ele>
        <time>2024-09-01T08:07:51Z</time>
      </trkpt>
      <trkpt lat="47.0543" lon="6.02184">
        <ele>454.2</ele>
        <time>2024-09-01T08:07:52Z</time>
      </trkpt>
      <trkpt lat="47.0543" lon="6.02182">
        <ele>454.2</ele>
        <time>2024-09-01T08:07:53Z</time>
      </trkpt>
      <trkpt lat="47.05429" lon="6.02181">
        <ele>454.4</ele>
        <time>2024-09-01T08:07:54Z</time>
      </trkpt>
      <trkpt lat="47.05428" lon="6.0218">
        <ele>454.6</ele>
        <time>2024-09-01T08:07:55Z</time>
      </trkpt>
      <trkpt lat="47.05426" lon="6.02178">
        <ele>454.8</ele>
        <time>2024-09-01T08:07:56Z</time>
      </trkpt>
      <trkpt lat="47.05426" lon="6.02177">
        <ele>454.8</ele>
        <time>2024-09-01T08:07:57Z</time>
      </trkpt>
      <trkpt lat="47.05425" lon="6.02175">
        <ele>454.8</ele>
        <time>2024-09-01T08:07:58Z</time>
      </trkpt>
      <trkpt lat="47.05424" lon="6.02173">
        <ele>455</ele>
        <time>2024-09-01T08:07:59Z</time>
      </trkpt>
      <trkpt lat="47.05424" lon="6.0217">
        <ele>455.2</ele>
        <time>2024-09-01T08:08:00Z</time>
      </trkpt>
      <trkpt lat="47.05423" lon="6.02169">
        <ele>455</ele>
        <time>2024-09-01T08:08:01Z</time>
      </trkpt>
      <trkpt lat="47.05422" lon="6.02166">
        <ele>455.2</ele>
        <time>2024-09-01T08:08:02Z</time>
      </trkpt>
      <trkpt lat="47.05422" lon="6.02164">
        <ele>455.4</ele>
        <time>2024-09-01T08:08:03Z</time>
      </trkpt>
      <trkpt lat="47.05421" lon="6.02162">
        <ele>455.4</ele>
        <time>2024-09-01T08:08:04Z</time>
      </trkpt>
      <trkpt lat="47.0542" lon="6.0216">
        <ele>455.4</ele>
        <time>2024-09-01T08:08:05Z</time>
      </trkpt>
      <trkpt lat="47.05419" lon="6.02157">
        <ele>455.6</ele>
        <time>2024-09-01T08:08:06Z</time>
      </trkpt>
      <trkpt lat="47.05418" lon="6.02155">
        <ele>455.8</ele>
        <time>2024-09-01T08:08:07Z</time>
      </trkpt>
      <trkpt lat="47.05417" lon="6.02153">
        <ele>455.8</ele>
        <time>2024-09-01T08:08:08Z</time>
      </trkpt>
      <trkpt lat="47.05416" lon="6.02151">
        <ele>456</ele>
        <time>2024-09-01T08:08:09Z</time>
      </trkpt>
      <trkpt lat="47.05415" lon="6.0215">
        <ele>456.4</ele>
        <time>2024-09-01T08:08:10Z</time>
      </trkpt>
      <trkpt lat="47.05415" lon="6.02148">
        <ele>456.4</ele>
        <time>2024-09-01T08:08:11Z</time>
      </trkpt>
      <trkpt lat="47.05415" lon="6.02146">
        <ele>456.6</ele>
        <time>2024-09-01T08:08:12Z</time>
      </trkpt>
      <trkpt lat="47.05415" lon="6.02144">
        <ele>456.6</ele>
        <time>2024-09-01T08:08:13Z</time>
      </trkpt>
      <trkpt lat="47.05414" lon="6.02142">
        <ele>456.6</ele>
        <time>2024-09-01T08:08:14Z</time>
      </trkpt>
      <trkpt lat="47.05413" lon="6.0214">
        <ele>457</ele>
        <time>2024-09-01T08:08:15Z</time>
      </trkpt>
      <trkpt lat="47.05412" lon="6.02138">
        <ele>457.2</ele>
        <time>2024-09-01T08:08:16Z</time>
      </trkpt>
      <trkpt lat="47.05412" lon="6.02135">
        <ele>457.4</ele>
        <time>2024-09-01T08:08:17Z</time>
      </trkpt>
      <trkpt lat="47.05411" lon="6.02133">
        <ele>457.6</ele>
        <time>2024-09-01T08:08:18Z</time>
      </trkpt>
      <trkpt lat="47.0541" lon="6.02132">
        <ele>457.8</ele>
        <time>2024-09-01T08:08:19Z</time>
      </trkpt>
      <trkpt lat="47.0541" lon="6.0213">
        <ele>458</ele>
        <time>2024-09-01T08:08:20Z</time>
      </trkpt>
      <trkpt lat="47.0541" lon="6.02129">
        <ele>458.2</ele>
        <time>2024-09-01T08:08:21Z</time>
      </trkpt>
      <trkpt lat="47.0541" lon="6.02128">
        <ele>458.6</ele>
        <time>2024-09-01T08:08:22Z</time>
      </trkpt>
      <trkpt lat="47.05409" lon="6.02126">
        <ele>458.8</ele>
        <time>2024-09-01T08:08:23Z</time>
      </trkpt>
      <trkpt lat="47.05409" lon="6.02125">
        <ele>459</ele>
        <time>2024-09-01T08:08:24Z</time>
      </trkpt>
      <trkpt lat="47.05409" lon="6.02124">
        <ele>459</ele>
        <time>2024-09-01T08:08:25Z</time>
      </trkpt>
      <trkpt lat="47.05409" lon="6.02123">
        <ele>459.2</ele>
        <time>2024-09-01T08:08:26Z</time>
      </trkpt>
      <trkpt lat="47.05409" lon="6.02122">
        <ele>459.2</ele>
        <time>2024-09-01T08:08:27Z</time>
      </trkpt>
      <trkpt lat="47.05409" lon="6.0212">
        <ele>459.4</ele>
        <time>2024-09-01T08:08:28Z</time>
      </trkpt>
      <trkpt lat="47.05408" lon="6.02118">
        <ele>459.6</ele>
        <time>2024-09-01T08:08:29Z</time>
      </trkpt>
      <trkpt lat="47.05407" lon="6.02117">
        <ele>459.8</ele>
        <time>2024-09-01T08:08:30Z</time>
      </trkpt>
      <trkpt lat="47.05407" lon="6.02115">
        <ele>459.8</ele>
        <time>2024-09-01T08:08:31Z</time>
      </trkpt>
      <trkpt lat="47.05406" lon="6.02113">
        <ele>460</ele>
        <time>2024-09-01T08:08:32Z</time>
      </trkpt>
      <trkpt lat="47.05406" lon="6.02111">
        <ele>460</ele>
        <time>2024-09-01T08:08:33Z</time>
      </trkpt>
      <trkpt lat="47.05406" lon="6.02109">
        <ele>460.2</ele>
        <time>2024-09-01T08:08:34Z</time>
      </trkpt>
      <trkpt lat="47.05405" lon="6.02108">
        <ele>460.4</ele>
        <time>2024-09-01T08:08:35Z</time>
      </trkpt>
      <trkpt lat="47.05405" lon="6.02106">
        <ele>460.4</ele>
        <time>2024-09-01T08:08:36Z</time>
      </trkpt>
      <trkpt lat="47.05405" lon="6.02105">
        <ele>460.6</ele>
        <time>2024-09-01T08:08:37Z</time>
      </trkpt>
      <trkpt lat="47.05404" lon="6.02103">
        <ele>460.6</ele>
        <time>2024-09-01T08:08:38Z</time>
      </trkpt>
      <trkpt lat="47.05403" lon="6.02101">
        <ele>460.8</ele>
        <time>2024-09-01T08:08:39Z</time>
      </trkpt>
      <trkpt lat="47.05402" lon="6.021">
        <ele>461</ele>
        <time>2024-09-01T08:08:40Z</time>
      </trkpt>
      <trkpt lat="47.05402" lon="6.02098">
        <ele>461.4</ele>
        <time>2024-09-01T08:08:41Z</time>
      </trkpt>
      <trkpt lat="47.05401" lon="6.02097">
        <ele>461.4</ele>
        <time>2024-09-01T08:08:42Z</time>
      </trkpt>
      <trkpt lat="47.054" lon="6.02095">
        <ele>461.8</ele>
        <time>2024-09-01T08:08:43Z</time>
      </trkpt>
      <trkpt lat="47.05399" lon="6.02094">
        <ele>461.8</ele>
        <time>2024-09-01T08:08:44Z</time>
      </trkpt>
      <trkpt lat="47.05399" lon="6.02092">
        <ele>461.8</ele>
        <time>2024-09-01T08:08:45Z</time>
      </trkpt>
      <trkpt lat="47.05398" lon="6.02091">
        <ele>462</ele>
        <time>2024-09-01T08:08:46Z</time>
      </trkpt>
      <trkpt lat="47.05397" lon="6.02089">
        <ele>462</ele>
        <time>2024-09-01T08:08:47Z</time>
      </trkpt>
      <trkpt lat="47.05396" lon="6.02088">
        <ele>462.4</ele>
        <time>2024-09-01T08:08:48Z</time>
      </trkpt>
      <trkpt lat="47.05395" lon="6.02086">
        <ele>462.6</ele>
        <time>2024-09-01T08:08:49Z</time>
      </trkpt>
      <trkpt lat="47.05394" lon="6.02084">
        <ele>462.8</ele>
        <time>2024-09-01T08:08:50Z</time>
      </trkpt>
      <trkpt lat="47.05394" lon="6.02082">
        <ele>462.8</ele>
        <time>2024-09-01T08:08:51Z</time>
      </trkpt>
      <trkpt lat="47.05393" lon="6.02081">
        <ele>463</ele>
        <time>2024-09-01T08:08:52Z</time>
      </trkpt>
      <trkpt lat="47.05393" lon="6.02079">
        <ele>463.4</ele>
        <time>2024-09-01T08:08:53Z</time>
      </trkpt>
      <trkpt lat="47.05392" lon="6.02077">
        <ele>463.4</ele>
        <time>2024-09-01T08:08:54Z</time>
      </trkpt>
      <trkpt lat="47.05392" lon="6.02075">
        <ele>463.8</ele>
        <time>2024-09-01T08:08:55Z</time>
      </trkpt>
      <trkpt lat="47.05391" lon="6.02074">
        <ele>464</ele>
        <time>2024-09-01T08:08:56Z</time>
      </trkpt>
      <trkpt lat="47.0539" lon="6.02072">
        <ele>464.2</ele>
        <time>2024-09-01T08:08:57Z</time>
      </trkpt>
      <trkpt lat="47.0539" lon="6.02071">
        <ele>464.4</ele>
        <time>2024-09-01T08:08:58Z</time>
      </trkpt>
      <trkpt lat="47.0539" lon="6.02069">
        <ele>464.6</ele>
        <time>2024-09-01T08:08:59Z</time>
      </trkpt>
      <trkpt lat="47.05389" lon="6.02067">
        <ele>464.8</ele>
        <time>2024-09-01T08:09:00Z</time>
      </trkpt>
      <trkpt lat="47.05388" lon="6.02065">
        <ele>465</ele>
        <time>2024-09-01T08:09:01Z</time>
      </trkpt>
      <trkpt lat="47.05388" lon="6.02064">
        <ele>465.6</ele>
        <time>2024-09-01T08:09:02Z</time>
      </trkpt>
      <trkpt lat="47.05386" lon="6.02062">
        <ele>466</ele>
        <time>2024-09-01T08:09:03Z</time>
      </trkpt>
      <trkpt lat="47.05386" lon="6.02061">
        <ele>466.2</ele>
        <time>2024-09-01T08:09:04Z</time>
      </trkpt>
      <trkpt lat="47.05385" lon="6.02059">
        <ele>466.6</ele>
        <time>2024-09-01T08:09:05Z</time>
      </trkpt>
      <trkpt lat="47.05384" lon="6.02057">
        <ele>466.8</ele>
        <time>2024-09-01T08:09:06Z</time>
      </trkpt>
      <trkpt lat="47.05384" lon="6.02055">
        <ele>466.8</ele>
        <time>2024-09-01T08:09:07Z</time>
      </trkpt>
      <trkpt lat="47.05383" lon="6.02054">
        <ele>467.2</ele>
        <time>2024-09-01T08:09:08Z</time>
      </trkpt>
      <trkpt lat="47.05382" lon="6.02052">
        <ele>467.4</ele>
        <time>2024-09-01T08:09:09Z</time>
      </trkpt>
      <trkpt lat="47.05381" lon="6.02051">
        <ele>467.8</ele>
        <time>2024-09-01T08:09:10Z</time>
      </trkpt>
      <trkpt lat="47.0538" lon="6.02049">
        <ele>468</ele>
        <time>2024-09-01T08:09:11Z</time>
      </trkpt>
      <trkpt lat="47.0538" lon="6.02047">
        <ele>468.4</ele>
        <time>2024-09-01T08:09:12Z</time>
      </trkpt>
      <trkpt lat="47.05379" lon="6.02045">
        <ele>468.4</ele>
        <time>2024-09-01T08:09:13Z</time>
      </trkpt>
      <trkpt lat="47.05379" lon="6.02043">
        <ele>468.6</ele>
        <time>2024-09-01T08:09:14Z</time>
      </trkpt>
      <trkpt lat="47.05379" lon="6.02041">
        <ele>469</ele>
        <time>2024-09-01T08:09:15Z</time>
      </trkpt>
      <trkpt lat="47.05378" lon="6.0204">
        <ele>469</ele>
        <time>2024-09-01T08:09:16Z</time>
      </trkpt>
      <trkpt lat="47.05377" lon="6.02038">
        <ele>469.4</ele>
        <time>2024-09-01T08:09:17Z</time>
      </trkpt>
      <trkpt lat="47.05377" lon="6.02036">
        <ele>469.4</ele>
        <time>2024-09-01T08:09:18Z</time>
      </trkpt>
      <trkpt lat="47.05376" lon="6.02035">
        <ele>469.6</ele>
        <time>2024-09-01T08:09:19Z</time>
      </trkpt>
      <trkpt lat="47.05376" lon="6.02034">
        <ele>469.8</ele>
        <time>2024-09-01T08:09:20Z</time>
      </trkpt>
      <trkpt lat="47.05376" lon="6.02033">
        <ele>470.2</ele>
        <time>2024-09-01T08:09:21Z</time>
      </trkpt>
      <trkpt lat="47.05377" lon="6.02033">
        <ele>470.4</ele>
        <time>2024-09-01T08:09:22Z</time>
      </trkpt>
      <trkpt lat="47.05377" lon="6.02031">
        <ele>470.4</ele>
        <time>2024-09-01T08:09:23Z</time>
      </trkpt>
      <trkpt lat="47.05377" lon="6.02031">
        <ele>470.8</ele>
        <time>2024-09-01T08:09:24Z</time>
      </trkpt>
      <trkpt lat="47.05377" lon="6.02031">
        <ele>471</ele>
        <time>2024-09-01T08:09:25Z</time>
      </trkpt>
      <trkpt lat="47.05378" lon="6.0203">
        <ele>471.2</ele>
        <time>2024-09-01T08:09:26Z</time>
      </trkpt>
      <trkpt lat="47.05378" lon="6.0203">
        <ele>471.4</ele>
        <time>2024-09-01T08:09:27Z</time>
      </trkpt>
      <trkpt lat="47.05378" lon="6.0203">
        <ele>471.4</ele>
        <time>2024-09-01T08:09:28Z</time>
      </trkpt>
      <trkpt lat="47.05378" lon="6.02029">
        <ele>471.4</ele>
        <time>2024-09-01T08:09:29Z</time>
      </trkpt>
      <trkpt lat="47.05378" lon="6.02029">
        <ele>471.6</ele>
        <time>2024-09-01T08:09:30Z</time>
      </trkpt>
      <trkpt lat="47.05378" lon="6.02028">
        <ele>471.6</ele>
        <time>2024-09-01T08:09:31Z</time>
      </trkpt>
      <trkpt lat="47.05377" lon="6.02028">
        <ele>471.6</ele>
        <time>2024-09-01T08:09:32Z</time>
      </trkpt>
      <trkpt lat="47.05377" lon="6.02027">
        <ele>471.6</ele>
        <time>2024-09-01T08:09:33Z</time>
      </trkpt>
      <trkpt lat="47.05377" lon="6.02026">
        <ele>471.8</ele>
        <time>2024-09-01T08:09:34Z</time>
      </trkpt>
      <trkpt lat="47.05377" lon="6.02025">
        <ele>472</ele>
        <time>2024-09-01T08:09:35Z</time>
      </trkpt>
      <trkpt lat="47.05377" lon="6.02025">
        <ele>472</ele>
        <time>2024-09-01T08:09:36Z</time>
      </trkpt>
      <trkpt lat="47.05377" lon="6.02024">
        <ele>472</ele>
        <time>2024-09-01T08:09:37Z</time>
      </trkpt>
      <trkpt lat="47.05378" lon="6.02024">
        <ele>472</ele>
        <time>2024-09-01T08:09:38Z</time>
      </trkpt>
      <trkpt lat="47.05378" lon="6.02023">
        <ele>472.4</ele>
        <time>2024-09-01T08:09:39Z</time>
      </trkpt>
      <trkpt lat="47.05378" lon="6.02022">
        <ele>472.2</ele>
        <time>2024-09-01T08:09:40Z</time>
      </trkpt>
      <trkpt lat="47.05379" lon="6.02021">
        <ele>472.2</ele>
        <time>2024-09-01T08:09:41Z</time>
      </trkpt>
      <trkpt lat="47.05379" lon="6.02021">
        <ele>472.6</ele>
        <time>2024-09-01T08:09:42Z</time>
      </trkpt>
      <trkpt lat="47.05379" lon="6.02021">
        <ele>472.6</ele>
        <time>2024-09-01T08:09:43Z</time>
      </trkpt>
      <trkpt lat="47.0538" lon="6.02021">
        <ele>472.8</ele>
        <time>2024-09-01T08:09:44Z</time>
      </trkpt>
      <trkpt lat="47.0538" lon="6.0202">
        <ele>472.8</ele>
        <time>2024-09-01T08:09:45Z</time>
      </trkpt>
      <trkpt lat="47.0538" lon="6.0202">
        <ele>473</ele>
        <time>2024-09-01T08:09:46Z</time>
      </trkpt>
      <trkpt lat="47.0538" lon="6.0202">
        <ele>473.2</ele>
        <time>2024-09-01T08:09:47Z</time>
      </trkpt>
      <trkpt lat="47.05381" lon="6.02021">
        <ele>473.2</ele>
        <time>2024-09-01T08:09:48Z</time>
      </trkpt>
      <trkpt lat="47.05381" lon="6.02021">
        <ele>473.2</ele>
        <time>2024-09-01T08:09:49Z</time>
      </trkpt>
      <trkpt lat="47.0538" lon="6.02021">
        <ele>473.4</ele>
        <time>2024-09-01T08:09:50Z</time>
      </trkpt>
      <trkpt lat="47.0538" lon="6.0202">
        <ele>473.6</ele>
        <time>2024-09-01T08:09:51Z</time>
      </trkpt>
      <trkpt lat="47.0538" lon="6.0202">
        <ele>473.6</ele>
        <time>2024-09-01T08:09:52Z</time>
      </trkpt>
      <trkpt lat="47.0538" lon="6.02019">
        <ele>473.8</ele>
        <time>2024-09-01T08:09:53Z</time>
      </trkpt>
      <trkpt lat="47.0538" lon="6.02019">
        <ele>473.8</ele>
        <time>2024-09-01T08:09:54Z</time>
      </trkpt>
      <trkpt lat="47.0538" lon="6.02019">
        <ele>474</ele>
        <time>2024-09-01T08:09:55Z</time>
      </trkpt>
      <trkpt lat="47.0538" lon="6.02019">
        <ele>474</ele>
        <time>2024-09-01T08:09:56Z</time>
      </trkpt>
      <trkpt lat="47.0538" lon="6.02018">
        <ele>474.2</ele>
        <time>2024-09-01T08:09:57Z</time>
      </trkpt>
      <trkpt lat="47.0538" lon="6.02019">
        <ele>474.4</ele>
        <time>2024-09-01T08:09:58Z</time>
      </trkpt>
      <trkpt lat="47.05379" lon="6.02019">
        <ele>474.6</ele>
        <time>2024-09-01T08:09:59Z</time>
      </trkpt>
      <trkpt lat="47.05379" lon="6.02018">
        <ele>474.8</ele>
        <time>2024-09-01T08:10:00Z</time>
      </trkpt>
      <trkpt lat="47.05378" lon="6.02018">
        <ele>474.8</ele>
        <time>2024-09-01T08:10:01Z</time>
      </trkpt>
      <trkpt lat="47.05378" lon="6.02018">
        <ele>475</ele>
        <time>2024-09-01T08:10:02Z</time>
      </trkpt>
      <trkpt lat="47.05377" lon="6.02018">
        <ele>475</ele>
        <time>2024-09-01T08:10:03Z</time>
      </trkpt>
      <trkpt lat="47.05377" lon="6.02017">
        <ele>475.2</ele>
        <time>2024-09-01T08:10:04Z</time>
      </trkpt>
      <trkpt lat="47.05377" lon="6.02016">
        <ele>475.4</ele>
        <time>2024-09-01T08:10:05Z</time>
      </trkpt>
      <trkpt lat="47.05377" lon="6.02015">
        <ele>475.4</ele>
        <time>2024-09-01T08:10:06Z</time>
      </trkpt>
      <trkpt lat="47.05377" lon="6.02014">
        <ele>475.6</ele>
        <time>2024-09-01T08:10:07Z</time>
      </trkpt>
      <trkpt lat="47.05376" lon="6.02013">
        <ele>475.6</ele>
        <time>2024-09-01T08:10:08Z</time>
      </trkpt>
      <trkpt lat="47.05376" lon="6.02012">
        <ele>475.8</ele>
        <time>2024-09-01T08:10:09Z</time>
      </trkpt>
      <trkpt lat="47.05376" lon="6.02011">
        <ele>475.8</ele>
        <time>2024-09-01T08:10:10Z</time>
      </trkpt>
      <trkpt lat="47.05375" lon="6.0201">
        <ele>476</ele>
        <time>2024-09-01T08:10:11Z</time>
      </trkpt>
      <trkpt lat="47.05375" lon="6.02009">
        <ele>476</ele>
        <time>2024-09-01T08:10:12Z</time>
      </trkpt>
      <trkpt lat="47.05374" lon="6.02008">
        <ele>476</ele>
        <time>2024-09-01T08:10:13Z</time>
      </trkpt>
      <trkpt lat="47.05374" lon="6.02007">
        <ele>476.2</ele>
        <time>2024-09-01T08:10:14Z</time>
      </trkpt>
      <trkpt lat="47.05374" lon="6.02006">
        <ele>476.2</ele>
        <time>2024-09-01T08:10:15Z</time>
      </trkpt>
      <trkpt lat="47.05373" lon="6.02005">
        <ele>476.4</ele>
        <time>2024-09-01T08:10:16Z</time>
      </trkpt>
      <trkpt lat="47.05373" lon="6.02005">
        <ele>476.6</ele>
        <time>2024-09-01T08:10:17Z</time>
      </trkpt>
      <trkpt lat="47.05373" lon="6.02004">
        <ele>476.6</ele>
        <time>2024-09-01T08:10:18Z</time>
      </trkpt>
      <trkpt lat="47.05373" lon="6.02003">
        <ele>476.8</ele>
        <time>2024-09-01T08:10:19Z</time>
      </trkpt>
      <trkpt lat="47.05373" lon="6.02003">
        <ele>477</ele>
        <time>2024-09-01T08:10:20Z</time>
      </trkpt>
      <trkpt lat="47.05373" lon="6.02002">
        <ele>477</ele>
        <time>2024-09-01T08:10:21Z</time>
      </trkpt>
      <trkpt lat="47.05372" lon="6.02002">
        <ele>477</ele>
        <time>2024-09-01T08:10:22Z</time>
      </trkpt>
      <trkpt lat="47.05372" lon="6.02001">
        <ele>477.2</ele>
        <time>2024-09-01T08:10:23Z</time>
      </trkpt>
      <trkpt lat="47.05372" lon="6.02001">
        <ele>477.4</ele>
        <time>2024-09-01T08:10:24Z</time>
      </trkpt>
      <trkpt lat="47.05372" lon="6.02">
        <ele>477.4</ele>
        <time>2024-09-01T08:10:25Z</time>
      </trkpt>
      <trkpt lat="47.05371" lon="6.01999">
        <ele>477.6</ele>
        <time>2024-09-01T08:10:26Z</time>
      </trkpt>
      <trkpt lat="47.05371" lon="6.01997">
        <ele>477.6</ele>
        <time>2024-09-01T08:10:27Z</time>
      </trkpt>
      <trkpt lat="47.0537" lon="6.01996">
        <ele>477.8</ele>
        <time>2024-09-01T08:10:28Z</time>
      </trkpt>
      <trkpt lat="47.0537" lon="6.01995">
        <ele>477.8</ele>
        <time>2024-09-01T08:10:29Z</time>
      </trkpt>
      <trkpt lat="47.0537" lon="6.01994">
        <ele>478</ele>
        <time>2024-09-01T08:10:30Z</time>
      </trkpt>
      <trkpt lat="47.05369" lon="6.01992">
        <ele>478</ele>
        <time>2024-09-01T08:10:31Z</time>
      </trkpt>
      <trkpt lat="47.05369" lon="6.01991">
        <ele>478</ele>
        <time>2024-09-01T08:10:32Z</time>
      </trkpt>
      <trkpt lat="47.05369" lon="6.0199">
        <ele>478.2</ele>
        <time>2024-09-01T08:10:33Z</time>
      </trkpt>
      <trkpt lat="47.05368" lon="6.01989">
        <ele>478.4</ele>
        <time>2024-09-01T08:10:34Z</time>
      </trkpt>
      <trkpt lat="47.05367" lon="6.01989">
        <ele>478.6</ele>
        <time>2024-09-01T08:10:35Z</time>
      </trkpt>
      <trkpt lat="47.05367" lon="6.01988">
        <ele>478.8</ele>
        <time>2024-09-01T08:10:36Z</time>
      </trkpt>
      <trkpt lat="47.05366" lon="6.01987">
        <ele>478.8</ele>
        <time>2024-09-01T08:10:37Z</time>
      </trkpt>
      <trkpt lat="47.05366" lon="6.01986">
        <ele>479</ele>
        <time>2024-09-01T08:10:38Z</time>
      </trkpt>
      <trkpt lat="47.05366" lon="6.01985">
        <ele>479</ele>
        <time>2024-09-01T08:10:39Z</time>
      </trkpt>
      <trkpt lat="47.05366" lon="6.01984">
        <ele>479</ele>
        <time>2024-09-01T08:10:40Z</time>
      </trkpt>
      <trkpt lat="47.05365" lon="6.01983">
        <ele>479.2</ele>
        <time>2024-09-01T08:10:41Z</time>
      </trkpt>
      <trkpt lat="47.05365" lon="6.01983">
        <ele>479.6</ele>
        <time>2024-09-01T08:10:42Z</time>
      </trkpt>
      <trkpt lat="47.05365" lon="6.01982">
        <ele>479.6</ele>
        <time>2024-09-01T08:10:43Z</time>
      </trkpt>
      <trkpt lat="47.05365" lon="6.01982">
        <ele>479.8</ele>
        <time>2024-09-01T08:10:44Z</time>
      </trkpt>
      <trkpt lat="47.05365" lon="6.01981">
        <ele>479.8</ele>
        <time>2024-09-01T08:10:45Z</time>
      </trkpt>
      <trkpt lat="47.05365" lon="6.0198">
        <ele>480</ele>
        <time>2024-09-01T08:10:46Z</time>
      </trkpt>
      <trkpt lat="47.05365" lon="6.01979">
        <ele>480.4</ele>
        <time>2024-09-01T08:10:47Z</time>
      </trkpt>
      <trkpt lat="47.05365" lon="6.01978">
        <ele>480.4</ele>
        <time>2024-09-01T08:10:48Z</time>
      </trkpt>
      <trkpt lat="47.05365" lon="6.01977">
        <ele>480.2</ele>
        <time>2024-09-01T08:10:49Z</time>
      </trkpt>
      <trkpt lat="47.05366" lon="6.01976">
        <ele>480.4</ele>
        <time>2024-09-01T08:10:50Z</time>
      </trkpt>
      <trkpt lat="47.05366" lon="6.01976">
        <ele>480.6</ele>
        <time>2024-09-01T08:10:51Z</time>
      </trkpt>
      <trkpt lat="47.05366" lon="6.01975">
        <ele>480.8</ele>
        <time>2024-09-01T08:10:52Z</time>
      </trkpt>
      <trkpt lat="47.05366" lon="6.01975">
        <ele>480.8</ele>
        <time>2024-09-01T08:10:53Z</time>
      </trkpt>
      <trkpt lat="47.05366" lon="6.01976">
        <ele>481.2</ele>
        <time>2024-09-01T08:10:54Z</time>
      </trkpt>
      <trkpt lat="47.05366" lon="6.01976">
        <ele>481.2</ele>
        <time>2024-09-01T08:10:55Z</time>
      </trkpt>
      <trkpt lat="47.05366" lon="6.01977">
        <ele>481.4</ele>
        <time>2024-09-01T08:10:56Z</time>
      </trkpt>
      <trkpt lat="47.05366" lon="6.01977">
        <ele>481.6</ele>
        <time>2024-09-01T08:10:57Z</time>
      </trkpt>
      <trkpt lat="47.05365" lon="6.01977">
        <ele>481.8</ele>
        <time>2024-09-01T08:10:58Z</time>
      </trkpt>
      <trkpt lat="47.05366" lon="6.01977">
        <ele>482</ele>
        <time>2024-09-01T08:10:59Z</time>
      </trkpt>
      <trkpt lat="47.05366" lon="6.01977">
        <ele>482</ele>
        <time>2024-09-01T08:11:00Z</time>
      </trkpt>
      <trkpt lat="47.05366" lon="6.01977">
        <ele>482</ele>
        <time>2024-09-01T08:11:01Z</time>
      </trkpt>
      <trkpt lat="47.05366" lon="6.01977">
        <ele>482</ele>
        <time>2024-09-01T08:11:02Z</time>
      </trkpt>
      <trkpt lat="47.05366" lon="6.01977">
        <ele>482</ele>
        <time>2024-09-01T08:11:03Z</time>
      </trkpt>
      <trkpt lat="47.05365" lon="6.01977">
        <ele>482.2</ele>
        <time>2024-09-01T08:11:04Z</time>
      </trkpt>
      <trkpt lat="47.05365" lon="6.01976">
        <ele>482.2</ele>
        <time>2024-09-01T08:11:05Z</time>
      </trkpt>
      <trkpt lat="47.05365" lon="6.01975">
        <ele>482.2</ele>
        <time>2024-09-01T08:11:06Z</time>
      </trkpt>
      <trkpt lat="47.05364" lon="6.01974">
        <ele>482</ele>
        <time>2024-09-01T08:11:07Z</time>
      </trkpt>
      <trkpt lat="47.05364" lon="6.01973">
        <ele>482.2</ele>
        <time>2024-09-01T08:11:08Z</time>
      </trkpt>
      <trkpt lat="47.05364" lon="6.01971">
        <ele>482.2</ele>
        <time>2024-09-01T08:11:09Z</time>
      </trkpt>
      <trkpt lat="47.05364" lon="6.0197">
        <ele>482.2</ele>
        <time>2024-09-01T08:11:10Z</time>
      </trkpt>
      <trkpt lat="47.05363" lon="6.01969">
        <ele>482.2</ele>
        <time>2024-09-01T08:11:11Z</time>
      </trkpt>
      <trkpt lat="47.05363" lon="6.01967">
        <ele>482.2</ele>
        <time>2024-09-01T08:11:12Z</time>
      </trkpt>
      <trkpt lat="47.05362" lon="6.01966">
        <ele>482.2</ele>
        <time>2024-09-01T08:11:13Z</time>
      </trkpt>
      <trkpt lat="47.05362" lon="6.01964">
        <ele>482.4</ele>
        <time>2024-09-01T08:11:14Z</time>
      </trkpt>
      <trkpt lat="47.05361" lon="6.01963">
        <ele>482.4</ele>
        <time>2024-09-01T08:11:15Z</time>
      </trkpt>
      <trkpt lat="47.05361" lon="6.01961">
        <ele>482.6</ele>
        <time>2024-09-01T08:11:16Z</time>
      </trkpt>
      <trkpt lat="47.0536" lon="6.0196">
        <ele>482.8</ele>
        <time>2024-09-01T08:11:17Z</time>
      </trkpt>
      <trkpt lat="47.0536" lon="6.01958">
        <ele>482.8</ele>
        <time>2024-09-01T08:11:18Z</time>
      </trkpt>
      <trkpt lat="47.0536" lon="6.01956">
        <ele>482.8</ele>
        <time>2024-09-01T08:11:19Z</time>
      </trkpt>
      <trkpt lat="47.0536" lon="6.01954">
        <ele>483.2</ele>
        <time>2024-09-01T08:11:20Z</time>
      </trkpt>
      <trkpt lat="47.0536" lon="6.01952">
        <ele>483.2</ele>
        <time>2024-09-01T08:11:21Z</time>
      </trkpt>
      <trkpt lat="47.05359" lon="6.01951">
        <ele>483.4</ele>
        <time>2024-09-01T08:11:22Z</time>
      </trkpt>
      <trkpt lat="47.05359" lon="6.0195">
        <ele>483.6</ele>
        <time>2024-09-01T08:11:23Z</time>
      </trkpt>
      <trkpt lat="47.05359" lon="6.01948">
        <ele>483.8</ele>
        <time>2024-09-01T08:11:24Z</time>
      </trkpt>
      <trkpt lat="47.05359" lon="6.01947">
        <ele>483.8</ele>
        <time>2024-09-01T08:11:25Z</time>
      </trkpt>
      <trkpt lat="47.05358" lon="6.01946">
        <ele>484</ele>
        <time>2024-09-01T08:11:26Z</time>
      </trkpt>
      <trkpt lat="47.05358" lon="6.01945">
        <ele>484</ele>
        <time>2024-09-01T08:11:27Z</time>
      </trkpt>
      <trkpt lat="47.05358" lon="6.01944">
        <ele>484.2</ele>
        <time>2024-09-01T08:11:28Z</time>
      </trkpt>
      <trkpt lat="47.05358" lon="6.01943">
        <ele>484.6</ele>
        <time>2024-09-01T08:11:29Z</time>
      </trkpt>
      <trkpt lat="47.05358" lon="6.01942">
        <ele>484.6</ele>
        <time>2024-09-01T08:11:30Z</time>
      </trkpt>
      <trkpt lat="47.05358" lon="6.01941">
        <ele>484.8</ele>
        <time>2024-09-01T08:11:31Z</time>
      </trkpt>
      <trkpt lat="47.05358" lon="6.0194">
        <ele>484.6</ele>
        <time>2024-09-01T08:11:32Z</time>
      </trkpt>
      <trkpt lat="47.05358" lon="6.0194">
        <ele>484.8</ele>
        <time>2024-09-01T08:11:33Z</time>
      </trkpt>
      <trkpt lat="47.05358" lon="6.01939">
        <ele>485</ele>
        <time>2024-09-01T08:11:34Z</time>
      </trkpt>
      <trkpt lat="47.05358" lon="6.01939">
        <ele>485.2</ele>
        <time>2024-09-01T08:11:35Z</time>
      </trkpt>
      <trkpt lat="47.05357" lon="6.01938">
        <ele>485.4</ele>
        <time>2024-09-01T08:11:36Z</time>
      </trkpt>
      <trkpt lat="47.05357" lon="6.01937">
        <ele>485.4</ele>
        <time>2024-09-01T08:11:37Z</time>
      </trkpt>
      <trkpt lat="47.05357" lon="6.01937">
        <ele>485.6</ele>
        <time>2024-09-01T08:11:38Z</time>
      </trkpt>
      <trkpt lat="47.05357" lon="6.01936">
        <ele>485.6</ele>
        <time>2024-09-01T08:11:39Z</time>
      </trkpt>
      <trkpt lat="47.05357" lon="6.01936">
        <ele>485.4</ele>
        <time>2024-09-01T08:11:40Z</time>
      </trkpt>
      <trkpt lat="47.05357" lon="6.01936">
        <ele>485.4</ele>
        <time>2024-09-01T08:11:41Z</time>
      </trkpt>
      <trkpt lat="47.05357" lon="6.01936">
        <ele>485.6</ele>
        <time>2024-09-01T08:11:42Z</time>
      </trkpt>
      <trkpt lat="47.05357" lon="6.01936">
        <ele>485.4</ele>
        <time>2024-09-01T08:11:43Z</time>
      </trkpt>
      <trkpt lat="47.05357" lon="6.01936">
        <ele>485.4</ele>
        <time>2024-09-01T08:11:44Z</time>
      </trkpt>
      <trkpt lat="47.05356" lon="6.01936">
        <ele>485.6</ele>
        <time>2024-09-01T08:11:45Z</time>
      </trkpt>
      <trkpt lat="47.05356" lon="6.01936">
        <ele>485.4</ele>
        <time>2024-09-01T08:11:46Z</time>
      </trkpt>
      <trkpt lat="47.05356" lon="6.01936">
        <ele>485.4</ele>
        <time>2024-09-01T08:11:47Z</time>
      </trkpt>
      <trkpt lat="47.05356" lon="6.01936">
        <ele>485.4</ele>
        <time>2024-09-01T08:11:48Z</time>
      </trkpt>
      <trkpt lat="47.05356" lon="6.01936">
        <ele>485.4</ele>
        <time>2024-09-01T08:11:49Z</time>
      </trkpt>
      <trkpt lat="47.05356" lon="6.01936">
        <ele>485.4</ele>
        <time>2024-09-01T08:11:50Z</time>
      </trkpt>
      <trkpt lat="47.05356" lon="6.01935">
        <ele>485.4</ele>
        <time>2024-09-01T08:11:51Z</time>
      </trkpt>
      <trkpt lat="47.05356" lon="6.01934">
        <ele>485.4</ele>
        <time>2024-09-01T08:11:52Z</time>
      </trkpt>
      <trkpt lat="47.05355" lon="6.01934">
        <ele>485.2</ele>
        <time>2024-09-01T08:11:53Z</time>
      </trkpt>
      <trkpt lat="47.05355" lon="6.01934">
        <ele>485.4</ele>
        <time>2024-09-01T08:11:54Z</time>
      </trkpt>
      <trkpt lat="47.05355" lon="6.01933">
        <ele>485.2</ele>
        <time>2024-09-01T08:11:55Z</time>
      </trkpt>
      <trkpt lat="47.05355" lon="6.01933">
        <ele>485.4</ele>
        <time>2024-09-01T08:11:56Z</time>
      </trkpt>
      <trkpt lat="47.05355" lon="6.01933">
        <ele>485.4</ele>
        <time>2024-09-01T08:11:57Z</time>
      </trkpt>
      <trkpt lat="47.05354" lon="6.01933">
        <ele>485.4</ele>
        <time>2024-09-01T08:11:58Z</time>
      </trkpt>
      <trkpt lat="47.05355" lon="6.01933">
        <ele>485.2</ele>
        <time>2024-09-01T08:11:59Z</time>
      </trkpt>
      <trkpt lat="47.05355" lon="6.01933">
        <ele>485.2</ele>
        <time>2024-09-01T08:12:00Z</time>
      </trkpt>
      <trkpt lat="47.05355" lon="6.01932">
        <ele>485.2</ele>
        <time>2024-09-01T08:12:01Z</time>
      </trkpt>
      <trkpt lat="47.05355" lon="6.01932">
        <ele>485.2</ele>
        <time>2024-09-01T08:12:02Z</time>
      </trkpt>
      <trkpt lat="47.05355" lon="6.01932">
        <ele>485.2</ele>
        <time>2024-09-01T08:12:03Z</time>
      </trkpt>
      <trkpt lat="47.05355" lon="6.01932">
        <ele>485.4</ele>
        <time>2024-09-01T08:12:04Z</time>
      </trkpt>
      <trkpt lat="47.05355" lon="6.01931">
        <ele>485.4</ele>
        <time>2024-09-01T08:12:05Z</time>
      </trkpt>
      <trkpt lat="47.05355" lon="6.01931">
        <ele>485.4</ele>
        <time>2024-09-01T08:12:06Z</time>
      </trkpt>
      <trkpt lat="47.05356" lon="6.0193">
        <ele>485.4</ele>
        <time>2024-09-01T08:12:07Z</time>
      </trkpt>
      <trkpt lat="47.05356" lon="6.0193">
        <ele>485.4</ele>
        <time>2024-09-01T08:12:08Z</time>
      </trkpt>
      <trkpt lat="47.05357" lon="6.0193">
        <ele>485.4</ele>
        <time>2024-09-01T08:12:09Z</time>
      </trkpt>
      <trkpt lat="47.05357" lon="6.01929">
        <ele>485.2</ele>
        <time>2024-09-01T08:12:10Z</time>
      </trkpt>
      <trkpt lat="47.05357" lon="6.01929">
        <ele>485.2</ele>
        <time>2024-09-01T08:12:11Z</time>
      </trkpt>
      <trkpt lat="47.05357" lon="6.01928">
        <ele>485.2</ele>
        <time>2024-09-01T08:12:12Z</time>
      </trkpt>
      <trkpt lat="47.05357" lon="6.01928">
        <ele>485.2</ele>
        <time>2024-09-01T08:12:13Z</time>
      </trkpt>
      <trkpt lat="47.05358" lon="6.01927">
        <ele>485.4</ele>
        <time>2024-09-01T08:12:14Z</time>
      </trkpt>
      <trkpt lat="47.05358" lon="6.01927">
        <ele>485.2</ele>
        <time>2024-09-01T08:12:15Z</time>
      </trkpt>
      <trkpt lat="47.05359" lon="6.01927">
        <ele>485.4</ele>
        <time>2024-09-01T08:12:16Z</time>
      </trkpt>
      <trkpt lat="47.05359" lon="6.01927">
        <ele>485.4</ele>
        <time>2024-09-01T08:12:17Z</time>
      </trkpt>
      <trkpt lat="47.05358" lon="6.01927">
        <ele>485.4</ele>
        <time>2024-09-01T08:12:18Z</time>
      </trkpt>
      <trkpt lat="47.05359" lon="6.01927">
        <ele>485.2</ele>
        <time>2024-09-01T08:12:19Z</time>
      </trkpt>
      <trkpt lat="47.05358" lon="6.01926">
        <ele>485.2</ele>
        <time>2024-09-01T08:12:20Z</time>
      </trkpt>
      <trkpt lat="47.05358" lon="6.01926">
        <ele>485.4</ele>
        <time>2024-09-01T08:12:21Z</time>
      </trkpt>
      <trkpt lat="47.05357" lon="6.01924">
        <ele>485.4</ele>
        <time>2024-09-01T08:12:22Z</time>
      </trkpt>
      <trkpt lat="47.05357" lon="6.01923">
        <ele>485.6</ele>
        <time>2024-09-01T08:12:23Z</time>
      </trkpt>
      <trkpt lat="47.05357" lon="6.01922">
        <ele>485.6</ele>
        <time>2024-09-01T08:12:24Z</time>
      </trkpt>
      <trkpt lat="47.05356" lon="6.01921">
        <ele>485.6</ele>
        <time>2024-09-01T08:12:25Z</time>
      </trkpt>
      <trkpt lat="47.05355" lon="6.0192">
        <ele>485.6</ele>
        <time>2024-09-01T08:12:26Z</time>
      </trkpt>
      <trkpt lat="47.05355" lon="6.01918">
        <ele>485.4</ele>
        <time>2024-09-01T08:12:27Z</time>
      </trkpt>
      <trkpt lat="47.05355" lon="6.01917">
        <ele>485.4</ele>
        <time>2024-09-01T08:12:28Z</time>
      </trkpt>
      <trkpt lat="47.05354" lon="6.01915">
        <ele>485.6</ele>
        <time>2024-09-01T08:12:29Z</time>
      </trkpt>
      <trkpt lat="47.05354" lon="6.01913">
        <ele>485.8</ele>
        <time>2024-09-01T08:12:30Z</time>
      </trkpt>
      <trkpt lat="47.05353" lon="6.01911">
        <ele>485.8</ele>
        <time>2024-09-01T08:12:31Z</time>
      </trkpt>
      <trkpt lat="47.05352" lon="6.0191">
        <ele>486</ele>
        <time>2024-09-01T08:12:32Z</time>
      </trkpt>
      <trkpt lat="47.05351" lon="6.01908">
        <ele>486.2</ele>
        <time>2024-09-01T08:12:33Z</time>
      </trkpt>
      <trkpt lat="47.0535" lon="6.01906">
        <ele>486.4</ele>
        <time>2024-09-01T08:12:34Z</time>
      </trkpt>
      <trkpt lat="47.0535" lon="6.01904">
        <ele>486.6</ele>
        <time>2024-09-01T08:12:35Z</time>
      </trkpt>
      <trkpt lat="47.05349" lon="6.01903">
        <ele>486.8</ele>
        <time>2024-09-01T08:12:36Z</time>
      </trkpt>
      <trkpt lat="47.05349" lon="6.01901">
        <ele>487</ele>
        <time>2024-09-01T08:12:37Z</time>
      </trkpt>
      <trkpt lat="47.05348" lon="6.019">
        <ele>487.4</ele>
        <time>2024-09-01T08:12:38Z</time>
      </trkpt>
      <trkpt lat="47.05348" lon="6.01899">
        <ele>487.6</ele>
        <time>2024-09-01T08:12:39Z</time>
      </trkpt>
      <trkpt lat="47.05347" lon="6.01896">
        <ele>488.2</ele>
        <time>2024-09-01T08:12:40Z</time>
      </trkpt>
      <trkpt lat="47.05347" lon="6.01895">
        <ele>488.2</ele>
        <time>2024-09-01T08:12:41Z</time>
      </trkpt>
      <trkpt lat="47.05347" lon="6.01894">
        <ele>488.4</ele>
        <time>2024-09-01T08:12:42Z</time>
      </trkpt>
      <trkpt lat="47.05346" lon="6.01892">
        <ele>488.6</ele>
        <time>2024-09-01T08:12:43Z</time>
      </trkpt>
      <trkpt lat="47.05345" lon="6.01891">
        <ele>488.8</ele>
        <time>2024-09-01T08:12:44Z</time>
      </trkpt>
      <trkpt lat="47.05344" lon="6.0189">
        <ele>489.2</ele>
        <time>2024-09-01T08:12:45Z</time>
      </trkpt>
      <trkpt lat="47.05344" lon="6.01888">
        <ele>489.2</ele>
        <time>2024-09-01T08:12:46Z</time>
      </trkpt>
      <trkpt lat="47.05344" lon="6.01886">
        <ele>489.2</ele>
        <time>2024-09-01T08:12:47Z</time>
      </trkpt>
      <trkpt lat="47.05344" lon="6.01884">
        <ele>489.4</ele>
        <time>2024-09-01T08:12:48Z</time>
      </trkpt>
      <trkpt lat="47.05343" lon="6.01882">
        <ele>489.6</ele>
        <time>2024-09-01T08:12:49Z</time>
      </trkpt>
      <trkpt lat="47.05343" lon="6.0188">
        <ele>489.8</ele>
        <time>2024-09-01T08:12:50Z</time>
      </trkpt>
      <trkpt lat="47.05343" lon="6.01879">
        <ele>489.8</ele>
        <time>2024-09-01T08:12:51Z</time>
      </trkpt>
      <trkpt lat="47.05342" lon="6.01877">
        <ele>490</ele>
        <time>2024-09-01T08:12:52Z</time>
      </trkpt>
      <trkpt lat="47.05342" lon="6.01875">
        <ele>490.2</ele>
        <time>2024-09-01T08:12:53Z</time>
      </trkpt>
      <trkpt lat="47.05341" lon="6.01873">
        <ele>490.2</ele>
        <time>2024-09-01T08:12:54Z</time>
      </trkpt>
      <trkpt lat="47.0534" lon="6.01871">
        <ele>490.4</ele>
        <time>2024-09-01T08:12:55Z</time>
      </trkpt>
      <trkpt lat="47.0534" lon="6.01869">
        <ele>490.6</ele>
        <time>2024-09-01T08:12:56Z</time>
      </trkpt>
      <trkpt lat="47.05339" lon="6.01869">
        <ele>490.8</ele>
        <time>2024-09-01T08:12:57Z</time>
      </trkpt>
      <trkpt lat="47.05339" lon="6.01868">
        <ele>490.8</ele>
        <time>2024-09-01T08:12:58Z</time>
      </trkpt>
      <trkpt lat="47.05338" lon="6.01867">
        <ele>490.8</ele>
        <time>2024-09-01T08:12:59Z</time>
      </trkpt>
      <trkpt lat="47.05336" lon="6.01867">
        <ele>491</ele>
        <time>2024-09-01T08:13:00Z</time>
      </trkpt>
      <trkpt lat="47.05335" lon="6.01866">
        <ele>491.2</ele>
        <time>2024-09-01T08:13:01Z</time>
      </trkpt>
      <trkpt lat="47.05334" lon="6.01865">
        <ele>491.4</ele>
        <time>2024-09-01T08:13:02Z</time>
      </trkpt>
      <trkpt lat="47.05333" lon="6.01864">
        <ele>491.6</ele>
        <time>2024-09-01T08:13:03Z</time>
      </trkpt>
      <trkpt lat="47.05333" lon="6.01863">
        <ele>491.6</ele>
        <time>2024-09-01T08:13:04Z</time>
      </trkpt>
      <trkpt lat="47.05331" lon="6.01862">
        <ele>491.8</ele>
        <time>2024-09-01T08:13:05Z</time>
      </trkpt>
      <trkpt lat="47.05331" lon="6.01861">
        <ele>491.8</ele>
        <time>2024-09-01T08:13:06Z</time>
      </trkpt>
      <trkpt lat="47.0533" lon="6.0186">
        <ele>492</ele>
        <time>2024-09-01T08:13:07Z</time>
      </trkpt>
      <trkpt lat="47.05329" lon="6.01858">
        <ele>492.2</ele>
        <time>2024-09-01T08:13:08Z</time>
      </trkpt>
      <trkpt lat="47.05328" lon="6.01856">
        <ele>492.2</ele>
        <time>2024-09-01T08:13:09Z</time>
      </trkpt>
      <trkpt lat="47.05327" lon="6.01856">
        <ele>492.4</ele>
        <time>2024-09-01T08:13:10Z</time>
      </trkpt>
      <trkpt lat="47.05326" lon="6.01855">
        <ele>492.4</ele>
        <time>2024-09-01T08:13:11Z</time>
      </trkpt>
      <trkpt lat="47.05325" lon="6.01854">
        <ele>492.2</ele>
        <time>2024-09-01T08:13:12Z</time>
      </trkpt>
      <trkpt lat="47.05325" lon="6.01854">
        <ele>492.4</ele>
        <time>2024-09-01T08:13:13Z</time>
      </trkpt>
      <trkpt lat="47.05324" lon="6.01852">
        <ele>492.4</ele>
        <time>2024-09-01T08:13:14Z</time>
      </trkpt>
      <trkpt lat="47.05323" lon="6.01851">
        <ele>492.4</ele>
        <time>2024-09-01T08:13:15Z</time>
      </trkpt>
      <trkpt lat="47.05322" lon="6.0185">
        <ele>492.4</ele>
        <time>2024-09-01T08:13:16Z</time>
      </trkpt>
      <trkpt lat="47.05321" lon="6.01848">
        <ele>492.4</ele>
        <time>2024-09-01T08:13:17Z</time>
      </trkpt>
      <trkpt lat="47.05321" lon="6.01847">
        <ele>492.6</ele>
        <time>2024-09-01T08:13:18Z</time>
      </trkpt>
      <trkpt lat="47.0532" lon="6.01847">
        <ele>492.6</ele>
        <time>2024-09-01T08:13:19Z</time>
      </trkpt>
      <trkpt lat="47.0532" lon="6.01847">
        <ele>492.6</ele>
        <time>2024-09-01T08:13:20Z</time>
      </trkpt>
      <trkpt lat="47.0532" lon="6.01847">
        <ele>492.6</ele>
        <time>2024-09-01T08:13:21Z</time>
      </trkpt>
      <trkpt lat="47.0532" lon="6.01846">
        <ele>492.6</ele>
        <time>2024-09-01T08:13:22Z</time>
      </trkpt>
      <trkpt lat="47.0532" lon="6.01846">
        <ele>492.8</ele>
        <time>2024-09-01T08:13:23Z</time>
      </trkpt>
      <trkpt lat="47.05319" lon="6.01846">
        <ele>492.6</ele>
        <time>2024-09-01T08:13:24Z</time>
      </trkpt>
      <trkpt lat="47.05319" lon="6.01846">
        <ele>492.8</ele>
        <time>2024-09-01T08:13:25Z</time>
      </trkpt>
      <trkpt lat="47.05319" lon="6.01846">
        <ele>492.8</ele>
        <time>2024-09-01T08:13:26Z</time>
      </trkpt>
      <trkpt lat="47.05319" lon="6.01845">
        <ele>493</ele>
        <time>2024-09-01T08:13:27Z</time>
      </trkpt>
      <trkpt lat="47.05319" lon="6.01846">
        <ele>492.8</ele>
        <time>2024-09-01T08:13:28Z</time>
      </trkpt>
      <trkpt lat="47.0532" lon="6.01845">
        <ele>493</ele>
        <time>2024-09-01T08:13:29Z</time>
      </trkpt>
      <trkpt lat="47.05321" lon="6.01844">
        <ele>492.8</ele>
        <time>2024-09-01T08:13:30Z</time>
      </trkpt>
      <trkpt lat="47.05321" lon="6.01844">
        <ele>492.8</ele>
        <time>2024-09-01T08:13:31Z</time>
      </trkpt>
      <trkpt lat="47.05322" lon="6.01843">
        <ele>493</ele>
        <time>2024-09-01T08:13:32Z</time>
      </trkpt>
      <trkpt lat="47.05323" lon="6.01844">
        <ele>492.8</ele>
        <time>2024-09-01T08:13:33Z</time>
      </trkpt>
      <trkpt lat="47.05323" lon="6.01844">
        <ele>493</ele>
        <time>2024-09-01T08:13:34Z</time>
      </trkpt>
      <trkpt lat="47.05323" lon="6.01843">
        <ele>493</ele>
        <time>2024-09-01T08:13:35Z</time>
      </trkpt>
      <trkpt lat="47.05324" lon="6.01843">
        <ele>492.8</ele>
        <time>2024-09-01T08:13:36Z</time>
      </trkpt>
      <trkpt lat="47.05324" lon="6.01844">
        <ele>492.8</ele>
        <time>2024-09-01T08:13:37Z</time>
      </trkpt>
      <trkpt lat="47.05324" lon="6.01844">
        <ele>492.8</ele>
        <time>2024-09-01T08:13:38Z</time>
      </trkpt>
      <trkpt lat="47.05324" lon="6.01843">
        <ele>492.6</ele>
        <time>2024-09-01T08:13:39Z</time>
      </trkpt>
      <trkpt lat="47.05324" lon="6.01843">
        <ele>492.6</ele>
        <time>2024-09-01T08:13:40Z</time>
      </trkpt>
      <trkpt lat="47.05324" lon="6.01844">
        <ele>492.8</ele>
        <time>2024-09-01T08:13:41Z</time>
      </trkpt>
      <trkpt lat="47.05325" lon="6.01844">
        <ele>492.8</ele>
        <time>2024-09-01T08:13:42Z</time>
      </trkpt>
      <trkpt lat="47.05325" lon="6.01844">
        <ele>492.8</ele>
        <time>2024-09-01T08:13:43Z</time>
      </trkpt>
      <trkpt lat="47.05325" lon="6.01844">
        <ele>492.6</ele>
        <time>2024-09-01T08:13:44Z</time>
      </trkpt>
      <trkpt lat="47.05326" lon="6.01843">
        <ele>492.6</ele>
        <time>2024-09-01T08:13:45Z</time>
      </trkpt>
      <trkpt lat="47.05325" lon="6.01843">
        <ele>492.6</ele>
        <time>2024-09-01T08:13:46Z</time>
      </trkpt>
      <trkpt lat="47.05326" lon="6.01842">
        <ele>492.6</ele>
        <time>2024-09-01T08:13:47Z</time>
      </trkpt>
      <trkpt lat="47.05326" lon="6.01842">
        <ele>492.8</ele>
        <time>2024-09-01T08:13:48Z</time>
      </trkpt>
      <trkpt lat="47.05325" lon="6.01842">
        <ele>492.6</ele>
        <time>2024-09-01T08:13:49Z</time>
      </trkpt>
      <trkpt lat="47.05324" lon="6.01843">
        <ele>492.6</ele>
        <time>2024-09-01T08:13:50Z</time>
      </trkpt>
      <trkpt lat="47.05324" lon="6.01843">
        <ele>492.8</ele>
        <time>2024-09-01T08:13:51Z</time>
      </trkpt>
      <trkpt lat="47.05323" lon="6.01843">
        <ele>492.6</ele>
        <time>2024-09-01T08:13:52Z</time>
      </trkpt>
      <trkpt lat="47.05323" lon="6.01843">
        <ele>492.8</ele>
        <time>2024-09-01T08:13:53Z</time>
      </trkpt>
      <trkpt lat="47.05323" lon="6.01842">
        <ele>492.8</ele>
        <time>2024-09-01T08:13:54Z</time>
      </trkpt>
      <trkpt lat="47.05323" lon="6.01842">
        <ele>492.8</ele>
        <time>2024-09-01T08:13:55Z</time>
      </trkpt>
      <trkpt lat="47.05323" lon="6.01842">
        <ele>493</ele>
        <time>2024-09-01T08:13:56Z</time>
      </trkpt>
      <trkpt lat="47.05322" lon="6.01842">
        <ele>492.8</ele>
        <time>2024-09-01T08:13:57Z</time>
      </trkpt>
      <trkpt lat="47.05323" lon="6.01842">
        <ele>492.8</ele>
        <time>2024-09-01T08:13:58Z</time>
      </trkpt>
      <trkpt lat="47.05323" lon="6.01842">
        <ele>493</ele>
        <time>2024-09-01T08:13:59Z</time>
      </trkpt>
      <trkpt lat="47.05323" lon="6.01842">
        <ele>493</ele>
        <time>2024-09-01T08:14:00Z</time>
      </trkpt>
      <trkpt lat="47.05323" lon="6.01843">
        <ele>493</ele>
        <time>2024-09-01T08:14:01Z</time>
      </trkpt>
      <trkpt lat="47.05323" lon="6.01843">
        <ele>493.2</ele>
        <time>2024-09-01T08:14:02Z</time>
      </trkpt>
      <trkpt lat="47.05324" lon="6.01843">
        <ele>493</ele>
        <time>2024-09-01T08:14:03Z</time>
      </trkpt>
      <trkpt lat="47.05323" lon="6.01844">
        <ele>493</ele>
        <time>2024-09-01T08:14:04Z</time>
      </trkpt>
      <trkpt lat="47.05323" lon="6.01844">
        <ele>493</ele>
        <time>2024-09-01T08:14:05Z</time>
      </trkpt>
      <trkpt lat="47.05323" lon="6.01844">
        <ele>493</ele>
        <time>2024-09-01T08:14:06Z</time>
      </trkpt>
      <trkpt lat="47.05323" lon="6.01844">
        <ele>493.2</ele>
        <time>2024-09-01T08:14:07Z</time>
      </trkpt>
      <trkpt lat="47.05323" lon="6.01844">
        <ele>493.2</ele>
        <time>2024-09-01T08:14:08Z</time>
      </trkpt>
      <trkpt lat="47.05322" lon="6.01844">
        <ele>493</ele>
        <time>2024-09-01T08:14:09Z</time>
      </trkpt>
      <trkpt lat="47.05322" lon="6.01845">
        <ele>493</ele>
        <time>2024-09-01T08:14:10Z</time>
      </trkpt>
      <trkpt lat="47.05322" lon="6.01845">
        <ele>493.2</ele>
        <time>2024-09-01T08:14:11Z</time>
      </trkpt>
      <trkpt lat="47.05322" lon="6.01846">
        <ele>493</ele>
        <time>2024-09-01T08:14:12Z</time>
      </trkpt>
      <trkpt lat="47.05323" lon="6.01845">
        <ele>493</ele>
        <time>2024-09-01T08:14:13Z</time>
      </trkpt>
      <trkpt lat="47.05323" lon="6.01846">
        <ele>493</ele>
        <time>2024-09-01T08:14:14Z</time>
      </trkpt>
      <trkpt lat="47.05322" lon="6.01846">
        <ele>493</ele>
        <time>2024-09-01T08:14:15Z</time>
      </trkpt>
      <trkpt lat="47.05323" lon="6.01846">
        <ele>493</ele>
        <time>2024-09-01T08:14:16Z</time>
      </trkpt>
      <trkpt lat="47.05323" lon="6.01847">
        <ele>493</ele>
        <time>2024-09-01T08:14:17Z</time>
      </trkpt>
      <trkpt lat="47.05323" lon="6.01847">
        <ele>493</ele>
        <time>2024-09-01T08:14:18Z</time>
      </trkpt>
      <trkpt lat="47.05323" lon="6.01848">
        <ele>493</ele>
        <time>2024-09-01T08:14:19Z</time>
      </trkpt>
      <trkpt lat="47.05323" lon="6.01848">
        <ele>493</ele>
        <time>2024-09-01T08:14:20Z</time>
      </trkpt>
      <trkpt lat="47.05324" lon="6.01848">
        <ele>493</ele>
        <time>2024-09-01T08:14:21Z</time>
      </trkpt>
      <trkpt lat="47.05323" lon="6.01849">
        <ele>493</ele>
        <time>2024-09-01T08:14:22Z</time>
      </trkpt>
      <trkpt lat="47.05322" lon="6.01849">
        <ele>493</ele>
        <time>2024-09-01T08:14:23Z</time>
      </trkpt>
      <trkpt lat="47.05322" lon="6.01849">
        <ele>493</ele>
        <time>2024-09-01T08:14:24Z</time>
      </trkpt>
      <trkpt lat="47.05322" lon="6.0185">
        <ele>492.8</ele>
        <time>2024-09-01T08:14:25Z</time>
      </trkpt>
      <trkpt lat="47.05322" lon="6.0185">
        <ele>492.8</ele>
        <time>2024-09-01T08:14:26Z</time>
      </trkpt>
      <trkpt lat="47.05322" lon="6.0185">
        <ele>493</ele>
        <time>2024-09-01T08:14:27Z</time>
      </trkpt>
      <trkpt lat="47.05322" lon="6.0185">
        <ele>492.8</ele>
        <time>2024-09-01T08:14:28Z</time>
      </trkpt>
      <trkpt lat="47.05322" lon="6.01849">
        <ele>493</ele>
        <time>2024-09-01T08:14:29Z</time>
      </trkpt>
      <trkpt lat="47.05323" lon="6.01849">
        <ele>492.8</ele>
        <time>2024-09-01T08:14:30Z</time>
      </trkpt>
      <trkpt lat="47.05322" lon="6.01849">
        <ele>493</ele>
        <time>2024-09-01T08:14:31Z</time>
      </trkpt>
      <trkpt lat="47.05318" lon="6.01849">
        <ele>492.8</ele>
        <time>2024-09-01T08:14:32Z</time>
      </trkpt>
      <trkpt lat="47.05317" lon="6.01849">
        <ele>493</ele>
        <time>2024-09-01T08:14:33Z</time>
      </trkpt>
      <trkpt lat="47.05315" lon="6.01849">
        <ele>492.8</ele>
        <time>2024-09-01T08:14:34Z</time>
      </trkpt>
      <trkpt lat="47.05315" lon="6.01849">
        <ele>492.8</ele>
        <time>2024-09-01T08:14:35Z</time>
      </trkpt>
      <trkpt lat="47.05313" lon="6.01849">
        <ele>492.8</ele>
        <time>2024-09-01T08:14:36Z</time>
      </trkpt>
      <trkpt lat="47.05313" lon="6.01848">
        <ele>492.8</ele>
        <time>2024-09-01T08:14:37Z</time>
      </trkpt>
      <trkpt lat="47.05313" lon="6.01848">
        <ele>492.8</ele>
        <time>2024-09-01T08:14:38Z</time>
      </trkpt>
      <trkpt lat="47.05313" lon="6.01848">
        <ele>493</ele>
        <time>2024-09-01T08:14:39Z</time>
      </trkpt>
      <trkpt lat="47.05315" lon="6.01848">
        <ele>493</ele>
        <time>2024-09-01T08:14:40Z</time>
      </trkpt>
      <trkpt lat="47.05317" lon="6.01848">
        <ele>493</ele>
        <time>2024-09-01T08:14:41Z</time>
      </trkpt>
      <trkpt lat="47.05317" lon="6.01849">
        <ele>492.8</ele>
        <time>2024-09-01T08:14:42Z</time>
      </trkpt>
      <trkpt lat="47.05318" lon="6.01849">
        <ele>493</ele>
        <time>2024-09-01T08:14:43Z</time>
      </trkpt>
      <trkpt lat="47.05318" lon="6.01848">
        <ele>493</ele>
        <time>2024-09-01T08:14:44Z</time>
      </trkpt>
      <trkpt lat="47.05319" lon="6.01848">
        <ele>492.8</ele>
        <time>2024-09-01T08:14:45Z</time>
      </trkpt>
      <trkpt lat="47.05319" lon="6.01849">
        <ele>492.8</ele>
        <time>2024-09-01T08:14:46Z</time>
      </trkpt>
      <trkpt lat="47.05319" lon="6.01849">
        <ele>492.8</ele>
        <time>2024-09-01T08:14:47Z</time>
      </trkpt>
      <trkpt lat="47.05319" lon="6.01849">
        <ele>492.8</ele>
        <time>2024-09-01T08:14:48Z</time>
      </trkpt>
      <trkpt lat="47.0532" lon="6.01849">
        <ele>493</ele>
        <time>2024-09-01T08:14:49Z</time>
      </trkpt>
      <trkpt lat="47.0532" lon="6.01849">
        <ele>492.8</ele>
        <time>2024-09-01T08:14:50Z</time>
      </trkpt>
      <trkpt lat="47.05319" lon="6.0185">
        <ele>493</ele>
        <time>2024-09-01T08:14:51Z</time>
      </trkpt>
      <trkpt lat="47.05319" lon="6.01851">
        <ele>492.8</ele>
        <time>2024-09-01T08:14:52Z</time>
      </trkpt>
      <trkpt lat="47.05319" lon="6.01852">
        <ele>492.8</ele>
        <time>2024-09-01T08:14:53Z</time>
      </trkpt>
      <trkpt lat="47.05319" lon="6.01853">
        <ele>492.8</ele>
        <time>2024-09-01T08:14:54Z</time>
      </trkpt>
      <trkpt lat="47.05319" lon="6.01853">
        <ele>492.8</ele>
        <time>2024-09-01T08:14:55Z</time>
      </trkpt>
      <trkpt lat="47.05319" lon="6.01854">
        <ele>492.8</ele>
        <time>2024-09-01T08:14:56Z</time>
      </trkpt>
      <trkpt lat="47.05319" lon="6.01854">
        <ele>492.4</ele>
        <time>2024-09-01T08:14:57Z</time>
      </trkpt>
      <trkpt lat="47.05319" lon="6.01853">
        <ele>492.4</ele>
        <time>2024-09-01T08:14:58Z</time>
      </trkpt>
      <trkpt lat="47.05319" lon="6.01853">
        <ele>492.2</ele>
        <time>2024-09-01T08:14:59Z</time>
      </trkpt>
      <trkpt lat="47.05319" lon="6.01853">
        <ele>492.4</ele>
        <time>2024-09-01T08:15:00Z</time>
      </trkpt>
      <trkpt lat="47.05319" lon="6.01853">
        <ele>492.2</ele>
        <time>2024-09-01T08:15:01Z</time>
      </trkpt>
      <trkpt lat="47.05319" lon="6.01853">
        <ele>492.2</ele>
        <time>2024-09-01T08:15:02Z</time>
      </trkpt>
      <trkpt lat="47.0532" lon="6.01853">
        <ele>492.2</ele>
        <time>2024-09-01T08:15:03Z</time>
      </trkpt>
      <trkpt lat="47.0532" lon="6.01853">
        <ele>492.2</ele>
        <time>2024-09-01T08:15:04Z</time>
      </trkpt>
      <trkpt lat="47.0532" lon="6.01853">
        <ele>492.2</ele>
        <time>2024-09-01T08:15:05Z</time>
      </trkpt>
      <trkpt lat="47.0532" lon="6.01852">
        <ele>492.2</ele>
        <time>2024-09-01T08:15:06Z</time>
      </trkpt>
      <trkpt lat="47.0532" lon="6.01852">
        <ele>492.2</ele>
        <time>2024-09-01T08:15:07Z</time>
      </trkpt>
      <trkpt lat="47.0532" lon="6.01853">
        <ele>492.2</ele>
        <time>2024-09-01T08:15:08Z</time>
      </trkpt>
      <trkpt lat="47.0532" lon="6.01853">
        <ele>492</ele>
        <time>2024-09-01T08:15:09Z</time>
      </trkpt>
      <trkpt lat="47.05319" lon="6.01854">
        <ele>492.2</ele>
        <time>2024-09-01T08:15:10Z</time>
      </trkpt>
      <trkpt lat="47.05319" lon="6.01854">
        <ele>492.2</ele>
        <time>2024-09-01T08:15:11Z</time>
      </trkpt>
      <trkpt lat="47.05318" lon="6.01855">
        <ele>492.2</ele>
        <time>2024-09-01T08:15:12Z</time>
      </trkpt>
      <trkpt lat="47.05318" lon="6.01855">
        <ele>492</ele>
        <time>2024-09-01T08:15:13Z</time>
      </trkpt>
      <trkpt lat="47.05319" lon="6.01854">
        <ele>492.2</ele>
        <time>2024-09-01T08:15:14Z</time>
      </trkpt>
      <trkpt lat="47.05318" lon="6.01854">
        <ele>492</ele>
        <time>2024-09-01T08:15:15Z</time>
      </trkpt>
      <trkpt lat="47.05318" lon="6.01855">
        <ele>492</ele>
        <time>2024-09-01T08:15:16Z</time>
      </trkpt>
      <trkpt lat="47.05318" lon="6.01855">
        <ele>492</ele>
        <time>2024-09-01T08:15:17Z</time>
      </trkpt>
      <trkpt lat="47.05318" lon="6.01855">
        <ele>492</ele>
        <time>2024-09-01T08:15:18Z</time>
      </trkpt>
      <trkpt lat="47.05317" lon="6.01856">
        <ele>492.2</ele>
        <time>2024-09-01T08:15:19Z</time>
      </trkpt>
      <trkpt lat="47.05317" lon="6.01856">
        <ele>492</ele>
        <time>2024-09-01T08:15:20Z</time>
      </trkpt>
      <trkpt lat="47.05317" lon="6.01856">
        <ele>492</ele>
        <time>2024-09-01T08:15:21Z</time>
      </trkpt>
      <trkpt lat="47.05317" lon="6.01856">
        <ele>492</ele>
        <time>2024-09-01T08:15:22Z</time>
      </trkpt>
      <trkpt lat="47.05317" lon="6.01856">
        <ele>492</ele>
        <time>2024-09-01T08:15:23Z</time>
      </trkpt>
      <trkpt lat="47.05317" lon="6.01856">
        <ele>492</ele>
        <time>2024-09-01T08:15:24Z</time>
      </trkpt>
      <trkpt lat="47.05317" lon="6.01856">
        <ele>492.2</ele>
        <time>2024-09-01T08:15:25Z</time>
      </trkpt>
      <trkpt lat="47.05317" lon="6.01856">
        <ele>492</ele>
        <time>2024-09-01T08:15:26Z</time>
      </trkpt>
      <trkpt lat="47.05317" lon="6.01856">
        <ele>492</ele>
        <time>2024-09-01T08:15:27Z</time>
      </trkpt>
      <trkpt lat="47.05317" lon="6.01856">
        <ele>492</ele>
        <time>2024-09-01T08:15:28Z</time>
      </trkpt>
      <trkpt lat="47.05317" lon="6.01856">
        <ele>492</ele>
        <time>2024-09-01T08:15:29Z</time>
      </trkpt>
      <trkpt lat="47.05318" lon="6.01855">
        <ele>492</ele>
        <time>2024-09-01T08:15:30Z</time>
      </trkpt>
      <trkpt lat="47.05318" lon="6.01856">
        <ele>491.8</ele>
        <time>2024-09-01T08:15:31Z</time>
      </trkpt>
      <trkpt lat="47.05318" lon="6.01856">
        <ele>491.8</ele>
        <time>2024-09-01T08:15:32Z</time>
      </trkpt>
      <trkpt lat="47.05318" lon="6.01856">
        <ele>492</ele>
        <time>2024-09-01T08:15:33Z</time>
      </trkpt>
      <trkpt lat="47.05318" lon="6.01856">
        <ele>492</ele>
        <time>2024-09-01T08:15:34Z</time>
      </trkpt>
      <trkpt lat="47.05318" lon="6.01856">
        <ele>492</ele>
        <time>2024-09-01T08:15:35Z</time>
      </trkpt>
      <trkpt lat="47.05318" lon="6.01856">
        <ele>492</ele>
        <time>2024-09-01T08:15:36Z</time>
      </trkpt>
      <trkpt lat="47.05318" lon="6.01856">
        <ele>492</ele>
        <time>2024-09-01T08:15:37Z</time>
      </trkpt>
      <trkpt lat="47.05318" lon="6.01856">
        <ele>492</ele>
        <time>2024-09-01T08:15:38Z</time>
      </trkpt>
      <trkpt lat="47.05318" lon="6.01856">
        <ele>492</ele>
        <time>2024-09-01T08:15:39Z</time>
      </trkpt>
      <trkpt lat="47.05318" lon="6.01856">
        <ele>492</ele>
        <time>2024-09-01T08:15:40Z</time>
      </trkpt>
      <trkpt lat="47.05318" lon="6.01856">
        <ele>492</ele>
        <time>2024-09-01T08:15:41Z</time>
      </trkpt>
      <trkpt lat="47.05318" lon="6.01856">
        <ele>492</ele>
        <time>2024-09-01T08:15:42Z</time>
      </trkpt>
      <trkpt lat="47.05318" lon="6.01857">
        <ele>492</ele>
        <time>2024-09-01T08:15:43Z</time>
      </trkpt>
      <trkpt lat="47.05318" lon="6.01857">
        <ele>492</ele>
        <time>2024-09-01T08:15:44Z</time>
      </trkpt>
      <trkpt lat="47.05318" lon="6.01857">
        <ele>492</ele>
        <time>2024-09-01T08:15:45Z</time>
      </trkpt>
      <trkpt lat="47.05318" lon="6.01857">
        <ele>492</ele>
        <time>2024-09-01T08:15:46Z</time>
      </trkpt>
      <trkpt lat="47.05318" lon="6.01857">
        <ele>492</ele>
        <time>2024-09-01T08:15:47Z</time>
      </trkpt>
      <trkpt lat="47.05318" lon="6.01857">
        <ele>492</ele>
        <time>2024-09-01T08:15:48Z</time>
      </trkpt>
      <trkpt lat="47.05318" lon="6.01857">
        <ele>492</ele>
        <time>2024-09-01T08:15:49Z</time>
      </trkpt>
      <trkpt lat="47.05318" lon="6.01857">
        <ele>492</ele>
        <time>2024-09-01T08:15:50Z</time>
      </trkpt>
      <trkpt lat="47.05318" lon="6.01856">
        <ele>492</ele>
        <time>2024-09-01T08:15:51Z</time>
      </trkpt>
      <trkpt lat="47.05318" lon="6.01856">
        <ele>492</ele>
        <time>2024-09-01T08:15:52Z</time>
      </trkpt>
      <trkpt lat="47.05318" lon="6.01856">
        <ele>492</ele>
        <time>2024-09-01T08:15:53Z</time>
      </trkpt>
      <trkpt lat="47.05318" lon="6.01855">
        <ele>492</ele>
        <time>2024-09-01T08:15:54Z</time>
      </trkpt>
      <trkpt lat="47.05317" lon="6.01855">
        <ele>492</ele>
        <time>2024-09-01T08:15:55Z</time>
      </trkpt>
      <trkpt lat="47.05317" lon="6.01855">
        <ele>492</ele>
        <time>2024-09-01T08:15:56Z</time>
      </trkpt>
      <trkpt lat="47.05317" lon="6.01854">
        <ele>492</ele>
        <time>2024-09-01T08:15:57Z</time>
      </trkpt>
      <trkpt lat="47.05317" lon="6.01854">
        <ele>492</ele>
        <time>2024-09-01T08:15:58Z</time>
      </trkpt>
      <trkpt lat="47.05317" lon="6.01854">
        <ele>492</ele>
        <time>2024-09-01T08:15:59Z</time>
      </trkpt>
      <trkpt lat="47.05318" lon="6.01854">
        <ele>492.2</ele>
        <time>2024-09-01T08:16:00Z</time>
      </trkpt>
      <trkpt lat="47.05317" lon="6.01854">
        <ele>492</ele>
        <time>2024-09-01T08:16:01Z</time>
      </trkpt>
      <trkpt lat="47.05317" lon="6.01854">
        <ele>492</ele>
        <time>2024-09-01T08:16:02Z</time>
      </trkpt>
      <trkpt lat="47.05317" lon="6.01854">
        <ele>492.2</ele>
        <time>2024-09-01T08:16:03Z</time>
      </trkpt>
      <trkpt lat="47.05317" lon="6.01854">
        <ele>492</ele>
        <time>2024-09-01T08:16:04Z</time>
      </trkpt>
      <trkpt lat="47.05317" lon="6.01854">
        <ele>492</ele>
        <time>2024-09-01T08:16:05Z</time>
      </trkpt>
      <trkpt lat="47.05317" lon="6.01853">
        <ele>492</ele>
        <time>2024-09-01T08:16:06Z</time>
      </trkpt>
      <trkpt lat="47.05318" lon="6.01853">
        <ele>492</ele>
        <time>2024-09-01T08:16:07Z</time>
      </trkpt>
      <trkpt lat="47.05318" lon="6.01853">
        <ele>492</ele>
        <time>2024-09-01T08:16:08Z</time>
      </trkpt>
      <trkpt lat="47.05318" lon="6.01853">
        <ele>492.2</ele>
        <time>2024-09-01T08:16:09Z</time>
      </trkpt>
      <trkpt lat="47.05318" lon="6.01853">
        <ele>492.2</ele>
        <time>2024-09-01T08:16:10Z</time>
      </trkpt>
      <trkpt lat="47.05318" lon="6.01852">
        <ele>492</ele>
        <time>2024-09-01T08:16:11Z</time>
      </trkpt>
      <trkpt lat="47.05318" lon="6.01852">
        <ele>492</ele>
        <time>2024-09-01T08:16:12Z</time>
      </trkpt>
      <trkpt lat="47.05318" lon="6.01852">
        <ele>492</ele>
        <time>2024-09-01T08:16:13Z</time>
      </trkpt>
      <trkpt lat="47.05318" lon="6.01852">
        <ele>492</ele>
        <time>2024-09-01T08:16:14Z</time>
      </trkpt>
      <trkpt lat="47.05317" lon="6.01852">
        <ele>492</ele>
        <time>2024-09-01T08:16:15Z</time>
      </trkpt>
      <trkpt lat="47.05317" lon="6.01852">
        <ele>492</ele>
        <time>2024-09-01T08:16:16Z</time>
      </trkpt>
      <trkpt lat="47.05317" lon="6.01852">
        <ele>492</ele>
        <time>2024-09-01T08:16:17Z</time>
      </trkpt>
      <trkpt lat="47.05316" lon="6.01852">
        <ele>492</ele>
        <time>2024-09-01T08:16:18Z</time>
      </trkpt>
      <trkpt lat="47.05316" lon="6.01852">
        <ele>492</ele>
        <time>2024-09-01T08:16:19Z</time>
      </trkpt>
      <trkpt lat="47.05316" lon="6.01852">
        <ele>491.8</ele>
        <time>2024-09-01T08:16:20Z</time>
      </trkpt>
      <trkpt lat="47.05316" lon="6.01852">
        <ele>492</ele>
        <time>2024-09-01T08:16:21Z</time>
      </trkpt>
      <trkpt lat="47.05316" lon="6.01852">
        <ele>491.8</ele>
        <time>2024-09-01T08:16:22Z</time>
      </trkpt>
      <trkpt lat="47.05315" lon="6.01853">
        <ele>491.8</ele>
        <time>2024-09-01T08:16:23Z</time>
      </trkpt>
      <trkpt lat="47.05315" lon="6.01853">
        <ele>492</ele>
        <time>2024-09-01T08:16:24Z</time>
      </trkpt>
      <trkpt lat="47.05315" lon="6.01853">
        <ele>492</ele>
        <time>2024-09-01T08:16:25Z</time>
      </trkpt>
      <trkpt lat="47.05315" lon="6.01853">
        <ele>491.8</ele>
        <time>2024-09-01T08:16:26Z</time>
      </trkpt>
      <trkpt lat="47.05315" lon="6.01852">
        <ele>492</ele>
        <time>2024-09-01T08:16:27Z</time>
      </trkpt>
      <trkpt lat="47.05315" lon="6.01852">
        <ele>491.8</ele>
        <time>2024-09-01T08:16:28Z</time>
      </trkpt>
      <trkpt lat="47.05315" lon="6.01852">
        <ele>491.8</ele>
        <time>2024-09-01T08:16:29Z</time>
      </trkpt>
      <trkpt lat="47.05315" lon="6.01852">
        <ele>492</ele>
        <time>2024-09-01T08:16:30Z</time>
      </trkpt>
      <trkpt lat="47.05315" lon="6.01853">
        <ele>491.8</ele>
        <time>2024-09-01T08:16:31Z</time>
      </trkpt>
      <trkpt lat="47.05315" lon="6.01853">
        <ele>492</ele>
        <time>2024-09-01T08:16:32Z</time>
      </trkpt>
      <trkpt lat="47.05315" lon="6.01853">
        <ele>491.8</ele>
        <time>2024-09-01T08:16:33Z</time>
      </trkpt>
      <trkpt lat="47.05315" lon="6.01853">
        <ele>491.8</ele>
        <time>2024-09-01T08:16:34Z</time>
      </trkpt>
      <trkpt lat="47.05315" lon="6.01853">
        <ele>492</ele>
        <time>2024-09-01T08:16:35Z</time>
      </trkpt>
      <trkpt lat="47.05315" lon="6.01854">
        <ele>492</ele>
        <time>2024-09-01T08:16:36Z</time>
      </trkpt>
      <trkpt lat="47.05315" lon="6.01854">
        <ele>492</ele>
        <time>2024-09-01T08:16:37Z</time>
      </trkpt>
      <trkpt lat="47.05315" lon="6.01854">
        <ele>492</ele>
        <time>2024-09-01T08:16:38Z</time>
      </trkpt>
      <trkpt lat="47.05315" lon="6.01854">
        <ele>492</ele>
        <time>2024-09-01T08:16:39Z</time>
      </trkpt>
      <trkpt lat="47.05315" lon="6.01854">
        <ele>492</ele>
        <time>2024-09-01T08:16:40Z</time>
      </trkpt>
      <trkpt lat="47.05315" lon="6.01854">
        <ele>491.8</ele>
        <time>2024-09-01T08:16:41Z</time>
      </trkpt>
      <trkpt lat="47.05315" lon="6.01854">
        <ele>491.8</ele>
        <time>2024-09-01T08:16:42Z</time>
      </trkpt>
      <trkpt lat="47.05315" lon="6.01854">
        <ele>492</ele>
        <time>2024-09-01T08:16:43Z</time>
      </trkpt>
      <trkpt lat="47.05315" lon="6.01854">
        <ele>492</ele>
        <time>2024-09-01T08:16:44Z</time>
      </trkpt>
      <trkpt lat="47.05315" lon="6.01854">
        <ele>492</ele>
        <time>2024-09-01T08:16:45Z</time>
      </trkpt>
      <trkpt lat="47.05315" lon="6.01854">
        <ele>491.8</ele>
        <time>2024-09-01T08:16:46Z</time>
      </trkpt>
      <trkpt lat="47.05315" lon="6.01854">
        <ele>492</ele>
        <time>2024-09-01T08:16:47Z</time>
      </trkpt>
      <trkpt lat="47.05315" lon="6.01854">
        <ele>492</ele>
        <time>2024-09-01T08:16:48Z</time>
      </trkpt>
      <trkpt lat="47.05315" lon="6.01854">
        <ele>491.8</ele>
        <time>2024-09-01T08:16:49Z</time>
      </trkpt>
      <trkpt lat="47.05315" lon="6.01854">
        <ele>491.8</ele>
        <time>2024-09-01T08:16:50Z</time>
      </trkpt>
      <trkpt lat="47.05315" lon="6.01854">
        <ele>492</ele>
        <time>2024-09-01T08:16:51Z</time>
      </trkpt>
      <trkpt lat="47.05315" lon="6.01854">
        <ele>492</ele>
        <time>2024-09-01T08:16:52Z</time>
      </trkpt>
      <trkpt lat="47.05315" lon="6.01854">
        <ele>492</ele>
        <time>2024-09-01T08:16:53Z</time>
      </trkpt>
      <trkpt lat="47.05315" lon="6.01854">
        <ele>492</ele>
        <time>2024-09-01T08:16:54Z</time>
      </trkpt>
      <trkpt lat="47.05315" lon="6.01854">
        <ele>492</ele>
        <time>2024-09-01T08:16:55Z</time>
      </trkpt>
      <trkpt lat="47.05315" lon="6.01854">
        <ele>492</ele>
        <time>2024-09-01T08:16:56Z</time>
      </trkpt>
      <trkpt lat="47.05315" lon="6.01854">
        <ele>492</ele>
        <time>2024-09-01T08:16:57Z</time>
      </trkpt>
      <trkpt lat="47.05315" lon="6.01854">
        <ele>492</ele>
        <time>2024-09-01T08:16:58Z</time>
      </trkpt>
      <trkpt lat="47.05315" lon="6.01854">
        <ele>492</ele>
        <time>2024-09-01T08:16:59Z</time>
      </trkpt>
      <trkpt lat="47.05315" lon="6.01854">
        <ele>492</ele>
        <time>2024-09-01T08:17:00Z</time>
      </trkpt>
      <trkpt lat="47.05315" lon="6.01854">
        <ele>492</ele>
        <time>2024-09-01T08:17:01Z</time>
      </trkpt>
      <trkpt lat="47.05315" lon="6.01854">
        <ele>492</ele>
        <time>2024-09-01T08:17:02Z</time>
      </trkpt>
      <trkpt lat="47.05315" lon="6.01854">
        <ele>492</ele>
        <time>2024-09-01T08:17:03Z</time>
      </trkpt>
      <trkpt lat="47.05315" lon="6.01854">
        <ele>491.8</ele>
        <time>2024-09-01T08:17:04Z</time>
      </trkpt>
      <trkpt lat="47.05315" lon="6.01854">
        <ele>492</ele>
        <time>2024-09-01T08:17:05Z</time>
      </trkpt>
      <trkpt lat="47.05315" lon="6.01854">
        <ele>491.8</ele>
        <time>2024-09-01T08:17:06Z</time>
      </trkpt>
      <trkpt lat="47.05315" lon="6.01854">
        <ele>492</ele>
        <time>2024-09-01T08:17:07Z</time>
      </trkpt>
      <trkpt lat="47.05315" lon="6.01854">
        <ele>492</ele>
        <time>2024-09-01T08:17:08Z</time>
      </trkpt>
      <trkpt lat="47.05315" lon="6.01854">
        <ele>492</ele>
        <time>2024-09-01T08:17:09Z</time>
      </trkpt>
      <trkpt lat="47.05315" lon="6.01854">
        <ele>492</ele>
        <time>2024-09-01T08:17:10Z</time>
      </trkpt>
      <trkpt lat="47.05315" lon="6.01854">
        <ele>492</ele>
        <time>2024-09-01T08:17:11Z</time>
      </trkpt>
      <trkpt lat="47.05315" lon="6.01854">
        <ele>492</ele>
        <time>2024-09-01T08:17:12Z</time>
      </trkpt>
      <trkpt lat="47.05315" lon="6.01854">
        <ele>492</ele>
        <time>2024-09-01T08:17:13Z</time>
      </trkpt>
      <trkpt lat="47.05315" lon="6.01854">
        <ele>491.8</ele>
        <time>2024-09-01T08:17:14Z</time>
      </trkpt>
      <trkpt lat="47.05315" lon="6.01854">
        <ele>492</ele>
        <time>2024-09-01T08:17:15Z</time>
      </trkpt>
      <trkpt lat="47.05315" lon="6.01854">
        <ele>491.8</ele>
        <time>2024-09-01T08:17:16Z</time>
      </trkpt>
      <trkpt lat="47.05315" lon="6.01854">
        <ele>491.8</ele>
        <time>2024-09-01T08:17:17Z</time>
      </trkpt>
      <trkpt lat="47.05315" lon="6.01854">
        <ele>491.8</ele>
        <time>2024-09-01T08:17:18Z</time>
      </trkpt>
      <trkpt lat="47.05315" lon="6.01854">
        <ele>492</ele>
        <time>2024-09-01T08:17:19Z</time>
      </trkpt>
      <trkpt lat="47.05314" lon="6.01853">
        <ele>491.8</ele>
        <time>2024-09-01T08:17:20Z</time>
      </trkpt>
      <trkpt lat="47.05314" lon="6.01853">
        <ele>491.8</ele>
        <time>2024-09-01T08:17:21Z</time>
      </trkpt>
      <trkpt lat="47.05314" lon="6.01853">
        <ele>491.8</ele>
        <time>2024-09-01T08:17:22Z</time>
      </trkpt>
      <trkpt lat="47.05314" lon="6.01853">
        <ele>491.8</ele>
        <time>2024-09-01T08:17:23Z</time>
      </trkpt>
      <trkpt lat="47.05314" lon="6.01853">
        <ele>491.8</ele>
        <time>2024-09-01T08:17:24Z</time>
      </trkpt>
      <trkpt lat="47.05314" lon="6.01853">
        <ele>491.8</ele>
        <time>2024-09-01T08:17:25Z</time>
      </trkpt>
      <trkpt lat="47.05314" lon="6.01853">
        <ele>491.8</ele>
        <time>2024-09-01T08:17:26Z</time>
      </trkpt>
      <trkpt lat="47.05315" lon="6.01853">
        <ele>491.8</ele>
        <time>2024-09-01T08:17:27Z</time>
      </trkpt>
      <trkpt lat="47.05314" lon="6.01853">
        <ele>491.8</ele>
        <time>2024-09-01T08:17:28Z</time>
      </trkpt>
      <trkpt lat="47.05314" lon="6.01853">
        <ele>491.8</ele>
        <time>2024-09-01T08:17:29Z</time>
      </trkpt>
      <trkpt lat="47.05314" lon="6.01853">
        <ele>491.8</ele>
        <time>2024-09-01T08:17:30Z</time>
      </trkpt>
      <trkpt lat="47.05315" lon="6.01853">
        <ele>491.8</ele>
        <time>2024-09-01T08:17:31Z</time>
      </trkpt>
      <trkpt lat="47.05315" lon="6.01853">
        <ele>491.8</ele>
        <time>2024-09-01T08:17:32Z</time>
      </trkpt>
      <trkpt lat="47.05315" lon="6.01853">
        <ele>491.8</ele>
        <time>2024-09-01T08:17:33Z</time>
      </trkpt>
      <trkpt lat="47.05315" lon="6.01853">
        <ele>491.6</ele>
        <time>2024-09-01T08:17:34Z</time>
      </trkpt>
      <trkpt lat="47.05314" lon="6.01853">
        <ele>491.8</ele>
        <time>2024-09-01T08:17:35Z</time>
      </trkpt>
      <trkpt lat="47.05315" lon="6.01853">
        <ele>491.8</ele>
        <time>2024-09-01T08:17:36Z</time>
      </trkpt>
      <trkpt lat="47.05315" lon="6.01853">
        <ele>491.8</ele>
        <time>2024-09-01T08:17:37Z</time>
      </trkpt>
      <trkpt lat="47.05315" lon="6.01852">
        <ele>491.6</ele>
        <time>2024-09-01T08:17:38Z</time>
      </trkpt>
      <trkpt lat="47.05315" lon="6.01852">
        <ele>491.8</ele>
        <time>2024-09-01T08:17:39Z</time>
      </trkpt>
      <trkpt lat="47.05315" lon="6.01852">
        <ele>491.8</ele>
        <time>2024-09-01T08:17:40Z</time>
      </trkpt>
      <trkpt lat="47.05315" lon="6.01852">
        <ele>491.6</ele>
        <time>2024-09-01T08:17:41Z</time>
      </trkpt>
      <trkpt lat="47.05315" lon="6.01852">
        <ele>491.8</ele>
        <time>2024-09-01T08:17:42Z</time>
      </trkpt>
      <trkpt lat="47.05315" lon="6.01852">
        <ele>491.6</ele>
        <time>2024-09-01T08:17:43Z</time>
      </trkpt>
      <trkpt lat="47.05315" lon="6.01852">
        <ele>491.8</ele>
        <time>2024-09-01T08:17:44Z</time>
      </trkpt>
      <trkpt lat="47.05315" lon="6.01852">
        <ele>491.8</ele>
        <time>2024-09-01T08:17:45Z</time>
      </trkpt>
      <trkpt lat="47.05315" lon="6.01852">
        <ele>491.8</ele>
        <time>2024-09-01T08:17:46Z</time>
      </trkpt>
      <trkpt lat="47.05315" lon="6.01852">
        <ele>492</ele>
        <time>2024-09-01T08:17:47Z</time>
      </trkpt>
      <trkpt lat="47.05315" lon="6.01852">
        <ele>492</ele>
        <time>2024-09-01T08:17:48Z</time>
      </trkpt>
      <trkpt lat="47.05315" lon="6.01852">
        <ele>492</ele>
        <time>2024-09-01T08:17:49Z</time>
      </trkpt>
      <trkpt lat="47.05315" lon="6.01852">
        <ele>492.2</ele>
        <time>2024-09-01T08:17:50Z</time>
      </trkpt>
      <trkpt lat="47.05315" lon="6.01852">
        <ele>492</ele>
        <time>2024-09-01T08:17:51Z</time>
      </trkpt>
      <trkpt lat="47.05315" lon="6.01852">
        <ele>492</ele>
        <time>2024-09-01T08:17:52Z</time>
      </trkpt>
      <trkpt lat="47.05315" lon="6.01853">
        <ele>492</ele>
        <time>2024-09-01T08:17:53Z</time>
      </trkpt>
      <trkpt lat="47.05315" lon="6.01853">
        <ele>492.2</ele>
        <time>2024-09-01T08:17:54Z</time>
      </trkpt>
      <trkpt lat="47.05315" lon="6.01853">
        <ele>492.2</ele>
        <time>2024-09-01T08:17:55Z</time>
      </trkpt>
      <trkpt lat="47.05315" lon="6.01853">
        <ele>492</ele>
        <time>2024-09-01T08:17:56Z</time>
      </trkpt>
      <trkpt lat="47.05315" lon="6.01854">
        <ele>492</ele>
        <time>2024-09-01T08:17:57Z</time>
      </trkpt>
      <trkpt lat="47.05315" lon="6.01854">
        <ele>492</ele>
        <time>2024-09-01T08:17:58Z</time>
      </trkpt>
      <trkpt lat="47.05315" lon="6.01854">
        <ele>492</ele>
        <time>2024-09-01T08:17:59Z</time>
      </trkpt>
      <trkpt lat="47.05315" lon="6.01854">
        <ele>492</ele>
        <time>2024-09-01T08:18:00Z</time>
      </trkpt>
      <trkpt lat="47.05315" lon="6.01854">
        <ele>492</ele>
        <time>2024-09-01T08:18:01Z</time>
      </trkpt>
      <trkpt lat="47.05315" lon="6.01854">
        <ele>492.2</ele>
        <time>2024-09-01T08:18:02Z</time>
      </trkpt>
      <trkpt lat="47.05315" lon="6.01855">
        <ele>492</ele>
        <time>2024-09-01T08:18:03Z</time>
      </trkpt>
      <trkpt lat="47.05315" lon="6.01855">
        <ele>492.2</ele>
        <time>2024-09-01T08:18:04Z</time>
      </trkpt>
      <trkpt lat="47.05315" lon="6.01856">
        <ele>492.2</ele>
        <time>2024-09-01T08:18:05Z</time>
      </trkpt>
      <trkpt lat="47.05315" lon="6.01856">
        <ele>492.2</ele>
        <time>2024-09-01T08:18:06Z</time>
      </trkpt>
      <trkpt lat="47.05315" lon="6.01857">
        <ele>492</ele>
        <time>2024-09-01T08:18:07Z</time>
      </trkpt>
      <trkpt lat="47.05315" lon="6.01857">
        <ele>492</ele>
        <time>2024-09-01T08:18:08Z</time>
      </trkpt>
      <trkpt lat="47.05315" lon="6.01857">
        <ele>492</ele>
        <time>2024-09-01T08:18:09Z</time>
      </trkpt>
      <trkpt lat="47.05315" lon="6.01857">
        <ele>492</ele>
        <time>2024-09-01T08:18:10Z</time>
      </trkpt>
      <trkpt lat="47.05315" lon="6.01857">
        <ele>492</ele>
        <time>2024-09-01T08:18:11Z</time>
      </trkpt>
      <trkpt lat="47.05315" lon="6.01857">
        <ele>492.2</ele>
        <time>2024-09-01T08:18:12Z</time>
      </trkpt>
      <trkpt lat="47.05315" lon="6.01857">
        <ele>492.2</ele>
        <time>2024-09-01T08:18:13Z</time>
      </trkpt>
      <trkpt lat="47.05315" lon="6.01858">
        <ele>492.2</ele>
        <time>2024-09-01T08:18:14Z</time>
      </trkpt>
      <trkpt lat="47.05315" lon="6.01858">
        <ele>492</ele>
        <time>2024-09-01T08:18:15Z</time>
      </trkpt>
      <trkpt lat="47.05315" lon="6.01858">
        <ele>492</ele>
        <time>2024-09-01T08:18:16Z</time>
      </trkpt>
      <trkpt lat="47.05315" lon="6.01857">
        <ele>492</ele>
        <time>2024-09-01T08:18:17Z</time>
      </trkpt>
      <trkpt lat="47.05315" lon="6.01857">
        <ele>492</ele>
        <time>2024-09-01T08:18:18Z</time>
      </trkpt>
      <trkpt lat="47.05315" lon="6.01857">
        <ele>492</ele>
        <time>2024-09-01T08:18:19Z</time>
      </trkpt>
      <trkpt lat="47.05315" lon="6.01857">
        <ele>492</ele>
        <time>2024-09-01T08:18:20Z</time>
      </trkpt>
      <trkpt lat="47.05315" lon="6.01857">
        <ele>492</ele>
        <time>2024-09-01T08:18:21Z</time>
      </trkpt>
      <trkpt lat="47.05315" lon="6.01857">
        <ele>492</ele>
        <time>2024-09-01T08:18:22Z</time>
      </trkpt>
      <trkpt lat="47.05315" lon="6.01857">
        <ele>492</ele>
        <time>2024-09-01T08:18:23Z</time>
      </trkpt>
      <trkpt lat="47.05315" lon="6.01857">
        <ele>492</ele>
        <time>2024-09-01T08:18:24Z</time>
      </trkpt>
      <trkpt lat="47.05315" lon="6.01857">
        <ele>492</ele>
        <time>2024-09-01T08:18:25Z</time>
      </trkpt>
      <trkpt lat="47.05315" lon="6.01857">
        <ele>492</ele>
        <time>2024-09-01T08:18:26Z</time>
      </trkpt>
      <trkpt lat="47.05315" lon="6.01857">
        <ele>492</ele>
        <time>2024-09-01T08:18:27Z</time>
      </trkpt>
      <trkpt lat="47.05315" lon="6.01857">
        <ele>492</ele>
        <time>2024-09-01T08:18:28Z</time>
      </trkpt>
      <trkpt lat="47.05315" lon="6.01857">
        <ele>492</ele>
        <time>2024-09-01T08:18:29Z</time>
      </trkpt>
      <trkpt lat="47.05315" lon="6.01857">
        <ele>492</ele>
        <time>2024-09-01T08:18:30Z</time>
      </trkpt>
      <trkpt lat="47.05315" lon="6.01858">
        <ele>492</ele>
        <time>2024-09-01T08:18:31Z</time>
      </trkpt>
      <trkpt lat="47.05315" lon="6.01857">
        <ele>492</ele>
        <time>2024-09-01T08:18:32Z</time>
      </trkpt>
      <trkpt lat="47.05315" lon="6.01858">
        <ele>492.2</ele>
        <time>2024-09-01T08:18:33Z</time>
      </trkpt>
      <trkpt lat="47.05315" lon="6.01858">
        <ele>492.2</ele>
        <time>2024-09-01T08:18:34Z</time>
      </trkpt>
      <trkpt lat="47.05315" lon="6.01858">
        <ele>492.2</ele>
        <time>2024-09-01T08:18:35Z</time>
      </trkpt>
      <trkpt lat="47.05315" lon="6.01858">
        <ele>492</ele>
        <time>2024-09-01T08:18:36Z</time>
      </trkpt>
      <trkpt lat="47.05315" lon="6.01858">
        <ele>492</ele>
        <time>2024-09-01T08:18:37Z</time>
      </trkpt>
      <trkpt lat="47.05315" lon="6.01858">
        <ele>492</ele>
        <time>2024-09-01T08:18:38Z</time>
      </trkpt>
      <trkpt lat="47.05316" lon="6.01858">
        <ele>492.2</ele>
        <time>2024-09-01T08:18:39Z</time>
      </trkpt>
      <trkpt lat="47.05315" lon="6.01858">
        <ele>492.2</ele>
        <time>2024-09-01T08:18:40Z</time>
      </trkpt>
      <trkpt lat="47.05315" lon="6.01858">
        <ele>492</ele>
        <time>2024-09-01T08:18:41Z</time>
      </trkpt>
      <trkpt lat="47.05315" lon="6.01858">
        <ele>492</ele>
        <time>2024-09-01T08:18:42Z</time>
      </trkpt>
      <trkpt lat="47.05315" lon="6.01858">
        <ele>492.2</ele>
        <time>2024-09-01T08:18:43Z</time>
      </trkpt>
      <trkpt lat="47.05315" lon="6.01858">
        <ele>492.2</ele>
        <time>2024-09-01T08:18:44Z</time>
      </trkpt>
      <trkpt lat="47.05315" lon="6.01858">
        <ele>492.2</ele>
        <time>2024-09-01T08:18:45Z</time>
      </trkpt>
      <trkpt lat="47.05315" lon="6.01858">
        <ele>492.2</ele>
        <time>2024-09-01T08:18:46Z</time>
      </trkpt>
      <trkpt lat="47.05315" lon="6.01858">
        <ele>492.2</ele>
        <time>2024-09-01T08:18:47Z</time>
      </trkpt>
      <trkpt lat="47.05315" lon="6.01859">
        <ele>492</ele>
        <time>2024-09-01T08:18:48Z</time>
      </trkpt>
      <trkpt lat="47.05315" lon="6.01859">
        <ele>492</ele>
        <time>2024-09-01T08:18:49Z</time>
      </trkpt>
      <trkpt lat="47.05316" lon="6.01859">
        <ele>492</ele>
        <time>2024-09-01T08:18:50Z</time>
      </trkpt>
      <trkpt lat="47.05316" lon="6.01859">
        <ele>492</ele>
        <time>2024-09-01T08:18:51Z</time>
      </trkpt>
      <trkpt lat="47.05316" lon="6.01859">
        <ele>492.2</ele>
        <time>2024-09-01T08:18:52Z</time>
      </trkpt>
      <trkpt lat="47.05316" lon="6.01859">
        <ele>492</ele>
        <time>2024-09-01T08:18:53Z</time>
      </trkpt>
      <trkpt lat="47.05316" lon="6.01859">
        <ele>492</ele>
        <time>2024-09-01T08:18:54Z</time>
      </trkpt>
      <trkpt lat="47.05316" lon="6.01859">
        <ele>491.8</ele>
        <time>2024-09-01T08:18:55Z</time>
      </trkpt>
      <trkpt lat="47.05316" lon="6.01859">
        <ele>491.8</ele>
        <time>2024-09-01T08:18:56Z</time>
      </trkpt>
      <trkpt lat="47.05316" lon="6.01859">
        <ele>491.8</ele>
        <time>2024-09-01T08:18:57Z</time>
      </trkpt>
      <trkpt lat="47.05316" lon="6.01859">
        <ele>492</ele>
        <time>2024-09-01T08:18:58Z</time>
      </trkpt>
      <trkpt lat="47.05316" lon="6.01859">
        <ele>492</ele>
        <time>2024-09-01T08:18:59Z</time>
      </trkpt>
      <trkpt lat="47.05316" lon="6.01859">
        <ele>491.8</ele>
        <time>2024-09-01T08:19:00Z</time>
      </trkpt>
      <trkpt lat="47.05316" lon="6.01859">
        <ele>491.8</ele>
        <time>2024-09-01T08:19:01Z</time>
      </trkpt>
      <trkpt lat="47.05316" lon="6.01859">
        <ele>492</ele>
        <time>2024-09-01T08:19:02Z</time>
      </trkpt>
      <trkpt lat="47.05316" lon="6.01859">
        <ele>492</ele>
        <time>2024-09-01T08:19:03Z</time>
      </trkpt>
      <trkpt lat="47.05316" lon="6.01859">
        <ele>492</ele>
        <time>2024-09-01T08:19:04Z</time>
      </trkpt>
      <trkpt lat="47.05316" lon="6.01859">
        <ele>492</ele>
        <time>2024-09-01T08:19:05Z</time>
      </trkpt>
      <trkpt lat="47.05316" lon="6.01859">
        <ele>492</ele>
        <time>2024-09-01T08:19:06Z</time>
      </trkpt>
      <trkpt lat="47.05316" lon="6.01859">
        <ele>491.8</ele>
        <time>2024-09-01T08:19:07Z</time>
      </trkpt>
      <trkpt lat="47.05316" lon="6.01859">
        <ele>491.8</ele>
        <time>2024-09-01T08:19:08Z</time>
      </trkpt>
      <trkpt lat="47.05316" lon="6.01859">
        <ele>492</ele>
        <time>2024-09-01T08:19:09Z</time>
      </trkpt>
      <trkpt lat="47.05316" lon="6.01859">
        <ele>492</ele>
        <time>2024-09-01T08:19:10Z</time>
      </trkpt>
      <trkpt lat="47.05317" lon="6.01859">
        <ele>491.8</ele>
        <time>2024-09-01T08:19:11Z</time>
      </trkpt>
      <trkpt lat="47.05317" lon="6.01859">
        <ele>491.8</ele>
        <time>2024-09-01T08:19:12Z</time>
      </trkpt>
      <trkpt lat="47.05317" lon="6.01859">
        <ele>492</ele>
        <time>2024-09-01T08:19:13Z</time>
      </trkpt>
      <trkpt lat="47.05317" lon="6.01859">
        <ele>491.8</ele>
        <time>2024-09-01T08:19:14Z</time>
      </trkpt>
      <trkpt lat="47.05317" lon="6.01859">
        <ele>491.8</ele>
        <time>2024-09-01T08:19:15Z</time>
      </trkpt>
      <trkpt lat="47.05317" lon="6.01859">
        <ele>491.8</ele>
        <time>2024-09-01T08:19:16Z</time>
      </trkpt>
      <trkpt lat="47.05317" lon="6.01859">
        <ele>491.8</ele>
        <time>2024-09-01T08:19:17Z</time>
      </trkpt>
      <trkpt lat="47.05317" lon="6.01859">
        <ele>491.8</ele>
        <time>2024-09-01T08:19:18Z</time>
      </trkpt>
      <trkpt lat="47.05317" lon="6.01859">
        <ele>492</ele>
        <time>2024-09-01T08:19:19Z</time>
      </trkpt>
      <trkpt lat="47.05317" lon="6.01859">
        <ele>492</ele>
        <time>2024-09-01T08:19:20Z</time>
      </trkpt>
      <trkpt lat="47.05317" lon="6.01859">
        <ele>492</ele>
        <time>2024-09-01T08:19:21Z</time>
      </trkpt>
      <trkpt lat="47.05318" lon="6.01859">
        <ele>492</ele>
        <time>2024-09-01T08:19:22Z</time>
      </trkpt>
      <trkpt lat="47.05318" lon="6.01859">
        <ele>492</ele>
        <time>2024-09-01T08:19:23Z</time>
      </trkpt>
      <trkpt lat="47.05318" lon="6.01859">
        <ele>491.8</ele>
        <time>2024-09-01T08:19:24Z</time>
      </trkpt>
      <trkpt lat="47.05318" lon="6.01859">
        <ele>491.8</ele>
        <time>2024-09-01T08:19:25Z</time>
      </trkpt>
      <trkpt lat="47.05319" lon="6.01859">
        <ele>491.8</ele>
        <time>2024-09-01T08:19:26Z</time>
      </trkpt>
      <trkpt lat="47.05319" lon="6.01859">
        <ele>492</ele>
        <time>2024-09-01T08:19:27Z</time>
      </trkpt>
      <trkpt lat="47.05319" lon="6.01859">
        <ele>492</ele>
        <time>2024-09-01T08:19:28Z</time>
      </trkpt>
      <trkpt lat="47.05319" lon="6.01859">
        <ele>491.8</ele>
        <time>2024-09-01T08:19:29Z</time>
      </trkpt>
      <trkpt lat="47.05319" lon="6.01859">
        <ele>492</ele>
        <time>2024-09-01T08:19:30Z</time>
      </trkpt>
      <trkpt lat="47.05319" lon="6.01859">
        <ele>492</ele>
        <time>2024-09-01T08:19:31Z</time>
      </trkpt>
      <trkpt lat="47.05319" lon="6.01859">
        <ele>492</ele>
        <time>2024-09-01T08:19:32Z</time>
      </trkpt>
      <trkpt lat="47.05319" lon="6.01859">
        <ele>492</ele>
        <time>2024-09-01T08:19:33Z</time>
      </trkpt>
      <trkpt lat="47.05319" lon="6.01859">
        <ele>492</ele>
        <time>2024-09-01T08:19:34Z</time>
      </trkpt>
      <trkpt lat="47.0532" lon="6.01859">
        <ele>492</ele>
        <time>2024-09-01T08:19:35Z</time>
      </trkpt>
      <trkpt lat="47.0532" lon="6.01859">
        <ele>492</ele>
        <time>2024-09-01T08:19:36Z</time>
      </trkpt>
      <trkpt lat="47.0532" lon="6.01859">
        <ele>492</ele>
        <time>2024-09-01T08:19:37Z</time>
      </trkpt>
      <trkpt lat="47.0532" lon="6.01859">
        <ele>492.2</ele>
        <time>2024-09-01T08:19:38Z</time>
      </trkpt>
      <trkpt lat="47.0532" lon="6.01859">
        <ele>492</ele>
        <time>2024-09-01T08:19:39Z</time>
      </trkpt>
      <trkpt lat="47.0532" lon="6.01859">
        <ele>492</ele>
        <time>2024-09-01T08:19:40Z</time>
      </trkpt>
      <trkpt lat="47.0532" lon="6.01858">
        <ele>492</ele>
        <time>2024-09-01T08:19:41Z</time>
      </trkpt>
      <trkpt lat="47.0532" lon="6.01858">
        <ele>492</ele>
        <time>2024-09-01T08:19:42Z</time>
      </trkpt>
      <trkpt lat="47.05321" lon="6.01858">
        <ele>492.2</ele>
        <time>2024-09-01T08:19:43Z</time>
      </trkpt>
      <trkpt lat="47.05321" lon="6.01858">
        <ele>492</ele>
        <time>2024-09-01T08:19:44Z</time>
      </trkpt>
      <trkpt lat="47.0532" lon="6.01858">
        <ele>492.2</ele>
        <time>2024-09-01T08:19:45Z</time>
      </trkpt>
      <trkpt lat="47.0532" lon="6.01857">
        <ele>492</ele>
        <time>2024-09-01T08:19:46Z</time>
      </trkpt>
      <trkpt lat="47.0532" lon="6.01856">
        <ele>492.2</ele>
        <time>2024-09-01T08:19:47Z</time>
      </trkpt>
      <trkpt lat="47.0532" lon="6.01855">
        <ele>492</ele>
        <time>2024-09-01T08:19:48Z</time>
      </trkpt>
      <trkpt lat="47.05319" lon="6.01855">
        <ele>492</ele>
        <time>2024-09-01T08:19:49Z</time>
      </trkpt>
      <trkpt lat="47.05319" lon="6.01854">
        <ele>492.2</ele>
        <time>2024-09-01T08:19:50Z</time>
      </trkpt>
      <trkpt lat="47.05318" lon="6.01853">
        <ele>492</ele>
        <time>2024-09-01T08:19:51Z</time>
      </trkpt>
      <trkpt lat="47.05318" lon="6.01853">
        <ele>492</ele>
        <time>2024-09-01T08:19:52Z</time>
      </trkpt>
      <trkpt lat="47.05317" lon="6.01853">
        <ele>492</ele>
        <time>2024-09-01T08:19:53Z</time>
      </trkpt>
      <trkpt lat="47.05317" lon="6.01853">
        <ele>492</ele>
        <time>2024-09-01T08:19:54Z</time>
      </trkpt>
      <trkpt lat="47.05317" lon="6.01853">
        <ele>492.2</ele>
        <time>2024-09-01T08:19:55Z</time>
      </trkpt>
      <trkpt lat="47.05317" lon="6.01852">
        <ele>492</ele>
        <time>2024-09-01T08:19:56Z</time>
      </trkpt>
      <trkpt lat="47.05316" lon="6.01852">
        <ele>492</ele>
        <time>2024-09-01T08:19:57Z</time>
      </trkpt>
      <trkpt lat="47.05316" lon="6.01852">
        <ele>492.2</ele>
        <time>2024-09-01T08:19:58Z</time>
      </trkpt>
      <trkpt lat="47.05316" lon="6.01852">
        <ele>492</ele>
        <time>2024-09-01T08:19:59Z</time>
      </trkpt>
      <trkpt lat="47.05316" lon="6.01852">
        <ele>492</ele>
        <time>2024-09-01T08:20:00Z</time>
      </trkpt>
      <trkpt lat="47.05316" lon="6.01852">
        <ele>492</ele>
        <time>2024-09-01T08:20:01Z</time>
      </trkpt>
      <trkpt lat="47.05316" lon="6.01852">
        <ele>492</ele>
        <time>2024-09-01T08:20:02Z</time>
      </trkpt>
      <trkpt lat="47.05316" lon="6.01852">
        <ele>492</ele>
        <time>2024-09-01T08:20:03Z</time>
      </trkpt>
      <trkpt lat="47.05316" lon="6.01852">
        <ele>492</ele>
        <time>2024-09-01T08:20:04Z</time>
      </trkpt>
      <trkpt lat="47.05316" lon="6.01852">
        <ele>492</ele>
        <time>2024-09-01T08:20:05Z</time>
      </trkpt>
      <trkpt lat="47.05316" lon="6.01852">
        <ele>492</ele>
        <time>2024-09-01T08:20:06Z</time>
      </trkpt>
      <trkpt lat="47.05316" lon="6.01852">
        <ele>492</ele>
        <time>2024-09-01T08:20:07Z</time>
      </trkpt>
      <trkpt lat="47.05316" lon="6.01852">
        <ele>492</ele>
        <time>2024-09-01T08:20:08Z</time>
      </trkpt>
      <trkpt lat="47.05316" lon="6.01852">
        <ele>492</ele>
        <time>2024-09-01T08:20:09Z</time>
      </trkpt>
      <trkpt lat="47.05316" lon="6.01851">
        <ele>492</ele>
        <time>2024-09-01T08:20:10Z</time>
      </trkpt>
      <trkpt lat="47.05316" lon="6.01851">
        <ele>492</ele>
        <time>2024-09-01T08:20:11Z</time>
      </trkpt>
      <trkpt lat="47.05316" lon="6.01851">
        <ele>492</ele>
        <time>2024-09-01T08:20:12Z</time>
      </trkpt>
      <trkpt lat="47.05316" lon="6.01851">
        <ele>492</ele>
        <time>2024-09-01T08:20:13Z</time>
      </trkpt>
      <trkpt lat="47.05316" lon="6.01851">
        <ele>492</ele>
        <time>2024-09-01T08:20:14Z</time>
      </trkpt>
      <trkpt lat="47.05316" lon="6.01851">
        <ele>491.8</ele>
        <time>2024-09-01T08:20:15Z</time>
      </trkpt>
      <trkpt lat="47.05316" lon="6.01851">
        <ele>491.8</ele>
        <time>2024-09-01T08:20:16Z</time>
      </trkpt>
      <trkpt lat="47.05316" lon="6.01851">
        <ele>492</ele>
        <time>2024-09-01T08:20:17Z</time>
      </trkpt>
      <trkpt lat="47.05316" lon="6.01851">
        <ele>492</ele>
        <time>2024-09-01T08:20:18Z</time>
      </trkpt>
      <trkpt lat="47.05316" lon="6.01851">
        <ele>492</ele>
        <time>2024-09-01T08:20:19Z</time>
      </trkpt>
      <trkpt lat="47.05316" lon="6.01851">
        <ele>492</ele>
        <time>2024-09-01T08:20:20Z</time>
      </trkpt>
      <trkpt lat="47.05316" lon="6.01851">
        <ele>492</ele>
        <time>2024-09-01T08:20:21Z</time>
      </trkpt>
      <trkpt lat="47.05316" lon="6.01851">
        <ele>492</ele>
        <time>2024-09-01T08:20:22Z</time>
      </trkpt>
      <trkpt lat="47.05316" lon="6.01851">
        <ele>492</ele>
        <time>2024-09-01T08:20:23Z</time>
      </trkpt>
      <trkpt lat="47.05316" lon="6.01851">
        <ele>492</ele>
        <time>2024-09-01T08:20:24Z</time>
      </trkpt>
      <trkpt lat="47.05317" lon="6.01851">
        <ele>492</ele>
        <time>2024-09-01T08:20:25Z</time>
      </trkpt>
      <trkpt lat="47.05317" lon="6.0185">
        <ele>492</ele>
        <time>2024-09-01T08:20:26Z</time>
      </trkpt>
      <trkpt lat="47.05317" lon="6.01849">
        <ele>492</ele>
        <time>2024-09-01T08:20:27Z</time>
      </trkpt>
      <trkpt lat="47.05317" lon="6.01849">
        <ele>492</ele>
        <time>2024-09-01T08:20:28Z</time>
      </trkpt>
      <trkpt lat="47.05317" lon="6.01849">
        <ele>492</ele>
        <time>2024-09-01T08:20:29Z</time>
      </trkpt>
      <trkpt lat="47.05317" lon="6.01849">
        <ele>492</ele>
        <time>2024-09-01T08:20:30Z</time>
      </trkpt>
      <trkpt lat="47.05317" lon="6.01849">
        <ele>492</ele>
        <time>2024-09-01T08:20:31Z</time>
      </trkpt>
      <trkpt lat="47.05317" lon="6.01849">
        <ele>492</ele>
        <time>2024-09-01T08:20:32Z</time>
      </trkpt>
      <trkpt lat="47.05317" lon="6.0185">
        <ele>492</ele>
        <time>2024-09-01T08:20:33Z</time>
      </trkpt>
      <trkpt lat="47.05317" lon="6.0185">
        <ele>492</ele>
        <time>2024-09-01T08:20:34Z</time>
      </trkpt>
      <trkpt lat="47.05317" lon="6.0185">
        <ele>492</ele>
        <time>2024-09-01T08:20:35Z</time>
      </trkpt>
      <trkpt lat="47.05317" lon="6.0185">
        <ele>492</ele>
        <time>2024-09-01T08:20:36Z</time>
      </trkpt>
      <trkpt lat="47.05317" lon="6.01851">
        <ele>492</ele>
        <time>2024-09-01T08:20:37Z</time>
      </trkpt>
      <trkpt lat="47.05316" lon="6.01851">
        <ele>491.8</ele>
        <time>2024-09-01T08:20:38Z</time>
      </trkpt>
      <trkpt lat="47.05316" lon="6.01851">
        <ele>492</ele>
        <time>2024-09-01T08:20:39Z</time>
      </trkpt>
      <trkpt lat="47.05316" lon="6.01851">
        <ele>491.8</ele>
        <time>2024-09-01T08:20:40Z</time>
      </trkpt>
      <trkpt lat="47.05316" lon="6.01851">
        <ele>491.8</ele>
        <time>2024-09-01T08:20:41Z</time>
      </trkpt>
      <trkpt lat="47.05316" lon="6.01851">
        <ele>491.8</ele>
        <time>2024-09-01T08:20:42Z</time>
      </trkpt>
      <trkpt lat="47.05315" lon="6.01852">
        <ele>492</ele>
        <time>2024-09-01T08:20:43Z</time>
      </trkpt>
      <trkpt lat="47.05315" lon="6.01852">
        <ele>492</ele>
        <time>2024-09-01T08:20:44Z</time>
      </trkpt>
      <trkpt lat="47.05315" lon="6.01852">
        <ele>491.8</ele>
        <time>2024-09-01T08:20:45Z</time>
      </trkpt>
      <trkpt lat="47.05315" lon="6.01852">
        <ele>491.8</ele>
        <time>2024-09-01T08:20:46Z</time>
      </trkpt>
      <trkpt lat="47.05315" lon="6.01852">
        <ele>491.8</ele>
        <time>2024-09-01T08:20:47Z</time>
      </trkpt>
      <trkpt lat="47.05314" lon="6.01852">
        <ele>492</ele>
        <time>2024-09-01T08:20:48Z</time>
      </trkpt>
      <trkpt lat="47.05314" lon="6.01852">
        <ele>492</ele>
        <time>2024-09-01T08:20:49Z</time>
      </trkpt>
      <trkpt lat="47.05313" lon="6.01853">
        <ele>491.8</ele>
        <time>2024-09-01T08:20:50Z</time>
      </trkpt>
      <trkpt lat="47.05313" lon="6.01853">
        <ele>492</ele>
        <time>2024-09-01T08:20:51Z</time>
      </trkpt>
      <trkpt lat="47.05312" lon="6.01854">
        <ele>491.8</ele>
        <time>2024-09-01T08:20:52Z</time>
      </trkpt>
      <trkpt lat="47.05311" lon="6.01854">
        <ele>492</ele>
        <time>2024-09-01T08:20:53Z</time>
      </trkpt>
      <trkpt lat="47.05311" lon="6.01854">
        <ele>492</ele>
        <time>2024-09-01T08:20:54Z</time>
      </trkpt>
      <trkpt lat="47.05311" lon="6.01855">
        <ele>492</ele>
        <time>2024-09-01T08:20:55Z</time>
      </trkpt>
      <trkpt lat="47.05311" lon="6.01855">
        <ele>491.8</ele>
        <time>2024-09-01T08:20:56Z</time>
      </trkpt>
      <trkpt lat="47.05311" lon="6.01854">
        <ele>491.8</ele>
        <time>2024-09-01T08:20:57Z</time>
      </trkpt>
      <trkpt lat="47.05311" lon="6.01854">
        <ele>492</ele>
        <time>2024-09-01T08:20:58Z</time>
      </trkpt>
      <trkpt lat="47.05311" lon="6.01854">
        <ele>492</ele>
        <time>2024-09-01T08:20:59Z</time>
      </trkpt>
      <trkpt lat="47.05311" lon="6.01854">
        <ele>491.8</ele>
        <time>2024-09-01T08:21:00Z</time>
      </trkpt>
      <trkpt lat="47.05311" lon="6.01854">
        <ele>491.8</ele>
        <time>2024-09-01T08:21:01Z</time>
      </trkpt>
      <trkpt lat="47.05311" lon="6.01854">
        <ele>492</ele>
        <time>2024-09-01T08:21:02Z</time>
      </trkpt>
      <trkpt lat="47.05311" lon="6.01854">
        <ele>491.8</ele>
        <time>2024-09-01T08:21:03Z</time>
      </trkpt>
      <trkpt lat="47.05311" lon="6.01854">
        <ele>492</ele>
        <time>2024-09-01T08:21:04Z</time>
      </trkpt>
      <trkpt lat="47.05311" lon="6.01854">
        <ele>492</ele>
        <time>2024-09-01T08:21:05Z</time>
      </trkpt>
      <trkpt lat="47.05311" lon="6.01854">
        <ele>492</ele>
        <time>2024-09-01T08:21:06Z</time>
      </trkpt>
      <trkpt lat="47.05311" lon="6.01854">
        <ele>492</ele>
        <time>2024-09-01T08:21:07Z</time>
      </trkpt>
      <trkpt lat="47.05312" lon="6.01854">
        <ele>491.8</ele>
        <time>2024-09-01T08:21:08Z</time>
      </trkpt>
      <trkpt lat="47.05312" lon="6.01854">
        <ele>492</ele>
        <time>2024-09-01T08:21:09Z</time>
      </trkpt>
      <trkpt lat="47.05311" lon="6.01854">
        <ele>492</ele>
        <time>2024-09-01T08:21:10Z</time>
      </trkpt>
      <trkpt lat="47.05311" lon="6.01855">
        <ele>491.8</ele>
        <time>2024-09-01T08:21:11Z</time>
      </trkpt>
      <trkpt lat="47.05312" lon="6.01855">
        <ele>492</ele>
        <time>2024-09-01T08:21:12Z</time>
      </trkpt>
      <trkpt lat="47.05312" lon="6.01855">
        <ele>491.8</ele>
        <time>2024-09-01T08:21:13Z</time>
      </trkpt>
      <trkpt lat="47.05312" lon="6.01855">
        <ele>491.8</ele>
        <time>2024-09-01T08:21:14Z</time>
      </trkpt>
      <trkpt lat="47.05312" lon="6.01855">
        <ele>491.8</ele>
        <time>2024-09-01T08:21:15Z</time>
      </trkpt>
      <trkpt lat="47.05312" lon="6.01855">
        <ele>491.8</ele>
        <time>2024-09-01T08:21:16Z</time>
      </trkpt>
      <trkpt lat="47.05312" lon="6.01856">
        <ele>492</ele>
        <time>2024-09-01T08:21:17Z</time>
      </trkpt>
      <trkpt lat="47.05312" lon="6.01856">
        <ele>491.8</ele>
        <time>2024-09-01T08:21:18Z</time>
      </trkpt>
      <trkpt lat="47.05312" lon="6.01856">
        <ele>491.8</ele>
        <time>2024-09-01T08:21:19Z</time>
      </trkpt>
      <trkpt lat="47.05312" lon="6.01856">
        <ele>492</ele>
        <time>2024-09-01T08:21:20Z</time>
      </trkpt>
      <trkpt lat="47.05312" lon="6.01855">
        <ele>491.8</ele>
        <time>2024-09-01T08:21:21Z</time>
      </trkpt>
      <trkpt lat="47.05312" lon="6.01855">
        <ele>492</ele>
        <time>2024-09-01T08:21:22Z</time>
      </trkpt>
      <trkpt lat="47.05313" lon="6.01855">
        <ele>491.8</ele>
        <time>2024-09-01T08:21:23Z</time>
      </trkpt>
      <trkpt lat="47.05312" lon="6.01855">
        <ele>492</ele>
        <time>2024-09-01T08:21:24Z</time>
      </trkpt>
      <trkpt lat="47.05312" lon="6.01856">
        <ele>492</ele>
        <time>2024-09-01T08:21:25Z</time>
      </trkpt>
      <trkpt lat="47.05312" lon="6.01857">
        <ele>491.8</ele>
        <time>2024-09-01T08:21:26Z</time>
      </trkpt>
      <trkpt lat="47.05312" lon="6.01857">
        <ele>491.8</ele>
        <time>2024-09-01T08:21:27Z</time>
      </trkpt>
      <trkpt lat="47.05312" lon="6.01857">
        <ele>491.8</ele>
        <time>2024-09-01T08:21:28Z</time>
      </trkpt>
      <trkpt lat="47.05312" lon="6.01857">
        <ele>492</ele>
        <time>2024-09-01T08:21:29Z</time>
      </trkpt>
      <trkpt lat="47.05313" lon="6.01857">
        <ele>491.8</ele>
        <time>2024-09-01T08:21:30Z</time>
      </trkpt>
      <trkpt lat="47.05313" lon="6.01858">
        <ele>492</ele>
        <time>2024-09-01T08:21:31Z</time>
      </trkpt>
      <trkpt lat="47.05313" lon="6.01858">
        <ele>491.8</ele>
        <time>2024-09-01T08:21:32Z</time>
      </trkpt>
      <trkpt lat="47.05313" lon="6.01858">
        <ele>492</ele>
        <time>2024-09-01T08:21:33Z</time>
      </trkpt>
      <trkpt lat="47.05313" lon="6.01858">
        <ele>491.8</ele>
        <time>2024-09-01T08:21:34Z</time>
      </trkpt>
      <trkpt lat="47.05313" lon="6.01858">
        <ele>491.8</ele>
        <time>2024-09-01T08:21:35Z</time>
      </trkpt>
      <trkpt lat="47.05313" lon="6.01858">
        <ele>491.8</ele>
        <time>2024-09-01T08:21:36Z</time>
      </trkpt>
      <trkpt lat="47.05313" lon="6.01858">
        <ele>491.8</ele>
        <time>2024-09-01T08:21:37Z</time>
      </trkpt>
      <trkpt lat="47.05312" lon="6.01858">
        <ele>491.8</ele>
        <time>2024-09-01T08:21:38Z</time>
      </trkpt>
      <trkpt lat="47.05312" lon="6.01858">
        <ele>492</ele>
        <time>2024-09-01T08:21:39Z</time>
      </trkpt>
      <trkpt lat="47.05313" lon="6.01858">
        <ele>491.8</ele>
        <time>2024-09-01T08:21:40Z</time>
      </trkpt>
      <trkpt lat="47.05313" lon="6.01858">
        <ele>491.8</ele>
        <time>2024-09-01T08:21:41Z</time>
      </trkpt>
      <trkpt lat="47.05313" lon="6.01858">
        <ele>492</ele>
        <time>2024-09-01T08:21:42Z</time>
      </trkpt>
      <trkpt lat="47.05313" lon="6.01858">
        <ele>491.8</ele>
        <time>2024-09-01T08:21:43Z</time>
      </trkpt>
      <trkpt lat="47.05313" lon="6.01857">
        <ele>491.6</ele>
        <time>2024-09-01T08:21:44Z</time>
      </trkpt>
      <trkpt lat="47.05313" lon="6.01857">
        <ele>491.8</ele>
        <time>2024-09-01T08:21:45Z</time>
      </trkpt>
      <trkpt lat="47.05313" lon="6.01857">
        <ele>491.8</ele>
        <time>2024-09-01T08:21:46Z</time>
      </trkpt>
      <trkpt lat="47.05313" lon="6.01857">
        <ele>491.8</ele>
        <time>2024-09-01T08:21:47Z</time>
      </trkpt>
      <trkpt lat="47.05313" lon="6.01857">
        <ele>491.8</ele>
        <time>2024-09-01T08:21:48Z</time>
      </trkpt>
      <trkpt lat="47.05313" lon="6.01857">
        <ele>491.8</ele>
        <time>2024-09-01T08:21:49Z</time>
      </trkpt>
      <trkpt lat="47.05313" lon="6.01857">
        <ele>491.8</ele>
        <time>2024-09-01T08:21:50Z</time>
      </trkpt>
      <trkpt lat="47.05313" lon="6.01857">
        <ele>492</ele>
        <time>2024-09-01T08:21:51Z</time>
      </trkpt>
      <trkpt lat="47.05313" lon="6.01857">
        <ele>491.8</ele>
        <time>2024-09-01T08:21:52Z</time>
      </trkpt>
      <trkpt lat="47.05313" lon="6.01856">
        <ele>491.8</ele>
        <time>2024-09-01T08:21:53Z</time>
      </trkpt>
      <trkpt lat="47.05313" lon="6.01856">
        <ele>491.8</ele>
        <time>2024-09-01T08:21:54Z</time>
      </trkpt>
      <trkpt lat="47.05313" lon="6.01856">
        <ele>491.8</ele>
        <time>2024-09-01T08:21:55Z</time>
      </trkpt>
      <trkpt lat="47.05312" lon="6.01856">
        <ele>491.8</ele>
        <time>2024-09-01T08:21:56Z</time>
      </trkpt>
      <trkpt lat="47.05312" lon="6.01855">
        <ele>491.8</ele>
        <time>2024-09-01T08:21:57Z</time>
      </trkpt>
      <trkpt lat="47.05312" lon="6.01855">
        <ele>491.8</ele>
        <time>2024-09-01T08:21:58Z</time>
      </trkpt>
      <trkpt lat="47.05312" lon="6.01855">
        <ele>491.8</ele>
        <time>2024-09-01T08:21:59Z</time>
      </trkpt>
      <trkpt lat="47.05312" lon="6.01855">
        <ele>491.8</ele>
        <time>2024-09-01T08:22:00Z</time>
      </trkpt>
      <trkpt lat="47.05311" lon="6.01855">
        <ele>492</ele>
        <time>2024-09-01T08:22:01Z</time>
      </trkpt>
      <trkpt lat="47.05311" lon="6.01855">
        <ele>492</ele>
        <time>2024-09-01T08:22:02Z</time>
      </trkpt>
      <trkpt lat="47.05311" lon="6.01856">
        <ele>491.8</ele>
        <time>2024-09-01T08:22:03Z</time>
      </trkpt>
      <trkpt lat="47.05311" lon="6.01856">
        <ele>491.8</ele>
        <time>2024-09-01T08:22:04Z</time>
      </trkpt>
      <trkpt lat="47.05312" lon="6.01856">
        <ele>491.8</ele>
        <time>2024-09-01T08:22:05Z</time>
      </trkpt>
      <trkpt lat="47.05312" lon="6.01856">
        <ele>491.8</ele>
        <time>2024-09-01T08:22:06Z</time>
      </trkpt>
      <trkpt lat="47.05312" lon="6.01856">
        <ele>491.8</ele>
        <time>2024-09-01T08:22:07Z</time>
      </trkpt>
      <trkpt lat="47.05312" lon="6.01856">
        <ele>492</ele>
        <time>2024-09-01T08:22:08Z</time>
      </trkpt>
      <trkpt lat="47.05312" lon="6.01855">
        <ele>491.8</ele>
        <time>2024-09-01T08:22:09Z</time>
      </trkpt>
      <trkpt lat="47.05312" lon="6.01855">
        <ele>491.8</ele>
        <time>2024-09-01T08:22:10Z</time>
      </trkpt>
      <trkpt lat="47.05312" lon="6.01855">
        <ele>491.8</ele>
        <time>2024-09-01T08:22:11Z</time>
      </trkpt>
      <trkpt lat="47.05311" lon="6.01855">
        <ele>492</ele>
        <time>2024-09-01T08:22:12Z</time>
      </trkpt>
      <trkpt lat="47.05311" lon="6.01855">
        <ele>491.8</ele>
        <time>2024-09-01T08:22:13Z</time>
      </trkpt>
      <trkpt lat="47.05311" lon="6.01855">
        <ele>492</ele>
        <time>2024-09-01T08:22:14Z</time>
      </trkpt>
      <trkpt lat="47.05311" lon="6.01855">
        <ele>491.8</ele>
        <time>2024-09-01T08:22:15Z</time>
      </trkpt>
      <trkpt lat="47.05311" lon="6.01856">
        <ele>492</ele>
        <time>2024-09-01T08:22:16Z</time>
      </trkpt>
      <trkpt lat="47.05311" lon="6.01857">
        <ele>491.8</ele>
        <time>2024-09-01T08:22:17Z</time>
      </trkpt>
      <trkpt lat="47.05311" lon="6.01857">
        <ele>491.8</ele>
        <time>2024-09-01T08:22:18Z</time>
      </trkpt>
      <trkpt lat="47.05311" lon="6.01858">
        <ele>491.8</ele>
        <time>2024-09-01T08:22:19Z</time>
      </trkpt>
      <trkpt lat="47.0531" lon="6.01858">
        <ele>491.8</ele>
        <time>2024-09-01T08:22:20Z</time>
      </trkpt>
      <trkpt lat="47.0531" lon="6.01859">
        <ele>492</ele>
        <time>2024-09-01T08:22:21Z</time>
      </trkpt>
      <trkpt lat="47.0531" lon="6.0186">
        <ele>491.8</ele>
        <time>2024-09-01T08:22:22Z</time>
      </trkpt>
      <trkpt lat="47.0531" lon="6.0186">
        <ele>492</ele>
        <time>2024-09-01T08:22:23Z</time>
      </trkpt>
      <trkpt lat="47.0531" lon="6.0186">
        <ele>491.8</ele>
        <time>2024-09-01T08:22:24Z</time>
      </trkpt>
      <trkpt lat="47.0531" lon="6.0186">
        <ele>492</ele>
        <time>2024-09-01T08:22:25Z</time>
      </trkpt>
      <trkpt lat="47.05309" lon="6.0186">
        <ele>491.8</ele>
        <time>2024-09-01T08:22:26Z</time>
      </trkpt>
      <trkpt lat="47.05309" lon="6.01859">
        <ele>491.8</ele>
        <time>2024-09-01T08:22:27Z</time>
      </trkpt>
      <trkpt lat="47.05309" lon="6.01859">
        <ele>491.8</ele>
        <time>2024-09-01T08:22:28Z</time>
      </trkpt>
      <trkpt lat="47.05309" lon="6.01859">
        <ele>492</ele>
        <time>2024-09-01T08:22:29Z</time>
      </trkpt>
      <trkpt lat="47.05309" lon="6.01859">
        <ele>492</ele>
        <time>2024-09-01T08:22:30Z</time>
      </trkpt>
      <trkpt lat="47.05309" lon="6.0186">
        <ele>491.8</ele>
        <time>2024-09-01T08:22:31Z</time>
      </trkpt>
      <trkpt lat="47.05309" lon="6.0186">
        <ele>491.8</ele>
        <time>2024-09-01T08:22:32Z</time>
      </trkpt>
      <trkpt lat="47.05309" lon="6.01861">
        <ele>491.8</ele>
        <time>2024-09-01T08:22:33Z</time>
      </trkpt>
      <trkpt lat="47.05309" lon="6.01861">
        <ele>491.8</ele>
        <time>2024-09-01T08:22:34Z</time>
      </trkpt>
      <trkpt lat="47.05309" lon="6.01861">
        <ele>491.8</ele>
        <time>2024-09-01T08:22:35Z</time>
      </trkpt>
      <trkpt lat="47.0531" lon="6.01861">
        <ele>491.8</ele>
        <time>2024-09-01T08:22:36Z</time>
      </trkpt>
      <trkpt lat="47.0531" lon="6.01861">
        <ele>491.8</ele>
        <time>2024-09-01T08:22:37Z</time>
      </trkpt>
      <trkpt lat="47.0531" lon="6.01862">
        <ele>491.8</ele>
        <time>2024-09-01T08:22:38Z</time>
      </trkpt>
      <trkpt lat="47.0531" lon="6.01862">
        <ele>491.8</ele>
        <time>2024-09-01T08:22:39Z</time>
      </trkpt>
      <trkpt lat="47.0531" lon="6.01862">
        <ele>491.8</ele>
        <time>2024-09-01T08:22:40Z</time>
      </trkpt>
      <trkpt lat="47.0531" lon="6.01862">
        <ele>491.8</ele>
        <time>2024-09-01T08:22:41Z</time>
      </trkpt>
      <trkpt lat="47.0531" lon="6.01862">
        <ele>491.8</ele>
        <time>2024-09-01T08:22:42Z</time>
      </trkpt>
      <trkpt lat="47.0531" lon="6.01862">
        <ele>491.8</ele>
        <time>2024-09-01T08:22:43Z</time>
      </trkpt>
      <trkpt lat="47.0531" lon="6.01862">
        <ele>491.8</ele>
        <time>2024-09-01T08:22:44Z</time>
      </trkpt>
      <trkpt lat="47.0531" lon="6.01862">
        <ele>492</ele>
        <time>2024-09-01T08:22:45Z</time>
      </trkpt>
      <trkpt lat="47.0531" lon="6.01862">
        <ele>491.8</ele>
        <time>2024-09-01T08:22:46Z</time>
      </trkpt>
      <trkpt lat="47.0531" lon="6.01862">
        <ele>491.8</ele>
        <time>2024-09-01T08:22:47Z</time>
      </trkpt>
      <trkpt lat="47.0531" lon="6.01862">
        <ele>491.8</ele>
        <time>2024-09-01T08:22:48Z</time>
      </trkpt>
      <trkpt lat="47.0531" lon="6.01862">
        <ele>491.8</ele>
        <time>2024-09-01T08:22:49Z</time>
      </trkpt>
      <trkpt lat="47.0531" lon="6.01862">
        <ele>491.8</ele>
        <time>2024-09-01T08:22:50Z</time>
      </trkpt>
      <trkpt lat="47.0531" lon="6.01862">
        <ele>491.8</ele>
        <time>2024-09-01T08:22:51Z</time>
      </trkpt>
      <trkpt lat="47.05309" lon="6.01861">
        <ele>491.8</ele>
        <time>2024-09-01T08:22:52Z</time>
      </trkpt>
      <trkpt lat="47.0531" lon="6.01861">
        <ele>491.8</ele>
        <time>2024-09-01T08:22:53Z</time>
      </trkpt>
      <trkpt lat="47.0531" lon="6.01861">
        <ele>491.8</ele>
        <time>2024-09-01T08:22:54Z</time>
      </trkpt>
      <trkpt lat="47.0531" lon="6.01861">
        <ele>491.8</ele>
        <time>2024-09-01T08:22:55Z</time>
      </trkpt>
      <trkpt lat="47.0531" lon="6.01861">
        <ele>491.8</ele>
        <time>2024-09-01T08:22:56Z</time>
      </trkpt>
      <trkpt lat="47.0531" lon="6.01861">
        <ele>491.8</ele>
        <time>2024-09-01T08:22:57Z</time>
      </trkpt>
      <trkpt lat="47.0531" lon="6.01861">
        <ele>491.8</ele>
        <time>2024-09-01T08:22:58Z</time>
      </trkpt>
      <trkpt lat="47.0531" lon="6.01861">
        <ele>491.8</ele>
        <time>2024-09-01T08:22:59Z</time>
      </trkpt>
      <trkpt lat="47.0531" lon="6.01861">
        <ele>491.8</ele>
        <time>2024-09-01T08:23:00Z</time>
      </trkpt>
      <trkpt lat="47.0531" lon="6.01861">
        <ele>491.6</ele>
        <time>2024-09-01T08:23:01Z</time>
      </trkpt>
      <trkpt lat="47.0531" lon="6.01861">
        <ele>491.8</ele>
        <time>2024-09-01T08:23:02Z</time>
      </trkpt>
      <trkpt lat="47.0531" lon="6.01861">
        <ele>491.6</ele>
        <time>2024-09-01T08:23:03Z</time>
      </trkpt>
      <trkpt lat="47.0531" lon="6.0186">
        <ele>491.8</ele>
        <time>2024-09-01T08:23:04Z</time>
      </trkpt>
      <trkpt lat="47.0531" lon="6.0186">
        <ele>491.6</ele>
        <time>2024-09-01T08:23:05Z</time>
      </trkpt>
      <trkpt lat="47.0531" lon="6.0186">
        <ele>491.6</ele>
        <time>2024-09-01T08:23:06Z</time>
      </trkpt>
      <trkpt lat="47.0531" lon="6.01859">
        <ele>491.6</ele>
        <time>2024-09-01T08:23:07Z</time>
      </trkpt>
      <trkpt lat="47.0531" lon="6.01859">
        <ele>491.6</ele>
        <time>2024-09-01T08:23:08Z</time>
      </trkpt>
      <trkpt lat="47.0531" lon="6.01859">
        <ele>491.6</ele>
        <time>2024-09-01T08:23:09Z</time>
      </trkpt>
      <trkpt lat="47.0531" lon="6.01858">
        <ele>491.8</ele>
        <time>2024-09-01T08:23:10Z</time>
      </trkpt>
      <trkpt lat="47.0531" lon="6.01857">
        <ele>491.6</ele>
        <time>2024-09-01T08:23:11Z</time>
      </trkpt>
      <trkpt lat="47.05311" lon="6.01857">
        <ele>491.8</ele>
        <time>2024-09-01T08:23:12Z</time>
      </trkpt>
      <trkpt lat="47.05311" lon="6.01857">
        <ele>491.6</ele>
        <time>2024-09-01T08:23:13Z</time>
      </trkpt>
      <trkpt lat="47.05311" lon="6.01857">
        <ele>491.6</ele>
        <time>2024-09-01T08:23:14Z</time>
      </trkpt>
      <trkpt lat="47.05311" lon="6.01857">
        <ele>491.6</ele>
        <time>2024-09-01T08:23:15Z</time>
      </trkpt>
      <trkpt lat="47.05311" lon="6.01857">
        <ele>491.8</ele>
        <time>2024-09-01T08:23:16Z</time>
      </trkpt>
      <trkpt lat="47.05311" lon="6.01857">
        <ele>491.6</ele>
        <time>2024-09-01T08:23:17Z</time>
      </trkpt>
      <trkpt lat="47.05311" lon="6.01857">
        <ele>491.6</ele>
        <time>2024-09-01T08:23:18Z</time>
      </trkpt>
      <trkpt lat="47.05311" lon="6.01857">
        <ele>491.6</ele>
        <time>2024-09-01T08:23:19Z</time>
      </trkpt>
      <trkpt lat="47.05311" lon="6.01858">
        <ele>491.6</ele>
        <time>2024-09-01T08:23:20Z</time>
      </trkpt>
      <trkpt lat="47.05311" lon="6.01858">
        <ele>491.6</ele>
        <time>2024-09-01T08:23:21Z</time>
      </trkpt>
      <trkpt lat="47.05311" lon="6.01858">
        <ele>491.6</ele>
        <time>2024-09-01T08:23:22Z</time>
      </trkpt>
      <trkpt lat="47.05311" lon="6.01858">
        <ele>491.6</ele>
        <time>2024-09-01T08:23:23Z</time>
      </trkpt>
      <trkpt lat="47.05311" lon="6.01858">
        <ele>491.6</ele>
        <time>2024-09-01T08:23:24Z</time>
      </trkpt>
      <trkpt lat="47.05311" lon="6.01858">
        <ele>491.6</ele>
        <time>2024-09-01T08:23:25Z</time>
      </trkpt>
      <trkpt lat="47.05311" lon="6.01858">
        <ele>491.6</ele>
        <time>2024-09-01T08:23:26Z</time>
      </trkpt>
      <trkpt lat="47.05311" lon="6.01858">
        <ele>491.6</ele>
        <time>2024-09-01T08:23:27Z</time>
      </trkpt>
      <trkpt lat="47.05311" lon="6.01858">
        <ele>491.6</ele>
        <time>2024-09-01T08:23:28Z</time>
      </trkpt>
      <trkpt lat="47.05311" lon="6.01858">
        <ele>491.6</ele>
        <time>2024-09-01T08:23:29Z</time>
      </trkpt>
      <trkpt lat="47.05311" lon="6.01858">
        <ele>491.4</ele>
        <time>2024-09-01T08:23:30Z</time>
      </trkpt>
      <trkpt lat="47.05311" lon="6.01858">
        <ele>491.6</ele>
        <time>2024-09-01T08:23:31Z</time>
      </trkpt>
      <trkpt lat="47.05311" lon="6.01858">
        <ele>491.6</ele>
        <time>2024-09-01T08:23:32Z</time>
      </trkpt>
      <trkpt lat="47.05311" lon="6.01858">
        <ele>491.4</ele>
        <time>2024-09-01T08:23:33Z</time>
      </trkpt>
      <trkpt lat="47.05311" lon="6.01858">
        <ele>491.6</ele>
        <time>2024-09-01T08:23:34Z</time>
      </trkpt>
      <trkpt lat="47.05311" lon="6.01858">
        <ele>491.4</ele>
        <time>2024-09-01T08:23:35Z</time>
      </trkpt>
      <trkpt lat="47.05311" lon="6.01858">
        <ele>491.6</ele>
        <time>2024-09-01T08:23:36Z</time>
      </trkpt>
      <trkpt lat="47.05311" lon="6.01858">
        <ele>491.4</ele>
        <time>2024-09-01T08:23:37Z</time>
      </trkpt>
      <trkpt lat="47.05311" lon="6.01858">
        <ele>491.4</ele>
        <time>2024-09-01T08:23:38Z</time>
      </trkpt>
      <trkpt lat="47.05311" lon="6.01858">
        <ele>491.6</ele>
        <time>2024-09-01T08:23:39Z</time>
      </trkpt>
      <trkpt lat="47.05311" lon="6.01858">
        <ele>491.4</ele>
        <time>2024-09-01T08:23:40Z</time>
      </trkpt>
      <trkpt lat="47.05311" lon="6.01858">
        <ele>491.4</ele>
        <time>2024-09-01T08:23:41Z</time>
      </trkpt>
      <trkpt lat="47.05311" lon="6.01858">
        <ele>491.6</ele>
        <time>2024-09-01T08:23:42Z</time>
      </trkpt>
      <trkpt lat="47.05311" lon="6.01858">
        <ele>491.6</ele>
        <time>2024-09-01T08:23:43Z</time>
      </trkpt>
      <trkpt lat="47.05311" lon="6.01858">
        <ele>491.6</ele>
        <time>2024-09-01T08:23:44Z</time>
      </trkpt>
      <trkpt lat="47.05311" lon="6.01858">
        <ele>491.6</ele>
        <time>2024-09-01T08:23:45Z</time>
      </trkpt>
      <trkpt lat="47.05311" lon="6.01858">
        <ele>491.6</ele>
        <time>2024-09-01T08:23:46Z</time>
      </trkpt>
      <trkpt lat="47.05311" lon="6.01858">
        <ele>491.6</ele>
        <time>2024-09-01T08:23:47Z</time>
      </trkpt>
      <trkpt lat="47.05311" lon="6.01858">
        <ele>491.8</ele>
        <time>2024-09-01T08:23:48Z</time>
      </trkpt>
      <trkpt lat="47.05311" lon="6.01858">
        <ele>491.6</ele>
        <time>2024-09-01T08:23:49Z</time>
      </trkpt>
      <trkpt lat="47.05312" lon="6.01858">
        <ele>491.6</ele>
        <time>2024-09-01T08:23:50Z</time>
      </trkpt>
      <trkpt lat="47.05312" lon="6.01857">
        <ele>491.8</ele>
        <time>2024-09-01T08:23:51Z</time>
      </trkpt>
      <trkpt lat="47.05312" lon="6.01857">
        <ele>491.6</ele>
        <time>2024-09-01T08:23:52Z</time>
      </trkpt>
      <trkpt lat="47.05312" lon="6.01857">
        <ele>491.6</ele>
        <time>2024-09-01T08:23:53Z</time>
      </trkpt>
      <trkpt lat="47.05312" lon="6.01857">
        <ele>491.6</ele>
        <time>2024-09-01T08:23:54Z</time>
      </trkpt>
      <trkpt lat="47.05312" lon="6.01857">
        <ele>491.8</ele>
        <time>2024-09-01T08:23:55Z</time>
      </trkpt>
      <trkpt lat="47.05312" lon="6.01857">
        <ele>491.8</ele>
        <time>2024-09-01T08:23:56Z</time>
      </trkpt>
      <trkpt lat="47.05312" lon="6.01857">
        <ele>491.8</ele>
        <time>2024-09-01T08:23:57Z</time>
      </trkpt>
      <trkpt lat="47.05312" lon="6.01857">
        <ele>491.6</ele>
        <time>2024-09-01T08:23:58Z</time>
      </trkpt>
      <trkpt lat="47.05313" lon="6.01857">
        <ele>491.8</ele>
        <time>2024-09-01T08:23:59Z</time>
      </trkpt>
      <trkpt lat="47.05313" lon="6.01857">
        <ele>491.6</ele>
        <time>2024-09-01T08:24:00Z</time>
      </trkpt>
      <trkpt lat="47.05313" lon="6.01857">
        <ele>491.8</ele>
        <time>2024-09-01T08:24:01Z</time>
      </trkpt>
      <trkpt lat="47.05314" lon="6.01856">
        <ele>491.8</ele>
        <time>2024-09-01T08:24:02Z</time>
      </trkpt>
      <trkpt lat="47.05314" lon="6.01856">
        <ele>491.6</ele>
        <time>2024-09-01T08:24:03Z</time>
      </trkpt>
      <trkpt lat="47.05314" lon="6.01856">
        <ele>491.8</ele>
        <time>2024-09-01T08:24:04Z</time>
      </trkpt>
      <trkpt lat="47.05314" lon="6.01857">
        <ele>491.8</ele>
        <time>2024-09-01T08:24:05Z</time>
      </trkpt>
      <trkpt lat="47.05314" lon="6.01858">
        <ele>491.6</ele>
        <time>2024-09-01T08:24:06Z</time>
      </trkpt>
      <trkpt lat="47.05314" lon="6.01858">
        <ele>491.8</ele>
        <time>2024-09-01T08:24:07Z</time>
      </trkpt>
      <trkpt lat="47.05314" lon="6.01858">
        <ele>491.8</ele>
        <time>2024-09-01T08:24:08Z</time>
      </trkpt>
      <trkpt lat="47.05314" lon="6.01859">
        <ele>491.8</ele>
        <time>2024-09-01T08:24:09Z</time>
      </trkpt>
      <trkpt lat="47.05314" lon="6.01859">
        <ele>491.8</ele>
        <time>2024-09-01T08:24:10Z</time>
      </trkpt>
      <trkpt lat="47.05314" lon="6.0186">
        <ele>491.6</ele>
        <time>2024-09-01T08:24:11Z</time>
      </trkpt>
      <trkpt lat="47.05314" lon="6.0186">
        <ele>491.6</ele>
        <time>2024-09-01T08:24:12Z</time>
      </trkpt>
      <trkpt lat="47.05314" lon="6.01861">
        <ele>491.6</ele>
        <time>2024-09-01T08:24:13Z</time>
      </trkpt>
      <trkpt lat="47.05313" lon="6.01861">
        <ele>491.6</ele>
        <time>2024-09-01T08:24:14Z</time>
      </trkpt>
      <trkpt lat="47.05313" lon="6.01861">
        <ele>491.6</ele>
        <time>2024-09-01T08:24:15Z</time>
      </trkpt>
      <trkpt lat="47.05313" lon="6.01861">
        <ele>491.8</ele>
        <time>2024-09-01T08:24:16Z</time>
      </trkpt>
      <trkpt lat="47.05313" lon="6.01861">
        <ele>491.6</ele>
        <time>2024-09-01T08:24:17Z</time>
      </trkpt>
      <trkpt lat="47.05313" lon="6.01861">
        <ele>491.8</ele>
        <time>2024-09-01T08:24:18Z</time>
      </trkpt>
      <trkpt lat="47.05313" lon="6.01861">
        <ele>491.6</ele>
        <time>2024-09-01T08:24:19Z</time>
      </trkpt>
      <trkpt lat="47.05313" lon="6.01861">
        <ele>491.6</ele>
        <time>2024-09-01T08:24:20Z</time>
      </trkpt>
      <trkpt lat="47.05313" lon="6.01861">
        <ele>491.8</ele>
        <time>2024-09-01T08:24:21Z</time>
      </trkpt>
      <trkpt lat="47.05312" lon="6.01861">
        <ele>491.6</ele>
        <time>2024-09-01T08:24:22Z</time>
      </trkpt>
      <trkpt lat="47.05312" lon="6.01861">
        <ele>491.6</ele>
        <time>2024-09-01T08:24:23Z</time>
      </trkpt>
      <trkpt lat="47.05312" lon="6.01861">
        <ele>491.6</ele>
        <time>2024-09-01T08:24:24Z</time>
      </trkpt>
      <trkpt lat="47.05312" lon="6.0186">
        <ele>491.6</ele>
        <time>2024-09-01T08:24:25Z</time>
      </trkpt>
      <trkpt lat="47.05312" lon="6.01859">
        <ele>491.6</ele>
        <time>2024-09-01T08:24:26Z</time>
      </trkpt>
      <trkpt lat="47.05312" lon="6.01859">
        <ele>491.8</ele>
        <time>2024-09-01T08:24:27Z</time>
      </trkpt>
      <trkpt lat="47.05312" lon="6.01859">
        <ele>491.6</ele>
        <time>2024-09-01T08:24:28Z</time>
      </trkpt>
      <trkpt lat="47.05312" lon="6.01858">
        <ele>491.8</ele>
        <time>2024-09-01T08:24:29Z</time>
      </trkpt>
      <trkpt lat="47.05312" lon="6.01858">
        <ele>491.8</ele>
        <time>2024-09-01T08:24:30Z</time>
      </trkpt>
      <trkpt lat="47.05312" lon="6.01859">
        <ele>491.8</ele>
        <time>2024-09-01T08:24:31Z</time>
      </trkpt>
      <trkpt lat="47.05312" lon="6.01858">
        <ele>491.8</ele>
        <time>2024-09-01T08:24:32Z</time>
      </trkpt>
      <trkpt lat="47.05312" lon="6.01858">
        <ele>491.8</ele>
        <time>2024-09-01T08:24:33Z</time>
      </trkpt>
      <trkpt lat="47.05312" lon="6.01858">
        <ele>492.2</ele>
        <time>2024-09-01T08:24:34Z</time>
      </trkpt>
      <trkpt lat="47.05312" lon="6.01858">
        <ele>492.2</ele>
        <time>2024-09-01T08:24:35Z</time>
      </trkpt>
      <trkpt lat="47.05312" lon="6.01858">
        <ele>492.2</ele>
        <time>2024-09-01T08:24:36Z</time>
      </trkpt>
      <trkpt lat="47.05312" lon="6.01858">
        <ele>492.2</ele>
        <time>2024-09-01T08:24:37Z</time>
      </trkpt>
      <trkpt lat="47.05312" lon="6.01858">
        <ele>492.2</ele>
        <time>2024-09-01T08:24:38Z</time>
      </trkpt>
      <trkpt lat="47.05312" lon="6.01858">
        <ele>492.2</ele>
        <time>2024-09-01T08:24:39Z</time>
      </trkpt>
      <trkpt lat="47.05312" lon="6.01858">
        <ele>492.2</ele>
        <time>2024-09-01T08:24:40Z</time>
      </trkpt>
      <trkpt lat="47.05312" lon="6.01858">
        <ele>492.2</ele>
        <time>2024-09-01T08:24:41Z</time>
      </trkpt>
      <trkpt lat="47.05312" lon="6.01858">
        <ele>492.4</ele>
        <time>2024-09-01T08:24:42Z</time>
      </trkpt>
      <trkpt lat="47.05312" lon="6.01858">
        <ele>492.4</ele>
        <time>2024-09-01T08:24:43Z</time>
      </trkpt>
      <trkpt lat="47.05312" lon="6.01858">
        <ele>492.2</ele>
        <time>2024-09-01T08:24:44Z</time>
      </trkpt>
      <trkpt lat="47.05312" lon="6.01858">
        <ele>492.4</ele>
        <time>2024-09-01T08:24:45Z</time>
      </trkpt>
      <trkpt lat="47.05312" lon="6.01858">
        <ele>492.4</ele>
        <time>2024-09-01T08:24:46Z</time>
      </trkpt>
      <trkpt lat="47.05312" lon="6.01858">
        <ele>492.4</ele>
        <time>2024-09-01T08:24:47Z</time>
      </trkpt>
      <trkpt lat="47.05312" lon="6.01858">
        <ele>492.4</ele>
        <time>2024-09-01T08:24:48Z</time>
      </trkpt>
      <trkpt lat="47.05312" lon="6.01858">
        <ele>492.4</ele>
        <time>2024-09-01T08:24:49Z</time>
      </trkpt>
      <trkpt lat="47.05312" lon="6.01858">
        <ele>492.2</ele>
        <time>2024-09-01T08:24:50Z</time>
      </trkpt>
      <trkpt lat="47.05312" lon="6.01858">
        <ele>492.2</ele>
        <time>2024-09-01T08:24:51Z</time>
      </trkpt>
      <trkpt lat="47.05312" lon="6.01857">
        <ele>492.4</ele>
        <time>2024-09-01T08:24:52Z</time>
      </trkpt>
      <trkpt lat="47.05312" lon="6.01857">
        <ele>492.4</ele>
        <time>2024-09-01T08:24:53Z</time>
      </trkpt>
      <trkpt lat="47.05312" lon="6.01857">
        <ele>492.4</ele>
        <time>2024-09-01T08:24:54Z</time>
      </trkpt>
      <trkpt lat="47.05312" lon="6.01857">
        <ele>492.4</ele>
        <time>2024-09-01T08:24:55Z</time>
      </trkpt>
      <trkpt lat="47.05312" lon="6.01857">
        <ele>492.4</ele>
        <time>2024-09-01T08:24:56Z</time>
      </trkpt>
      <trkpt lat="47.05312" lon="6.01858">
        <ele>492.4</ele>
        <time>2024-09-01T08:24:57Z</time>
      </trkpt>
      <trkpt lat="47.05312" lon="6.01858">
        <ele>492.4</ele>
        <time>2024-09-01T08:24:58Z</time>
      </trkpt>
      <trkpt lat="47.05312" lon="6.01859">
        <ele>492.4</ele>
        <time>2024-09-01T08:24:59Z</time>
      </trkpt>
      <trkpt lat="47.05312" lon="6.01858">
        <ele>492.4</ele>
        <time>2024-09-01T08:25:00Z</time>
      </trkpt>
      <trkpt lat="47.05312" lon="6.01858">
        <ele>492.4</ele>
        <time>2024-09-01T08:25:01Z</time>
      </trkpt>
      <trkpt lat="47.05313" lon="6.01859">
        <ele>492.6</ele>
        <time>2024-09-01T08:25:02Z</time>
      </trkpt>
      <trkpt lat="47.05313" lon="6.01859">
        <ele>492.4</ele>
        <time>2024-09-01T08:25:03Z</time>
      </trkpt>
      <trkpt lat="47.05313" lon="6.01859">
        <ele>492.4</ele>
        <time>2024-09-01T08:25:04Z</time>
      </trkpt>
      <trkpt lat="47.05313" lon="6.01859">
        <ele>492.4</ele>
        <time>2024-09-01T08:25:05Z</time>
      </trkpt>
      <trkpt lat="47.05313" lon="6.01859">
        <ele>492.4</ele>
        <time>2024-09-01T08:25:06Z</time>
      </trkpt>
      <trkpt lat="47.05313" lon="6.01859">
        <ele>492.6</ele>
        <time>2024-09-01T08:25:07Z</time>
      </trkpt>
      <trkpt lat="47.05313" lon="6.01859">
        <ele>492.4</ele>
        <time>2024-09-01T08:25:08Z</time>
      </trkpt>
      <trkpt lat="47.05313" lon="6.01858">
        <ele>492.4</ele>
        <time>2024-09-01T08:25:09Z</time>
      </trkpt>
      <trkpt lat="47.05313" lon="6.01857">
        <ele>492.4</ele>
        <time>2024-09-01T08:25:10Z</time>
      </trkpt>
      <trkpt lat="47.05313" lon="6.01856">
        <ele>492.4</ele>
        <time>2024-09-01T08:25:11Z</time>
      </trkpt>
      <trkpt lat="47.05313" lon="6.01856">
        <ele>492.6</ele>
        <time>2024-09-01T08:25:12Z</time>
      </trkpt>
      <trkpt lat="47.05313" lon="6.01855">
        <ele>492.4</ele>
        <time>2024-09-01T08:25:13Z</time>
      </trkpt>
      <trkpt lat="47.05314" lon="6.01855">
        <ele>492.6</ele>
        <time>2024-09-01T08:25:14Z</time>
      </trkpt>
      <trkpt lat="47.05314" lon="6.01854">
        <ele>492.6</ele>
        <time>2024-09-01T08:25:15Z</time>
      </trkpt>
      <trkpt lat="47.05314" lon="6.01854">
        <ele>492.4</ele>
        <time>2024-09-01T08:25:16Z</time>
      </trkpt>
      <trkpt lat="47.05314" lon="6.01854">
        <ele>492.6</ele>
        <time>2024-09-01T08:25:17Z</time>
      </trkpt>
      <trkpt lat="47.05315" lon="6.01853">
        <ele>492.6</ele>
        <time>2024-09-01T08:25:18Z</time>
      </trkpt>
      <trkpt lat="47.05315" lon="6.01853">
        <ele>492.6</ele>
        <time>2024-09-01T08:25:19Z</time>
      </trkpt>
      <trkpt lat="47.05315" lon="6.01852">
        <ele>492.4</ele>
        <time>2024-09-01T08:25:20Z</time>
      </trkpt>
      <trkpt lat="47.05315" lon="6.01852">
        <ele>492.6</ele>
        <time>2024-09-01T08:25:21Z</time>
      </trkpt>
      <trkpt lat="47.05315" lon="6.01851">
        <ele>492.6</ele>
        <time>2024-09-01T08:25:22Z</time>
      </trkpt>
      <trkpt lat="47.05315" lon="6.01851">
        <ele>492.6</ele>
        <time>2024-09-01T08:25:23Z</time>
      </trkpt>
      <trkpt lat="47.05315" lon="6.01851">
        <ele>492.4</ele>
        <time>2024-09-01T08:25:24Z</time>
      </trkpt>
      <trkpt lat="47.05315" lon="6.01851">
        <ele>492.4</ele>
        <time>2024-09-01T08:25:25Z</time>
      </trkpt>
      <trkpt lat="47.05315" lon="6.0185">
        <ele>492.6</ele>
        <time>2024-09-01T08:25:26Z</time>
      </trkpt>
      <trkpt lat="47.05316" lon="6.01849">
        <ele>492.6</ele>
        <time>2024-09-01T08:25:27Z</time>
      </trkpt>
      <trkpt lat="47.05316" lon="6.01848">
        <ele>492.4</ele>
        <time>2024-09-01T08:25:28Z</time>
      </trkpt>
      <trkpt lat="47.05317" lon="6.01847">
        <ele>492.4</ele>
        <time>2024-09-01T08:25:29Z</time>
      </trkpt>
      <trkpt lat="47.05317" lon="6.01847">
        <ele>492.4</ele>
        <time>2024-09-01T08:25:30Z</time>
      </trkpt>
      <trkpt lat="47.05318" lon="6.01846">
        <ele>492.6</ele>
        <time>2024-09-01T08:25:31Z</time>
      </trkpt>
      <trkpt lat="47.05318" lon="6.01846">
        <ele>492.6</ele>
        <time>2024-09-01T08:25:32Z</time>
      </trkpt>
      <trkpt lat="47.05319" lon="6.01845">
        <ele>492.6</ele>
        <time>2024-09-01T08:25:33Z</time>
      </trkpt>
      <trkpt lat="47.05319" lon="6.01845">
        <ele>492.4</ele>
        <time>2024-09-01T08:25:34Z</time>
      </trkpt>
      <trkpt lat="47.05319" lon="6.01845">
        <ele>492.4</ele>
        <time>2024-09-01T08:25:35Z</time>
      </trkpt>
      <trkpt lat="47.0532" lon="6.01846">
        <ele>492.6</ele>
        <time>2024-09-01T08:25:36Z</time>
      </trkpt>
      <trkpt lat="47.0532" lon="6.01845">
        <ele>492.6</ele>
        <time>2024-09-01T08:25:37Z</time>
      </trkpt>
      <trkpt lat="47.05321" lon="6.01845">
        <ele>492.6</ele>
        <time>2024-09-01T08:25:38Z</time>
      </trkpt>
      <trkpt lat="47.05321" lon="6.01844">
        <ele>492.8</ele>
        <time>2024-09-01T08:25:39Z</time>
      </trkpt>
      <trkpt lat="47.05321" lon="6.01844">
        <ele>492.8</ele>
        <time>2024-09-01T08:25:40Z</time>
      </trkpt>
      <trkpt lat="47.05322" lon="6.01844">
        <ele>492.8</ele>
        <time>2024-09-01T08:25:41Z</time>
      </trkpt>
      <trkpt lat="47.05323" lon="6.01844">
        <ele>493</ele>
        <time>2024-09-01T08:25:42Z</time>
      </trkpt>
      <trkpt lat="47.05322" lon="6.01848">
        <ele>493</ele>
        <time>2024-09-01T08:25:43Z</time>
      </trkpt>
      <trkpt lat="47.05323" lon="6.01848">
        <ele>492.8</ele>
        <time>2024-09-01T08:25:44Z</time>
      </trkpt>
      <trkpt lat="47.05324" lon="6.0185">
        <ele>493</ele>
        <time>2024-09-01T08:25:45Z</time>
      </trkpt>
      <trkpt lat="47.05326" lon="6.0185">
        <ele>493</ele>
        <time>2024-09-01T08:25:46Z</time>
      </trkpt>
      <trkpt lat="47.05328" lon="6.01851">
        <ele>493</ele>
        <time>2024-09-01T08:25:47Z</time>
      </trkpt>
      <trkpt lat="47.05329" lon="6.01851">
        <ele>493</ele>
        <time>2024-09-01T08:25:48Z</time>
      </trkpt>
      <trkpt lat="47.05331" lon="6.01852">
        <ele>493.2</ele>
        <time>2024-09-01T08:25:49Z</time>
      </trkpt>
      <trkpt lat="47.05333" lon="6.01853">
        <ele>493.2</ele>
        <time>2024-09-01T08:25:50Z</time>
      </trkpt>
      <trkpt lat="47.05335" lon="6.01854">
        <ele>493.2</ele>
        <time>2024-09-01T08:25:51Z</time>
      </trkpt>
      <trkpt lat="47.05337" lon="6.01855">
        <ele>493.2</ele>
        <time>2024-09-01T08:25:52Z</time>
      </trkpt>
      <trkpt lat="47.05338" lon="6.01857">
        <ele>493.4</ele>
        <time>2024-09-01T08:25:53Z</time>
      </trkpt>
      <trkpt lat="47.0534" lon="6.01858">
        <ele>493.4</ele>
        <time>2024-09-01T08:25:54Z</time>
      </trkpt>
      <trkpt lat="47.05342" lon="6.01859">
        <ele>493.4</ele>
        <time>2024-09-01T08:25:55Z</time>
      </trkpt>
      <trkpt lat="47.05344" lon="6.0186">
        <ele>493.4</ele>
        <time>2024-09-01T08:25:56Z</time>
      </trkpt>
      <trkpt lat="47.05346" lon="6.01861">
        <ele>493.4</ele>
        <time>2024-09-01T08:25:57Z</time>
      </trkpt>
      <trkpt lat="47.05348" lon="6.01863">
        <ele>493.6</ele>
        <time>2024-09-01T08:25:58Z</time>
      </trkpt>
      <trkpt lat="47.0535" lon="6.01864">
        <ele>493.8</ele>
        <time>2024-09-01T08:25:59Z</time>
      </trkpt>
      <trkpt lat="47.05352" lon="6.01865">
        <ele>494</ele>
        <time>2024-09-01T08:26:00Z</time>
      </trkpt>
      <trkpt lat="47.05353" lon="6.01866">
        <ele>494.2</ele>
        <time>2024-09-01T08:26:01Z</time>
      </trkpt>
      <trkpt lat="47.05355" lon="6.01867">
        <ele>494.2</ele>
        <time>2024-09-01T08:26:02Z</time>
      </trkpt>
      <trkpt lat="47.05356" lon="6.01868">
        <ele>494.2</ele>
        <time>2024-09-01T08:26:03Z</time>
      </trkpt>
      <trkpt lat="47.05358" lon="6.01869">
        <ele>494.4</ele>
        <time>2024-09-01T08:26:04Z</time>
      </trkpt>
      <trkpt lat="47.05359" lon="6.0187">
        <ele>494.4</ele>
        <time>2024-09-01T08:26:05Z</time>
      </trkpt>
      <trkpt lat="47.0536" lon="6.01872">
        <ele>494.6</ele>
        <time>2024-09-01T08:26:06Z</time>
      </trkpt>
      <trkpt lat="47.05361" lon="6.01874">
        <ele>494.8</ele>
        <time>2024-09-01T08:26:07Z</time>
      </trkpt>
      <trkpt lat="47.05362" lon="6.01875">
        <ele>494.6</ele>
        <time>2024-09-01T08:26:08Z</time>
      </trkpt>
      <trkpt lat="47.05363" lon="6.01875">
        <ele>494.6</ele>
        <time>2024-09-01T08:26:09Z</time>
      </trkpt>
      <trkpt lat="47.05364" lon="6.01876">
        <ele>494.8</ele>
        <time>2024-09-01T08:26:10Z</time>
      </trkpt>
      <trkpt lat="47.05365" lon="6.01876">
        <ele>495</ele>
        <time>2024-09-01T08:26:11Z</time>
      </trkpt>
      <trkpt lat="47.05366" lon="6.01877">
        <ele>495.2</ele>
        <time>2024-09-01T08:26:12Z</time>
      </trkpt>
      <trkpt lat="47.05367" lon="6.01878">
        <ele>495.2</ele>
        <time>2024-09-01T08:26:13Z</time>
      </trkpt>
      <trkpt lat="47.05368" lon="6.01879">
        <ele>495.4</ele>
        <time>2024-09-01T08:26:14Z</time>
      </trkpt>
      <trkpt lat="47.05369" lon="6.01879">
        <ele>495.6</ele>
        <time>2024-09-01T08:26:15Z</time>
      </trkpt>
      <trkpt lat="47.05371" lon="6.01879">
        <ele>495.6</ele>
        <time>2024-09-01T08:26:16Z</time>
      </trkpt>
      <trkpt lat="47.05372" lon="6.01879">
        <ele>496</ele>
        <time>2024-09-01T08:26:17Z</time>
      </trkpt>
      <trkpt lat="47.05374" lon="6.01879">
        <ele>496</ele>
        <time>2024-09-01T08:26:18Z</time>
      </trkpt>
      <trkpt lat="47.05375" lon="6.0188">
        <ele>496</ele>
        <time>2024-09-01T08:26:19Z</time>
      </trkpt>
      <trkpt lat="47.05377" lon="6.0188">
        <ele>496.2</ele>
        <time>2024-09-01T08:26:20Z</time>
      </trkpt>
      <trkpt lat="47.05378" lon="6.0188">
        <ele>496.6</ele>
        <time>2024-09-01T08:26:21Z</time>
      </trkpt>
      <trkpt lat="47.05379" lon="6.0188">
        <ele>496.6</ele>
        <time>2024-09-01T08:26:22Z</time>
      </trkpt>
      <trkpt lat="47.05381" lon="6.01881">
        <ele>496.8</ele>
        <time>2024-09-01T08:26:23Z</time>
      </trkpt>
      <trkpt lat="47.05382" lon="6.01882">
        <ele>497</ele>
        <time>2024-09-01T08:26:24Z</time>
      </trkpt>
      <trkpt lat="47.05383" lon="6.01883">
        <ele>497.2</ele>
        <time>2024-09-01T08:26:25Z</time>
      </trkpt>
      <trkpt lat="47.05384" lon="6.01883">
        <ele>497.2</ele>
        <time>2024-09-01T08:26:26Z</time>
      </trkpt>
      <trkpt lat="47.05385" lon="6.01883">
        <ele>497.4</ele>
        <time>2024-09-01T08:26:27Z</time>
      </trkpt>
      <trkpt lat="47.05386" lon="6.01883">
        <ele>497.6</ele>
        <time>2024-09-01T08:26:28Z</time>
      </trkpt>
      <trkpt lat="47.05386" lon="6.01883">
        <ele>497.8</ele>
        <time>2024-09-01T08:26:29Z</time>
      </trkpt>
      <trkpt lat="47.05387" lon="6.01883">
        <ele>498.2</ele>
        <time>2024-09-01T08:26:30Z</time>
      </trkpt>
      <trkpt lat="47.05388" lon="6.01882">
        <ele>498.2</ele>
        <time>2024-09-01T08:26:31Z</time>
      </trkpt>
      <trkpt lat="47.05389" lon="6.01882">
        <ele>498.6</ele>
        <time>2024-09-01T08:26:32Z</time>
      </trkpt>
      <trkpt lat="47.0539" lon="6.01881">
        <ele>498.8</ele>
        <time>2024-09-01T08:26:33Z</time>
      </trkpt>
      <trkpt lat="47.05391" lon="6.0188">
        <ele>499</ele>
        <time>2024-09-01T08:26:34Z</time>
      </trkpt>
      <trkpt lat="47.05392" lon="6.01878">
        <ele>499.2</ele>
        <time>2024-09-01T08:26:35Z</time>
      </trkpt>
      <trkpt lat="47.05393" lon="6.01877">
        <ele>499.4</ele>
        <time>2024-09-01T08:26:36Z</time>
      </trkpt>
      <trkpt lat="47.05395" lon="6.01875">
        <ele>499.6</ele>
        <time>2024-09-01T08:26:37Z</time>
      </trkpt>
      <trkpt lat="47.05396" lon="6.01872">
        <ele>499.8</ele>
        <time>2024-09-01T08:26:38Z</time>
      </trkpt>
      <trkpt lat="47.05396" lon="6.0187">
        <ele>500</ele>
        <time>2024-09-01T08:26:39Z</time>
      </trkpt>
      <trkpt lat="47.05398" lon="6.01868">
        <ele>500</ele>
        <time>2024-09-01T08:26:40Z</time>
      </trkpt>
      <trkpt lat="47.05399" lon="6.01866">
        <ele>500.2</ele>
        <time>2024-09-01T08:26:41Z</time>
      </trkpt>
      <trkpt lat="47.054" lon="6.01864">
        <ele>500.4</ele>
        <time>2024-09-01T08:26:42Z</time>
      </trkpt>
      <trkpt lat="47.05401" lon="6.01861">
        <ele>500.6</ele>
        <time>2024-09-01T08:26:43Z</time>
      </trkpt>
      <trkpt lat="47.05403" lon="6.01857">
        <ele>500.6</ele>
        <time>2024-09-01T08:26:44Z</time>
      </trkpt>
      <trkpt lat="47.05404" lon="6.01853">
        <ele>501</ele>
        <time>2024-09-01T08:26:45Z</time>
      </trkpt>
      <trkpt lat="47.05405" lon="6.01849">
        <ele>500.8</ele>
        <time>2024-09-01T08:26:46Z</time>
      </trkpt>
      <trkpt lat="47.05406" lon="6.01844">
        <ele>501</ele>
        <time>2024-09-01T08:26:47Z</time>
      </trkpt>
      <trkpt lat="47.05407" lon="6.01839">
        <ele>501.2</ele>
        <time>2024-09-01T08:26:48Z</time>
      </trkpt>
      <trkpt lat="47.05408" lon="6.01836">
        <ele>501</ele>
        <time>2024-09-01T08:26:49Z</time>
      </trkpt>
      <trkpt lat="47.05407" lon="6.01832">
        <ele>501.2</ele>
        <time>2024-09-01T08:26:50Z</time>
      </trkpt>
      <trkpt lat="47.05407" lon="6.01829">
        <ele>501.2</ele>
        <time>2024-09-01T08:26:51Z</time>
      </trkpt>
      <trkpt lat="47.05406" lon="6.01826">
        <ele>501.2</ele>
        <time>2024-09-01T08:26:52Z</time>
      </trkpt>
      <trkpt lat="47.05404" lon="6.01823">
        <ele>501.2</ele>
        <time>2024-09-01T08:26:53Z</time>
      </trkpt>
      <trkpt lat="47.05403" lon="6.01822">
        <ele>501.2</ele>
        <time>2024-09-01T08:26:54Z</time>
      </trkpt>
      <trkpt lat="47.05402" lon="6.0182">
        <ele>501.2</ele>
        <time>2024-09-01T08:26:55Z</time>
      </trkpt>
      <trkpt lat="47.05401" lon="6.01818">
        <ele>501.2</ele>
        <time>2024-09-01T08:26:56Z</time>
      </trkpt>
      <trkpt lat="47.054" lon="6.01816">
        <ele>501.4</ele>
        <time>2024-09-01T08:26:57Z</time>
      </trkpt>
      <trkpt lat="47.05399" lon="6.01814">
        <ele>501.6</ele>
        <time>2024-09-01T08:26:58Z</time>
      </trkpt>
      <trkpt lat="47.05398" lon="6.01812">
        <ele>501.6</ele>
        <time>2024-09-01T08:26:59Z</time>
      </trkpt>
      <trkpt lat="47.05397" lon="6.0181">
        <ele>501.8</ele>
        <time>2024-09-01T08:27:00Z</time>
      </trkpt>
      <trkpt lat="47.05396" lon="6.01807">
        <ele>502.2</ele>
        <time>2024-09-01T08:27:01Z</time>
      </trkpt>
      <trkpt lat="47.05395" lon="6.01804">
        <ele>502.4</ele>
        <time>2024-09-01T08:27:02Z</time>
      </trkpt>
      <trkpt lat="47.05394" lon="6.01801">
        <ele>502.4</ele>
        <time>2024-09-01T08:27:03Z</time>
      </trkpt>
      <trkpt lat="47.05392" lon="6.01797">
        <ele>502.8</ele>
        <time>2024-09-01T08:27:04Z</time>
      </trkpt>
      <trkpt lat="47.05391" lon="6.01793">
        <ele>503</ele>
        <time>2024-09-01T08:27:05Z</time>
      </trkpt>
      <trkpt lat="47.0539" lon="6.01789">
        <ele>503</ele>
        <time>2024-09-01T08:27:06Z</time>
      </trkpt>
      <trkpt lat="47.05389" lon="6.01786">
        <ele>503.4</ele>
        <time>2024-09-01T08:27:07Z</time>
      </trkpt>
      <trkpt lat="47.05387" lon="6.01782">
        <ele>503.6</ele>
        <time>2024-09-01T08:27:08Z</time>
      </trkpt>
      <trkpt lat="47.05385" lon="6.01779">
        <ele>503.8</ele>
        <time>2024-09-01T08:27:09Z</time>
      </trkpt>
      <trkpt lat="47.05382" lon="6.01775">
        <ele>504</ele>
        <time>2024-09-01T08:27:10Z</time>
      </trkpt>
      <trkpt lat="47.05381" lon="6.01771">
        <ele>504.2</ele>
        <time>2024-09-01T08:27:11Z</time>
      </trkpt>
      <trkpt lat="47.05379" lon="6.01767">
        <ele>504.4</ele>
        <time>2024-09-01T08:27:12Z</time>
      </trkpt>
      <trkpt lat="47.05378" lon="6.01763">
        <ele>504.4</ele>
        <time>2024-09-01T08:27:13Z</time>
      </trkpt>
      <trkpt lat="47.05376" lon="6.01759">
        <ele>504.4</ele>
        <time>2024-09-01T08:27:14Z</time>
      </trkpt>
      <trkpt lat="47.05375" lon="6.01756">
        <ele>504.4</ele>
        <time>2024-09-01T08:27:15Z</time>
      </trkpt>
      <trkpt lat="47.05373" lon="6.01753">
        <ele>504.6</ele>
        <time>2024-09-01T08:27:16Z</time>
      </trkpt>
      <trkpt lat="47.05372" lon="6.0175">
        <ele>504.8</ele>
        <time>2024-09-01T08:27:17Z</time>
      </trkpt>
      <trkpt lat="47.0537" lon="6.01747">
        <ele>505</ele>
        <time>2024-09-01T08:27:18Z</time>
      </trkpt>
      <trkpt lat="47.05368" lon="6.01745">
        <ele>505</ele>
        <time>2024-09-01T08:27:19Z</time>
      </trkpt>
      <trkpt lat="47.05366" lon="6.01742">
        <ele>505.2</ele>
        <time>2024-09-01T08:27:20Z</time>
      </trkpt>
      <trkpt lat="47.05365" lon="6.0174">
        <ele>505.2</ele>
        <time>2024-09-01T08:27:21Z</time>
      </trkpt>
      <trkpt lat="47.05364" lon="6.01738">
        <ele>505.2</ele>
        <time>2024-09-01T08:27:22Z</time>
      </trkpt>
      <trkpt lat="47.05362" lon="6.01736">
        <ele>505.2</ele>
        <time>2024-09-01T08:27:23Z</time>
      </trkpt>
      <trkpt lat="47.0536" lon="6.01735">
        <ele>505.4</ele>
        <time>2024-09-01T08:27:24Z</time>
      </trkpt>
      <trkpt lat="47.05358" lon="6.01733">
        <ele>505.2</ele>
        <time>2024-09-01T08:27:25Z</time>
      </trkpt>
      <trkpt lat="47.05355" lon="6.01732">
        <ele>505.4</ele>
        <time>2024-09-01T08:27:26Z</time>
      </trkpt>
      <trkpt lat="47.05352" lon="6.0173">
        <ele>505.6</ele>
        <time>2024-09-01T08:27:27Z</time>
      </trkpt>
      <trkpt lat="47.05349" lon="6.01728">
        <ele>505.6</ele>
        <time>2024-09-01T08:27:28Z</time>
      </trkpt>
      <trkpt lat="47.05347" lon="6.01727">
        <ele>505.6</ele>
        <time>2024-09-01T08:27:29Z</time>
      </trkpt>
      <trkpt lat="47.05344" lon="6.01726">
        <ele>505.8</ele>
        <time>2024-09-01T08:27:30Z</time>
      </trkpt>
      <trkpt lat="47.0534" lon="6.01725">
        <ele>505.6</ele>
        <time>2024-09-01T08:27:31Z</time>
      </trkpt>
      <trkpt lat="47.05337" lon="6.01725">
        <ele>505.8</ele>
        <time>2024-09-01T08:27:32Z</time>
      </trkpt>
      <trkpt lat="47.05334" lon="6.01724">
        <ele>505.8</ele>
        <time>2024-09-01T08:27:33Z</time>
      </trkpt>
      <trkpt lat="47.05332" lon="6.01724">
        <ele>506</ele>
        <time>2024-09-01T08:27:34Z</time>
      </trkpt>
      <trkpt lat="47.0533" lon="6.01722">
        <ele>506</ele>
        <time>2024-09-01T08:27:35Z</time>
      </trkpt>
      <trkpt lat="47.05327" lon="6.0172">
        <ele>506</ele>
        <time>2024-09-01T08:27:36Z</time>
      </trkpt>
      <trkpt lat="47.05324" lon="6.01718">
        <ele>506.2</ele>
        <time>2024-09-01T08:27:37Z</time>
      </trkpt>
      <trkpt lat="47.0532" lon="6.01715">
        <ele>506.2</ele>
        <time>2024-09-01T08:27:38Z</time>
      </trkpt>
      <trkpt lat="47.05317" lon="6.01712">
        <ele>506</ele>
        <time>2024-09-01T08:27:39Z</time>
      </trkpt>
      <trkpt lat="47.05314" lon="6.01709">
        <ele>506.2</ele>
        <time>2024-09-01T08:27:40Z</time>
      </trkpt>
      <trkpt lat="47.0531" lon="6.01706">
        <ele>506.2</ele>
        <time>2024-09-01T08:27:41Z</time>
      </trkpt>
      <trkpt lat="47.05307" lon="6.01701">
        <ele>506</ele>
        <time>2024-09-01T08:27:42Z</time>
      </trkpt>
      <trkpt lat="47.05303" lon="6.01697">
        <ele>506</ele>
        <time>2024-09-01T08:27:43Z</time>
      </trkpt>
      <trkpt lat="47.05299" lon="6.01692">
        <ele>506</ele>
        <time>2024-09-01T08:27:44Z</time>
      </trkpt>
      <trkpt lat="47.05295" lon="6.01688">
        <ele>506</ele>
        <time>2024-09-01T08:27:45Z</time>
      </trkpt>
      <trkpt lat="47.05292" lon="6.01684">
        <ele>506</ele>
        <time>2024-09-01T08:27:46Z</time>
      </trkpt>
      <trkpt lat="47.05288" lon="6.0168">
        <ele>505.8</ele>
        <time>2024-09-01T08:27:47Z</time>
      </trkpt>
      <trkpt lat="47.05283" lon="6.01675">
        <ele>505.8</ele>
        <time>2024-09-01T08:27:48Z</time>
      </trkpt>
      <trkpt lat="47.05277" lon="6.0167">
        <ele>505.8</ele>
        <time>2024-09-01T08:27:49Z</time>
      </trkpt>
      <trkpt lat="47.05272" lon="6.01666">
        <ele>505.8</ele>
        <time>2024-09-01T08:27:50Z</time>
      </trkpt>
      <trkpt lat="47.05266" lon="6.01661">
        <ele>505.6</ele>
        <time>2024-09-01T08:27:51Z</time>
      </trkpt>
      <trkpt lat="47.05261" lon="6.01656">
        <ele>505.4</ele>
        <time>2024-09-01T08:27:52Z</time>
      </trkpt>
      <trkpt lat="47.05253" lon="6.01652">
        <ele>505.2</ele>
        <time>2024-09-01T08:27:53Z</time>
      </trkpt>
      <trkpt lat="47.05247" lon="6.01647">
        <ele>505.2</ele>
        <time>2024-09-01T08:27:54Z</time>
      </trkpt>
      <trkpt lat="47.05241" lon="6.01643">
        <ele>504.8</ele>
        <time>2024-09-01T08:27:55Z</time>
      </trkpt>
      <trkpt lat="47.05234" lon="6.0164">
        <ele>504.6</ele>
        <time>2024-09-01T08:27:56Z</time>
      </trkpt>
      <trkpt lat="47.05227" lon="6.01639">
        <ele>504.2</ele>
        <time>2024-09-01T08:27:57Z</time>
      </trkpt>
      <trkpt lat="47.05221" lon="6.01639">
        <ele>504.2</ele>
        <time>2024-09-01T08:27:58Z</time>
      </trkpt>
      <trkpt lat="47.05215" lon="6.0164">
        <ele>504</ele>
        <time>2024-09-01T08:27:59Z</time>
      </trkpt>
      <trkpt lat="47.05209" lon="6.01641">
        <ele>504</ele>
        <time>2024-09-01T08:28:00Z</time>
      </trkpt>
      <trkpt lat="47.05203" lon="6.0164">
        <ele>504</ele>
        <time>2024-09-01T08:28:01Z</time>
      </trkpt>
      <trkpt lat="47.05196" lon="6.01639">
        <ele>504</ele>
        <time>2024-09-01T08:28:02Z</time>
      </trkpt>
      <trkpt lat="47.0519" lon="6.01637">
        <ele>503.8</ele>
        <time>2024-09-01T08:28:03Z</time>
      </trkpt>
      <trkpt lat="47.05185" lon="6.01635">
        <ele>503.6</ele>
        <time>2024-09-01T08:28:04Z</time>
      </trkpt>
      <trkpt lat="47.0518" lon="6.01633">
        <ele>503.8</ele>
        <time>2024-09-01T08:28:05Z</time>
      </trkpt>
      <trkpt lat="47.05176" lon="6.0163">
        <ele>503.6</ele>
        <time>2024-09-01T08:28:06Z</time>
      </trkpt>
      <trkpt lat="47.05171" lon="6.01626">
        <ele>503.6</ele>
        <time>2024-09-01T08:28:07Z</time>
      </trkpt>
      <trkpt lat="47.05166" lon="6.01623">
        <ele>503.6</ele>
        <time>2024-09-01T08:28:08Z</time>
      </trkpt>
      <trkpt lat="47.05163" lon="6.01619">
        <ele>503.6</ele>
        <time>2024-09-01T08:28:09Z</time>
      </trkpt>
      <trkpt lat="47.05158" lon="6.01615">
        <ele>503.6</ele>
        <time>2024-09-01T08:28:10Z</time>
      </trkpt>
      <trkpt lat="47.05153" lon="6.01611">
        <ele>503.4</ele>
        <time>2024-09-01T08:28:11Z</time>
      </trkpt>
      <trkpt lat="47.05148" lon="6.01607">
        <ele>503.6</ele>
        <time>2024-09-01T08:28:12Z</time>
      </trkpt>
      <trkpt lat="47.05144" lon="6.01603">
        <ele>503.6</ele>
        <time>2024-09-01T08:28:13Z</time>
      </trkpt>
      <trkpt lat="47.0514" lon="6.01598">
        <ele>503.6</ele>
        <time>2024-09-01T08:28:14Z</time>
      </trkpt>
      <trkpt lat="47.05135" lon="6.01593">
        <ele>503.6</ele>
        <time>2024-09-01T08:28:15Z</time>
      </trkpt>
      <trkpt lat="47.05131" lon="6.01588">
        <ele>503.6</ele>
        <time>2024-09-01T08:28:16Z</time>
      </trkpt>
      <trkpt lat="47.05127" lon="6.01582">
        <ele>503.6</ele>
        <time>2024-09-01T08:28:17Z</time>
      </trkpt>
      <trkpt lat="47.05122" lon="6.01577">
        <ele>503.6</ele>
        <time>2024-09-01T08:28:18Z</time>
      </trkpt>
      <trkpt lat="47.05118" lon="6.01572">
        <ele>503.8</ele>
        <time>2024-09-01T08:28:19Z</time>
      </trkpt>
      <trkpt lat="47.05114" lon="6.01568">
        <ele>503.6</ele>
        <time>2024-09-01T08:28:20Z</time>
      </trkpt>
      <trkpt lat="47.0511" lon="6.01563">
        <ele>503.8</ele>
        <time>2024-09-01T08:28:21Z</time>
      </trkpt>
      <trkpt lat="47.05106" lon="6.01557">
        <ele>503.8</ele>
        <time>2024-09-01T08:28:22Z</time>
      </trkpt>
      <trkpt lat="47.05102" lon="6.01552">
        <ele>504</ele>
        <time>2024-09-01T08:28:23Z</time>
      </trkpt>
      <trkpt lat="47.05099" lon="6.01548">
        <ele>504</ele>
        <time>2024-09-01T08:28:24Z</time>
      </trkpt>
      <trkpt lat="47.05096" lon="6.01544">
        <ele>504</ele>
        <time>2024-09-01T08:28:25Z</time>
      </trkpt>
      <trkpt lat="47.05092" lon="6.01539">
        <ele>504</ele>
        <time>2024-09-01T08:28:26Z</time>
      </trkpt>
      <trkpt lat="47.05087" lon="6.01534">
        <ele>504</ele>
        <time>2024-09-01T08:28:27Z</time>
      </trkpt>
      <trkpt lat="47.05084" lon="6.0153">
        <ele>503.8</ele>
        <time>2024-09-01T08:28:28Z</time>
      </trkpt>
      <trkpt lat="47.05079" lon="6.01524">
        <ele>503.8</ele>
        <time>2024-09-01T08:28:29Z</time>
      </trkpt>
      <trkpt lat="47.05075" lon="6.01519">
        <ele>503.8</ele>
        <time>2024-09-01T08:28:30Z</time>
      </trkpt>
      <trkpt lat="47.0507" lon="6.01513">
        <ele>503.8</ele>
        <time>2024-09-01T08:28:31Z</time>
      </trkpt>
      <trkpt lat="47.05065" lon="6.01508">
        <ele>504</ele>
        <time>2024-09-01T08:28:32Z</time>
      </trkpt>
      <trkpt lat="47.05061" lon="6.01503">
        <ele>504</ele>
        <time>2024-09-01T08:28:33Z</time>
      </trkpt>
      <trkpt lat="47.05057" lon="6.01498">
        <ele>504</ele>
        <time>2024-09-01T08:28:34Z</time>
      </trkpt>
      <trkpt lat="47.05054" lon="6.01494">
        <ele>504</ele>
        <time>2024-09-01T08:28:35Z</time>
      </trkpt>
      <trkpt lat="47.0505" lon="6.0149">
        <ele>504</ele>
        <time>2024-09-01T08:28:36Z</time>
      </trkpt>
      <trkpt lat="47.05046" lon="6.01488">
        <ele>504.2</ele>
        <time>2024-09-01T08:28:37Z</time>
      </trkpt>
      <trkpt lat="47.05043" lon="6.01486">
        <ele>504</ele>
        <time>2024-09-01T08:28:38Z</time>
      </trkpt>
      <trkpt lat="47.05039" lon="6.01483">
        <ele>504.2</ele>
        <time>2024-09-01T08:28:39Z</time>
      </trkpt>
      <trkpt lat="47.05037" lon="6.0148">
        <ele>504.2</ele>
        <time>2024-09-01T08:28:40Z</time>
      </trkpt>
      <trkpt lat="47.05035" lon="6.01477">
        <ele>504</ele>
        <time>2024-09-01T08:28:41Z</time>
      </trkpt>
      <trkpt lat="47.05032" lon="6.01474">
        <ele>504.2</ele>
        <time>2024-09-01T08:28:42Z</time>
      </trkpt>
      <trkpt lat="47.05029" lon="6.0147">
        <ele>504.2</ele>
        <time>2024-09-01T08:28:43Z</time>
      </trkpt>
      <trkpt lat="47.05025" lon="6.01467">
        <ele>504.2</ele>
        <time>2024-09-01T08:28:44Z</time>
      </trkpt>
      <trkpt lat="47.05021" lon="6.01465">
        <ele>504</ele>
        <time>2024-09-01T08:28:45Z</time>
      </trkpt>
      <trkpt lat="47.05017" lon="6.01463">
        <ele>504.2</ele>
        <time>2024-09-01T08:28:46Z</time>
      </trkpt>
      <trkpt lat="47.05012" lon="6.01462">
        <ele>504</ele>
        <time>2024-09-01T08:28:47Z</time>
      </trkpt>
      <trkpt lat="47.05006" lon="6.01461">
        <ele>504.2</ele>
        <time>2024-09-01T08:28:48Z</time>
      </trkpt>
      <trkpt lat="47.05001" lon="6.0146">
        <ele>504.2</ele>
        <time>2024-09-01T08:28:49Z</time>
      </trkpt>
      <trkpt lat="47.04995" lon="6.0146">
        <ele>504.2</ele>
        <time>2024-09-01T08:28:50Z</time>
      </trkpt>
      <trkpt lat="47.0499" lon="6.0146">
        <ele>504.4</ele>
        <time>2024-09-01T08:28:51Z</time>
      </trkpt>
      <trkpt lat="47.04985" lon="6.0146">
        <ele>504.2</ele>
        <time>2024-09-01T08:28:52Z</time>
      </trkpt>
      <trkpt lat="47.0498" lon="6.01461">
        <ele>504.2</ele>
        <time>2024-09-01T08:28:53Z</time>
      </trkpt>
      <trkpt lat="47.04975" lon="6.01461">
        <ele>504.4</ele>
        <time>2024-09-01T08:28:54Z</time>
      </trkpt>
      <trkpt lat="47.0497" lon="6.01461">
        <ele>504.4</ele>
        <time>2024-09-01T08:28:55Z</time>
      </trkpt>
      <trkpt lat="47.04965" lon="6.01461">
        <ele>504.2</ele>
        <time>2024-09-01T08:28:56Z</time>
      </trkpt>
      <trkpt lat="47.0496" lon="6.01461">
        <ele>504.4</ele>
        <time>2024-09-01T08:28:57Z</time>
      </trkpt>
      <trkpt lat="47.04955" lon="6.01461">
        <ele>504.2</ele>
        <time>2024-09-01T08:28:58Z</time>
      </trkpt>
      <trkpt lat="47.0495" lon="6.01462">
        <ele>504.4</ele>
        <time>2024-09-01T08:28:59Z</time>
      </trkpt>
      <trkpt lat="47.04946" lon="6.01463">
        <ele>504.2</ele>
        <time>2024-09-01T08:29:00Z</time>
      </trkpt>
      <trkpt lat="47.04942" lon="6.01465">
        <ele>504.4</ele>
        <time>2024-09-01T08:29:01Z</time>
      </trkpt>
      <trkpt lat="47.04939" lon="6.01468">
        <ele>504.6</ele>
        <time>2024-09-01T08:29:02Z</time>
      </trkpt>
      <trkpt lat="47.04936" lon="6.01471">
        <ele>504.8</ele>
        <time>2024-09-01T08:29:03Z</time>
      </trkpt>
      <trkpt lat="47.04935" lon="6.01475">
        <ele>504.8</ele>
        <time>2024-09-01T08:29:04Z</time>
      </trkpt>
      <trkpt lat="47.04934" lon="6.01479">
        <ele>505.2</ele>
        <time>2024-09-01T08:29:05Z</time>
      </trkpt>
      <trkpt lat="47.04933" lon="6.01482">
        <ele>505.4</ele>
        <time>2024-09-01T08:29:06Z</time>
      </trkpt>
      <trkpt lat="47.04932" lon="6.01486">
        <ele>505.6</ele>
        <time>2024-09-01T08:29:07Z</time>
      </trkpt>
      <trkpt lat="47.04932" lon="6.01489">
        <ele>505.8</ele>
        <time>2024-09-01T08:29:08Z</time>
      </trkpt>
      <trkpt lat="47.04931" lon="6.01493">
        <ele>505.8</ele>
        <time>2024-09-01T08:29:09Z</time>
      </trkpt>
      <trkpt lat="47.0493" lon="6.01497">
        <ele>506.2</ele>
        <time>2024-09-01T08:29:10Z</time>
      </trkpt>
      <trkpt lat="47.04929" lon="6.015">
        <ele>506</ele>
        <time>2024-09-01T08:29:11Z</time>
      </trkpt>
      <trkpt lat="47.04929" lon="6.01502">
        <ele>506.4</ele>
        <time>2024-09-01T08:29:12Z</time>
      </trkpt>
      <trkpt lat="47.04928" lon="6.01505">
        <ele>506.8</ele>
        <time>2024-09-01T08:29:13Z</time>
      </trkpt>
      <trkpt lat="47.04927" lon="6.01508">
        <ele>507</ele>
        <time>2024-09-01T08:29:14Z</time>
      </trkpt>
      <trkpt lat="47.04926" lon="6.01512">
        <ele>507.2</ele>
        <time>2024-09-01T08:29:15Z</time>
      </trkpt>
      <trkpt lat="47.04925" lon="6.01515">
        <ele>507.4</ele>
        <time>2024-09-01T08:29:16Z</time>
      </trkpt>
      <trkpt lat="47.04925" lon="6.01518">
        <ele>507.4</ele>
        <time>2024-09-01T08:29:17Z</time>
      </trkpt>
      <trkpt lat="47.04924" lon="6.01521">
        <ele>507.6</ele>
        <time>2024-09-01T08:29:18Z</time>
      </trkpt>
      <trkpt lat="47.04923" lon="6.01524">
        <ele>508.2</ele>
        <time>2024-09-01T08:29:19Z</time>
      </trkpt>
      <trkpt lat="47.04923" lon="6.01528">
        <ele>508.4</ele>
        <time>2024-09-01T08:29:20Z</time>
      </trkpt>
      <trkpt lat="47.04922" lon="6.01531">
        <ele>508.6</ele>
        <time>2024-09-01T08:29:21Z</time>
      </trkpt>
      <trkpt lat="47.04922" lon="6.01534">
        <ele>509</ele>
        <time>2024-09-01T08:29:22Z</time>
      </trkpt>
      <trkpt lat="47.04921" lon="6.01537">
        <ele>509.2</ele>
        <time>2024-09-01T08:29:23Z</time>
      </trkpt>
      <trkpt lat="47.04921" lon="6.0154">
        <ele>509.4</ele>
        <time>2024-09-01T08:29:24Z</time>
      </trkpt>
      <trkpt lat="47.04921" lon="6.01542">
        <ele>509.8</ele>
        <time>2024-09-01T08:29:25Z</time>
      </trkpt>
      <trkpt lat="47.04921" lon="6.01545">
        <ele>510</ele>
        <time>2024-09-01T08:29:26Z</time>
      </trkpt>
      <trkpt lat="47.04921" lon="6.01548">
        <ele>510.4</ele>
        <time>2024-09-01T08:29:27Z</time>
      </trkpt>
      <trkpt lat="47.04921" lon="6.01551">
        <ele>510.4</ele>
        <time>2024-09-01T08:29:28Z</time>
      </trkpt>
      <trkpt lat="47.04921" lon="6.01554">
        <ele>511</ele>
        <time>2024-09-01T08:29:29Z</time>
      </trkpt>
      <trkpt lat="47.04921" lon="6.01557">
        <ele>511.2</ele>
        <time>2024-09-01T08:29:30Z</time>
      </trkpt>
      <trkpt lat="47.04921" lon="6.0156">
        <ele>511.2</ele>
        <time>2024-09-01T08:29:31Z</time>
      </trkpt>
      <trkpt lat="47.0492" lon="6.01563">
        <ele>511.4</ele>
        <time>2024-09-01T08:29:32Z</time>
      </trkpt>
      <trkpt lat="47.04921" lon="6.01566">
        <ele>511.8</ele>
        <time>2024-09-01T08:29:33Z</time>
      </trkpt>
      <trkpt lat="47.04921" lon="6.01569">
        <ele>512</ele>
        <time>2024-09-01T08:29:34Z</time>
      </trkpt>
      <trkpt lat="47.04921" lon="6.01572">
        <ele>512.2</ele>
        <time>2024-09-01T08:29:35Z</time>
      </trkpt>
      <trkpt lat="47.04921" lon="6.01576">
        <ele>512.4</ele>
        <time>2024-09-01T08:29:36Z</time>
      </trkpt>
      <trkpt lat="47.04921" lon="6.01579">
        <ele>512.8</ele>
        <time>2024-09-01T08:29:37Z</time>
      </trkpt>
      <trkpt lat="47.04922" lon="6.01582">
        <ele>513</ele>
        <time>2024-09-01T08:29:38Z</time>
      </trkpt>
      <trkpt lat="47.04922" lon="6.01585">
        <ele>513.4</ele>
        <time>2024-09-01T08:29:39Z</time>
      </trkpt>
      <trkpt lat="47.04922" lon="6.01588">
        <ele>513.4</ele>
        <time>2024-09-01T08:29:40Z</time>
      </trkpt>
      <trkpt lat="47.04922" lon="6.01591">
        <ele>513.8</ele>
        <time>2024-09-01T08:29:41Z</time>
      </trkpt>
      <trkpt lat="47.04922" lon="6.01594">
        <ele>513.8</ele>
        <time>2024-09-01T08:29:42Z</time>
      </trkpt>
      <trkpt lat="47.04922" lon="6.01597">
        <ele>514</ele>
        <time>2024-09-01T08:29:43Z</time>
      </trkpt>
      <trkpt lat="47.04922" lon="6.016">
        <ele>514.2</ele>
        <time>2024-09-01T08:29:44Z</time>
      </trkpt>
      <trkpt lat="47.04922" lon="6.01603">
        <ele>514.6</ele>
        <time>2024-09-01T08:29:45Z</time>
      </trkpt>
      <trkpt lat="47.04923" lon="6.01606">
        <ele>514.6</ele>
        <time>2024-09-01T08:29:46Z</time>
      </trkpt>
      <trkpt lat="47.04923" lon="6.01609">
        <ele>514.8</ele>
        <time>2024-09-01T08:29:47Z</time>
      </trkpt>
      <trkpt lat="47.04923" lon="6.01612">
        <ele>515.2</ele>
        <time>2024-09-01T08:29:48Z</time>
      </trkpt>
      <trkpt lat="47.04923" lon="6.01615">
        <ele>515.2</ele>
        <time>2024-09-01T08:29:49Z</time>
      </trkpt>
      <trkpt lat="47.04924" lon="6.01618">
        <ele>515.4</ele>
        <time>2024-09-01T08:29:50Z</time>
      </trkpt>
      <trkpt lat="47.04924" lon="6.01621">
        <ele>515.6</ele>
        <time>2024-09-01T08:29:51Z</time>
      </trkpt>
      <trkpt lat="47.04924" lon="6.01624">
        <ele>515.8</ele>
        <time>2024-09-01T08:29:52Z</time>
      </trkpt>
      <trkpt lat="47.04924" lon="6.01627">
        <ele>516</ele>
        <time>2024-09-01T08:29:53Z</time>
      </trkpt>
      <trkpt lat="47.04924" lon="6.0163">
        <ele>516.2</ele>
        <time>2024-09-01T08:29:54Z</time>
      </trkpt>
      <trkpt lat="47.04925" lon="6.01634">
        <ele>516.2</ele>
        <time>2024-09-01T08:29:55Z</time>
      </trkpt>
      <trkpt lat="47.04925" lon="6.01637">
        <ele>516.6</ele>
        <time>2024-09-01T08:29:56Z</time>
      </trkpt>
      <trkpt lat="47.04926" lon="6.01641">
        <ele>516.8</ele>
        <time>2024-09-01T08:29:57Z</time>
      </trkpt>
      <trkpt lat="47.04927" lon="6.01644">
        <ele>516.8</ele>
        <time>2024-09-01T08:29:58Z</time>
      </trkpt>
      <trkpt lat="47.04927" lon="6.01647">
        <ele>517</ele>
        <time>2024-09-01T08:29:59Z</time>
      </trkpt>
      <trkpt lat="47.04928" lon="6.0165">
        <ele>517.2</ele>
        <time>2024-09-01T08:30:00Z</time>
      </trkpt>
      <trkpt lat="47.04928" lon="6.01653">
        <ele>517.4</ele>
        <time>2024-09-01T08:30:01Z</time>
      </trkpt>
      <trkpt lat="47.04928" lon="6.01656">
        <ele>517.6</ele>
        <time>2024-09-01T08:30:02Z</time>
      </trkpt>
      <trkpt lat="47.04928" lon="6.0166">
        <ele>517.8</ele>
        <time>2024-09-01T08:30:03Z</time>
      </trkpt>
      <trkpt lat="47.04928" lon="6.01663">
        <ele>518</ele>
        <time>2024-09-01T08:30:04Z</time>
      </trkpt>
      <trkpt lat="47.04929" lon="6.01666">
        <ele>518.2</ele>
        <time>2024-09-01T08:30:05Z</time>
      </trkpt>
      <trkpt lat="47.04929" lon="6.01668">
        <ele>518.4</ele>
        <time>2024-09-01T08:30:06Z</time>
      </trkpt>
      <trkpt lat="47.04929" lon="6.01671">
        <ele>518.4</ele>
        <time>2024-09-01T08:30:07Z</time>
      </trkpt>
      <trkpt lat="47.04929" lon="6.01674">
        <ele>518.6</ele>
        <time>2024-09-01T08:30:08Z</time>
      </trkpt>
      <trkpt lat="47.04929" lon="6.01676">
        <ele>518.6</ele>
        <time>2024-09-01T08:30:09Z</time>
      </trkpt>
      <trkpt lat="47.04929" lon="6.01679">
        <ele>519</ele>
        <time>2024-09-01T08:30:10Z</time>
      </trkpt>
      <trkpt lat="47.04929" lon="6.01681">
        <ele>519</ele>
        <time>2024-09-01T08:30:11Z</time>
      </trkpt>
      <trkpt lat="47.04929" lon="6.01684">
        <ele>519</ele>
        <time>2024-09-01T08:30:12Z</time>
      </trkpt>
      <trkpt lat="47.04929" lon="6.01688">
        <ele>519.2</ele>
        <time>2024-09-01T08:30:13Z</time>
      </trkpt>
      <trkpt lat="47.04929" lon="6.01691">
        <ele>519.4</ele>
        <time>2024-09-01T08:30:14Z</time>
      </trkpt>
      <trkpt lat="47.04929" lon="6.01694">
        <ele>519.6</ele>
        <time>2024-09-01T08:30:15Z</time>
      </trkpt>
      <trkpt lat="47.0493" lon="6.01698">
        <ele>519.6</ele>
        <time>2024-09-01T08:30:16Z</time>
      </trkpt>
      <trkpt lat="47.0493" lon="6.01701">
        <ele>519.6</ele>
        <time>2024-09-01T08:30:17Z</time>
      </trkpt>
      <trkpt lat="47.0493" lon="6.01705">
        <ele>519.8</ele>
        <time>2024-09-01T08:30:18Z</time>
      </trkpt>
      <trkpt lat="47.0493" lon="6.01708">
        <ele>519.8</ele>
        <time>2024-09-01T08:30:19Z</time>
      </trkpt>
      <trkpt lat="47.0493" lon="6.01712">
        <ele>520</ele>
        <time>2024-09-01T08:30:20Z</time>
      </trkpt>
      <trkpt lat="47.0493" lon="6.01715">
        <ele>520.2</ele>
        <time>2024-09-01T08:30:21Z</time>
      </trkpt>
      <trkpt lat="47.0493" lon="6.01718">
        <ele>520.4</ele>
        <time>2024-09-01T08:30:22Z</time>
      </trkpt>
      <trkpt lat="47.04931" lon="6.01722">
        <ele>520.6</ele>
        <time>2024-09-01T08:30:23Z</time>
      </trkpt>
      <trkpt lat="47.04931" lon="6.01725">
        <ele>520.6</ele>
        <time>2024-09-01T08:30:24Z</time>
      </trkpt>
      <trkpt lat="47.04931" lon="6.01729">
        <ele>520.8</ele>
        <time>2024-09-01T08:30:25Z</time>
      </trkpt>
      <trkpt lat="47.04931" lon="6.01733">
        <ele>520.8</ele>
        <time>2024-09-01T08:30:26Z</time>
      </trkpt>
      <trkpt lat="47.04931" lon="6.01736">
        <ele>521.2</ele>
        <time>2024-09-01T08:30:27Z</time>
      </trkpt>
      <trkpt lat="47.04931" lon="6.01742">
        <ele>521.2</ele>
        <time>2024-09-01T08:30:28Z</time>
      </trkpt>
      <trkpt lat="47.04932" lon="6.01746">
        <ele>521.6</ele>
        <time>2024-09-01T08:30:29Z</time>
      </trkpt>
      <trkpt lat="47.04934" lon="6.01751">
        <ele>521.6</ele>
        <time>2024-09-01T08:30:30Z</time>
      </trkpt>
      <trkpt lat="47.04935" lon="6.01756">
        <ele>521.8</ele>
        <time>2024-09-01T08:30:31Z</time>
      </trkpt>
      <trkpt lat="47.04937" lon="6.0176">
        <ele>521.8</ele>
        <time>2024-09-01T08:30:32Z</time>
      </trkpt>
      <trkpt lat="47.04939" lon="6.01765">
        <ele>521.8</ele>
        <time>2024-09-01T08:30:33Z</time>
      </trkpt>
      <trkpt lat="47.0494" lon="6.01769">
        <ele>521.8</ele>
        <time>2024-09-01T08:30:34Z</time>
      </trkpt>
      <trkpt lat="47.04942" lon="6.01773">
        <ele>522</ele>
        <time>2024-09-01T08:30:35Z</time>
      </trkpt>
      <trkpt lat="47.04944" lon="6.01777">
        <ele>522.4</ele>
        <time>2024-09-01T08:30:36Z</time>
      </trkpt>
      <trkpt lat="47.04945" lon="6.01781">
        <ele>522.4</ele>
        <time>2024-09-01T08:30:37Z</time>
      </trkpt>
      <trkpt lat="47.04947" lon="6.01784">
        <ele>522.6</ele>
        <time>2024-09-01T08:30:38Z</time>
      </trkpt>
      <trkpt lat="47.04948" lon="6.01788">
        <ele>522.6</ele>
        <time>2024-09-01T08:30:39Z</time>
      </trkpt>
      <trkpt lat="47.04949" lon="6.01792">
        <ele>522.8</ele>
        <time>2024-09-01T08:30:40Z</time>
      </trkpt>
      <trkpt lat="47.0495" lon="6.01795">
        <ele>522.8</ele>
        <time>2024-09-01T08:30:41Z</time>
      </trkpt>
      <trkpt lat="47.04951" lon="6.01799">
        <ele>522.8</ele>
        <time>2024-09-01T08:30:42Z</time>
      </trkpt>
      <trkpt lat="47.04952" lon="6.01803">
        <ele>522.8</ele>
        <time>2024-09-01T08:30:43Z</time>
      </trkpt>
      <trkpt lat="47.04952" lon="6.01807">
        <ele>523</ele>
        <time>2024-09-01T08:30:44Z</time>
      </trkpt>
      <trkpt lat="47.04953" lon="6.01811">
        <ele>523</ele>
        <time>2024-09-01T08:30:45Z</time>
      </trkpt>
      <trkpt lat="47.04953" lon="6.01815">
        <ele>522.8</ele>
        <time>2024-09-01T08:30:46Z</time>
      </trkpt>
      <trkpt lat="47.04953" lon="6.01819">
        <ele>523</ele>
        <time>2024-09-01T08:30:47Z</time>
      </trkpt>
      <trkpt lat="47.04953" lon="6.01822">
        <ele>523.2</ele>
        <time>2024-09-01T08:30:48Z</time>
      </trkpt>
      <trkpt lat="47.04953" lon="6.01826">
        <ele>523.2</ele>
        <time>2024-09-01T08:30:49Z</time>
      </trkpt>
      <trkpt lat="47.04953" lon="6.0183">
        <ele>523.4</ele>
        <time>2024-09-01T08:30:50Z</time>
      </trkpt>
      <trkpt lat="47.04953" lon="6.01833">
        <ele>523.2</ele>
        <time>2024-09-01T08:30:51Z</time>
      </trkpt>
      <trkpt lat="47.04952" lon="6.01837">
        <ele>523.4</ele>
        <time>2024-09-01T08:30:52Z</time>
      </trkpt>
      <trkpt lat="47.04951" lon="6.0184">
        <ele>523.6</ele>
        <time>2024-09-01T08:30:53Z</time>
      </trkpt>
      <trkpt lat="47.04949" lon="6.01843">
        <ele>523.6</ele>
        <time>2024-09-01T08:30:54Z</time>
      </trkpt>
      <trkpt lat="47.04947" lon="6.01847">
        <ele>523.8</ele>
        <time>2024-09-01T08:30:55Z</time>
      </trkpt>
      <trkpt lat="47.04945" lon="6.0185">
        <ele>523.6</ele>
        <time>2024-09-01T08:30:56Z</time>
      </trkpt>
      <trkpt lat="47.04942" lon="6.01853">
        <ele>523.6</ele>
        <time>2024-09-01T08:30:57Z</time>
      </trkpt>
      <trkpt lat="47.04939" lon="6.01856">
        <ele>523.6</ele>
        <time>2024-09-01T08:30:58Z</time>
      </trkpt>
      <trkpt lat="47.04936" lon="6.01858">
        <ele>523.8</ele>
        <time>2024-09-01T08:30:59Z</time>
      </trkpt>
      <trkpt lat="47.04933" lon="6.01861">
        <ele>523.6</ele>
        <time>2024-09-01T08:31:00Z</time>
      </trkpt>
      <trkpt lat="47.0493" lon="6.01863">
        <ele>523.8</ele>
        <time>2024-09-01T08:31:01Z</time>
      </trkpt>
      <trkpt lat="47.04926" lon="6.01864">
        <ele>523.8</ele>
        <time>2024-09-01T08:31:02Z</time>
      </trkpt>
      <trkpt lat="47.04923" lon="6.01865">
        <ele>523.8</ele>
        <time>2024-09-01T08:31:03Z</time>
      </trkpt>
      <trkpt lat="47.04919" lon="6.01866">
        <ele>523.8</ele>
        <time>2024-09-01T08:31:04Z</time>
      </trkpt>
      <trkpt lat="47.04916" lon="6.01866">
        <ele>523.8</ele>
        <time>2024-09-01T08:31:05Z</time>
      </trkpt>
      <trkpt lat="47.04913" lon="6.01866">
        <ele>523.8</ele>
        <time>2024-09-01T08:31:06Z</time>
      </trkpt>
      <trkpt lat="47.04909" lon="6.01865">
        <ele>523.8</ele>
        <time>2024-09-01T08:31:07Z</time>
      </trkpt>
      <trkpt lat="47.04906" lon="6.01864">
        <ele>523.8</ele>
        <time>2024-09-01T08:31:08Z</time>
      </trkpt>
      <trkpt lat="47.04903" lon="6.01864">
        <ele>524</ele>
        <time>2024-09-01T08:31:09Z</time>
      </trkpt>
      <trkpt lat="47.049" lon="6.01863">
        <ele>523.8</ele>
        <time>2024-09-01T08:31:10Z</time>
      </trkpt>
      <trkpt lat="47.04896" lon="6.01862">
        <ele>524</ele>
        <time>2024-09-01T08:31:11Z</time>
      </trkpt>
      <trkpt lat="47.04893" lon="6.01861">
        <ele>523.8</ele>
        <time>2024-09-01T08:31:12Z</time>
      </trkpt>
      <trkpt lat="47.0489" lon="6.0186">
        <ele>524</ele>
        <time>2024-09-01T08:31:13Z</time>
      </trkpt>
      <trkpt lat="47.04887" lon="6.01859">
        <ele>524</ele>
        <time>2024-09-01T08:31:14Z</time>
      </trkpt>
      <trkpt lat="47.04883" lon="6.01858">
        <ele>524</ele>
        <time>2024-09-01T08:31:15Z</time>
      </trkpt>
      <trkpt lat="47.0488" lon="6.01858">
        <ele>523.8</ele>
        <time>2024-09-01T08:31:16Z</time>
      </trkpt>
      <trkpt lat="47.04876" lon="6.01858">
        <ele>524</ele>
        <time>2024-09-01T08:31:17Z</time>
      </trkpt>
      <trkpt lat="47.04872" lon="6.01859">
        <ele>524.2</ele>
        <time>2024-09-01T08:31:18Z</time>
      </trkpt>
      <trkpt lat="47.04869" lon="6.0186">
        <ele>524</ele>
        <time>2024-09-01T08:31:19Z</time>
      </trkpt>
      <trkpt lat="47.04865" lon="6.01862">
        <ele>524</ele>
        <time>2024-09-01T08:31:20Z</time>
      </trkpt>
      <trkpt lat="47.04862" lon="6.01864">
        <ele>524.2</ele>
        <time>2024-09-01T08:31:21Z</time>
      </trkpt>
      <trkpt lat="47.04859" lon="6.01868">
        <ele>524.2</ele>
        <time>2024-09-01T08:31:22Z</time>
      </trkpt>
      <trkpt lat="47.04856" lon="6.01871">
        <ele>524.2</ele>
        <time>2024-09-01T08:31:23Z</time>
      </trkpt>
      <trkpt lat="47.04853" lon="6.01875">
        <ele>524.4</ele>
        <time>2024-09-01T08:31:24Z</time>
      </trkpt>
      <trkpt lat="47.04851" lon="6.01878">
        <ele>524.4</ele>
        <time>2024-09-01T08:31:25Z</time>
      </trkpt>
      <trkpt lat="47.04849" lon="6.01882">
        <ele>524.4</ele>
        <time>2024-09-01T08:31:26Z</time>
      </trkpt>
      <trkpt lat="47.04846" lon="6.01885">
        <ele>524.4</ele>
        <time>2024-09-01T08:31:27Z</time>
      </trkpt>
      <trkpt lat="47.04844" lon="6.01889">
        <ele>524.4</ele>
        <time>2024-09-01T08:31:28Z</time>
      </trkpt>
      <trkpt lat="47.04842" lon="6.01893">
        <ele>524.6</ele>
        <time>2024-09-01T08:31:29Z</time>
      </trkpt>
      <trkpt lat="47.0484" lon="6.01898">
        <ele>524.6</ele>
        <time>2024-09-01T08:31:30Z</time>
      </trkpt>
      <trkpt lat="47.04839" lon="6.01902">
        <ele>524.6</ele>
        <time>2024-09-01T08:31:31Z</time>
      </trkpt>
      <trkpt lat="47.04837" lon="6.01907">
        <ele>524.8</ele>
        <time>2024-09-01T08:31:32Z</time>
      </trkpt>
      <trkpt lat="47.04835" lon="6.0191">
        <ele>524.8</ele>
        <time>2024-09-01T08:31:33Z</time>
      </trkpt>
      <trkpt lat="47.04833" lon="6.01914">
        <ele>525</ele>
        <time>2024-09-01T08:31:34Z</time>
      </trkpt>
      <trkpt lat="47.04831" lon="6.01918">
        <ele>525</ele>
        <time>2024-09-01T08:31:35Z</time>
      </trkpt>
      <trkpt lat="47.04829" lon="6.01921">
        <ele>525</ele>
        <time>2024-09-01T08:31:36Z</time>
      </trkpt>
      <trkpt lat="47.04827" lon="6.01923">
        <ele>525</ele>
        <time>2024-09-01T08:31:37Z</time>
      </trkpt>
      <trkpt lat="47.04825" lon="6.01925">
        <ele>525.2</ele>
        <time>2024-09-01T08:31:38Z</time>
      </trkpt>
      <trkpt lat="47.04822" lon="6.01927">
        <ele>525.2</ele>
        <time>2024-09-01T08:31:39Z</time>
      </trkpt>
      <trkpt lat="47.04819" lon="6.01928">
        <ele>525.4</ele>
        <time>2024-09-01T08:31:40Z</time>
      </trkpt>
      <trkpt lat="47.04816" lon="6.01929">
        <ele>525.6</ele>
        <time>2024-09-01T08:31:41Z</time>
      </trkpt>
      <trkpt lat="47.04813" lon="6.01929">
        <ele>526</ele>
        <time>2024-09-01T08:31:42Z</time>
      </trkpt>
      <trkpt lat="47.0481" lon="6.01929">
        <ele>526.2</ele>
        <time>2024-09-01T08:31:43Z</time>
      </trkpt>
      <trkpt lat="47.04807" lon="6.01928">
        <ele>526.4</ele>
        <time>2024-09-01T08:31:44Z</time>
      </trkpt>
      <trkpt lat="47.04804" lon="6.01928">
        <ele>526.8</ele>
        <time>2024-09-01T08:31:45Z</time>
      </trkpt>
      <trkpt lat="47.04801" lon="6.01927">
        <ele>526.8</ele>
        <time>2024-09-01T08:31:46Z</time>
      </trkpt>
      <trkpt lat="47.04798" lon="6.01926">
        <ele>527.2</ele>
        <time>2024-09-01T08:31:47Z</time>
      </trkpt>
      <trkpt lat="47.04796" lon="6.01925">
        <ele>527.4</ele>
        <time>2024-09-01T08:31:48Z</time>
      </trkpt>
      <trkpt lat="47.04794" lon="6.01924">
        <ele>527.6</ele>
        <time>2024-09-01T08:31:49Z</time>
      </trkpt>
      <trkpt lat="47.04792" lon="6.01923">
        <ele>527.8</ele>
        <time>2024-09-01T08:31:50Z</time>
      </trkpt>
      <trkpt lat="47.0479" lon="6.01922">
        <ele>527.8</ele>
        <time>2024-09-01T08:31:51Z</time>
      </trkpt>
      <trkpt lat="47.04788" lon="6.01921">
        <ele>527.8</ele>
        <time>2024-09-01T08:31:52Z</time>
      </trkpt>
      <trkpt lat="47.04786" lon="6.0192">
        <ele>527.8</ele>
        <time>2024-09-01T08:31:53Z</time>
      </trkpt>
      <trkpt lat="47.04784" lon="6.01919">
        <ele>527.8</ele>
        <time>2024-09-01T08:31:54Z</time>
      </trkpt>
      <trkpt lat="47.04782" lon="6.01919">
        <ele>528</ele>
        <time>2024-09-01T08:31:55Z</time>
      </trkpt>
      <trkpt lat="47.0478" lon="6.01918">
        <ele>527.8</ele>
        <time>2024-09-01T08:31:56Z</time>
      </trkpt>
      <trkpt lat="47.04778" lon="6.01919">
        <ele>527.8</ele>
        <time>2024-09-01T08:31:57Z</time>
      </trkpt>
      <trkpt lat="47.04776" lon="6.01919">
        <ele>527.8</ele>
        <time>2024-09-01T08:31:58Z</time>
      </trkpt>
      <trkpt lat="47.04775" lon="6.01919">
        <ele>527.8</ele>
        <time>2024-09-01T08:31:59Z</time>
      </trkpt>
      <trkpt lat="47.04773" lon="6.01919">
        <ele>527.8</ele>
        <time>2024-09-01T08:32:00Z</time>
      </trkpt>
      <trkpt lat="47.04772" lon="6.01918">
        <ele>527.8</ele>
        <time>2024-09-01T08:32:01Z</time>
      </trkpt>
      <trkpt lat="47.04769" lon="6.01918">
        <ele>527.6</ele>
        <time>2024-09-01T08:32:02Z</time>
      </trkpt>
      <trkpt lat="47.04767" lon="6.01918">
        <ele>527.6</ele>
        <time>2024-09-01T08:32:03Z</time>
      </trkpt>
      <trkpt lat="47.04766" lon="6.01918">
        <ele>527.4</ele>
        <time>2024-09-01T08:32:04Z</time>
      </trkpt>
      <trkpt lat="47.04764" lon="6.01918">
        <ele>527.4</ele>
        <time>2024-09-01T08:32:05Z</time>
      </trkpt>
      <trkpt lat="47.04763" lon="6.01918">
        <ele>527.2</ele>
        <time>2024-09-01T08:32:06Z</time>
      </trkpt>
      <trkpt lat="47.04762" lon="6.01918">
        <ele>527.2</ele>
        <time>2024-09-01T08:32:07Z</time>
      </trkpt>
      <trkpt lat="47.04761" lon="6.01918">
        <ele>527.2</ele>
        <time>2024-09-01T08:32:08Z</time>
      </trkpt>
      <trkpt lat="47.0476" lon="6.01917">
        <ele>526.8</ele>
        <time>2024-09-01T08:32:09Z</time>
      </trkpt>
      <trkpt lat="47.04759" lon="6.01917">
        <ele>527</ele>
        <time>2024-09-01T08:32:10Z</time>
      </trkpt>
      <trkpt lat="47.04758" lon="6.01917">
        <ele>526.8</ele>
        <time>2024-09-01T08:32:11Z</time>
      </trkpt>
      <trkpt lat="47.04758" lon="6.01916">
        <ele>526.8</ele>
        <time>2024-09-01T08:32:12Z</time>
      </trkpt>
      <trkpt lat="47.04757" lon="6.01916">
        <ele>526.8</ele>
        <time>2024-09-01T08:32:13Z</time>
      </trkpt>
      <trkpt lat="47.04756" lon="6.01916">
        <ele>526.8</ele>
        <time>2024-09-01T08:32:14Z</time>
      </trkpt>
      <trkpt lat="47.04756" lon="6.01915">
        <ele>526.6</ele>
        <time>2024-09-01T08:32:15Z</time>
      </trkpt>
      <trkpt lat="47.04756" lon="6.01915">
        <ele>526.6</ele>
        <time>2024-09-01T08:32:16Z</time>
      </trkpt>
      <trkpt lat="47.04756" lon="6.01915">
        <ele>526.6</ele>
        <time>2024-09-01T08:32:17Z</time>
      </trkpt>
      <trkpt lat="47.04755" lon="6.01914">
        <ele>526.6</ele>
        <time>2024-09-01T08:32:18Z</time>
      </trkpt>
      <trkpt lat="47.04755" lon="6.01914">
        <ele>526.6</ele>
        <time>2024-09-01T08:32:19Z</time>
      </trkpt>
      <trkpt lat="47.04755" lon="6.01914">
        <ele>526.4</ele>
        <time>2024-09-01T08:32:20Z</time>
      </trkpt>
      <trkpt lat="47.04755" lon="6.01914">
        <ele>526.6</ele>
        <time>2024-09-01T08:32:21Z</time>
      </trkpt>
      <trkpt lat="47.04755" lon="6.01913">
        <ele>526.6</ele>
        <time>2024-09-01T08:32:22Z</time>
      </trkpt>
      <trkpt lat="47.04754" lon="6.01913">
        <ele>526.4</ele>
        <time>2024-09-01T08:32:23Z</time>
      </trkpt>
      <trkpt lat="47.04753" lon="6.01913">
        <ele>526.4</ele>
        <time>2024-09-01T08:32:24Z</time>
      </trkpt>
      <trkpt lat="47.04752" lon="6.01913">
        <ele>526.6</ele>
        <time>2024-09-01T08:32:25Z</time>
      </trkpt>
      <trkpt lat="47.04751" lon="6.01913">
        <ele>526.6</ele>
        <time>2024-09-01T08:32:26Z</time>
      </trkpt>
      <trkpt lat="47.04749" lon="6.01913">
        <ele>526.6</ele>
        <time>2024-09-01T08:32:27Z</time>
      </trkpt>
      <trkpt lat="47.04747" lon="6.01913">
        <ele>526.6</ele>
        <time>2024-09-01T08:32:28Z</time>
      </trkpt>
      <trkpt lat="47.04745" lon="6.01913">
        <ele>526.6</ele>
        <time>2024-09-01T08:32:29Z</time>
      </trkpt>
      <trkpt lat="47.04742" lon="6.01914">
        <ele>526.6</ele>
        <time>2024-09-01T08:32:30Z</time>
      </trkpt>
      <trkpt lat="47.04739" lon="6.01915">
        <ele>526.6</ele>
        <time>2024-09-01T08:32:31Z</time>
      </trkpt>
      <trkpt lat="47.04735" lon="6.01916">
        <ele>526.8</ele>
        <time>2024-09-01T08:32:32Z</time>
      </trkpt>
      <trkpt lat="47.04731" lon="6.01917">
        <ele>526.6</ele>
        <time>2024-09-01T08:32:33Z</time>
      </trkpt>
      <trkpt lat="47.04727" lon="6.01919">
        <ele>526.6</ele>
        <time>2024-09-01T08:32:34Z</time>
      </trkpt>
      <trkpt lat="47.04723" lon="6.0192">
        <ele>526.8</ele>
        <time>2024-09-01T08:32:35Z</time>
      </trkpt>
      <trkpt lat="47.04718" lon="6.01921">
        <ele>526.8</ele>
        <time>2024-09-01T08:32:36Z</time>
      </trkpt>
      <trkpt lat="47.04714" lon="6.01922">
        <ele>526.6</ele>
        <time>2024-09-01T08:32:37Z</time>
      </trkpt>
      <trkpt lat="47.0471" lon="6.01924">
        <ele>526.6</ele>
        <time>2024-09-01T08:32:38Z</time>
      </trkpt>
      <trkpt lat="47.04706" lon="6.01926">
        <ele>526.6</ele>
        <time>2024-09-01T08:32:39Z</time>
      </trkpt>
      <trkpt lat="47.04702" lon="6.01928">
        <ele>526.6</ele>
        <time>2024-09-01T08:32:40Z</time>
      </trkpt>
      <trkpt lat="47.04698" lon="6.0193">
        <ele>526.6</ele>
        <time>2024-09-01T08:32:41Z</time>
      </trkpt>
      <trkpt lat="47.04695" lon="6.01932">
        <ele>526.4</ele>
        <time>2024-09-01T08:32:42Z</time>
      </trkpt>
      <trkpt lat="47.04691" lon="6.01934">
        <ele>526.4</ele>
        <time>2024-09-01T08:32:43Z</time>
      </trkpt>
      <trkpt lat="47.04687" lon="6.01937">
        <ele>526.2</ele>
        <time>2024-09-01T08:32:44Z</time>
      </trkpt>
      <trkpt lat="47.04684" lon="6.01939">
        <ele>526</ele>
        <time>2024-09-01T08:32:45Z</time>
      </trkpt>
      <trkpt lat="47.0468" lon="6.01942">
        <ele>525.8</ele>
        <time>2024-09-01T08:32:46Z</time>
      </trkpt>
      <trkpt lat="47.04677" lon="6.01945">
        <ele>525.8</ele>
        <time>2024-09-01T08:32:47Z</time>
      </trkpt>
      <trkpt lat="47.04673" lon="6.01947">
        <ele>525.8</ele>
        <time>2024-09-01T08:32:48Z</time>
      </trkpt>
      <trkpt lat="47.0467" lon="6.0195">
        <ele>525.6</ele>
        <time>2024-09-01T08:32:49Z</time>
      </trkpt>
      <trkpt lat="47.04666" lon="6.01952">
        <ele>525.6</ele>
        <time>2024-09-01T08:32:50Z</time>
      </trkpt>
      <trkpt lat="47.04662" lon="6.01954">
        <ele>525.4</ele>
        <time>2024-09-01T08:32:51Z</time>
      </trkpt>
      <trkpt lat="47.04658" lon="6.01956">
        <ele>525.6</ele>
        <time>2024-09-01T08:32:52Z</time>
      </trkpt>
      <trkpt lat="47.04654" lon="6.01958">
        <ele>525.4</ele>
        <time>2024-09-01T08:32:53Z</time>
      </trkpt>
      <trkpt lat="47.0465" lon="6.0196">
        <ele>525.4</ele>
        <time>2024-09-01T08:32:54Z</time>
      </trkpt>
      <trkpt lat="47.04646" lon="6.01962">
        <ele>525.2</ele>
        <time>2024-09-01T08:32:55Z</time>
      </trkpt>
      <trkpt lat="47.04642" lon="6.01963">
        <ele>525.2</ele>
        <time>2024-09-01T08:32:56Z</time>
      </trkpt>
      <trkpt lat="47.04637" lon="6.01964">
        <ele>525.2</ele>
        <time>2024-09-01T08:32:57Z</time>
      </trkpt>
      <trkpt lat="47.04633" lon="6.01964">
        <ele>525.2</ele>
        <time>2024-09-01T08:32:58Z</time>
      </trkpt>
      <trkpt lat="47.04629" lon="6.01966">
        <ele>525.2</ele>
        <time>2024-09-01T08:32:59Z</time>
      </trkpt>
      <trkpt lat="47.04624" lon="6.01966">
        <ele>525.2</ele>
        <time>2024-09-01T08:33:00Z</time>
      </trkpt>
      <trkpt lat="47.0462" lon="6.01967">
        <ele>525.2</ele>
        <time>2024-09-01T08:33:01Z</time>
      </trkpt>
      <trkpt lat="47.04616" lon="6.01966">
        <ele>525</ele>
        <time>2024-09-01T08:33:02Z</time>
      </trkpt>
      <trkpt lat="47.04612" lon="6.01966">
        <ele>525.2</ele>
        <time>2024-09-01T08:33:03Z</time>
      </trkpt>
      <trkpt lat="47.04608" lon="6.01965">
        <ele>525</ele>
        <time>2024-09-01T08:33:04Z</time>
      </trkpt>
      <trkpt lat="47.04605" lon="6.01964">
        <ele>525</ele>
        <time>2024-09-01T08:33:05Z</time>
      </trkpt>
      <trkpt lat="47.04601" lon="6.01962">
        <ele>525.2</ele>
        <time>2024-09-01T08:33:06Z</time>
      </trkpt>
      <trkpt lat="47.04598" lon="6.0196">
        <ele>525.2</ele>
        <time>2024-09-01T08:33:07Z</time>
      </trkpt>
      <trkpt lat="47.04594" lon="6.01959">
        <ele>525.2</ele>
        <time>2024-09-01T08:33:08Z</time>
      </trkpt>
      <trkpt lat="47.0459" lon="6.01957">
        <ele>525.2</ele>
        <time>2024-09-01T08:33:09Z</time>
      </trkpt>
      <trkpt lat="47.04587" lon="6.01955">
        <ele>525.2</ele>
        <time>2024-09-01T08:33:10Z</time>
      </trkpt>
      <trkpt lat="47.04584" lon="6.01954">
        <ele>525.2</ele>
        <time>2024-09-01T08:33:11Z</time>
      </trkpt>
      <trkpt lat="47.04581" lon="6.01953">
        <ele>525.4</ele>
        <time>2024-09-01T08:33:12Z</time>
      </trkpt>
      <trkpt lat="47.04578" lon="6.01952">
        <ele>525.6</ele>
        <time>2024-09-01T08:33:13Z</time>
      </trkpt>
      <trkpt lat="47.04575" lon="6.01951">
        <ele>525.8</ele>
        <time>2024-09-01T08:33:14Z</time>
      </trkpt>
      <trkpt lat="47.04571" lon="6.01951">
        <ele>525.8</ele>
        <time>2024-09-01T08:33:15Z</time>
      </trkpt>
      <trkpt lat="47.04568" lon="6.01951">
        <ele>526</ele>
        <time>2024-09-01T08:33:16Z</time>
      </trkpt>
      <trkpt lat="47.04565" lon="6.01951">
        <ele>526.2</ele>
        <time>2024-09-01T08:33:17Z</time>
      </trkpt>
      <trkpt lat="47.04562" lon="6.01951">
        <ele>526.2</ele>
        <time>2024-09-01T08:33:18Z</time>
      </trkpt>
      <trkpt lat="47.04559" lon="6.01951">
        <ele>526.8</ele>
        <time>2024-09-01T08:33:19Z</time>
      </trkpt>
      <trkpt lat="47.04556" lon="6.01952">
        <ele>527</ele>
        <time>2024-09-01T08:33:20Z</time>
      </trkpt>
      <trkpt lat="47.04554" lon="6.01952">
        <ele>527</ele>
        <time>2024-09-01T08:33:21Z</time>
      </trkpt>
      <trkpt lat="47.04551" lon="6.01953">
        <ele>527</ele>
        <time>2024-09-01T08:33:22Z</time>
      </trkpt>
      <trkpt lat="47.04548" lon="6.01953">
        <ele>527.2</ele>
        <time>2024-09-01T08:33:23Z</time>
      </trkpt>
      <trkpt lat="47.04546" lon="6.01954">
        <ele>527.6</ele>
        <time>2024-09-01T08:33:24Z</time>
      </trkpt>
      <trkpt lat="47.04544" lon="6.01954">
        <ele>527.8</ele>
        <time>2024-09-01T08:33:25Z</time>
      </trkpt>
      <trkpt lat="47.04541" lon="6.01955">
        <ele>528</ele>
        <time>2024-09-01T08:33:26Z</time>
      </trkpt>
      <trkpt lat="47.04538" lon="6.01955">
        <ele>528.2</ele>
        <time>2024-09-01T08:33:27Z</time>
      </trkpt>
      <trkpt lat="47.04536" lon="6.01955">
        <ele>528.6</ele>
        <time>2024-09-01T08:33:28Z</time>
      </trkpt>
      <trkpt lat="47.04533" lon="6.01956">
        <ele>528.8</ele>
        <time>2024-09-01T08:33:29Z</time>
      </trkpt>
      <trkpt lat="47.04531" lon="6.01956">
        <ele>529</ele>
        <time>2024-09-01T08:33:30Z</time>
      </trkpt>
      <trkpt lat="47.04528" lon="6.01956">
        <ele>529</ele>
        <time>2024-09-01T08:33:31Z</time>
      </trkpt>
      <trkpt lat="47.04526" lon="6.01957">
        <ele>529.2</ele>
        <time>2024-09-01T08:33:32Z</time>
      </trkpt>
      <trkpt lat="47.04524" lon="6.01957">
        <ele>529.2</ele>
        <time>2024-09-01T08:33:33Z</time>
      </trkpt>
      <trkpt lat="47.04521" lon="6.01958">
        <ele>529.4</ele>
        <time>2024-09-01T08:33:34Z</time>
      </trkpt>
      <trkpt lat="47.04518" lon="6.01958">
        <ele>529.6</ele>
        <time>2024-09-01T08:33:35Z</time>
      </trkpt>
      <trkpt lat="47.04515" lon="6.01959">
        <ele>529.8</ele>
        <time>2024-09-01T08:33:36Z</time>
      </trkpt>
      <trkpt lat="47.04512" lon="6.0196">
        <ele>529.8</ele>
        <time>2024-09-01T08:33:37Z</time>
      </trkpt>
      <trkpt lat="47.0451" lon="6.01959">
        <ele>530</ele>
        <time>2024-09-01T08:33:38Z</time>
      </trkpt>
      <trkpt lat="47.04507" lon="6.01958">
        <ele>530</ele>
        <time>2024-09-01T08:33:39Z</time>
      </trkpt>
      <trkpt lat="47.04506" lon="6.01957">
        <ele>530.2</ele>
        <time>2024-09-01T08:33:40Z</time>
      </trkpt>
      <trkpt lat="47.04505" lon="6.01953">
        <ele>530.2</ele>
        <time>2024-09-01T08:33:41Z</time>
      </trkpt>
      <trkpt lat="47.04505" lon="6.0195">
        <ele>530.2</ele>
        <time>2024-09-01T08:33:42Z</time>
      </trkpt>
      <trkpt lat="47.04505" lon="6.01946">
        <ele>530.4</ele>
        <time>2024-09-01T08:33:43Z</time>
      </trkpt>
      <trkpt lat="47.04505" lon="6.01941">
        <ele>530.6</ele>
        <time>2024-09-01T08:33:44Z</time>
      </trkpt>
      <trkpt lat="47.04505" lon="6.01936">
        <ele>530.6</ele>
        <time>2024-09-01T08:33:45Z</time>
      </trkpt>
      <trkpt lat="47.04505" lon="6.01931">
        <ele>530.6</ele>
        <time>2024-09-01T08:33:46Z</time>
      </trkpt>
      <trkpt lat="47.04505" lon="6.01927">
        <ele>530.6</ele>
        <time>2024-09-01T08:33:47Z</time>
      </trkpt>
      <trkpt lat="47.04505" lon="6.01923">
        <ele>530.6</ele>
        <time>2024-09-01T08:33:48Z</time>
      </trkpt>
      <trkpt lat="47.04505" lon="6.01919">
        <ele>531</ele>
        <time>2024-09-01T08:33:49Z</time>
      </trkpt>
      <trkpt lat="47.04504" lon="6.01914">
        <ele>531.4</ele>
        <time>2024-09-01T08:33:50Z</time>
      </trkpt>
      <trkpt lat="47.04503" lon="6.01908">
        <ele>531.6</ele>
        <time>2024-09-01T08:33:51Z</time>
      </trkpt>
      <trkpt lat="47.04502" lon="6.01903">
        <ele>531.6</ele>
        <time>2024-09-01T08:33:52Z</time>
      </trkpt>
      <trkpt lat="47.045" lon="6.01898">
        <ele>531.6</ele>
        <time>2024-09-01T08:33:53Z</time>
      </trkpt>
      <trkpt lat="47.04499" lon="6.01894">
        <ele>531.8</ele>
        <time>2024-09-01T08:33:54Z</time>
      </trkpt>
      <trkpt lat="47.04498" lon="6.0189">
        <ele>531.8</ele>
        <time>2024-09-01T08:33:55Z</time>
      </trkpt>
      <trkpt lat="47.04497" lon="6.01885">
        <ele>531.8</ele>
        <time>2024-09-01T08:33:56Z</time>
      </trkpt>
      <trkpt lat="47.04496" lon="6.01881">
        <ele>531.8</ele>
        <time>2024-09-01T08:33:57Z</time>
      </trkpt>
      <trkpt lat="47.04495" lon="6.01876">
        <ele>531.8</ele>
        <time>2024-09-01T08:33:58Z</time>
      </trkpt>
      <trkpt lat="47.04494" lon="6.01872">
        <ele>531.8</ele>
        <time>2024-09-01T08:33:59Z</time>
      </trkpt>
      <trkpt lat="47.04493" lon="6.01867">
        <ele>531.8</ele>
        <time>2024-09-01T08:34:00Z</time>
      </trkpt>
      <trkpt lat="47.04491" lon="6.01862">
        <ele>531.8</ele>
        <time>2024-09-01T08:34:01Z</time>
      </trkpt>
      <trkpt lat="47.0449" lon="6.01856">
        <ele>532</ele>
        <time>2024-09-01T08:34:02Z</time>
      </trkpt>
      <trkpt lat="47.04489" lon="6.0185">
        <ele>532</ele>
        <time>2024-09-01T08:34:03Z</time>
      </trkpt>
      <trkpt lat="47.04487" lon="6.01845">
        <ele>531.8</ele>
        <time>2024-09-01T08:34:04Z</time>
      </trkpt>
      <trkpt lat="47.04486" lon="6.01838">
        <ele>531.8</ele>
        <time>2024-09-01T08:34:05Z</time>
      </trkpt>
      <trkpt lat="47.04484" lon="6.01832">
        <ele>531.8</ele>
        <time>2024-09-01T08:34:06Z</time>
      </trkpt>
      <trkpt lat="47.04483" lon="6.01825">
        <ele>531.6</ele>
        <time>2024-09-01T08:34:07Z</time>
      </trkpt>
      <trkpt lat="47.04481" lon="6.01818">
        <ele>531.8</ele>
        <time>2024-09-01T08:34:08Z</time>
      </trkpt>
      <trkpt lat="47.0448" lon="6.0181">
        <ele>531.8</ele>
        <time>2024-09-01T08:34:09Z</time>
      </trkpt>
      <trkpt lat="47.04478" lon="6.01802">
        <ele>531.8</ele>
        <time>2024-09-01T08:34:10Z</time>
      </trkpt>
      <trkpt lat="47.04476" lon="6.01794">
        <ele>531.8</ele>
        <time>2024-09-01T08:34:11Z</time>
      </trkpt>
      <trkpt lat="47.04474" lon="6.01785">
        <ele>531.6</ele>
        <time>2024-09-01T08:34:12Z</time>
      </trkpt>
      <trkpt lat="47.04472" lon="6.01776">
        <ele>531.6</ele>
        <time>2024-09-01T08:34:13Z</time>
      </trkpt>
      <trkpt lat="47.04469" lon="6.01767">
        <ele>531.6</ele>
        <time>2024-09-01T08:34:14Z</time>
      </trkpt>
      <trkpt lat="47.04466" lon="6.01758">
        <ele>531.4</ele>
        <time>2024-09-01T08:34:15Z</time>
      </trkpt>
      <trkpt lat="47.04463" lon="6.01749">
        <ele>531.4</ele>
        <time>2024-09-01T08:34:16Z</time>
      </trkpt>
      <trkpt lat="47.0446" lon="6.01741">
        <ele>531.2</ele>
        <time>2024-09-01T08:34:17Z</time>
      </trkpt>
      <trkpt lat="47.04453" lon="6.01733">
        <ele>531.2</ele>
        <time>2024-09-01T08:34:18Z</time>
      </trkpt>
      <trkpt lat="47.04448" lon="6.01725">
        <ele>531</ele>
        <time>2024-09-01T08:34:19Z</time>
      </trkpt>
      <trkpt lat="47.04443" lon="6.01718">
        <ele>530.8</ele>
        <time>2024-09-01T08:34:20Z</time>
      </trkpt>
      <trkpt lat="47.04438" lon="6.0171">
        <ele>530.6</ele>
        <time>2024-09-01T08:34:21Z</time>
      </trkpt>
      <trkpt lat="47.04434" lon="6.01701">
        <ele>530.4</ele>
        <time>2024-09-01T08:34:22Z</time>
      </trkpt>
      <trkpt lat="47.04429" lon="6.01692">
        <ele>530.2</ele>
        <time>2024-09-01T08:34:23Z</time>
      </trkpt>
      <trkpt lat="47.04425" lon="6.01682">
        <ele>529.6</ele>
        <time>2024-09-01T08:34:24Z</time>
      </trkpt>
      <trkpt lat="47.04421" lon="6.01672">
        <ele>529.6</ele>
        <time>2024-09-01T08:34:25Z</time>
      </trkpt>
      <trkpt lat="47.04416" lon="6.01661">
        <ele>528.8</ele>
        <time>2024-09-01T08:34:26Z</time>
      </trkpt>
      <trkpt lat="47.04412" lon="6.01649">
        <ele>528.4</ele>
        <time>2024-09-01T08:34:27Z</time>
      </trkpt>
      <trkpt lat="47.04408" lon="6.01638">
        <ele>527.8</ele>
        <time>2024-09-01T08:34:28Z</time>
      </trkpt>
      <trkpt lat="47.04404" lon="6.01627">
        <ele>527</ele>
        <time>2024-09-01T08:34:29Z</time>
      </trkpt>
      <trkpt lat="47.044" lon="6.01614">
        <ele>526.6</ele>
        <time>2024-09-01T08:34:30Z</time>
      </trkpt>
      <trkpt lat="47.04396" lon="6.01601">
        <ele>526.4</ele>
        <time>2024-09-01T08:34:31Z</time>
      </trkpt>
      <trkpt lat="47.04393" lon="6.01588">
        <ele>526</ele>
        <time>2024-09-01T08:34:32Z</time>
      </trkpt>
      <trkpt lat="47.04389" lon="6.01576">
        <ele>525.6</ele>
        <time>2024-09-01T08:34:33Z</time>
      </trkpt>
      <trkpt lat="47.04386" lon="6.01563">
        <ele>525</ele>
        <time>2024-09-01T08:34:34Z</time>
      </trkpt>
      <trkpt lat="47.04383" lon="6.01551">
        <ele>524.6</ele>
        <time>2024-09-01T08:34:35Z</time>
      </trkpt>
      <trkpt lat="47.04381" lon="6.01538">
        <ele>524.2</ele>
        <time>2024-09-01T08:34:36Z</time>
      </trkpt>
      <trkpt lat="47.04378" lon="6.01525">
        <ele>523.8</ele>
        <time>2024-09-01T08:34:37Z</time>
      </trkpt>
      <trkpt lat="47.04374" lon="6.01511">
        <ele>523.6</ele>
        <time>2024-09-01T08:34:38Z</time>
      </trkpt>
      <trkpt lat="47.04371" lon="6.01496">
        <ele>523</ele>
        <time>2024-09-01T08:34:39Z</time>
      </trkpt>
      <trkpt lat="47.04369" lon="6.01482">
        <ele>522.8</ele>
        <time>2024-09-01T08:34:40Z</time>
      </trkpt>
      <trkpt lat="47.04366" lon="6.01467">
        <ele>522.2</ele>
        <time>2024-09-01T08:34:41Z</time>
      </trkpt>
      <trkpt lat="47.04364" lon="6.01452">
        <ele>521.8</ele>
        <time>2024-09-01T08:34:42Z</time>
      </trkpt>
      <trkpt lat="47.04362" lon="6.01438">
        <ele>521.4</ele>
        <time>2024-09-01T08:34:43Z</time>
      </trkpt>
      <trkpt lat="47.04359" lon="6.01423">
        <ele>521</ele>
        <time>2024-09-01T08:34:44Z</time>
      </trkpt>
      <trkpt lat="47.04356" lon="6.01407">
        <ele>520.6</ele>
        <time>2024-09-01T08:34:45Z</time>
      </trkpt>
      <trkpt lat="47.04354" lon="6.01391">
        <ele>520.2</ele>
        <time>2024-09-01T08:34:46Z</time>
      </trkpt>
      <trkpt lat="47.0435" lon="6.01375">
        <ele>519.6</ele>
        <time>2024-09-01T08:34:47Z</time>
      </trkpt>
      <trkpt lat="47.04347" lon="6.01358">
        <ele>519</ele>
        <time>2024-09-01T08:34:48Z</time>
      </trkpt>
      <trkpt lat="47.04344" lon="6.01342">
        <ele>518.4</ele>
        <time>2024-09-01T08:34:49Z</time>
      </trkpt>
      <trkpt lat="47.04341" lon="6.01326">
        <ele>518.2</ele>
        <time>2024-09-01T08:34:50Z</time>
      </trkpt>
      <trkpt lat="47.04338" lon="6.01309">
        <ele>517.6</ele>
        <time>2024-09-01T08:34:51Z</time>
      </trkpt>
      <trkpt lat="47.04335" lon="6.01292">
        <ele>517.2</ele>
        <time>2024-09-01T08:34:52Z</time>
      </trkpt>
      <trkpt lat="47.04333" lon="6.01275">
        <ele>516.6</ele>
        <time>2024-09-01T08:34:53Z</time>
      </trkpt>
      <trkpt lat="47.04331" lon="6.01257">
        <ele>515.8</ele>
        <time>2024-09-01T08:34:54Z</time>
      </trkpt>
      <trkpt lat="47.04329" lon="6.01239">
        <ele>515.2</ele>
        <time>2024-09-01T08:34:55Z</time>
      </trkpt>
      <trkpt lat="47.04326" lon="6.01222">
        <ele>514.6</ele>
        <time>2024-09-01T08:34:56Z</time>
      </trkpt>
      <trkpt lat="47.04324" lon="6.01205">
        <ele>513.8</ele>
        <time>2024-09-01T08:34:57Z</time>
      </trkpt>
      <trkpt lat="47.04321" lon="6.01187">
        <ele>513.2</ele>
        <time>2024-09-01T08:34:58Z</time>
      </trkpt>
      <trkpt lat="47.04317" lon="6.0117">
        <ele>512.4</ele>
        <time>2024-09-01T08:34:59Z</time>
      </trkpt>
      <trkpt lat="47.04312" lon="6.01153">
        <ele>511.6</ele>
        <time>2024-09-01T08:35:00Z</time>
      </trkpt>
      <trkpt lat="47.04306" lon="6.01137">
        <ele>511</ele>
        <time>2024-09-01T08:35:01Z</time>
      </trkpt>
      <trkpt lat="47.04301" lon="6.01121">
        <ele>510.4</ele>
        <time>2024-09-01T08:35:02Z</time>
      </trkpt>
      <trkpt lat="47.04296" lon="6.01105">
        <ele>509.8</ele>
        <time>2024-09-01T08:35:03Z</time>
      </trkpt>
      <trkpt lat="47.04291" lon="6.01088">
        <ele>509</ele>
        <time>2024-09-01T08:35:04Z</time>
      </trkpt>
      <trkpt lat="47.04287" lon="6.01073">
        <ele>508</ele>
        <time>2024-09-01T08:35:05Z</time>
      </trkpt>
      <trkpt lat="47.04283" lon="6.01058">
        <ele>507</ele>
        <time>2024-09-01T08:35:06Z</time>
      </trkpt>
      <trkpt lat="47.04281" lon="6.01043">
        <ele>506.2</ele>
        <time>2024-09-01T08:35:07Z</time>
      </trkpt>
      <trkpt lat="47.04278" lon="6.01027">
        <ele>505.4</ele>
        <time>2024-09-01T08:35:08Z</time>
      </trkpt>
      <trkpt lat="47.04276" lon="6.01012">
        <ele>504.8</ele>
        <time>2024-09-01T08:35:09Z</time>
      </trkpt>
      <trkpt lat="47.04275" lon="6.00997">
        <ele>504</ele>
        <time>2024-09-01T08:35:10Z</time>
      </trkpt>
      <trkpt lat="47.04273" lon="6.00982">
        <ele>503.8</ele>
        <time>2024-09-01T08:35:11Z</time>
      </trkpt>
      <trkpt lat="47.04272" lon="6.00968">
        <ele>503.4</ele>
        <time>2024-09-01T08:35:12Z</time>
      </trkpt>
      <trkpt lat="47.04272" lon="6.00954">
        <ele>503.2</ele>
        <time>2024-09-01T08:35:13Z</time>
      </trkpt>
      <trkpt lat="47.04273" lon="6.00941">
        <ele>503</ele>
        <time>2024-09-01T08:35:14Z</time>
      </trkpt>
      <trkpt lat="47.04274" lon="6.00928">
        <ele>502.6</ele>
        <time>2024-09-01T08:35:15Z</time>
      </trkpt>
      <trkpt lat="47.04277" lon="6.00917">
        <ele>502.6</ele>
        <time>2024-09-01T08:35:16Z</time>
      </trkpt>
      <trkpt lat="47.0428" lon="6.00905">
        <ele>502.4</ele>
        <time>2024-09-01T08:35:17Z</time>
      </trkpt>
      <trkpt lat="47.04283" lon="6.00896">
        <ele>502.2</ele>
        <time>2024-09-01T08:35:18Z</time>
      </trkpt>
      <trkpt lat="47.04287" lon="6.00887">
        <ele>502</ele>
        <time>2024-09-01T08:35:19Z</time>
      </trkpt>
      <trkpt lat="47.04291" lon="6.00879">
        <ele>502</ele>
        <time>2024-09-01T08:35:20Z</time>
      </trkpt>
      <trkpt lat="47.04294" lon="6.00871">
        <ele>501.8</ele>
        <time>2024-09-01T08:35:21Z</time>
      </trkpt>
      <trkpt lat="47.04297" lon="6.00864">
        <ele>501.8</ele>
        <time>2024-09-01T08:35:22Z</time>
      </trkpt>
      <trkpt lat="47.04299" lon="6.00857">
        <ele>501.8</ele>
        <time>2024-09-01T08:35:23Z</time>
      </trkpt>
      <trkpt lat="47.04301" lon="6.00851">
        <ele>501.8</ele>
        <time>2024-09-01T08:35:24Z</time>
      </trkpt>
      <trkpt lat="47.04303" lon="6.00844">
        <ele>502</ele>
        <time>2024-09-01T08:35:25Z</time>
      </trkpt>
      <trkpt lat="47.04305" lon="6.00838">
        <ele>502</ele>
        <time>2024-09-01T08:35:26Z</time>
      </trkpt>
      <trkpt lat="47.04307" lon="6.00831">
        <ele>501.8</ele>
        <time>2024-09-01T08:35:27Z</time>
      </trkpt>
      <trkpt lat="47.04308" lon="6.00825">
        <ele>502</ele>
        <time>2024-09-01T08:35:28Z</time>
      </trkpt>
      <trkpt lat="47.04309" lon="6.00818">
        <ele>502.4</ele>
        <time>2024-09-01T08:35:29Z</time>
      </trkpt>
      <trkpt lat="47.0431" lon="6.00812">
        <ele>502.6</ele>
        <time>2024-09-01T08:35:30Z</time>
      </trkpt>
      <trkpt lat="47.0431" lon="6.00805">
        <ele>502.8</ele>
        <time>2024-09-01T08:35:31Z</time>
      </trkpt>
      <trkpt lat="47.0431" lon="6.00798">
        <ele>503</ele>
        <time>2024-09-01T08:35:32Z</time>
      </trkpt>
      <trkpt lat="47.0431" lon="6.00791">
        <ele>503</ele>
        <time>2024-09-01T08:35:33Z</time>
      </trkpt>
      <trkpt lat="47.04311" lon="6.00786">
        <ele>503.4</ele>
        <time>2024-09-01T08:35:34Z</time>
      </trkpt>
      <trkpt lat="47.04311" lon="6.0078">
        <ele>503.4</ele>
        <time>2024-09-01T08:35:35Z</time>
      </trkpt>
      <trkpt lat="47.0431" lon="6.00773">
        <ele>503.6</ele>
        <time>2024-09-01T08:35:36Z</time>
      </trkpt>
      <trkpt lat="47.0431" lon="6.00767">
        <ele>503.6</ele>
        <time>2024-09-01T08:35:37Z</time>
      </trkpt>
      <trkpt lat="47.04309" lon="6.0076">
        <ele>503.8</ele>
        <time>2024-09-01T08:35:38Z</time>
      </trkpt>
      <trkpt lat="47.04308" lon="6.00753">
        <ele>504</ele>
        <time>2024-09-01T08:35:39Z</time>
      </trkpt>
      <trkpt lat="47.04308" lon="6.00746">
        <ele>504.2</ele>
        <time>2024-09-01T08:35:40Z</time>
      </trkpt>
      <trkpt lat="47.04307" lon="6.00739">
        <ele>504.2</ele>
        <time>2024-09-01T08:35:41Z</time>
      </trkpt>
      <trkpt lat="47.04306" lon="6.00732">
        <ele>504.2</ele>
        <time>2024-09-01T08:35:42Z</time>
      </trkpt>
      <trkpt lat="47.04305" lon="6.00725">
        <ele>504.6</ele>
        <time>2024-09-01T08:35:43Z</time>
      </trkpt>
      <trkpt lat="47.04305" lon="6.00717">
        <ele>504.6</ele>
        <time>2024-09-01T08:35:44Z</time>
      </trkpt>
      <trkpt lat="47.04303" lon="6.00708">
        <ele>504.8</ele>
        <time>2024-09-01T08:35:45Z</time>
      </trkpt>
      <trkpt lat="47.04302" lon="6.00699">
        <ele>504.8</ele>
        <time>2024-09-01T08:35:46Z</time>
      </trkpt>
      <trkpt lat="47.04301" lon="6.00692">
        <ele>504.8</ele>
        <time>2024-09-01T08:35:47Z</time>
      </trkpt>
      <trkpt lat="47.04301" lon="6.00685">
        <ele>505</ele>
        <time>2024-09-01T08:35:48Z</time>
      </trkpt>
      <trkpt lat="47.04301" lon="6.00678">
        <ele>505</ele>
        <time>2024-09-01T08:35:49Z</time>
      </trkpt>
      <trkpt lat="47.04302" lon="6.0067">
        <ele>505.2</ele>
        <time>2024-09-01T08:35:50Z</time>
      </trkpt>
      <trkpt lat="47.04303" lon="6.00663">
        <ele>505.2</ele>
        <time>2024-09-01T08:35:51Z</time>
      </trkpt>
      <trkpt lat="47.04306" lon="6.00656">
        <ele>505.4</ele>
        <time>2024-09-01T08:35:52Z</time>
      </trkpt>
      <trkpt lat="47.04308" lon="6.00649">
        <ele>505.4</ele>
        <time>2024-09-01T08:35:53Z</time>
      </trkpt>
      <trkpt lat="47.0431" lon="6.00642">
        <ele>505.6</ele>
        <time>2024-09-01T08:35:54Z</time>
      </trkpt>
      <trkpt lat="47.04313" lon="6.00635">
        <ele>505.8</ele>
        <time>2024-09-01T08:35:55Z</time>
      </trkpt>
      <trkpt lat="47.04316" lon="6.00629">
        <ele>506</ele>
        <time>2024-09-01T08:35:56Z</time>
      </trkpt>
      <trkpt lat="47.04319" lon="6.00623">
        <ele>506</ele>
        <time>2024-09-01T08:35:57Z</time>
      </trkpt>
      <trkpt lat="47.04322" lon="6.00618">
        <ele>506.4</ele>
        <time>2024-09-01T08:35:58Z</time>
      </trkpt>
      <trkpt lat="47.04325" lon="6.00613">
        <ele>506.6</ele>
        <time>2024-09-01T08:35:59Z</time>
      </trkpt>
      <trkpt lat="47.04328" lon="6.00609">
        <ele>506.6</ele>
        <time>2024-09-01T08:36:00Z</time>
      </trkpt>
      <trkpt lat="47.04331" lon="6.00604">
        <ele>506.8</ele>
        <time>2024-09-01T08:36:01Z</time>
      </trkpt>
      <trkpt lat="47.04335" lon="6.006">
        <ele>507</ele>
        <time>2024-09-01T08:36:02Z</time>
      </trkpt>
      <trkpt lat="47.04338" lon="6.00596">
        <ele>507.2</ele>
        <time>2024-09-01T08:36:03Z</time>
      </trkpt>
      <trkpt lat="47.04341" lon="6.00591">
        <ele>507.4</ele>
        <time>2024-09-01T08:36:04Z</time>
      </trkpt>
      <trkpt lat="47.04344" lon="6.00586">
        <ele>507.4</ele>
        <time>2024-09-01T08:36:05Z</time>
      </trkpt>
      <trkpt lat="47.04348" lon="6.00581">
        <ele>507.8</ele>
        <time>2024-09-01T08:36:06Z</time>
      </trkpt>
      <trkpt lat="47.04352" lon="6.00576">
        <ele>508</ele>
        <time>2024-09-01T08:36:07Z</time>
      </trkpt>
      <trkpt lat="47.04355" lon="6.00571">
        <ele>508.2</ele>
        <time>2024-09-01T08:36:08Z</time>
      </trkpt>
      <trkpt lat="47.04358" lon="6.00565">
        <ele>508.4</ele>
        <time>2024-09-01T08:36:09Z</time>
      </trkpt>
      <trkpt lat="47.04361" lon="6.00559">
        <ele>508.6</ele>
        <time>2024-09-01T08:36:10Z</time>
      </trkpt>
      <trkpt lat="47.04365" lon="6.00553">
        <ele>508.8</ele>
        <time>2024-09-01T08:36:11Z</time>
      </trkpt>
      <trkpt lat="47.0437" lon="6.00545">
        <ele>509</ele>
        <time>2024-09-01T08:36:12Z</time>
      </trkpt>
      <trkpt lat="47.04374" lon="6.00538">
        <ele>509.2</ele>
        <time>2024-09-01T08:36:13Z</time>
      </trkpt>
      <trkpt lat="47.04379" lon="6.00532">
        <ele>509.2</ele>
        <time>2024-09-01T08:36:14Z</time>
      </trkpt>
      <trkpt lat="47.04384" lon="6.00525">
        <ele>509.4</ele>
        <time>2024-09-01T08:36:15Z</time>
      </trkpt>
      <trkpt lat="47.04388" lon="6.00519">
        <ele>509.4</ele>
        <time>2024-09-01T08:36:16Z</time>
      </trkpt>
      <trkpt lat="47.04392" lon="6.00511">
        <ele>509.4</ele>
        <time>2024-09-01T08:36:17Z</time>
      </trkpt>
      <trkpt lat="47.04396" lon="6.00503">
        <ele>509.2</ele>
        <time>2024-09-01T08:36:18Z</time>
      </trkpt>
      <trkpt lat="47.044" lon="6.00494">
        <ele>509.4</ele>
        <time>2024-09-01T08:36:19Z</time>
      </trkpt>
      <trkpt lat="47.04403" lon="6.00484">
        <ele>509.4</ele>
        <time>2024-09-01T08:36:20Z</time>
      </trkpt>
      <trkpt lat="47.04406" lon="6.00474">
        <ele>509.4</ele>
        <time>2024-09-01T08:36:21Z</time>
      </trkpt>
      <trkpt lat="47.04409" lon="6.00463">
        <ele>509.4</ele>
        <time>2024-09-01T08:36:22Z</time>
      </trkpt>
      <trkpt lat="47.04411" lon="6.00451">
        <ele>509.4</ele>
        <time>2024-09-01T08:36:23Z</time>
      </trkpt>
      <trkpt lat="47.04413" lon="6.00438">
        <ele>509.2</ele>
        <time>2024-09-01T08:36:24Z</time>
      </trkpt>
      <trkpt lat="47.04415" lon="6.00426">
        <ele>509.2</ele>
        <time>2024-09-01T08:36:25Z</time>
      </trkpt>
      <trkpt lat="47.04417" lon="6.00412">
        <ele>509</ele>
        <time>2024-09-01T08:36:26Z</time>
      </trkpt>
      <trkpt lat="47.0442" lon="6.00399">
        <ele>508.6</ele>
        <time>2024-09-01T08:36:27Z</time>
      </trkpt>
      <trkpt lat="47.04421" lon="6.00385">
        <ele>508.2</ele>
        <time>2024-09-01T08:36:28Z</time>
      </trkpt>
      <trkpt lat="47.04423" lon="6.00371">
        <ele>507.8</ele>
        <time>2024-09-01T08:36:29Z</time>
      </trkpt>
      <trkpt lat="47.04425" lon="6.00357">
        <ele>507.4</ele>
        <time>2024-09-01T08:36:30Z</time>
      </trkpt>
      <trkpt lat="47.04427" lon="6.00342">
        <ele>507</ele>
        <time>2024-09-01T08:36:31Z</time>
      </trkpt>
      <trkpt lat="47.04429" lon="6.00328">
        <ele>506.8</ele>
        <time>2024-09-01T08:36:32Z</time>
      </trkpt>
      <trkpt lat="47.04431" lon="6.00314">
        <ele>506.4</ele>
        <time>2024-09-01T08:36:33Z</time>
      </trkpt>
      <trkpt lat="47.04432" lon="6.003">
        <ele>506</ele>
        <time>2024-09-01T08:36:34Z</time>
      </trkpt>
      <trkpt lat="47.04434" lon="6.00285">
        <ele>505.4</ele>
        <time>2024-09-01T08:36:35Z</time>
      </trkpt>
      <trkpt lat="47.04436" lon="6.00271">
        <ele>504.8</ele>
        <time>2024-09-01T08:36:36Z</time>
      </trkpt>
      <trkpt lat="47.04438" lon="6.00257">
        <ele>504.4</ele>
        <time>2024-09-01T08:36:37Z</time>
      </trkpt>
      <trkpt lat="47.04438" lon="6.00242">
        <ele>503.8</ele>
        <time>2024-09-01T08:36:38Z</time>
      </trkpt>
      <trkpt lat="47.04438" lon="6.00227">
        <ele>503.2</ele>
        <time>2024-09-01T08:36:39Z</time>
      </trkpt>
      <trkpt lat="47.04436" lon="6.00213">
        <ele>502.8</ele>
        <time>2024-09-01T08:36:40Z</time>
      </trkpt>
      <trkpt lat="47.04433" lon="6.00201">
        <ele>502.4</ele>
        <time>2024-09-01T08:36:41Z</time>
      </trkpt>
      <trkpt lat="47.04428" lon="6.0019">
        <ele>502</ele>
        <time>2024-09-01T08:36:42Z</time>
      </trkpt>
      <trkpt lat="47.04423" lon="6.00181">
        <ele>501.6</ele>
        <time>2024-09-01T08:36:43Z</time>
      </trkpt>
      <trkpt lat="47.04416" lon="6.00175">
        <ele>501.2</ele>
        <time>2024-09-01T08:36:44Z</time>
      </trkpt>
      <trkpt lat="47.04409" lon="6.0017">
        <ele>500.8</ele>
        <time>2024-09-01T08:36:45Z</time>
      </trkpt>
      <trkpt lat="47.04402" lon="6.00166">
        <ele>500.2</ele>
        <time>2024-09-01T08:36:46Z</time>
      </trkpt>
      <trkpt lat="47.04395" lon="6.00161">
        <ele>500</ele>
        <time>2024-09-01T08:36:47Z</time>
      </trkpt>
      <trkpt lat="47.04386" lon="6.00157">
        <ele>499.8</ele>
        <time>2024-09-01T08:36:48Z</time>
      </trkpt>
      <trkpt lat="47.04375" lon="6.00153">
        <ele>499.4</ele>
        <time>2024-09-01T08:36:49Z</time>
      </trkpt>
      <trkpt lat="47.04363" lon="6.00149">
        <ele>499</ele>
        <time>2024-09-01T08:36:50Z</time>
      </trkpt>
      <trkpt lat="47.04351" lon="6.00146">
        <ele>499</ele>
        <time>2024-09-01T08:36:51Z</time>
      </trkpt>
      <trkpt lat="47.0434" lon="6.00144">
        <ele>498.6</ele>
        <time>2024-09-01T08:36:52Z</time>
      </trkpt>
      <trkpt lat="47.04329" lon="6.00143">
        <ele>498</ele>
        <time>2024-09-01T08:36:53Z</time>
      </trkpt>
      <trkpt lat="47.04322" lon="6.00142">
        <ele>497.6</ele>
        <time>2024-09-01T08:36:54Z</time>
      </trkpt>
      <trkpt lat="47.04317" lon="6.00142">
        <ele>497</ele>
        <time>2024-09-01T08:36:55Z</time>
      </trkpt>
      <trkpt lat="47.04313" lon="6.00143">
        <ele>496.6</ele>
        <time>2024-09-01T08:36:56Z</time>
      </trkpt>
      <trkpt lat="47.04311" lon="6.00143">
        <ele>496.2</ele>
        <time>2024-09-01T08:36:57Z</time>
      </trkpt>
      <trkpt lat="47.04309" lon="6.00143">
        <ele>495.8</ele>
        <time>2024-09-01T08:36:58Z</time>
      </trkpt>
      <trkpt lat="47.04307" lon="6.00142">
        <ele>495</ele>
        <time>2024-09-01T08:36:59Z</time>
      </trkpt>
      <trkpt lat="47.04305" lon="6.00142">
        <ele>494.4</ele>
        <time>2024-09-01T08:37:00Z</time>
      </trkpt>
      <trkpt lat="47.04304" lon="6.00143">
        <ele>493.6</ele>
        <time>2024-09-01T08:37:01Z</time>
      </trkpt>
      <trkpt lat="47.04303" lon="6.00144">
        <ele>492.6</ele>
        <time>2024-09-01T08:37:02Z</time>
      </trkpt>
      <trkpt lat="47.04303" lon="6.00145">
        <ele>491.6</ele>
        <time>2024-09-01T08:37:03Z</time>
      </trkpt>
      <trkpt lat="47.04304" lon="6.00146">
        <ele>491.2</ele>
        <time>2024-09-01T08:37:04Z</time>
      </trkpt>
      <trkpt lat="47.04305" lon="6.00147">
        <ele>490.6</ele>
        <time>2024-09-01T08:37:05Z</time>
      </trkpt>
      <trkpt lat="47.04306" lon="6.00147">
        <ele>490.2</ele>
        <time>2024-09-01T08:37:06Z</time>
      </trkpt>
      <trkpt lat="47.04308" lon="6.00147">
        <ele>490</ele>
        <time>2024-09-01T08:37:07Z</time>
      </trkpt>
      <trkpt lat="47.0431" lon="6.00147">
        <ele>490</ele>
        <time>2024-09-01T08:37:08Z</time>
      </trkpt>
      <trkpt lat="47.04311" lon="6.00146">
        <ele>489.8</ele>
        <time>2024-09-01T08:37:09Z</time>
      </trkpt>
      <trkpt lat="47.04313" lon="6.00146">
        <ele>489.8</ele>
        <time>2024-09-01T08:37:10Z</time>
      </trkpt>
      <trkpt lat="47.04314" lon="6.00146">
        <ele>489.8</ele>
        <time>2024-09-01T08:37:11Z</time>
      </trkpt>
      <trkpt lat="47.04315" lon="6.00145">
        <ele>489.6</ele>
        <time>2024-09-01T08:37:12Z</time>
      </trkpt>
      <trkpt lat="47.04316" lon="6.00145">
        <ele>489.8</ele>
        <time>2024-09-01T08:37:13Z</time>
      </trkpt>
      <trkpt lat="47.04317" lon="6.00145">
        <ele>489.8</ele>
        <time>2024-09-01T08:37:14Z</time>
      </trkpt>
      <trkpt lat="47.04319" lon="6.00146">
        <ele>489.6</ele>
        <time>2024-09-01T08:37:15Z</time>
      </trkpt>
      <trkpt lat="47.04321" lon="6.00147">
        <ele>489.8</ele>
        <time>2024-09-01T08:37:16Z</time>
      </trkpt>
      <trkpt lat="47.04323" lon="6.00148">
        <ele>489.8</ele>
        <time>2024-09-01T08:37:17Z</time>
      </trkpt>
      <trkpt lat="47.04325" lon="6.00148">
        <ele>489.8</ele>
        <time>2024-09-01T08:37:18Z</time>
      </trkpt>
      <trkpt lat="47.04327" lon="6.00149">
        <ele>489.8</ele>
        <time>2024-09-01T08:37:19Z</time>
      </trkpt>
      <trkpt lat="47.04329" lon="6.0015">
        <ele>489.8</ele>
        <time>2024-09-01T08:37:20Z</time>
      </trkpt>
      <trkpt lat="47.0433" lon="6.0015">
        <ele>490</ele>
        <time>2024-09-01T08:37:21Z</time>
      </trkpt>
      <trkpt lat="47.04332" lon="6.0015">
        <ele>490.2</ele>
        <time>2024-09-01T08:37:22Z</time>
      </trkpt>
      <trkpt lat="47.04334" lon="6.0015">
        <ele>490.4</ele>
        <time>2024-09-01T08:37:23Z</time>
      </trkpt>
      <trkpt lat="47.04335" lon="6.00151">
        <ele>490.4</ele>
        <time>2024-09-01T08:37:24Z</time>
      </trkpt>
      <trkpt lat="47.04337" lon="6.00151">
        <ele>490.6</ele>
        <time>2024-09-01T08:37:25Z</time>
      </trkpt>
      <trkpt lat="47.04338" lon="6.0015">
        <ele>490.8</ele>
        <time>2024-09-01T08:37:26Z</time>
      </trkpt>
      <trkpt lat="47.0434" lon="6.00151">
        <ele>490.8</ele>
        <time>2024-09-01T08:37:27Z</time>
      </trkpt>
      <trkpt lat="47.04342" lon="6.00152">
        <ele>491</ele>
        <time>2024-09-01T08:37:28Z</time>
      </trkpt>
      <trkpt lat="47.04344" lon="6.00153">
        <ele>491</ele>
        <time>2024-09-01T08:37:29Z</time>
      </trkpt>
      <trkpt lat="47.04346" lon="6.00152">
        <ele>491.2</ele>
        <time>2024-09-01T08:37:30Z</time>
      </trkpt>
      <trkpt lat="47.0435" lon="6.00151">
        <ele>491.6</ele>
        <time>2024-09-01T08:37:31Z</time>
      </trkpt>
      <trkpt lat="47.04351" lon="6.0015">
        <ele>491.8</ele>
        <time>2024-09-01T08:37:32Z</time>
      </trkpt>
      <trkpt lat="47.04353" lon="6.00148">
        <ele>491.8</ele>
        <time>2024-09-01T08:37:33Z</time>
      </trkpt>
      <trkpt lat="47.04354" lon="6.00148">
        <ele>492</ele>
        <time>2024-09-01T08:37:34Z</time>
      </trkpt>
      <trkpt lat="47.04354" lon="6.00146">
        <ele>492</ele>
        <time>2024-09-01T08:37:35Z</time>
      </trkpt>
      <trkpt lat="47.04355" lon="6.00145">
        <ele>492.2</ele>
        <time>2024-09-01T08:37:36Z</time>
      </trkpt>
      <trkpt lat="47.04357" lon="6.00143">
        <ele>492.2</ele>
        <time>2024-09-01T08:37:37Z</time>
      </trkpt>
      <trkpt lat="47.04358" lon="6.0014">
        <ele>492.4</ele>
        <time>2024-09-01T08:37:38Z</time>
      </trkpt>
      <trkpt lat="47.0436" lon="6.00138">
        <ele>492.6</ele>
        <time>2024-09-01T08:37:39Z</time>
      </trkpt>
      <trkpt lat="47.04362" lon="6.00136">
        <ele>492.6</ele>
        <time>2024-09-01T08:37:40Z</time>
      </trkpt>
      <trkpt lat="47.04363" lon="6.00135">
        <ele>492.8</ele>
        <time>2024-09-01T08:37:41Z</time>
      </trkpt>
      <trkpt lat="47.04365" lon="6.00134">
        <ele>493</ele>
        <time>2024-09-01T08:37:42Z</time>
      </trkpt>
      <trkpt lat="47.04366" lon="6.00132">
        <ele>493</ele>
        <time>2024-09-01T08:37:43Z</time>
      </trkpt>
      <trkpt lat="47.04368" lon="6.00132">
        <ele>493</ele>
        <time>2024-09-01T08:37:44Z</time>
      </trkpt>
      <trkpt lat="47.04369" lon="6.00131">
        <ele>493.2</ele>
        <time>2024-09-01T08:37:45Z</time>
      </trkpt>
      <trkpt lat="47.04371" lon="6.00131">
        <ele>493.2</ele>
        <time>2024-09-01T08:37:46Z</time>
      </trkpt>
      <trkpt lat="47.04374" lon="6.00131">
        <ele>493.2</ele>
        <time>2024-09-01T08:37:47Z</time>
      </trkpt>
      <trkpt lat="47.04375" lon="6.00131">
        <ele>493.2</ele>
        <time>2024-09-01T08:37:48Z</time>
      </trkpt>
      <trkpt lat="47.04377" lon="6.0013">
        <ele>493.6</ele>
        <time>2024-09-01T08:37:49Z</time>
      </trkpt>
      <trkpt lat="47.04379" lon="6.00129">
        <ele>493.6</ele>
        <time>2024-09-01T08:37:50Z</time>
      </trkpt>
      <trkpt lat="47.04382" lon="6.00128">
        <ele>493.6</ele>
        <time>2024-09-01T08:37:51Z</time>
      </trkpt>
      <trkpt lat="47.04384" lon="6.00128">
        <ele>493.8</ele>
        <time>2024-09-01T08:37:52Z</time>
      </trkpt>
      <trkpt lat="47.04386" lon="6.00127">
        <ele>494</ele>
        <time>2024-09-01T08:37:53Z</time>
      </trkpt>
      <trkpt lat="47.04389" lon="6.00127">
        <ele>494.2</ele>
        <time>2024-09-01T08:37:54Z</time>
      </trkpt>
      <trkpt lat="47.04391" lon="6.00126">
        <ele>494.2</ele>
        <time>2024-09-01T08:37:55Z</time>
      </trkpt>
      <trkpt lat="47.04393" lon="6.00125">
        <ele>494.2</ele>
        <time>2024-09-01T08:37:56Z</time>
      </trkpt>
      <trkpt lat="47.04395" lon="6.00124">
        <ele>494.2</ele>
        <time>2024-09-01T08:37:57Z</time>
      </trkpt>
      <trkpt lat="47.04398" lon="6.00122">
        <ele>494.4</ele>
        <time>2024-09-01T08:37:58Z</time>
      </trkpt>
      <trkpt lat="47.044" lon="6.00121">
        <ele>494.4</ele>
        <time>2024-09-01T08:37:59Z</time>
      </trkpt>
      <trkpt lat="47.04402" lon="6.0012">
        <ele>494.6</ele>
        <time>2024-09-01T08:38:00Z</time>
      </trkpt>
      <trkpt lat="47.04405" lon="6.00119">
        <ele>494.8</ele>
        <time>2024-09-01T08:38:01Z</time>
      </trkpt>
      <trkpt lat="47.04408" lon="6.00118">
        <ele>494.8</ele>
        <time>2024-09-01T08:38:02Z</time>
      </trkpt>
      <trkpt lat="47.04411" lon="6.00118">
        <ele>495.2</ele>
        <time>2024-09-01T08:38:03Z</time>
      </trkpt>
      <trkpt lat="47.04414" lon="6.00118">
        <ele>495.4</ele>
        <time>2024-09-01T08:38:04Z</time>
      </trkpt>
      <trkpt lat="47.04416" lon="6.00118">
        <ele>495.6</ele>
        <time>2024-09-01T08:38:05Z</time>
      </trkpt>
      <trkpt lat="47.04419" lon="6.00117">
        <ele>495.8</ele>
        <time>2024-09-01T08:38:06Z</time>
      </trkpt>
      <trkpt lat="47.04421" lon="6.00116">
        <ele>495.8</ele>
        <time>2024-09-01T08:38:07Z</time>
      </trkpt>
      <trkpt lat="47.04423" lon="6.00115">
        <ele>496</ele>
        <time>2024-09-01T08:38:08Z</time>
      </trkpt>
      <trkpt lat="47.04426" lon="6.00113">
        <ele>496</ele>
        <time>2024-09-01T08:38:09Z</time>
      </trkpt>
      <trkpt lat="47.04429" lon="6.00111">
        <ele>496</ele>
        <time>2024-09-01T08:38:10Z</time>
      </trkpt>
      <trkpt lat="47.04432" lon="6.0011">
        <ele>496</ele>
        <time>2024-09-01T08:38:11Z</time>
      </trkpt>
      <trkpt lat="47.04435" lon="6.00108">
        <ele>496.2</ele>
        <time>2024-09-01T08:38:12Z</time>
      </trkpt>
      <trkpt lat="47.04438" lon="6.00108">
        <ele>496.4</ele>
        <time>2024-09-01T08:38:13Z</time>
      </trkpt>
      <trkpt lat="47.04442" lon="6.00107">
        <ele>496.8</ele>
        <time>2024-09-01T08:38:14Z</time>
      </trkpt>
      <trkpt lat="47.04446" lon="6.00107">
        <ele>496.8</ele>
        <time>2024-09-01T08:38:15Z</time>
      </trkpt>
      <trkpt lat="47.0445" lon="6.00106">
        <ele>497</ele>
        <time>2024-09-01T08:38:16Z</time>
      </trkpt>
      <trkpt lat="47.04454" lon="6.00106">
        <ele>497</ele>
        <time>2024-09-01T08:38:17Z</time>
      </trkpt>
      <trkpt lat="47.04458" lon="6.00107">
        <ele>497.2</ele>
        <time>2024-09-01T08:38:18Z</time>
      </trkpt>
      <trkpt lat="47.04461" lon="6.00107">
        <ele>497.2</ele>
        <time>2024-09-01T08:38:19Z</time>
      </trkpt>
      <trkpt lat="47.04464" lon="6.00106">
        <ele>497.4</ele>
        <time>2024-09-01T08:38:20Z</time>
      </trkpt>
      <trkpt lat="47.04468" lon="6.00106">
        <ele>497.8</ele>
        <time>2024-09-01T08:38:21Z</time>
      </trkpt>
      <trkpt lat="47.04472" lon="6.00105">
        <ele>498</ele>
        <time>2024-09-01T08:38:22Z</time>
      </trkpt>
      <trkpt lat="47.04477" lon="6.00105">
        <ele>498</ele>
        <time>2024-09-01T08:38:23Z</time>
      </trkpt>
      <trkpt lat="47.04481" lon="6.00105">
        <ele>498</ele>
        <time>2024-09-01T08:38:24Z</time>
      </trkpt>
      <trkpt lat="47.04486" lon="6.00105">
        <ele>498.2</ele>
        <time>2024-09-01T08:38:25Z</time>
      </trkpt>
      <trkpt lat="47.04491" lon="6.00104">
        <ele>498</ele>
        <time>2024-09-01T08:38:26Z</time>
      </trkpt>
      <trkpt lat="47.04497" lon="6.00102">
        <ele>498</ele>
        <time>2024-09-01T08:38:27Z</time>
      </trkpt>
      <trkpt lat="47.04502" lon="6.00101">
        <ele>498</ele>
        <time>2024-09-01T08:38:28Z</time>
      </trkpt>
      <trkpt lat="47.04508" lon="6.00099">
        <ele>498.2</ele>
        <time>2024-09-01T08:38:29Z</time>
      </trkpt>
      <trkpt lat="47.04514" lon="6.00099">
        <ele>498</ele>
        <time>2024-09-01T08:38:30Z</time>
      </trkpt>
      <trkpt lat="47.0452" lon="6.00098">
        <ele>498.2</ele>
        <time>2024-09-01T08:38:31Z</time>
      </trkpt>
      <trkpt lat="47.04526" lon="6.00098">
        <ele>497.8</ele>
        <time>2024-09-01T08:38:32Z</time>
      </trkpt>
      <trkpt lat="47.04532" lon="6.00098">
        <ele>497.6</ele>
        <time>2024-09-01T08:38:33Z</time>
      </trkpt>
      <trkpt lat="47.04538" lon="6.00099">
        <ele>497.2</ele>
        <time>2024-09-01T08:38:34Z</time>
      </trkpt>
      <trkpt lat="47.04545" lon="6.001">
        <ele>497.2</ele>
        <time>2024-09-01T08:38:35Z</time>
      </trkpt>
      <trkpt lat="47.0455" lon="6.00102">
        <ele>496.8</ele>
        <time>2024-09-01T08:38:36Z</time>
      </trkpt>
      <trkpt lat="47.04556" lon="6.00104">
        <ele>496.4</ele>
        <time>2024-09-01T08:38:37Z</time>
      </trkpt>
      <trkpt lat="47.04561" lon="6.00107">
        <ele>496.4</ele>
        <time>2024-09-01T08:38:38Z</time>
      </trkpt>
      <trkpt lat="47.04566" lon="6.00109">
        <ele>496.2</ele>
        <time>2024-09-01T08:38:39Z</time>
      </trkpt>
      <trkpt lat="47.04571" lon="6.00109">
        <ele>495.8</ele>
        <time>2024-09-01T08:38:40Z</time>
      </trkpt>
      <trkpt lat="47.04575" lon="6.0011">
        <ele>495.6</ele>
        <time>2024-09-01T08:38:41Z</time>
      </trkpt>
      <trkpt lat="47.04579" lon="6.00111">
        <ele>495.2</ele>
        <time>2024-09-01T08:38:42Z</time>
      </trkpt>
      <trkpt lat="47.04582" lon="6.00111">
        <ele>495</ele>
        <time>2024-09-01T08:38:43Z</time>
      </trkpt>
      <trkpt lat="47.04586" lon="6.00113">
        <ele>494.8</ele>
        <time>2024-09-01T08:38:44Z</time>
      </trkpt>
      <trkpt lat="47.04591" lon="6.00115">
        <ele>494.8</ele>
        <time>2024-09-01T08:38:45Z</time>
      </trkpt>
      <trkpt lat="47.04595" lon="6.00118">
        <ele>494.6</ele>
        <time>2024-09-01T08:38:46Z</time>
      </trkpt>
      <trkpt lat="47.046" lon="6.0012">
        <ele>494.4</ele>
        <time>2024-09-01T08:38:47Z</time>
      </trkpt>
      <trkpt lat="47.04605" lon="6.00124">
        <ele>494.4</ele>
        <time>2024-09-01T08:38:48Z</time>
      </trkpt>
      <trkpt lat="47.0461" lon="6.00127">
        <ele>494.4</ele>
        <time>2024-09-01T08:38:49Z</time>
      </trkpt>
      <trkpt lat="47.04616" lon="6.00131">
        <ele>494</ele>
        <time>2024-09-01T08:38:50Z</time>
      </trkpt>
      <trkpt lat="47.04622" lon="6.00134">
        <ele>494</ele>
        <time>2024-09-01T08:38:51Z</time>
      </trkpt>
      <trkpt lat="47.04626" lon="6.00137">
        <ele>494</ele>
        <time>2024-09-01T08:38:52Z</time>
      </trkpt>
      <trkpt lat="47.0463" lon="6.00141">
        <ele>493.8</ele>
        <time>2024-09-01T08:38:53Z</time>
      </trkpt>
      <trkpt lat="47.04635" lon="6.00145">
        <ele>493.8</ele>
        <time>2024-09-01T08:38:54Z</time>
      </trkpt>
      <trkpt lat="47.0464" lon="6.00148">
        <ele>493.4</ele>
        <time>2024-09-01T08:38:55Z</time>
      </trkpt>
      <trkpt lat="47.04645" lon="6.00152">
        <ele>493</ele>
        <time>2024-09-01T08:38:56Z</time>
      </trkpt>
      <trkpt lat="47.0465" lon="6.00156">
        <ele>492.8</ele>
        <time>2024-09-01T08:38:57Z</time>
      </trkpt>
      <trkpt lat="47.04655" lon="6.0016">
        <ele>492.6</ele>
        <time>2024-09-01T08:38:58Z</time>
      </trkpt>
      <trkpt lat="47.04661" lon="6.00164">
        <ele>492.2</ele>
        <time>2024-09-01T08:38:59Z</time>
      </trkpt>
      <trkpt lat="47.04666" lon="6.00168">
        <ele>491.8</ele>
        <time>2024-09-01T08:39:00Z</time>
      </trkpt>
      <trkpt lat="47.04672" lon="6.00171">
        <ele>491.6</ele>
        <time>2024-09-01T08:39:01Z</time>
      </trkpt>
      <trkpt lat="47.04678" lon="6.00175">
        <ele>491.4</ele>
        <time>2024-09-01T08:39:02Z</time>
      </trkpt>
      <trkpt lat="47.04685" lon="6.00178">
        <ele>491.2</ele>
        <time>2024-09-01T08:39:03Z</time>
      </trkpt>
      <trkpt lat="47.04691" lon="6.0018">
        <ele>490.6</ele>
        <time>2024-09-01T08:39:04Z</time>
      </trkpt>
      <trkpt lat="47.04697" lon="6.00182">
        <ele>489.8</ele>
        <time>2024-09-01T08:39:05Z</time>
      </trkpt>
      <trkpt lat="47.04704" lon="6.00181">
        <ele>489.4</ele>
        <time>2024-09-01T08:39:06Z</time>
      </trkpt>
      <trkpt lat="47.04711" lon="6.00179">
        <ele>489.2</ele>
        <time>2024-09-01T08:39:07Z</time>
      </trkpt>
      <trkpt lat="47.04717" lon="6.00176">
        <ele>488.8</ele>
        <time>2024-09-01T08:39:08Z</time>
      </trkpt>
      <trkpt lat="47.04723" lon="6.00172">
        <ele>488.8</ele>
        <time>2024-09-01T08:39:09Z</time>
      </trkpt>
      <trkpt lat="47.0473" lon="6.00168">
        <ele>488.4</ele>
        <time>2024-09-01T08:39:10Z</time>
      </trkpt>
      <trkpt lat="47.04736" lon="6.00164">
        <ele>488.2</ele>
        <time>2024-09-01T08:39:11Z</time>
      </trkpt>
      <trkpt lat="47.04741" lon="6.00161">
        <ele>488</ele>
        <time>2024-09-01T08:39:12Z</time>
      </trkpt>
      <trkpt lat="47.04747" lon="6.00158">
        <ele>487.6</ele>
        <time>2024-09-01T08:39:13Z</time>
      </trkpt>
      <trkpt lat="47.04752" lon="6.00156">
        <ele>487.4</ele>
        <time>2024-09-01T08:39:14Z</time>
      </trkpt>
      <trkpt lat="47.04756" lon="6.00155">
        <ele>486.8</ele>
        <time>2024-09-01T08:39:15Z</time>
      </trkpt>
      <trkpt lat="47.04759" lon="6.00153">
        <ele>486.8</ele>
        <time>2024-09-01T08:39:16Z</time>
      </trkpt>
      <trkpt lat="47.04763" lon="6.00152">
        <ele>486.6</ele>
        <time>2024-09-01T08:39:17Z</time>
      </trkpt>
      <trkpt lat="47.04767" lon="6.00153">
        <ele>486.6</ele>
        <time>2024-09-01T08:39:18Z</time>
      </trkpt>
      <trkpt lat="47.0477" lon="6.00154">
        <ele>486.4</ele>
        <time>2024-09-01T08:39:19Z</time>
      </trkpt>
      <trkpt lat="47.04774" lon="6.00155">
        <ele>486.6</ele>
        <time>2024-09-01T08:39:20Z</time>
      </trkpt>
      <trkpt lat="47.04778" lon="6.00156">
        <ele>486.6</ele>
        <time>2024-09-01T08:39:21Z</time>
      </trkpt>
      <trkpt lat="47.04781" lon="6.00156">
        <ele>486.6</ele>
        <time>2024-09-01T08:39:22Z</time>
      </trkpt>
      <trkpt lat="47.04785" lon="6.00157">
        <ele>486.4</ele>
        <time>2024-09-01T08:39:23Z</time>
      </trkpt>
      <trkpt lat="47.0479" lon="6.00159">
        <ele>486.6</ele>
        <time>2024-09-01T08:39:24Z</time>
      </trkpt>
      <trkpt lat="47.04796" lon="6.00161">
        <ele>486.6</ele>
        <time>2024-09-01T08:39:25Z</time>
      </trkpt>
      <trkpt lat="47.04802" lon="6.00164">
        <ele>486.8</ele>
        <time>2024-09-01T08:39:26Z</time>
      </trkpt>
      <trkpt lat="47.04807" lon="6.00166">
        <ele>486.8</ele>
        <time>2024-09-01T08:39:27Z</time>
      </trkpt>
      <trkpt lat="47.04812" lon="6.00168">
        <ele>486.8</ele>
        <time>2024-09-01T08:39:28Z</time>
      </trkpt>
      <trkpt lat="47.04817" lon="6.00169">
        <ele>486.8</ele>
        <time>2024-09-01T08:39:29Z</time>
      </trkpt>
      <trkpt lat="47.04821" lon="6.0017">
        <ele>486.6</ele>
        <time>2024-09-01T08:39:30Z</time>
      </trkpt>
      <trkpt lat="47.04825" lon="6.00169">
        <ele>486.8</ele>
        <time>2024-09-01T08:39:31Z</time>
      </trkpt>
      <trkpt lat="47.04829" lon="6.00169">
        <ele>486.8</ele>
        <time>2024-09-01T08:39:32Z</time>
      </trkpt>
      <trkpt lat="47.04833" lon="6.0017">
        <ele>487</ele>
        <time>2024-09-01T08:39:33Z</time>
      </trkpt>
      <trkpt lat="47.04837" lon="6.00171">
        <ele>487.2</ele>
        <time>2024-09-01T08:39:34Z</time>
      </trkpt>
      <trkpt lat="47.04841" lon="6.00172">
        <ele>487.2</ele>
        <time>2024-09-01T08:39:35Z</time>
      </trkpt>
      <trkpt lat="47.04845" lon="6.00173">
        <ele>487.2</ele>
        <time>2024-09-01T08:39:36Z</time>
      </trkpt>
      <trkpt lat="47.0485" lon="6.00176">
        <ele>487.2</ele>
        <time>2024-09-01T08:39:37Z</time>
      </trkpt>
      <trkpt lat="47.04855" lon="6.00179">
        <ele>487.2</ele>
        <time>2024-09-01T08:39:38Z</time>
      </trkpt>
      <trkpt lat="47.04861" lon="6.00182">
        <ele>487.4</ele>
        <time>2024-09-01T08:39:39Z</time>
      </trkpt>
      <trkpt lat="47.04866" lon="6.00185">
        <ele>487.2</ele>
        <time>2024-09-01T08:39:40Z</time>
      </trkpt>
      <trkpt lat="47.04871" lon="6.00189">
        <ele>487.2</ele>
        <time>2024-09-01T08:39:41Z</time>
      </trkpt>
      <trkpt lat="47.04876" lon="6.00193">
        <ele>487</ele>
        <time>2024-09-01T08:39:42Z</time>
      </trkpt>
      <trkpt lat="47.04881" lon="6.00197">
        <ele>487</ele>
        <time>2024-09-01T08:39:43Z</time>
      </trkpt>
      <trkpt lat="47.04886" lon="6.00201">
        <ele>486.8</ele>
        <time>2024-09-01T08:39:44Z</time>
      </trkpt>
      <trkpt lat="47.04891" lon="6.00206">
        <ele>486.8</ele>
        <time>2024-09-01T08:39:45Z</time>
      </trkpt>
      <trkpt lat="47.04896" lon="6.00211">
        <ele>486.6</ele>
        <time>2024-09-01T08:39:46Z</time>
      </trkpt>
      <trkpt lat="47.049" lon="6.00216">
        <ele>486.6</ele>
        <time>2024-09-01T08:39:47Z</time>
      </trkpt>
      <trkpt lat="47.04905" lon="6.00219">
        <ele>486.6</ele>
        <time>2024-09-01T08:39:48Z</time>
      </trkpt>
      <trkpt lat="47.04911" lon="6.00224">
        <ele>486.6</ele>
        <time>2024-09-01T08:39:49Z</time>
      </trkpt>
      <trkpt lat="47.04917" lon="6.00229">
        <ele>486.4</ele>
        <time>2024-09-01T08:39:50Z</time>
      </trkpt>
      <trkpt lat="47.04922" lon="6.00234">
        <ele>486.2</ele>
        <time>2024-09-01T08:39:51Z</time>
      </trkpt>
      <trkpt lat="47.04928" lon="6.00239">
        <ele>486</ele>
        <time>2024-09-01T08:39:52Z</time>
      </trkpt>
      <trkpt lat="47.04933" lon="6.00244">
        <ele>486</ele>
        <time>2024-09-01T08:39:53Z</time>
      </trkpt>
      <trkpt lat="47.04937" lon="6.00249">
        <ele>485.8</ele>
        <time>2024-09-01T08:39:54Z</time>
      </trkpt>
      <trkpt lat="47.04942" lon="6.00253">
        <ele>485.6</ele>
        <time>2024-09-01T08:39:55Z</time>
      </trkpt>
      <trkpt lat="47.04946" lon="6.00258">
        <ele>485.6</ele>
        <time>2024-09-01T08:39:56Z</time>
      </trkpt>
      <trkpt lat="47.04952" lon="6.00263">
        <ele>485.6</ele>
        <time>2024-09-01T08:39:57Z</time>
      </trkpt>
      <trkpt lat="47.04957" lon="6.00268">
        <ele>485.6</ele>
        <time>2024-09-01T08:39:58Z</time>
      </trkpt>
      <trkpt lat="47.04962" lon="6.00273">
        <ele>485.4</ele>
        <time>2024-09-01T08:39:59Z</time>
      </trkpt>
      <trkpt lat="47.04967" lon="6.00278">
        <ele>485.4</ele>
        <time>2024-09-01T08:40:00Z</time>
      </trkpt>
      <trkpt lat="47.04973" lon="6.00283">
        <ele>485.6</ele>
        <time>2024-09-01T08:40:01Z</time>
      </trkpt>
      <trkpt lat="47.04978" lon="6.00288">
        <ele>485.4</ele>
        <time>2024-09-01T08:40:02Z</time>
      </trkpt>
      <trkpt lat="47.04982" lon="6.00293">
        <ele>485.4</ele>
        <time>2024-09-01T08:40:03Z</time>
      </trkpt>
      <trkpt lat="47.04987" lon="6.00298">
        <ele>485.4</ele>
        <time>2024-09-01T08:40:04Z</time>
      </trkpt>
      <trkpt lat="47.04991" lon="6.00303">
        <ele>485.4</ele>
        <time>2024-09-01T08:40:05Z</time>
      </trkpt>
      <trkpt lat="47.04996" lon="6.00309">
        <ele>485.4</ele>
        <time>2024-09-01T08:40:06Z</time>
      </trkpt>
      <trkpt lat="47.05001" lon="6.00316">
        <ele>485.4</ele>
        <time>2024-09-01T08:40:07Z</time>
      </trkpt>
      <trkpt lat="47.05005" lon="6.00322">
        <ele>485.4</ele>
        <time>2024-09-01T08:40:08Z</time>
      </trkpt>
      <trkpt lat="47.05009" lon="6.00326">
        <ele>485.2</ele>
        <time>2024-09-01T08:40:09Z</time>
      </trkpt>
      <trkpt lat="47.05013" lon="6.00332">
        <ele>485.2</ele>
        <time>2024-09-01T08:40:10Z</time>
      </trkpt>
      <trkpt lat="47.05017" lon="6.00337">
        <ele>485.4</ele>
        <time>2024-09-01T08:40:11Z</time>
      </trkpt>
      <trkpt lat="47.05022" lon="6.00342">
        <ele>485.2</ele>
        <time>2024-09-01T08:40:12Z</time>
      </trkpt>
      <trkpt lat="47.05027" lon="6.00346">
        <ele>485</ele>
        <time>2024-09-01T08:40:13Z</time>
      </trkpt>
      <trkpt lat="47.05032" lon="6.0035">
        <ele>485.2</ele>
        <time>2024-09-01T08:40:14Z</time>
      </trkpt>
      <trkpt lat="47.05037" lon="6.00354">
        <ele>485</ele>
        <time>2024-09-01T08:40:15Z</time>
      </trkpt>
      <trkpt lat="47.05043" lon="6.00356">
        <ele>484.8</ele>
        <time>2024-09-01T08:40:16Z</time>
      </trkpt>
      <trkpt lat="47.05048" lon="6.00358">
        <ele>484.8</ele>
        <time>2024-09-01T08:40:17Z</time>
      </trkpt>
      <trkpt lat="47.05054" lon="6.00359">
        <ele>485</ele>
        <time>2024-09-01T08:40:18Z</time>
      </trkpt>
      <trkpt lat="47.0506" lon="6.00359">
        <ele>484.8</ele>
        <time>2024-09-01T08:40:19Z</time>
      </trkpt>
      <trkpt lat="47.05066" lon="6.00357">
        <ele>484.6</ele>
        <time>2024-09-01T08:40:20Z</time>
      </trkpt>
      <trkpt lat="47.05071" lon="6.00355">
        <ele>484.8</ele>
        <time>2024-09-01T08:40:21Z</time>
      </trkpt>
      <trkpt lat="47.05076" lon="6.00353">
        <ele>484.8</ele>
        <time>2024-09-01T08:40:22Z</time>
      </trkpt>
      <trkpt lat="47.05081" lon="6.00349">
        <ele>484.8</ele>
        <time>2024-09-01T08:40:23Z</time>
      </trkpt>
      <trkpt lat="47.05085" lon="6.00344">
        <ele>484.8</ele>
        <time>2024-09-01T08:40:24Z</time>
      </trkpt>
      <trkpt lat="47.05089" lon="6.00337">
        <ele>484.8</ele>
        <time>2024-09-01T08:40:25Z</time>
      </trkpt>
      <trkpt lat="47.05093" lon="6.00331">
        <ele>484.6</ele>
        <time>2024-09-01T08:40:26Z</time>
      </trkpt>
      <trkpt lat="47.05096" lon="6.00324">
        <ele>484.4</ele>
        <time>2024-09-01T08:40:27Z</time>
      </trkpt>
      <trkpt lat="47.051" lon="6.00317">
        <ele>484.4</ele>
        <time>2024-09-01T08:40:28Z</time>
      </trkpt>
      <trkpt lat="47.05103" lon="6.00309">
        <ele>484.6</ele>
        <time>2024-09-01T08:40:29Z</time>
      </trkpt>
      <trkpt lat="47.05106" lon="6.00301">
        <ele>484.4</ele>
        <time>2024-09-01T08:40:30Z</time>
      </trkpt>
      <trkpt lat="47.05109" lon="6.00294">
        <ele>484.4</ele>
        <time>2024-09-01T08:40:31Z</time>
      </trkpt>
      <trkpt lat="47.05112" lon="6.00286">
        <ele>484.4</ele>
        <time>2024-09-01T08:40:32Z</time>
      </trkpt>
      <trkpt lat="47.05114" lon="6.00278">
        <ele>484.2</ele>
        <time>2024-09-01T08:40:33Z</time>
      </trkpt>
      <trkpt lat="47.05117" lon="6.0027">
        <ele>483.8</ele>
        <time>2024-09-01T08:40:34Z</time>
      </trkpt>
      <trkpt lat="47.05119" lon="6.00262">
        <ele>483.8</ele>
        <time>2024-09-01T08:40:35Z</time>
      </trkpt>
      <trkpt lat="47.05122" lon="6.00254">
        <ele>483.6</ele>
        <time>2024-09-01T08:40:36Z</time>
      </trkpt>
      <trkpt lat="47.05124" lon="6.00246">
        <ele>483.4</ele>
        <time>2024-09-01T08:40:37Z</time>
      </trkpt>
      <trkpt lat="47.05127" lon="6.00239">
        <ele>483.2</ele>
        <time>2024-09-01T08:40:38Z</time>
      </trkpt>
      <trkpt lat="47.05129" lon="6.00232">
        <ele>483</ele>
        <time>2024-09-01T08:40:39Z</time>
      </trkpt>
      <trkpt lat="47.05132" lon="6.00226">
        <ele>483</ele>
        <time>2024-09-01T08:40:40Z</time>
      </trkpt>
      <trkpt lat="47.05134" lon="6.0022">
        <ele>483</ele>
        <time>2024-09-01T08:40:41Z</time>
      </trkpt>
      <trkpt lat="47.05136" lon="6.00213">
        <ele>483</ele>
        <time>2024-09-01T08:40:42Z</time>
      </trkpt>
      <trkpt lat="47.05138" lon="6.00207">
        <ele>483</ele>
        <time>2024-09-01T08:40:43Z</time>
      </trkpt>
      <trkpt lat="47.05141" lon="6.00202">
        <ele>483</ele>
        <time>2024-09-01T08:40:44Z</time>
      </trkpt>
      <trkpt lat="47.05143" lon="6.00197">
        <ele>483</ele>
        <time>2024-09-01T08:40:45Z</time>
      </trkpt>
      <trkpt lat="47.05145" lon="6.00191">
        <ele>483</ele>
        <time>2024-09-01T08:40:46Z</time>
      </trkpt>
      <trkpt lat="47.05148" lon="6.00185">
        <ele>482.8</ele>
        <time>2024-09-01T08:40:47Z</time>
      </trkpt>
      <trkpt lat="47.0515" lon="6.00178">
        <ele>483</ele>
        <time>2024-09-01T08:40:48Z</time>
      </trkpt>
      <trkpt lat="47.05153" lon="6.00172">
        <ele>483</ele>
        <time>2024-09-01T08:40:49Z</time>
      </trkpt>
      <trkpt lat="47.05157" lon="6.00165">
        <ele>482.8</ele>
        <time>2024-09-01T08:40:50Z</time>
      </trkpt>
      <trkpt lat="47.05161" lon="6.00158">
        <ele>483</ele>
        <time>2024-09-01T08:40:51Z</time>
      </trkpt>
      <trkpt lat="47.05165" lon="6.00152">
        <ele>483</ele>
        <time>2024-09-01T08:40:52Z</time>
      </trkpt>
      <trkpt lat="47.0517" lon="6.00146">
        <ele>482.8</ele>
        <time>2024-09-01T08:40:53Z</time>
      </trkpt>
      <trkpt lat="47.05175" lon="6.00142">
        <ele>482.8</ele>
        <time>2024-09-01T08:40:54Z</time>
      </trkpt>
      <trkpt lat="47.05182" lon="6.00138">
        <ele>482.8</ele>
        <time>2024-09-01T08:40:55Z</time>
      </trkpt>
      <trkpt lat="47.05188" lon="6.00135">
        <ele>482.6</ele>
        <time>2024-09-01T08:40:56Z</time>
      </trkpt>
      <trkpt lat="47.05195" lon="6.00134">
        <ele>482.4</ele>
        <time>2024-09-01T08:40:57Z</time>
      </trkpt>
      <trkpt lat="47.05201" lon="6.00132">
        <ele>482.2</ele>
        <time>2024-09-01T08:40:58Z</time>
      </trkpt>
      <trkpt lat="47.05208" lon="6.00132">
        <ele>481.8</ele>
        <time>2024-09-01T08:40:59Z</time>
      </trkpt>
      <trkpt lat="47.05215" lon="6.00133">
        <ele>481.6</ele>
        <time>2024-09-01T08:41:00Z</time>
      </trkpt>
      <trkpt lat="47.05223" lon="6.00132">
        <ele>481.2</ele>
        <time>2024-09-01T08:41:01Z</time>
      </trkpt>
      <trkpt lat="47.0523" lon="6.00133">
        <ele>480.8</ele>
        <time>2024-09-01T08:41:02Z</time>
      </trkpt>
      <trkpt lat="47.05238" lon="6.00133">
        <ele>480.4</ele>
        <time>2024-09-01T08:41:03Z</time>
      </trkpt>
      <trkpt lat="47.05245" lon="6.00135">
        <ele>479.6</ele>
        <time>2024-09-01T08:41:04Z</time>
      </trkpt>
      <trkpt lat="47.05252" lon="6.00138">
        <ele>479.2</ele>
        <time>2024-09-01T08:41:05Z</time>
      </trkpt>
      <trkpt lat="47.05258" lon="6.00141">
        <ele>479</ele>
        <time>2024-09-01T08:41:06Z</time>
      </trkpt>
      <trkpt lat="47.05264" lon="6.00144">
        <ele>478.4</ele>
        <time>2024-09-01T08:41:07Z</time>
      </trkpt>
      <trkpt lat="47.05271" lon="6.00149">
        <ele>477.8</ele>
        <time>2024-09-01T08:41:08Z</time>
      </trkpt>
      <trkpt lat="47.05277" lon="6.00153">
        <ele>477.2</ele>
        <time>2024-09-01T08:41:09Z</time>
      </trkpt>
      <trkpt lat="47.05284" lon="6.00158">
        <ele>476.8</ele>
        <time>2024-09-01T08:41:10Z</time>
      </trkpt>
      <trkpt lat="47.0529" lon="6.00162">
        <ele>476.4</ele>
        <time>2024-09-01T08:41:11Z</time>
      </trkpt>
      <trkpt lat="47.05297" lon="6.00166">
        <ele>475.8</ele>
        <time>2024-09-01T08:41:12Z</time>
      </trkpt>
      <trkpt lat="47.05304" lon="6.0017">
        <ele>475</ele>
        <time>2024-09-01T08:41:13Z</time>
      </trkpt>
      <trkpt lat="47.0531" lon="6.00175">
        <ele>474.6</ele>
        <time>2024-09-01T08:41:14Z</time>
      </trkpt>
      <trkpt lat="47.05316" lon="6.0018">
        <ele>474</ele>
        <time>2024-09-01T08:41:15Z</time>
      </trkpt>
      <trkpt lat="47.05323" lon="6.00184">
        <ele>473.4</ele>
        <time>2024-09-01T08:41:16Z</time>
      </trkpt>
      <trkpt lat="47.05331" lon="6.00189">
        <ele>472.8</ele>
        <time>2024-09-01T08:41:17Z</time>
      </trkpt>
      <trkpt lat="47.05338" lon="6.00194">
        <ele>472.4</ele>
        <time>2024-09-01T08:41:18Z</time>
      </trkpt>
      <trkpt lat="47.05344" lon="6.00198">
        <ele>472</ele>
        <time>2024-09-01T08:41:19Z</time>
      </trkpt>
      <trkpt lat="47.0535" lon="6.00203">
        <ele>471.4</ele>
        <time>2024-09-01T08:41:20Z</time>
      </trkpt>
      <trkpt lat="47.05356" lon="6.00208">
        <ele>471</ele>
        <time>2024-09-01T08:41:21Z</time>
      </trkpt>
      <trkpt lat="47.05362" lon="6.00212">
        <ele>470.6</ele>
        <time>2024-09-01T08:41:22Z</time>
      </trkpt>
      <trkpt lat="47.05366" lon="6.00215">
        <ele>469.6</ele>
        <time>2024-09-01T08:41:23Z</time>
      </trkpt>
      <trkpt lat="47.0537" lon="6.00216">
        <ele>469.2</ele>
        <time>2024-09-01T08:41:24Z</time>
      </trkpt>
      <trkpt lat="47.05374" lon="6.00213">
        <ele>468.8</ele>
        <time>2024-09-01T08:41:25Z</time>
      </trkpt>
      <trkpt lat="47.05378" lon="6.0021">
        <ele>468.2</ele>
        <time>2024-09-01T08:41:26Z</time>
      </trkpt>
      <trkpt lat="47.05381" lon="6.00205">
        <ele>467.4</ele>
        <time>2024-09-01T08:41:27Z</time>
      </trkpt>
      <trkpt lat="47.05381" lon="6.00199">
        <ele>466.8</ele>
        <time>2024-09-01T08:41:28Z</time>
      </trkpt>
      <trkpt lat="47.05379" lon="6.00194">
        <ele>466</ele>
        <time>2024-09-01T08:41:29Z</time>
      </trkpt>
      <trkpt lat="47.05375" lon="6.00189">
        <ele>465.6</ele>
        <time>2024-09-01T08:41:30Z</time>
      </trkpt>
      <trkpt lat="47.05371" lon="6.00182">
        <ele>465.2</ele>
        <time>2024-09-01T08:41:31Z</time>
      </trkpt>
      <trkpt lat="47.05367" lon="6.00176">
        <ele>464.8</ele>
        <time>2024-09-01T08:41:32Z</time>
      </trkpt>
      <trkpt lat="47.05363" lon="6.00168">
        <ele>464.4</ele>
        <time>2024-09-01T08:41:33Z</time>
      </trkpt>
      <trkpt lat="47.05359" lon="6.00161">
        <ele>464.2</ele>
        <time>2024-09-01T08:41:34Z</time>
      </trkpt>
      <trkpt lat="47.05354" lon="6.00154">
        <ele>463.6</ele>
        <time>2024-09-01T08:41:35Z</time>
      </trkpt>
      <trkpt lat="47.0535" lon="6.00148">
        <ele>463.2</ele>
        <time>2024-09-01T08:41:36Z</time>
      </trkpt>
      <trkpt lat="47.05346" lon="6.00141">
        <ele>462.8</ele>
        <time>2024-09-01T08:41:37Z</time>
      </trkpt>
      <trkpt lat="47.05341" lon="6.00134">
        <ele>462</ele>
        <time>2024-09-01T08:41:38Z</time>
      </trkpt>
      <trkpt lat="47.05336" lon="6.00126">
        <ele>461.8</ele>
        <time>2024-09-01T08:41:39Z</time>
      </trkpt>
      <trkpt lat="47.05331" lon="6.00119">
        <ele>461.2</ele>
        <time>2024-09-01T08:41:40Z</time>
      </trkpt>
      <trkpt lat="47.05325" lon="6.0011">
        <ele>460.4</ele>
        <time>2024-09-01T08:41:41Z</time>
      </trkpt>
      <trkpt lat="47.0532" lon="6.001">
        <ele>460</ele>
        <time>2024-09-01T08:41:42Z</time>
      </trkpt>
      <trkpt lat="47.05314" lon="6.00091">
        <ele>459.4</ele>
        <time>2024-09-01T08:41:43Z</time>
      </trkpt>
      <trkpt lat="47.05309" lon="6.00081">
        <ele>459.2</ele>
        <time>2024-09-01T08:41:44Z</time>
      </trkpt>
      <trkpt lat="47.05304" lon="6.00072">
        <ele>458.6</ele>
        <time>2024-09-01T08:41:45Z</time>
      </trkpt>
      <trkpt lat="47.05298" lon="6.00062">
        <ele>458.2</ele>
        <time>2024-09-01T08:41:46Z</time>
      </trkpt>
      <trkpt lat="47.05292" lon="6.00052">
        <ele>457.8</ele>
        <time>2024-09-01T08:41:47Z</time>
      </trkpt>
      <trkpt lat="47.05285" lon="6.00041">
        <ele>457.4</ele>
        <time>2024-09-01T08:41:48Z</time>
      </trkpt>
      <trkpt lat="47.05278" lon="6.0003">
        <ele>457</ele>
        <time>2024-09-01T08:41:49Z</time>
      </trkpt>
      <trkpt lat="47.05272" lon="6.00019">
        <ele>456.6</ele>
        <time>2024-09-01T08:41:50Z</time>
      </trkpt>
      <trkpt lat="47.05266" lon="6.00008">
        <ele>456.4</ele>
        <time>2024-09-01T08:41:51Z</time>
      </trkpt>
      <trkpt lat="47.05259" lon="5.99998">
        <ele>455.8</ele>
        <time>2024-09-01T08:41:52Z</time>
      </trkpt>
      <trkpt lat="47.05253" lon="5.9999">
        <ele>455.2</ele>
        <time>2024-09-01T08:41:53Z</time>
      </trkpt>
      <trkpt lat="47.05247" lon="5.99982">
        <ele>454.6</ele>
        <time>2024-09-01T08:41:54Z</time>
      </trkpt>
      <trkpt lat="47.05241" lon="5.99975">
        <ele>453.8</ele>
        <time>2024-09-01T08:41:55Z</time>
      </trkpt>
      <trkpt lat="47.05235" lon="5.99969">
        <ele>453.2</ele>
        <time>2024-09-01T08:41:56Z</time>
      </trkpt>
      <trkpt lat="47.05229" lon="5.99964">
        <ele>452.2</ele>
        <time>2024-09-01T08:41:57Z</time>
      </trkpt>
      <trkpt lat="47.05223" lon="5.99958">
        <ele>451.4</ele>
        <time>2024-09-01T08:41:58Z</time>
      </trkpt>
      <trkpt lat="47.05216" lon="5.99952">
        <ele>450.6</ele>
        <time>2024-09-01T08:41:59Z</time>
      </trkpt>
      <trkpt lat="47.0521" lon="5.99947">
        <ele>449.8</ele>
        <time>2024-09-01T08:42:00Z</time>
      </trkpt>
      <trkpt lat="47.05204" lon="5.99941">
        <ele>449</ele>
        <time>2024-09-01T08:42:01Z</time>
      </trkpt>
      <trkpt lat="47.05197" lon="5.99935">
        <ele>448.2</ele>
        <time>2024-09-01T08:42:02Z</time>
      </trkpt>
      <trkpt lat="47.05192" lon="5.9993">
        <ele>447.8</ele>
        <time>2024-09-01T08:42:03Z</time>
      </trkpt>
      <trkpt lat="47.05185" lon="5.99925">
        <ele>447.2</ele>
        <time>2024-09-01T08:42:04Z</time>
      </trkpt>
      <trkpt lat="47.05178" lon="5.9992">
        <ele>446.6</ele>
        <time>2024-09-01T08:42:05Z</time>
      </trkpt>
      <trkpt lat="47.05173" lon="5.99915">
        <ele>445.8</ele>
        <time>2024-09-01T08:42:06Z</time>
      </trkpt>
      <trkpt lat="47.05166" lon="5.99909">
        <ele>445.2</ele>
        <time>2024-09-01T08:42:07Z</time>
      </trkpt>
      <trkpt lat="47.05161" lon="5.99902">
        <ele>444.8</ele>
        <time>2024-09-01T08:42:08Z</time>
      </trkpt>
      <trkpt lat="47.05157" lon="5.99895">
        <ele>444.2</ele>
        <time>2024-09-01T08:42:09Z</time>
      </trkpt>
      <trkpt lat="47.05153" lon="5.99888">
        <ele>443.6</ele>
        <time>2024-09-01T08:42:10Z</time>
      </trkpt>
      <trkpt lat="47.05152" lon="5.9988">
        <ele>443</ele>
        <time>2024-09-01T08:42:11Z</time>
      </trkpt>
      <trkpt lat="47.0515" lon="5.99873">
        <ele>442.2</ele>
        <time>2024-09-01T08:42:12Z</time>
      </trkpt>
      <trkpt lat="47.05151" lon="5.99865">
        <ele>441.4</ele>
        <time>2024-09-01T08:42:13Z</time>
      </trkpt>
      <trkpt lat="47.05152" lon="5.99858">
        <ele>440.4</ele>
        <time>2024-09-01T08:42:14Z</time>
      </trkpt>
      <trkpt lat="47.05155" lon="5.99851">
        <ele>439.8</ele>
        <time>2024-09-01T08:42:15Z</time>
      </trkpt>
      <trkpt lat="47.05159" lon="5.99844">
        <ele>439</ele>
        <time>2024-09-01T08:42:16Z</time>
      </trkpt>
      <trkpt lat="47.05164" lon="5.99837">
        <ele>438</ele>
        <time>2024-09-01T08:42:17Z</time>
      </trkpt>
      <trkpt lat="47.05169" lon="5.99829">
        <ele>437.4</ele>
        <time>2024-09-01T08:42:18Z</time>
      </trkpt>
      <trkpt lat="47.05174" lon="5.99819">
        <ele>436.8</ele>
        <time>2024-09-01T08:42:19Z</time>
      </trkpt>
      <trkpt lat="47.05179" lon="5.99809">
        <ele>436</ele>
        <time>2024-09-01T08:42:20Z</time>
      </trkpt>
      <trkpt lat="47.05184" lon="5.99799">
        <ele>435.4</ele>
        <time>2024-09-01T08:42:21Z</time>
      </trkpt>
      <trkpt lat="47.0519" lon="5.9979">
        <ele>434.8</ele>
        <time>2024-09-01T08:42:22Z</time>
      </trkpt>
      <trkpt lat="47.05196" lon="5.99783">
        <ele>434.4</ele>
        <time>2024-09-01T08:42:23Z</time>
      </trkpt>
      <trkpt lat="47.05204" lon="5.99779">
        <ele>433.8</ele>
        <time>2024-09-01T08:42:24Z</time>
      </trkpt>
      <trkpt lat="47.05212" lon="5.99778">
        <ele>433.4</ele>
        <time>2024-09-01T08:42:25Z</time>
      </trkpt>
      <trkpt lat="47.05218" lon="5.9978">
        <ele>432.6</ele>
        <time>2024-09-01T08:42:26Z</time>
      </trkpt>
      <trkpt lat="47.05226" lon="5.99787">
        <ele>431.8</ele>
        <time>2024-09-01T08:42:27Z</time>
      </trkpt>
      <trkpt lat="47.05233" lon="5.99793">
        <ele>431.4</ele>
        <time>2024-09-01T08:42:28Z</time>
      </trkpt>
      <trkpt lat="47.05239" lon="5.99799">
        <ele>430.8</ele>
        <time>2024-09-01T08:42:29Z</time>
      </trkpt>
      <trkpt lat="47.05246" lon="5.99805">
        <ele>430.4</ele>
        <time>2024-09-01T08:42:30Z</time>
      </trkpt>
      <trkpt lat="47.05252" lon="5.99812">
        <ele>429.8</ele>
        <time>2024-09-01T08:42:31Z</time>
      </trkpt>
      <trkpt lat="47.05259" lon="5.99818">
        <ele>429</ele>
        <time>2024-09-01T08:42:32Z</time>
      </trkpt>
      <trkpt lat="47.05266" lon="5.99823">
        <ele>428.2</ele>
        <time>2024-09-01T08:42:33Z</time>
      </trkpt>
      <trkpt lat="47.05274" lon="5.99826">
        <ele>427.6</ele>
        <time>2024-09-01T08:42:34Z</time>
      </trkpt>
      <trkpt lat="47.05282" lon="5.99826">
        <ele>427</ele>
        <time>2024-09-01T08:42:35Z</time>
      </trkpt>
      <trkpt lat="47.05288" lon="5.99822">
        <ele>426.6</ele>
        <time>2024-09-01T08:42:36Z</time>
      </trkpt>
      <trkpt lat="47.05294" lon="5.99814">
        <ele>426</ele>
        <time>2024-09-01T08:42:37Z</time>
      </trkpt>
      <trkpt lat="47.05299" lon="5.99805">
        <ele>425.6</ele>
        <time>2024-09-01T08:42:38Z</time>
      </trkpt>
      <trkpt lat="47.05302" lon="5.99795">
        <ele>425.4</ele>
        <time>2024-09-01T08:42:39Z</time>
      </trkpt>
      <trkpt lat="47.05306" lon="5.99785">
        <ele>424.8</ele>
        <time>2024-09-01T08:42:40Z</time>
      </trkpt>
      <trkpt lat="47.05311" lon="5.99775">
        <ele>424</ele>
        <time>2024-09-01T08:42:41Z</time>
      </trkpt>
      <trkpt lat="47.05316" lon="5.99764">
        <ele>423</ele>
        <time>2024-09-01T08:42:42Z</time>
      </trkpt>
      <trkpt lat="47.05322" lon="5.99754">
        <ele>422.2</ele>
        <time>2024-09-01T08:42:43Z</time>
      </trkpt>
      <trkpt lat="47.05327" lon="5.99743">
        <ele>421.8</ele>
        <time>2024-09-01T08:42:44Z</time>
      </trkpt>
      <trkpt lat="47.05333" lon="5.99733">
        <ele>421.2</ele>
        <time>2024-09-01T08:42:45Z</time>
      </trkpt>
      <trkpt lat="47.05339" lon="5.99723">
        <ele>420.8</ele>
        <time>2024-09-01T08:42:46Z</time>
      </trkpt>
      <trkpt lat="47.05345" lon="5.99712">
        <ele>420.4</ele>
        <time>2024-09-01T08:42:47Z</time>
      </trkpt>
      <trkpt lat="47.05351" lon="5.99702">
        <ele>420.2</ele>
        <time>2024-09-01T08:42:48Z</time>
      </trkpt>
      <trkpt lat="47.05357" lon="5.99692">
        <ele>419.8</ele>
        <time>2024-09-01T08:42:49Z</time>
      </trkpt>
      <trkpt lat="47.05363" lon="5.99681">
        <ele>419.6</ele>
        <time>2024-09-01T08:42:50Z</time>
      </trkpt>
      <trkpt lat="47.0537" lon="5.99671">
        <ele>419.2</ele>
        <time>2024-09-01T08:42:51Z</time>
      </trkpt>
      <trkpt lat="47.05376" lon="5.9966">
        <ele>419.2</ele>
        <time>2024-09-01T08:42:52Z</time>
      </trkpt>
      <trkpt lat="47.05383" lon="5.99649">
        <ele>418.4</ele>
        <time>2024-09-01T08:42:53Z</time>
      </trkpt>
      <trkpt lat="47.05388" lon="5.99639">
        <ele>418</ele>
        <time>2024-09-01T08:42:54Z</time>
      </trkpt>
      <trkpt lat="47.05394" lon="5.99628">
        <ele>417.6</ele>
        <time>2024-09-01T08:42:55Z</time>
      </trkpt>
      <trkpt lat="47.054" lon="5.99617">
        <ele>417.4</ele>
        <time>2024-09-01T08:42:56Z</time>
      </trkpt>
      <trkpt lat="47.05406" lon="5.99607">
        <ele>417</ele>
        <time>2024-09-01T08:42:57Z</time>
      </trkpt>
      <trkpt lat="47.05412" lon="5.99597">
        <ele>416.6</ele>
        <time>2024-09-01T08:42:58Z</time>
      </trkpt>
      <trkpt lat="47.05417" lon="5.99588">
        <ele>416</ele>
        <time>2024-09-01T08:42:59Z</time>
      </trkpt>
      <trkpt lat="47.05422" lon="5.9958">
        <ele>415.8</ele>
        <time>2024-09-01T08:43:00Z</time>
      </trkpt>
      <trkpt lat="47.05426" lon="5.99573">
        <ele>415.4</ele>
        <time>2024-09-01T08:43:01Z</time>
      </trkpt>
      <trkpt lat="47.0543" lon="5.99567">
        <ele>415</ele>
        <time>2024-09-01T08:43:02Z</time>
      </trkpt>
      <trkpt lat="47.05433" lon="5.99561">
        <ele>414.4</ele>
        <time>2024-09-01T08:43:03Z</time>
      </trkpt>
      <trkpt lat="47.05435" lon="5.99557">
        <ele>413.8</ele>
        <time>2024-09-01T08:43:04Z</time>
      </trkpt>
      <trkpt lat="47.05437" lon="5.99553">
        <ele>413.6</ele>
        <time>2024-09-01T08:43:05Z</time>
      </trkpt>
      <trkpt lat="47.05439" lon="5.99551">
        <ele>413</ele>
        <time>2024-09-01T08:43:06Z</time>
      </trkpt>
      <trkpt lat="47.05441" lon="5.99549">
        <ele>412.8</ele>
        <time>2024-09-01T08:43:07Z</time>
      </trkpt>
      <trkpt lat="47.05441" lon="5.99548">
        <ele>412</ele>
        <time>2024-09-01T08:43:08Z</time>
      </trkpt>
      <trkpt lat="47.05441" lon="5.99547">
        <ele>411.6</ele>
        <time>2024-09-01T08:43:09Z</time>
      </trkpt>
      <trkpt lat="47.05441" lon="5.99546">
        <ele>411.4</ele>
        <time>2024-09-01T08:43:10Z</time>
      </trkpt>
      <trkpt lat="47.05442" lon="5.99547">
        <ele>411</ele>
        <time>2024-09-01T08:43:11Z</time>
      </trkpt>
      <trkpt lat="47.05442" lon="5.99547">
        <ele>410.8</ele>
        <time>2024-09-01T08:43:12Z</time>
      </trkpt>
      <trkpt lat="47.05442" lon="5.99547">
        <ele>410.4</ele>
        <time>2024-09-01T08:43:13Z</time>
      </trkpt>
      <trkpt lat="47.05441" lon="5.99547">
        <ele>410.4</ele>
        <time>2024-09-01T08:43:14Z</time>
      </trkpt>
      <trkpt lat="47.05441" lon="5.99548">
        <ele>410.2</ele>
        <time>2024-09-01T08:43:15Z</time>
      </trkpt>
      <trkpt lat="47.05441" lon="5.99547">
        <ele>410.2</ele>
        <time>2024-09-01T08:43:16Z</time>
      </trkpt>
      <trkpt lat="47.0544" lon="5.99548">
        <ele>410.2</ele>
        <time>2024-09-01T08:43:17Z</time>
      </trkpt>
      <trkpt lat="47.05441" lon="5.99548">
        <ele>410</ele>
        <time>2024-09-01T08:43:18Z</time>
      </trkpt>
      <trkpt lat="47.05441" lon="5.99548">
        <ele>410</ele>
        <time>2024-09-01T08:43:19Z</time>
      </trkpt>
      <trkpt lat="47.05441" lon="5.99548">
        <ele>410.2</ele>
        <time>2024-09-01T08:43:20Z</time>
      </trkpt>
      <trkpt lat="47.05441" lon="5.99549">
        <ele>410.2</ele>
        <time>2024-09-01T08:43:21Z</time>
      </trkpt>
      <trkpt lat="47.05441" lon="5.99549">
        <ele>410.2</ele>
        <time>2024-09-01T08:43:22Z</time>
      </trkpt>
      <trkpt lat="47.05441" lon="5.99549">
        <ele>410</ele>
        <time>2024-09-01T08:43:23Z</time>
      </trkpt>
      <trkpt lat="47.05441" lon="5.99549">
        <ele>410.2</ele>
        <time>2024-09-01T08:43:24Z</time>
      </trkpt>
      <trkpt lat="47.05441" lon="5.99549">
        <ele>410.2</ele>
        <time>2024-09-01T08:43:25Z</time>
      </trkpt>
      <trkpt lat="47.05442" lon="5.99549">
        <ele>410.2</ele>
        <time>2024-09-01T08:43:26Z</time>
      </trkpt>
      <trkpt lat="47.05442" lon="5.99548">
        <ele>410.2</ele>
        <time>2024-09-01T08:43:27Z</time>
      </trkpt>
      <trkpt lat="47.05441" lon="5.99547">
        <ele>410.2</ele>
        <time>2024-09-01T08:43:28Z</time>
      </trkpt>
      <trkpt lat="47.0544" lon="5.99546">
        <ele>410</ele>
        <time>2024-09-01T08:43:29Z</time>
      </trkpt>
      <trkpt lat="47.0544" lon="5.99544">
        <ele>410.2</ele>
        <time>2024-09-01T08:43:30Z</time>
      </trkpt>
      <trkpt lat="47.05439" lon="5.99543">
        <ele>410.2</ele>
        <time>2024-09-01T08:43:31Z</time>
      </trkpt>
      <trkpt lat="47.05439" lon="5.99542">
        <ele>410.2</ele>
        <time>2024-09-01T08:43:32Z</time>
      </trkpt>
      <trkpt lat="47.05437" lon="5.99541">
        <ele>410.2</ele>
        <time>2024-09-01T08:43:33Z</time>
      </trkpt>
      <trkpt lat="47.05436" lon="5.99539">
        <ele>410.2</ele>
        <time>2024-09-01T08:43:34Z</time>
      </trkpt>
      <trkpt lat="47.05434" lon="5.99536">
        <ele>410.2</ele>
        <time>2024-09-01T08:43:35Z</time>
      </trkpt>
      <trkpt lat="47.05432" lon="5.99534">
        <ele>410.2</ele>
        <time>2024-09-01T08:43:36Z</time>
      </trkpt>
      <trkpt lat="47.0543" lon="5.99533">
        <ele>410.2</ele>
        <time>2024-09-01T08:43:37Z</time>
      </trkpt>
      <trkpt lat="47.05429" lon="5.99531">
        <ele>410.2</ele>
        <time>2024-09-01T08:43:38Z</time>
      </trkpt>
      <trkpt lat="47.05427" lon="5.9953">
        <ele>410.2</ele>
        <time>2024-09-01T08:43:39Z</time>
      </trkpt>
      <trkpt lat="47.05427" lon="5.9953">
        <ele>410</ele>
        <time>2024-09-01T08:43:40Z</time>
      </trkpt>
      <trkpt lat="47.05426" lon="5.99529">
        <ele>410</ele>
        <time>2024-09-01T08:43:41Z</time>
      </trkpt>
      <trkpt lat="47.05426" lon="5.99529">
        <ele>409.8</ele>
        <time>2024-09-01T08:43:42Z</time>
      </trkpt>
      <trkpt lat="47.05426" lon="5.99529">
        <ele>409.8</ele>
        <time>2024-09-01T08:43:43Z</time>
      </trkpt>
      <trkpt lat="47.05426" lon="5.99529">
        <ele>409.6</ele>
        <time>2024-09-01T08:43:44Z</time>
      </trkpt>
      <trkpt lat="47.05425" lon="5.99529">
        <ele>409.6</ele>
        <time>2024-09-01T08:43:45Z</time>
      </trkpt>
      <trkpt lat="47.05425" lon="5.99529">
        <ele>409.6</ele>
        <time>2024-09-01T08:43:46Z</time>
      </trkpt>
      <trkpt lat="47.05424" lon="5.99529">
        <ele>409.6</ele>
        <time>2024-09-01T08:43:47Z</time>
      </trkpt>
      <trkpt lat="47.05424" lon="5.99529">
        <ele>409.6</ele>
        <time>2024-09-01T08:43:48Z</time>
      </trkpt>
      <trkpt lat="47.05424" lon="5.99529">
        <ele>409.4</ele>
        <time>2024-09-01T08:43:49Z</time>
      </trkpt>
      <trkpt lat="47.05424" lon="5.99529">
        <ele>409.4</ele>
        <time>2024-09-01T08:43:50Z</time>
      </trkpt>
      <trkpt lat="47.05423" lon="5.99529">
        <ele>409.4</ele>
        <time>2024-09-01T08:43:51Z</time>
      </trkpt>
      <trkpt lat="47.05423" lon="5.99529">
        <ele>409.2</ele>
        <time>2024-09-01T08:43:52Z</time>
      </trkpt>
      <trkpt lat="47.05423" lon="5.9953">
        <ele>409.2</ele>
        <time>2024-09-01T08:43:53Z</time>
      </trkpt>
      <trkpt lat="47.05422" lon="5.9953">
        <ele>409.2</ele>
        <time>2024-09-01T08:43:54Z</time>
      </trkpt>
      <trkpt lat="47.05423" lon="5.99531">
        <ele>409</ele>
        <time>2024-09-01T08:43:55Z</time>
      </trkpt>
      <trkpt lat="47.05423" lon="5.99531">
        <ele>409.2</ele>
        <time>2024-09-01T08:43:56Z</time>
      </trkpt>
      <trkpt lat="47.05423" lon="5.99532">
        <ele>409</ele>
        <time>2024-09-01T08:43:57Z</time>
      </trkpt>
      <trkpt lat="47.05423" lon="5.99532">
        <ele>409</ele>
        <time>2024-09-01T08:43:58Z</time>
      </trkpt>
      <trkpt lat="47.05423" lon="5.99532">
        <ele>409</ele>
        <time>2024-09-01T08:43:59Z</time>
      </trkpt>
      <trkpt lat="47.05423" lon="5.99532">
        <ele>409</ele>
        <time>2024-09-01T08:44:00Z</time>
      </trkpt>
      <trkpt lat="47.05423" lon="5.99532">
        <ele>409</ele>
        <time>2024-09-01T08:44:01Z</time>
      </trkpt>
      <trkpt lat="47.05423" lon="5.99532">
        <ele>409</ele>
        <time>2024-09-01T08:44:02Z</time>
      </trkpt>
      <trkpt lat="47.05422" lon="5.99532">
        <ele>409</ele>
        <time>2024-09-01T08:44:03Z</time>
      </trkpt>
      <trkpt lat="47.05422" lon="5.99532">
        <ele>409</ele>
        <time>2024-09-01T08:44:04Z</time>
      </trkpt>
      <trkpt lat="47.05422" lon="5.99531">
        <ele>409</ele>
        <time>2024-09-01T08:44:05Z</time>
      </trkpt>
      <trkpt lat="47.05422" lon="5.99531">
        <ele>409</ele>
        <time>2024-09-01T08:44:06Z</time>
      </trkpt>
      <trkpt lat="47.05422" lon="5.99531">
        <ele>409</ele>
        <time>2024-09-01T08:44:07Z</time>
      </trkpt>
      <trkpt lat="47.05422" lon="5.99531">
        <ele>409.2</ele>
        <time>2024-09-01T08:44:08Z</time>
      </trkpt>
      <trkpt lat="47.05422" lon="5.99531">
        <ele>409.2</ele>
        <time>2024-09-01T08:44:09Z</time>
      </trkpt>
      <trkpt lat="47.05422" lon="5.99531">
        <ele>409</ele>
        <time>2024-09-01T08:44:10Z</time>
      </trkpt>
      <trkpt lat="47.05422" lon="5.99531">
        <ele>409</ele>
        <time>2024-09-01T08:44:11Z</time>
      </trkpt>
      <trkpt lat="47.05422" lon="5.99531">
        <ele>409.2</ele>
        <time>2024-09-01T08:44:12Z</time>
      </trkpt>
      <trkpt lat="47.05422" lon="5.99531">
        <ele>409.2</ele>
        <time>2024-09-01T08:44:13Z</time>
      </trkpt>
      <trkpt lat="47.05422" lon="5.99531">
        <ele>409</ele>
        <time>2024-09-01T08:44:14Z</time>
      </trkpt>
      <trkpt lat="47.05422" lon="5.99531">
        <ele>409</ele>
        <time>2024-09-01T08:44:15Z</time>
      </trkpt>
      <trkpt lat="47.05422" lon="5.99531">
        <ele>409</ele>
        <time>2024-09-01T08:44:16Z</time>
      </trkpt>
      <trkpt lat="47.05422" lon="5.99531">
        <ele>409.2</ele>
        <time>2024-09-01T08:44:17Z</time>
      </trkpt>
      <trkpt lat="47.05422" lon="5.99531">
        <ele>409.2</ele>
        <time>2024-09-01T08:44:18Z</time>
      </trkpt>
      <trkpt lat="47.05422" lon="5.99531">
        <ele>409.2</ele>
        <time>2024-09-01T08:44:19Z</time>
      </trkpt>
      <trkpt lat="47.05422" lon="5.99531">
        <ele>409.2</ele>
        <time>2024-09-01T08:44:20Z</time>
      </trkpt>
      <trkpt lat="47.05422" lon="5.99531">
        <ele>409.2</ele>
        <time>2024-09-01T08:44:21Z</time>
      </trkpt>
      <trkpt lat="47.05422" lon="5.99531">
        <ele>409</ele>
        <time>2024-09-01T08:44:22Z</time>
      </trkpt>
      <trkpt lat="47.05422" lon="5.99531">
        <ele>409.2</ele>
        <time>2024-09-01T08:44:23Z</time>
      </trkpt>
      <trkpt lat="47.05422" lon="5.99531">
        <ele>409.2</ele>
        <time>2024-09-01T08:44:24Z</time>
      </trkpt>
      <trkpt lat="47.05422" lon="5.99531">
        <ele>409.2</ele>
        <time>2024-09-01T08:44:25Z</time>
      </trkpt>
      <trkpt lat="47.05422" lon="5.99531">
        <ele>409.2</ele>
        <time>2024-09-01T08:44:26Z</time>
      </trkpt>
      <trkpt lat="47.05422" lon="5.99531">
        <ele>409.2</ele>
        <time>2024-09-01T08:44:27Z</time>
      </trkpt>
      <trkpt lat="47.05422" lon="5.99531">
        <ele>409.2</ele>
        <time>2024-09-01T08:44:28Z</time>
      </trkpt>
      <trkpt lat="47.05422" lon="5.99531">
        <ele>409.2</ele>
        <time>2024-09-01T08:44:29Z</time>
      </trkpt>
      <trkpt lat="47.05422" lon="5.99531">
        <ele>409.2</ele>
        <time>2024-09-01T08:44:30Z</time>
      </trkpt>
      <trkpt lat="47.05422" lon="5.99531">
        <ele>409.2</ele>
        <time>2024-09-01T08:44:31Z</time>
      </trkpt>
      <trkpt lat="47.05422" lon="5.99531">
        <ele>409</ele>
        <time>2024-09-01T08:44:32Z</time>
      </trkpt>
      <trkpt lat="47.05422" lon="5.99531">
        <ele>409.2</ele>
        <time>2024-09-01T08:44:33Z</time>
      </trkpt>
      <trkpt lat="47.05422" lon="5.99531">
        <ele>409</ele>
        <time>2024-09-01T08:44:34Z</time>
      </trkpt>
      <trkpt lat="47.05422" lon="5.99531">
        <ele>409</ele>
        <time>2024-09-01T08:44:35Z</time>
      </trkpt>
      <trkpt lat="47.05422" lon="5.99531">
        <ele>409</ele>
        <time>2024-09-01T08:44:36Z</time>
      </trkpt>
      <trkpt lat="47.05422" lon="5.99531">
        <ele>409.2</ele>
        <time>2024-09-01T08:44:37Z</time>
      </trkpt>
      <trkpt lat="47.05422" lon="5.99531">
        <ele>409</ele>
        <time>2024-09-01T08:44:38Z</time>
      </trkpt>
      <trkpt lat="47.05422" lon="5.99531">
        <ele>409.2</ele>
        <time>2024-09-01T08:44:39Z</time>
      </trkpt>
      <trkpt lat="47.05422" lon="5.99531">
        <ele>409.2</ele>
        <time>2024-09-01T08:44:40Z</time>
      </trkpt>
      <trkpt lat="47.05422" lon="5.99531">
        <ele>409.2</ele>
        <time>2024-09-01T08:44:41Z</time>
      </trkpt>
      <trkpt lat="47.05422" lon="5.99531">
        <ele>409.2</ele>
        <time>2024-09-01T08:44:42Z</time>
      </trkpt>
      <trkpt lat="47.05422" lon="5.99531">
        <ele>409.2</ele>
        <time>2024-09-01T08:44:43Z</time>
      </trkpt>
      <trkpt lat="47.05422" lon="5.99531">
        <ele>409.2</ele>
        <time>2024-09-01T08:44:44Z</time>
      </trkpt>
      <trkpt lat="47.05422" lon="5.99531">
        <ele>409.2</ele>
        <time>2024-09-01T08:44:45Z</time>
      </trkpt>
      <trkpt lat="47.05422" lon="5.99531">
        <ele>409.2</ele>
        <time>2024-09-01T08:44:46Z</time>
      </trkpt>
      <trkpt lat="47.05422" lon="5.99531">
        <ele>409.2</ele>
        <time>2024-09-01T08:44:47Z</time>
      </trkpt>
      <trkpt lat="47.05422" lon="5.99531">
        <ele>409.2</ele>
        <time>2024-09-01T08:44:48Z</time>
      </trkpt>
      <trkpt lat="47.05422" lon="5.99531">
        <ele>409.2</ele>
        <time>2024-09-01T08:44:49Z</time>
      </trkpt>
      <trkpt lat="47.05422" lon="5.99531">
        <ele>409.2</ele>
        <time>2024-09-01T08:44:50Z</time>
      </trkpt>
      <trkpt lat="47.05422" lon="5.99531">
        <ele>409.2</ele>
        <time>2024-09-01T08:44:51Z</time>
      </trkpt>
      <trkpt lat="47.05422" lon="5.99531">
        <ele>409.2</ele>
        <time>2024-09-01T08:44:52Z</time>
      </trkpt>
      <trkpt lat="47.05422" lon="5.99531">
        <ele>409.2</ele>
        <time>2024-09-01T08:44:53Z</time>
      </trkpt>
      <trkpt lat="47.05422" lon="5.99531">
        <ele>409.2</ele>
        <time>2024-09-01T08:44:54Z</time>
      </trkpt>
      <trkpt lat="47.05422" lon="5.99531">
        <ele>409.2</ele>
        <time>2024-09-01T08:44:55Z</time>
      </trkpt>
      <trkpt lat="47.05422" lon="5.99531">
        <ele>409.2</ele>
        <time>2024-09-01T08:44:56Z</time>
      </trkpt>
      <trkpt lat="47.05422" lon="5.99531">
        <ele>409.2</ele>
        <time>2024-09-01T08:44:57Z</time>
      </trkpt>
      <trkpt lat="47.05422" lon="5.99531">
        <ele>409.2</ele>
        <time>2024-09-01T08:44:58Z</time>
      </trkpt>
      <trkpt lat="47.05422" lon="5.99531">
        <ele>409.2</ele>
        <time>2024-09-01T08:44:59Z</time>
      </trkpt>
      <trkpt lat="47.05422" lon="5.99531">
        <ele>409</ele>
        <time>2024-09-01T08:45:00Z</time>
      </trkpt>
      <trkpt lat="47.05422" lon="5.99531">
        <ele>409</ele>
        <time>2024-09-01T08:45:01Z</time>
      </trkpt>
      <trkpt lat="47.05422" lon="5.99531">
        <ele>409.2</ele>
        <time>2024-09-01T08:45:02Z</time>
      </trkpt>
      <trkpt lat="47.05422" lon="5.99531">
        <ele>409</ele>
        <time>2024-09-01T08:45:03Z</time>
      </trkpt>
      <trkpt lat="47.05422" lon="5.99531">
        <ele>409.2</ele>
        <time>2024-09-01T08:45:04Z</time>
      </trkpt>
      <trkpt lat="47.05422" lon="5.99531">
        <ele>409</ele>
        <time>2024-09-01T08:45:05Z</time>
      </trkpt>
      <trkpt lat="47.05422" lon="5.99531">
        <ele>409.2</ele>
        <time>2024-09-01T08:45:06Z</time>
      </trkpt>
      <trkpt lat="47.05422" lon="5.99531">
        <ele>409.2</ele>
        <time>2024-09-01T08:45:07Z</time>
      </trkpt>
      <trkpt lat="47.05422" lon="5.99531">
        <ele>409</ele>
        <time>2024-09-01T08:45:08Z</time>
      </trkpt>
      <trkpt lat="47.05422" lon="5.99531">
        <ele>409</ele>
        <time>2024-09-01T08:45:09Z</time>
      </trkpt>
      <trkpt lat="47.05422" lon="5.99531">
        <ele>409</ele>
        <time>2024-09-01T08:45:10Z</time>
      </trkpt>
      <trkpt lat="47.05422" lon="5.99531">
        <ele>409.2</ele>
        <time>2024-09-01T08:45:11Z</time>
      </trkpt>
      <trkpt lat="47.05422" lon="5.99531">
        <ele>409</ele>
        <time>2024-09-01T08:45:12Z</time>
      </trkpt>
      <trkpt lat="47.05422" lon="5.99531">
        <ele>409.2</ele>
        <time>2024-09-01T08:45:13Z</time>
      </trkpt>
      <trkpt lat="47.05422" lon="5.99531">
        <ele>409</ele>
        <time>2024-09-01T08:45:14Z</time>
      </trkpt>
      <trkpt lat="47.05422" lon="5.99531">
        <ele>409</ele>
        <time>2024-09-01T08:45:15Z</time>
      </trkpt>
      <trkpt lat="47.05422" lon="5.99531">
        <ele>409.2</ele>
        <time>2024-09-01T08:45:16Z</time>
      </trkpt>
      <trkpt lat="47.05422" lon="5.99531">
        <ele>409</ele>
        <time>2024-09-01T08:45:17Z</time>
      </trkpt>
      <trkpt lat="47.05422" lon="5.99531">
        <ele>409.2</ele>
        <time>2024-09-01T08:45:18Z</time>
      </trkpt>
      <trkpt lat="47.05422" lon="5.99531">
        <ele>409</ele>
        <time>2024-09-01T08:45:19Z</time>
      </trkpt>
      <trkpt lat="47.05422" lon="5.99531">
        <ele>409</ele>
        <time>2024-09-01T08:45:20Z</time>
      </trkpt>
      <trkpt lat="47.05422" lon="5.99531">
        <ele>409</ele>
        <time>2024-09-01T08:45:21Z</time>
      </trkpt>
      <trkpt lat="47.05422" lon="5.99531">
        <ele>409</ele>
        <time>2024-09-01T08:45:22Z</time>
      </trkpt>
      <trkpt lat="47.05422" lon="5.99531">
        <ele>409</ele>
        <time>2024-09-01T08:45:23Z</time>
      </trkpt>
      <trkpt lat="47.05422" lon="5.99531">
        <ele>409</ele>
        <time>2024-09-01T08:45:24Z</time>
      </trkpt>
      <trkpt lat="47.05422" lon="5.99531">
        <ele>409</ele>
        <time>2024-09-01T08:45:25Z</time>
      </trkpt>
      <trkpt lat="47.05422" lon="5.99531">
        <ele>409</ele>
        <time>2024-09-01T08:45:26Z</time>
      </trkpt>
      <trkpt lat="47.05422" lon="5.99531">
        <ele>409</ele>
        <time>2024-09-01T08:45:27Z</time>
      </trkpt>
      <trkpt lat="47.05422" lon="5.99531">
        <ele>409</ele>
        <time>2024-09-01T08:45:28Z</time>
      </trkpt>
      <trkpt lat="47.05422" lon="5.99531">
        <ele>409</ele>
        <time>2024-09-01T08:45:29Z</time>
      </trkpt>
      <trkpt lat="47.05422" lon="5.99531">
        <ele>409</ele>
        <time>2024-09-01T08:45:30Z</time>
      </trkpt>
      <trkpt lat="47.05422" lon="5.99531">
        <ele>409.2</ele>
        <time>2024-09-01T08:45:31Z</time>
      </trkpt>
      <trkpt lat="47.05422" lon="5.99531">
        <ele>409.2</ele>
        <time>2024-09-01T08:45:32Z</time>
      </trkpt>
      <trkpt lat="47.05422" lon="5.99531">
        <ele>409</ele>
        <time>2024-09-01T08:45:33Z</time>
      </trkpt>
      <trkpt lat="47.05422" lon="5.99531">
        <ele>409</ele>
        <time>2024-09-01T08:45:34Z</time>
      </trkpt>
      <trkpt lat="47.05422" lon="5.99531">
        <ele>409</ele>
        <time>2024-09-01T08:45:35Z</time>
      </trkpt>
      <trkpt lat="47.05422" lon="5.99531">
        <ele>409</ele>
        <time>2024-09-01T08:45:36Z</time>
      </trkpt>
      <trkpt lat="47.05422" lon="5.99531">
        <ele>409.2</ele>
        <time>2024-09-01T08:45:37Z</time>
      </trkpt>
      <trkpt lat="47.05422" lon="5.99531">
        <ele>409</ele>
        <time>2024-09-01T08:45:38Z</time>
      </trkpt>
      <trkpt lat="47.05422" lon="5.99531">
        <ele>409</ele>
        <time>2024-09-01T08:45:39Z</time>
      </trkpt>
      <trkpt lat="47.05422" lon="5.99531">
        <ele>409.2</ele>
        <time>2024-09-01T08:45:40Z</time>
      </trkpt>
      <trkpt lat="47.05422" lon="5.99531">
        <ele>409</ele>
        <time>2024-09-01T08:45:41Z</time>
      </trkpt>
      <trkpt lat="47.05422" lon="5.99531">
        <ele>409</ele>
        <time>2024-09-01T08:45:42Z</time>
      </trkpt>
      <trkpt lat="47.05422" lon="5.99531">
        <ele>409</ele>
        <time>2024-09-01T08:45:43Z</time>
      </trkpt>
      <trkpt lat="47.05422" lon="5.99531">
        <ele>409</ele>
        <time>2024-09-01T08:45:44Z</time>
      </trkpt>
      <trkpt lat="47.05422" lon="5.99531">
        <ele>409.2</ele>
        <time>2024-09-01T08:45:45Z</time>
      </trkpt>
      <trkpt lat="47.05422" lon="5.99531">
        <ele>409</ele>
        <time>2024-09-01T08:45:46Z</time>
      </trkpt>
      <trkpt lat="47.05422" lon="5.99531">
        <ele>409</ele>
        <time>2024-09-01T08:45:47Z</time>
      </trkpt>
      <trkpt lat="47.05422" lon="5.99531">
        <ele>409</ele>
        <time>2024-09-01T08:45:48Z</time>
      </trkpt>
      <trkpt lat="47.05422" lon="5.99531">
        <ele>409</ele>
        <time>2024-09-01T08:45:49Z</time>
      </trkpt>
      <trkpt lat="47.05422" lon="5.99531">
        <ele>409</ele>
        <time>2024-09-01T08:45:50Z</time>
      </trkpt>
      <trkpt lat="47.05422" lon="5.99531">
        <ele>409</ele>
        <time>2024-09-01T08:45:51Z</time>
      </trkpt>
      <trkpt lat="47.05422" lon="5.99531">
        <ele>409</ele>
        <time>2024-09-01T08:45:52Z</time>
      </trkpt>
      <trkpt lat="47.05422" lon="5.99531">
        <ele>409</ele>
        <time>2024-09-01T08:45:53Z</time>
      </trkpt>
      <trkpt lat="47.05422" lon="5.99531">
        <ele>409</ele>
        <time>2024-09-01T08:45:54Z</time>
      </trkpt>
      <trkpt lat="47.05422" lon="5.99531">
        <ele>409</ele>
        <time>2024-09-01T08:45:55Z</time>
      </trkpt>
      <trkpt lat="47.05422" lon="5.99531">
        <ele>409</ele>
        <time>2024-09-01T08:45:56Z</time>
      </trkpt>
      <trkpt lat="47.05422" lon="5.99531">
        <ele>409</ele>
        <time>2024-09-01T08:45:57Z</time>
      </trkpt>
      <trkpt lat="47.05422" lon="5.99531">
        <ele>409</ele>
        <time>2024-09-01T08:45:58Z</time>
      </trkpt>
      <trkpt lat="47.05422" lon="5.99531">
        <ele>409</ele>
        <time>2024-09-01T08:45:59Z</time>
      </trkpt>
      <trkpt lat="47.05422" lon="5.99531">
        <ele>409</ele>
        <time>2024-09-01T08:46:00Z</time>
      </trkpt>
      <trkpt lat="47.05422" lon="5.99531">
        <ele>408.8</ele>
        <time>2024-09-01T08:46:01Z</time>
      </trkpt>
      <trkpt lat="47.05422" lon="5.99531">
        <ele>409</ele>
        <time>2024-09-01T08:46:02Z</time>
      </trkpt>
      <trkpt lat="47.05422" lon="5.99531">
        <ele>409</ele>
        <time>2024-09-01T08:46:03Z</time>
      </trkpt>
      <trkpt lat="47.05422" lon="5.99531">
        <ele>409</ele>
        <time>2024-09-01T08:46:04Z</time>
      </trkpt>
      <trkpt lat="47.05422" lon="5.99531">
        <ele>409</ele>
        <time>2024-09-01T08:46:05Z</time>
      </trkpt>
      <trkpt lat="47.05422" lon="5.99531">
        <ele>409</ele>
        <time>2024-09-01T08:46:06Z</time>
      </trkpt>
      <trkpt lat="47.05422" lon="5.99531">
        <ele>409</ele>
        <time>2024-09-01T08:46:07Z</time>
      </trkpt>
      <trkpt lat="47.05422" lon="5.99531">
        <ele>409</ele>
        <time>2024-09-01T08:46:08Z</time>
      </trkpt>
      <trkpt lat="47.05422" lon="5.99531">
        <ele>409</ele>
        <time>2024-09-01T08:46:09Z</time>
      </trkpt>
      <trkpt lat="47.05422" lon="5.99531">
        <ele>409</ele>
        <time>2024-09-01T08:46:10Z</time>
      </trkpt>
      <trkpt lat="47.05422" lon="5.99531">
        <ele>409</ele>
        <time>2024-09-01T08:46:11Z</time>
      </trkpt>
      <trkpt lat="47.05422" lon="5.99531">
        <ele>409</ele>
        <time>2024-09-01T08:46:12Z</time>
      </trkpt>
      <trkpt lat="47.05422" lon="5.99531">
        <ele>409</ele>
        <time>2024-09-01T08:46:13Z</time>
      </trkpt>
      <trkpt lat="47.05422" lon="5.99531">
        <ele>409</ele>
        <time>2024-09-01T08:46:14Z</time>
      </trkpt>
      <trkpt lat="47.05422" lon="5.99531">
        <ele>409</ele>
        <time>2024-09-01T08:46:15Z</time>
      </trkpt>
      <trkpt lat="47.05422" lon="5.99531">
        <ele>409</ele>
        <time>2024-09-01T08:46:16Z</time>
      </trkpt>
      <trkpt lat="47.05422" lon="5.99531">
        <ele>409</ele>
        <time>2024-09-01T08:46:17Z</time>
      </trkpt>
      <trkpt lat="47.05422" lon="5.99531">
        <ele>409</ele>
        <time>2024-09-01T08:46:18Z</time>
      </trkpt>
      <trkpt lat="47.05422" lon="5.99531">
        <ele>409</ele>
        <time>2024-09-01T08:46:19Z</time>
      </trkpt>
      <trkpt lat="47.05422" lon="5.99531">
        <ele>409</ele>
        <time>2024-09-01T08:46:20Z</time>
      </trkpt>
      <trkpt lat="47.05422" lon="5.99531">
        <ele>409</ele>
        <time>2024-09-01T08:46:21Z</time>
      </trkpt>
      <trkpt lat="47.05422" lon="5.99531">
        <ele>409</ele>
        <time>2024-09-01T08:46:22Z</time>
      </trkpt>
      <trkpt lat="47.05422" lon="5.99531">
        <ele>409</ele>
        <time>2024-09-01T08:46:23Z</time>
      </trkpt>
      <trkpt lat="47.05422" lon="5.99531">
        <ele>409</ele>
        <time>2024-09-01T08:46:24Z</time>
      </trkpt>
      <trkpt lat="47.05422" lon="5.99531">
        <ele>409</ele>
        <time>2024-09-01T08:46:25Z</time>
      </trkpt>
      <trkpt lat="47.05422" lon="5.99531">
        <ele>409</ele>
        <time>2024-09-01T08:46:26Z</time>
      </trkpt>
      <trkpt lat="47.05422" lon="5.99531">
        <ele>409</ele>
        <time>2024-09-01T08:46:27Z</time>
      </trkpt>
      <trkpt lat="47.05422" lon="5.99531">
        <ele>409</ele>
        <time>2024-09-01T08:46:28Z</time>
      </trkpt>
      <trkpt lat="47.05422" lon="5.99531">
        <ele>409</ele>
        <time>2024-09-01T08:46:29Z</time>
      </trkpt>
      <trkpt lat="47.05422" lon="5.99531">
        <ele>409</ele>
        <time>2024-09-01T08:46:30Z</time>
      </trkpt>
      <trkpt lat="47.05422" lon="5.99531">
        <ele>409</ele>
        <time>2024-09-01T08:46:31Z</time>
      </trkpt>
      <trkpt lat="47.05422" lon="5.99531">
        <ele>409</ele>
        <time>2024-09-01T08:46:32Z</time>
      </trkpt>
      <trkpt lat="47.05422" lon="5.99531">
        <ele>408.8</ele>
        <time>2024-09-01T08:46:33Z</time>
      </trkpt>
      <trkpt lat="47.05422" lon="5.99532">
        <ele>409</ele>
        <time>2024-09-01T08:46:34Z</time>
      </trkpt>
      <trkpt lat="47.05422" lon="5.99532">
        <ele>409</ele>
        <time>2024-09-01T08:46:35Z</time>
      </trkpt>
      <trkpt lat="47.05422" lon="5.99532">
        <ele>408.8</ele>
        <time>2024-09-01T08:46:36Z</time>
      </trkpt>
      <trkpt lat="47.05422" lon="5.99532">
        <ele>408.8</ele>
        <time>2024-09-01T08:46:37Z</time>
      </trkpt>
      <trkpt lat="47.05422" lon="5.99532">
        <ele>408.8</ele>
        <time>2024-09-01T08:46:38Z</time>
      </trkpt>
      <trkpt lat="47.05422" lon="5.99532">
        <ele>408.8</ele>
        <time>2024-09-01T08:46:39Z</time>
      </trkpt>
      <trkpt lat="47.05422" lon="5.99532">
        <ele>408.6</ele>
        <time>2024-09-01T08:46:40Z</time>
      </trkpt>
      <trkpt lat="47.05422" lon="5.99532">
        <ele>408.8</ele>
        <time>2024-09-01T08:46:41Z</time>
      </trkpt>
      <trkpt lat="47.05422" lon="5.99532">
        <ele>408.8</ele>
        <time>2024-09-01T08:46:42Z</time>
      </trkpt>
      <trkpt lat="47.05422" lon="5.99532">
        <ele>408.8</ele>
        <time>2024-09-01T08:46:43Z</time>
      </trkpt>
      <trkpt lat="47.05422" lon="5.99532">
        <ele>408.8</ele>
        <time>2024-09-01T08:46:44Z</time>
      </trkpt>
      <trkpt lat="47.05422" lon="5.99532">
        <ele>408.6</ele>
        <time>2024-09-01T08:46:45Z</time>
      </trkpt>
      <trkpt lat="47.05422" lon="5.99532">
        <ele>408.6</ele>
        <time>2024-09-01T08:46:46Z</time>
      </trkpt>
      <trkpt lat="47.05422" lon="5.99532">
        <ele>408.6</ele>
        <time>2024-09-01T08:46:47Z</time>
      </trkpt>
      <trkpt lat="47.05422" lon="5.99532">
        <ele>408.6</ele>
        <time>2024-09-01T08:46:48Z</time>
      </trkpt>
      <trkpt lat="47.05422" lon="5.99532">
        <ele>408.6</ele>
        <time>2024-09-01T08:46:49Z</time>
      </trkpt>
      <trkpt lat="47.05422" lon="5.99532">
        <ele>408.6</ele>
        <time>2024-09-01T08:46:50Z</time>
      </trkpt>
      <trkpt lat="47.05422" lon="5.99532">
        <ele>408.8</ele>
        <time>2024-09-01T08:46:51Z</time>
      </trkpt>
      <trkpt lat="47.05422" lon="5.99532">
        <ele>408.6</ele>
        <time>2024-09-01T08:46:52Z</time>
      </trkpt>
      <trkpt lat="47.05422" lon="5.99532">
        <ele>408.6</ele>
        <time>2024-09-01T08:46:53Z</time>
      </trkpt>
      <trkpt lat="47.05422" lon="5.99532">
        <ele>408.6</ele>
        <time>2024-09-01T08:46:54Z</time>
      </trkpt>
      <trkpt lat="47.05422" lon="5.99532">
        <ele>408.6</ele>
        <time>2024-09-01T08:46:55Z</time>
      </trkpt>
      <trkpt lat="47.05422" lon="5.99532">
        <ele>408.6</ele>
        <time>2024-09-01T08:46:56Z</time>
      </trkpt>
      <trkpt lat="47.05422" lon="5.99532">
        <ele>408.6</ele>
        <time>2024-09-01T08:46:57Z</time>
      </trkpt>
      <trkpt lat="47.05422" lon="5.99532">
        <ele>408.6</ele>
        <time>2024-09-01T08:46:58Z</time>
      </trkpt>
      <trkpt lat="47.05422" lon="5.99532">
        <ele>408.6</ele>
        <time>2024-09-01T08:46:59Z</time>
      </trkpt>
      <trkpt lat="47.05422" lon="5.99532">
        <ele>408.6</ele>
        <time>2024-09-01T08:47:00Z</time>
      </trkpt>
      <trkpt lat="47.05422" lon="5.99532">
        <ele>408.4</ele>
        <time>2024-09-01T08:47:01Z</time>
      </trkpt>
      <trkpt lat="47.05422" lon="5.99532">
        <ele>408.6</ele>
        <time>2024-09-01T08:47:02Z</time>
      </trkpt>
      <trkpt lat="47.05422" lon="5.99532">
        <ele>408.6</ele>
        <time>2024-09-01T08:47:03Z</time>
      </trkpt>
      <trkpt lat="47.05422" lon="5.99532">
        <ele>408.6</ele>
        <time>2024-09-01T08:47:04Z</time>
      </trkpt>
      <trkpt lat="47.05422" lon="5.99532">
        <ele>408.6</ele>
        <time>2024-09-01T08:47:05Z</time>
      </trkpt>
      <trkpt lat="47.05422" lon="5.99532">
        <ele>408.8</ele>
        <time>2024-09-01T08:47:06Z</time>
      </trkpt>
      <trkpt lat="47.05422" lon="5.99532">
        <ele>408.6</ele>
        <time>2024-09-01T08:47:07Z</time>
      </trkpt>
      <trkpt lat="47.05422" lon="5.99532">
        <ele>408.6</ele>
        <time>2024-09-01T08:47:08Z</time>
      </trkpt>
      <trkpt lat="47.05422" lon="5.99532">
        <ele>408.6</ele>
        <time>2024-09-01T08:47:09Z</time>
      </trkpt>
      <trkpt lat="47.05422" lon="5.99532">
        <ele>408.6</ele>
        <time>2024-09-01T08:47:10Z</time>
      </trkpt>
      <trkpt lat="47.05422" lon="5.99532">
        <ele>408.8</ele>
        <time>2024-09-01T08:47:11Z</time>
      </trkpt>
      <trkpt lat="47.05422" lon="5.99532">
        <ele>408.8</ele>
        <time>2024-09-01T08:47:12Z</time>
      </trkpt>
      <trkpt lat="47.05422" lon="5.99532">
        <ele>408.6</ele>
        <time>2024-09-01T08:47:13Z</time>
      </trkpt>
      <trkpt lat="47.05422" lon="5.99532">
        <ele>408.8</ele>
        <time>2024-09-01T08:47:14Z</time>
      </trkpt>
      <trkpt lat="47.05422" lon="5.99532">
        <ele>408.8</ele>
        <time>2024-09-01T08:47:15Z</time>
      </trkpt>
      <trkpt lat="47.05422" lon="5.99532">
        <ele>408.8</ele>
        <time>2024-09-01T08:47:16Z</time>
      </trkpt>
      <trkpt lat="47.05422" lon="5.99532">
        <ele>408.8</ele>
        <time>2024-09-01T08:47:17Z</time>
      </trkpt>
      <trkpt lat="47.05422" lon="5.99532">
        <ele>408.8</ele>
        <time>2024-09-01T08:47:18Z</time>
      </trkpt>
      <trkpt lat="47.05422" lon="5.99532">
        <ele>409</ele>
        <time>2024-09-01T08:47:19Z</time>
      </trkpt>
      <trkpt lat="47.05422" lon="5.99532">
        <ele>409</ele>
        <time>2024-09-01T08:47:20Z</time>
      </trkpt>
      <trkpt lat="47.05422" lon="5.99532">
        <ele>409</ele>
        <time>2024-09-01T08:47:21Z</time>
      </trkpt>
      <trkpt lat="47.05422" lon="5.99532">
        <ele>409</ele>
        <time>2024-09-01T08:47:22Z</time>
      </trkpt>
      <trkpt lat="47.05422" lon="5.99532">
        <ele>409</ele>
        <time>2024-09-01T08:47:23Z</time>
      </trkpt>
      <trkpt lat="47.05422" lon="5.99532">
        <ele>409.2</ele>
        <time>2024-09-01T08:47:24Z</time>
      </trkpt>
      <trkpt lat="47.05422" lon="5.99532">
        <ele>409</ele>
        <time>2024-09-01T08:47:25Z</time>
      </trkpt>
      <trkpt lat="47.05422" lon="5.99532">
        <ele>409</ele>
        <time>2024-09-01T08:47:26Z</time>
      </trkpt>
      <trkpt lat="47.05422" lon="5.99532">
        <ele>409.2</ele>
        <time>2024-09-01T08:47:27Z</time>
      </trkpt>
      <trkpt lat="47.05422" lon="5.99532">
        <ele>409</ele>
        <time>2024-09-01T08:47:28Z</time>
      </trkpt>
      <trkpt lat="47.05422" lon="5.99532">
        <ele>409</ele>
        <time>2024-09-01T08:47:29Z</time>
      </trkpt>
      <trkpt lat="47.05422" lon="5.99532">
        <ele>409.2</ele>
        <time>2024-09-01T08:47:30Z</time>
      </trkpt>
      <trkpt lat="47.05422" lon="5.99532">
        <ele>409</ele>
        <time>2024-09-01T08:47:31Z</time>
      </trkpt>
      <trkpt lat="47.05422" lon="5.99532">
        <ele>409</ele>
        <time>2024-09-01T08:47:32Z</time>
      </trkpt>
      <trkpt lat="47.05422" lon="5.99532">
        <ele>409.2</ele>
        <time>2024-09-01T08:47:33Z</time>
      </trkpt>
      <trkpt lat="47.05422" lon="5.99532">
        <ele>409.2</ele>
        <time>2024-09-01T08:47:34Z</time>
      </trkpt>
      <trkpt lat="47.05422" lon="5.99532">
        <ele>409.2</ele>
        <time>2024-09-01T08:47:35Z</time>
      </trkpt>
      <trkpt lat="47.05422" lon="5.99532">
        <ele>409.2</ele>
        <time>2024-09-01T08:47:36Z</time>
      </trkpt>
      <trkpt lat="47.05422" lon="5.99532">
        <ele>409.2</ele>
        <time>2024-09-01T08:47:37Z</time>
      </trkpt>
      <trkpt lat="47.05422" lon="5.99532">
        <ele>409.2</ele>
        <time>2024-09-01T08:47:38Z</time>
      </trkpt>
      <trkpt lat="47.05423" lon="5.99532">
        <ele>409</ele>
        <time>2024-09-01T08:47:39Z</time>
      </trkpt>
      <trkpt lat="47.05423" lon="5.99532">
        <ele>409.2</ele>
        <time>2024-09-01T08:47:40Z</time>
      </trkpt>
      <trkpt lat="47.05423" lon="5.99533">
        <ele>409.2</ele>
        <time>2024-09-01T08:47:41Z</time>
      </trkpt>
      <trkpt lat="47.05424" lon="5.99533">
        <ele>409.2</ele>
        <time>2024-09-01T08:47:42Z</time>
      </trkpt>
      <trkpt lat="47.05424" lon="5.99534">
        <ele>409.2</ele>
        <time>2024-09-01T08:47:43Z</time>
      </trkpt>
      <trkpt lat="47.05426" lon="5.99535">
        <ele>409.2</ele>
        <time>2024-09-01T08:47:44Z</time>
      </trkpt>
      <trkpt lat="47.05427" lon="5.99537">
        <ele>409.2</ele>
        <time>2024-09-01T08:47:45Z</time>
      </trkpt>
      <trkpt lat="47.05429" lon="5.99539">
        <ele>409.2</ele>
        <time>2024-09-01T08:47:46Z</time>
      </trkpt>
      <trkpt lat="47.0543" lon="5.9954">
        <ele>409.2</ele>
        <time>2024-09-01T08:47:47Z</time>
      </trkpt>
      <trkpt lat="47.05432" lon="5.99542">
        <ele>409.2</ele>
        <time>2024-09-01T08:47:48Z</time>
      </trkpt>
      <trkpt lat="47.05433" lon="5.99543">
        <ele>409.2</ele>
        <time>2024-09-01T08:47:49Z</time>
      </trkpt>
      <trkpt lat="47.05434" lon="5.99545">
        <ele>409.2</ele>
        <time>2024-09-01T08:47:50Z</time>
      </trkpt>
      <trkpt lat="47.05435" lon="5.99547">
        <ele>409.2</ele>
        <time>2024-09-01T08:47:51Z</time>
      </trkpt>
      <trkpt lat="47.05437" lon="5.99547">
        <ele>409.2</ele>
        <time>2024-09-01T08:47:52Z</time>
      </trkpt>
      <trkpt lat="47.05439" lon="5.99547">
        <ele>409.2</ele>
        <time>2024-09-01T08:47:53Z</time>
      </trkpt>
      <trkpt lat="47.0544" lon="5.99546">
        <ele>409.2</ele>
        <time>2024-09-01T08:47:54Z</time>
      </trkpt>
      <trkpt lat="47.05443" lon="5.99544">
        <ele>409.2</ele>
        <time>2024-09-01T08:47:55Z</time>
      </trkpt>
      <trkpt lat="47.05447" lon="5.99543">
        <ele>409.2</ele>
        <time>2024-09-01T08:47:56Z</time>
      </trkpt>
      <trkpt lat="47.0545" lon="5.99541">
        <ele>409.2</ele>
        <time>2024-09-01T08:47:57Z</time>
      </trkpt>
      <trkpt lat="47.05453" lon="5.99539">
        <ele>409.2</ele>
        <time>2024-09-01T08:47:58Z</time>
      </trkpt>
      <trkpt lat="47.05456" lon="5.99537">
        <ele>409.2</ele>
        <time>2024-09-01T08:47:59Z</time>
      </trkpt>
      <trkpt lat="47.0546" lon="5.99535">
        <ele>409.2</ele>
        <time>2024-09-01T08:48:00Z</time>
      </trkpt>
      <trkpt lat="47.05464" lon="5.99532">
        <ele>409.2</ele>
        <time>2024-09-01T08:48:01Z</time>
      </trkpt>
      <trkpt lat="47.05468" lon="5.99529">
        <ele>409.2</ele>
        <time>2024-09-01T08:48:02Z</time>
      </trkpt>
      <trkpt lat="47.05471" lon="5.99525">
        <ele>409.4</ele>
        <time>2024-09-01T08:48:03Z</time>
      </trkpt>
      <trkpt lat="47.05474" lon="5.9952">
        <ele>409.4</ele>
        <time>2024-09-01T08:48:04Z</time>
      </trkpt>
      <trkpt lat="47.05477" lon="5.99516">
        <ele>409.2</ele>
        <time>2024-09-01T08:48:05Z</time>
      </trkpt>
      <trkpt lat="47.0548" lon="5.99512">
        <ele>409.2</ele>
        <time>2024-09-01T08:48:06Z</time>
      </trkpt>
      <trkpt lat="47.05483" lon="5.99507">
        <ele>409.4</ele>
        <time>2024-09-01T08:48:07Z</time>
      </trkpt>
      <trkpt lat="47.05485" lon="5.99502">
        <ele>409.4</ele>
        <time>2024-09-01T08:48:08Z</time>
      </trkpt>
      <trkpt lat="47.05488" lon="5.99497">
        <ele>409.2</ele>
        <time>2024-09-01T08:48:09Z</time>
      </trkpt>
      <trkpt lat="47.05491" lon="5.99493">
        <ele>409.4</ele>
        <time>2024-09-01T08:48:10Z</time>
      </trkpt>
      <trkpt lat="47.05494" lon="5.99488">
        <ele>409.4</ele>
        <time>2024-09-01T08:48:11Z</time>
      </trkpt>
      <trkpt lat="47.05496" lon="5.99484">
        <ele>409.4</ele>
        <time>2024-09-01T08:48:12Z</time>
      </trkpt>
      <trkpt lat="47.05498" lon="5.99479">
        <ele>409.2</ele>
        <time>2024-09-01T08:48:13Z</time>
      </trkpt>
      <trkpt lat="47.055" lon="5.99475">
        <ele>409.2</ele>
        <time>2024-09-01T08:48:14Z</time>
      </trkpt>
      <trkpt lat="47.05502" lon="5.9947">
        <ele>409.4</ele>
        <time>2024-09-01T08:48:15Z</time>
      </trkpt>
      <trkpt lat="47.05504" lon="5.99465">
        <ele>409.2</ele>
        <time>2024-09-01T08:48:16Z</time>
      </trkpt>
      <trkpt lat="47.05506" lon="5.9946">
        <ele>409.4</ele>
        <time>2024-09-01T08:48:17Z</time>
      </trkpt>
      <trkpt lat="47.05508" lon="5.99456">
        <ele>409.4</ele>
        <time>2024-09-01T08:48:18Z</time>
      </trkpt>
      <trkpt lat="47.0551" lon="5.99451">
        <ele>409.4</ele>
        <time>2024-09-01T08:48:19Z</time>
      </trkpt>
      <trkpt lat="47.05512" lon="5.99445">
        <ele>409.4</ele>
        <time>2024-09-01T08:48:20Z</time>
      </trkpt>
      <trkpt lat="47.05514" lon="5.9944">
        <ele>409.4</ele>
        <time>2024-09-01T08:48:21Z</time>
      </trkpt>
      <trkpt lat="47.05516" lon="5.99436">
        <ele>409.4</ele>
        <time>2024-09-01T08:48:22Z</time>
      </trkpt>
      <trkpt lat="47.05518" lon="5.99431">
        <ele>409.4</ele>
        <time>2024-09-01T08:48:23Z</time>
      </trkpt>
      <trkpt lat="47.0552" lon="5.99427">
        <ele>409.6</ele>
        <time>2024-09-01T08:48:24Z</time>
      </trkpt>
      <trkpt lat="47.05521" lon="5.99423">
        <ele>409.6</ele>
        <time>2024-09-01T08:48:25Z</time>
      </trkpt>
      <trkpt lat="47.05522" lon="5.99418">
        <ele>409.6</ele>
        <time>2024-09-01T08:48:26Z</time>
      </trkpt>
      <trkpt lat="47.05522" lon="5.99414">
        <ele>409.6</ele>
        <time>2024-09-01T08:48:27Z</time>
      </trkpt>
      <trkpt lat="47.05522" lon="5.9941">
        <ele>409.8</ele>
        <time>2024-09-01T08:48:28Z</time>
      </trkpt>
      <trkpt lat="47.05523" lon="5.99406">
        <ele>409.8</ele>
        <time>2024-09-01T08:48:29Z</time>
      </trkpt>
      <trkpt lat="47.05524" lon="5.99403">
        <ele>409.8</ele>
        <time>2024-09-01T08:48:30Z</time>
      </trkpt>
      <trkpt lat="47.05526" lon="5.99399">
        <ele>410</ele>
        <time>2024-09-01T08:48:31Z</time>
      </trkpt>
      <trkpt lat="47.05528" lon="5.99396">
        <ele>409.8</ele>
        <time>2024-09-01T08:48:32Z</time>
      </trkpt>
      <trkpt lat="47.0553" lon="5.99393">
        <ele>410</ele>
        <time>2024-09-01T08:48:33Z</time>
      </trkpt>
      <trkpt lat="47.05531" lon="5.9939">
        <ele>410.4</ele>
        <time>2024-09-01T08:48:34Z</time>
      </trkpt>
      <trkpt lat="47.05533" lon="5.99387">
        <ele>410.4</ele>
        <time>2024-09-01T08:48:35Z</time>
      </trkpt>
      <trkpt lat="47.05535" lon="5.99387">
        <ele>410.8</ele>
        <time>2024-09-01T08:48:36Z</time>
      </trkpt>
      <trkpt lat="47.05537" lon="5.99388">
        <ele>410.8</ele>
        <time>2024-09-01T08:48:37Z</time>
      </trkpt>
      <trkpt lat="47.0554" lon="5.99389">
        <ele>411.2</ele>
        <time>2024-09-01T08:48:38Z</time>
      </trkpt>
      <trkpt lat="47.05541" lon="5.99391">
        <ele>411.4</ele>
        <time>2024-09-01T08:48:39Z</time>
      </trkpt>
      <trkpt lat="47.05541" lon="5.99393">
        <ele>411.4</ele>
        <time>2024-09-01T08:48:40Z</time>
      </trkpt>
      <trkpt lat="47.05542" lon="5.99394">
        <ele>411.8</ele>
        <time>2024-09-01T08:48:41Z</time>
      </trkpt>
      <trkpt lat="47.05543" lon="5.99394">
        <ele>411.8</ele>
        <time>2024-09-01T08:48:42Z</time>
      </trkpt>
      <trkpt lat="47.05543" lon="5.99393">
        <ele>412</ele>
        <time>2024-09-01T08:48:43Z</time>
      </trkpt>
      <trkpt lat="47.05544" lon="5.99392">
        <ele>412</ele>
        <time>2024-09-01T08:48:44Z</time>
      </trkpt>
      <trkpt lat="47.05545" lon="5.99391">
        <ele>412.2</ele>
        <time>2024-09-01T08:48:45Z</time>
      </trkpt>
      <trkpt lat="47.05546" lon="5.99389">
        <ele>412.2</ele>
        <time>2024-09-01T08:48:46Z</time>
      </trkpt>
      <trkpt lat="47.05546" lon="5.99387">
        <ele>412.2</ele>
        <time>2024-09-01T08:48:47Z</time>
      </trkpt>
      <trkpt lat="47.05547" lon="5.99385">
        <ele>412.2</ele>
        <time>2024-09-01T08:48:48Z</time>
      </trkpt>
      <trkpt lat="47.05547" lon="5.99384">
        <ele>412.4</ele>
        <time>2024-09-01T08:48:49Z</time>
      </trkpt>
      <trkpt lat="47.05548" lon="5.99383">
        <ele>412.2</ele>
        <time>2024-09-01T08:48:50Z</time>
      </trkpt>
      <trkpt lat="47.05548" lon="5.99383">
        <ele>412.4</ele>
        <time>2024-09-01T08:48:51Z</time>
      </trkpt>
      <trkpt lat="47.05548" lon="5.99382">
        <ele>412.2</ele>
        <time>2024-09-01T08:48:52Z</time>
      </trkpt>
      <trkpt lat="47.05549" lon="5.99381">
        <ele>412.2</ele>
        <time>2024-09-01T08:48:53Z</time>
      </trkpt>
      <trkpt lat="47.05548" lon="5.9938">
        <ele>412.2</ele>
        <time>2024-09-01T08:48:54Z</time>
      </trkpt>
      <trkpt lat="47.05548" lon="5.99378">
        <ele>412.4</ele>
        <time>2024-09-01T08:48:55Z</time>
      </trkpt>
      <trkpt lat="47.05549" lon="5.99376">
        <ele>412.4</ele>
        <time>2024-09-01T08:48:56Z</time>
      </trkpt>
      <trkpt lat="47.0555" lon="5.99373">
        <ele>412.4</ele>
        <time>2024-09-01T08:48:57Z</time>
      </trkpt>
      <trkpt lat="47.05552" lon="5.9937">
        <ele>412.2</ele>
        <time>2024-09-01T08:48:58Z</time>
      </trkpt>
      <trkpt lat="47.05554" lon="5.99366">
        <ele>412.2</ele>
        <time>2024-09-01T08:48:59Z</time>
      </trkpt>
      <trkpt lat="47.05556" lon="5.99362">
        <ele>412.2</ele>
        <time>2024-09-01T08:49:00Z</time>
      </trkpt>
      <trkpt lat="47.05559" lon="5.99358">
        <ele>412.4</ele>
        <time>2024-09-01T08:49:01Z</time>
      </trkpt>
      <trkpt lat="47.05563" lon="5.99353">
        <ele>412.4</ele>
        <time>2024-09-01T08:49:02Z</time>
      </trkpt>
      <trkpt lat="47.05566" lon="5.99349">
        <ele>412.2</ele>
        <time>2024-09-01T08:49:03Z</time>
      </trkpt>
      <trkpt lat="47.05569" lon="5.99344">
        <ele>412.4</ele>
        <time>2024-09-01T08:49:04Z</time>
      </trkpt>
      <trkpt lat="47.05572" lon="5.9934">
        <ele>412.4</ele>
        <time>2024-09-01T08:49:05Z</time>
      </trkpt>
      <trkpt lat="47.05575" lon="5.99336">
        <ele>412.2</ele>
        <time>2024-09-01T08:49:06Z</time>
      </trkpt>
      <trkpt lat="47.05579" lon="5.99332">
        <ele>412.4</ele>
        <time>2024-09-01T08:49:07Z</time>
      </trkpt>
      <trkpt lat="47.05582" lon="5.99329">
        <ele>412.4</ele>
        <time>2024-09-01T08:49:08Z</time>
      </trkpt>
      <trkpt lat="47.05586" lon="5.99326">
        <ele>412.2</ele>
        <time>2024-09-01T08:49:09Z</time>
      </trkpt>
      <trkpt lat="47.05589" lon="5.99323">
        <ele>412.2</ele>
        <time>2024-09-01T08:49:10Z</time>
      </trkpt>
      <trkpt lat="47.05592" lon="5.99321">
        <ele>412.2</ele>
        <time>2024-09-01T08:49:11Z</time>
      </trkpt>
      <trkpt lat="47.05596" lon="5.99319">
        <ele>412.2</ele>
        <time>2024-09-01T08:49:12Z</time>
      </trkpt>
      <trkpt lat="47.05599" lon="5.99318">
        <ele>412.2</ele>
        <time>2024-09-01T08:49:13Z</time>
      </trkpt>
      <trkpt lat="47.05601" lon="5.99316">
        <ele>412</ele>
        <time>2024-09-01T08:49:14Z</time>
      </trkpt>
      <trkpt lat="47.05603" lon="5.99314">
        <ele>412.2</ele>
        <time>2024-09-01T08:49:15Z</time>
      </trkpt>
      <trkpt lat="47.05605" lon="5.99314">
        <ele>412</ele>
        <time>2024-09-01T08:49:16Z</time>
      </trkpt>
      <trkpt lat="47.05608" lon="5.99313">
        <ele>412</ele>
        <time>2024-09-01T08:49:17Z</time>
      </trkpt>
      <trkpt lat="47.05611" lon="5.99312">
        <ele>412</ele>
        <time>2024-09-01T08:49:18Z</time>
      </trkpt>
      <trkpt lat="47.05615" lon="5.99312">
        <ele>412</ele>
        <time>2024-09-01T08:49:19Z</time>
      </trkpt>
      <trkpt lat="47.05618" lon="5.9931">
        <ele>411.8</ele>
        <time>2024-09-01T08:49:20Z</time>
      </trkpt>
      <trkpt lat="47.05621" lon="5.9931">
        <ele>411.8</ele>
        <time>2024-09-01T08:49:21Z</time>
      </trkpt>
      <trkpt lat="47.05625" lon="5.99311">
        <ele>411.8</ele>
        <time>2024-09-01T08:49:22Z</time>
      </trkpt>
      <trkpt lat="47.05627" lon="5.99313">
        <ele>411.6</ele>
        <time>2024-09-01T08:49:23Z</time>
      </trkpt>
      <trkpt lat="47.0563" lon="5.99312">
        <ele>411.6</ele>
        <time>2024-09-01T08:49:24Z</time>
      </trkpt>
      <trkpt lat="47.05634" lon="5.99311">
        <ele>411.6</ele>
        <time>2024-09-01T08:49:25Z</time>
      </trkpt>
      <trkpt lat="47.05638" lon="5.99309">
        <ele>411.4</ele>
        <time>2024-09-01T08:49:26Z</time>
      </trkpt>
      <trkpt lat="47.05642" lon="5.99307">
        <ele>411.6</ele>
        <time>2024-09-01T08:49:27Z</time>
      </trkpt>
      <trkpt lat="47.05647" lon="5.99304">
        <ele>411.4</ele>
        <time>2024-09-01T08:49:28Z</time>
      </trkpt>
      <trkpt lat="47.05652" lon="5.99302">
        <ele>411.2</ele>
        <time>2024-09-01T08:49:29Z</time>
      </trkpt>
      <trkpt lat="47.05657" lon="5.99299">
        <ele>411.2</ele>
        <time>2024-09-01T08:49:30Z</time>
      </trkpt>
      <trkpt lat="47.05662" lon="5.99295">
        <ele>411.2</ele>
        <time>2024-09-01T08:49:31Z</time>
      </trkpt>
      <trkpt lat="47.05667" lon="5.99292">
        <ele>411.2</ele>
        <time>2024-09-01T08:49:32Z</time>
      </trkpt>
      <trkpt lat="47.05671" lon="5.99287">
        <ele>411.2</ele>
        <time>2024-09-01T08:49:33Z</time>
      </trkpt>
      <trkpt lat="47.05675" lon="5.99282">
        <ele>411</ele>
        <time>2024-09-01T08:49:34Z</time>
      </trkpt>
      <trkpt lat="47.05679" lon="5.99278">
        <ele>411</ele>
        <time>2024-09-01T08:49:35Z</time>
      </trkpt>
      <trkpt lat="47.05682" lon="5.99273">
        <ele>410.6</ele>
        <time>2024-09-01T08:49:36Z</time>
      </trkpt>
      <trkpt lat="47.05685" lon="5.99269">
        <ele>410.6</ele>
        <time>2024-09-01T08:49:37Z</time>
      </trkpt>
      <trkpt lat="47.05688" lon="5.99266">
        <ele>410.6</ele>
        <time>2024-09-01T08:49:38Z</time>
      </trkpt>
      <trkpt lat="47.05691" lon="5.99262">
        <ele>410.4</ele>
        <time>2024-09-01T08:49:39Z</time>
      </trkpt>
      <trkpt lat="47.05694" lon="5.99259">
        <ele>410</ele>
        <time>2024-09-01T08:49:40Z</time>
      </trkpt>
      <trkpt lat="47.05696" lon="5.99257">
        <ele>409.8</ele>
        <time>2024-09-01T08:49:41Z</time>
      </trkpt>
      <trkpt lat="47.05698" lon="5.99255">
        <ele>409.6</ele>
        <time>2024-09-01T08:49:42Z</time>
      </trkpt>
      <trkpt lat="47.05699" lon="5.99255">
        <ele>409.2</ele>
        <time>2024-09-01T08:49:43Z</time>
      </trkpt>
      <trkpt lat="47.057" lon="5.99255">
        <ele>409</ele>
        <time>2024-09-01T08:49:44Z</time>
      </trkpt>
      <trkpt lat="47.057" lon="5.99254">
        <ele>408.8</ele>
        <time>2024-09-01T08:49:45Z</time>
      </trkpt>
      <trkpt lat="47.05701" lon="5.99253">
        <ele>408.6</ele>
        <time>2024-09-01T08:49:46Z</time>
      </trkpt>
      <trkpt lat="47.05701" lon="5.99252">
        <ele>408.2</ele>
        <time>2024-09-01T08:49:47Z</time>
      </trkpt>
      <trkpt lat="47.05702" lon="5.9925">
        <ele>407.8</ele>
        <time>2024-09-01T08:49:48Z</time>
      </trkpt>
      <trkpt lat="47.05702" lon="5.99249">
        <ele>407.6</ele>
        <time>2024-09-01T08:49:49Z</time>
      </trkpt>
      <trkpt lat="47.05703" lon="5.99248">
        <ele>407.4</ele>
        <time>2024-09-01T08:49:50Z</time>
      </trkpt>
      <trkpt lat="47.05704" lon="5.99248">
        <ele>407.2</ele>
        <time>2024-09-01T08:49:51Z</time>
      </trkpt>
      <trkpt lat="47.05705" lon="5.99246">
        <ele>407</ele>
        <time>2024-09-01T08:49:52Z</time>
      </trkpt>
      <trkpt lat="47.05706" lon="5.99245">
        <ele>407</ele>
        <time>2024-09-01T08:49:53Z</time>
      </trkpt>
      <trkpt lat="47.05707" lon="5.99243">
        <ele>407</ele>
        <time>2024-09-01T08:49:54Z</time>
      </trkpt>
      <trkpt lat="47.05707" lon="5.99242">
        <ele>406.8</ele>
        <time>2024-09-01T08:49:55Z</time>
      </trkpt>
      <trkpt lat="47.05708" lon="5.99241">
        <ele>406.8</ele>
        <time>2024-09-01T08:49:56Z</time>
      </trkpt>
      <trkpt lat="47.05708" lon="5.99241">
        <ele>406.6</ele>
        <time>2024-09-01T08:49:57Z</time>
      </trkpt>
      <trkpt lat="47.05707" lon="5.99241">
        <ele>406.6</ele>
        <time>2024-09-01T08:49:58Z</time>
      </trkpt>
      <trkpt lat="47.05707" lon="5.9924">
        <ele>406.6</ele>
        <time>2024-09-01T08:49:59Z</time>
      </trkpt>
      <trkpt lat="47.05707" lon="5.99239">
        <ele>406.6</ele>
        <time>2024-09-01T08:50:00Z</time>
      </trkpt>
      <trkpt lat="47.05707" lon="5.99239">
        <ele>406.4</ele>
        <time>2024-09-01T08:50:01Z</time>
      </trkpt>
      <trkpt lat="47.05707" lon="5.99239">
        <ele>406.4</ele>
        <time>2024-09-01T08:50:02Z</time>
      </trkpt>
      <trkpt lat="47.05707" lon="5.99239">
        <ele>406.4</ele>
        <time>2024-09-01T08:50:03Z</time>
      </trkpt>
      <trkpt lat="47.05708" lon="5.99239">
        <ele>406.2</ele>
        <time>2024-09-01T08:50:04Z</time>
      </trkpt>
      <trkpt lat="47.05708" lon="5.99239">
        <ele>406.4</ele>
        <time>2024-09-01T08:50:05Z</time>
      </trkpt>
      <trkpt lat="47.05708" lon="5.99239">
        <ele>406.4</ele>
        <time>2024-09-01T08:50:06Z</time>
      </trkpt>
      <trkpt lat="47.05708" lon="5.99239">
        <ele>406.4</ele>
        <time>2024-09-01T08:50:07Z</time>
      </trkpt>
      <trkpt lat="47.05708" lon="5.99239">
        <ele>406.2</ele>
        <time>2024-09-01T08:50:08Z</time>
      </trkpt>
      <trkpt lat="47.05708" lon="5.99239">
        <ele>406.2</ele>
        <time>2024-09-01T08:50:09Z</time>
      </trkpt>
      <trkpt lat="47.05708" lon="5.99239">
        <ele>406.4</ele>
        <time>2024-09-01T08:50:10Z</time>
      </trkpt>
      <trkpt lat="47.05708" lon="5.99239">
        <ele>406.2</ele>
        <time>2024-09-01T08:50:11Z</time>
      </trkpt>
      <trkpt lat="47.05708" lon="5.99239">
        <ele>406.4</ele>
        <time>2024-09-01T08:50:12Z</time>
      </trkpt>
      <trkpt lat="47.05708" lon="5.99239">
        <ele>406.4</ele>
        <time>2024-09-01T08:50:13Z</time>
      </trkpt>
      <trkpt lat="47.05708" lon="5.99239">
        <ele>406.2</ele>
        <time>2024-09-01T08:50:14Z</time>
      </trkpt>
      <trkpt lat="47.05708" lon="5.99239">
        <ele>406.2</ele>
        <time>2024-09-01T08:50:15Z</time>
      </trkpt>
      <trkpt lat="47.05709" lon="5.99239">
        <ele>406.2</ele>
        <time>2024-09-01T08:50:16Z</time>
      </trkpt>
      <trkpt lat="47.05709" lon="5.99238">
        <ele>406.2</ele>
        <time>2024-09-01T08:50:17Z</time>
      </trkpt>
      <trkpt lat="47.0571" lon="5.99237">
        <ele>406.2</ele>
        <time>2024-09-01T08:50:18Z</time>
      </trkpt>
      <trkpt lat="47.05711" lon="5.99236">
        <ele>406</ele>
        <time>2024-09-01T08:50:19Z</time>
      </trkpt>
      <trkpt lat="47.05713" lon="5.99233">
        <ele>406.2</ele>
        <time>2024-09-01T08:50:20Z</time>
      </trkpt>
      <trkpt lat="47.05715" lon="5.9923">
        <ele>406.2</ele>
        <time>2024-09-01T08:50:21Z</time>
      </trkpt>
      <trkpt lat="47.05718" lon="5.99227">
        <ele>406.2</ele>
        <time>2024-09-01T08:50:22Z</time>
      </trkpt>
      <trkpt lat="47.0572" lon="5.99224">
        <ele>406.2</ele>
        <time>2024-09-01T08:50:23Z</time>
      </trkpt>
      <trkpt lat="47.05724" lon="5.99221">
        <ele>406.2</ele>
        <time>2024-09-01T08:50:24Z</time>
      </trkpt>
      <trkpt lat="47.05727" lon="5.99217">
        <ele>406</ele>
        <time>2024-09-01T08:50:25Z</time>
      </trkpt>
      <trkpt lat="47.05731" lon="5.99213">
        <ele>406.2</ele>
        <time>2024-09-01T08:50:26Z</time>
      </trkpt>
      <trkpt lat="47.05735" lon="5.99208">
        <ele>406.2</ele>
        <time>2024-09-01T08:50:27Z</time>
      </trkpt>
      <trkpt lat="47.05739" lon="5.99202">
        <ele>406</ele>
        <time>2024-09-01T08:50:28Z</time>
      </trkpt>
      <trkpt lat="47.05743" lon="5.99197">
        <ele>405.8</ele>
        <time>2024-09-01T08:50:29Z</time>
      </trkpt>
      <trkpt lat="47.05748" lon="5.99191">
        <ele>405.8</ele>
        <time>2024-09-01T08:50:30Z</time>
      </trkpt>
      <trkpt lat="47.05753" lon="5.99186">
        <ele>405.6</ele>
        <time>2024-09-01T08:50:31Z</time>
      </trkpt>
      <trkpt lat="47.05758" lon="5.9918">
        <ele>405.4</ele>
        <time>2024-09-01T08:50:32Z</time>
      </trkpt>
      <trkpt lat="47.05763" lon="5.99175">
        <ele>405.4</ele>
        <time>2024-09-01T08:50:33Z</time>
      </trkpt>
      <trkpt lat="47.05769" lon="5.99169">
        <ele>405</ele>
        <time>2024-09-01T08:50:34Z</time>
      </trkpt>
      <trkpt lat="47.05775" lon="5.99163">
        <ele>404.8</ele>
        <time>2024-09-01T08:50:35Z</time>
      </trkpt>
      <trkpt lat="47.05781" lon="5.99156">
        <ele>404.4</ele>
        <time>2024-09-01T08:50:36Z</time>
      </trkpt>
      <trkpt lat="47.05787" lon="5.99148">
        <ele>404</ele>
        <time>2024-09-01T08:50:37Z</time>
      </trkpt>
      <trkpt lat="47.05793" lon="5.99142">
        <ele>403.4</ele>
        <time>2024-09-01T08:50:38Z</time>
      </trkpt>
      <trkpt lat="47.05798" lon="5.99134">
        <ele>403.2</ele>
        <time>2024-09-01T08:50:39Z</time>
      </trkpt>
      <trkpt lat="47.05804" lon="5.99126">
        <ele>402.8</ele>
        <time>2024-09-01T08:50:40Z</time>
      </trkpt>
      <trkpt lat="47.0581" lon="5.99118">
        <ele>402.2</ele>
        <time>2024-09-01T08:50:41Z</time>
      </trkpt>
      <trkpt lat="47.05816" lon="5.99111">
        <ele>401.6</ele>
        <time>2024-09-01T08:50:42Z</time>
      </trkpt>
      <trkpt lat="47.05821" lon="5.99105">
        <ele>401</ele>
        <time>2024-09-01T08:50:43Z</time>
      </trkpt>
      <trkpt lat="47.05827" lon="5.99101">
        <ele>400.4</ele>
        <time>2024-09-01T08:50:44Z</time>
      </trkpt>
      <trkpt lat="47.05831" lon="5.99097">
        <ele>399.2</ele>
        <time>2024-09-01T08:50:45Z</time>
      </trkpt>
      <trkpt lat="47.05836" lon="5.99092">
        <ele>397.8</ele>
        <time>2024-09-01T08:50:46Z</time>
      </trkpt>
      <trkpt lat="47.05841" lon="5.99088">
        <ele>397.2</ele>
        <time>2024-09-01T08:50:47Z</time>
      </trkpt>
      <trkpt lat="47.05846" lon="5.99082">
        <ele>396.4</ele>
        <time>2024-09-01T08:50:48Z</time>
      </trkpt>
      <trkpt lat="47.05851" lon="5.99078">
        <ele>396</ele>
        <time>2024-09-01T08:50:49Z</time>
      </trkpt>
      <trkpt lat="47.05855" lon="5.99074">
        <ele>394.6</ele>
        <time>2024-09-01T08:50:50Z</time>
      </trkpt>
      <trkpt lat="47.05859" lon="5.99069">
        <ele>393.4</ele>
        <time>2024-09-01T08:50:51Z</time>
      </trkpt>
      <trkpt lat="47.05861" lon="5.99064">
        <ele>392.4</ele>
        <time>2024-09-01T08:50:52Z</time>
      </trkpt>
      <trkpt lat="47.05864" lon="5.99057">
        <ele>391.2</ele>
        <time>2024-09-01T08:50:53Z</time>
      </trkpt>
      <trkpt lat="47.05866" lon="5.9905">
        <ele>390.8</ele>
        <time>2024-09-01T08:50:54Z</time>
      </trkpt>
      <trkpt lat="47.05867" lon="5.99043">
        <ele>390</ele>
        <time>2024-09-01T08:50:55Z</time>
      </trkpt>
      <trkpt lat="47.05869" lon="5.99036">
        <ele>389.6</ele>
        <time>2024-09-01T08:50:56Z</time>
      </trkpt>
      <trkpt lat="47.05871" lon="5.99029">
        <ele>388.4</ele>
        <time>2024-09-01T08:50:57Z</time>
      </trkpt>
      <trkpt lat="47.05873" lon="5.99023">
        <ele>387.2</ele>
        <time>2024-09-01T08:50:58Z</time>
      </trkpt>
      <trkpt lat="47.05874" lon="5.99016">
        <ele>386</ele>
        <time>2024-09-01T08:50:59Z</time>
      </trkpt>
      <trkpt lat="47.05876" lon="5.99009">
        <ele>385.4</ele>
        <time>2024-09-01T08:51:00Z</time>
      </trkpt>
      <trkpt lat="47.05878" lon="5.99002">
        <ele>384.8</ele>
        <time>2024-09-01T08:51:01Z</time>
      </trkpt>
      <trkpt lat="47.05879" lon="5.98995">
        <ele>384.2</ele>
        <time>2024-09-01T08:51:02Z</time>
      </trkpt>
      <trkpt lat="47.0588" lon="5.98988">
        <ele>383.2</ele>
        <time>2024-09-01T08:51:03Z</time>
      </trkpt>
      <trkpt lat="47.0588" lon="5.98981">
        <ele>382.2</ele>
        <time>2024-09-01T08:51:04Z</time>
      </trkpt>
      <trkpt lat="47.0588" lon="5.98976">
        <ele>381.6</ele>
        <time>2024-09-01T08:51:05Z</time>
      </trkpt>
      <trkpt lat="47.0588" lon="5.98971">
        <ele>381.2</ele>
        <time>2024-09-01T08:51:06Z</time>
      </trkpt>
      <trkpt lat="47.05882" lon="5.98966">
        <ele>380.4</ele>
        <time>2024-09-01T08:51:07Z</time>
      </trkpt>
      <trkpt lat="47.05882" lon="5.98962">
        <ele>379.4</ele>
        <time>2024-09-01T08:51:08Z</time>
      </trkpt>
      <trkpt lat="47.05881" lon="5.98958">
        <ele>378.4</ele>
        <time>2024-09-01T08:51:09Z</time>
      </trkpt>
      <trkpt lat="47.05882" lon="5.98956">
        <ele>377.6</ele>
        <time>2024-09-01T08:51:10Z</time>
      </trkpt>
      <trkpt lat="47.05881" lon="5.98954">
        <ele>377</ele>
        <time>2024-09-01T08:51:11Z</time>
      </trkpt>
      <trkpt lat="47.05881" lon="5.98952">
        <ele>375.6</ele>
        <time>2024-09-01T08:51:12Z</time>
      </trkpt>
      <trkpt lat="47.05882" lon="5.98951">
        <ele>374.8</ele>
        <time>2024-09-01T08:51:13Z</time>
      </trkpt>
      <trkpt lat="47.05882" lon="5.98949">
        <ele>374.2</ele>
        <time>2024-09-01T08:51:14Z</time>
      </trkpt>
      <trkpt lat="47.05882" lon="5.98947">
        <ele>374</ele>
        <time>2024-09-01T08:51:15Z</time>
      </trkpt>
      <trkpt lat="47.05881" lon="5.98945">
        <ele>373.6</ele>
        <time>2024-09-01T08:51:16Z</time>
      </trkpt>
      <trkpt lat="47.0588" lon="5.98943">
        <ele>373.2</ele>
        <time>2024-09-01T08:51:17Z</time>
      </trkpt>
      <trkpt lat="47.0588" lon="5.98942">
        <ele>373</ele>
        <time>2024-09-01T08:51:18Z</time>
      </trkpt>
      <trkpt lat="47.0588" lon="5.98942">
        <ele>372.8</ele>
        <time>2024-09-01T08:51:19Z</time>
      </trkpt>
      <trkpt lat="47.05879" lon="5.98941">
        <ele>372.8</ele>
        <time>2024-09-01T08:51:20Z</time>
      </trkpt>
      <trkpt lat="47.05879" lon="5.9894">
        <ele>372.8</ele>
        <time>2024-09-01T08:51:21Z</time>
      </trkpt>
      <trkpt lat="47.05879" lon="5.9894">
        <ele>372.8</ele>
        <time>2024-09-01T08:51:22Z</time>
      </trkpt>
      <trkpt lat="47.05879" lon="5.9894">
        <ele>372.8</ele>
        <time>2024-09-01T08:51:23Z</time>
      </trkpt>
      <trkpt lat="47.05879" lon="5.9894">
        <ele>372.6</ele>
        <time>2024-09-01T08:51:24Z</time>
      </trkpt>
      <trkpt lat="47.05879" lon="5.9894">
        <ele>372.4</ele>
        <time>2024-09-01T08:51:25Z</time>
      </trkpt>
      <trkpt lat="47.05879" lon="5.9894">
        <ele>372.6</ele>
        <time>2024-09-01T08:51:26Z</time>
      </trkpt>
      <trkpt lat="47.05879" lon="5.9894">
        <ele>372.6</ele>
        <time>2024-09-01T08:51:27Z</time>
      </trkpt>
      <trkpt lat="47.05879" lon="5.9894">
        <ele>372.6</ele>
        <time>2024-09-01T08:51:28Z</time>
      </trkpt>
      <trkpt lat="47.05879" lon="5.9894">
        <ele>372.4</ele>
        <time>2024-09-01T08:51:29Z</time>
      </trkpt>
      <trkpt lat="47.05879" lon="5.9894">
        <ele>372.4</ele>
        <time>2024-09-01T08:51:30Z</time>
      </trkpt>
      <trkpt lat="47.05879" lon="5.9894">
        <ele>372.4</ele>
        <time>2024-09-01T08:51:31Z</time>
      </trkpt>
      <trkpt lat="47.05879" lon="5.98939">
        <ele>372.6</ele>
        <time>2024-09-01T08:51:32Z</time>
      </trkpt>
      <trkpt lat="47.0588" lon="5.98939">
        <ele>372.6</ele>
        <time>2024-09-01T08:51:33Z</time>
      </trkpt>
      <trkpt lat="47.0588" lon="5.98939">
        <ele>372.6</ele>
        <time>2024-09-01T08:51:34Z</time>
      </trkpt>
      <trkpt lat="47.0588" lon="5.98938">
        <ele>372.4</ele>
        <time>2024-09-01T08:51:35Z</time>
      </trkpt>
      <trkpt lat="47.0588" lon="5.98938">
        <ele>372.6</ele>
        <time>2024-09-01T08:51:36Z</time>
      </trkpt>
      <trkpt lat="47.05879" lon="5.98938">
        <ele>372.6</ele>
        <time>2024-09-01T08:51:37Z</time>
      </trkpt>
      <trkpt lat="47.05879" lon="5.98938">
        <ele>372.4</ele>
        <time>2024-09-01T08:51:38Z</time>
      </trkpt>
      <trkpt lat="47.05879" lon="5.98938">
        <ele>372.6</ele>
        <time>2024-09-01T08:51:39Z</time>
      </trkpt>
      <trkpt lat="47.05879" lon="5.98937">
        <ele>372.6</ele>
        <time>2024-09-01T08:51:40Z</time>
      </trkpt>
      <trkpt lat="47.05879" lon="5.98937">
        <ele>372.4</ele>
        <time>2024-09-01T08:51:41Z</time>
      </trkpt>
      <trkpt lat="47.05879" lon="5.98937">
        <ele>372.6</ele>
        <time>2024-09-01T08:51:42Z</time>
      </trkpt>
      <trkpt lat="47.05879" lon="5.98937">
        <ele>372.4</ele>
        <time>2024-09-01T08:51:43Z</time>
      </trkpt>
      <trkpt lat="47.05879" lon="5.98937">
        <ele>372.4</ele>
        <time>2024-09-01T08:51:44Z</time>
      </trkpt>
      <trkpt lat="47.05879" lon="5.98937">
        <ele>372.6</ele>
        <time>2024-09-01T08:51:45Z</time>
      </trkpt>
      <trkpt lat="47.05879" lon="5.98937">
        <ele>372.4</ele>
        <time>2024-09-01T08:51:46Z</time>
      </trkpt>
      <trkpt lat="47.05879" lon="5.98937">
        <ele>372.6</ele>
        <time>2024-09-01T08:51:47Z</time>
      </trkpt>
      <trkpt lat="47.05879" lon="5.98937">
        <ele>372.6</ele>
        <time>2024-09-01T08:51:48Z</time>
      </trkpt>
      <trkpt lat="47.05879" lon="5.98937">
        <ele>372.6</ele>
        <time>2024-09-01T08:51:49Z</time>
      </trkpt>
      <trkpt lat="47.05879" lon="5.98937">
        <ele>372.6</ele>
        <time>2024-09-01T08:51:50Z</time>
      </trkpt>
      <trkpt lat="47.05879" lon="5.98937">
        <ele>372.6</ele>
        <time>2024-09-01T08:51:51Z</time>
      </trkpt>
      <trkpt lat="47.05879" lon="5.98936">
        <ele>372.4</ele>
        <time>2024-09-01T08:51:52Z</time>
      </trkpt>
      <trkpt lat="47.05879" lon="5.98935">
        <ele>372.6</ele>
        <time>2024-09-01T08:51:53Z</time>
      </trkpt>
      <trkpt lat="47.05879" lon="5.98933">
        <ele>372.6</ele>
        <time>2024-09-01T08:51:54Z</time>
      </trkpt>
      <trkpt lat="47.05879" lon="5.98931">
        <ele>372.4</ele>
        <time>2024-09-01T08:51:55Z</time>
      </trkpt>
      <trkpt lat="47.05879" lon="5.98928">
        <ele>372.6</ele>
        <time>2024-09-01T08:51:56Z</time>
      </trkpt>
      <trkpt lat="47.05879" lon="5.98926">
        <ele>372.4</ele>
        <time>2024-09-01T08:51:57Z</time>
      </trkpt>
      <trkpt lat="47.05879" lon="5.98922">
        <ele>372.6</ele>
        <time>2024-09-01T08:51:58Z</time>
      </trkpt>
      <trkpt lat="47.05878" lon="5.98918">
        <ele>372.6</ele>
        <time>2024-09-01T08:51:59Z</time>
      </trkpt>
      <trkpt lat="47.05877" lon="5.98912">
        <ele>372.6</ele>
        <time>2024-09-01T08:52:00Z</time>
      </trkpt>
      <trkpt lat="47.05877" lon="5.98907">
        <ele>372.4</ele>
        <time>2024-09-01T08:52:01Z</time>
      </trkpt>
      <trkpt lat="47.05876" lon="5.98902">
        <ele>372.4</ele>
        <time>2024-09-01T08:52:02Z</time>
      </trkpt>
      <trkpt lat="47.05874" lon="5.98897">
        <ele>372.2</ele>
        <time>2024-09-01T08:52:03Z</time>
      </trkpt>
      <trkpt lat="47.05872" lon="5.98889">
        <ele>372</ele>
        <time>2024-09-01T08:52:04Z</time>
      </trkpt>
      <trkpt lat="47.0587" lon="5.98882">
        <ele>372</ele>
        <time>2024-09-01T08:52:05Z</time>
      </trkpt>
      <trkpt lat="47.05867" lon="5.98875">
        <ele>371.8</ele>
        <time>2024-09-01T08:52:06Z</time>
      </trkpt>
      <trkpt lat="47.05865" lon="5.98868">
        <ele>371.8</ele>
        <time>2024-09-01T08:52:07Z</time>
      </trkpt>
      <trkpt lat="47.05863" lon="5.98861">
        <ele>371.6</ele>
        <time>2024-09-01T08:52:08Z</time>
      </trkpt>
      <trkpt lat="47.05862" lon="5.98855">
        <ele>371.2</ele>
        <time>2024-09-01T08:52:09Z</time>
      </trkpt>
      <trkpt lat="47.0586" lon="5.98849">
        <ele>371</ele>
        <time>2024-09-01T08:52:10Z</time>
      </trkpt>
      <trkpt lat="47.05859" lon="5.98841">
        <ele>370.8</ele>
        <time>2024-09-01T08:52:11Z</time>
      </trkpt>
      <trkpt lat="47.05856" lon="5.98834">
        <ele>370.6</ele>
        <time>2024-09-01T08:52:12Z</time>
      </trkpt>
      <trkpt lat="47.05855" lon="5.98827">
        <ele>370.8</ele>
        <time>2024-09-01T08:52:13Z</time>
      </trkpt>
      <trkpt lat="47.05855" lon="5.98823">
        <ele>370.6</ele>
        <time>2024-09-01T08:52:14Z</time>
      </trkpt>
      <trkpt lat="47.05856" lon="5.98819">
        <ele>370.6</ele>
        <time>2024-09-01T08:52:15Z</time>
      </trkpt>
      <trkpt lat="47.05856" lon="5.98814">
        <ele>370.4</ele>
        <time>2024-09-01T08:52:16Z</time>
      </trkpt>
      <trkpt lat="47.05856" lon="5.9881">
        <ele>370.4</ele>
        <time>2024-09-01T08:52:17Z</time>
      </trkpt>
      <trkpt lat="47.05856" lon="5.98806">
        <ele>370.4</ele>
        <time>2024-09-01T08:52:18Z</time>
      </trkpt>
      <trkpt lat="47.05855" lon="5.98801">
        <ele>370.4</ele>
        <time>2024-09-01T08:52:19Z</time>
      </trkpt>
      <trkpt lat="47.05855" lon="5.98796">
        <ele>370.2</ele>
        <time>2024-09-01T08:52:20Z</time>
      </trkpt>
      <trkpt lat="47.05855" lon="5.9879">
        <ele>370</ele>
        <time>2024-09-01T08:52:21Z</time>
      </trkpt>
      <trkpt lat="47.05855" lon="5.98785">
        <ele>369.8</ele>
        <time>2024-09-01T08:52:22Z</time>
      </trkpt>
      <trkpt lat="47.05854" lon="5.98778">
        <ele>369.6</ele>
        <time>2024-09-01T08:52:23Z</time>
      </trkpt>
      <trkpt lat="47.05853" lon="5.98772">
        <ele>369.6</ele>
        <time>2024-09-01T08:52:24Z</time>
      </trkpt>
      <trkpt lat="47.05853" lon="5.98766">
        <ele>369.4</ele>
        <time>2024-09-01T08:52:25Z</time>
      </trkpt>
      <trkpt lat="47.05852" lon="5.9876">
        <ele>369.4</ele>
        <time>2024-09-01T08:52:26Z</time>
      </trkpt>
      <trkpt lat="47.05851" lon="5.98753">
        <ele>369.2</ele>
        <time>2024-09-01T08:52:27Z</time>
      </trkpt>
      <trkpt lat="47.0585" lon="5.98746">
        <ele>369.2</ele>
        <time>2024-09-01T08:52:28Z</time>
      </trkpt>
      <trkpt lat="47.05849" lon="5.98739">
        <ele>369</ele>
        <time>2024-09-01T08:52:29Z</time>
      </trkpt>
      <trkpt lat="47.05848" lon="5.98733">
        <ele>369</ele>
        <time>2024-09-01T08:52:30Z</time>
      </trkpt>
      <trkpt lat="47.05847" lon="5.98726">
        <ele>368.8</ele>
        <time>2024-09-01T08:52:31Z</time>
      </trkpt>
      <trkpt lat="47.05846" lon="5.98721">
        <ele>368.8</ele>
        <time>2024-09-01T08:52:32Z</time>
      </trkpt>
      <trkpt lat="47.05845" lon="5.98716">
        <ele>368.8</ele>
        <time>2024-09-01T08:52:33Z</time>
      </trkpt>
      <trkpt lat="47.05844" lon="5.98713">
        <ele>369</ele>
        <time>2024-09-01T08:52:34Z</time>
      </trkpt>
      <trkpt lat="47.05842" lon="5.98711">
        <ele>369</ele>
        <time>2024-09-01T08:52:35Z</time>
      </trkpt>
      <trkpt lat="47.0584" lon="5.98707">
        <ele>369</ele>
        <time>2024-09-01T08:52:36Z</time>
      </trkpt>
      <trkpt lat="47.05839" lon="5.98704">
        <ele>369</ele>
        <time>2024-09-01T08:52:37Z</time>
      </trkpt>
      <trkpt lat="47.05837" lon="5.987">
        <ele>369</ele>
        <time>2024-09-01T08:52:38Z</time>
      </trkpt>
      <trkpt lat="47.05836" lon="5.98695">
        <ele>369</ele>
        <time>2024-09-01T08:52:39Z</time>
      </trkpt>
      <trkpt lat="47.05836" lon="5.9869">
        <ele>369</ele>
        <time>2024-09-01T08:52:40Z</time>
      </trkpt>
      <trkpt lat="47.05836" lon="5.98685">
        <ele>369</ele>
        <time>2024-09-01T08:52:41Z</time>
      </trkpt>
      <trkpt lat="47.05836" lon="5.98679">
        <ele>368.8</ele>
        <time>2024-09-01T08:52:42Z</time>
      </trkpt>
      <trkpt lat="47.05835" lon="5.98673">
        <ele>369</ele>
        <time>2024-09-01T08:52:43Z</time>
      </trkpt>
      <trkpt lat="47.05833" lon="5.98666">
        <ele>369</ele>
        <time>2024-09-01T08:52:44Z</time>
      </trkpt>
      <trkpt lat="47.05832" lon="5.98661">
        <ele>369.2</ele>
        <time>2024-09-01T08:52:45Z</time>
      </trkpt>
      <trkpt lat="47.05831" lon="5.98658">
        <ele>369</ele>
        <time>2024-09-01T08:52:46Z</time>
      </trkpt>
      <trkpt lat="47.05831" lon="5.98656">
        <ele>369</ele>
        <time>2024-09-01T08:52:47Z</time>
      </trkpt>
      <trkpt lat="47.0583" lon="5.98654">
        <ele>369</ele>
        <time>2024-09-01T08:52:48Z</time>
      </trkpt>
      <trkpt lat="47.05829" lon="5.98652">
        <ele>369</ele>
        <time>2024-09-01T08:52:49Z</time>
      </trkpt>
      <trkpt lat="47.05829" lon="5.98651">
        <ele>369</ele>
        <time>2024-09-01T08:52:50Z</time>
      </trkpt>
      <trkpt lat="47.05828" lon="5.98649">
        <ele>369</ele>
        <time>2024-09-01T08:52:51Z</time>
      </trkpt>
      <trkpt lat="47.05828" lon="5.98647">
        <ele>369</ele>
        <time>2024-09-01T08:52:52Z</time>
      </trkpt>
      <trkpt lat="47.05829" lon="5.98645">
        <ele>369.2</ele>
        <time>2024-09-01T08:52:53Z</time>
      </trkpt>
      <trkpt lat="47.05829" lon="5.98642">
        <ele>369</ele>
        <time>2024-09-01T08:52:54Z</time>
      </trkpt>
      <trkpt lat="47.05828" lon="5.98639">
        <ele>369</ele>
        <time>2024-09-01T08:52:55Z</time>
      </trkpt>
      <trkpt lat="47.05828" lon="5.98635">
        <ele>369</ele>
        <time>2024-09-01T08:52:56Z</time>
      </trkpt>
      <trkpt lat="47.05828" lon="5.98631">
        <ele>368.8</ele>
        <time>2024-09-01T08:52:57Z</time>
      </trkpt>
      <trkpt lat="47.05827" lon="5.98626">
        <ele>368.8</ele>
        <time>2024-09-01T08:52:58Z</time>
      </trkpt>
      <trkpt lat="47.05826" lon="5.98621">
        <ele>368.8</ele>
        <time>2024-09-01T08:52:59Z</time>
      </trkpt>
      <trkpt lat="47.05826" lon="5.98616">
        <ele>369</ele>
        <time>2024-09-01T08:53:00Z</time>
      </trkpt>
      <trkpt lat="47.05825" lon="5.9861">
        <ele>368.8</ele>
        <time>2024-09-01T08:53:01Z</time>
      </trkpt>
      <trkpt lat="47.05824" lon="5.98604">
        <ele>369</ele>
        <time>2024-09-01T08:53:02Z</time>
      </trkpt>
      <trkpt lat="47.05824" lon="5.98598">
        <ele>368.8</ele>
        <time>2024-09-01T08:53:03Z</time>
      </trkpt>
      <trkpt lat="47.05823" lon="5.98592">
        <ele>368.8</ele>
        <time>2024-09-01T08:53:04Z</time>
      </trkpt>
      <trkpt lat="47.05822" lon="5.98585">
        <ele>368.8</ele>
        <time>2024-09-01T08:53:05Z</time>
      </trkpt>
      <trkpt lat="47.0582" lon="5.9858">
        <ele>368.8</ele>
        <time>2024-09-01T08:53:06Z</time>
      </trkpt>
      <trkpt lat="47.05819" lon="5.98575">
        <ele>368.8</ele>
        <time>2024-09-01T08:53:07Z</time>
      </trkpt>
      <trkpt lat="47.05818" lon="5.98572">
        <ele>368.8</ele>
        <time>2024-09-01T08:53:08Z</time>
      </trkpt>
      <trkpt lat="47.05816" lon="5.98568">
        <ele>368.6</ele>
        <time>2024-09-01T08:53:09Z</time>
      </trkpt>
      <trkpt lat="47.05815" lon="5.98565">
        <ele>368.6</ele>
        <time>2024-09-01T08:53:10Z</time>
      </trkpt>
      <trkpt lat="47.05814" lon="5.98562">
        <ele>368.2</ele>
        <time>2024-09-01T08:53:11Z</time>
      </trkpt>
      <trkpt lat="47.05814" lon="5.98558">
        <ele>368</ele>
        <time>2024-09-01T08:53:12Z</time>
      </trkpt>
      <trkpt lat="47.05813" lon="5.98555">
        <ele>368</ele>
        <time>2024-09-01T08:53:13Z</time>
      </trkpt>
      <trkpt lat="47.05813" lon="5.98552">
        <ele>368</ele>
        <time>2024-09-01T08:53:14Z</time>
      </trkpt>
      <trkpt lat="47.05813" lon="5.98547">
        <ele>367.8</ele>
        <time>2024-09-01T08:53:15Z</time>
      </trkpt>
      <trkpt lat="47.05812" lon="5.98542">
        <ele>367.6</ele>
        <time>2024-09-01T08:53:16Z</time>
      </trkpt>
      <trkpt lat="47.05812" lon="5.98537">
        <ele>367.8</ele>
        <time>2024-09-01T08:53:17Z</time>
      </trkpt>
      <trkpt lat="47.05811" lon="5.98532">
        <ele>367.8</ele>
        <time>2024-09-01T08:53:18Z</time>
      </trkpt>
      <trkpt lat="47.0581" lon="5.98527">
        <ele>367.6</ele>
        <time>2024-09-01T08:53:19Z</time>
      </trkpt>
      <trkpt lat="47.0581" lon="5.98521">
        <ele>367.4</ele>
        <time>2024-09-01T08:53:20Z</time>
      </trkpt>
      <trkpt lat="47.05809" lon="5.98515">
        <ele>367.4</ele>
        <time>2024-09-01T08:53:21Z</time>
      </trkpt>
      <trkpt lat="47.05808" lon="5.9851">
        <ele>367.4</ele>
        <time>2024-09-01T08:53:22Z</time>
      </trkpt>
      <trkpt lat="47.05807" lon="5.98504">
        <ele>367.4</ele>
        <time>2024-09-01T08:53:23Z</time>
      </trkpt>
      <trkpt lat="47.05806" lon="5.98499">
        <ele>367.4</ele>
        <time>2024-09-01T08:53:24Z</time>
      </trkpt>
      <trkpt lat="47.05805" lon="5.98493">
        <ele>367.2</ele>
        <time>2024-09-01T08:53:25Z</time>
      </trkpt>
      <trkpt lat="47.05804" lon="5.98488">
        <ele>366.8</ele>
        <time>2024-09-01T08:53:26Z</time>
      </trkpt>
      <trkpt lat="47.05803" lon="5.98483">
        <ele>366</ele>
        <time>2024-09-01T08:53:27Z</time>
      </trkpt>
      <trkpt lat="47.05802" lon="5.98478">
        <ele>365.4</ele>
        <time>2024-09-01T08:53:28Z</time>
      </trkpt>
      <trkpt lat="47.05801" lon="5.98472">
        <ele>365.2</ele>
        <time>2024-09-01T08:53:29Z</time>
      </trkpt>
      <trkpt lat="47.05799" lon="5.98465">
        <ele>365.2</ele>
        <time>2024-09-01T08:53:30Z</time>
      </trkpt>
      <trkpt lat="47.05798" lon="5.9846">
        <ele>364.6</ele>
        <time>2024-09-01T08:53:31Z</time>
      </trkpt>
      <trkpt lat="47.05796" lon="5.98453">
        <ele>364.4</ele>
        <time>2024-09-01T08:53:32Z</time>
      </trkpt>
      <trkpt lat="47.05795" lon="5.98449">
        <ele>364.4</ele>
        <time>2024-09-01T08:53:33Z</time>
      </trkpt>
      <trkpt lat="47.05793" lon="5.98444">
        <ele>364</ele>
        <time>2024-09-01T08:53:34Z</time>
      </trkpt>
      <trkpt lat="47.05792" lon="5.98441">
        <ele>363.8</ele>
        <time>2024-09-01T08:53:35Z</time>
      </trkpt>
      <trkpt lat="47.05791" lon="5.98438">
        <ele>363.6</ele>
        <time>2024-09-01T08:53:36Z</time>
      </trkpt>
      <trkpt lat="47.05789" lon="5.98435">
        <ele>363.4</ele>
        <time>2024-09-01T08:53:37Z</time>
      </trkpt>
      <trkpt lat="47.05787" lon="5.9843">
        <ele>363.2</ele>
        <time>2024-09-01T08:53:38Z</time>
      </trkpt>
      <trkpt lat="47.05786" lon="5.98426">
        <ele>362.8</ele>
        <time>2024-09-01T08:53:39Z</time>
      </trkpt>
      <trkpt lat="47.05785" lon="5.98422">
        <ele>362.8</ele>
        <time>2024-09-01T08:53:40Z</time>
      </trkpt>
      <trkpt lat="47.05784" lon="5.98417">
        <ele>362.6</ele>
        <time>2024-09-01T08:53:41Z</time>
      </trkpt>
      <trkpt lat="47.05783" lon="5.98413">
        <ele>362.4</ele>
        <time>2024-09-01T08:53:42Z</time>
      </trkpt>
      <trkpt lat="47.05781" lon="5.98407">
        <ele>362.4</ele>
        <time>2024-09-01T08:53:43Z</time>
      </trkpt>
      <trkpt lat="47.05779" lon="5.98399">
        <ele>362.2</ele>
        <time>2024-09-01T08:53:44Z</time>
      </trkpt>
      <trkpt lat="47.05778" lon="5.98392">
        <ele>362.2</ele>
        <time>2024-09-01T08:53:45Z</time>
      </trkpt>
      <trkpt lat="47.05777" lon="5.98384">
        <ele>362.2</ele>
        <time>2024-09-01T08:53:46Z</time>
      </trkpt>
      <trkpt lat="47.05775" lon="5.98375">
        <ele>362</ele>
        <time>2024-09-01T08:53:47Z</time>
      </trkpt>
      <trkpt lat="47.05773" lon="5.98366">
        <ele>361.6</ele>
        <time>2024-09-01T08:53:48Z</time>
      </trkpt>
      <trkpt lat="47.05772" lon="5.98356">
        <ele>361.2</ele>
        <time>2024-09-01T08:53:49Z</time>
      </trkpt>
      <trkpt lat="47.05769" lon="5.98348">
        <ele>360.4</ele>
        <time>2024-09-01T08:53:50Z</time>
      </trkpt>
      <trkpt lat="47.05767" lon="5.9834">
        <ele>359.8</ele>
        <time>2024-09-01T08:53:51Z</time>
      </trkpt>
      <trkpt lat="47.05766" lon="5.98332">
        <ele>358.6</ele>
        <time>2024-09-01T08:53:52Z</time>
      </trkpt>
      <trkpt lat="47.05764" lon="5.98326">
        <ele>357.8</ele>
        <time>2024-09-01T08:53:53Z</time>
      </trkpt>
      <trkpt lat="47.05762" lon="5.98319">
        <ele>357</ele>
        <time>2024-09-01T08:53:54Z</time>
      </trkpt>
      <trkpt lat="47.05761" lon="5.98312">
        <ele>355.8</ele>
        <time>2024-09-01T08:53:55Z</time>
      </trkpt>
      <trkpt lat="47.05759" lon="5.98305">
        <ele>354.4</ele>
        <time>2024-09-01T08:53:56Z</time>
      </trkpt>
      <trkpt lat="47.05756" lon="5.98297">
        <ele>353.2</ele>
        <time>2024-09-01T08:53:57Z</time>
      </trkpt>
      <trkpt lat="47.05754" lon="5.98291">
        <ele>352.4</ele>
        <time>2024-09-01T08:53:58Z</time>
      </trkpt>
      <trkpt lat="47.05752" lon="5.98286">
        <ele>351</ele>
        <time>2024-09-01T08:53:59Z</time>
      </trkpt>
      <trkpt lat="47.05751" lon="5.98281">
        <ele>350</ele>
        <time>2024-09-01T08:54:00Z</time>
      </trkpt>
      <trkpt lat="47.05749" lon="5.98277">
        <ele>348.8</ele>
        <time>2024-09-01T08:54:01Z</time>
      </trkpt>
      <trkpt lat="47.05749" lon="5.98272">
        <ele>347.6</ele>
        <time>2024-09-01T08:54:02Z</time>
      </trkpt>
      <trkpt lat="47.05748" lon="5.98269">
        <ele>346.6</ele>
        <time>2024-09-01T08:54:03Z</time>
      </trkpt>
      <trkpt lat="47.05747" lon="5.98265">
        <ele>345.4</ele>
        <time>2024-09-01T08:54:04Z</time>
      </trkpt>
      <trkpt lat="47.05746" lon="5.98261">
        <ele>344</ele>
        <time>2024-09-01T08:54:05Z</time>
      </trkpt>
      <trkpt lat="47.05744" lon="5.98256">
        <ele>343</ele>
        <time>2024-09-01T08:54:06Z</time>
      </trkpt>
      <trkpt lat="47.05744" lon="5.98252">
        <ele>342</ele>
        <time>2024-09-01T08:54:07Z</time>
      </trkpt>
      <trkpt lat="47.05745" lon="5.98248">
        <ele>341</ele>
        <time>2024-09-01T08:54:08Z</time>
      </trkpt>
      <trkpt lat="47.05746" lon="5.98244">
        <ele>340.4</ele>
        <time>2024-09-01T08:54:09Z</time>
      </trkpt>
      <trkpt lat="47.05748" lon="5.98241">
        <ele>339.6</ele>
        <time>2024-09-01T08:54:10Z</time>
      </trkpt>
      <trkpt lat="47.05752" lon="5.98239">
        <ele>338.8</ele>
        <time>2024-09-01T08:54:11Z</time>
      </trkpt>
      <trkpt lat="47.05756" lon="5.98238">
        <ele>338</ele>
        <time>2024-09-01T08:54:12Z</time>
      </trkpt>
      <trkpt lat="47.05761" lon="5.98238">
        <ele>337.6</ele>
        <time>2024-09-01T08:54:13Z</time>
      </trkpt>
      <trkpt lat="47.05765" lon="5.98239">
        <ele>337</ele>
        <time>2024-09-01T08:54:14Z</time>
      </trkpt>
      <trkpt lat="47.0577" lon="5.98242">
        <ele>336.2</ele>
        <time>2024-09-01T08:54:15Z</time>
      </trkpt>
      <trkpt lat="47.05776" lon="5.98246">
        <ele>335.4</ele>
        <time>2024-09-01T08:54:16Z</time>
      </trkpt>
      <trkpt lat="47.05782" lon="5.9825">
        <ele>335</ele>
        <time>2024-09-01T08:54:17Z</time>
      </trkpt>
      <trkpt lat="47.05788" lon="5.98255">
        <ele>334.6</ele>
        <time>2024-09-01T08:54:18Z</time>
      </trkpt>
      <trkpt lat="47.05793" lon="5.98258">
        <ele>334</ele>
        <time>2024-09-01T08:54:19Z</time>
      </trkpt>
      <trkpt lat="47.05798" lon="5.98262">
        <ele>333.2</ele>
        <time>2024-09-01T08:54:20Z</time>
      </trkpt>
      <trkpt lat="47.05802" lon="5.98266">
        <ele>332.4</ele>
        <time>2024-09-01T08:54:21Z</time>
      </trkpt>
      <trkpt lat="47.05805" lon="5.9827">
        <ele>331.4</ele>
        <time>2024-09-01T08:54:22Z</time>
      </trkpt>
      <trkpt lat="47.05809" lon="5.98274">
        <ele>331</ele>
        <time>2024-09-01T08:54:23Z</time>
      </trkpt>
      <trkpt lat="47.05813" lon="5.9828">
        <ele>330</ele>
        <time>2024-09-01T08:54:24Z</time>
      </trkpt>
      <trkpt lat="47.05816" lon="5.98285">
        <ele>328.8</ele>
        <time>2024-09-01T08:54:25Z</time>
      </trkpt>
      <trkpt lat="47.0582" lon="5.98291">
        <ele>327.8</ele>
        <time>2024-09-01T08:54:26Z</time>
      </trkpt>
      <trkpt lat="47.05825" lon="5.98297">
        <ele>326.8</ele>
        <time>2024-09-01T08:54:27Z</time>
      </trkpt>
      <trkpt lat="47.05829" lon="5.98302">
        <ele>326.4</ele>
        <time>2024-09-01T08:54:28Z</time>
      </trkpt>
      <trkpt lat="47.05833" lon="5.98308">
        <ele>325.8</ele>
        <time>2024-09-01T08:54:29Z</time>
      </trkpt>
      <trkpt lat="47.05837" lon="5.98313">
        <ele>325.8</ele>
        <time>2024-09-01T08:54:30Z</time>
      </trkpt>
      <trkpt lat="47.05841" lon="5.98317">
        <ele>325.6</ele>
        <time>2024-09-01T08:54:31Z</time>
      </trkpt>
      <trkpt lat="47.05845" lon="5.98321">
        <ele>324.8</ele>
        <time>2024-09-01T08:54:32Z</time>
      </trkpt>
      <trkpt lat="47.05849" lon="5.98325">
        <ele>324</ele>
        <time>2024-09-01T08:54:33Z</time>
      </trkpt>
      <trkpt lat="47.05853" lon="5.98328">
        <ele>323.6</ele>
        <time>2024-09-01T08:54:34Z</time>
      </trkpt>
      <trkpt lat="47.05856" lon="5.98332">
        <ele>323.4</ele>
        <time>2024-09-01T08:54:35Z</time>
      </trkpt>
      <trkpt lat="47.0586" lon="5.98336">
        <ele>323.2</ele>
        <time>2024-09-01T08:54:36Z</time>
      </trkpt>
      <trkpt lat="47.05864" lon="5.9834">
        <ele>322.8</ele>
        <time>2024-09-01T08:54:37Z</time>
      </trkpt>
      <trkpt lat="47.05867" lon="5.98345">
        <ele>322.4</ele>
        <time>2024-09-01T08:54:38Z</time>
      </trkpt>
      <trkpt lat="47.05871" lon="5.9835">
        <ele>322</ele>
        <time>2024-09-01T08:54:39Z</time>
      </trkpt>
      <trkpt lat="47.05876" lon="5.98355">
        <ele>321.4</ele>
        <time>2024-09-01T08:54:40Z</time>
      </trkpt>
      <trkpt lat="47.0588" lon="5.98359">
        <ele>321</ele>
        <time>2024-09-01T08:54:41Z</time>
      </trkpt>
      <trkpt lat="47.05883" lon="5.98364">
        <ele>320.6</ele>
        <time>2024-09-01T08:54:42Z</time>
      </trkpt>
      <trkpt lat="47.05887" lon="5.98369">
        <ele>320.6</ele>
        <time>2024-09-01T08:54:43Z</time>
      </trkpt>
      <trkpt lat="47.05891" lon="5.98373">
        <ele>320.4</ele>
        <time>2024-09-01T08:54:44Z</time>
      </trkpt>
      <trkpt lat="47.05895" lon="5.98377">
        <ele>320</ele>
        <time>2024-09-01T08:54:45Z</time>
      </trkpt>
      <trkpt lat="47.05898" lon="5.98382">
        <ele>319.8</ele>
        <time>2024-09-01T08:54:46Z</time>
      </trkpt>
      <trkpt lat="47.05901" lon="5.98386">
        <ele>319.6</ele>
        <time>2024-09-01T08:54:47Z</time>
      </trkpt>
      <trkpt lat="47.05904" lon="5.9839">
        <ele>319.2</ele>
        <time>2024-09-01T08:54:48Z</time>
      </trkpt>
      <trkpt lat="47.05907" lon="5.98394">
        <ele>319.2</ele>
        <time>2024-09-01T08:54:49Z</time>
      </trkpt>
      <trkpt lat="47.05911" lon="5.98398">
        <ele>319</ele>
        <time>2024-09-01T08:54:50Z</time>
      </trkpt>
      <trkpt lat="47.05914" lon="5.98402">
        <ele>318.6</ele>
        <time>2024-09-01T08:54:51Z</time>
      </trkpt>
      <trkpt lat="47.05916" lon="5.98405">
        <ele>318.4</ele>
        <time>2024-09-01T08:54:52Z</time>
      </trkpt>
      <trkpt lat="47.05918" lon="5.98409">
        <ele>317.6</ele>
        <time>2024-09-01T08:54:53Z</time>
      </trkpt>
      <trkpt lat="47.0592" lon="5.98412">
        <ele>317.2</ele>
        <time>2024-09-01T08:54:54Z</time>
      </trkpt>
      <trkpt lat="47.05921" lon="5.98415">
        <ele>317</ele>
        <time>2024-09-01T08:54:55Z</time>
      </trkpt>
      <trkpt lat="47.05923" lon="5.98418">
        <ele>316.8</ele>
        <time>2024-09-01T08:54:56Z</time>
      </trkpt>
      <trkpt lat="47.05924" lon="5.98421">
        <ele>316.6</ele>
        <time>2024-09-01T08:54:57Z</time>
      </trkpt>
      <trkpt lat="47.05925" lon="5.98422">
        <ele>316.4</ele>
        <time>2024-09-01T08:54:58Z</time>
      </trkpt>
      <trkpt lat="47.05925" lon="5.98422">
        <ele>316.2</ele>
        <time>2024-09-01T08:54:59Z</time>
      </trkpt>
      <trkpt lat="47.05925" lon="5.98421">
        <ele>316.2</ele>
        <time>2024-09-01T08:55:00Z</time>
      </trkpt>
      <trkpt lat="47.05926" lon="5.98421">
        <ele>316</ele>
        <time>2024-09-01T08:55:01Z</time>
      </trkpt>
      <trkpt lat="47.05926" lon="5.9842">
        <ele>315.8</ele>
        <time>2024-09-01T08:55:02Z</time>
      </trkpt>
      <trkpt lat="47.05926" lon="5.98419">
        <ele>315.8</ele>
        <time>2024-09-01T08:55:03Z</time>
      </trkpt>
      <trkpt lat="47.05926" lon="5.98419">
        <ele>315.6</ele>
        <time>2024-09-01T08:55:04Z</time>
      </trkpt>
      <trkpt lat="47.05926" lon="5.98419">
        <ele>315.4</ele>
        <time>2024-09-01T08:55:05Z</time>
      </trkpt>
      <trkpt lat="47.05926" lon="5.98419">
        <ele>315.2</ele>
        <time>2024-09-01T08:55:06Z</time>
      </trkpt>
      <trkpt lat="47.05925" lon="5.98419">
        <ele>315.2</ele>
        <time>2024-09-01T08:55:07Z</time>
      </trkpt>
      <trkpt lat="47.05925" lon="5.98419">
        <ele>315</ele>
        <time>2024-09-01T08:55:08Z</time>
      </trkpt>
      <trkpt lat="47.05925" lon="5.98419">
        <ele>314.8</ele>
        <time>2024-09-01T08:55:09Z</time>
      </trkpt>
      <trkpt lat="47.05925" lon="5.98419">
        <ele>314.8</ele>
        <time>2024-09-01T08:55:10Z</time>
      </trkpt>
      <trkpt lat="47.05925" lon="5.98419">
        <ele>314.8</ele>
        <time>2024-09-01T08:55:11Z</time>
      </trkpt>
      <trkpt lat="47.05925" lon="5.98419">
        <ele>314.6</ele>
        <time>2024-09-01T08:55:12Z</time>
      </trkpt>
      <trkpt lat="47.05925" lon="5.98419">
        <ele>314.6</ele>
        <time>2024-09-01T08:55:13Z</time>
      </trkpt>
      <trkpt lat="47.05925" lon="5.98419">
        <ele>314.8</ele>
        <time>2024-09-01T08:55:14Z</time>
      </trkpt>
      <trkpt lat="47.05925" lon="5.98419">
        <ele>314.8</ele>
        <time>2024-09-01T08:55:15Z</time>
      </trkpt>
      <trkpt lat="47.05925" lon="5.98419">
        <ele>314.6</ele>
        <time>2024-09-01T08:55:16Z</time>
      </trkpt>
      <trkpt lat="47.05925" lon="5.98419">
        <ele>314.6</ele>
        <time>2024-09-01T08:55:17Z</time>
      </trkpt>
      <trkpt lat="47.05925" lon="5.98419">
        <ele>314.6</ele>
        <time>2024-09-01T08:55:18Z</time>
      </trkpt>
      <trkpt lat="47.05925" lon="5.98419">
        <ele>314.6</ele>
        <time>2024-09-01T08:55:19Z</time>
      </trkpt>
      <trkpt lat="47.05925" lon="5.98419">
        <ele>314.6</ele>
        <time>2024-09-01T08:55:20Z</time>
      </trkpt>
      <trkpt lat="47.05925" lon="5.98419">
        <ele>314.6</ele>
        <time>2024-09-01T08:55:21Z</time>
      </trkpt>
      <trkpt lat="47.05925" lon="5.98419">
        <ele>314.6</ele>
        <time>2024-09-01T08:55:22Z</time>
      </trkpt>
      <trkpt lat="47.05925" lon="5.98419">
        <ele>314.6</ele>
        <time>2024-09-01T08:55:23Z</time>
      </trkpt>
      <trkpt lat="47.05925" lon="5.98419">
        <ele>314.6</ele>
        <time>2024-09-01T08:55:24Z</time>
      </trkpt>
      <trkpt lat="47.05925" lon="5.98418">
        <ele>314.4</ele>
        <time>2024-09-01T08:55:25Z</time>
      </trkpt>
      <trkpt lat="47.05925" lon="5.98418">
        <ele>314.6</ele>
        <time>2024-09-01T08:55:26Z</time>
      </trkpt>
      <trkpt lat="47.05925" lon="5.98418">
        <ele>314.6</ele>
        <time>2024-09-01T08:55:27Z</time>
      </trkpt>
      <trkpt lat="47.05925" lon="5.98418">
        <ele>314.4</ele>
        <time>2024-09-01T08:55:28Z</time>
      </trkpt>
      <trkpt lat="47.05925" lon="5.98418">
        <ele>314.6</ele>
        <time>2024-09-01T08:55:29Z</time>
      </trkpt>
      <trkpt lat="47.05925" lon="5.98418">
        <ele>314.6</ele>
        <time>2024-09-01T08:55:30Z</time>
      </trkpt>
      <trkpt lat="47.05925" lon="5.98418">
        <ele>314.6</ele>
        <time>2024-09-01T08:55:31Z</time>
      </trkpt>
      <trkpt lat="47.05925" lon="5.98418">
        <ele>314.6</ele>
        <time>2024-09-01T08:55:32Z</time>
      </trkpt>
      <trkpt lat="47.05925" lon="5.98418">
        <ele>314.6</ele>
        <time>2024-09-01T08:55:33Z</time>
      </trkpt>
      <trkpt lat="47.05925" lon="5.98418">
        <ele>314.6</ele>
        <time>2024-09-01T08:55:34Z</time>
      </trkpt>
      <trkpt lat="47.05925" lon="5.98418">
        <ele>314.6</ele>
        <time>2024-09-01T08:55:35Z</time>
      </trkpt>
      <trkpt lat="47.05925" lon="5.98418">
        <ele>314.6</ele>
        <time>2024-09-01T08:55:36Z</time>
      </trkpt>
      <trkpt lat="47.05925" lon="5.98418">
        <ele>314.4</ele>
        <time>2024-09-01T08:55:37Z</time>
      </trkpt>
      <trkpt lat="47.05925" lon="5.98418">
        <ele>314.6</ele>
        <time>2024-09-01T08:55:38Z</time>
      </trkpt>
      <trkpt lat="47.05925" lon="5.98418">
        <ele>314.6</ele>
        <time>2024-09-01T08:55:39Z</time>
      </trkpt>
      <trkpt lat="47.05925" lon="5.98418">
        <ele>314.6</ele>
        <time>2024-09-01T08:55:40Z</time>
      </trkpt>
      <trkpt lat="47.05925" lon="5.98418">
        <ele>314.4</ele>
        <time>2024-09-01T08:55:41Z</time>
      </trkpt>
      <trkpt lat="47.05925" lon="5.98418">
        <ele>314.4</ele>
        <time>2024-09-01T08:55:42Z</time>
      </trkpt>
      <trkpt lat="47.05925" lon="5.98418">
        <ele>314.6</ele>
        <time>2024-09-01T08:55:43Z</time>
      </trkpt>
      <trkpt lat="47.05925" lon="5.98418">
        <ele>314.4</ele>
        <time>2024-09-01T08:55:44Z</time>
      </trkpt>
      <trkpt lat="47.05925" lon="5.98418">
        <ele>314.4</ele>
        <time>2024-09-01T08:55:45Z</time>
      </trkpt>
      <trkpt lat="47.05925" lon="5.98418">
        <ele>314.6</ele>
        <time>2024-09-01T08:55:46Z</time>
      </trkpt>
      <trkpt lat="47.05925" lon="5.98418">
        <ele>314.6</ele>
        <time>2024-09-01T08:55:47Z</time>
      </trkpt>
      <trkpt lat="47.05925" lon="5.98418">
        <ele>314.6</ele>
        <time>2024-09-01T08:55:48Z</time>
      </trkpt>
      <trkpt lat="47.05925" lon="5.98418">
        <ele>314.6</ele>
        <time>2024-09-01T08:55:49Z</time>
      </trkpt>
      <trkpt lat="47.05925" lon="5.98418">
        <ele>314.6</ele>
        <time>2024-09-01T08:55:50Z</time>
      </trkpt>
      <trkpt lat="47.05925" lon="5.98418">
        <ele>314.6</ele>
        <time>2024-09-01T08:55:51Z</time>
      </trkpt>
      <trkpt lat="47.05925" lon="5.98418">
        <ele>314.6</ele>
        <time>2024-09-01T08:55:52Z</time>
      </trkpt>
      <trkpt lat="47.05925" lon="5.98418">
        <ele>314.6</ele>
        <time>2024-09-01T08:55:53Z</time>
      </trkpt>
      <trkpt lat="47.05925" lon="5.98418">
        <ele>314.6</ele>
        <time>2024-09-01T08:55:54Z</time>
      </trkpt>
      <trkpt lat="47.05925" lon="5.98418">
        <ele>314.6</ele>
        <time>2024-09-01T08:55:55Z</time>
      </trkpt>
      <trkpt lat="47.05925" lon="5.98418">
        <ele>314.6</ele>
        <time>2024-09-01T08:55:56Z</time>
      </trkpt>
      <trkpt lat="47.05926" lon="5.98418">
        <ele>314.6</ele>
        <time>2024-09-01T08:55:57Z</time>
      </trkpt>
      <trkpt lat="47.05926" lon="5.98418">
        <ele>314.8</ele>
        <time>2024-09-01T08:55:58Z</time>
      </trkpt>
      <trkpt lat="47.05926" lon="5.98418">
        <ele>314.6</ele>
        <time>2024-09-01T08:55:59Z</time>
      </trkpt>
      <trkpt lat="47.05926" lon="5.98417">
        <ele>314.6</ele>
        <time>2024-09-01T08:56:00Z</time>
      </trkpt>
      <trkpt lat="47.05926" lon="5.98417">
        <ele>314.6</ele>
        <time>2024-09-01T08:56:01Z</time>
      </trkpt>
      <trkpt lat="47.05926" lon="5.98417">
        <ele>314.6</ele>
        <time>2024-09-01T08:56:02Z</time>
      </trkpt>
      <trkpt lat="47.05926" lon="5.98417">
        <ele>314.6</ele>
        <time>2024-09-01T08:56:03Z</time>
      </trkpt>
      <trkpt lat="47.05926" lon="5.98417">
        <ele>314.6</ele>
        <time>2024-09-01T08:56:04Z</time>
      </trkpt>
      <trkpt lat="47.05926" lon="5.98417">
        <ele>314.6</ele>
        <time>2024-09-01T08:56:05Z</time>
      </trkpt>
      <trkpt lat="47.05926" lon="5.98417">
        <ele>314.8</ele>
        <time>2024-09-01T08:56:06Z</time>
      </trkpt>
      <trkpt lat="47.05926" lon="5.98417">
        <ele>314.6</ele>
        <time>2024-09-01T08:56:07Z</time>
      </trkpt>
      <trkpt lat="47.05926" lon="5.98417">
        <ele>314.6</ele>
        <time>2024-09-01T08:56:08Z</time>
      </trkpt>
      <trkpt lat="47.05926" lon="5.98417">
        <ele>314.6</ele>
        <time>2024-09-01T08:56:09Z</time>
      </trkpt>
      <trkpt lat="47.05926" lon="5.98417">
        <ele>314.6</ele>
        <time>2024-09-01T08:56:10Z</time>
      </trkpt>
      <trkpt lat="47.05926" lon="5.98417">
        <ele>314.8</ele>
        <time>2024-09-01T08:56:11Z</time>
      </trkpt>
      <trkpt lat="47.05926" lon="5.98417">
        <ele>314.6</ele>
        <time>2024-09-01T08:56:12Z</time>
      </trkpt>
      <trkpt lat="47.05926" lon="5.98417">
        <ele>314.6</ele>
        <time>2024-09-01T08:56:13Z</time>
      </trkpt>
      <trkpt lat="47.05926" lon="5.98417">
        <ele>314.6</ele>
        <time>2024-09-01T08:56:14Z</time>
      </trkpt>
      <trkpt lat="47.05926" lon="5.98417">
        <ele>314.6</ele>
        <time>2024-09-01T08:56:15Z</time>
      </trkpt>
      <trkpt lat="47.05926" lon="5.98417">
        <ele>314.6</ele>
        <time>2024-09-01T08:56:16Z</time>
      </trkpt>
      <trkpt lat="47.05926" lon="5.98417">
        <ele>314.6</ele>
        <time>2024-09-01T08:56:17Z</time>
      </trkpt>
      <trkpt lat="47.05926" lon="5.98417">
        <ele>314.6</ele>
        <time>2024-09-01T08:56:18Z</time>
      </trkpt>
      <trkpt lat="47.05926" lon="5.98417">
        <ele>314.6</ele>
        <time>2024-09-01T08:56:19Z</time>
      </trkpt>
      <trkpt lat="47.05926" lon="5.98417">
        <ele>314.6</ele>
        <time>2024-09-01T08:56:20Z</time>
      </trkpt>
      <trkpt lat="47.05926" lon="5.98417">
        <ele>314.6</ele>
        <time>2024-09-01T08:56:21Z</time>
      </trkpt>
      <trkpt lat="47.05926" lon="5.98417">
        <ele>314.8</ele>
        <time>2024-09-01T08:56:22Z</time>
      </trkpt>
      <trkpt lat="47.05926" lon="5.98417">
        <ele>314.6</ele>
        <time>2024-09-01T08:56:23Z</time>
      </trkpt>
      <trkpt lat="47.05926" lon="5.98417">
        <ele>314.6</ele>
        <time>2024-09-01T08:56:24Z</time>
      </trkpt>
      <trkpt lat="47.05926" lon="5.98417">
        <ele>314.6</ele>
        <time>2024-09-01T08:56:25Z</time>
      </trkpt>
      <trkpt lat="47.05926" lon="5.98417">
        <ele>314.6</ele>
        <time>2024-09-01T08:56:26Z</time>
      </trkpt>
      <trkpt lat="47.05926" lon="5.98417">
        <ele>314.8</ele>
        <time>2024-09-01T08:56:27Z</time>
      </trkpt>
      <trkpt lat="47.05926" lon="5.98417">
        <ele>314.6</ele>
        <time>2024-09-01T08:56:28Z</time>
      </trkpt>
      <trkpt lat="47.05926" lon="5.98417">
        <ele>314.6</ele>
        <time>2024-09-01T08:56:29Z</time>
      </trkpt>
      <trkpt lat="47.05926" lon="5.98417">
        <ele>314.6</ele>
        <time>2024-09-01T08:56:30Z</time>
      </trkpt>
      <trkpt lat="47.05926" lon="5.98417">
        <ele>314.6</ele>
        <time>2024-09-01T08:56:31Z</time>
      </trkpt>
      <trkpt lat="47.05926" lon="5.98417">
        <ele>314.6</ele>
        <time>2024-09-01T08:56:32Z</time>
      </trkpt>
      <trkpt lat="47.05926" lon="5.98417">
        <ele>314.6</ele>
        <time>2024-09-01T08:56:33Z</time>
      </trkpt>
      <trkpt lat="47.05926" lon="5.98417">
        <ele>314.6</ele>
        <time>2024-09-01T08:56:34Z</time>
      </trkpt>
      <trkpt lat="47.05926" lon="5.98417">
        <ele>314.6</ele>
        <time>2024-09-01T08:56:35Z</time>
      </trkpt>
      <trkpt lat="47.05926" lon="5.98417">
        <ele>314.6</ele>
        <time>2024-09-01T08:56:36Z</time>
      </trkpt>
      <trkpt lat="47.05926" lon="5.98417">
        <ele>314.4</ele>
        <time>2024-09-01T08:56:37Z</time>
      </trkpt>
      <trkpt lat="47.05926" lon="5.98417">
        <ele>314.6</ele>
        <time>2024-09-01T08:56:38Z</time>
      </trkpt>
      <trkpt lat="47.05926" lon="5.98417">
        <ele>314.6</ele>
        <time>2024-09-01T08:56:39Z</time>
      </trkpt>
      <trkpt lat="47.05926" lon="5.98417">
        <ele>314.6</ele>
        <time>2024-09-01T08:56:40Z</time>
      </trkpt>
      <trkpt lat="47.05926" lon="5.98417">
        <ele>314.6</ele>
        <time>2024-09-01T08:56:41Z</time>
      </trkpt>
      <trkpt lat="47.05926" lon="5.98417">
        <ele>314.4</ele>
        <time>2024-09-01T08:56:42Z</time>
      </trkpt>
      <trkpt lat="47.05926" lon="5.98417">
        <ele>314.4</ele>
        <time>2024-09-01T08:56:43Z</time>
      </trkpt>
      <trkpt lat="47.05926" lon="5.98417">
        <ele>314.6</ele>
        <time>2024-09-01T08:56:44Z</time>
      </trkpt>
      <trkpt lat="47.05926" lon="5.98417">
        <ele>314.6</ele>
        <time>2024-09-01T08:56:45Z</time>
      </trkpt>
      <trkpt lat="47.05926" lon="5.98417">
        <ele>314.6</ele>
        <time>2024-09-01T08:56:46Z</time>
      </trkpt>
      <trkpt lat="47.05926" lon="5.98416">
        <ele>314.6</ele>
        <time>2024-09-01T08:56:47Z</time>
      </trkpt>
      <trkpt lat="47.05926" lon="5.98416">
        <ele>314.6</ele>
        <time>2024-09-01T08:56:48Z</time>
      </trkpt>
      <trkpt lat="47.05926" lon="5.98416">
        <ele>314.6</ele>
        <time>2024-09-01T08:56:49Z</time>
      </trkpt>
      <trkpt lat="47.05926" lon="5.98416">
        <ele>314.4</ele>
        <time>2024-09-01T08:56:50Z</time>
      </trkpt>
      <trkpt lat="47.05926" lon="5.98416">
        <ele>314.6</ele>
        <time>2024-09-01T08:56:51Z</time>
      </trkpt>
      <trkpt lat="47.05926" lon="5.98416">
        <ele>314.4</ele>
        <time>2024-09-01T08:56:52Z</time>
      </trkpt>
      <trkpt lat="47.05926" lon="5.98416">
        <ele>314.4</ele>
        <time>2024-09-01T08:56:53Z</time>
      </trkpt>
      <trkpt lat="47.05926" lon="5.98416">
        <ele>314.4</ele>
        <time>2024-09-01T08:56:54Z</time>
      </trkpt>
      <trkpt lat="47.05926" lon="5.98416">
        <ele>314.4</ele>
        <time>2024-09-01T08:56:55Z</time>
      </trkpt>
      <trkpt lat="47.05926" lon="5.98416">
        <ele>314.4</ele>
        <time>2024-09-01T08:56:56Z</time>
      </trkpt>
      <trkpt lat="47.05926" lon="5.98417">
        <ele>314.4</ele>
        <time>2024-09-01T08:56:57Z</time>
      </trkpt>
      <trkpt lat="47.05926" lon="5.98417">
        <ele>314.4</ele>
        <time>2024-09-01T08:56:58Z</time>
      </trkpt>
      <trkpt lat="47.05926" lon="5.98417">
        <ele>314.4</ele>
        <time>2024-09-01T08:56:59Z</time>
      </trkpt>
      <trkpt lat="47.05926" lon="5.98417">
        <ele>314.4</ele>
        <time>2024-09-01T08:57:00Z</time>
      </trkpt>
      <trkpt lat="47.05926" lon="5.98417">
        <ele>314.2</ele>
        <time>2024-09-01T08:57:01Z</time>
      </trkpt>
      <trkpt lat="47.05926" lon="5.98417">
        <ele>314.4</ele>
        <time>2024-09-01T08:57:02Z</time>
      </trkpt>
      <trkpt lat="47.05926" lon="5.98417">
        <ele>314.4</ele>
        <time>2024-09-01T08:57:03Z</time>
      </trkpt>
      <trkpt lat="47.05926" lon="5.98416">
        <ele>314.4</ele>
        <time>2024-09-01T08:57:04Z</time>
      </trkpt>
      <trkpt lat="47.05926" lon="5.98416">
        <ele>314.4</ele>
        <time>2024-09-01T08:57:05Z</time>
      </trkpt>
      <trkpt lat="47.05926" lon="5.98416">
        <ele>314.4</ele>
        <time>2024-09-01T08:57:06Z</time>
      </trkpt>
      <trkpt lat="47.05926" lon="5.98416">
        <ele>314.2</ele>
        <time>2024-09-01T08:57:07Z</time>
      </trkpt>
      <trkpt lat="47.05926" lon="5.98416">
        <ele>314.4</ele>
        <time>2024-09-01T08:57:08Z</time>
      </trkpt>
      <trkpt lat="47.05926" lon="5.98416">
        <ele>314.4</ele>
        <time>2024-09-01T08:57:09Z</time>
      </trkpt>
      <trkpt lat="47.05926" lon="5.98416">
        <ele>314.2</ele>
        <time>2024-09-01T08:57:10Z</time>
      </trkpt>
      <trkpt lat="47.05926" lon="5.98416">
        <ele>314.4</ele>
        <time>2024-09-01T08:57:11Z</time>
      </trkpt>
      <trkpt lat="47.05926" lon="5.98416">
        <ele>314.2</ele>
        <time>2024-09-01T08:57:12Z</time>
      </trkpt>
      <trkpt lat="47.05926" lon="5.98416">
        <ele>314.4</ele>
        <time>2024-09-01T08:57:13Z</time>
      </trkpt>
      <trkpt lat="47.05926" lon="5.98416">
        <ele>314.4</ele>
        <time>2024-09-01T08:57:14Z</time>
      </trkpt>
      <trkpt lat="47.05926" lon="5.98416">
        <ele>314.4</ele>
        <time>2024-09-01T08:57:15Z</time>
      </trkpt>
      <trkpt lat="47.05926" lon="5.98416">
        <ele>314.4</ele>
        <time>2024-09-01T08:57:16Z</time>
      </trkpt>
      <trkpt lat="47.05926" lon="5.98416">
        <ele>314.4</ele>
        <time>2024-09-01T08:57:17Z</time>
      </trkpt>
      <trkpt lat="47.05926" lon="5.98416">
        <ele>314.4</ele>
        <time>2024-09-01T08:57:18Z</time>
      </trkpt>
      <trkpt lat="47.05926" lon="5.98416">
        <ele>314.4</ele>
        <time>2024-09-01T08:57:19Z</time>
      </trkpt>
      <trkpt lat="47.05926" lon="5.98417">
        <ele>314.2</ele>
        <time>2024-09-01T08:57:20Z</time>
      </trkpt>
      <trkpt lat="47.05926" lon="5.98417">
        <ele>314.4</ele>
        <time>2024-09-01T08:57:21Z</time>
      </trkpt>
      <trkpt lat="47.05927" lon="5.98418">
        <ele>314.4</ele>
        <time>2024-09-01T08:57:22Z</time>
      </trkpt>
      <trkpt lat="47.05927" lon="5.98419">
        <ele>314.4</ele>
        <time>2024-09-01T08:57:23Z</time>
      </trkpt>
      <trkpt lat="47.05928" lon="5.98422">
        <ele>314.6</ele>
        <time>2024-09-01T08:57:24Z</time>
      </trkpt>
      <trkpt lat="47.05928" lon="5.98425">
        <ele>314.6</ele>
        <time>2024-09-01T08:57:25Z</time>
      </trkpt>
      <trkpt lat="47.05929" lon="5.98428">
        <ele>314.6</ele>
        <time>2024-09-01T08:57:26Z</time>
      </trkpt>
      <trkpt lat="47.0593" lon="5.98431">
        <ele>314.4</ele>
        <time>2024-09-01T08:57:27Z</time>
      </trkpt>
      <trkpt lat="47.05932" lon="5.98435">
        <ele>314.6</ele>
        <time>2024-09-01T08:57:28Z</time>
      </trkpt>
      <trkpt lat="47.05933" lon="5.98439">
        <ele>314.6</ele>
        <time>2024-09-01T08:57:29Z</time>
      </trkpt>
      <trkpt lat="47.05935" lon="5.98444">
        <ele>314.6</ele>
        <time>2024-09-01T08:57:30Z</time>
      </trkpt>
      <trkpt lat="47.05936" lon="5.98449">
        <ele>314.6</ele>
        <time>2024-09-01T08:57:31Z</time>
      </trkpt>
      <trkpt lat="47.05937" lon="5.98454">
        <ele>314.6</ele>
        <time>2024-09-01T08:57:32Z</time>
      </trkpt>
      <trkpt lat="47.05939" lon="5.98459">
        <ele>314.6</ele>
        <time>2024-09-01T08:57:33Z</time>
      </trkpt>
      <trkpt lat="47.0594" lon="5.98464">
        <ele>314.6</ele>
        <time>2024-09-01T08:57:34Z</time>
      </trkpt>
      <trkpt lat="47.05941" lon="5.9847">
        <ele>314.6</ele>
        <time>2024-09-01T08:57:35Z</time>
      </trkpt>
      <trkpt lat="47.05943" lon="5.98476">
        <ele>314.6</ele>
        <time>2024-09-01T08:57:36Z</time>
      </trkpt>
      <trkpt lat="47.05945" lon="5.98483">
        <ele>314.4</ele>
        <time>2024-09-01T08:57:37Z</time>
      </trkpt>
      <trkpt lat="47.05946" lon="5.98489">
        <ele>314.2</ele>
        <time>2024-09-01T08:57:38Z</time>
      </trkpt>
      <trkpt lat="47.05948" lon="5.98497">
        <ele>314.2</ele>
        <time>2024-09-01T08:57:39Z</time>
      </trkpt>
      <trkpt lat="47.05949" lon="5.98504">
        <ele>313.6</ele>
        <time>2024-09-01T08:57:40Z</time>
      </trkpt>
      <trkpt lat="47.05949" lon="5.9851">
        <ele>313.6</ele>
        <time>2024-09-01T08:57:41Z</time>
      </trkpt>
      <trkpt lat="47.0595" lon="5.98517">
        <ele>313.2</ele>
        <time>2024-09-01T08:57:42Z</time>
      </trkpt>
      <trkpt lat="47.0595" lon="5.98523">
        <ele>313</ele>
        <time>2024-09-01T08:57:43Z</time>
      </trkpt>
      <trkpt lat="47.0595" lon="5.98529">
        <ele>312.8</ele>
        <time>2024-09-01T08:57:44Z</time>
      </trkpt>
      <trkpt lat="47.05949" lon="5.98535">
        <ele>312.6</ele>
        <time>2024-09-01T08:57:45Z</time>
      </trkpt>
      <trkpt lat="47.05949" lon="5.98541">
        <ele>312.6</ele>
        <time>2024-09-01T08:57:46Z</time>
      </trkpt>
      <trkpt lat="47.05949" lon="5.98546">
        <ele>312.8</ele>
        <time>2024-09-01T08:57:47Z</time>
      </trkpt>
      <trkpt lat="47.05949" lon="5.98552">
        <ele>312.8</ele>
        <time>2024-09-01T08:57:48Z</time>
      </trkpt>
      <trkpt lat="47.05948" lon="5.98557">
        <ele>312.6</ele>
        <time>2024-09-01T08:57:49Z</time>
      </trkpt>
      <trkpt lat="47.05948" lon="5.98562">
        <ele>312.6</ele>
        <time>2024-09-01T08:57:50Z</time>
      </trkpt>
      <trkpt lat="47.05948" lon="5.98568">
        <ele>312.6</ele>
        <time>2024-09-01T08:57:51Z</time>
      </trkpt>
      <trkpt lat="47.05948" lon="5.98573">
        <ele>312.6</ele>
        <time>2024-09-01T08:57:52Z</time>
      </trkpt>
      <trkpt lat="47.05949" lon="5.98578">
        <ele>312.6</ele>
        <time>2024-09-01T08:57:53Z</time>
      </trkpt>
      <trkpt lat="47.05949" lon="5.98583">
        <ele>312.8</ele>
        <time>2024-09-01T08:57:54Z</time>
      </trkpt>
      <trkpt lat="47.0595" lon="5.98588">
        <ele>312.8</ele>
        <time>2024-09-01T08:57:55Z</time>
      </trkpt>
      <trkpt lat="47.05951" lon="5.98593">
        <ele>313</ele>
        <time>2024-09-01T08:57:56Z</time>
      </trkpt>
      <trkpt lat="47.05952" lon="5.98598">
        <ele>313.2</ele>
        <time>2024-09-01T08:57:57Z</time>
      </trkpt>
      <trkpt lat="47.05953" lon="5.98603">
        <ele>313.4</ele>
        <time>2024-09-01T08:57:58Z</time>
      </trkpt>
      <trkpt lat="47.05954" lon="5.98607">
        <ele>313.6</ele>
        <time>2024-09-01T08:57:59Z</time>
      </trkpt>
      <trkpt lat="47.05955" lon="5.98612">
        <ele>314</ele>
        <time>2024-09-01T08:58:00Z</time>
      </trkpt>
      <trkpt lat="47.05956" lon="5.98617">
        <ele>314</ele>
        <time>2024-09-01T08:58:01Z</time>
      </trkpt>
      <trkpt lat="47.05957" lon="5.98621">
        <ele>314.2</ele>
        <time>2024-09-01T08:58:02Z</time>
      </trkpt>
      <trkpt lat="47.05958" lon="5.98626">
        <ele>314.2</ele>
        <time>2024-09-01T08:58:03Z</time>
      </trkpt>
      <trkpt lat="47.05958" lon="5.9863">
        <ele>314.4</ele>
        <time>2024-09-01T08:58:04Z</time>
      </trkpt>
      <trkpt lat="47.05959" lon="5.98635">
        <ele>314.8</ele>
        <time>2024-09-01T08:58:05Z</time>
      </trkpt>
      <trkpt lat="47.05959" lon="5.98639">
        <ele>314.8</ele>
        <time>2024-09-01T08:58:06Z</time>
      </trkpt>
      <trkpt lat="47.05959" lon="5.98644">
        <ele>315.2</ele>
        <time>2024-09-01T08:58:07Z</time>
      </trkpt>
      <trkpt lat="47.05959" lon="5.98648">
        <ele>315.4</ele>
        <time>2024-09-01T08:58:08Z</time>
      </trkpt>
      <trkpt lat="47.05958" lon="5.98653">
        <ele>315.4</ele>
        <time>2024-09-01T08:58:09Z</time>
      </trkpt>
      <trkpt lat="47.05958" lon="5.98657">
        <ele>315.6</ele>
        <time>2024-09-01T08:58:10Z</time>
      </trkpt>
      <trkpt lat="47.05957" lon="5.98661">
        <ele>315.8</ele>
        <time>2024-09-01T08:58:11Z</time>
      </trkpt>
      <trkpt lat="47.05957" lon="5.98665">
        <ele>316.2</ele>
        <time>2024-09-01T08:58:12Z</time>
      </trkpt>
      <trkpt lat="47.05957" lon="5.9867">
        <ele>316.2</ele>
        <time>2024-09-01T08:58:13Z</time>
      </trkpt>
      <trkpt lat="47.05957" lon="5.98674">
        <ele>316.2</ele>
        <time>2024-09-01T08:58:14Z</time>
      </trkpt>
      <trkpt lat="47.05957" lon="5.9868">
        <ele>316.2</ele>
        <time>2024-09-01T08:58:15Z</time>
      </trkpt>
      <trkpt lat="47.05958" lon="5.98686">
        <ele>316.2</ele>
        <time>2024-09-01T08:58:16Z</time>
      </trkpt>
      <trkpt lat="47.05959" lon="5.98693">
        <ele>316.2</ele>
        <time>2024-09-01T08:58:17Z</time>
      </trkpt>
      <trkpt lat="47.0596" lon="5.987">
        <ele>316.4</ele>
        <time>2024-09-01T08:58:18Z</time>
      </trkpt>
      <trkpt lat="47.0596" lon="5.98708">
        <ele>316.2</ele>
        <time>2024-09-01T08:58:19Z</time>
      </trkpt>
      <trkpt lat="47.05961" lon="5.98716">
        <ele>316.2</ele>
        <time>2024-09-01T08:58:20Z</time>
      </trkpt>
      <trkpt lat="47.05962" lon="5.98725">
        <ele>316.4</ele>
        <time>2024-09-01T08:58:21Z</time>
      </trkpt>
      <trkpt lat="47.05962" lon="5.98733">
        <ele>316.2</ele>
        <time>2024-09-01T08:58:22Z</time>
      </trkpt>
      <trkpt lat="47.05964" lon="5.98743">
        <ele>316.2</ele>
        <time>2024-09-01T08:58:23Z</time>
      </trkpt>
      <trkpt lat="47.05965" lon="5.98752">
        <ele>316</ele>
        <time>2024-09-01T08:58:24Z</time>
      </trkpt>
      <trkpt lat="47.05966" lon="5.98762">
        <ele>315.4</ele>
        <time>2024-09-01T08:58:25Z</time>
      </trkpt>
      <trkpt lat="47.05967" lon="5.98772">
        <ele>315.4</ele>
        <time>2024-09-01T08:58:26Z</time>
      </trkpt>
      <trkpt lat="47.05967" lon="5.98782">
        <ele>315</ele>
        <time>2024-09-01T08:58:27Z</time>
      </trkpt>
      <trkpt lat="47.05967" lon="5.98791">
        <ele>315</ele>
        <time>2024-09-01T08:58:28Z</time>
      </trkpt>
      <trkpt lat="47.05966" lon="5.988">
        <ele>314.8</ele>
        <time>2024-09-01T08:58:29Z</time>
      </trkpt>
      <trkpt lat="47.05966" lon="5.98809">
        <ele>314.2</ele>
        <time>2024-09-01T08:58:30Z</time>
      </trkpt>
      <trkpt lat="47.05965" lon="5.98817">
        <ele>313.8</ele>
        <time>2024-09-01T08:58:31Z</time>
      </trkpt>
      <trkpt lat="47.05965" lon="5.98826">
        <ele>313.6</ele>
        <time>2024-09-01T08:58:32Z</time>
      </trkpt>
      <trkpt lat="47.05965" lon="5.98834">
        <ele>313</ele>
        <time>2024-09-01T08:58:33Z</time>
      </trkpt>
      <trkpt lat="47.05965" lon="5.98841">
        <ele>312.2</ele>
        <time>2024-09-01T08:58:34Z</time>
      </trkpt>
      <trkpt lat="47.05964" lon="5.98849">
        <ele>312</ele>
        <time>2024-09-01T08:58:35Z</time>
      </trkpt>
      <trkpt lat="47.05964" lon="5.98856">
        <ele>311.8</ele>
        <time>2024-09-01T08:58:36Z</time>
      </trkpt>
      <trkpt lat="47.05966" lon="5.98863">
        <ele>311.6</ele>
        <time>2024-09-01T08:58:37Z</time>
      </trkpt>
      <trkpt lat="47.05968" lon="5.9887">
        <ele>311.4</ele>
        <time>2024-09-01T08:58:38Z</time>
      </trkpt>
      <trkpt lat="47.05971" lon="5.98876">
        <ele>311.4</ele>
        <time>2024-09-01T08:58:39Z</time>
      </trkpt>
      <trkpt lat="47.05974" lon="5.98881">
        <ele>311.4</ele>
        <time>2024-09-01T08:58:40Z</time>
      </trkpt>
      <trkpt lat="47.05977" lon="5.98887">
        <ele>311.2</ele>
        <time>2024-09-01T08:58:41Z</time>
      </trkpt>
      <trkpt lat="47.0598" lon="5.98894">
        <ele>311</ele>
        <time>2024-09-01T08:58:42Z</time>
      </trkpt>
      <trkpt lat="47.05983" lon="5.98901">
        <ele>310.8</ele>
        <time>2024-09-01T08:58:43Z</time>
      </trkpt>
      <trkpt lat="47.05986" lon="5.98909">
        <ele>310.6</ele>
        <time>2024-09-01T08:58:44Z</time>
      </trkpt>
      <trkpt lat="47.05988" lon="5.98916">
        <ele>310.4</ele>
        <time>2024-09-01T08:58:45Z</time>
      </trkpt>
      <trkpt lat="47.0599" lon="5.98922">
        <ele>310.2</ele>
        <time>2024-09-01T08:58:46Z</time>
      </trkpt>
      <trkpt lat="47.05992" lon="5.9893">
        <ele>310.2</ele>
        <time>2024-09-01T08:58:47Z</time>
      </trkpt>
      <trkpt lat="47.05993" lon="5.98936">
        <ele>310.2</ele>
        <time>2024-09-01T08:58:48Z</time>
      </trkpt>
      <trkpt lat="47.05994" lon="5.98943">
        <ele>310</ele>
        <time>2024-09-01T08:58:49Z</time>
      </trkpt>
      <trkpt lat="47.05994" lon="5.98949">
        <ele>310</ele>
        <time>2024-09-01T08:58:50Z</time>
      </trkpt>
      <trkpt lat="47.05994" lon="5.98955">
        <ele>309.6</ele>
        <time>2024-09-01T08:58:51Z</time>
      </trkpt>
      <trkpt lat="47.05994" lon="5.9896">
        <ele>309.4</ele>
        <time>2024-09-01T08:58:52Z</time>
      </trkpt>
      <trkpt lat="47.05993" lon="5.98966">
        <ele>309.4</ele>
        <time>2024-09-01T08:58:53Z</time>
      </trkpt>
      <trkpt lat="47.05993" lon="5.98972">
        <ele>309.2</ele>
        <time>2024-09-01T08:58:54Z</time>
      </trkpt>
      <trkpt lat="47.05993" lon="5.98978">
        <ele>309.2</ele>
        <time>2024-09-01T08:58:55Z</time>
      </trkpt>
      <trkpt lat="47.05992" lon="5.98984">
        <ele>309.2</ele>
        <time>2024-09-01T08:58:56Z</time>
      </trkpt>
      <trkpt lat="47.05992" lon="5.9899">
        <ele>309.4</ele>
        <time>2024-09-01T08:58:57Z</time>
      </trkpt>
      <trkpt lat="47.05993" lon="5.98997">
        <ele>309.2</ele>
        <time>2024-09-01T08:58:58Z</time>
      </trkpt>
      <trkpt lat="47.05995" lon="5.99004">
        <ele>309.4</ele>
        <time>2024-09-01T08:58:59Z</time>
      </trkpt>
      <trkpt lat="47.05998" lon="5.99012">
        <ele>309</ele>
        <time>2024-09-01T08:59:00Z</time>
      </trkpt>
      <trkpt lat="47.06" lon="5.99019">
        <ele>309.2</ele>
        <time>2024-09-01T08:59:01Z</time>
      </trkpt>
      <trkpt lat="47.06002" lon="5.99025">
        <ele>309.2</ele>
        <time>2024-09-01T08:59:02Z</time>
      </trkpt>
      <trkpt lat="47.06002" lon="5.9903">
        <ele>309.2</ele>
        <time>2024-09-01T08:59:03Z</time>
      </trkpt>
      <trkpt lat="47.06003" lon="5.99034">
        <ele>309.2</ele>
        <time>2024-09-01T08:59:04Z</time>
      </trkpt>
      <trkpt lat="47.06004" lon="5.99038">
        <ele>309.2</ele>
        <time>2024-09-01T08:59:05Z</time>
      </trkpt>
      <trkpt lat="47.06004" lon="5.99042">
        <ele>309.2</ele>
        <time>2024-09-01T08:59:06Z</time>
      </trkpt>
      <trkpt lat="47.06006" lon="5.99046">
        <ele>309.2</ele>
        <time>2024-09-01T08:59:07Z</time>
      </trkpt>
      <trkpt lat="47.06007" lon="5.9905">
        <ele>309.2</ele>
        <time>2024-09-01T08:59:08Z</time>
      </trkpt>
      <trkpt lat="47.06009" lon="5.99055">
        <ele>309.2</ele>
        <time>2024-09-01T08:59:09Z</time>
      </trkpt>
      <trkpt lat="47.06011" lon="5.99059">
        <ele>309.4</ele>
        <time>2024-09-01T08:59:10Z</time>
      </trkpt>
      <trkpt lat="47.06014" lon="5.99064">
        <ele>309.2</ele>
        <time>2024-09-01T08:59:11Z</time>
      </trkpt>
      <trkpt lat="47.06016" lon="5.99068">
        <ele>309.2</ele>
        <time>2024-09-01T08:59:12Z</time>
      </trkpt>
      <trkpt lat="47.06019" lon="5.99071">
        <ele>309.4</ele>
        <time>2024-09-01T08:59:13Z</time>
      </trkpt>
      <trkpt lat="47.06022" lon="5.99074">
        <ele>309.6</ele>
        <time>2024-09-01T08:59:14Z</time>
      </trkpt>
      <trkpt lat="47.06025" lon="5.99076">
        <ele>309.8</ele>
        <time>2024-09-01T08:59:15Z</time>
      </trkpt>
      <trkpt lat="47.06027" lon="5.99078">
        <ele>310</ele>
        <time>2024-09-01T08:59:16Z</time>
      </trkpt>
      <trkpt lat="47.06029" lon="5.99079">
        <ele>310.2</ele>
        <time>2024-09-01T08:59:17Z</time>
      </trkpt>
      <trkpt lat="47.06033" lon="5.99081">
        <ele>310.2</ele>
        <time>2024-09-01T08:59:18Z</time>
      </trkpt>
      <trkpt lat="47.06037" lon="5.99084">
        <ele>310.2</ele>
        <time>2024-09-01T08:59:19Z</time>
      </trkpt>
      <trkpt lat="47.0604" lon="5.99086">
        <ele>310.4</ele>
        <time>2024-09-01T08:59:20Z</time>
      </trkpt>
      <trkpt lat="47.06042" lon="5.99088">
        <ele>310.4</ele>
        <time>2024-09-01T08:59:21Z</time>
      </trkpt>
      <trkpt lat="47.06049" lon="5.99093">
        <ele>310.4</ele>
        <time>2024-09-01T08:59:22Z</time>
      </trkpt>
      <trkpt lat="47.06057" lon="5.991">
        <ele>310.4</ele>
        <time>2024-09-01T08:59:23Z</time>
      </trkpt>
      <trkpt lat="47.06061" lon="5.99105">
        <ele>310.6</ele>
        <time>2024-09-01T08:59:24Z</time>
      </trkpt>
      <trkpt lat="47.06064" lon="5.99108">
        <ele>310.6</ele>
        <time>2024-09-01T08:59:25Z</time>
      </trkpt>
      <trkpt lat="47.06067" lon="5.99111">
        <ele>310.8</ele>
        <time>2024-09-01T08:59:26Z</time>
      </trkpt>
      <trkpt lat="47.06072" lon="5.99115">
        <ele>310.6</ele>
        <time>2024-09-01T08:59:27Z</time>
      </trkpt>
      <trkpt lat="47.06075" lon="5.99119">
        <ele>310.8</ele>
        <time>2024-09-01T08:59:28Z</time>
      </trkpt>
      <trkpt lat="47.0608" lon="5.99122">
        <ele>310.8</ele>
        <time>2024-09-01T08:59:29Z</time>
      </trkpt>
      <trkpt lat="47.0609" lon="5.99128">
        <ele>311.2</ele>
        <time>2024-09-01T08:59:30Z</time>
      </trkpt>
      <trkpt lat="47.06094" lon="5.99131">
        <ele>311.6</ele>
        <time>2024-09-01T08:59:31Z</time>
      </trkpt>
      <trkpt lat="47.06097" lon="5.99135">
        <ele>311.8</ele>
        <time>2024-09-01T08:59:32Z</time>
      </trkpt>
      <trkpt lat="47.06101" lon="5.99139">
        <ele>312.4</ele>
        <time>2024-09-01T08:59:33Z</time>
      </trkpt>
      <trkpt lat="47.06104" lon="5.99143">
        <ele>312.8</ele>
        <time>2024-09-01T08:59:34Z</time>
      </trkpt>
      <trkpt lat="47.06107" lon="5.99148">
        <ele>313.4</ele>
        <time>2024-09-01T08:59:35Z</time>
      </trkpt>
      <trkpt lat="47.0611" lon="5.99153">
        <ele>314</ele>
        <time>2024-09-01T08:59:36Z</time>
      </trkpt>
      <trkpt lat="47.06113" lon="5.99158">
        <ele>314.4</ele>
        <time>2024-09-01T08:59:37Z</time>
      </trkpt>
      <trkpt lat="47.06115" lon="5.99162">
        <ele>314.8</ele>
        <time>2024-09-01T08:59:38Z</time>
      </trkpt>
      <trkpt lat="47.06116" lon="5.99167">
        <ele>314.8</ele>
        <time>2024-09-01T08:59:39Z</time>
      </trkpt>
      <trkpt lat="47.06118" lon="5.99172">
        <ele>315</ele>
        <time>2024-09-01T08:59:40Z</time>
      </trkpt>
      <trkpt lat="47.06119" lon="5.99178">
        <ele>315.2</ele>
        <time>2024-09-01T08:59:41Z</time>
      </trkpt>
      <trkpt lat="47.0612" lon="5.99183">
        <ele>315.2</ele>
        <time>2024-09-01T08:59:42Z</time>
      </trkpt>
      <trkpt lat="47.06121" lon="5.9919">
        <ele>315.2</ele>
        <time>2024-09-01T08:59:43Z</time>
      </trkpt>
      <trkpt lat="47.06121" lon="5.99196">
        <ele>315.2</ele>
        <time>2024-09-01T08:59:44Z</time>
      </trkpt>
      <trkpt lat="47.06122" lon="5.99202">
        <ele>315.4</ele>
        <time>2024-09-01T08:59:45Z</time>
      </trkpt>
      <trkpt lat="47.06124" lon="5.99208">
        <ele>315.4</ele>
        <time>2024-09-01T08:59:46Z</time>
      </trkpt>
      <trkpt lat="47.06125" lon="5.99213">
        <ele>315.4</ele>
        <time>2024-09-01T08:59:47Z</time>
      </trkpt>
      <trkpt lat="47.06128" lon="5.99219">
        <ele>315.4</ele>
        <time>2024-09-01T08:59:48Z</time>
      </trkpt>
      <trkpt lat="47.06131" lon="5.99222">
        <ele>315.4</ele>
        <time>2024-09-01T08:59:49Z</time>
      </trkpt>
      <trkpt lat="47.06133" lon="5.99226">
        <ele>315.4</ele>
        <time>2024-09-01T08:59:50Z</time>
      </trkpt>
      <trkpt lat="47.06134" lon="5.99228">
        <ele>315.4</ele>
        <time>2024-09-01T08:59:51Z</time>
      </trkpt>
      <trkpt lat="47.06137" lon="5.9923">
        <ele>315.4</ele>
        <time>2024-09-01T08:59:52Z</time>
      </trkpt>
      <trkpt lat="47.06141" lon="5.99233">
        <ele>315.4</ele>
        <time>2024-09-01T08:59:53Z</time>
      </trkpt>
      <trkpt lat="47.06143" lon="5.99236">
        <ele>315.4</ele>
        <time>2024-09-01T08:59:54Z</time>
      </trkpt>
      <trkpt lat="47.06146" lon="5.99238">
        <ele>315.6</ele>
        <time>2024-09-01T08:59:55Z</time>
      </trkpt>
      <trkpt lat="47.06149" lon="5.9924">
        <ele>315.4</ele>
        <time>2024-09-01T08:59:56Z</time>
      </trkpt>
      <trkpt lat="47.06152" lon="5.99241">
        <ele>315.4</ele>
        <time>2024-09-01T08:59:57Z</time>
      </trkpt>
      <trkpt lat="47.06157" lon="5.99244">
        <ele>315.2</ele>
        <time>2024-09-01T08:59:58Z</time>
      </trkpt>
      <trkpt lat="47.06162" lon="5.99246">
        <ele>315.4</ele>
        <time>2024-09-01T08:59:59Z</time>
      </trkpt>
      <trkpt lat="47.06167" lon="5.99247">
        <ele>315.2</ele>
        <time>2024-09-01T09:00:00Z</time>
      </trkpt>
      <trkpt lat="47.06172" lon="5.99249">
        <ele>315</ele>
        <time>2024-09-01T09:00:01Z</time>
      </trkpt>
      <trkpt lat="47.06175" lon="5.9925">
        <ele>315</ele>
        <time>2024-09-01T09:00:02Z</time>
      </trkpt>
      <trkpt lat="47.06179" lon="5.9925">
        <ele>314.8</ele>
        <time>2024-09-01T09:00:03Z</time>
      </trkpt>
      <trkpt lat="47.06184" lon="5.99252">
        <ele>314.8</ele>
        <time>2024-09-01T09:00:04Z</time>
      </trkpt>
      <trkpt lat="47.06189" lon="5.99254">
        <ele>314.6</ele>
        <time>2024-09-01T09:00:05Z</time>
      </trkpt>
      <trkpt lat="47.06194" lon="5.99256">
        <ele>314.6</ele>
        <time>2024-09-01T09:00:06Z</time>
      </trkpt>
      <trkpt lat="47.062" lon="5.99258">
        <ele>314.6</ele>
        <time>2024-09-01T09:00:07Z</time>
      </trkpt>
      <trkpt lat="47.06204" lon="5.99259">
        <ele>314.6</ele>
        <time>2024-09-01T09:00:08Z</time>
      </trkpt>
      <trkpt lat="47.06208" lon="5.9926">
        <ele>314.2</ele>
        <time>2024-09-01T09:00:09Z</time>
      </trkpt>
      <trkpt lat="47.06212" lon="5.99262">
        <ele>314.2</ele>
        <time>2024-09-01T09:00:10Z</time>
      </trkpt>
      <trkpt lat="47.06215" lon="5.99264">
        <ele>314</ele>
        <time>2024-09-01T09:00:11Z</time>
      </trkpt>
      <trkpt lat="47.06221" lon="5.99268">
        <ele>314</ele>
        <time>2024-09-01T09:00:12Z</time>
      </trkpt>
      <trkpt lat="47.06227" lon="5.99271">
        <ele>313.8</ele>
        <time>2024-09-01T09:00:13Z</time>
      </trkpt>
      <trkpt lat="47.06233" lon="5.99273">
        <ele>313.8</ele>
        <time>2024-09-01T09:00:14Z</time>
      </trkpt>
      <trkpt lat="47.06239" lon="5.99277">
        <ele>313.6</ele>
        <time>2024-09-01T09:00:15Z</time>
      </trkpt>
      <trkpt lat="47.06246" lon="5.9928">
        <ele>313.6</ele>
        <time>2024-09-01T09:00:16Z</time>
      </trkpt>
      <trkpt lat="47.06252" lon="5.99284">
        <ele>313.6</ele>
        <time>2024-09-01T09:00:17Z</time>
      </trkpt>
      <trkpt lat="47.06259" lon="5.99289">
        <ele>313.4</ele>
        <time>2024-09-01T09:00:18Z</time>
      </trkpt>
      <trkpt lat="47.06265" lon="5.99294">
        <ele>313.2</ele>
        <time>2024-09-01T09:00:19Z</time>
      </trkpt>
      <trkpt lat="47.06272" lon="5.99299">
        <ele>313</ele>
        <time>2024-09-01T09:00:20Z</time>
      </trkpt>
      <trkpt lat="47.06279" lon="5.99304">
        <ele>312.8</ele>
        <time>2024-09-01T09:00:21Z</time>
      </trkpt>
      <trkpt lat="47.06285" lon="5.99308">
        <ele>312.2</ele>
        <time>2024-09-01T09:00:22Z</time>
      </trkpt>
      <trkpt lat="47.06292" lon="5.99312">
        <ele>311.6</ele>
        <time>2024-09-01T09:00:23Z</time>
      </trkpt>
      <trkpt lat="47.06298" lon="5.99315">
        <ele>311</ele>
        <time>2024-09-01T09:00:24Z</time>
      </trkpt>
      <trkpt lat="47.06304" lon="5.99318">
        <ele>310.6</ele>
        <time>2024-09-01T09:00:25Z</time>
      </trkpt>
      <trkpt lat="47.0631" lon="5.99319">
        <ele>310.2</ele>
        <time>2024-09-01T09:00:26Z</time>
      </trkpt>
      <trkpt lat="47.06316" lon="5.9932">
        <ele>309.8</ele>
        <time>2024-09-01T09:00:27Z</time>
      </trkpt>
      <trkpt lat="47.06322" lon="5.99322">
        <ele>309.6</ele>
        <time>2024-09-01T09:00:28Z</time>
      </trkpt>
      <trkpt lat="47.06328" lon="5.99324">
        <ele>309.4</ele>
        <time>2024-09-01T09:00:29Z</time>
      </trkpt>
      <trkpt lat="47.06332" lon="5.99327">
        <ele>309.4</ele>
        <time>2024-09-01T09:00:30Z</time>
      </trkpt>
      <trkpt lat="47.06337" lon="5.9933">
        <ele>309.2</ele>
        <time>2024-09-01T09:00:31Z</time>
      </trkpt>
      <trkpt lat="47.06341" lon="5.99332">
        <ele>308.8</ele>
        <time>2024-09-01T09:00:32Z</time>
      </trkpt>
      <trkpt lat="47.06347" lon="5.99336">
        <ele>308.8</ele>
        <time>2024-09-01T09:00:33Z</time>
      </trkpt>
      <trkpt lat="47.06352" lon="5.9934">
        <ele>308.6</ele>
        <time>2024-09-01T09:00:34Z</time>
      </trkpt>
      <trkpt lat="47.06357" lon="5.99342">
        <ele>308.6</ele>
        <time>2024-09-01T09:00:35Z</time>
      </trkpt>
      <trkpt lat="47.06363" lon="5.99344">
        <ele>308.4</ele>
        <time>2024-09-01T09:00:36Z</time>
      </trkpt>
      <trkpt lat="47.06368" lon="5.99345">
        <ele>308.4</ele>
        <time>2024-09-01T09:00:37Z</time>
      </trkpt>
      <trkpt lat="47.06372" lon="5.99343">
        <ele>308.4</ele>
        <time>2024-09-01T09:00:38Z</time>
      </trkpt>
      <trkpt lat="47.06377" lon="5.99342">
        <ele>308.4</ele>
        <time>2024-09-01T09:00:39Z</time>
      </trkpt>
      <trkpt lat="47.06381" lon="5.99339">
        <ele>308.4</ele>
        <time>2024-09-01T09:00:40Z</time>
      </trkpt>
      <trkpt lat="47.06385" lon="5.99337">
        <ele>308.4</ele>
        <time>2024-09-01T09:00:41Z</time>
      </trkpt>
      <trkpt lat="47.06391" lon="5.99336">
        <ele>308.2</ele>
        <time>2024-09-01T09:00:42Z</time>
      </trkpt>
      <trkpt lat="47.06395" lon="5.99333">
        <ele>308.4</ele>
        <time>2024-09-01T09:00:43Z</time>
      </trkpt>
      <trkpt lat="47.064" lon="5.99332">
        <ele>308.2</ele>
        <time>2024-09-01T09:00:44Z</time>
      </trkpt>
      <trkpt lat="47.06404" lon="5.9933">
        <ele>308.4</ele>
        <time>2024-09-01T09:00:45Z</time>
      </trkpt>
      <trkpt lat="47.06408" lon="5.99327">
        <ele>308.4</ele>
        <time>2024-09-01T09:00:46Z</time>
      </trkpt>
      <trkpt lat="47.06413" lon="5.99324">
        <ele>308.4</ele>
        <time>2024-09-01T09:00:47Z</time>
      </trkpt>
      <trkpt lat="47.06417" lon="5.99321">
        <ele>308.6</ele>
        <time>2024-09-01T09:00:48Z</time>
      </trkpt>
      <trkpt lat="47.06421" lon="5.99319">
        <ele>308.6</ele>
        <time>2024-09-01T09:00:49Z</time>
      </trkpt>
      <trkpt lat="47.06424" lon="5.99315">
        <ele>308.6</ele>
        <time>2024-09-01T09:00:50Z</time>
      </trkpt>
      <trkpt lat="47.06428" lon="5.99313">
        <ele>308.4</ele>
        <time>2024-09-01T09:00:51Z</time>
      </trkpt>
      <trkpt lat="47.06434" lon="5.99311">
        <ele>308.6</ele>
        <time>2024-09-01T09:00:52Z</time>
      </trkpt>
      <trkpt lat="47.06441" lon="5.99311">
        <ele>308.4</ele>
        <time>2024-09-01T09:00:53Z</time>
      </trkpt>
      <trkpt lat="47.06448" lon="5.99309">
        <ele>308.6</ele>
        <time>2024-09-01T09:00:54Z</time>
      </trkpt>
      <trkpt lat="47.06454" lon="5.99306">
        <ele>308.4</ele>
        <time>2024-09-01T09:00:55Z</time>
      </trkpt>
      <trkpt lat="47.06459" lon="5.99302">
        <ele>308.4</ele>
        <time>2024-09-01T09:00:56Z</time>
      </trkpt>
      <trkpt lat="47.06463" lon="5.99298">
        <ele>308.6</ele>
        <time>2024-09-01T09:00:57Z</time>
      </trkpt>
      <trkpt lat="47.06469" lon="5.99295">
        <ele>308.4</ele>
        <time>2024-09-01T09:00:58Z</time>
      </trkpt>
      <trkpt lat="47.06474" lon="5.99292">
        <ele>308.4</ele>
        <time>2024-09-01T09:00:59Z</time>
      </trkpt>
      <trkpt lat="47.06478" lon="5.99288">
        <ele>308.4</ele>
        <time>2024-09-01T09:01:00Z</time>
      </trkpt>
      <trkpt lat="47.06483" lon="5.99284">
        <ele>308.2</ele>
        <time>2024-09-01T09:01:01Z</time>
      </trkpt>
      <trkpt lat="47.06488" lon="5.99279">
        <ele>308.2</ele>
        <time>2024-09-01T09:01:02Z</time>
      </trkpt>
      <trkpt lat="47.06491" lon="5.99274">
        <ele>308.2</ele>
        <time>2024-09-01T09:01:03Z</time>
      </trkpt>
      <trkpt lat="47.06495" lon="5.99268">
        <ele>308.2</ele>
        <time>2024-09-01T09:01:04Z</time>
      </trkpt>
      <trkpt lat="47.06499" lon="5.99264">
        <ele>308.2</ele>
        <time>2024-09-01T09:01:05Z</time>
      </trkpt>
      <trkpt lat="47.06503" lon="5.99258">
        <ele>308.2</ele>
        <time>2024-09-01T09:01:06Z</time>
      </trkpt>
      <trkpt lat="47.06507" lon="5.99253">
        <ele>308.2</ele>
        <time>2024-09-01T09:01:07Z</time>
      </trkpt>
      <trkpt lat="47.0651" lon="5.99247">
        <ele>308.4</ele>
        <time>2024-09-01T09:01:08Z</time>
      </trkpt>
      <trkpt lat="47.06513" lon="5.99241">
        <ele>308.2</ele>
        <time>2024-09-01T09:01:09Z</time>
      </trkpt>
      <trkpt lat="47.06517" lon="5.99235">
        <ele>308.2</ele>
        <time>2024-09-01T09:01:10Z</time>
      </trkpt>
      <trkpt lat="47.06521" lon="5.9923">
        <ele>308</ele>
        <time>2024-09-01T09:01:11Z</time>
      </trkpt>
      <trkpt lat="47.06525" lon="5.99225">
        <ele>308.2</ele>
        <time>2024-09-01T09:01:12Z</time>
      </trkpt>
      <trkpt lat="47.0653" lon="5.99221">
        <ele>308</ele>
        <time>2024-09-01T09:01:13Z</time>
      </trkpt>
      <trkpt lat="47.06533" lon="5.99216">
        <ele>307.8</ele>
        <time>2024-09-01T09:01:14Z</time>
      </trkpt>
      <trkpt lat="47.06538" lon="5.99213">
        <ele>307.8</ele>
        <time>2024-09-01T09:01:15Z</time>
      </trkpt>
      <trkpt lat="47.06542" lon="5.99209">
        <ele>307.6</ele>
        <time>2024-09-01T09:01:16Z</time>
      </trkpt>
      <trkpt lat="47.06546" lon="5.99204">
        <ele>307.4</ele>
        <time>2024-09-01T09:01:17Z</time>
      </trkpt>
      <trkpt lat="47.06549" lon="5.99198">
        <ele>307.4</ele>
        <time>2024-09-01T09:01:18Z</time>
      </trkpt>
      <trkpt lat="47.06552" lon="5.99192">
        <ele>307.6</ele>
        <time>2024-09-01T09:01:19Z</time>
      </trkpt>
      <trkpt lat="47.06555" lon="5.99187">
        <ele>307.4</ele>
        <time>2024-09-01T09:01:20Z</time>
      </trkpt>
      <trkpt lat="47.06559" lon="5.99182">
        <ele>307.4</ele>
        <time>2024-09-01T09:01:21Z</time>
      </trkpt>
      <trkpt lat="47.06562" lon="5.99177">
        <ele>307.4</ele>
        <time>2024-09-01T09:01:22Z</time>
      </trkpt>
      <trkpt lat="47.06566" lon="5.99172">
        <ele>307.2</ele>
        <time>2024-09-01T09:01:23Z</time>
      </trkpt>
      <trkpt lat="47.06571" lon="5.99167">
        <ele>307.2</ele>
        <time>2024-09-01T09:01:24Z</time>
      </trkpt>
      <trkpt lat="47.06575" lon="5.99162">
        <ele>307.4</ele>
        <time>2024-09-01T09:01:25Z</time>
      </trkpt>
      <trkpt lat="47.06579" lon="5.99158">
        <ele>307.2</ele>
        <time>2024-09-01T09:01:26Z</time>
      </trkpt>
      <trkpt lat="47.06584" lon="5.99155">
        <ele>307.2</ele>
        <time>2024-09-01T09:01:27Z</time>
      </trkpt>
      <trkpt lat="47.06588" lon="5.99153">
        <ele>307.2</ele>
        <time>2024-09-01T09:01:28Z</time>
      </trkpt>
      <trkpt lat="47.06593" lon="5.99149">
        <ele>307.2</ele>
        <time>2024-09-01T09:01:29Z</time>
      </trkpt>
      <trkpt lat="47.06598" lon="5.99146">
        <ele>307.2</ele>
        <time>2024-09-01T09:01:30Z</time>
      </trkpt>
      <trkpt lat="47.06602" lon="5.99143">
        <ele>307</ele>
        <time>2024-09-01T09:01:31Z</time>
      </trkpt>
      <trkpt lat="47.06607" lon="5.9914">
        <ele>307</ele>
        <time>2024-09-01T09:01:32Z</time>
      </trkpt>
      <trkpt lat="47.06611" lon="5.99137">
        <ele>307</ele>
        <time>2024-09-01T09:01:33Z</time>
      </trkpt>
      <trkpt lat="47.06616" lon="5.99134">
        <ele>306.8</ele>
        <time>2024-09-01T09:01:34Z</time>
      </trkpt>
      <trkpt lat="47.0662" lon="5.9913">
        <ele>307</ele>
        <time>2024-09-01T09:01:35Z</time>
      </trkpt>
      <trkpt lat="47.06625" lon="5.99126">
        <ele>306.8</ele>
        <time>2024-09-01T09:01:36Z</time>
      </trkpt>
      <trkpt lat="47.06629" lon="5.99122">
        <ele>306.6</ele>
        <time>2024-09-01T09:01:37Z</time>
      </trkpt>
      <trkpt lat="47.06633" lon="5.99117">
        <ele>306.6</ele>
        <time>2024-09-01T09:01:38Z</time>
      </trkpt>
      <trkpt lat="47.06637" lon="5.99113">
        <ele>306.6</ele>
        <time>2024-09-01T09:01:39Z</time>
      </trkpt>
      <trkpt lat="47.0664" lon="5.99109">
        <ele>306.6</ele>
        <time>2024-09-01T09:01:40Z</time>
      </trkpt>
      <trkpt lat="47.06644" lon="5.99106">
        <ele>306.4</ele>
        <time>2024-09-01T09:01:41Z</time>
      </trkpt>
      <trkpt lat="47.06648" lon="5.99102">
        <ele>306.4</ele>
        <time>2024-09-01T09:01:42Z</time>
      </trkpt>
      <trkpt lat="47.06651" lon="5.99099">
        <ele>306.4</ele>
        <time>2024-09-01T09:01:43Z</time>
      </trkpt>
      <trkpt lat="47.06655" lon="5.99095">
        <ele>306.4</ele>
        <time>2024-09-01T09:01:44Z</time>
      </trkpt>
      <trkpt lat="47.06659" lon="5.99094">
        <ele>306.4</ele>
        <time>2024-09-01T09:01:45Z</time>
      </trkpt>
      <trkpt lat="47.06662" lon="5.99091">
        <ele>306.4</ele>
        <time>2024-09-01T09:01:46Z</time>
      </trkpt>
      <trkpt lat="47.06665" lon="5.99088">
        <ele>306.4</ele>
        <time>2024-09-01T09:01:47Z</time>
      </trkpt>
      <trkpt lat="47.06668" lon="5.99085">
        <ele>306.2</ele>
        <time>2024-09-01T09:01:48Z</time>
      </trkpt>
      <trkpt lat="47.06671" lon="5.99083">
        <ele>306.4</ele>
        <time>2024-09-01T09:01:49Z</time>
      </trkpt>
      <trkpt lat="47.06675" lon="5.99082">
        <ele>306.4</ele>
        <time>2024-09-01T09:01:50Z</time>
      </trkpt>
      <trkpt lat="47.06678" lon="5.9908">
        <ele>306.4</ele>
        <time>2024-09-01T09:01:51Z</time>
      </trkpt>
      <trkpt lat="47.06682" lon="5.9908">
        <ele>306.4</ele>
        <time>2024-09-01T09:01:52Z</time>
      </trkpt>
      <trkpt lat="47.06685" lon="5.99078">
        <ele>306.4</ele>
        <time>2024-09-01T09:01:53Z</time>
      </trkpt>
      <trkpt lat="47.06688" lon="5.99079">
        <ele>306.6</ele>
        <time>2024-09-01T09:01:54Z</time>
      </trkpt>
      <trkpt lat="47.06692" lon="5.9908">
        <ele>306.8</ele>
        <time>2024-09-01T09:01:55Z</time>
      </trkpt>
      <trkpt lat="47.06694" lon="5.99081">
        <ele>306.8</ele>
        <time>2024-09-01T09:01:56Z</time>
      </trkpt>
      <trkpt lat="47.06698" lon="5.99082">
        <ele>307.2</ele>
        <time>2024-09-01T09:01:57Z</time>
      </trkpt>
      <trkpt lat="47.06701" lon="5.99083">
        <ele>307.2</ele>
        <time>2024-09-01T09:01:58Z</time>
      </trkpt>
      <trkpt lat="47.06705" lon="5.99085">
        <ele>307.4</ele>
        <time>2024-09-01T09:01:59Z</time>
      </trkpt>
      <trkpt lat="47.06709" lon="5.99087">
        <ele>307.6</ele>
        <time>2024-09-01T09:02:00Z</time>
      </trkpt>
      <trkpt lat="47.06713" lon="5.99089">
        <ele>307.8</ele>
        <time>2024-09-01T09:02:01Z</time>
      </trkpt>
      <trkpt lat="47.06717" lon="5.99091">
        <ele>308</ele>
        <time>2024-09-01T09:02:02Z</time>
      </trkpt>
      <trkpt lat="47.06721" lon="5.99093">
        <ele>308.2</ele>
        <time>2024-09-01T09:02:03Z</time>
      </trkpt>
      <trkpt lat="47.06724" lon="5.99093">
        <ele>308.4</ele>
        <time>2024-09-01T09:02:04Z</time>
      </trkpt>
      <trkpt lat="47.06727" lon="5.99094">
        <ele>308.4</ele>
        <time>2024-09-01T09:02:05Z</time>
      </trkpt>
      <trkpt lat="47.0673" lon="5.99096">
        <ele>308.6</ele>
        <time>2024-09-01T09:02:06Z</time>
      </trkpt>
      <trkpt lat="47.06732" lon="5.99096">
        <ele>308.6</ele>
        <time>2024-09-01T09:02:07Z</time>
      </trkpt>
      <trkpt lat="47.06735" lon="5.99097">
        <ele>308.8</ele>
        <time>2024-09-01T09:02:08Z</time>
      </trkpt>
      <trkpt lat="47.06738" lon="5.99097">
        <ele>309.2</ele>
        <time>2024-09-01T09:02:09Z</time>
      </trkpt>
      <trkpt lat="47.06741" lon="5.99098">
        <ele>309.4</ele>
        <time>2024-09-01T09:02:10Z</time>
      </trkpt>
      <trkpt lat="47.06743" lon="5.99098">
        <ele>309.4</ele>
        <time>2024-09-01T09:02:11Z</time>
      </trkpt>
      <trkpt lat="47.06746" lon="5.99098">
        <ele>309.8</ele>
        <time>2024-09-01T09:02:12Z</time>
      </trkpt>
      <trkpt lat="47.06749" lon="5.991">
        <ele>310</ele>
        <time>2024-09-01T09:02:13Z</time>
      </trkpt>
      <trkpt lat="47.06751" lon="5.99101">
        <ele>310.2</ele>
        <time>2024-09-01T09:02:14Z</time>
      </trkpt>
      <trkpt lat="47.06754" lon="5.99102">
        <ele>310.2</ele>
        <time>2024-09-01T09:02:15Z</time>
      </trkpt>
      <trkpt lat="47.06756" lon="5.99102">
        <ele>310.4</ele>
        <time>2024-09-01T09:02:16Z</time>
      </trkpt>
      <trkpt lat="47.06759" lon="5.99103">
        <ele>310.8</ele>
        <time>2024-09-01T09:02:17Z</time>
      </trkpt>
      <trkpt lat="47.06761" lon="5.99104">
        <ele>310.8</ele>
        <time>2024-09-01T09:02:18Z</time>
      </trkpt>
      <trkpt lat="47.06763" lon="5.99104">
        <ele>310.8</ele>
        <time>2024-09-01T09:02:19Z</time>
      </trkpt>
      <trkpt lat="47.06766" lon="5.99106">
        <ele>311.2</ele>
        <time>2024-09-01T09:02:20Z</time>
      </trkpt>
      <trkpt lat="47.06769" lon="5.99108">
        <ele>311.4</ele>
        <time>2024-09-01T09:02:21Z</time>
      </trkpt>
      <trkpt lat="47.0677" lon="5.99109">
        <ele>311.4</ele>
        <time>2024-09-01T09:02:22Z</time>
      </trkpt>
      <trkpt lat="47.06771" lon="5.99108">
        <ele>311.8</ele>
        <time>2024-09-01T09:02:23Z</time>
      </trkpt>
      <trkpt lat="47.06773" lon="5.99109">
        <ele>312</ele>
        <time>2024-09-01T09:02:24Z</time>
      </trkpt>
      <trkpt lat="47.06774" lon="5.99108">
        <ele>312.2</ele>
        <time>2024-09-01T09:02:25Z</time>
      </trkpt>
      <trkpt lat="47.06777" lon="5.99109">
        <ele>312.2</ele>
        <time>2024-09-01T09:02:26Z</time>
      </trkpt>
      <trkpt lat="47.06781" lon="5.99111">
        <ele>312.4</ele>
        <time>2024-09-01T09:02:27Z</time>
      </trkpt>
      <trkpt lat="47.06783" lon="5.99112">
        <ele>312.4</ele>
        <time>2024-09-01T09:02:28Z</time>
      </trkpt>
      <trkpt lat="47.06784" lon="5.99112">
        <ele>312.6</ele>
        <time>2024-09-01T09:02:29Z</time>
      </trkpt>
      <trkpt lat="47.06788" lon="5.99113">
        <ele>312.8</ele>
        <time>2024-09-01T09:02:30Z</time>
      </trkpt>
      <trkpt lat="47.0679" lon="5.99115">
        <ele>312.8</ele>
        <time>2024-09-01T09:02:31Z</time>
      </trkpt>
      <trkpt lat="47.06792" lon="5.99116">
        <ele>313.2</ele>
        <time>2024-09-01T09:02:32Z</time>
      </trkpt>
      <trkpt lat="47.06795" lon="5.99116">
        <ele>313.2</ele>
        <time>2024-09-01T09:02:33Z</time>
      </trkpt>
      <trkpt lat="47.06798" lon="5.99118">
        <ele>313.6</ele>
        <time>2024-09-01T09:02:34Z</time>
      </trkpt>
      <trkpt lat="47.068" lon="5.99118">
        <ele>313.8</ele>
        <time>2024-09-01T09:02:35Z</time>
      </trkpt>
      <trkpt lat="47.06803" lon="5.9912">
        <ele>314</ele>
        <time>2024-09-01T09:02:36Z</time>
      </trkpt>
      <trkpt lat="47.06805" lon="5.9912">
        <ele>314</ele>
        <time>2024-09-01T09:02:37Z</time>
      </trkpt>
      <trkpt lat="47.06807" lon="5.9912">
        <ele>314.2</ele>
        <time>2024-09-01T09:02:38Z</time>
      </trkpt>
      <trkpt lat="47.06813" lon="5.99123">
        <ele>314.2</ele>
        <time>2024-09-01T09:02:39Z</time>
      </trkpt>
      <trkpt lat="47.06818" lon="5.99125">
        <ele>314.6</ele>
        <time>2024-09-01T09:02:40Z</time>
      </trkpt>
      <trkpt lat="47.0682" lon="5.99126">
        <ele>314.6</ele>
        <time>2024-09-01T09:02:41Z</time>
      </trkpt>
      <trkpt lat="47.06823" lon="5.99128">
        <ele>314.8</ele>
        <time>2024-09-01T09:02:42Z</time>
      </trkpt>
      <trkpt lat="47.06826" lon="5.99129">
        <ele>314.8</ele>
        <time>2024-09-01T09:02:43Z</time>
      </trkpt>
      <trkpt lat="47.0683" lon="5.99131">
        <ele>314.8</ele>
        <time>2024-09-01T09:02:44Z</time>
      </trkpt>
      <trkpt lat="47.06833" lon="5.99132">
        <ele>315</ele>
        <time>2024-09-01T09:02:45Z</time>
      </trkpt>
      <trkpt lat="47.06835" lon="5.99133">
        <ele>315.2</ele>
        <time>2024-09-01T09:02:46Z</time>
      </trkpt>
      <trkpt lat="47.06836" lon="5.99133">
        <ele>315.2</ele>
        <time>2024-09-01T09:02:47Z</time>
      </trkpt>
      <trkpt lat="47.06838" lon="5.99133">
        <ele>315.4</ele>
        <time>2024-09-01T09:02:48Z</time>
      </trkpt>
      <trkpt lat="47.0684" lon="5.99134">
        <ele>315.6</ele>
        <time>2024-09-01T09:02:49Z</time>
      </trkpt>
      <trkpt lat="47.06841" lon="5.99134">
        <ele>315.8</ele>
        <time>2024-09-01T09:02:50Z</time>
      </trkpt>
      <trkpt lat="47.06843" lon="5.99135">
        <ele>316</ele>
        <time>2024-09-01T09:02:51Z</time>
      </trkpt>
      <trkpt lat="47.06846" lon="5.99137">
        <ele>316.2</ele>
        <time>2024-09-01T09:02:52Z</time>
      </trkpt>
      <trkpt lat="47.06847" lon="5.99138">
        <ele>316.4</ele>
        <time>2024-09-01T09:02:53Z</time>
      </trkpt>
      <trkpt lat="47.06849" lon="5.99138">
        <ele>316.6</ele>
        <time>2024-09-01T09:02:54Z</time>
      </trkpt>
      <trkpt lat="47.06852" lon="5.99139">
        <ele>316.6</ele>
        <time>2024-09-01T09:02:55Z</time>
      </trkpt>
      <trkpt lat="47.06854" lon="5.99141">
        <ele>316.6</ele>
        <time>2024-09-01T09:02:56Z</time>
      </trkpt>
      <trkpt lat="47.06856" lon="5.99141">
        <ele>316.8</ele>
        <time>2024-09-01T09:02:57Z</time>
      </trkpt>
      <trkpt lat="47.06859" lon="5.99142">
        <ele>316.8</ele>
        <time>2024-09-01T09:02:58Z</time>
      </trkpt>
      <trkpt lat="47.06861" lon="5.99143">
        <ele>316.8</ele>
        <time>2024-09-01T09:02:59Z</time>
      </trkpt>
      <trkpt lat="47.06863" lon="5.99144">
        <ele>317</ele>
        <time>2024-09-01T09:03:00Z</time>
      </trkpt>
      <trkpt lat="47.06865" lon="5.99144">
        <ele>317.2</ele>
        <time>2024-09-01T09:03:01Z</time>
      </trkpt>
      <trkpt lat="47.06868" lon="5.99144">
        <ele>317.2</ele>
        <time>2024-09-01T09:03:02Z</time>
      </trkpt>
      <trkpt lat="47.06873" lon="5.99145">
        <ele>317.4</ele>
        <time>2024-09-01T09:03:03Z</time>
      </trkpt>
      <trkpt lat="47.06876" lon="5.99146">
        <ele>317.8</ele>
        <time>2024-09-01T09:03:04Z</time>
      </trkpt>
      <trkpt lat="47.06879" lon="5.99147">
        <ele>317.6</ele>
        <time>2024-09-01T09:03:05Z</time>
      </trkpt>
      <trkpt lat="47.06882" lon="5.99149">
        <ele>317.8</ele>
        <time>2024-09-01T09:03:06Z</time>
      </trkpt>
      <trkpt lat="47.06885" lon="5.9915">
        <ele>318</ele>
        <time>2024-09-01T09:03:07Z</time>
      </trkpt>
      <trkpt lat="47.06888" lon="5.99151">
        <ele>318.2</ele>
        <time>2024-09-01T09:03:08Z</time>
      </trkpt>
      <trkpt lat="47.06892" lon="5.99152">
        <ele>318</ele>
        <time>2024-09-01T09:03:09Z</time>
      </trkpt>
      <trkpt lat="47.06894" lon="5.99152">
        <ele>318.4</ele>
        <time>2024-09-01T09:03:10Z</time>
      </trkpt>
      <trkpt lat="47.06899" lon="5.99153">
        <ele>318.2</ele>
        <time>2024-09-01T09:03:11Z</time>
      </trkpt>
      <trkpt lat="47.06902" lon="5.99153">
        <ele>318.4</ele>
        <time>2024-09-01T09:03:12Z</time>
      </trkpt>
      <trkpt lat="47.06904" lon="5.99153">
        <ele>318.8</ele>
        <time>2024-09-01T09:03:13Z</time>
      </trkpt>
      <trkpt lat="47.06906" lon="5.99152">
        <ele>319</ele>
        <time>2024-09-01T09:03:14Z</time>
      </trkpt>
      <trkpt lat="47.06907" lon="5.99151">
        <ele>319.2</ele>
        <time>2024-09-01T09:03:15Z</time>
      </trkpt>
      <trkpt lat="47.06908" lon="5.9915">
        <ele>319.2</ele>
        <time>2024-09-01T09:03:16Z</time>
      </trkpt>
      <trkpt lat="47.0691" lon="5.99149">
        <ele>319.2</ele>
        <time>2024-09-01T09:03:17Z</time>
      </trkpt>
      <trkpt lat="47.06912" lon="5.99148">
        <ele>319.4</ele>
        <time>2024-09-01T09:03:18Z</time>
      </trkpt>
      <trkpt lat="47.06918" lon="5.99151">
        <ele>319.4</ele>
        <time>2024-09-01T09:03:19Z</time>
      </trkpt>
      <trkpt lat="47.06922" lon="5.99154">
        <ele>319.4</ele>
        <time>2024-09-01T09:03:20Z</time>
      </trkpt>
      <trkpt lat="47.06925" lon="5.99155">
        <ele>319.4</ele>
        <time>2024-09-01T09:03:21Z</time>
      </trkpt>
      <trkpt lat="47.06927" lon="5.99155">
        <ele>319.6</ele>
        <time>2024-09-01T09:03:22Z</time>
      </trkpt>
      <trkpt lat="47.06933" lon="5.99157">
        <ele>319.6</ele>
        <time>2024-09-01T09:03:23Z</time>
      </trkpt>
      <trkpt lat="47.06937" lon="5.99159">
        <ele>319.6</ele>
        <time>2024-09-01T09:03:24Z</time>
      </trkpt>
      <trkpt lat="47.0694" lon="5.9916">
        <ele>319.6</ele>
        <time>2024-09-01T09:03:25Z</time>
      </trkpt>
      <trkpt lat="47.06943" lon="5.99161">
        <ele>320</ele>
        <time>2024-09-01T09:03:26Z</time>
      </trkpt>
      <trkpt lat="47.06946" lon="5.99162">
        <ele>320</ele>
        <time>2024-09-01T09:03:27Z</time>
      </trkpt>
      <trkpt lat="47.06947" lon="5.99163">
        <ele>320</ele>
        <time>2024-09-01T09:03:28Z</time>
      </trkpt>
      <trkpt lat="47.06949" lon="5.99163">
        <ele>320.2</ele>
        <time>2024-09-01T09:03:29Z</time>
      </trkpt>
      <trkpt lat="47.06952" lon="5.99164">
        <ele>320.2</ele>
        <time>2024-09-01T09:03:30Z</time>
      </trkpt>
      <trkpt lat="47.06954" lon="5.99164">
        <ele>320.2</ele>
        <time>2024-09-01T09:03:31Z</time>
      </trkpt>
      <trkpt lat="47.06956" lon="5.99164">
        <ele>320.4</ele>
        <time>2024-09-01T09:03:32Z</time>
      </trkpt>
      <trkpt lat="47.06958" lon="5.99164">
        <ele>320.4</ele>
        <time>2024-09-01T09:03:33Z</time>
      </trkpt>
      <trkpt lat="47.0696" lon="5.99164">
        <ele>320.6</ele>
        <time>2024-09-01T09:03:34Z</time>
      </trkpt>
      <trkpt lat="47.06962" lon="5.99164">
        <ele>320.8</ele>
        <time>2024-09-01T09:03:35Z</time>
      </trkpt>
      <trkpt lat="47.06967" lon="5.99166">
        <ele>321.2</ele>
        <time>2024-09-01T09:03:36Z</time>
      </trkpt>
      <trkpt lat="47.0697" lon="5.99166">
        <ele>321.2</ele>
        <time>2024-09-01T09:03:37Z</time>
      </trkpt>
      <trkpt lat="47.06973" lon="5.99167">
        <ele>321.4</ele>
        <time>2024-09-01T09:03:38Z</time>
      </trkpt>
      <trkpt lat="47.06976" lon="5.99167">
        <ele>321.6</ele>
        <time>2024-09-01T09:03:39Z</time>
      </trkpt>
      <trkpt lat="47.06978" lon="5.99166">
        <ele>321.6</ele>
        <time>2024-09-01T09:03:40Z</time>
      </trkpt>
      <trkpt lat="47.06981" lon="5.99167">
        <ele>321.6</ele>
        <time>2024-09-01T09:03:41Z</time>
      </trkpt>
      <trkpt lat="47.06985" lon="5.99169">
        <ele>321.8</ele>
        <time>2024-09-01T09:03:42Z</time>
      </trkpt>
      <trkpt lat="47.06989" lon="5.9917">
        <ele>321.8</ele>
        <time>2024-09-01T09:03:43Z</time>
      </trkpt>
      <trkpt lat="47.06991" lon="5.9917">
        <ele>322</ele>
        <time>2024-09-01T09:03:44Z</time>
      </trkpt>
      <trkpt lat="47.06994" lon="5.99171">
        <ele>322.2</ele>
        <time>2024-09-01T09:03:45Z</time>
      </trkpt>
      <trkpt lat="47.06997" lon="5.99172">
        <ele>322.2</ele>
        <time>2024-09-01T09:03:46Z</time>
      </trkpt>
      <trkpt lat="47.06999" lon="5.99173">
        <ele>322.4</ele>
        <time>2024-09-01T09:03:47Z</time>
      </trkpt>
      <trkpt lat="47.07001" lon="5.99174">
        <ele>322.2</ele>
        <time>2024-09-01T09:03:48Z</time>
      </trkpt>
      <trkpt lat="47.07005" lon="5.99175">
        <ele>322.4</ele>
        <time>2024-09-01T09:03:49Z</time>
      </trkpt>
      <trkpt lat="47.07008" lon="5.99177">
        <ele>322.6</ele>
        <time>2024-09-01T09:03:50Z</time>
      </trkpt>
      <trkpt lat="47.07011" lon="5.99177">
        <ele>322.8</ele>
        <time>2024-09-01T09:03:51Z</time>
      </trkpt>
      <trkpt lat="47.07014" lon="5.99178">
        <ele>322.6</ele>
        <time>2024-09-01T09:03:52Z</time>
      </trkpt>
      <trkpt lat="47.07017" lon="5.99178">
        <ele>323</ele>
        <time>2024-09-01T09:03:53Z</time>
      </trkpt>
      <trkpt lat="47.07019" lon="5.99179">
        <ele>323</ele>
        <time>2024-09-01T09:03:54Z</time>
      </trkpt>
      <trkpt lat="47.07022" lon="5.9918">
        <ele>323.2</ele>
        <time>2024-09-01T09:03:55Z</time>
      </trkpt>
      <trkpt lat="47.07024" lon="5.9918">
        <ele>323.2</ele>
        <time>2024-09-01T09:03:56Z</time>
      </trkpt>
      <trkpt lat="47.07026" lon="5.9918">
        <ele>323.4</ele>
        <time>2024-09-01T09:03:57Z</time>
      </trkpt>
      <trkpt lat="47.07028" lon="5.9918">
        <ele>323.6</ele>
        <time>2024-09-01T09:03:58Z</time>
      </trkpt>
      <trkpt lat="47.0703" lon="5.9918">
        <ele>323.6</ele>
        <time>2024-09-01T09:03:59Z</time>
      </trkpt>
      <trkpt lat="47.07031" lon="5.99179">
        <ele>323.8</ele>
        <time>2024-09-01T09:04:00Z</time>
      </trkpt>
      <trkpt lat="47.07032" lon="5.99179">
        <ele>323.8</ele>
        <time>2024-09-01T09:04:01Z</time>
      </trkpt>
      <trkpt lat="47.07033" lon="5.99179">
        <ele>324</ele>
        <time>2024-09-01T09:04:02Z</time>
      </trkpt>
      <trkpt lat="47.07036" lon="5.9918">
        <ele>324.2</ele>
        <time>2024-09-01T09:04:03Z</time>
      </trkpt>
      <trkpt lat="47.07038" lon="5.99181">
        <ele>324.4</ele>
        <time>2024-09-01T09:04:04Z</time>
      </trkpt>
      <trkpt lat="47.0704" lon="5.99181">
        <ele>324.6</ele>
        <time>2024-09-01T09:04:05Z</time>
      </trkpt>
      <trkpt lat="47.07043" lon="5.99181">
        <ele>324.6</ele>
        <time>2024-09-01T09:04:06Z</time>
      </trkpt>
      <trkpt lat="47.07046" lon="5.99181">
        <ele>324.8</ele>
        <time>2024-09-01T09:04:07Z</time>
      </trkpt>
      <trkpt lat="47.07048" lon="5.99181">
        <ele>324.8</ele>
        <time>2024-09-01T09:04:08Z</time>
      </trkpt>
      <trkpt lat="47.0705" lon="5.99181">
        <ele>325.2</ele>
        <time>2024-09-01T09:04:09Z</time>
      </trkpt>
      <trkpt lat="47.07052" lon="5.99179">
        <ele>325.4</ele>
        <time>2024-09-01T09:04:10Z</time>
      </trkpt>
      <trkpt lat="47.07054" lon="5.99176">
        <ele>325.6</ele>
        <time>2024-09-01T09:04:11Z</time>
      </trkpt>
      <trkpt lat="47.07055" lon="5.99171">
        <ele>325.6</ele>
        <time>2024-09-01T09:04:12Z</time>
      </trkpt>
      <trkpt lat="47.07056" lon="5.99167">
        <ele>325.6</ele>
        <time>2024-09-01T09:04:13Z</time>
      </trkpt>
      <trkpt lat="47.07058" lon="5.99163">
        <ele>325.8</ele>
        <time>2024-09-01T09:04:14Z</time>
      </trkpt>
      <trkpt lat="47.07061" lon="5.9916">
        <ele>326</ele>
        <time>2024-09-01T09:04:15Z</time>
      </trkpt>
      <trkpt lat="47.07064" lon="5.99157">
        <ele>326</ele>
        <time>2024-09-01T09:04:16Z</time>
      </trkpt>
      <trkpt lat="47.07067" lon="5.99155">
        <ele>326.2</ele>
        <time>2024-09-01T09:04:17Z</time>
      </trkpt>
      <trkpt lat="47.0707" lon="5.99152">
        <ele>326.2</ele>
        <time>2024-09-01T09:04:18Z</time>
      </trkpt>
      <trkpt lat="47.07075" lon="5.99148">
        <ele>326.2</ele>
        <time>2024-09-01T09:04:19Z</time>
      </trkpt>
      <trkpt lat="47.0708" lon="5.99143">
        <ele>326.2</ele>
        <time>2024-09-01T09:04:20Z</time>
      </trkpt>
      <trkpt lat="47.07085" lon="5.99135">
        <ele>326.2</ele>
        <time>2024-09-01T09:04:21Z</time>
      </trkpt>
      <trkpt lat="47.07088" lon="5.99126">
        <ele>326</ele>
        <time>2024-09-01T09:04:22Z</time>
      </trkpt>
      <trkpt lat="47.07091" lon="5.99118">
        <ele>326.2</ele>
        <time>2024-09-01T09:04:23Z</time>
      </trkpt>
      <trkpt lat="47.07094" lon="5.9911">
        <ele>325.8</ele>
        <time>2024-09-01T09:04:24Z</time>
      </trkpt>
      <trkpt lat="47.07097" lon="5.991">
        <ele>325.4</ele>
        <time>2024-09-01T09:04:25Z</time>
      </trkpt>
      <trkpt lat="47.071" lon="5.99091">
        <ele>324.4</ele>
        <time>2024-09-01T09:04:26Z</time>
      </trkpt>
      <trkpt lat="47.07102" lon="5.99083">
        <ele>323.6</ele>
        <time>2024-09-01T09:04:27Z</time>
      </trkpt>
      <trkpt lat="47.07105" lon="5.99076">
        <ele>323.4</ele>
        <time>2024-09-01T09:04:28Z</time>
      </trkpt>
      <trkpt lat="47.07107" lon="5.99068">
        <ele>323</ele>
        <time>2024-09-01T09:04:29Z</time>
      </trkpt>
      <trkpt lat="47.07108" lon="5.99059">
        <ele>323</ele>
        <time>2024-09-01T09:04:30Z</time>
      </trkpt>
      <trkpt lat="47.07111" lon="5.99046">
        <ele>322.6</ele>
        <time>2024-09-01T09:04:31Z</time>
      </trkpt>
      <trkpt lat="47.07115" lon="5.99034">
        <ele>322.2</ele>
        <time>2024-09-01T09:04:32Z</time>
      </trkpt>
      <trkpt lat="47.07119" lon="5.99023">
        <ele>321.6</ele>
        <time>2024-09-01T09:04:33Z</time>
      </trkpt>
      <trkpt lat="47.07123" lon="5.99012">
        <ele>321.2</ele>
        <time>2024-09-01T09:04:34Z</time>
      </trkpt>
      <trkpt lat="47.07127" lon="5.99004">
        <ele>321</ele>
        <time>2024-09-01T09:04:35Z</time>
      </trkpt>
      <trkpt lat="47.07131" lon="5.98998">
        <ele>320.4</ele>
        <time>2024-09-01T09:04:36Z</time>
      </trkpt>
      <trkpt lat="47.07136" lon="5.98995">
        <ele>318.8</ele>
        <time>2024-09-01T09:04:37Z</time>
      </trkpt>
      <trkpt lat="47.0714" lon="5.98991">
        <ele>317.8</ele>
        <time>2024-09-01T09:04:38Z</time>
      </trkpt>
      <trkpt lat="47.07144" lon="5.98988">
        <ele>317.2</ele>
        <time>2024-09-01T09:04:39Z</time>
      </trkpt>
      <trkpt lat="47.07148" lon="5.98985">
        <ele>316.2</ele>
        <time>2024-09-01T09:04:40Z</time>
      </trkpt>
      <trkpt lat="47.07153" lon="5.98983">
        <ele>315.6</ele>
        <time>2024-09-01T09:04:41Z</time>
      </trkpt>
      <trkpt lat="47.07157" lon="5.98979">
        <ele>314.6</ele>
        <time>2024-09-01T09:04:42Z</time>
      </trkpt>
      <trkpt lat="47.0716" lon="5.98974">
        <ele>314</ele>
        <time>2024-09-01T09:04:43Z</time>
      </trkpt>
      <trkpt lat="47.07163" lon="5.9897">
        <ele>313.4</ele>
        <time>2024-09-01T09:04:44Z</time>
      </trkpt>
      <trkpt lat="47.07167" lon="5.98967">
        <ele>313.2</ele>
        <time>2024-09-01T09:04:45Z</time>
      </trkpt>
      <trkpt lat="47.07171" lon="5.98963">
        <ele>313</ele>
        <time>2024-09-01T09:04:46Z</time>
      </trkpt>
      <trkpt lat="47.07174" lon="5.9896">
        <ele>312.8</ele>
        <time>2024-09-01T09:04:47Z</time>
      </trkpt>
      <trkpt lat="47.07176" lon="5.98957">
        <ele>312.8</ele>
        <time>2024-09-01T09:04:48Z</time>
      </trkpt>
      <trkpt lat="47.07179" lon="5.98956">
        <ele>312.4</ele>
        <time>2024-09-01T09:04:49Z</time>
      </trkpt>
      <trkpt lat="47.07181" lon="5.98952">
        <ele>312</ele>
        <time>2024-09-01T09:04:50Z</time>
      </trkpt>
      <trkpt lat="47.07182" lon="5.98949">
        <ele>311.8</ele>
        <time>2024-09-01T09:04:51Z</time>
      </trkpt>
      <trkpt lat="47.07184" lon="5.98945">
        <ele>311.2</ele>
        <time>2024-09-01T09:04:52Z</time>
      </trkpt>
      <trkpt lat="47.07185" lon="5.9894">
        <ele>310.8</ele>
        <time>2024-09-01T09:04:53Z</time>
      </trkpt>
      <trkpt lat="47.07185" lon="5.98936">
        <ele>310.6</ele>
        <time>2024-09-01T09:04:54Z</time>
      </trkpt>
      <trkpt lat="47.07186" lon="5.98932">
        <ele>310.4</ele>
        <time>2024-09-01T09:04:55Z</time>
      </trkpt>
      <trkpt lat="47.07186" lon="5.98927">
        <ele>310.2</ele>
        <time>2024-09-01T09:04:56Z</time>
      </trkpt>
      <trkpt lat="47.07186" lon="5.98921">
        <ele>310</ele>
        <time>2024-09-01T09:04:57Z</time>
      </trkpt>
      <trkpt lat="47.07186" lon="5.98914">
        <ele>310</ele>
        <time>2024-09-01T09:04:58Z</time>
      </trkpt>
      <trkpt lat="47.07185" lon="5.98908">
        <ele>309.8</ele>
        <time>2024-09-01T09:04:59Z</time>
      </trkpt>
      <trkpt lat="47.07185" lon="5.989">
        <ele>309.8</ele>
        <time>2024-09-01T09:05:00Z</time>
      </trkpt>
      <trkpt lat="47.07184" lon="5.98893">
        <ele>309.8</ele>
        <time>2024-09-01T09:05:01Z</time>
      </trkpt>
      <trkpt lat="47.07182" lon="5.98886">
        <ele>309.8</ele>
        <time>2024-09-01T09:05:02Z</time>
      </trkpt>
      <trkpt lat="47.0718" lon="5.98878">
        <ele>309.6</ele>
        <time>2024-09-01T09:05:03Z</time>
      </trkpt>
      <trkpt lat="47.07178" lon="5.98871">
        <ele>309.4</ele>
        <time>2024-09-01T09:05:04Z</time>
      </trkpt>
      <trkpt lat="47.07175" lon="5.98864">
        <ele>309.2</ele>
        <time>2024-09-01T09:05:05Z</time>
      </trkpt>
      <trkpt lat="47.07173" lon="5.98858">
        <ele>308.8</ele>
        <time>2024-09-01T09:05:06Z</time>
      </trkpt>
      <trkpt lat="47.07172" lon="5.98854">
        <ele>308.6</ele>
        <time>2024-09-01T09:05:07Z</time>
      </trkpt>
      <trkpt lat="47.0717" lon="5.98851">
        <ele>308.4</ele>
        <time>2024-09-01T09:05:08Z</time>
      </trkpt>
      <trkpt lat="47.07169" lon="5.98849">
        <ele>308</ele>
        <time>2024-09-01T09:05:09Z</time>
      </trkpt>
      <trkpt lat="47.07168" lon="5.98848">
        <ele>307.8</ele>
        <time>2024-09-01T09:05:10Z</time>
      </trkpt>
      <trkpt lat="47.07166" lon="5.98846">
        <ele>307.4</ele>
        <time>2024-09-01T09:05:11Z</time>
      </trkpt>
      <trkpt lat="47.07165" lon="5.98845">
        <ele>307</ele>
        <time>2024-09-01T09:05:12Z</time>
      </trkpt>
      <trkpt lat="47.07164" lon="5.98844">
        <ele>307</ele>
        <time>2024-09-01T09:05:13Z</time>
      </trkpt>
      <trkpt lat="47.07164" lon="5.98843">
        <ele>306.4</ele>
        <time>2024-09-01T09:05:14Z</time>
      </trkpt>
      <trkpt lat="47.07163" lon="5.98842">
        <ele>306.2</ele>
        <time>2024-09-01T09:05:15Z</time>
      </trkpt>
      <trkpt lat="47.07162" lon="5.98841">
        <ele>306.2</ele>
        <time>2024-09-01T09:05:16Z</time>
      </trkpt>
      <trkpt lat="47.07162" lon="5.9884">
        <ele>306</ele>
        <time>2024-09-01T09:05:17Z</time>
      </trkpt>
      <trkpt lat="47.07161" lon="5.98838">
        <ele>306</ele>
        <time>2024-09-01T09:05:18Z</time>
      </trkpt>
      <trkpt lat="47.07161" lon="5.98837">
        <ele>306</ele>
        <time>2024-09-01T09:05:19Z</time>
      </trkpt>
      <trkpt lat="47.0716" lon="5.98835">
        <ele>306</ele>
        <time>2024-09-01T09:05:20Z</time>
      </trkpt>
      <trkpt lat="47.0716" lon="5.98834">
        <ele>306</ele>
        <time>2024-09-01T09:05:21Z</time>
      </trkpt>
      <trkpt lat="47.0716" lon="5.98834">
        <ele>306</ele>
        <time>2024-09-01T09:05:22Z</time>
      </trkpt>
      <trkpt lat="47.0716" lon="5.98834">
        <ele>306</ele>
        <time>2024-09-01T09:05:23Z</time>
      </trkpt>
      <trkpt lat="47.07161" lon="5.98835">
        <ele>306</ele>
        <time>2024-09-01T09:05:24Z</time>
      </trkpt>
      <trkpt lat="47.07161" lon="5.98835">
        <ele>306</ele>
        <time>2024-09-01T09:05:25Z</time>
      </trkpt>
      <trkpt lat="47.07161" lon="5.98835">
        <ele>305.8</ele>
        <time>2024-09-01T09:05:26Z</time>
      </trkpt>
      <trkpt lat="47.07161" lon="5.98835">
        <ele>305.8</ele>
        <time>2024-09-01T09:05:27Z</time>
      </trkpt>
      <trkpt lat="47.07161" lon="5.98835">
        <ele>306</ele>
        <time>2024-09-01T09:05:28Z</time>
      </trkpt>
      <trkpt lat="47.07161" lon="5.98835">
        <ele>306</ele>
        <time>2024-09-01T09:05:29Z</time>
      </trkpt>
      <trkpt lat="47.07161" lon="5.98834">
        <ele>306</ele>
        <time>2024-09-01T09:05:30Z</time>
      </trkpt>
      <trkpt lat="47.0716" lon="5.98834">
        <ele>306</ele>
        <time>2024-09-01T09:05:31Z</time>
      </trkpt>
      <trkpt lat="47.0716" lon="5.98834">
        <ele>306</ele>
        <time>2024-09-01T09:05:32Z</time>
      </trkpt>
      <trkpt lat="47.0716" lon="5.98834">
        <ele>305.8</ele>
        <time>2024-09-01T09:05:33Z</time>
      </trkpt>
      <trkpt lat="47.07159" lon="5.98833">
        <ele>305.8</ele>
        <time>2024-09-01T09:05:34Z</time>
      </trkpt>
      <trkpt lat="47.07159" lon="5.98833">
        <ele>305.8</ele>
        <time>2024-09-01T09:05:35Z</time>
      </trkpt>
      <trkpt lat="47.07158" lon="5.98833">
        <ele>305.8</ele>
        <time>2024-09-01T09:05:36Z</time>
      </trkpt>
      <trkpt lat="47.07158" lon="5.98834">
        <ele>305.8</ele>
        <time>2024-09-01T09:05:37Z</time>
      </trkpt>
      <trkpt lat="47.07157" lon="5.98834">
        <ele>305.8</ele>
        <time>2024-09-01T09:05:38Z</time>
      </trkpt>
      <trkpt lat="47.07157" lon="5.98834">
        <ele>305.8</ele>
        <time>2024-09-01T09:05:39Z</time>
      </trkpt>
      <trkpt lat="47.07157" lon="5.98835">
        <ele>305.8</ele>
        <time>2024-09-01T09:05:40Z</time>
      </trkpt>
      <trkpt lat="47.07157" lon="5.98835">
        <ele>305.8</ele>
        <time>2024-09-01T09:05:41Z</time>
      </trkpt>
      <trkpt lat="47.07158" lon="5.98835">
        <ele>305.8</ele>
        <time>2024-09-01T09:05:42Z</time>
      </trkpt>
      <trkpt lat="47.07158" lon="5.98835">
        <ele>305.8</ele>
        <time>2024-09-01T09:05:43Z</time>
      </trkpt>
      <trkpt lat="47.07158" lon="5.98835">
        <ele>305.8</ele>
        <time>2024-09-01T09:05:44Z</time>
      </trkpt>
      <trkpt lat="47.07158" lon="5.98835">
        <ele>305.8</ele>
        <time>2024-09-01T09:05:45Z</time>
      </trkpt>
      <trkpt lat="47.07159" lon="5.98835">
        <ele>305.8</ele>
        <time>2024-09-01T09:05:46Z</time>
      </trkpt>
      <trkpt lat="47.0716" lon="5.98834">
        <ele>305.8</ele>
        <time>2024-09-01T09:05:47Z</time>
      </trkpt>
      <trkpt lat="47.07161" lon="5.98834">
        <ele>305.8</ele>
        <time>2024-09-01T09:05:48Z</time>
      </trkpt>
      <trkpt lat="47.07162" lon="5.98834">
        <ele>305.6</ele>
        <time>2024-09-01T09:05:49Z</time>
      </trkpt>
      <trkpt lat="47.07163" lon="5.98835">
        <ele>305.6</ele>
        <time>2024-09-01T09:05:50Z</time>
      </trkpt>
      <trkpt lat="47.07164" lon="5.98835">
        <ele>305.6</ele>
        <time>2024-09-01T09:05:51Z</time>
      </trkpt>
      <trkpt lat="47.07164" lon="5.98835">
        <ele>305.6</ele>
        <time>2024-09-01T09:05:52Z</time>
      </trkpt>
      <trkpt lat="47.07165" lon="5.98834">
        <ele>305.6</ele>
        <time>2024-09-01T09:05:53Z</time>
      </trkpt>
      <trkpt lat="47.07165" lon="5.98834">
        <ele>305.6</ele>
        <time>2024-09-01T09:05:54Z</time>
      </trkpt>
      <trkpt lat="47.07165" lon="5.98834">
        <ele>305.6</ele>
        <time>2024-09-01T09:05:55Z</time>
      </trkpt>
      <trkpt lat="47.07166" lon="5.98833">
        <ele>305.8</ele>
        <time>2024-09-01T09:05:56Z</time>
      </trkpt>
      <trkpt lat="47.07166" lon="5.98833">
        <ele>305.6</ele>
        <time>2024-09-01T09:05:57Z</time>
      </trkpt>
      <trkpt lat="47.07166" lon="5.98832">
        <ele>305.6</ele>
        <time>2024-09-01T09:05:58Z</time>
      </trkpt>
      <trkpt lat="47.07166" lon="5.98832">
        <ele>305.6</ele>
        <time>2024-09-01T09:05:59Z</time>
      </trkpt>
      <trkpt lat="47.07166" lon="5.98832">
        <ele>305.4</ele>
        <time>2024-09-01T09:06:00Z</time>
      </trkpt>
      <trkpt lat="47.07166" lon="5.98832">
        <ele>305.6</ele>
        <time>2024-09-01T09:06:01Z</time>
      </trkpt>
      <trkpt lat="47.07167" lon="5.98832">
        <ele>305.6</ele>
        <time>2024-09-01T09:06:02Z</time>
      </trkpt>
      <trkpt lat="47.07167" lon="5.98832">
        <ele>305.6</ele>
        <time>2024-09-01T09:06:03Z</time>
      </trkpt>
      <trkpt lat="47.07167" lon="5.98832">
        <ele>305.4</ele>
        <time>2024-09-01T09:06:04Z</time>
      </trkpt>
      <trkpt lat="47.07167" lon="5.98832">
        <ele>305.6</ele>
        <time>2024-09-01T09:06:05Z</time>
      </trkpt>
      <trkpt lat="47.07167" lon="5.98832">
        <ele>305.6</ele>
        <time>2024-09-01T09:06:06Z</time>
      </trkpt>
      <trkpt lat="47.07167" lon="5.98831">
        <ele>305.6</ele>
        <time>2024-09-01T09:06:07Z</time>
      </trkpt>
      <trkpt lat="47.07167" lon="5.98831">
        <ele>305.6</ele>
        <time>2024-09-01T09:06:08Z</time>
      </trkpt>
      <trkpt lat="47.07167" lon="5.98831">
        <ele>305.4</ele>
        <time>2024-09-01T09:06:09Z</time>
      </trkpt>
      <trkpt lat="47.07167" lon="5.98831">
        <ele>305.6</ele>
        <time>2024-09-01T09:06:10Z</time>
      </trkpt>
      <trkpt lat="47.07167" lon="5.98831">
        <ele>305.6</ele>
        <time>2024-09-01T09:06:11Z</time>
      </trkpt>
      <trkpt lat="47.07167" lon="5.98831">
        <ele>305.6</ele>
        <time>2024-09-01T09:06:12Z</time>
      </trkpt>
      <trkpt lat="47.07167" lon="5.98831">
        <ele>305.6</ele>
        <time>2024-09-01T09:06:13Z</time>
      </trkpt>
      <trkpt lat="47.07167" lon="5.9883">
        <ele>305.6</ele>
        <time>2024-09-01T09:06:14Z</time>
      </trkpt>
      <trkpt lat="47.07166" lon="5.9883">
        <ele>305.6</ele>
        <time>2024-09-01T09:06:15Z</time>
      </trkpt>
      <trkpt lat="47.07166" lon="5.9883">
        <ele>305.6</ele>
        <time>2024-09-01T09:06:16Z</time>
      </trkpt>
      <trkpt lat="47.07166" lon="5.98829">
        <ele>305.6</ele>
        <time>2024-09-01T09:06:17Z</time>
      </trkpt>
      <trkpt lat="47.07166" lon="5.98829">
        <ele>305.6</ele>
        <time>2024-09-01T09:06:18Z</time>
      </trkpt>
      <trkpt lat="47.07166" lon="5.9883">
        <ele>305.6</ele>
        <time>2024-09-01T09:06:19Z</time>
      </trkpt>
      <trkpt lat="47.07166" lon="5.9883">
        <ele>305.6</ele>
        <time>2024-09-01T09:06:20Z</time>
      </trkpt>
      <trkpt lat="47.07166" lon="5.98831">
        <ele>305.6</ele>
        <time>2024-09-01T09:06:21Z</time>
      </trkpt>
      <trkpt lat="47.07167" lon="5.98831">
        <ele>305.8</ele>
        <time>2024-09-01T09:06:22Z</time>
      </trkpt>
      <trkpt lat="47.07166" lon="5.98831">
        <ele>305.6</ele>
        <time>2024-09-01T09:06:23Z</time>
      </trkpt>
      <trkpt lat="47.07166" lon="5.98831">
        <ele>305.8</ele>
        <time>2024-09-01T09:06:24Z</time>
      </trkpt>
      <trkpt lat="47.07165" lon="5.98831">
        <ele>305.6</ele>
        <time>2024-09-01T09:06:25Z</time>
      </trkpt>
      <trkpt lat="47.07165" lon="5.9883">
        <ele>305.8</ele>
        <time>2024-09-01T09:06:26Z</time>
      </trkpt>
      <trkpt lat="47.07165" lon="5.9883">
        <ele>305.6</ele>
        <time>2024-09-01T09:06:27Z</time>
      </trkpt>
      <trkpt lat="47.07165" lon="5.9883">
        <ele>305.6</ele>
        <time>2024-09-01T09:06:28Z</time>
      </trkpt>
      <trkpt lat="47.07165" lon="5.9883">
        <ele>305.6</ele>
        <time>2024-09-01T09:06:29Z</time>
      </trkpt>
      <trkpt lat="47.07165" lon="5.9883">
        <ele>305.6</ele>
        <time>2024-09-01T09:06:30Z</time>
      </trkpt>
      <trkpt lat="47.07165" lon="5.9883">
        <ele>305.6</ele>
        <time>2024-09-01T09:06:31Z</time>
      </trkpt>
      <trkpt lat="47.07165" lon="5.9883">
        <ele>305.6</ele>
        <time>2024-09-01T09:06:32Z</time>
      </trkpt>
      <trkpt lat="47.07165" lon="5.9883">
        <ele>305.4</ele>
        <time>2024-09-01T09:06:33Z</time>
      </trkpt>
      <trkpt lat="47.07165" lon="5.9883">
        <ele>305.6</ele>
        <time>2024-09-01T09:06:34Z</time>
      </trkpt>
      <trkpt lat="47.07165" lon="5.9883">
        <ele>305.6</ele>
        <time>2024-09-01T09:06:35Z</time>
      </trkpt>
      <trkpt lat="47.07165" lon="5.9883">
        <ele>305.6</ele>
        <time>2024-09-01T09:06:36Z</time>
      </trkpt>
      <trkpt lat="47.07165" lon="5.9883">
        <ele>305.4</ele>
        <time>2024-09-01T09:06:37Z</time>
      </trkpt>
      <trkpt lat="47.07165" lon="5.9883">
        <ele>305.4</ele>
        <time>2024-09-01T09:06:38Z</time>
      </trkpt>
      <trkpt lat="47.07165" lon="5.98831">
        <ele>305.4</ele>
        <time>2024-09-01T09:06:39Z</time>
      </trkpt>
      <trkpt lat="47.07165" lon="5.98832">
        <ele>305.4</ele>
        <time>2024-09-01T09:06:40Z</time>
      </trkpt>
      <trkpt lat="47.07165" lon="5.98832">
        <ele>305.4</ele>
        <time>2024-09-01T09:06:41Z</time>
      </trkpt>
      <trkpt lat="47.07165" lon="5.98833">
        <ele>305.2</ele>
        <time>2024-09-01T09:06:42Z</time>
      </trkpt>
      <trkpt lat="47.07165" lon="5.98833">
        <ele>305.4</ele>
        <time>2024-09-01T09:06:43Z</time>
      </trkpt>
      <trkpt lat="47.07165" lon="5.98833">
        <ele>305.4</ele>
        <time>2024-09-01T09:06:44Z</time>
      </trkpt>
      <trkpt lat="47.07165" lon="5.98833">
        <ele>305.4</ele>
        <time>2024-09-01T09:06:45Z</time>
      </trkpt>
      <trkpt lat="47.07165" lon="5.98833">
        <ele>305.2</ele>
        <time>2024-09-01T09:06:46Z</time>
      </trkpt>
      <trkpt lat="47.07165" lon="5.98833">
        <ele>305.4</ele>
        <time>2024-09-01T09:06:47Z</time>
      </trkpt>
      <trkpt lat="47.07165" lon="5.98833">
        <ele>305.4</ele>
        <time>2024-09-01T09:06:48Z</time>
      </trkpt>
      <trkpt lat="47.07165" lon="5.98833">
        <ele>305.4</ele>
        <time>2024-09-01T09:06:49Z</time>
      </trkpt>
      <trkpt lat="47.07165" lon="5.98833">
        <ele>305.2</ele>
        <time>2024-09-01T09:06:50Z</time>
      </trkpt>
      <trkpt lat="47.07165" lon="5.98833">
        <ele>305.2</ele>
        <time>2024-09-01T09:06:51Z</time>
      </trkpt>
      <trkpt lat="47.07165" lon="5.98833">
        <ele>305.4</ele>
        <time>2024-09-01T09:06:52Z</time>
      </trkpt>
      <trkpt lat="47.07164" lon="5.98834">
        <ele>305.2</ele>
        <time>2024-09-01T09:06:53Z</time>
      </trkpt>
      <trkpt lat="47.07163" lon="5.98834">
        <ele>305.4</ele>
        <time>2024-09-01T09:06:54Z</time>
      </trkpt>
      <trkpt lat="47.07162" lon="5.98834">
        <ele>305.4</ele>
        <time>2024-09-01T09:06:55Z</time>
      </trkpt>
      <trkpt lat="47.07162" lon="5.98834">
        <ele>305.4</ele>
        <time>2024-09-01T09:06:56Z</time>
      </trkpt>
      <trkpt lat="47.07162" lon="5.98834">
        <ele>305.4</ele>
        <time>2024-09-01T09:06:57Z</time>
      </trkpt>
      <trkpt lat="47.07162" lon="5.98833">
        <ele>305.4</ele>
        <time>2024-09-01T09:06:58Z</time>
      </trkpt>
      <trkpt lat="47.07162" lon="5.98832">
        <ele>305.4</ele>
        <time>2024-09-01T09:06:59Z</time>
      </trkpt>
      <trkpt lat="47.07162" lon="5.98831">
        <ele>305.6</ele>
        <time>2024-09-01T09:07:00Z</time>
      </trkpt>
      <trkpt lat="47.07162" lon="5.98831">
        <ele>305.4</ele>
        <time>2024-09-01T09:07:01Z</time>
      </trkpt>
      <trkpt lat="47.07162" lon="5.9883">
        <ele>305.6</ele>
        <time>2024-09-01T09:07:02Z</time>
      </trkpt>
      <trkpt lat="47.07161" lon="5.98828">
        <ele>305.4</ele>
        <time>2024-09-01T09:07:03Z</time>
      </trkpt>
      <trkpt lat="47.07159" lon="5.98825">
        <ele>305.4</ele>
        <time>2024-09-01T09:07:04Z</time>
      </trkpt>
      <trkpt lat="47.07157" lon="5.98822">
        <ele>305.4</ele>
        <time>2024-09-01T09:07:05Z</time>
      </trkpt>
      <trkpt lat="47.07157" lon="5.98819">
        <ele>305.4</ele>
        <time>2024-09-01T09:07:06Z</time>
      </trkpt>
      <trkpt lat="47.07156" lon="5.98817">
        <ele>305.4</ele>
        <time>2024-09-01T09:07:07Z</time>
      </trkpt>
      <trkpt lat="47.07156" lon="5.98814">
        <ele>305.4</ele>
        <time>2024-09-01T09:07:08Z</time>
      </trkpt>
      <trkpt lat="47.07155" lon="5.98811">
        <ele>305.2</ele>
        <time>2024-09-01T09:07:09Z</time>
      </trkpt>
      <trkpt lat="47.07156" lon="5.98808">
        <ele>305.2</ele>
        <time>2024-09-01T09:07:10Z</time>
      </trkpt>
      <trkpt lat="47.07155" lon="5.98804">
        <ele>305.2</ele>
        <time>2024-09-01T09:07:11Z</time>
      </trkpt>
      <trkpt lat="47.07156" lon="5.98801">
        <ele>305</ele>
        <time>2024-09-01T09:07:12Z</time>
      </trkpt>
      <trkpt lat="47.07156" lon="5.98798">
        <ele>305.2</ele>
        <time>2024-09-01T09:07:13Z</time>
      </trkpt>
      <trkpt lat="47.07158" lon="5.98795">
        <ele>305.2</ele>
        <time>2024-09-01T09:07:14Z</time>
      </trkpt>
      <trkpt lat="47.0716" lon="5.98792">
        <ele>305</ele>
        <time>2024-09-01T09:07:15Z</time>
      </trkpt>
      <trkpt lat="47.07163" lon="5.9879">
        <ele>305</ele>
        <time>2024-09-01T09:07:16Z</time>
      </trkpt>
      <trkpt lat="47.07165" lon="5.98787">
        <ele>305</ele>
        <time>2024-09-01T09:07:17Z</time>
      </trkpt>
      <trkpt lat="47.07167" lon="5.98784">
        <ele>305</ele>
        <time>2024-09-01T09:07:18Z</time>
      </trkpt>
      <trkpt lat="47.0717" lon="5.98782">
        <ele>305</ele>
        <time>2024-09-01T09:07:19Z</time>
      </trkpt>
      <trkpt lat="47.07172" lon="5.98779">
        <ele>305</ele>
        <time>2024-09-01T09:07:20Z</time>
      </trkpt>
      <trkpt lat="47.07175" lon="5.98776">
        <ele>305</ele>
        <time>2024-09-01T09:07:21Z</time>
      </trkpt>
      <trkpt lat="47.07178" lon="5.98774">
        <ele>305</ele>
        <time>2024-09-01T09:07:22Z</time>
      </trkpt>
      <trkpt lat="47.0718" lon="5.98771">
        <ele>305</ele>
        <time>2024-09-01T09:07:23Z</time>
      </trkpt>
      <trkpt lat="47.07183" lon="5.98769">
        <ele>304.8</ele>
        <time>2024-09-01T09:07:24Z</time>
      </trkpt>
      <trkpt lat="47.07186" lon="5.98766">
        <ele>304.8</ele>
        <time>2024-09-01T09:07:25Z</time>
      </trkpt>
      <trkpt lat="47.07188" lon="5.98763">
        <ele>304.8</ele>
        <time>2024-09-01T09:07:26Z</time>
      </trkpt>
      <trkpt lat="47.07191" lon="5.9876">
        <ele>304.8</ele>
        <time>2024-09-01T09:07:27Z</time>
      </trkpt>
      <trkpt lat="47.07193" lon="5.98757">
        <ele>304.8</ele>
        <time>2024-09-01T09:07:28Z</time>
      </trkpt>
      <trkpt lat="47.07195" lon="5.98752">
        <ele>304.8</ele>
        <time>2024-09-01T09:07:29Z</time>
      </trkpt>
      <trkpt lat="47.07197" lon="5.98747">
        <ele>304.8</ele>
        <time>2024-09-01T09:07:30Z</time>
      </trkpt>
      <trkpt lat="47.07198" lon="5.98741">
        <ele>304.6</ele>
        <time>2024-09-01T09:07:31Z</time>
      </trkpt>
      <trkpt lat="47.07198" lon="5.98734">
        <ele>304.8</ele>
        <time>2024-09-01T09:07:32Z</time>
      </trkpt>
      <trkpt lat="47.07199" lon="5.98728">
        <ele>304.8</ele>
        <time>2024-09-01T09:07:33Z</time>
      </trkpt>
      <trkpt lat="47.07199" lon="5.98722">
        <ele>304.8</ele>
        <time>2024-09-01T09:07:34Z</time>
      </trkpt>
      <trkpt lat="47.07199" lon="5.98715">
        <ele>304.8</ele>
        <time>2024-09-01T09:07:35Z</time>
      </trkpt>
      <trkpt lat="47.072" lon="5.98709">
        <ele>304.6</ele>
        <time>2024-09-01T09:07:36Z</time>
      </trkpt>
      <trkpt lat="47.07201" lon="5.98703">
        <ele>304.6</ele>
        <time>2024-09-01T09:07:37Z</time>
      </trkpt>
      <trkpt lat="47.07202" lon="5.98698">
        <ele>304.6</ele>
        <time>2024-09-01T09:07:38Z</time>
      </trkpt>
      <trkpt lat="47.07203" lon="5.98692">
        <ele>304.8</ele>
        <time>2024-09-01T09:07:39Z</time>
      </trkpt>
      <trkpt lat="47.07204" lon="5.98685">
        <ele>304.6</ele>
        <time>2024-09-01T09:07:40Z</time>
      </trkpt>
      <trkpt lat="47.07205" lon="5.98679">
        <ele>304.6</ele>
        <time>2024-09-01T09:07:41Z</time>
      </trkpt>
      <trkpt lat="47.07205" lon="5.98672">
        <ele>304.4</ele>
        <time>2024-09-01T09:07:42Z</time>
      </trkpt>
      <trkpt lat="47.07204" lon="5.98665">
        <ele>304.2</ele>
        <time>2024-09-01T09:07:43Z</time>
      </trkpt>
      <trkpt lat="47.07204" lon="5.98658">
        <ele>304.4</ele>
        <time>2024-09-01T09:07:44Z</time>
      </trkpt>
      <trkpt lat="47.07204" lon="5.98652">
        <ele>304.4</ele>
        <time>2024-09-01T09:07:45Z</time>
      </trkpt>
      <trkpt lat="47.07204" lon="5.98645">
        <ele>304.2</ele>
        <time>2024-09-01T09:07:46Z</time>
      </trkpt>
      <trkpt lat="47.07206" lon="5.98637">
        <ele>304</ele>
        <time>2024-09-01T09:07:47Z</time>
      </trkpt>
      <trkpt lat="47.07206" lon="5.98629">
        <ele>304</ele>
        <time>2024-09-01T09:07:48Z</time>
      </trkpt>
      <trkpt lat="47.07206" lon="5.9862">
        <ele>304</ele>
        <time>2024-09-01T09:07:49Z</time>
      </trkpt>
      <trkpt lat="47.07207" lon="5.98611">
        <ele>303.8</ele>
        <time>2024-09-01T09:07:50Z</time>
      </trkpt>
      <trkpt lat="47.07207" lon="5.98603">
        <ele>303.8</ele>
        <time>2024-09-01T09:07:51Z</time>
      </trkpt>
      <trkpt lat="47.07208" lon="5.98594">
        <ele>303.8</ele>
        <time>2024-09-01T09:07:52Z</time>
      </trkpt>
      <trkpt lat="47.07209" lon="5.98585">
        <ele>303.6</ele>
        <time>2024-09-01T09:07:53Z</time>
      </trkpt>
      <trkpt lat="47.07211" lon="5.98577">
        <ele>303.8</ele>
        <time>2024-09-01T09:07:54Z</time>
      </trkpt>
      <trkpt lat="47.07211" lon="5.98568">
        <ele>303.6</ele>
        <time>2024-09-01T09:07:55Z</time>
      </trkpt>
      <trkpt lat="47.07212" lon="5.9856">
        <ele>303.6</ele>
        <time>2024-09-01T09:07:56Z</time>
      </trkpt>
      <trkpt lat="47.07213" lon="5.98552">
        <ele>303.6</ele>
        <time>2024-09-01T09:07:57Z</time>
      </trkpt>
      <trkpt lat="47.07213" lon="5.98543">
        <ele>303.8</ele>
        <time>2024-09-01T09:07:58Z</time>
      </trkpt>
      <trkpt lat="47.07215" lon="5.98535">
        <ele>303.6</ele>
        <time>2024-09-01T09:07:59Z</time>
      </trkpt>
      <trkpt lat="47.07216" lon="5.98527">
        <ele>303.8</ele>
        <time>2024-09-01T09:08:00Z</time>
      </trkpt>
      <trkpt lat="47.07217" lon="5.98519">
        <ele>303.8</ele>
        <time>2024-09-01T09:08:01Z</time>
      </trkpt>
      <trkpt lat="47.07218" lon="5.98511">
        <ele>303.8</ele>
        <time>2024-09-01T09:08:02Z</time>
      </trkpt>
      <trkpt lat="47.07219" lon="5.98503">
        <ele>303.8</ele>
        <time>2024-09-01T09:08:03Z</time>
      </trkpt>
      <trkpt lat="47.0722" lon="5.98495">
        <ele>303.8</ele>
        <time>2024-09-01T09:08:04Z</time>
      </trkpt>
      <trkpt lat="47.07221" lon="5.98486">
        <ele>303.6</ele>
        <time>2024-09-01T09:08:05Z</time>
      </trkpt>
      <trkpt lat="47.07222" lon="5.98478">
        <ele>303.6</ele>
        <time>2024-09-01T09:08:06Z</time>
      </trkpt>
      <trkpt lat="47.07222" lon="5.9847">
        <ele>303.8</ele>
        <time>2024-09-01T09:08:07Z</time>
      </trkpt>
      <trkpt lat="47.07224" lon="5.98462">
        <ele>303.8</ele>
        <time>2024-09-01T09:08:08Z</time>
      </trkpt>
      <trkpt lat="47.07226" lon="5.98453">
        <ele>303.6</ele>
        <time>2024-09-01T09:08:09Z</time>
      </trkpt>
      <trkpt lat="47.07228" lon="5.98444">
        <ele>303.6</ele>
        <time>2024-09-01T09:08:10Z</time>
      </trkpt>
      <trkpt lat="47.0723" lon="5.98436">
        <ele>303.6</ele>
        <time>2024-09-01T09:08:11Z</time>
      </trkpt>
      <trkpt lat="47.07231" lon="5.98427">
        <ele>303.6</ele>
        <time>2024-09-01T09:08:12Z</time>
      </trkpt>
      <trkpt lat="47.07233" lon="5.98419">
        <ele>303.4</ele>
        <time>2024-09-01T09:08:13Z</time>
      </trkpt>
      <trkpt lat="47.07234" lon="5.98411">
        <ele>303.6</ele>
        <time>2024-09-01T09:08:14Z</time>
      </trkpt>
      <trkpt lat="47.07235" lon="5.98402">
        <ele>303.6</ele>
        <time>2024-09-01T09:08:15Z</time>
      </trkpt>
      <trkpt lat="47.07237" lon="5.98393">
        <ele>303.6</ele>
        <time>2024-09-01T09:08:16Z</time>
      </trkpt>
      <trkpt lat="47.07239" lon="5.98386">
        <ele>303.6</ele>
        <time>2024-09-01T09:08:17Z</time>
      </trkpt>
      <trkpt lat="47.07242" lon="5.98378">
        <ele>303.6</ele>
        <time>2024-09-01T09:08:18Z</time>
      </trkpt>
      <trkpt lat="47.07243" lon="5.98369">
        <ele>303.4</ele>
        <time>2024-09-01T09:08:19Z</time>
      </trkpt>
      <trkpt lat="47.07244" lon="5.98361">
        <ele>303.6</ele>
        <time>2024-09-01T09:08:20Z</time>
      </trkpt>
      <trkpt lat="47.07246" lon="5.98352">
        <ele>303.6</ele>
        <time>2024-09-01T09:08:21Z</time>
      </trkpt>
      <trkpt lat="47.07248" lon="5.98344">
        <ele>303.6</ele>
        <time>2024-09-01T09:08:22Z</time>
      </trkpt>
      <trkpt lat="47.0725" lon="5.98336">
        <ele>303.6</ele>
        <time>2024-09-01T09:08:23Z</time>
      </trkpt>
      <trkpt lat="47.07252" lon="5.98328">
        <ele>303.8</ele>
        <time>2024-09-01T09:08:24Z</time>
      </trkpt>
      <trkpt lat="47.07254" lon="5.98321">
        <ele>303.6</ele>
        <time>2024-09-01T09:08:25Z</time>
      </trkpt>
      <trkpt lat="47.07256" lon="5.98313">
        <ele>303.8</ele>
        <time>2024-09-01T09:08:26Z</time>
      </trkpt>
      <trkpt lat="47.07257" lon="5.98305">
        <ele>303.6</ele>
        <time>2024-09-01T09:08:27Z</time>
      </trkpt>
      <trkpt lat="47.07259" lon="5.98297">
        <ele>303.4</ele>
        <time>2024-09-01T09:08:28Z</time>
      </trkpt>
      <trkpt lat="47.0726" lon="5.98289">
        <ele>303.6</ele>
        <time>2024-09-01T09:08:29Z</time>
      </trkpt>
      <trkpt lat="47.07263" lon="5.98282">
        <ele>303.6</ele>
        <time>2024-09-01T09:08:30Z</time>
      </trkpt>
      <trkpt lat="47.07265" lon="5.98274">
        <ele>303.6</ele>
        <time>2024-09-01T09:08:31Z</time>
      </trkpt>
      <trkpt lat="47.07265" lon="5.98266">
        <ele>303.6</ele>
        <time>2024-09-01T09:08:32Z</time>
      </trkpt>
      <trkpt lat="47.07266" lon="5.98258">
        <ele>303.8</ele>
        <time>2024-09-01T09:08:33Z</time>
      </trkpt>
      <trkpt lat="47.07268" lon="5.9825">
        <ele>303.8</ele>
        <time>2024-09-01T09:08:34Z</time>
      </trkpt>
      <trkpt lat="47.07269" lon="5.98242">
        <ele>303.8</ele>
        <time>2024-09-01T09:08:35Z</time>
      </trkpt>
      <trkpt lat="47.07271" lon="5.98234">
        <ele>303.6</ele>
        <time>2024-09-01T09:08:36Z</time>
      </trkpt>
      <trkpt lat="47.07273" lon="5.98226">
        <ele>303.6</ele>
        <time>2024-09-01T09:08:37Z</time>
      </trkpt>
      <trkpt lat="47.07278" lon="5.98219">
        <ele>303.8</ele>
        <time>2024-09-01T09:08:38Z</time>
      </trkpt>
      <trkpt lat="47.0728" lon="5.98211">
        <ele>303.8</ele>
        <time>2024-09-01T09:08:39Z</time>
      </trkpt>
      <trkpt lat="47.07282" lon="5.98204">
        <ele>303.8</ele>
        <time>2024-09-01T09:08:40Z</time>
      </trkpt>
      <trkpt lat="47.07283" lon="5.98196">
        <ele>303.6</ele>
        <time>2024-09-01T09:08:41Z</time>
      </trkpt>
      <trkpt lat="47.07285" lon="5.98189">
        <ele>303.6</ele>
        <time>2024-09-01T09:08:42Z</time>
      </trkpt>
      <trkpt lat="47.07286" lon="5.98181">
        <ele>303.6</ele>
        <time>2024-09-01T09:08:43Z</time>
      </trkpt>
      <trkpt lat="47.07289" lon="5.98174">
        <ele>303.6</ele>
        <time>2024-09-01T09:08:44Z</time>
      </trkpt>
      <trkpt lat="47.07291" lon="5.98166">
        <ele>303.6</ele>
        <time>2024-09-01T09:08:45Z</time>
      </trkpt>
      <trkpt lat="47.07294" lon="5.98159">
        <ele>303.6</ele>
        <time>2024-09-01T09:08:46Z</time>
      </trkpt>
      <trkpt lat="47.07297" lon="5.98152">
        <ele>303.6</ele>
        <time>2024-09-01T09:08:47Z</time>
      </trkpt>
      <trkpt lat="47.073" lon="5.98146">
        <ele>303.8</ele>
        <time>2024-09-01T09:08:48Z</time>
      </trkpt>
      <trkpt lat="47.07303" lon="5.98139">
        <ele>303.8</ele>
        <time>2024-09-01T09:08:49Z</time>
      </trkpt>
      <trkpt lat="47.07307" lon="5.98133">
        <ele>303.8</ele>
        <time>2024-09-01T09:08:50Z</time>
      </trkpt>
      <trkpt lat="47.07311" lon="5.98127">
        <ele>303.8</ele>
        <time>2024-09-01T09:08:51Z</time>
      </trkpt>
      <trkpt lat="47.07315" lon="5.98121">
        <ele>303.8</ele>
        <time>2024-09-01T09:08:52Z</time>
      </trkpt>
      <trkpt lat="47.07318" lon="5.98114">
        <ele>303.8</ele>
        <time>2024-09-01T09:08:53Z</time>
      </trkpt>
      <trkpt lat="47.07321" lon="5.98108">
        <ele>303.8</ele>
        <time>2024-09-01T09:08:54Z</time>
      </trkpt>
      <trkpt lat="47.07324" lon="5.98102">
        <ele>304</ele>
        <time>2024-09-01T09:08:55Z</time>
      </trkpt>
      <trkpt lat="47.07328" lon="5.98097">
        <ele>303.8</ele>
        <time>2024-09-01T09:08:56Z</time>
      </trkpt>
      <trkpt lat="47.07332" lon="5.98091">
        <ele>303.8</ele>
        <time>2024-09-01T09:08:57Z</time>
      </trkpt>
      <trkpt lat="47.07335" lon="5.98084">
        <ele>304</ele>
        <time>2024-09-01T09:08:58Z</time>
      </trkpt>
      <trkpt lat="47.07339" lon="5.98078">
        <ele>304</ele>
        <time>2024-09-01T09:08:59Z</time>
      </trkpt>
      <trkpt lat="47.07343" lon="5.98072">
        <ele>304</ele>
        <time>2024-09-01T09:09:00Z</time>
      </trkpt>
      <trkpt lat="47.07347" lon="5.98066">
        <ele>304</ele>
        <time>2024-09-01T09:09:01Z</time>
      </trkpt>
      <trkpt lat="47.07351" lon="5.9806">
        <ele>304</ele>
        <time>2024-09-01T09:09:02Z</time>
      </trkpt>
      <trkpt lat="47.07355" lon="5.98053">
        <ele>304</ele>
        <time>2024-09-01T09:09:03Z</time>
      </trkpt>
      <trkpt lat="47.0736" lon="5.98048">
        <ele>304</ele>
        <time>2024-09-01T09:09:04Z</time>
      </trkpt>
      <trkpt lat="47.07363" lon="5.98041">
        <ele>304</ele>
        <time>2024-09-01T09:09:05Z</time>
      </trkpt>
      <trkpt lat="47.07367" lon="5.98036">
        <ele>304.2</ele>
        <time>2024-09-01T09:09:06Z</time>
      </trkpt>
      <trkpt lat="47.07371" lon="5.9803">
        <ele>304.2</ele>
        <time>2024-09-01T09:09:07Z</time>
      </trkpt>
      <trkpt lat="47.07376" lon="5.98025">
        <ele>304.2</ele>
        <time>2024-09-01T09:09:08Z</time>
      </trkpt>
      <trkpt lat="47.0738" lon="5.9802">
        <ele>304.2</ele>
        <time>2024-09-01T09:09:09Z</time>
      </trkpt>
      <trkpt lat="47.07383" lon="5.98013">
        <ele>304.2</ele>
        <time>2024-09-01T09:09:10Z</time>
      </trkpt>
      <trkpt lat="47.07387" lon="5.98007">
        <ele>304.2</ele>
        <time>2024-09-01T09:09:11Z</time>
      </trkpt>
      <trkpt lat="47.0739" lon="5.98001">
        <ele>304.2</ele>
        <time>2024-09-01T09:09:12Z</time>
      </trkpt>
      <trkpt lat="47.07393" lon="5.97996">
        <ele>304.2</ele>
        <time>2024-09-01T09:09:13Z</time>
      </trkpt>
      <trkpt lat="47.07396" lon="5.9799">
        <ele>304.2</ele>
        <time>2024-09-01T09:09:14Z</time>
      </trkpt>
      <trkpt lat="47.07399" lon="5.97985">
        <ele>304.2</ele>
        <time>2024-09-01T09:09:15Z</time>
      </trkpt>
      <trkpt lat="47.07402" lon="5.9798">
        <ele>304.4</ele>
        <time>2024-09-01T09:09:16Z</time>
      </trkpt>
      <trkpt lat="47.07406" lon="5.97975">
        <ele>304.2</ele>
        <time>2024-09-01T09:09:17Z</time>
      </trkpt>
      <trkpt lat="47.0741" lon="5.9797">
        <ele>304.2</ele>
        <time>2024-09-01T09:09:18Z</time>
      </trkpt>
      <trkpt lat="47.07414" lon="5.97966">
        <ele>304.2</ele>
        <time>2024-09-01T09:09:19Z</time>
      </trkpt>
      <trkpt lat="47.07418" lon="5.97963">
        <ele>304.2</ele>
        <time>2024-09-01T09:09:20Z</time>
      </trkpt>
      <trkpt lat="47.07422" lon="5.97959">
        <ele>304.2</ele>
        <time>2024-09-01T09:09:21Z</time>
      </trkpt>
      <trkpt lat="47.07426" lon="5.97955">
        <ele>304.4</ele>
        <time>2024-09-01T09:09:22Z</time>
      </trkpt>
      <trkpt lat="47.07431" lon="5.97951">
        <ele>304.2</ele>
        <time>2024-09-01T09:09:23Z</time>
      </trkpt>
      <trkpt lat="47.07435" lon="5.97948">
        <ele>304.2</ele>
        <time>2024-09-01T09:09:24Z</time>
      </trkpt>
      <trkpt lat="47.0744" lon="5.97944">
        <ele>304.2</ele>
        <time>2024-09-01T09:09:25Z</time>
      </trkpt>
      <trkpt lat="47.07445" lon="5.97939">
        <ele>304.2</ele>
        <time>2024-09-01T09:09:26Z</time>
      </trkpt>
      <trkpt lat="47.0745" lon="5.97935">
        <ele>304.2</ele>
        <time>2024-09-01T09:09:27Z</time>
      </trkpt>
      <trkpt lat="47.07455" lon="5.97931">
        <ele>304.2</ele>
        <time>2024-09-01T09:09:28Z</time>
      </trkpt>
      <trkpt lat="47.0746" lon="5.97928">
        <ele>304.4</ele>
        <time>2024-09-01T09:09:29Z</time>
      </trkpt>
      <trkpt lat="47.07466" lon="5.97923">
        <ele>304.4</ele>
        <time>2024-09-01T09:09:30Z</time>
      </trkpt>
      <trkpt lat="47.07471" lon="5.97921">
        <ele>304.2</ele>
        <time>2024-09-01T09:09:31Z</time>
      </trkpt>
      <trkpt lat="47.07477" lon="5.97918">
        <ele>304.4</ele>
        <time>2024-09-01T09:09:32Z</time>
      </trkpt>
      <trkpt lat="47.07482" lon="5.97915">
        <ele>304.2</ele>
        <time>2024-09-01T09:09:33Z</time>
      </trkpt>
      <trkpt lat="47.07487" lon="5.97913">
        <ele>304.2</ele>
        <time>2024-09-01T09:09:34Z</time>
      </trkpt>
      <trkpt lat="47.07493" lon="5.97911">
        <ele>304.2</ele>
        <time>2024-09-01T09:09:35Z</time>
      </trkpt>
      <trkpt lat="47.07498" lon="5.97909">
        <ele>304.2</ele>
        <time>2024-09-01T09:09:36Z</time>
      </trkpt>
      <trkpt lat="47.07504" lon="5.97908">
        <ele>304.2</ele>
        <time>2024-09-01T09:09:37Z</time>
      </trkpt>
      <trkpt lat="47.0751" lon="5.97907">
        <ele>304.2</ele>
        <time>2024-09-01T09:09:38Z</time>
      </trkpt>
      <trkpt lat="47.07517" lon="5.97907">
        <ele>304</ele>
        <time>2024-09-01T09:09:39Z</time>
      </trkpt>
      <trkpt lat="47.07524" lon="5.9791">
        <ele>304.2</ele>
        <time>2024-09-01T09:09:40Z</time>
      </trkpt>
      <trkpt lat="47.07531" lon="5.9791">
        <ele>304.2</ele>
        <time>2024-09-01T09:09:41Z</time>
      </trkpt>
      <trkpt lat="47.07538" lon="5.97912">
        <ele>304.2</ele>
        <time>2024-09-01T09:09:42Z</time>
      </trkpt>
      <trkpt lat="47.07543" lon="5.97913">
        <ele>304</ele>
        <time>2024-09-01T09:09:43Z</time>
      </trkpt>
      <trkpt lat="47.07549" lon="5.97913">
        <ele>304.2</ele>
        <time>2024-09-01T09:09:44Z</time>
      </trkpt>
      <trkpt lat="47.07555" lon="5.97915">
        <ele>304</ele>
        <time>2024-09-01T09:09:45Z</time>
      </trkpt>
      <trkpt lat="47.07561" lon="5.97916">
        <ele>304</ele>
        <time>2024-09-01T09:09:46Z</time>
      </trkpt>
      <trkpt lat="47.07567" lon="5.97917">
        <ele>304</ele>
        <time>2024-09-01T09:09:47Z</time>
      </trkpt>
      <trkpt lat="47.07572" lon="5.97918">
        <ele>304</ele>
        <time>2024-09-01T09:09:48Z</time>
      </trkpt>
      <trkpt lat="47.07578" lon="5.97919">
        <ele>304</ele>
        <time>2024-09-01T09:09:49Z</time>
      </trkpt>
      <trkpt lat="47.07584" lon="5.9792">
        <ele>304</ele>
        <time>2024-09-01T09:09:50Z</time>
      </trkpt>
      <trkpt lat="47.07589" lon="5.97922">
        <ele>304</ele>
        <time>2024-09-01T09:09:51Z</time>
      </trkpt>
      <trkpt lat="47.07594" lon="5.97924">
        <ele>304</ele>
        <time>2024-09-01T09:09:52Z</time>
      </trkpt>
      <trkpt lat="47.07599" lon="5.97926">
        <ele>304</ele>
        <time>2024-09-01T09:09:53Z</time>
      </trkpt>
      <trkpt lat="47.07604" lon="5.97927">
        <ele>304</ele>
        <time>2024-09-01T09:09:54Z</time>
      </trkpt>
      <trkpt lat="47.07609" lon="5.97929">
        <ele>304</ele>
        <time>2024-09-01T09:09:55Z</time>
      </trkpt>
      <trkpt lat="47.07614" lon="5.97932">
        <ele>304</ele>
        <time>2024-09-01T09:09:56Z</time>
      </trkpt>
      <trkpt lat="47.07619" lon="5.97935">
        <ele>304</ele>
        <time>2024-09-01T09:09:57Z</time>
      </trkpt>
      <trkpt lat="47.07624" lon="5.97939">
        <ele>304.2</ele>
        <time>2024-09-01T09:09:58Z</time>
      </trkpt>
      <trkpt lat="47.07629" lon="5.97943">
        <ele>304</ele>
        <time>2024-09-01T09:09:59Z</time>
      </trkpt>
      <trkpt lat="47.07633" lon="5.97947">
        <ele>304.2</ele>
        <time>2024-09-01T09:10:00Z</time>
      </trkpt>
      <trkpt lat="47.07638" lon="5.97952">
        <ele>304.2</ele>
        <time>2024-09-01T09:10:01Z</time>
      </trkpt>
      <trkpt lat="47.07643" lon="5.97956">
        <ele>304.2</ele>
        <time>2024-09-01T09:10:02Z</time>
      </trkpt>
      <trkpt lat="47.07648" lon="5.9796">
        <ele>304</ele>
        <time>2024-09-01T09:10:03Z</time>
      </trkpt>
      <trkpt lat="47.07653" lon="5.97964">
        <ele>304.2</ele>
        <time>2024-09-01T09:10:04Z</time>
      </trkpt>
      <trkpt lat="47.07658" lon="5.97968">
        <ele>304.2</ele>
        <time>2024-09-01T09:10:05Z</time>
      </trkpt>
      <trkpt lat="47.07663" lon="5.97973">
        <ele>304.2</ele>
        <time>2024-09-01T09:10:06Z</time>
      </trkpt>
      <trkpt lat="47.07668" lon="5.97977">
        <ele>304.2</ele>
        <time>2024-09-01T09:10:07Z</time>
      </trkpt>
      <trkpt lat="47.07673" lon="5.97981">
        <ele>304.4</ele>
        <time>2024-09-01T09:10:08Z</time>
      </trkpt>
      <trkpt lat="47.07678" lon="5.97985">
        <ele>304.4</ele>
        <time>2024-09-01T09:10:09Z</time>
      </trkpt>
      <trkpt lat="47.07683" lon="5.9799">
        <ele>304.4</ele>
        <time>2024-09-01T09:10:10Z</time>
      </trkpt>
      <trkpt lat="47.07688" lon="5.97994">
        <ele>304.4</ele>
        <time>2024-09-01T09:10:11Z</time>
      </trkpt>
      <trkpt lat="47.07693" lon="5.97998">
        <ele>304.4</ele>
        <time>2024-09-01T09:10:12Z</time>
      </trkpt>
      <trkpt lat="47.07698" lon="5.98002">
        <ele>304.2</ele>
        <time>2024-09-01T09:10:13Z</time>
      </trkpt>
      <trkpt lat="47.07704" lon="5.98006">
        <ele>304.4</ele>
        <time>2024-09-01T09:10:14Z</time>
      </trkpt>
      <trkpt lat="47.07709" lon="5.98011">
        <ele>304.4</ele>
        <time>2024-09-01T09:10:15Z</time>
      </trkpt>
      <trkpt lat="47.07714" lon="5.98014">
        <ele>304.2</ele>
        <time>2024-09-01T09:10:16Z</time>
      </trkpt>
      <trkpt lat="47.07719" lon="5.98018">
        <ele>304.2</ele>
        <time>2024-09-01T09:10:17Z</time>
      </trkpt>
      <trkpt lat="47.07725" lon="5.98021">
        <ele>304.2</ele>
        <time>2024-09-01T09:10:18Z</time>
      </trkpt>
      <trkpt lat="47.0773" lon="5.98025">
        <ele>304.2</ele>
        <time>2024-09-01T09:10:19Z</time>
      </trkpt>
      <trkpt lat="47.07735" lon="5.9803">
        <ele>304.2</ele>
        <time>2024-09-01T09:10:20Z</time>
      </trkpt>
      <trkpt lat="47.0774" lon="5.98034">
        <ele>304.2</ele>
        <time>2024-09-01T09:10:21Z</time>
      </trkpt>
      <trkpt lat="47.07745" lon="5.98038">
        <ele>304.2</ele>
        <time>2024-09-01T09:10:22Z</time>
      </trkpt>
      <trkpt lat="47.0775" lon="5.98043">
        <ele>304.2</ele>
        <time>2024-09-01T09:10:23Z</time>
      </trkpt>
      <trkpt lat="47.07754" lon="5.98047">
        <ele>304.2</ele>
        <time>2024-09-01T09:10:24Z</time>
      </trkpt>
      <trkpt lat="47.07759" lon="5.98052">
        <ele>304.2</ele>
        <time>2024-09-01T09:10:25Z</time>
      </trkpt>
      <trkpt lat="47.07763" lon="5.98056">
        <ele>304</ele>
        <time>2024-09-01T09:10:26Z</time>
      </trkpt>
      <trkpt lat="47.07768" lon="5.9806">
        <ele>304.2</ele>
        <time>2024-09-01T09:10:27Z</time>
      </trkpt>
      <trkpt lat="47.07772" lon="5.98065">
        <ele>304.2</ele>
        <time>2024-09-01T09:10:28Z</time>
      </trkpt>
      <trkpt lat="47.07777" lon="5.9807">
        <ele>303.8</ele>
        <time>2024-09-01T09:10:29Z</time>
      </trkpt>
      <trkpt lat="47.07781" lon="5.98077">
        <ele>303.8</ele>
        <time>2024-09-01T09:10:30Z</time>
      </trkpt>
      <trkpt lat="47.07786" lon="5.98083">
        <ele>303.6</ele>
        <time>2024-09-01T09:10:31Z</time>
      </trkpt>
      <trkpt lat="47.0779" lon="5.98089">
        <ele>303.6</ele>
        <time>2024-09-01T09:10:32Z</time>
      </trkpt>
      <trkpt lat="47.07795" lon="5.98094">
        <ele>303.6</ele>
        <time>2024-09-01T09:10:33Z</time>
      </trkpt>
      <trkpt lat="47.078" lon="5.981">
        <ele>303.6</ele>
        <time>2024-09-01T09:10:34Z</time>
      </trkpt>
      <trkpt lat="47.07804" lon="5.98105">
        <ele>303.4</ele>
        <time>2024-09-01T09:10:35Z</time>
      </trkpt>
      <trkpt lat="47.07808" lon="5.9811">
        <ele>303.4</ele>
        <time>2024-09-01T09:10:36Z</time>
      </trkpt>
      <trkpt lat="47.07813" lon="5.98116">
        <ele>303.4</ele>
        <time>2024-09-01T09:10:37Z</time>
      </trkpt>
      <trkpt lat="47.07817" lon="5.98121">
        <ele>303.4</ele>
        <time>2024-09-01T09:10:38Z</time>
      </trkpt>
      <trkpt lat="47.07821" lon="5.98126">
        <ele>303.4</ele>
        <time>2024-09-01T09:10:39Z</time>
      </trkpt>
      <trkpt lat="47.07826" lon="5.98132">
        <ele>303.6</ele>
        <time>2024-09-01T09:10:40Z</time>
      </trkpt>
      <trkpt lat="47.0783" lon="5.98137">
        <ele>303.4</ele>
        <time>2024-09-01T09:10:41Z</time>
      </trkpt>
      <trkpt lat="47.07835" lon="5.98143">
        <ele>303.4</ele>
        <time>2024-09-01T09:10:42Z</time>
      </trkpt>
      <trkpt lat="47.0784" lon="5.98147">
        <ele>303.4</ele>
        <time>2024-09-01T09:10:43Z</time>
      </trkpt>
      <trkpt lat="47.07845" lon="5.98153">
        <ele>303.6</ele>
        <time>2024-09-01T09:10:44Z</time>
      </trkpt>
      <trkpt lat="47.0785" lon="5.98158">
        <ele>303.6</ele>
        <time>2024-09-01T09:10:45Z</time>
      </trkpt>
      <trkpt lat="47.07854" lon="5.98164">
        <ele>303.4</ele>
        <time>2024-09-01T09:10:46Z</time>
      </trkpt>
      <trkpt lat="47.07859" lon="5.9817">
        <ele>303.4</ele>
        <time>2024-09-01T09:10:47Z</time>
      </trkpt>
      <trkpt lat="47.07864" lon="5.98176">
        <ele>303.4</ele>
        <time>2024-09-01T09:10:48Z</time>
      </trkpt>
      <trkpt lat="47.07868" lon="5.98182">
        <ele>303.6</ele>
        <time>2024-09-01T09:10:49Z</time>
      </trkpt>
      <trkpt lat="47.07872" lon="5.98187">
        <ele>303.4</ele>
        <time>2024-09-01T09:10:50Z</time>
      </trkpt>
      <trkpt lat="47.07877" lon="5.98192">
        <ele>303.6</ele>
        <time>2024-09-01T09:10:51Z</time>
      </trkpt>
      <trkpt lat="47.07881" lon="5.98198">
        <ele>303.6</ele>
        <time>2024-09-01T09:10:52Z</time>
      </trkpt>
      <trkpt lat="47.07886" lon="5.98203">
        <ele>303.6</ele>
        <time>2024-09-01T09:10:53Z</time>
      </trkpt>
      <trkpt lat="47.0789" lon="5.98209">
        <ele>303.6</ele>
        <time>2024-09-01T09:10:54Z</time>
      </trkpt>
      <trkpt lat="47.07895" lon="5.98216">
        <ele>303.6</ele>
        <time>2024-09-01T09:10:55Z</time>
      </trkpt>
      <trkpt lat="47.07899" lon="5.98222">
        <ele>303.6</ele>
        <time>2024-09-01T09:10:56Z</time>
      </trkpt>
      <trkpt lat="47.07904" lon="5.98227">
        <ele>303.6</ele>
        <time>2024-09-01T09:10:57Z</time>
      </trkpt>
      <trkpt lat="47.07908" lon="5.98233">
        <ele>303.4</ele>
        <time>2024-09-01T09:10:58Z</time>
      </trkpt>
      <trkpt lat="47.07913" lon="5.98238">
        <ele>303.6</ele>
        <time>2024-09-01T09:10:59Z</time>
      </trkpt>
      <trkpt lat="47.07918" lon="5.98243">
        <ele>303.4</ele>
        <time>2024-09-01T09:11:00Z</time>
      </trkpt>
      <trkpt lat="47.07922" lon="5.98247">
        <ele>303.6</ele>
        <time>2024-09-01T09:11:01Z</time>
      </trkpt>
      <trkpt lat="47.07927" lon="5.98252">
        <ele>303.6</ele>
        <time>2024-09-01T09:11:02Z</time>
      </trkpt>
      <trkpt lat="47.07931" lon="5.98256">
        <ele>303.6</ele>
        <time>2024-09-01T09:11:03Z</time>
      </trkpt>
      <trkpt lat="47.07936" lon="5.98261">
        <ele>303.4</ele>
        <time>2024-09-01T09:11:04Z</time>
      </trkpt>
      <trkpt lat="47.07941" lon="5.98265">
        <ele>303.4</ele>
        <time>2024-09-01T09:11:05Z</time>
      </trkpt>
      <trkpt lat="47.07945" lon="5.98268">
        <ele>303.6</ele>
        <time>2024-09-01T09:11:06Z</time>
      </trkpt>
      <trkpt lat="47.0795" lon="5.98272">
        <ele>303.6</ele>
        <time>2024-09-01T09:11:07Z</time>
      </trkpt>
      <trkpt lat="47.07955" lon="5.98276">
        <ele>303.6</ele>
        <time>2024-09-01T09:11:08Z</time>
      </trkpt>
      <trkpt lat="47.0796" lon="5.9828">
        <ele>303.6</ele>
        <time>2024-09-01T09:11:09Z</time>
      </trkpt>
      <trkpt lat="47.07964" lon="5.98284">
        <ele>303.8</ele>
        <time>2024-09-01T09:11:10Z</time>
      </trkpt>
      <trkpt lat="47.0797" lon="5.98287">
        <ele>303.6</ele>
        <time>2024-09-01T09:11:11Z</time>
      </trkpt>
      <trkpt lat="47.07975" lon="5.9829">
        <ele>303.8</ele>
        <time>2024-09-01T09:11:12Z</time>
      </trkpt>
      <trkpt lat="47.0798" lon="5.98294">
        <ele>303.8</ele>
        <time>2024-09-01T09:11:13Z</time>
      </trkpt>
      <trkpt lat="47.07986" lon="5.98297">
        <ele>303.6</ele>
        <time>2024-09-01T09:11:14Z</time>
      </trkpt>
      <trkpt lat="47.07991" lon="5.98301">
        <ele>303.6</ele>
        <time>2024-09-01T09:11:15Z</time>
      </trkpt>
      <trkpt lat="47.07996" lon="5.98305">
        <ele>303.8</ele>
        <time>2024-09-01T09:11:16Z</time>
      </trkpt>
      <trkpt lat="47.08002" lon="5.98308">
        <ele>303.8</ele>
        <time>2024-09-01T09:11:17Z</time>
      </trkpt>
      <trkpt lat="47.08006" lon="5.98313">
        <ele>303.8</ele>
        <time>2024-09-01T09:11:18Z</time>
      </trkpt>
      <trkpt lat="47.08011" lon="5.98317">
        <ele>303.8</ele>
        <time>2024-09-01T09:11:19Z</time>
      </trkpt>
      <trkpt lat="47.08016" lon="5.98321">
        <ele>303.8</ele>
        <time>2024-09-01T09:11:20Z</time>
      </trkpt>
      <trkpt lat="47.08021" lon="5.98324">
        <ele>303.8</ele>
        <time>2024-09-01T09:11:21Z</time>
      </trkpt>
      <trkpt lat="47.08026" lon="5.98328">
        <ele>303.8</ele>
        <time>2024-09-01T09:11:22Z</time>
      </trkpt>
      <trkpt lat="47.08031" lon="5.98331">
        <ele>304</ele>
        <time>2024-09-01T09:11:23Z</time>
      </trkpt>
      <trkpt lat="47.08036" lon="5.98334">
        <ele>303.8</ele>
        <time>2024-09-01T09:11:24Z</time>
      </trkpt>
      <trkpt lat="47.08041" lon="5.98337">
        <ele>303.8</ele>
        <time>2024-09-01T09:11:25Z</time>
      </trkpt>
      <trkpt lat="47.08046" lon="5.9834">
        <ele>303.8</ele>
        <time>2024-09-01T09:11:26Z</time>
      </trkpt>
      <trkpt lat="47.08051" lon="5.98342">
        <ele>303.6</ele>
        <time>2024-09-01T09:11:27Z</time>
      </trkpt>
      <trkpt lat="47.08057" lon="5.98345">
        <ele>303.8</ele>
        <time>2024-09-01T09:11:28Z</time>
      </trkpt>
      <trkpt lat="47.08062" lon="5.98349">
        <ele>303.6</ele>
        <time>2024-09-01T09:11:29Z</time>
      </trkpt>
      <trkpt lat="47.08068" lon="5.98352">
        <ele>303.8</ele>
        <time>2024-09-01T09:11:30Z</time>
      </trkpt>
      <trkpt lat="47.08073" lon="5.98356">
        <ele>303.8</ele>
        <time>2024-09-01T09:11:31Z</time>
      </trkpt>
      <trkpt lat="47.08078" lon="5.98358">
        <ele>303.6</ele>
        <time>2024-09-01T09:11:32Z</time>
      </trkpt>
      <trkpt lat="47.08084" lon="5.98361">
        <ele>303.6</ele>
        <time>2024-09-01T09:11:33Z</time>
      </trkpt>
      <trkpt lat="47.08088" lon="5.98361">
        <ele>303.6</ele>
        <time>2024-09-01T09:11:34Z</time>
      </trkpt>
      <trkpt lat="47.08093" lon="5.98363">
        <ele>303.6</ele>
        <time>2024-09-01T09:11:35Z</time>
      </trkpt>
      <trkpt lat="47.08099" lon="5.98366">
        <ele>303.6</ele>
        <time>2024-09-01T09:11:36Z</time>
      </trkpt>
      <trkpt lat="47.08104" lon="5.98368">
        <ele>303.6</ele>
        <time>2024-09-01T09:11:37Z</time>
      </trkpt>
      <trkpt lat="47.0811" lon="5.98369">
        <ele>303.6</ele>
        <time>2024-09-01T09:11:38Z</time>
      </trkpt>
      <trkpt lat="47.08115" lon="5.98371">
        <ele>303.6</ele>
        <time>2024-09-01T09:11:39Z</time>
      </trkpt>
      <trkpt lat="47.08121" lon="5.98373">
        <ele>303.6</ele>
        <time>2024-09-01T09:11:40Z</time>
      </trkpt>
      <trkpt lat="47.08126" lon="5.98375">
        <ele>303.6</ele>
        <time>2024-09-01T09:11:41Z</time>
      </trkpt>
      <trkpt lat="47.08131" lon="5.98377">
        <ele>303.6</ele>
        <time>2024-09-01T09:11:42Z</time>
      </trkpt>
      <trkpt lat="47.08136" lon="5.98378">
        <ele>303.6</ele>
        <time>2024-09-01T09:11:43Z</time>
      </trkpt>
      <trkpt lat="47.0814" lon="5.98379">
        <ele>303.6</ele>
        <time>2024-09-01T09:11:44Z</time>
      </trkpt>
      <trkpt lat="47.08144" lon="5.9838">
        <ele>303.6</ele>
        <time>2024-09-01T09:11:45Z</time>
      </trkpt>
      <trkpt lat="47.08149" lon="5.98381">
        <ele>303.8</ele>
        <time>2024-09-01T09:11:46Z</time>
      </trkpt>
      <trkpt lat="47.08153" lon="5.98382">
        <ele>304</ele>
        <time>2024-09-01T09:11:47Z</time>
      </trkpt>
      <trkpt lat="47.08158" lon="5.98383">
        <ele>304</ele>
        <time>2024-09-01T09:11:48Z</time>
      </trkpt>
      <trkpt lat="47.08162" lon="5.98384">
        <ele>304</ele>
        <time>2024-09-01T09:11:49Z</time>
      </trkpt>
      <trkpt lat="47.08166" lon="5.98384">
        <ele>304</ele>
        <time>2024-09-01T09:11:50Z</time>
      </trkpt>
      <trkpt lat="47.08169" lon="5.98385">
        <ele>304.2</ele>
        <time>2024-09-01T09:11:51Z</time>
      </trkpt>
      <trkpt lat="47.08174" lon="5.98386">
        <ele>304.4</ele>
        <time>2024-09-01T09:11:52Z</time>
      </trkpt>
      <trkpt lat="47.08178" lon="5.98387">
        <ele>304.4</ele>
        <time>2024-09-01T09:11:53Z</time>
      </trkpt>
      <trkpt lat="47.08182" lon="5.98388">
        <ele>304.4</ele>
        <time>2024-09-01T09:11:54Z</time>
      </trkpt>
      <trkpt lat="47.08187" lon="5.9839">
        <ele>304.8</ele>
        <time>2024-09-01T09:11:55Z</time>
      </trkpt>
      <trkpt lat="47.08192" lon="5.98392">
        <ele>304.8</ele>
        <time>2024-09-01T09:11:56Z</time>
      </trkpt>
      <trkpt lat="47.08195" lon="5.98393">
        <ele>305</ele>
        <time>2024-09-01T09:11:57Z</time>
      </trkpt>
      <trkpt lat="47.08199" lon="5.98394">
        <ele>305.2</ele>
        <time>2024-09-01T09:11:58Z</time>
      </trkpt>
      <trkpt lat="47.08203" lon="5.98396">
        <ele>305.2</ele>
        <time>2024-09-01T09:11:59Z</time>
      </trkpt>
      <trkpt lat="47.08208" lon="5.98398">
        <ele>305.4</ele>
        <time>2024-09-01T09:12:00Z</time>
      </trkpt>
      <trkpt lat="47.08214" lon="5.98402">
        <ele>305.8</ele>
        <time>2024-09-01T09:12:01Z</time>
      </trkpt>
      <trkpt lat="47.08218" lon="5.98403">
        <ele>306</ele>
        <time>2024-09-01T09:12:02Z</time>
      </trkpt>
      <trkpt lat="47.08223" lon="5.98405">
        <ele>306.4</ele>
        <time>2024-09-01T09:12:03Z</time>
      </trkpt>
      <trkpt lat="47.08227" lon="5.98406">
        <ele>306.6</ele>
        <time>2024-09-01T09:12:04Z</time>
      </trkpt>
      <trkpt lat="47.08232" lon="5.98407">
        <ele>306.8</ele>
        <time>2024-09-01T09:12:05Z</time>
      </trkpt>
      <trkpt lat="47.08237" lon="5.98408">
        <ele>306.8</ele>
        <time>2024-09-01T09:12:06Z</time>
      </trkpt>
      <trkpt lat="47.08242" lon="5.98411">
        <ele>307</ele>
        <time>2024-09-01T09:12:07Z</time>
      </trkpt>
      <trkpt lat="47.08247" lon="5.98413">
        <ele>307.2</ele>
        <time>2024-09-01T09:12:08Z</time>
      </trkpt>
      <trkpt lat="47.08253" lon="5.98416">
        <ele>307.4</ele>
        <time>2024-09-01T09:12:09Z</time>
      </trkpt>
      <trkpt lat="47.08258" lon="5.98418">
        <ele>307.2</ele>
        <time>2024-09-01T09:12:10Z</time>
      </trkpt>
      <trkpt lat="47.08263" lon="5.98421">
        <ele>307.4</ele>
        <time>2024-09-01T09:12:11Z</time>
      </trkpt>
      <trkpt lat="47.08269" lon="5.98423">
        <ele>307.4</ele>
        <time>2024-09-01T09:12:12Z</time>
      </trkpt>
      <trkpt lat="47.08275" lon="5.98425">
        <ele>307.4</ele>
        <time>2024-09-01T09:12:13Z</time>
      </trkpt>
      <trkpt lat="47.08279" lon="5.98427">
        <ele>307.6</ele>
        <time>2024-09-01T09:12:14Z</time>
      </trkpt>
      <trkpt lat="47.08285" lon="5.98428">
        <ele>307.4</ele>
        <time>2024-09-01T09:12:15Z</time>
      </trkpt>
      <trkpt lat="47.08291" lon="5.98429">
        <ele>307.6</ele>
        <time>2024-09-01T09:12:16Z</time>
      </trkpt>
      <trkpt lat="47.08297" lon="5.98429">
        <ele>307.4</ele>
        <time>2024-09-01T09:12:17Z</time>
      </trkpt>
      <trkpt lat="47.08305" lon="5.98431">
        <ele>307.4</ele>
        <time>2024-09-01T09:12:18Z</time>
      </trkpt>
      <trkpt lat="47.08312" lon="5.98431">
        <ele>307.6</ele>
        <time>2024-09-01T09:12:19Z</time>
      </trkpt>
      <trkpt lat="47.08319" lon="5.98433">
        <ele>307.4</ele>
        <time>2024-09-01T09:12:20Z</time>
      </trkpt>
      <trkpt lat="47.08327" lon="5.98435">
        <ele>307.4</ele>
        <time>2024-09-01T09:12:21Z</time>
      </trkpt>
      <trkpt lat="47.08335" lon="5.98436">
        <ele>307.4</ele>
        <time>2024-09-01T09:12:22Z</time>
      </trkpt>
      <trkpt lat="47.08343" lon="5.98437">
        <ele>307</ele>
        <time>2024-09-01T09:12:23Z</time>
      </trkpt>
      <trkpt lat="47.0835" lon="5.98437">
        <ele>307</ele>
        <time>2024-09-01T09:12:24Z</time>
      </trkpt>
      <trkpt lat="47.08358" lon="5.98437">
        <ele>306.6</ele>
        <time>2024-09-01T09:12:25Z</time>
      </trkpt>
      <trkpt lat="47.08366" lon="5.98437">
        <ele>306.2</ele>
        <time>2024-09-01T09:12:26Z</time>
      </trkpt>
      <trkpt lat="47.08374" lon="5.98438">
        <ele>306</ele>
        <time>2024-09-01T09:12:27Z</time>
      </trkpt>
      <trkpt lat="47.08382" lon="5.98438">
        <ele>305.6</ele>
        <time>2024-09-01T09:12:28Z</time>
      </trkpt>
      <trkpt lat="47.08391" lon="5.98439">
        <ele>305.6</ele>
        <time>2024-09-01T09:12:29Z</time>
      </trkpt>
      <trkpt lat="47.08399" lon="5.9844">
        <ele>305.4</ele>
        <time>2024-09-01T09:12:30Z</time>
      </trkpt>
      <trkpt lat="47.08407" lon="5.98442">
        <ele>305</ele>
        <time>2024-09-01T09:12:31Z</time>
      </trkpt>
      <trkpt lat="47.08415" lon="5.98444">
        <ele>305</ele>
        <time>2024-09-01T09:12:32Z</time>
      </trkpt>
      <trkpt lat="47.08423" lon="5.98446">
        <ele>304.8</ele>
        <time>2024-09-01T09:12:33Z</time>
      </trkpt>
      <trkpt lat="47.0843" lon="5.98449">
        <ele>304.6</ele>
        <time>2024-09-01T09:12:34Z</time>
      </trkpt>
      <trkpt lat="47.08439" lon="5.9845">
        <ele>304.6</ele>
        <time>2024-09-01T09:12:35Z</time>
      </trkpt>
      <trkpt lat="47.08447" lon="5.98452">
        <ele>304.4</ele>
        <time>2024-09-01T09:12:36Z</time>
      </trkpt>
      <trkpt lat="47.08455" lon="5.98454">
        <ele>304.4</ele>
        <time>2024-09-01T09:12:37Z</time>
      </trkpt>
      <trkpt lat="47.08462" lon="5.98455">
        <ele>304.2</ele>
        <time>2024-09-01T09:12:38Z</time>
      </trkpt>
      <trkpt lat="47.0847" lon="5.98457">
        <ele>304</ele>
        <time>2024-09-01T09:12:39Z</time>
      </trkpt>
      <trkpt lat="47.08478" lon="5.98458">
        <ele>303.8</ele>
        <time>2024-09-01T09:12:40Z</time>
      </trkpt>
      <trkpt lat="47.08484" lon="5.98459">
        <ele>303.6</ele>
        <time>2024-09-01T09:12:41Z</time>
      </trkpt>
      <trkpt lat="47.08491" lon="5.9846">
        <ele>303.4</ele>
        <time>2024-09-01T09:12:42Z</time>
      </trkpt>
      <trkpt lat="47.08498" lon="5.98461">
        <ele>303.2</ele>
        <time>2024-09-01T09:12:43Z</time>
      </trkpt>
      <trkpt lat="47.08505" lon="5.98462">
        <ele>303.2</ele>
        <time>2024-09-01T09:12:44Z</time>
      </trkpt>
      <trkpt lat="47.08511" lon="5.98463">
        <ele>303.2</ele>
        <time>2024-09-01T09:12:45Z</time>
      </trkpt>
      <trkpt lat="47.08517" lon="5.98463">
        <ele>303</ele>
        <time>2024-09-01T09:12:46Z</time>
      </trkpt>
      <trkpt lat="47.08524" lon="5.98464">
        <ele>302.8</ele>
        <time>2024-09-01T09:12:47Z</time>
      </trkpt>
      <trkpt lat="47.0853" lon="5.98465">
        <ele>302.8</ele>
        <time>2024-09-01T09:12:48Z</time>
      </trkpt>
      <trkpt lat="47.08537" lon="5.98466">
        <ele>303</ele>
        <time>2024-09-01T09:12:49Z</time>
      </trkpt>
      <trkpt lat="47.08543" lon="5.98467">
        <ele>303</ele>
        <time>2024-09-01T09:12:50Z</time>
      </trkpt>
      <trkpt lat="47.08549" lon="5.98468">
        <ele>302.8</ele>
        <time>2024-09-01T09:12:51Z</time>
      </trkpt>
      <trkpt lat="47.08555" lon="5.98469">
        <ele>302.8</ele>
        <time>2024-09-01T09:12:52Z</time>
      </trkpt>
      <trkpt lat="47.08561" lon="5.9847">
        <ele>302.8</ele>
        <time>2024-09-01T09:12:53Z</time>
      </trkpt>
      <trkpt lat="47.08566" lon="5.98471">
        <ele>302.8</ele>
        <time>2024-09-01T09:12:54Z</time>
      </trkpt>
      <trkpt lat="47.08571" lon="5.98471">
        <ele>303</ele>
        <time>2024-09-01T09:12:55Z</time>
      </trkpt>
      <trkpt lat="47.08576" lon="5.98472">
        <ele>302.8</ele>
        <time>2024-09-01T09:12:56Z</time>
      </trkpt>
      <trkpt lat="47.08582" lon="5.98473">
        <ele>303</ele>
        <time>2024-09-01T09:12:57Z</time>
      </trkpt>
      <trkpt lat="47.08587" lon="5.98473">
        <ele>303</ele>
        <time>2024-09-01T09:12:58Z</time>
      </trkpt>
      <trkpt lat="47.08591" lon="5.98474">
        <ele>302.8</ele>
        <time>2024-09-01T09:12:59Z</time>
      </trkpt>
      <trkpt lat="47.08595" lon="5.98474">
        <ele>302.8</ele>
        <time>2024-09-01T09:13:00Z</time>
      </trkpt>
      <trkpt lat="47.08599" lon="5.98475">
        <ele>303</ele>
        <time>2024-09-01T09:13:01Z</time>
      </trkpt>
      <trkpt lat="47.08604" lon="5.98475">
        <ele>303</ele>
        <time>2024-09-01T09:13:02Z</time>
      </trkpt>
      <trkpt lat="47.08608" lon="5.98475">
        <ele>303</ele>
        <time>2024-09-01T09:13:03Z</time>
      </trkpt>
      <trkpt lat="47.08612" lon="5.98475">
        <ele>303.4</ele>
        <time>2024-09-01T09:13:04Z</time>
      </trkpt>
      <trkpt lat="47.08616" lon="5.98474">
        <ele>303.4</ele>
        <time>2024-09-01T09:13:05Z</time>
      </trkpt>
      <trkpt lat="47.0862" lon="5.98473">
        <ele>303.8</ele>
        <time>2024-09-01T09:13:06Z</time>
      </trkpt>
      <trkpt lat="47.08624" lon="5.98472">
        <ele>303.8</ele>
        <time>2024-09-01T09:13:07Z</time>
      </trkpt>
      <trkpt lat="47.08628" lon="5.98472">
        <ele>304.2</ele>
        <time>2024-09-01T09:13:08Z</time>
      </trkpt>
      <trkpt lat="47.08633" lon="5.98472">
        <ele>304.2</ele>
        <time>2024-09-01T09:13:09Z</time>
      </trkpt>
      <trkpt lat="47.08637" lon="5.98473">
        <ele>304.6</ele>
        <time>2024-09-01T09:13:10Z</time>
      </trkpt>
      <trkpt lat="47.08642" lon="5.98474">
        <ele>304.8</ele>
        <time>2024-09-01T09:13:11Z</time>
      </trkpt>
      <trkpt lat="47.08646" lon="5.98478">
        <ele>304.8</ele>
        <time>2024-09-01T09:13:12Z</time>
      </trkpt>
      <trkpt lat="47.0865" lon="5.98482">
        <ele>305</ele>
        <time>2024-09-01T09:13:13Z</time>
      </trkpt>
      <trkpt lat="47.08653" lon="5.98487">
        <ele>305</ele>
        <time>2024-09-01T09:13:14Z</time>
      </trkpt>
      <trkpt lat="47.08656" lon="5.98494">
        <ele>305.2</ele>
        <time>2024-09-01T09:13:15Z</time>
      </trkpt>
      <trkpt lat="47.08657" lon="5.98501">
        <ele>305.2</ele>
        <time>2024-09-01T09:13:16Z</time>
      </trkpt>
      <trkpt lat="47.08658" lon="5.98509">
        <ele>305.2</ele>
        <time>2024-09-01T09:13:17Z</time>
      </trkpt>
      <trkpt lat="47.08658" lon="5.98516">
        <ele>305.2</ele>
        <time>2024-09-01T09:13:18Z</time>
      </trkpt>
      <trkpt lat="47.08659" lon="5.98524">
        <ele>305.2</ele>
        <time>2024-09-01T09:13:19Z</time>
      </trkpt>
      <trkpt lat="47.08659" lon="5.98531">
        <ele>305.2</ele>
        <time>2024-09-01T09:13:20Z</time>
      </trkpt>
      <trkpt lat="47.08659" lon="5.98538">
        <ele>305.2</ele>
        <time>2024-09-01T09:13:21Z</time>
      </trkpt>
      <trkpt lat="47.0866" lon="5.98545">
        <ele>305.2</ele>
        <time>2024-09-01T09:13:22Z</time>
      </trkpt>
      <trkpt lat="47.0866" lon="5.98551">
        <ele>305.2</ele>
        <time>2024-09-01T09:13:23Z</time>
      </trkpt>
      <trkpt lat="47.0866" lon="5.98556">
        <ele>305.2</ele>
        <time>2024-09-01T09:13:24Z</time>
      </trkpt>
      <trkpt lat="47.0866" lon="5.98561">
        <ele>305.2</ele>
        <time>2024-09-01T09:13:25Z</time>
      </trkpt>
      <trkpt lat="47.08661" lon="5.98566">
        <ele>305.2</ele>
        <time>2024-09-01T09:13:26Z</time>
      </trkpt>
      <trkpt lat="47.08661" lon="5.9857">
        <ele>305.2</ele>
        <time>2024-09-01T09:13:27Z</time>
      </trkpt>
      <trkpt lat="47.08661" lon="5.98575">
        <ele>305.2</ele>
        <time>2024-09-01T09:13:28Z</time>
      </trkpt>
      <trkpt lat="47.08661" lon="5.9858">
        <ele>305.2</ele>
        <time>2024-09-01T09:13:29Z</time>
      </trkpt>
      <trkpt lat="47.08661" lon="5.98584">
        <ele>305</ele>
        <time>2024-09-01T09:13:30Z</time>
      </trkpt>
      <trkpt lat="47.08661" lon="5.98588">
        <ele>305.2</ele>
        <time>2024-09-01T09:13:31Z</time>
      </trkpt>
      <trkpt lat="47.08661" lon="5.98592">
        <ele>305.2</ele>
        <time>2024-09-01T09:13:32Z</time>
      </trkpt>
      <trkpt lat="47.08661" lon="5.98596">
        <ele>305.2</ele>
        <time>2024-09-01T09:13:33Z</time>
      </trkpt>
      <trkpt lat="47.08661" lon="5.98599">
        <ele>305.2</ele>
        <time>2024-09-01T09:13:34Z</time>
      </trkpt>
      <trkpt lat="47.08661" lon="5.98603">
        <ele>305.2</ele>
        <time>2024-09-01T09:13:35Z</time>
      </trkpt>
      <trkpt lat="47.08661" lon="5.98606">
        <ele>305.2</ele>
        <time>2024-09-01T09:13:36Z</time>
      </trkpt>
      <trkpt lat="47.08661" lon="5.98609">
        <ele>305.2</ele>
        <time>2024-09-01T09:13:37Z</time>
      </trkpt>
      <trkpt lat="47.08661" lon="5.98612">
        <ele>305.2</ele>
        <time>2024-09-01T09:13:38Z</time>
      </trkpt>
      <trkpt lat="47.08661" lon="5.98615">
        <ele>305.2</ele>
        <time>2024-09-01T09:13:39Z</time>
      </trkpt>
      <trkpt lat="47.08662" lon="5.98619">
        <ele>305.2</ele>
        <time>2024-09-01T09:13:40Z</time>
      </trkpt>
      <trkpt lat="47.08662" lon="5.98622">
        <ele>305.2</ele>
        <time>2024-09-01T09:13:41Z</time>
      </trkpt>
      <trkpt lat="47.08662" lon="5.98626">
        <ele>305.2</ele>
        <time>2024-09-01T09:13:42Z</time>
      </trkpt>
      <trkpt lat="47.08662" lon="5.9863">
        <ele>305</ele>
        <time>2024-09-01T09:13:43Z</time>
      </trkpt>
      <trkpt lat="47.08662" lon="5.98634">
        <ele>305.2</ele>
        <time>2024-09-01T09:13:44Z</time>
      </trkpt>
      <trkpt lat="47.08662" lon="5.98638">
        <ele>305.2</ele>
        <time>2024-09-01T09:13:45Z</time>
      </trkpt>
      <trkpt lat="47.08662" lon="5.98642">
        <ele>305.2</ele>
        <time>2024-09-01T09:13:46Z</time>
      </trkpt>
      <trkpt lat="47.08663" lon="5.98645">
        <ele>305.2</ele>
        <time>2024-09-01T09:13:47Z</time>
      </trkpt>
      <trkpt lat="47.08663" lon="5.98649">
        <ele>305.2</ele>
        <time>2024-09-01T09:13:48Z</time>
      </trkpt>
      <trkpt lat="47.08664" lon="5.98653">
        <ele>305.2</ele>
        <time>2024-09-01T09:13:49Z</time>
      </trkpt>
      <trkpt lat="47.08665" lon="5.98656">
        <ele>305</ele>
        <time>2024-09-01T09:13:50Z</time>
      </trkpt>
      <trkpt lat="47.08666" lon="5.9866">
        <ele>305.2</ele>
        <time>2024-09-01T09:13:51Z</time>
      </trkpt>
      <trkpt lat="47.08668" lon="5.98664">
        <ele>305</ele>
        <time>2024-09-01T09:13:52Z</time>
      </trkpt>
      <trkpt lat="47.0867" lon="5.98669">
        <ele>305</ele>
        <time>2024-09-01T09:13:53Z</time>
      </trkpt>
      <trkpt lat="47.08673" lon="5.98673">
        <ele>305</ele>
        <time>2024-09-01T09:13:54Z</time>
      </trkpt>
      <trkpt lat="47.08675" lon="5.98678">
        <ele>305.2</ele>
        <time>2024-09-01T09:13:55Z</time>
      </trkpt>
      <trkpt lat="47.08676" lon="5.98681">
        <ele>305</ele>
        <time>2024-09-01T09:13:56Z</time>
      </trkpt>
      <trkpt lat="47.08677" lon="5.98683">
        <ele>305</ele>
        <time>2024-09-01T09:13:57Z</time>
      </trkpt>
      <trkpt lat="47.08679" lon="5.98686">
        <ele>305</ele>
        <time>2024-09-01T09:13:58Z</time>
      </trkpt>
      <trkpt lat="47.0868" lon="5.98688">
        <ele>305</ele>
        <time>2024-09-01T09:13:59Z</time>
      </trkpt>
      <trkpt lat="47.08682" lon="5.9869">
        <ele>305</ele>
        <time>2024-09-01T09:14:00Z</time>
      </trkpt>
      <trkpt lat="47.08684" lon="5.98692">
        <ele>305</ele>
        <time>2024-09-01T09:14:01Z</time>
      </trkpt>
      <trkpt lat="47.08686" lon="5.98694">
        <ele>305</ele>
        <time>2024-09-01T09:14:02Z</time>
      </trkpt>
      <trkpt lat="47.08687" lon="5.98696">
        <ele>305</ele>
        <time>2024-09-01T09:14:03Z</time>
      </trkpt>
      <trkpt lat="47.0869" lon="5.98697">
        <ele>305.2</ele>
        <time>2024-09-01T09:14:04Z</time>
      </trkpt>
      <trkpt lat="47.08693" lon="5.98698">
        <ele>305.2</ele>
        <time>2024-09-01T09:14:05Z</time>
      </trkpt>
      <trkpt lat="47.08697" lon="5.98698">
        <ele>305.2</ele>
        <time>2024-09-01T09:14:06Z</time>
      </trkpt>
      <trkpt lat="47.08701" lon="5.98699">
        <ele>305.2</ele>
        <time>2024-09-01T09:14:07Z</time>
      </trkpt>
      <trkpt lat="47.08705" lon="5.98701">
        <ele>305.2</ele>
        <time>2024-09-01T09:14:08Z</time>
      </trkpt>
      <trkpt lat="47.08708" lon="5.98702">
        <ele>305.2</ele>
        <time>2024-09-01T09:14:09Z</time>
      </trkpt>
      <trkpt lat="47.08711" lon="5.98702">
        <ele>305.2</ele>
        <time>2024-09-01T09:14:10Z</time>
      </trkpt>
      <trkpt lat="47.08713" lon="5.98702">
        <ele>305.4</ele>
        <time>2024-09-01T09:14:11Z</time>
      </trkpt>
      <trkpt lat="47.08716" lon="5.98702">
        <ele>305.4</ele>
        <time>2024-09-01T09:14:12Z</time>
      </trkpt>
      <trkpt lat="47.08718" lon="5.98701">
        <ele>305.6</ele>
        <time>2024-09-01T09:14:13Z</time>
      </trkpt>
      <trkpt lat="47.08721" lon="5.98701">
        <ele>305.6</ele>
        <time>2024-09-01T09:14:14Z</time>
      </trkpt>
      <trkpt lat="47.08724" lon="5.98701">
        <ele>305.6</ele>
        <time>2024-09-01T09:14:15Z</time>
      </trkpt>
      <trkpt lat="47.08726" lon="5.98701">
        <ele>305.8</ele>
        <time>2024-09-01T09:14:16Z</time>
      </trkpt>
      <trkpt lat="47.08729" lon="5.98701">
        <ele>306.2</ele>
        <time>2024-09-01T09:14:17Z</time>
      </trkpt>
      <trkpt lat="47.08732" lon="5.98701">
        <ele>306.2</ele>
        <time>2024-09-01T09:14:18Z</time>
      </trkpt>
      <trkpt lat="47.08735" lon="5.98702">
        <ele>306.2</ele>
        <time>2024-09-01T09:14:19Z</time>
      </trkpt>
      <trkpt lat="47.08737" lon="5.98702">
        <ele>306.6</ele>
        <time>2024-09-01T09:14:20Z</time>
      </trkpt>
      <trkpt lat="47.0874" lon="5.98702">
        <ele>306.6</ele>
        <time>2024-09-01T09:14:21Z</time>
      </trkpt>
      <trkpt lat="47.08743" lon="5.98702">
        <ele>307</ele>
        <time>2024-09-01T09:14:22Z</time>
      </trkpt>
      <trkpt lat="47.08746" lon="5.98702">
        <ele>307.2</ele>
        <time>2024-09-01T09:14:23Z</time>
      </trkpt>
      <trkpt lat="47.08749" lon="5.98702">
        <ele>307.2</ele>
        <time>2024-09-01T09:14:24Z</time>
      </trkpt>
      <trkpt lat="47.08752" lon="5.98703">
        <ele>307.4</ele>
        <time>2024-09-01T09:14:25Z</time>
      </trkpt>
      <trkpt lat="47.08754" lon="5.98701">
        <ele>307.8</ele>
        <time>2024-09-01T09:14:26Z</time>
      </trkpt>
      <trkpt lat="47.08756" lon="5.98699">
        <ele>308</ele>
        <time>2024-09-01T09:14:27Z</time>
      </trkpt>
      <trkpt lat="47.08758" lon="5.98697">
        <ele>308.2</ele>
        <time>2024-09-01T09:14:28Z</time>
      </trkpt>
      <trkpt lat="47.0876" lon="5.98696">
        <ele>308.2</ele>
        <time>2024-09-01T09:14:29Z</time>
      </trkpt>
      <trkpt lat="47.08764" lon="5.98696">
        <ele>308.2</ele>
        <time>2024-09-01T09:14:30Z</time>
      </trkpt>
      <trkpt lat="47.08768" lon="5.98695">
        <ele>308.2</ele>
        <time>2024-09-01T09:14:31Z</time>
      </trkpt>
      <trkpt lat="47.08772" lon="5.98694">
        <ele>308.2</ele>
        <time>2024-09-01T09:14:32Z</time>
      </trkpt>
      <trkpt lat="47.08775" lon="5.98693">
        <ele>308.2</ele>
        <time>2024-09-01T09:14:33Z</time>
      </trkpt>
      <trkpt lat="47.08778" lon="5.9869">
        <ele>308.2</ele>
        <time>2024-09-01T09:14:34Z</time>
      </trkpt>
      <trkpt lat="47.0878" lon="5.98687">
        <ele>308.2</ele>
        <time>2024-09-01T09:14:35Z</time>
      </trkpt>
      <trkpt lat="47.08784" lon="5.98685">
        <ele>308.2</ele>
        <time>2024-09-01T09:14:36Z</time>
      </trkpt>
      <trkpt lat="47.08788" lon="5.98682">
        <ele>308.2</ele>
        <time>2024-09-01T09:14:37Z</time>
      </trkpt>
      <trkpt lat="47.08791" lon="5.98679">
        <ele>308</ele>
        <time>2024-09-01T09:14:38Z</time>
      </trkpt>
      <trkpt lat="47.08795" lon="5.98676">
        <ele>307.8</ele>
        <time>2024-09-01T09:14:39Z</time>
      </trkpt>
      <trkpt lat="47.088" lon="5.98673">
        <ele>307.8</ele>
        <time>2024-09-01T09:14:40Z</time>
      </trkpt>
      <trkpt lat="47.08804" lon="5.9867">
        <ele>307.8</ele>
        <time>2024-09-01T09:14:41Z</time>
      </trkpt>
      <trkpt lat="47.0881" lon="5.98667">
        <ele>307.6</ele>
        <time>2024-09-01T09:14:42Z</time>
      </trkpt>
      <trkpt lat="47.08819" lon="5.98666">
        <ele>307.6</ele>
        <time>2024-09-01T09:14:43Z</time>
      </trkpt>
      <trkpt lat="47.08824" lon="5.98665">
        <ele>307.2</ele>
        <time>2024-09-01T09:14:44Z</time>
      </trkpt>
      <trkpt lat="47.08829" lon="5.98662">
        <ele>307.2</ele>
        <time>2024-09-01T09:14:45Z</time>
      </trkpt>
      <trkpt lat="47.08835" lon="5.9866">
        <ele>306.8</ele>
        <time>2024-09-01T09:14:46Z</time>
      </trkpt>
      <trkpt lat="47.08839" lon="5.98657">
        <ele>306.8</ele>
        <time>2024-09-01T09:14:47Z</time>
      </trkpt>
      <trkpt lat="47.08842" lon="5.98653">
        <ele>306.6</ele>
        <time>2024-09-01T09:14:48Z</time>
      </trkpt>
      <trkpt lat="47.08846" lon="5.98649">
        <ele>306.4</ele>
        <time>2024-09-01T09:14:49Z</time>
      </trkpt>
      <trkpt lat="47.08857" lon="5.98649">
        <ele>306.4</ele>
        <time>2024-09-01T09:14:50Z</time>
      </trkpt>
      <trkpt lat="47.08865" lon="5.98648">
        <ele>306.2</ele>
        <time>2024-09-01T09:14:51Z</time>
      </trkpt>
      <trkpt lat="47.08871" lon="5.98645">
        <ele>306</ele>
        <time>2024-09-01T09:14:52Z</time>
      </trkpt>
      <trkpt lat="47.08879" lon="5.98644">
        <ele>305.8</ele>
        <time>2024-09-01T09:14:53Z</time>
      </trkpt>
      <trkpt lat="47.08884" lon="5.98642">
        <ele>306</ele>
        <time>2024-09-01T09:14:54Z</time>
      </trkpt>
      <trkpt lat="47.08889" lon="5.9864">
        <ele>305.8</ele>
        <time>2024-09-01T09:14:55Z</time>
      </trkpt>
      <trkpt lat="47.08894" lon="5.98638">
        <ele>305.6</ele>
        <time>2024-09-01T09:14:56Z</time>
      </trkpt>
      <trkpt lat="47.08899" lon="5.98635">
        <ele>305.6</ele>
        <time>2024-09-01T09:14:57Z</time>
      </trkpt>
      <trkpt lat="47.08905" lon="5.98634">
        <ele>305.8</ele>
        <time>2024-09-01T09:14:58Z</time>
      </trkpt>
      <trkpt lat="47.08916" lon="5.98637">
        <ele>305.6</ele>
        <time>2024-09-01T09:14:59Z</time>
      </trkpt>
      <trkpt lat="47.08924" lon="5.98637">
        <ele>305.6</ele>
        <time>2024-09-01T09:15:00Z</time>
      </trkpt>
      <trkpt lat="47.08932" lon="5.98638">
        <ele>305.4</ele>
        <time>2024-09-01T09:15:01Z</time>
      </trkpt>
      <trkpt lat="47.0894" lon="5.98637">
        <ele>305.4</ele>
        <time>2024-09-01T09:15:02Z</time>
      </trkpt>
      <trkpt lat="47.08947" lon="5.98635">
        <ele>305.4</ele>
        <time>2024-09-01T09:15:03Z</time>
      </trkpt>
      <trkpt lat="47.08954" lon="5.98632">
        <ele>305.4</ele>
        <time>2024-09-01T09:15:04Z</time>
      </trkpt>
      <trkpt lat="47.0896" lon="5.98629">
        <ele>305.2</ele>
        <time>2024-09-01T09:15:05Z</time>
      </trkpt>
      <trkpt lat="47.08966" lon="5.98626">
        <ele>305</ele>
        <time>2024-09-01T09:15:06Z</time>
      </trkpt>
      <trkpt lat="47.08975" lon="5.98626">
        <ele>305.2</ele>
        <time>2024-09-01T09:15:07Z</time>
      </trkpt>
      <trkpt lat="47.08981" lon="5.98623">
        <ele>305</ele>
        <time>2024-09-01T09:15:08Z</time>
      </trkpt>
      <trkpt lat="47.08986" lon="5.98621">
        <ele>304.8</ele>
        <time>2024-09-01T09:15:09Z</time>
      </trkpt>
      <trkpt lat="47.08991" lon="5.98618">
        <ele>304.8</ele>
        <time>2024-09-01T09:15:10Z</time>
      </trkpt>
      <trkpt lat="47.08997" lon="5.98615">
        <ele>304.6</ele>
        <time>2024-09-01T09:15:11Z</time>
      </trkpt>
      <trkpt lat="47.09005" lon="5.98615">
        <ele>304.6</ele>
        <time>2024-09-01T09:15:12Z</time>
      </trkpt>
      <trkpt lat="47.09011" lon="5.98614">
        <ele>304.6</ele>
        <time>2024-09-01T09:15:13Z</time>
      </trkpt>
      <trkpt lat="47.09015" lon="5.98612">
        <ele>304.6</ele>
        <time>2024-09-01T09:15:14Z</time>
      </trkpt>
      <trkpt lat="47.0902" lon="5.98609">
        <ele>304.4</ele>
        <time>2024-09-01T09:15:15Z</time>
      </trkpt>
      <trkpt lat="47.09024" lon="5.98607">
        <ele>304.6</ele>
        <time>2024-09-01T09:15:16Z</time>
      </trkpt>
      <trkpt lat="47.09029" lon="5.98605">
        <ele>304.4</ele>
        <time>2024-09-01T09:15:17Z</time>
      </trkpt>
      <trkpt lat="47.09031" lon="5.98602">
        <ele>304.4</ele>
        <time>2024-09-01T09:15:18Z</time>
      </trkpt>
      <trkpt lat="47.09034" lon="5.98599">
        <ele>304.4</ele>
        <time>2024-09-01T09:15:19Z</time>
      </trkpt>
      <trkpt lat="47.09036" lon="5.98597">
        <ele>304.4</ele>
        <time>2024-09-01T09:15:20Z</time>
      </trkpt>
      <trkpt lat="47.09039" lon="5.98597">
        <ele>304.4</ele>
        <time>2024-09-01T09:15:21Z</time>
      </trkpt>
      <trkpt lat="47.09043" lon="5.98599">
        <ele>304.2</ele>
        <time>2024-09-01T09:15:22Z</time>
      </trkpt>
      <trkpt lat="47.09044" lon="5.986">
        <ele>304.2</ele>
        <time>2024-09-01T09:15:23Z</time>
      </trkpt>
      <trkpt lat="47.09044" lon="5.98602">
        <ele>304.2</ele>
        <time>2024-09-01T09:15:24Z</time>
      </trkpt>
      <trkpt lat="47.09048" lon="5.98606">
        <ele>304.2</ele>
        <time>2024-09-01T09:15:25Z</time>
      </trkpt>
      <trkpt lat="47.0905" lon="5.98607">
        <ele>304.4</ele>
        <time>2024-09-01T09:15:26Z</time>
      </trkpt>
      <trkpt lat="47.09053" lon="5.9861">
        <ele>304.4</ele>
        <time>2024-09-01T09:15:27Z</time>
      </trkpt>
      <trkpt lat="47.09055" lon="5.98614">
        <ele>304.2</ele>
        <time>2024-09-01T09:15:28Z</time>
      </trkpt>
      <trkpt lat="47.09057" lon="5.98616">
        <ele>304</ele>
        <time>2024-09-01T09:15:29Z</time>
      </trkpt>
      <trkpt lat="47.09058" lon="5.98618">
        <ele>304.2</ele>
        <time>2024-09-01T09:15:30Z</time>
      </trkpt>
      <trkpt lat="47.09059" lon="5.98619">
        <ele>304.2</ele>
        <time>2024-09-01T09:15:31Z</time>
      </trkpt>
      <trkpt lat="47.0906" lon="5.98621">
        <ele>304.4</ele>
        <time>2024-09-01T09:15:32Z</time>
      </trkpt>
      <trkpt lat="47.09061" lon="5.98622">
        <ele>304.4</ele>
        <time>2024-09-01T09:15:33Z</time>
      </trkpt>
      <trkpt lat="47.09062" lon="5.98623">
        <ele>304.6</ele>
        <time>2024-09-01T09:15:34Z</time>
      </trkpt>
      <trkpt lat="47.09063" lon="5.98624">
        <ele>304.8</ele>
        <time>2024-09-01T09:15:35Z</time>
      </trkpt>
      <trkpt lat="47.09063" lon="5.98625">
        <ele>305</ele>
        <time>2024-09-01T09:15:36Z</time>
      </trkpt>
      <trkpt lat="47.09063" lon="5.98626">
        <ele>305.2</ele>
        <time>2024-09-01T09:15:37Z</time>
      </trkpt>
      <trkpt lat="47.09064" lon="5.98628">
        <ele>305.4</ele>
        <time>2024-09-01T09:15:38Z</time>
      </trkpt>
      <trkpt lat="47.09065" lon="5.98629">
        <ele>305.4</ele>
        <time>2024-09-01T09:15:39Z</time>
      </trkpt>
      <trkpt lat="47.09066" lon="5.98631">
        <ele>305.4</ele>
        <time>2024-09-01T09:15:40Z</time>
      </trkpt>
      <trkpt lat="47.09068" lon="5.98632">
        <ele>305.8</ele>
        <time>2024-09-01T09:15:41Z</time>
      </trkpt>
      <trkpt lat="47.09068" lon="5.98634">
        <ele>305.8</ele>
        <time>2024-09-01T09:15:42Z</time>
      </trkpt>
      <trkpt lat="47.09069" lon="5.98635">
        <ele>305.8</ele>
        <time>2024-09-01T09:15:43Z</time>
      </trkpt>
      <trkpt lat="47.0907" lon="5.98637">
        <ele>306</ele>
        <time>2024-09-01T09:15:44Z</time>
      </trkpt>
      <trkpt lat="47.0907" lon="5.98639">
        <ele>306.4</ele>
        <time>2024-09-01T09:15:45Z</time>
      </trkpt>
      <trkpt lat="47.09071" lon="5.9864">
        <ele>306.4</ele>
        <time>2024-09-01T09:15:46Z</time>
      </trkpt>
      <trkpt lat="47.09073" lon="5.98642">
        <ele>306.4</ele>
        <time>2024-09-01T09:15:47Z</time>
      </trkpt>
      <trkpt lat="47.09074" lon="5.98644">
        <ele>306.8</ele>
        <time>2024-09-01T09:15:48Z</time>
      </trkpt>
      <trkpt lat="47.09075" lon="5.98645">
        <ele>307.2</ele>
        <time>2024-09-01T09:15:49Z</time>
      </trkpt>
      <trkpt lat="47.09076" lon="5.98647">
        <ele>307.2</ele>
        <time>2024-09-01T09:15:50Z</time>
      </trkpt>
      <trkpt lat="47.09077" lon="5.98648">
        <ele>307.6</ele>
        <time>2024-09-01T09:15:51Z</time>
      </trkpt>
      <trkpt lat="47.09079" lon="5.9865">
        <ele>307.6</ele>
        <time>2024-09-01T09:15:52Z</time>
      </trkpt>
      <trkpt lat="47.0908" lon="5.98651">
        <ele>307.6</ele>
        <time>2024-09-01T09:15:53Z</time>
      </trkpt>
      <trkpt lat="47.09081" lon="5.98652">
        <ele>307.8</ele>
        <time>2024-09-01T09:15:54Z</time>
      </trkpt>
      <trkpt lat="47.09083" lon="5.98654">
        <ele>307.8</ele>
        <time>2024-09-01T09:15:55Z</time>
      </trkpt>
      <trkpt lat="47.09084" lon="5.98656">
        <ele>308.2</ele>
        <time>2024-09-01T09:15:56Z</time>
      </trkpt>
      <trkpt lat="47.09086" lon="5.98658">
        <ele>308.4</ele>
        <time>2024-09-01T09:15:57Z</time>
      </trkpt>
      <trkpt lat="47.09088" lon="5.9866">
        <ele>308.6</ele>
        <time>2024-09-01T09:15:58Z</time>
      </trkpt>
      <trkpt lat="47.09089" lon="5.98662">
        <ele>308.6</ele>
        <time>2024-09-01T09:15:59Z</time>
      </trkpt>
      <trkpt lat="47.09091" lon="5.98664">
        <ele>309</ele>
        <time>2024-09-01T09:16:00Z</time>
      </trkpt>
      <trkpt lat="47.09093" lon="5.98666">
        <ele>309</ele>
        <time>2024-09-01T09:16:01Z</time>
      </trkpt>
      <trkpt lat="47.09095" lon="5.98669">
        <ele>309</ele>
        <time>2024-09-01T09:16:02Z</time>
      </trkpt>
      <trkpt lat="47.09097" lon="5.98671">
        <ele>309.2</ele>
        <time>2024-09-01T09:16:03Z</time>
      </trkpt>
      <trkpt lat="47.09099" lon="5.98672">
        <ele>309.4</ele>
        <time>2024-09-01T09:16:04Z</time>
      </trkpt>
      <trkpt lat="47.09101" lon="5.98674">
        <ele>309.6</ele>
        <time>2024-09-01T09:16:05Z</time>
      </trkpt>
      <trkpt lat="47.09103" lon="5.98676">
        <ele>309.8</ele>
        <time>2024-09-01T09:16:06Z</time>
      </trkpt>
      <trkpt lat="47.09105" lon="5.98678">
        <ele>310</ele>
        <time>2024-09-01T09:16:07Z</time>
      </trkpt>
      <trkpt lat="47.09107" lon="5.98679">
        <ele>310</ele>
        <time>2024-09-01T09:16:08Z</time>
      </trkpt>
      <trkpt lat="47.09109" lon="5.98681">
        <ele>310</ele>
        <time>2024-09-01T09:16:09Z</time>
      </trkpt>
      <trkpt lat="47.09111" lon="5.98683">
        <ele>310</ele>
        <time>2024-09-01T09:16:10Z</time>
      </trkpt>
      <trkpt lat="47.09112" lon="5.98684">
        <ele>310.4</ele>
        <time>2024-09-01T09:16:11Z</time>
      </trkpt>
      <trkpt lat="47.09115" lon="5.98684">
        <ele>310.6</ele>
        <time>2024-09-01T09:16:12Z</time>
      </trkpt>
      <trkpt lat="47.09116" lon="5.98685">
        <ele>311</ele>
        <time>2024-09-01T09:16:13Z</time>
      </trkpt>
      <trkpt lat="47.09117" lon="5.98686">
        <ele>311.2</ele>
        <time>2024-09-01T09:16:14Z</time>
      </trkpt>
      <trkpt lat="47.09119" lon="5.98688">
        <ele>311.4</ele>
        <time>2024-09-01T09:16:15Z</time>
      </trkpt>
      <trkpt lat="47.09121" lon="5.9869">
        <ele>311.6</ele>
        <time>2024-09-01T09:16:16Z</time>
      </trkpt>
      <trkpt lat="47.09122" lon="5.98691">
        <ele>311.8</ele>
        <time>2024-09-01T09:16:17Z</time>
      </trkpt>
      <trkpt lat="47.09123" lon="5.98693">
        <ele>311.8</ele>
        <time>2024-09-01T09:16:18Z</time>
      </trkpt>
      <trkpt lat="47.09125" lon="5.98694">
        <ele>312</ele>
        <time>2024-09-01T09:16:19Z</time>
      </trkpt>
      <trkpt lat="47.09126" lon="5.98696">
        <ele>312.2</ele>
        <time>2024-09-01T09:16:20Z</time>
      </trkpt>
      <trkpt lat="47.09128" lon="5.98698">
        <ele>312.2</ele>
        <time>2024-09-01T09:16:21Z</time>
      </trkpt>
      <trkpt lat="47.0913" lon="5.98699">
        <ele>312.2</ele>
        <time>2024-09-01T09:16:22Z</time>
      </trkpt>
      <trkpt lat="47.09132" lon="5.987">
        <ele>312.4</ele>
        <time>2024-09-01T09:16:23Z</time>
      </trkpt>
      <trkpt lat="47.09134" lon="5.98702">
        <ele>312.4</ele>
        <time>2024-09-01T09:16:24Z</time>
      </trkpt>
      <trkpt lat="47.09135" lon="5.98704">
        <ele>312.4</ele>
        <time>2024-09-01T09:16:25Z</time>
      </trkpt>
      <trkpt lat="47.09137" lon="5.98705">
        <ele>312.6</ele>
        <time>2024-09-01T09:16:26Z</time>
      </trkpt>
      <trkpt lat="47.09138" lon="5.98706">
        <ele>312.6</ele>
        <time>2024-09-01T09:16:27Z</time>
      </trkpt>
      <trkpt lat="47.09139" lon="5.98707">
        <ele>312.6</ele>
        <time>2024-09-01T09:16:28Z</time>
      </trkpt>
      <trkpt lat="47.09141" lon="5.98708">
        <ele>312.6</ele>
        <time>2024-09-01T09:16:29Z</time>
      </trkpt>
      <trkpt lat="47.09143" lon="5.9871">
        <ele>312.6</ele>
        <time>2024-09-01T09:16:30Z</time>
      </trkpt>
      <trkpt lat="47.09145" lon="5.98713">
        <ele>312.8</ele>
        <time>2024-09-01T09:16:31Z</time>
      </trkpt>
      <trkpt lat="47.09146" lon="5.98714">
        <ele>312.8</ele>
        <time>2024-09-01T09:16:32Z</time>
      </trkpt>
      <trkpt lat="47.09148" lon="5.98716">
        <ele>312.8</ele>
        <time>2024-09-01T09:16:33Z</time>
      </trkpt>
      <trkpt lat="47.09149" lon="5.98718">
        <ele>312.8</ele>
        <time>2024-09-01T09:16:34Z</time>
      </trkpt>
      <trkpt lat="47.0915" lon="5.9872">
        <ele>313</ele>
        <time>2024-09-01T09:16:35Z</time>
      </trkpt>
      <trkpt lat="47.09151" lon="5.98721">
        <ele>312.8</ele>
        <time>2024-09-01T09:16:36Z</time>
      </trkpt>
      <trkpt lat="47.09152" lon="5.98723">
        <ele>313</ele>
        <time>2024-09-01T09:16:37Z</time>
      </trkpt>
      <trkpt lat="47.09152" lon="5.98725">
        <ele>313.2</ele>
        <time>2024-09-01T09:16:38Z</time>
      </trkpt>
      <trkpt lat="47.09153" lon="5.98727">
        <ele>313.2</ele>
        <time>2024-09-01T09:16:39Z</time>
      </trkpt>
      <trkpt lat="47.09154" lon="5.98729">
        <ele>313.4</ele>
        <time>2024-09-01T09:16:40Z</time>
      </trkpt>
      <trkpt lat="47.09154" lon="5.9873">
        <ele>313.4</ele>
        <time>2024-09-01T09:16:41Z</time>
      </trkpt>
      <trkpt lat="47.09155" lon="5.98732">
        <ele>313.4</ele>
        <time>2024-09-01T09:16:42Z</time>
      </trkpt>
      <trkpt lat="47.09155" lon="5.98733">
        <ele>313.6</ele>
        <time>2024-09-01T09:16:43Z</time>
      </trkpt>
      <trkpt lat="47.09156" lon="5.98735">
        <ele>313.8</ele>
        <time>2024-09-01T09:16:44Z</time>
      </trkpt>
      <trkpt lat="47.09157" lon="5.98736">
        <ele>313.8</ele>
        <time>2024-09-01T09:16:45Z</time>
      </trkpt>
      <trkpt lat="47.09157" lon="5.98737">
        <ele>314</ele>
        <time>2024-09-01T09:16:46Z</time>
      </trkpt>
      <trkpt lat="47.09158" lon="5.98739">
        <ele>314.2</ele>
        <time>2024-09-01T09:16:47Z</time>
      </trkpt>
      <trkpt lat="47.09159" lon="5.9874">
        <ele>314</ele>
        <time>2024-09-01T09:16:48Z</time>
      </trkpt>
      <trkpt lat="47.09159" lon="5.98742">
        <ele>314.2</ele>
        <time>2024-09-01T09:16:49Z</time>
      </trkpt>
      <trkpt lat="47.0916" lon="5.98745">
        <ele>314.2</ele>
        <time>2024-09-01T09:16:50Z</time>
      </trkpt>
      <trkpt lat="47.09162" lon="5.98747">
        <ele>314.2</ele>
        <time>2024-09-01T09:16:51Z</time>
      </trkpt>
      <trkpt lat="47.09162" lon="5.9875">
        <ele>314.6</ele>
        <time>2024-09-01T09:16:52Z</time>
      </trkpt>
      <trkpt lat="47.09163" lon="5.98753">
        <ele>314.6</ele>
        <time>2024-09-01T09:16:53Z</time>
      </trkpt>
      <trkpt lat="47.09163" lon="5.98755">
        <ele>314.6</ele>
        <time>2024-09-01T09:16:54Z</time>
      </trkpt>
      <trkpt lat="47.09163" lon="5.98757">
        <ele>314.8</ele>
        <time>2024-09-01T09:16:55Z</time>
      </trkpt>
      <trkpt lat="47.09164" lon="5.9876">
        <ele>315</ele>
        <time>2024-09-01T09:16:56Z</time>
      </trkpt>
      <trkpt lat="47.09164" lon="5.98763">
        <ele>315</ele>
        <time>2024-09-01T09:16:57Z</time>
      </trkpt>
      <trkpt lat="47.09164" lon="5.98765">
        <ele>315.2</ele>
        <time>2024-09-01T09:16:58Z</time>
      </trkpt>
      <trkpt lat="47.09164" lon="5.98768">
        <ele>315.4</ele>
        <time>2024-09-01T09:16:59Z</time>
      </trkpt>
      <trkpt lat="47.09164" lon="5.98771">
        <ele>315.6</ele>
        <time>2024-09-01T09:17:00Z</time>
      </trkpt>
      <trkpt lat="47.09164" lon="5.98773">
        <ele>315.6</ele>
        <time>2024-09-01T09:17:01Z</time>
      </trkpt>
      <trkpt lat="47.09164" lon="5.98776">
        <ele>315.8</ele>
        <time>2024-09-01T09:17:02Z</time>
      </trkpt>
      <trkpt lat="47.09165" lon="5.98778">
        <ele>316</ele>
        <time>2024-09-01T09:17:03Z</time>
      </trkpt>
      <trkpt lat="47.09165" lon="5.98781">
        <ele>316.4</ele>
        <time>2024-09-01T09:17:04Z</time>
      </trkpt>
      <trkpt lat="47.09167" lon="5.98784">
        <ele>316.4</ele>
        <time>2024-09-01T09:17:05Z</time>
      </trkpt>
      <trkpt lat="47.09168" lon="5.98787">
        <ele>316.8</ele>
        <time>2024-09-01T09:17:06Z</time>
      </trkpt>
      <trkpt lat="47.09169" lon="5.9879">
        <ele>317</ele>
        <time>2024-09-01T09:17:07Z</time>
      </trkpt>
      <trkpt lat="47.0917" lon="5.98793">
        <ele>317.2</ele>
        <time>2024-09-01T09:17:08Z</time>
      </trkpt>
      <trkpt lat="47.09171" lon="5.98796">
        <ele>317.6</ele>
        <time>2024-09-01T09:17:09Z</time>
      </trkpt>
      <trkpt lat="47.09173" lon="5.98799">
        <ele>317.8</ele>
        <time>2024-09-01T09:17:10Z</time>
      </trkpt>
      <trkpt lat="47.09174" lon="5.98801">
        <ele>318</ele>
        <time>2024-09-01T09:17:11Z</time>
      </trkpt>
      <trkpt lat="47.09175" lon="5.98804">
        <ele>318.4</ele>
        <time>2024-09-01T09:17:12Z</time>
      </trkpt>
      <trkpt lat="47.09176" lon="5.98806">
        <ele>318.4</ele>
        <time>2024-09-01T09:17:13Z</time>
      </trkpt>
      <trkpt lat="47.09177" lon="5.98809">
        <ele>319</ele>
        <time>2024-09-01T09:17:14Z</time>
      </trkpt>
      <trkpt lat="47.09178" lon="5.98812">
        <ele>319.4</ele>
        <time>2024-09-01T09:17:15Z</time>
      </trkpt>
      <trkpt lat="47.09179" lon="5.98814">
        <ele>319.6</ele>
        <time>2024-09-01T09:17:16Z</time>
      </trkpt>
      <trkpt lat="47.0918" lon="5.98816">
        <ele>320</ele>
        <time>2024-09-01T09:17:17Z</time>
      </trkpt>
      <trkpt lat="47.09181" lon="5.98819">
        <ele>320.4</ele>
        <time>2024-09-01T09:17:18Z</time>
      </trkpt>
      <trkpt lat="47.09182" lon="5.98821">
        <ele>320.6</ele>
        <time>2024-09-01T09:17:19Z</time>
      </trkpt>
      <trkpt lat="47.09183" lon="5.98823">
        <ele>321</ele>
        <time>2024-09-01T09:17:20Z</time>
      </trkpt>
      <trkpt lat="47.09185" lon="5.98825">
        <ele>321.2</ele>
        <time>2024-09-01T09:17:21Z</time>
      </trkpt>
      <trkpt lat="47.09186" lon="5.98828">
        <ele>321.6</ele>
        <time>2024-09-01T09:17:22Z</time>
      </trkpt>
      <trkpt lat="47.09186" lon="5.9883">
        <ele>321.8</ele>
        <time>2024-09-01T09:17:23Z</time>
      </trkpt>
      <trkpt lat="47.09188" lon="5.98833">
        <ele>322.2</ele>
        <time>2024-09-01T09:17:24Z</time>
      </trkpt>
      <trkpt lat="47.0919" lon="5.98836">
        <ele>323</ele>
        <time>2024-09-01T09:17:25Z</time>
      </trkpt>
      <trkpt lat="47.09191" lon="5.98838">
        <ele>323.2</ele>
        <time>2024-09-01T09:17:26Z</time>
      </trkpt>
      <trkpt lat="47.09192" lon="5.9884">
        <ele>323.4</ele>
        <time>2024-09-01T09:17:27Z</time>
      </trkpt>
      <trkpt lat="47.09194" lon="5.98843">
        <ele>323.6</ele>
        <time>2024-09-01T09:17:28Z</time>
      </trkpt>
      <trkpt lat="47.09194" lon="5.98845">
        <ele>324</ele>
        <time>2024-09-01T09:17:29Z</time>
      </trkpt>
      <trkpt lat="47.09195" lon="5.98847">
        <ele>324.4</ele>
        <time>2024-09-01T09:17:30Z</time>
      </trkpt>
      <trkpt lat="47.09197" lon="5.9885">
        <ele>324.4</ele>
        <time>2024-09-01T09:17:31Z</time>
      </trkpt>
      <trkpt lat="47.09198" lon="5.98852">
        <ele>324.6</ele>
        <time>2024-09-01T09:17:32Z</time>
      </trkpt>
      <trkpt lat="47.09199" lon="5.98854">
        <ele>324.8</ele>
        <time>2024-09-01T09:17:33Z</time>
      </trkpt>
      <trkpt lat="47.092" lon="5.98856">
        <ele>325</ele>
        <time>2024-09-01T09:17:34Z</time>
      </trkpt>
      <trkpt lat="47.09201" lon="5.98858">
        <ele>325.4</ele>
        <time>2024-09-01T09:17:35Z</time>
      </trkpt>
      <trkpt lat="47.09202" lon="5.9886">
        <ele>325.4</ele>
        <time>2024-09-01T09:17:36Z</time>
      </trkpt>
      <trkpt lat="47.09203" lon="5.98862">
        <ele>325.8</ele>
        <time>2024-09-01T09:17:37Z</time>
      </trkpt>
      <trkpt lat="47.09204" lon="5.98864">
        <ele>326</ele>
        <time>2024-09-01T09:17:38Z</time>
      </trkpt>
      <trkpt lat="47.09205" lon="5.98866">
        <ele>326.4</ele>
        <time>2024-09-01T09:17:39Z</time>
      </trkpt>
      <trkpt lat="47.09206" lon="5.98868">
        <ele>326.6</ele>
        <time>2024-09-01T09:17:40Z</time>
      </trkpt>
      <trkpt lat="47.09207" lon="5.9887">
        <ele>326.8</ele>
        <time>2024-09-01T09:17:41Z</time>
      </trkpt>
      <trkpt lat="47.09207" lon="5.98871">
        <ele>327</ele>
        <time>2024-09-01T09:17:42Z</time>
      </trkpt>
      <trkpt lat="47.09208" lon="5.98873">
        <ele>327</ele>
        <time>2024-09-01T09:17:43Z</time>
      </trkpt>
      <trkpt lat="47.09208" lon="5.98875">
        <ele>327.2</ele>
        <time>2024-09-01T09:17:44Z</time>
      </trkpt>
      <trkpt lat="47.09208" lon="5.98878">
        <ele>327.4</ele>
        <time>2024-09-01T09:17:45Z</time>
      </trkpt>
      <trkpt lat="47.09208" lon="5.9888">
        <ele>327.6</ele>
        <time>2024-09-01T09:17:46Z</time>
      </trkpt>
      <trkpt lat="47.09209" lon="5.98882">
        <ele>327.8</ele>
        <time>2024-09-01T09:17:47Z</time>
      </trkpt>
      <trkpt lat="47.09209" lon="5.98884">
        <ele>328</ele>
        <time>2024-09-01T09:17:48Z</time>
      </trkpt>
      <trkpt lat="47.0921" lon="5.98885">
        <ele>328.4</ele>
        <time>2024-09-01T09:17:49Z</time>
      </trkpt>
      <trkpt lat="47.0921" lon="5.98888">
        <ele>328.4</ele>
        <time>2024-09-01T09:17:50Z</time>
      </trkpt>
      <trkpt lat="47.09211" lon="5.9889">
        <ele>328.8</ele>
        <time>2024-09-01T09:17:51Z</time>
      </trkpt>
      <trkpt lat="47.09211" lon="5.98892">
        <ele>329.2</ele>
        <time>2024-09-01T09:17:52Z</time>
      </trkpt>
      <trkpt lat="47.09212" lon="5.98894">
        <ele>329.6</ele>
        <time>2024-09-01T09:17:53Z</time>
      </trkpt>
      <trkpt lat="47.09213" lon="5.98896">
        <ele>329.8</ele>
        <time>2024-09-01T09:17:54Z</time>
      </trkpt>
      <trkpt lat="47.09214" lon="5.98899">
        <ele>330</ele>
        <time>2024-09-01T09:17:55Z</time>
      </trkpt>
      <trkpt lat="47.09215" lon="5.98901">
        <ele>330.2</ele>
        <time>2024-09-01T09:17:56Z</time>
      </trkpt>
      <trkpt lat="47.09215" lon="5.98903">
        <ele>330.4</ele>
        <time>2024-09-01T09:17:57Z</time>
      </trkpt>
      <trkpt lat="47.09216" lon="5.98904">
        <ele>330.8</ele>
        <time>2024-09-01T09:17:58Z</time>
      </trkpt>
      <trkpt lat="47.09217" lon="5.98906">
        <ele>330.8</ele>
        <time>2024-09-01T09:17:59Z</time>
      </trkpt>
      <trkpt lat="47.09217" lon="5.98908">
        <ele>331</ele>
        <time>2024-09-01T09:18:00Z</time>
      </trkpt>
      <trkpt lat="47.09217" lon="5.9891">
        <ele>331.4</ele>
        <time>2024-09-01T09:18:01Z</time>
      </trkpt>
      <trkpt lat="47.09217" lon="5.98911">
        <ele>331.6</ele>
        <time>2024-09-01T09:18:02Z</time>
      </trkpt>
      <trkpt lat="47.09218" lon="5.98913">
        <ele>331.8</ele>
        <time>2024-09-01T09:18:03Z</time>
      </trkpt>
      <trkpt lat="47.09218" lon="5.98914">
        <ele>332</ele>
        <time>2024-09-01T09:18:04Z</time>
      </trkpt>
      <trkpt lat="47.09218" lon="5.98916">
        <ele>332</ele>
        <time>2024-09-01T09:18:05Z</time>
      </trkpt>
      <trkpt lat="47.09218" lon="5.98917">
        <ele>332.4</ele>
        <time>2024-09-01T09:18:06Z</time>
      </trkpt>
      <trkpt lat="47.09218" lon="5.98919">
        <ele>332.6</ele>
        <time>2024-09-01T09:18:07Z</time>
      </trkpt>
      <trkpt lat="47.09218" lon="5.98921">
        <ele>332.6</ele>
        <time>2024-09-01T09:18:08Z</time>
      </trkpt>
      <trkpt lat="47.09219" lon="5.98922">
        <ele>332.8</ele>
        <time>2024-09-01T09:18:09Z</time>
      </trkpt>
      <trkpt lat="47.09219" lon="5.98924">
        <ele>332.8</ele>
        <time>2024-09-01T09:18:10Z</time>
      </trkpt>
      <trkpt lat="47.0922" lon="5.98925">
        <ele>333</ele>
        <time>2024-09-01T09:18:11Z</time>
      </trkpt>
      <trkpt lat="47.09221" lon="5.98928">
        <ele>333</ele>
        <time>2024-09-01T09:18:12Z</time>
      </trkpt>
      <trkpt lat="47.09221" lon="5.9893">
        <ele>333.2</ele>
        <time>2024-09-01T09:18:13Z</time>
      </trkpt>
      <trkpt lat="47.09221" lon="5.98932">
        <ele>333.6</ele>
        <time>2024-09-01T09:18:14Z</time>
      </trkpt>
      <trkpt lat="47.09222" lon="5.98935">
        <ele>333.6</ele>
        <time>2024-09-01T09:18:15Z</time>
      </trkpt>
      <trkpt lat="47.09223" lon="5.98938">
        <ele>333.8</ele>
        <time>2024-09-01T09:18:16Z</time>
      </trkpt>
      <trkpt lat="47.09224" lon="5.98941">
        <ele>334</ele>
        <time>2024-09-01T09:18:17Z</time>
      </trkpt>
      <trkpt lat="47.09225" lon="5.98942">
        <ele>334.2</ele>
        <time>2024-09-01T09:18:18Z</time>
      </trkpt>
      <trkpt lat="47.09226" lon="5.98944">
        <ele>334.4</ele>
        <time>2024-09-01T09:18:19Z</time>
      </trkpt>
      <trkpt lat="47.09226" lon="5.98947">
        <ele>334.8</ele>
        <time>2024-09-01T09:18:20Z</time>
      </trkpt>
      <trkpt lat="47.09227" lon="5.98948">
        <ele>334.8</ele>
        <time>2024-09-01T09:18:21Z</time>
      </trkpt>
      <trkpt lat="47.09227" lon="5.98951">
        <ele>335</ele>
        <time>2024-09-01T09:18:22Z</time>
      </trkpt>
      <trkpt lat="47.09228" lon="5.98954">
        <ele>335.2</ele>
        <time>2024-09-01T09:18:23Z</time>
      </trkpt>
      <trkpt lat="47.09229" lon="5.98957">
        <ele>335.4</ele>
        <time>2024-09-01T09:18:24Z</time>
      </trkpt>
      <trkpt lat="47.09231" lon="5.9896">
        <ele>335.8</ele>
        <time>2024-09-01T09:18:25Z</time>
      </trkpt>
      <trkpt lat="47.09231" lon="5.98962">
        <ele>335.8</ele>
        <time>2024-09-01T09:18:26Z</time>
      </trkpt>
      <trkpt lat="47.09232" lon="5.98964">
        <ele>336</ele>
        <time>2024-09-01T09:18:27Z</time>
      </trkpt>
      <trkpt lat="47.09233" lon="5.98965">
        <ele>336.2</ele>
        <time>2024-09-01T09:18:28Z</time>
      </trkpt>
      <trkpt lat="47.09233" lon="5.98968">
        <ele>336.2</ele>
        <time>2024-09-01T09:18:29Z</time>
      </trkpt>
      <trkpt lat="47.09234" lon="5.98969">
        <ele>336.6</ele>
        <time>2024-09-01T09:18:30Z</time>
      </trkpt>
      <trkpt lat="47.09234" lon="5.98971">
        <ele>336.8</ele>
        <time>2024-09-01T09:18:31Z</time>
      </trkpt>
      <trkpt lat="47.09234" lon="5.98972">
        <ele>337.2</ele>
        <time>2024-09-01T09:18:32Z</time>
      </trkpt>
      <trkpt lat="47.09234" lon="5.98974">
        <ele>337.4</ele>
        <time>2024-09-01T09:18:33Z</time>
      </trkpt>
      <trkpt lat="47.09234" lon="5.98976">
        <ele>337.6</ele>
        <time>2024-09-01T09:18:34Z</time>
      </trkpt>
      <trkpt lat="47.09235" lon="5.98979">
        <ele>337.6</ele>
        <time>2024-09-01T09:18:35Z</time>
      </trkpt>
      <trkpt lat="47.09236" lon="5.98981">
        <ele>337.6</ele>
        <time>2024-09-01T09:18:36Z</time>
      </trkpt>
      <trkpt lat="47.09236" lon="5.98983">
        <ele>337.8</ele>
        <time>2024-09-01T09:18:37Z</time>
      </trkpt>
      <trkpt lat="47.09237" lon="5.98986">
        <ele>338</ele>
        <time>2024-09-01T09:18:38Z</time>
      </trkpt>
      <trkpt lat="47.09237" lon="5.98987">
        <ele>338.2</ele>
        <time>2024-09-01T09:18:39Z</time>
      </trkpt>
      <trkpt lat="47.09237" lon="5.98989">
        <ele>338.2</ele>
        <time>2024-09-01T09:18:40Z</time>
      </trkpt>
      <trkpt lat="47.09237" lon="5.98992">
        <ele>338.4</ele>
        <time>2024-09-01T09:18:41Z</time>
      </trkpt>
      <trkpt lat="47.09237" lon="5.98994">
        <ele>338.6</ele>
        <time>2024-09-01T09:18:42Z</time>
      </trkpt>
      <trkpt lat="47.09237" lon="5.98997">
        <ele>338.8</ele>
        <time>2024-09-01T09:18:43Z</time>
      </trkpt>
      <trkpt lat="47.09237" lon="5.98998">
        <ele>338.8</ele>
        <time>2024-09-01T09:18:44Z</time>
      </trkpt>
      <trkpt lat="47.09238" lon="5.99">
        <ele>338.8</ele>
        <time>2024-09-01T09:18:45Z</time>
      </trkpt>
      <trkpt lat="47.09238" lon="5.99002">
        <ele>339</ele>
        <time>2024-09-01T09:18:46Z</time>
      </trkpt>
      <trkpt lat="47.09239" lon="5.99004">
        <ele>338.8</ele>
        <time>2024-09-01T09:18:47Z</time>
      </trkpt>
      <trkpt lat="47.09239" lon="5.99006">
        <ele>339</ele>
        <time>2024-09-01T09:18:48Z</time>
      </trkpt>
      <trkpt lat="47.09239" lon="5.99009">
        <ele>339.2</ele>
        <time>2024-09-01T09:18:49Z</time>
      </trkpt>
      <trkpt lat="47.0924" lon="5.99011">
        <ele>339.4</ele>
        <time>2024-09-01T09:18:50Z</time>
      </trkpt>
      <trkpt lat="47.0924" lon="5.99013">
        <ele>339.4</ele>
        <time>2024-09-01T09:18:51Z</time>
      </trkpt>
      <trkpt lat="47.09241" lon="5.99015">
        <ele>339.4</ele>
        <time>2024-09-01T09:18:52Z</time>
      </trkpt>
      <trkpt lat="47.09241" lon="5.99017">
        <ele>339.6</ele>
        <time>2024-09-01T09:18:53Z</time>
      </trkpt>
      <trkpt lat="47.09242" lon="5.99021">
        <ele>339.6</ele>
        <time>2024-09-01T09:18:54Z</time>
      </trkpt>
      <trkpt lat="47.09242" lon="5.99024">
        <ele>339.8</ele>
        <time>2024-09-01T09:18:55Z</time>
      </trkpt>
      <trkpt lat="47.09242" lon="5.99026">
        <ele>340</ele>
        <time>2024-09-01T09:18:56Z</time>
      </trkpt>
      <trkpt lat="47.09241" lon="5.99028">
        <ele>340.2</ele>
        <time>2024-09-01T09:18:57Z</time>
      </trkpt>
      <trkpt lat="47.09242" lon="5.99031">
        <ele>340.2</ele>
        <time>2024-09-01T09:18:58Z</time>
      </trkpt>
      <trkpt lat="47.09242" lon="5.99031">
        <ele>340.4</ele>
        <time>2024-09-01T09:18:59Z</time>
      </trkpt>
      <trkpt lat="47.09242" lon="5.99032">
        <ele>340.4</ele>
        <time>2024-09-01T09:19:00Z</time>
      </trkpt>
      <trkpt lat="47.09242" lon="5.99034">
        <ele>340.8</ele>
        <time>2024-09-01T09:19:01Z</time>
      </trkpt>
      <trkpt lat="47.09243" lon="5.99036">
        <ele>340.8</ele>
        <time>2024-09-01T09:19:02Z</time>
      </trkpt>
      <trkpt lat="47.09243" lon="5.99038">
        <ele>340.8</ele>
        <time>2024-09-01T09:19:03Z</time>
      </trkpt>
      <trkpt lat="47.09243" lon="5.99039">
        <ele>341</ele>
        <time>2024-09-01T09:19:04Z</time>
      </trkpt>
      <trkpt lat="47.09244" lon="5.99042">
        <ele>341</ele>
        <time>2024-09-01T09:19:05Z</time>
      </trkpt>
      <trkpt lat="47.09245" lon="5.99044">
        <ele>341.2</ele>
        <time>2024-09-01T09:19:06Z</time>
      </trkpt>
      <trkpt lat="47.09246" lon="5.99046">
        <ele>341.4</ele>
        <time>2024-09-01T09:19:07Z</time>
      </trkpt>
      <trkpt lat="47.09246" lon="5.99047">
        <ele>341.6</ele>
        <time>2024-09-01T09:19:08Z</time>
      </trkpt>
      <trkpt lat="47.09246" lon="5.99049">
        <ele>341.6</ele>
        <time>2024-09-01T09:19:09Z</time>
      </trkpt>
      <trkpt lat="47.09247" lon="5.9905">
        <ele>341.8</ele>
        <time>2024-09-01T09:19:10Z</time>
      </trkpt>
      <trkpt lat="47.09247" lon="5.99052">
        <ele>342</ele>
        <time>2024-09-01T09:19:11Z</time>
      </trkpt>
      <trkpt lat="47.09248" lon="5.99054">
        <ele>342</ele>
        <time>2024-09-01T09:19:12Z</time>
      </trkpt>
      <trkpt lat="47.09248" lon="5.99056">
        <ele>342.4</ele>
        <time>2024-09-01T09:19:13Z</time>
      </trkpt>
      <trkpt lat="47.09248" lon="5.99058">
        <ele>342.4</ele>
        <time>2024-09-01T09:19:14Z</time>
      </trkpt>
      <trkpt lat="47.09249" lon="5.99061">
        <ele>342.6</ele>
        <time>2024-09-01T09:19:15Z</time>
      </trkpt>
      <trkpt lat="47.0925" lon="5.99063">
        <ele>342.6</ele>
        <time>2024-09-01T09:19:16Z</time>
      </trkpt>
      <trkpt lat="47.09251" lon="5.99066">
        <ele>343.2</ele>
        <time>2024-09-01T09:19:17Z</time>
      </trkpt>
      <trkpt lat="47.09251" lon="5.99068">
        <ele>343.2</ele>
        <time>2024-09-01T09:19:18Z</time>
      </trkpt>
      <trkpt lat="47.09251" lon="5.99071">
        <ele>343.6</ele>
        <time>2024-09-01T09:19:19Z</time>
      </trkpt>
      <trkpt lat="47.09252" lon="5.99073">
        <ele>343.8</ele>
        <time>2024-09-01T09:19:20Z</time>
      </trkpt>
      <trkpt lat="47.09252" lon="5.99076">
        <ele>344</ele>
        <time>2024-09-01T09:19:21Z</time>
      </trkpt>
      <trkpt lat="47.09253" lon="5.99078">
        <ele>344</ele>
        <time>2024-09-01T09:19:22Z</time>
      </trkpt>
      <trkpt lat="47.09253" lon="5.9908">
        <ele>344.4</ele>
        <time>2024-09-01T09:19:23Z</time>
      </trkpt>
      <trkpt lat="47.09254" lon="5.99082">
        <ele>344.6</ele>
        <time>2024-09-01T09:19:24Z</time>
      </trkpt>
      <trkpt lat="47.09255" lon="5.99085">
        <ele>344.6</ele>
        <time>2024-09-01T09:19:25Z</time>
      </trkpt>
      <trkpt lat="47.09255" lon="5.99088">
        <ele>344.8</ele>
        <time>2024-09-01T09:19:26Z</time>
      </trkpt>
      <trkpt lat="47.09255" lon="5.9909">
        <ele>345</ele>
        <time>2024-09-01T09:19:27Z</time>
      </trkpt>
      <trkpt lat="47.09256" lon="5.99093">
        <ele>345</ele>
        <time>2024-09-01T09:19:28Z</time>
      </trkpt>
      <trkpt lat="47.09256" lon="5.99095">
        <ele>345.4</ele>
        <time>2024-09-01T09:19:29Z</time>
      </trkpt>
      <trkpt lat="47.09257" lon="5.99097">
        <ele>345.6</ele>
        <time>2024-09-01T09:19:30Z</time>
      </trkpt>
      <trkpt lat="47.09258" lon="5.99099">
        <ele>345.8</ele>
        <time>2024-09-01T09:19:31Z</time>
      </trkpt>
      <trkpt lat="47.09258" lon="5.99101">
        <ele>346</ele>
        <time>2024-09-01T09:19:32Z</time>
      </trkpt>
      <trkpt lat="47.09258" lon="5.99103">
        <ele>346.2</ele>
        <time>2024-09-01T09:19:33Z</time>
      </trkpt>
      <trkpt lat="47.09259" lon="5.99105">
        <ele>346.2</ele>
        <time>2024-09-01T09:19:34Z</time>
      </trkpt>
      <trkpt lat="47.09259" lon="5.99108">
        <ele>346.4</ele>
        <time>2024-09-01T09:19:35Z</time>
      </trkpt>
      <trkpt lat="47.09259" lon="5.9911">
        <ele>346.6</ele>
        <time>2024-09-01T09:19:36Z</time>
      </trkpt>
      <trkpt lat="47.0926" lon="5.99112">
        <ele>346.6</ele>
        <time>2024-09-01T09:19:37Z</time>
      </trkpt>
      <trkpt lat="47.09259" lon="5.99114">
        <ele>346.8</ele>
        <time>2024-09-01T09:19:38Z</time>
      </trkpt>
      <trkpt lat="47.09259" lon="5.99116">
        <ele>347</ele>
        <time>2024-09-01T09:19:39Z</time>
      </trkpt>
      <trkpt lat="47.09259" lon="5.99117">
        <ele>347.4</ele>
        <time>2024-09-01T09:19:40Z</time>
      </trkpt>
      <trkpt lat="47.09259" lon="5.99119">
        <ele>347.4</ele>
        <time>2024-09-01T09:19:41Z</time>
      </trkpt>
      <trkpt lat="47.09259" lon="5.99121">
        <ele>347.6</ele>
        <time>2024-09-01T09:19:42Z</time>
      </trkpt>
      <trkpt lat="47.09259" lon="5.99124">
        <ele>347.8</ele>
        <time>2024-09-01T09:19:43Z</time>
      </trkpt>
      <trkpt lat="47.09259" lon="5.99127">
        <ele>348</ele>
        <time>2024-09-01T09:19:44Z</time>
      </trkpt>
      <trkpt lat="47.09259" lon="5.99129">
        <ele>348</ele>
        <time>2024-09-01T09:19:45Z</time>
      </trkpt>
      <trkpt lat="47.09259" lon="5.99131">
        <ele>348.2</ele>
        <time>2024-09-01T09:19:46Z</time>
      </trkpt>
      <trkpt lat="47.0926" lon="5.99134">
        <ele>348.4</ele>
        <time>2024-09-01T09:19:47Z</time>
      </trkpt>
      <trkpt lat="47.09261" lon="5.99136">
        <ele>348.4</ele>
        <time>2024-09-01T09:19:48Z</time>
      </trkpt>
      <trkpt lat="47.09261" lon="5.99139">
        <ele>348.6</ele>
        <time>2024-09-01T09:19:49Z</time>
      </trkpt>
      <trkpt lat="47.09262" lon="5.99141">
        <ele>348.8</ele>
        <time>2024-09-01T09:19:50Z</time>
      </trkpt>
      <trkpt lat="47.09262" lon="5.99143">
        <ele>349</ele>
        <time>2024-09-01T09:19:51Z</time>
      </trkpt>
      <trkpt lat="47.09263" lon="5.99147">
        <ele>349</ele>
        <time>2024-09-01T09:19:52Z</time>
      </trkpt>
      <trkpt lat="47.09263" lon="5.99149">
        <ele>349</ele>
        <time>2024-09-01T09:19:53Z</time>
      </trkpt>
      <trkpt lat="47.09264" lon="5.99152">
        <ele>349</ele>
        <time>2024-09-01T09:19:54Z</time>
      </trkpt>
      <trkpt lat="47.09264" lon="5.99154">
        <ele>349</ele>
        <time>2024-09-01T09:19:55Z</time>
      </trkpt>
      <trkpt lat="47.09264" lon="5.99157">
        <ele>349</ele>
        <time>2024-09-01T09:19:56Z</time>
      </trkpt>
      <trkpt lat="47.09265" lon="5.9916">
        <ele>349.2</ele>
        <time>2024-09-01T09:19:57Z</time>
      </trkpt>
      <trkpt lat="47.09265" lon="5.99163">
        <ele>349.4</ele>
        <time>2024-09-01T09:19:58Z</time>
      </trkpt>
      <trkpt lat="47.09265" lon="5.99165">
        <ele>349.2</ele>
        <time>2024-09-01T09:19:59Z</time>
      </trkpt>
      <trkpt lat="47.09265" lon="5.99169">
        <ele>349.4</ele>
        <time>2024-09-01T09:20:00Z</time>
      </trkpt>
      <trkpt lat="47.09267" lon="5.99172">
        <ele>349.6</ele>
        <time>2024-09-01T09:20:01Z</time>
      </trkpt>
      <trkpt lat="47.09267" lon="5.99174">
        <ele>349.8</ele>
        <time>2024-09-01T09:20:02Z</time>
      </trkpt>
      <trkpt lat="47.09268" lon="5.99177">
        <ele>349.8</ele>
        <time>2024-09-01T09:20:03Z</time>
      </trkpt>
      <trkpt lat="47.09268" lon="5.99178">
        <ele>349.8</ele>
        <time>2024-09-01T09:20:04Z</time>
      </trkpt>
      <trkpt lat="47.09269" lon="5.99181">
        <ele>349.8</ele>
        <time>2024-09-01T09:20:05Z</time>
      </trkpt>
      <trkpt lat="47.09268" lon="5.99183">
        <ele>349.8</ele>
        <time>2024-09-01T09:20:06Z</time>
      </trkpt>
      <trkpt lat="47.09268" lon="5.99185">
        <ele>349.8</ele>
        <time>2024-09-01T09:20:07Z</time>
      </trkpt>
      <trkpt lat="47.09267" lon="5.99189">
        <ele>350</ele>
        <time>2024-09-01T09:20:08Z</time>
      </trkpt>
      <trkpt lat="47.09267" lon="5.99193">
        <ele>350.2</ele>
        <time>2024-09-01T09:20:09Z</time>
      </trkpt>
      <trkpt lat="47.09267" lon="5.99196">
        <ele>350.2</ele>
        <time>2024-09-01T09:20:10Z</time>
      </trkpt>
      <trkpt lat="47.09266" lon="5.99198">
        <ele>350.2</ele>
        <time>2024-09-01T09:20:11Z</time>
      </trkpt>
      <trkpt lat="47.09266" lon="5.99201">
        <ele>350.2</ele>
        <time>2024-09-01T09:20:12Z</time>
      </trkpt>
      <trkpt lat="47.09266" lon="5.99204">
        <ele>350.4</ele>
        <time>2024-09-01T09:20:13Z</time>
      </trkpt>
      <trkpt lat="47.09266" lon="5.99207">
        <ele>350.2</ele>
        <time>2024-09-01T09:20:14Z</time>
      </trkpt>
      <trkpt lat="47.09266" lon="5.99209">
        <ele>350.4</ele>
        <time>2024-09-01T09:20:15Z</time>
      </trkpt>
      <trkpt lat="47.09266" lon="5.99212">
        <ele>350.4</ele>
        <time>2024-09-01T09:20:16Z</time>
      </trkpt>
      <trkpt lat="47.09265" lon="5.99213">
        <ele>350.4</ele>
        <time>2024-09-01T09:20:17Z</time>
      </trkpt>
      <trkpt lat="47.09265" lon="5.99215">
        <ele>350.4</ele>
        <time>2024-09-01T09:20:18Z</time>
      </trkpt>
      <trkpt lat="47.09264" lon="5.99218">
        <ele>350.4</ele>
        <time>2024-09-01T09:20:19Z</time>
      </trkpt>
      <trkpt lat="47.09264" lon="5.9922">
        <ele>350.6</ele>
        <time>2024-09-01T09:20:20Z</time>
      </trkpt>
      <trkpt lat="47.09264" lon="5.99223">
        <ele>350.8</ele>
        <time>2024-09-01T09:20:21Z</time>
      </trkpt>
      <trkpt lat="47.09263" lon="5.99225">
        <ele>350.6</ele>
        <time>2024-09-01T09:20:22Z</time>
      </trkpt>
      <trkpt lat="47.09264" lon="5.99227">
        <ele>350.8</ele>
        <time>2024-09-01T09:20:23Z</time>
      </trkpt>
      <trkpt lat="47.09263" lon="5.99228">
        <ele>351</ele>
        <time>2024-09-01T09:20:24Z</time>
      </trkpt>
      <trkpt lat="47.09263" lon="5.99229">
        <ele>351.2</ele>
        <time>2024-09-01T09:20:25Z</time>
      </trkpt>
      <trkpt lat="47.09264" lon="5.9923">
        <ele>351.2</ele>
        <time>2024-09-01T09:20:26Z</time>
      </trkpt>
      <trkpt lat="47.09263" lon="5.99232">
        <ele>351.4</ele>
        <time>2024-09-01T09:20:27Z</time>
      </trkpt>
      <trkpt lat="47.09264" lon="5.99233">
        <ele>351.2</ele>
        <time>2024-09-01T09:20:28Z</time>
      </trkpt>
      <trkpt lat="47.09264" lon="5.99234">
        <ele>351.4</ele>
        <time>2024-09-01T09:20:29Z</time>
      </trkpt>
      <trkpt lat="47.09265" lon="5.99236">
        <ele>351.4</ele>
        <time>2024-09-01T09:20:30Z</time>
      </trkpt>
      <trkpt lat="47.09265" lon="5.99239">
        <ele>351.6</ele>
        <time>2024-09-01T09:20:31Z</time>
      </trkpt>
      <trkpt lat="47.09265" lon="5.99242">
        <ele>351.4</ele>
        <time>2024-09-01T09:20:32Z</time>
      </trkpt>
      <trkpt lat="47.09265" lon="5.99246">
        <ele>351.6</ele>
        <time>2024-09-01T09:20:33Z</time>
      </trkpt>
      <trkpt lat="47.09265" lon="5.99249">
        <ele>351.4</ele>
        <time>2024-09-01T09:20:34Z</time>
      </trkpt>
      <trkpt lat="47.09265" lon="5.99253">
        <ele>351.6</ele>
        <time>2024-09-01T09:20:35Z</time>
      </trkpt>
      <trkpt lat="47.09265" lon="5.99256">
        <ele>351.4</ele>
        <time>2024-09-01T09:20:36Z</time>
      </trkpt>
      <trkpt lat="47.09265" lon="5.9926">
        <ele>351.6</ele>
        <time>2024-09-01T09:20:37Z</time>
      </trkpt>
      <trkpt lat="47.09265" lon="5.99263">
        <ele>351.8</ele>
        <time>2024-09-01T09:20:38Z</time>
      </trkpt>
      <trkpt lat="47.09265" lon="5.99266">
        <ele>351.8</ele>
        <time>2024-09-01T09:20:39Z</time>
      </trkpt>
      <trkpt lat="47.09264" lon="5.99268">
        <ele>351.8</ele>
        <time>2024-09-01T09:20:40Z</time>
      </trkpt>
      <trkpt lat="47.09263" lon="5.99269">
        <ele>351.8</ele>
        <time>2024-09-01T09:20:41Z</time>
      </trkpt>
      <trkpt lat="47.09262" lon="5.99271">
        <ele>351.8</ele>
        <time>2024-09-01T09:20:42Z</time>
      </trkpt>
      <trkpt lat="47.09262" lon="5.99274">
        <ele>352.2</ele>
        <time>2024-09-01T09:20:43Z</time>
      </trkpt>
      <trkpt lat="47.0926" lon="5.99277">
        <ele>352.4</ele>
        <time>2024-09-01T09:20:44Z</time>
      </trkpt>
      <trkpt lat="47.0926" lon="5.99279">
        <ele>352.6</ele>
        <time>2024-09-01T09:20:45Z</time>
      </trkpt>
      <trkpt lat="47.09259" lon="5.99282">
        <ele>352.6</ele>
        <time>2024-09-01T09:20:46Z</time>
      </trkpt>
      <trkpt lat="47.09259" lon="5.99285">
        <ele>352.8</ele>
        <time>2024-09-01T09:20:47Z</time>
      </trkpt>
      <trkpt lat="47.09259" lon="5.99288">
        <ele>353</ele>
        <time>2024-09-01T09:20:48Z</time>
      </trkpt>
      <trkpt lat="47.09259" lon="5.99291">
        <ele>353.2</ele>
        <time>2024-09-01T09:20:49Z</time>
      </trkpt>
      <trkpt lat="47.09259" lon="5.99295">
        <ele>353.2</ele>
        <time>2024-09-01T09:20:50Z</time>
      </trkpt>
      <trkpt lat="47.09259" lon="5.99298">
        <ele>353.4</ele>
        <time>2024-09-01T09:20:51Z</time>
      </trkpt>
      <trkpt lat="47.0926" lon="5.993">
        <ele>353.4</ele>
        <time>2024-09-01T09:20:52Z</time>
      </trkpt>
      <trkpt lat="47.09259" lon="5.99303">
        <ele>353.6</ele>
        <time>2024-09-01T09:20:53Z</time>
      </trkpt>
      <trkpt lat="47.09259" lon="5.99306">
        <ele>354</ele>
        <time>2024-09-01T09:20:54Z</time>
      </trkpt>
      <trkpt lat="47.09258" lon="5.99309">
        <ele>354</ele>
        <time>2024-09-01T09:20:55Z</time>
      </trkpt>
      <trkpt lat="47.09258" lon="5.99311">
        <ele>354.2</ele>
        <time>2024-09-01T09:20:56Z</time>
      </trkpt>
      <trkpt lat="47.09258" lon="5.99314">
        <ele>354.4</ele>
        <time>2024-09-01T09:20:57Z</time>
      </trkpt>
      <trkpt lat="47.09257" lon="5.99316">
        <ele>354.4</ele>
        <time>2024-09-01T09:20:58Z</time>
      </trkpt>
      <trkpt lat="47.09257" lon="5.99318">
        <ele>354.4</ele>
        <time>2024-09-01T09:20:59Z</time>
      </trkpt>
      <trkpt lat="47.09257" lon="5.9932">
        <ele>354.8</ele>
        <time>2024-09-01T09:21:00Z</time>
      </trkpt>
      <trkpt lat="47.09257" lon="5.99321">
        <ele>354.8</ele>
        <time>2024-09-01T09:21:01Z</time>
      </trkpt>
      <trkpt lat="47.09257" lon="5.99324">
        <ele>355.2</ele>
        <time>2024-09-01T09:21:02Z</time>
      </trkpt>
      <trkpt lat="47.09257" lon="5.99326">
        <ele>355.2</ele>
        <time>2024-09-01T09:21:03Z</time>
      </trkpt>
      <trkpt lat="47.09257" lon="5.99329">
        <ele>355.4</ele>
        <time>2024-09-01T09:21:04Z</time>
      </trkpt>
      <trkpt lat="47.09257" lon="5.99332">
        <ele>355.6</ele>
        <time>2024-09-01T09:21:05Z</time>
      </trkpt>
      <trkpt lat="47.09257" lon="5.99334">
        <ele>355.8</ele>
        <time>2024-09-01T09:21:06Z</time>
      </trkpt>
      <trkpt lat="47.09256" lon="5.99337">
        <ele>356</ele>
        <time>2024-09-01T09:21:07Z</time>
      </trkpt>
      <trkpt lat="47.09256" lon="5.9934">
        <ele>356</ele>
        <time>2024-09-01T09:21:08Z</time>
      </trkpt>
      <trkpt lat="47.09254" lon="5.99342">
        <ele>356.2</ele>
        <time>2024-09-01T09:21:09Z</time>
      </trkpt>
      <trkpt lat="47.09253" lon="5.99344">
        <ele>356.4</ele>
        <time>2024-09-01T09:21:10Z</time>
      </trkpt>
      <trkpt lat="47.09252" lon="5.99346">
        <ele>356.6</ele>
        <time>2024-09-01T09:21:11Z</time>
      </trkpt>
      <trkpt lat="47.09252" lon="5.99348">
        <ele>356.6</ele>
        <time>2024-09-01T09:21:12Z</time>
      </trkpt>
      <trkpt lat="47.09252" lon="5.9935">
        <ele>356.8</ele>
        <time>2024-09-01T09:21:13Z</time>
      </trkpt>
      <trkpt lat="47.09252" lon="5.99353">
        <ele>357</ele>
        <time>2024-09-01T09:21:14Z</time>
      </trkpt>
      <trkpt lat="47.09252" lon="5.99355">
        <ele>357.2</ele>
        <time>2024-09-01T09:21:15Z</time>
      </trkpt>
      <trkpt lat="47.09252" lon="5.99357">
        <ele>357.4</ele>
        <time>2024-09-01T09:21:16Z</time>
      </trkpt>
      <trkpt lat="47.09251" lon="5.99358">
        <ele>357.4</ele>
        <time>2024-09-01T09:21:17Z</time>
      </trkpt>
      <trkpt lat="47.09251" lon="5.99359">
        <ele>357.6</ele>
        <time>2024-09-01T09:21:18Z</time>
      </trkpt>
      <trkpt lat="47.09251" lon="5.9936">
        <ele>357.8</ele>
        <time>2024-09-01T09:21:19Z</time>
      </trkpt>
      <trkpt lat="47.09251" lon="5.9936">
        <ele>357.8</ele>
        <time>2024-09-01T09:21:20Z</time>
      </trkpt>
      <trkpt lat="47.09251" lon="5.99361">
        <ele>358.2</ele>
        <time>2024-09-01T09:21:21Z</time>
      </trkpt>
      <trkpt lat="47.09251" lon="5.99362">
        <ele>358.4</ele>
        <time>2024-09-01T09:21:22Z</time>
      </trkpt>
      <trkpt lat="47.09251" lon="5.99361">
        <ele>358.4</ele>
        <time>2024-09-01T09:21:23Z</time>
      </trkpt>
      <trkpt lat="47.0925" lon="5.99361">
        <ele>358.4</ele>
        <time>2024-09-01T09:21:24Z</time>
      </trkpt>
      <trkpt lat="47.0925" lon="5.99362">
        <ele>358.6</ele>
        <time>2024-09-01T09:21:25Z</time>
      </trkpt>
      <trkpt lat="47.0925" lon="5.99363">
        <ele>358.8</ele>
        <time>2024-09-01T09:21:26Z</time>
      </trkpt>
      <trkpt lat="47.0925" lon="5.99364">
        <ele>358.8</ele>
        <time>2024-09-01T09:21:27Z</time>
      </trkpt>
      <trkpt lat="47.0925" lon="5.99365">
        <ele>359</ele>
        <time>2024-09-01T09:21:28Z</time>
      </trkpt>
      <trkpt lat="47.0925" lon="5.99367">
        <ele>359</ele>
        <time>2024-09-01T09:21:29Z</time>
      </trkpt>
      <trkpt lat="47.0925" lon="5.99369">
        <ele>359.2</ele>
        <time>2024-09-01T09:21:30Z</time>
      </trkpt>
      <trkpt lat="47.0925" lon="5.99371">
        <ele>359.2</ele>
        <time>2024-09-01T09:21:31Z</time>
      </trkpt>
      <trkpt lat="47.09249" lon="5.99373">
        <ele>359.2</ele>
        <time>2024-09-01T09:21:32Z</time>
      </trkpt>
      <trkpt lat="47.09249" lon="5.99375">
        <ele>359.2</ele>
        <time>2024-09-01T09:21:33Z</time>
      </trkpt>
      <trkpt lat="47.09249" lon="5.99377">
        <ele>359.4</ele>
        <time>2024-09-01T09:21:34Z</time>
      </trkpt>
      <trkpt lat="47.09249" lon="5.99381">
        <ele>359.2</ele>
        <time>2024-09-01T09:21:35Z</time>
      </trkpt>
      <trkpt lat="47.0925" lon="5.99383">
        <ele>359.4</ele>
        <time>2024-09-01T09:21:36Z</time>
      </trkpt>
      <trkpt lat="47.0925" lon="5.99386">
        <ele>359.4</ele>
        <time>2024-09-01T09:21:37Z</time>
      </trkpt>
      <trkpt lat="47.0925" lon="5.99388">
        <ele>359.6</ele>
        <time>2024-09-01T09:21:38Z</time>
      </trkpt>
      <trkpt lat="47.09251" lon="5.9939">
        <ele>359.8</ele>
        <time>2024-09-01T09:21:39Z</time>
      </trkpt>
      <trkpt lat="47.09251" lon="5.99392">
        <ele>359.8</ele>
        <time>2024-09-01T09:21:40Z</time>
      </trkpt>
      <trkpt lat="47.09252" lon="5.99394">
        <ele>360</ele>
        <time>2024-09-01T09:21:41Z</time>
      </trkpt>
      <trkpt lat="47.09252" lon="5.99397">
        <ele>360</ele>
        <time>2024-09-01T09:21:42Z</time>
      </trkpt>
      <trkpt lat="47.09253" lon="5.99399">
        <ele>360.2</ele>
        <time>2024-09-01T09:21:43Z</time>
      </trkpt>
      <trkpt lat="47.09253" lon="5.99401">
        <ele>360.6</ele>
        <time>2024-09-01T09:21:44Z</time>
      </trkpt>
      <trkpt lat="47.09253" lon="5.99403">
        <ele>360.8</ele>
        <time>2024-09-01T09:21:45Z</time>
      </trkpt>
      <trkpt lat="47.09254" lon="5.99406">
        <ele>361.2</ele>
        <time>2024-09-01T09:21:46Z</time>
      </trkpt>
      <trkpt lat="47.09254" lon="5.99409">
        <ele>361.4</ele>
        <time>2024-09-01T09:21:47Z</time>
      </trkpt>
      <trkpt lat="47.09255" lon="5.99411">
        <ele>361.4</ele>
        <time>2024-09-01T09:21:48Z</time>
      </trkpt>
      <trkpt lat="47.09255" lon="5.99412">
        <ele>361.8</ele>
        <time>2024-09-01T09:21:49Z</time>
      </trkpt>
      <trkpt lat="47.09256" lon="5.99414">
        <ele>362</ele>
        <time>2024-09-01T09:21:50Z</time>
      </trkpt>
      <trkpt lat="47.09256" lon="5.99416">
        <ele>362.2</ele>
        <time>2024-09-01T09:21:51Z</time>
      </trkpt>
      <trkpt lat="47.09256" lon="5.99419">
        <ele>362.4</ele>
        <time>2024-09-01T09:21:52Z</time>
      </trkpt>
      <trkpt lat="47.09257" lon="5.99421">
        <ele>362.4</ele>
        <time>2024-09-01T09:21:53Z</time>
      </trkpt>
      <trkpt lat="47.09257" lon="5.99423">
        <ele>362.8</ele>
        <time>2024-09-01T09:21:54Z</time>
      </trkpt>
      <trkpt lat="47.09257" lon="5.99424">
        <ele>363</ele>
        <time>2024-09-01T09:21:55Z</time>
      </trkpt>
      <trkpt lat="47.09256" lon="5.99425">
        <ele>363.2</ele>
        <time>2024-09-01T09:21:56Z</time>
      </trkpt>
      <trkpt lat="47.09256" lon="5.99427">
        <ele>363.4</ele>
        <time>2024-09-01T09:21:57Z</time>
      </trkpt>
      <trkpt lat="47.09256" lon="5.9943">
        <ele>363.4</ele>
        <time>2024-09-01T09:21:58Z</time>
      </trkpt>
      <trkpt lat="47.09256" lon="5.99433">
        <ele>363.6</ele>
        <time>2024-09-01T09:21:59Z</time>
      </trkpt>
      <trkpt lat="47.09257" lon="5.99435">
        <ele>363.8</ele>
        <time>2024-09-01T09:22:00Z</time>
      </trkpt>
      <trkpt lat="47.09257" lon="5.99437">
        <ele>363.8</ele>
        <time>2024-09-01T09:22:01Z</time>
      </trkpt>
      <trkpt lat="47.09257" lon="5.99439">
        <ele>364.2</ele>
        <time>2024-09-01T09:22:02Z</time>
      </trkpt>
      <trkpt lat="47.09257" lon="5.99441">
        <ele>364.2</ele>
        <time>2024-09-01T09:22:03Z</time>
      </trkpt>
      <trkpt lat="47.09258" lon="5.99442">
        <ele>364</ele>
        <time>2024-09-01T09:22:04Z</time>
      </trkpt>
      <trkpt lat="47.09258" lon="5.99444">
        <ele>364.2</ele>
        <time>2024-09-01T09:22:05Z</time>
      </trkpt>
      <trkpt lat="47.09258" lon="5.99447">
        <ele>364.4</ele>
        <time>2024-09-01T09:22:06Z</time>
      </trkpt>
      <trkpt lat="47.09259" lon="5.99449">
        <ele>364.4</ele>
        <time>2024-09-01T09:22:07Z</time>
      </trkpt>
      <trkpt lat="47.0926" lon="5.99452">
        <ele>364.4</ele>
        <time>2024-09-01T09:22:08Z</time>
      </trkpt>
      <trkpt lat="47.09261" lon="5.99455">
        <ele>364.4</ele>
        <time>2024-09-01T09:22:09Z</time>
      </trkpt>
      <trkpt lat="47.09262" lon="5.99457">
        <ele>364.8</ele>
        <time>2024-09-01T09:22:10Z</time>
      </trkpt>
      <trkpt lat="47.09262" lon="5.99459">
        <ele>364.6</ele>
        <time>2024-09-01T09:22:11Z</time>
      </trkpt>
      <trkpt lat="47.09263" lon="5.99462">
        <ele>364.6</ele>
        <time>2024-09-01T09:22:12Z</time>
      </trkpt>
      <trkpt lat="47.09263" lon="5.99464">
        <ele>364.8</ele>
        <time>2024-09-01T09:22:13Z</time>
      </trkpt>
      <trkpt lat="47.09263" lon="5.99466">
        <ele>364.8</ele>
        <time>2024-09-01T09:22:14Z</time>
      </trkpt>
      <trkpt lat="47.09264" lon="5.99469">
        <ele>365</ele>
        <time>2024-09-01T09:22:15Z</time>
      </trkpt>
      <trkpt lat="47.09264" lon="5.99471">
        <ele>364.8</ele>
        <time>2024-09-01T09:22:16Z</time>
      </trkpt>
      <trkpt lat="47.09264" lon="5.99474">
        <ele>365</ele>
        <time>2024-09-01T09:22:17Z</time>
      </trkpt>
      <trkpt lat="47.09265" lon="5.99476">
        <ele>365</ele>
        <time>2024-09-01T09:22:18Z</time>
      </trkpt>
      <trkpt lat="47.09265" lon="5.99477">
        <ele>365</ele>
        <time>2024-09-01T09:22:19Z</time>
      </trkpt>
      <trkpt lat="47.09265" lon="5.99479">
        <ele>365.2</ele>
        <time>2024-09-01T09:22:20Z</time>
      </trkpt>
      <trkpt lat="47.09265" lon="5.99481">
        <ele>365.2</ele>
        <time>2024-09-01T09:22:21Z</time>
      </trkpt>
      <trkpt lat="47.09265" lon="5.99483">
        <ele>365.4</ele>
        <time>2024-09-01T09:22:22Z</time>
      </trkpt>
      <trkpt lat="47.09265" lon="5.99484">
        <ele>365.6</ele>
        <time>2024-09-01T09:22:23Z</time>
      </trkpt>
      <trkpt lat="47.09265" lon="5.99486">
        <ele>365.4</ele>
        <time>2024-09-01T09:22:24Z</time>
      </trkpt>
      <trkpt lat="47.09265" lon="5.99488">
        <ele>365.6</ele>
        <time>2024-09-01T09:22:25Z</time>
      </trkpt>
      <trkpt lat="47.09265" lon="5.99489">
        <ele>365.4</ele>
        <time>2024-09-01T09:22:26Z</time>
      </trkpt>
      <trkpt lat="47.09266" lon="5.99491">
        <ele>365.6</ele>
        <time>2024-09-01T09:22:27Z</time>
      </trkpt>
      <trkpt lat="47.09266" lon="5.99492">
        <ele>365.6</ele>
        <time>2024-09-01T09:22:28Z</time>
      </trkpt>
      <trkpt lat="47.09266" lon="5.99492">
        <ele>365.8</ele>
        <time>2024-09-01T09:22:29Z</time>
      </trkpt>
      <trkpt lat="47.09266" lon="5.99493">
        <ele>365.6</ele>
        <time>2024-09-01T09:22:30Z</time>
      </trkpt>
      <trkpt lat="47.09265" lon="5.99494">
        <ele>365.6</ele>
        <time>2024-09-01T09:22:31Z</time>
      </trkpt>
      <trkpt lat="47.09265" lon="5.99494">
        <ele>365.8</ele>
        <time>2024-09-01T09:22:32Z</time>
      </trkpt>
      <trkpt lat="47.09265" lon="5.99495">
        <ele>365.8</ele>
        <time>2024-09-01T09:22:33Z</time>
      </trkpt>
      <trkpt lat="47.09265" lon="5.99495">
        <ele>365.8</ele>
        <time>2024-09-01T09:22:34Z</time>
      </trkpt>
      <trkpt lat="47.09265" lon="5.99495">
        <ele>365.8</ele>
        <time>2024-09-01T09:22:35Z</time>
      </trkpt>
      <trkpt lat="47.09265" lon="5.99495">
        <ele>366</ele>
        <time>2024-09-01T09:22:36Z</time>
      </trkpt>
      <trkpt lat="47.09265" lon="5.99495">
        <ele>365.8</ele>
        <time>2024-09-01T09:22:37Z</time>
      </trkpt>
      <trkpt lat="47.09264" lon="5.99495">
        <ele>365.8</ele>
        <time>2024-09-01T09:22:38Z</time>
      </trkpt>
      <trkpt lat="47.09264" lon="5.99496">
        <ele>365.8</ele>
        <time>2024-09-01T09:22:39Z</time>
      </trkpt>
      <trkpt lat="47.09264" lon="5.99496">
        <ele>365.8</ele>
        <time>2024-09-01T09:22:40Z</time>
      </trkpt>
      <trkpt lat="47.09264" lon="5.99496">
        <ele>366</ele>
        <time>2024-09-01T09:22:41Z</time>
      </trkpt>
      <trkpt lat="47.09264" lon="5.99496">
        <ele>366</ele>
        <time>2024-09-01T09:22:42Z</time>
      </trkpt>
      <trkpt lat="47.09264" lon="5.99496">
        <ele>366</ele>
        <time>2024-09-01T09:22:43Z</time>
      </trkpt>
      <trkpt lat="47.09264" lon="5.99496">
        <ele>366</ele>
        <time>2024-09-01T09:22:44Z</time>
      </trkpt>
      <trkpt lat="47.09264" lon="5.99496">
        <ele>366</ele>
        <time>2024-09-01T09:22:45Z</time>
      </trkpt>
      <trkpt lat="47.09264" lon="5.99496">
        <ele>366</ele>
        <time>2024-09-01T09:22:46Z</time>
      </trkpt>
      <trkpt lat="47.09264" lon="5.99496">
        <ele>366</ele>
        <time>2024-09-01T09:22:47Z</time>
      </trkpt>
      <trkpt lat="47.09264" lon="5.99496">
        <ele>366</ele>
        <time>2024-09-01T09:22:48Z</time>
      </trkpt>
      <trkpt lat="47.09264" lon="5.99496">
        <ele>366</ele>
        <time>2024-09-01T09:22:49Z</time>
      </trkpt>
      <trkpt lat="47.09264" lon="5.99496">
        <ele>366</ele>
        <time>2024-09-01T09:22:50Z</time>
      </trkpt>
      <trkpt lat="47.09264" lon="5.99496">
        <ele>365.8</ele>
        <time>2024-09-01T09:22:51Z</time>
      </trkpt>
      <trkpt lat="47.09264" lon="5.99496">
        <ele>366</ele>
        <time>2024-09-01T09:22:52Z</time>
      </trkpt>
      <trkpt lat="47.09264" lon="5.99497">
        <ele>366</ele>
        <time>2024-09-01T09:22:53Z</time>
      </trkpt>
      <trkpt lat="47.09264" lon="5.99497">
        <ele>366</ele>
        <time>2024-09-01T09:22:54Z</time>
      </trkpt>
      <trkpt lat="47.09264" lon="5.99497">
        <ele>365.8</ele>
        <time>2024-09-01T09:22:55Z</time>
      </trkpt>
      <trkpt lat="47.09264" lon="5.99498">
        <ele>366</ele>
        <time>2024-09-01T09:22:56Z</time>
      </trkpt>
      <trkpt lat="47.09264" lon="5.99498">
        <ele>366</ele>
        <time>2024-09-01T09:22:57Z</time>
      </trkpt>
      <trkpt lat="47.09264" lon="5.99498">
        <ele>365.8</ele>
        <time>2024-09-01T09:22:58Z</time>
      </trkpt>
      <trkpt lat="47.09264" lon="5.99498">
        <ele>366</ele>
        <time>2024-09-01T09:22:59Z</time>
      </trkpt>
      <trkpt lat="47.09264" lon="5.99498">
        <ele>366</ele>
        <time>2024-09-01T09:23:00Z</time>
      </trkpt>
      <trkpt lat="47.09263" lon="5.99498">
        <ele>366</ele>
        <time>2024-09-01T09:23:01Z</time>
      </trkpt>
      <trkpt lat="47.09263" lon="5.99498">
        <ele>366</ele>
        <time>2024-09-01T09:23:02Z</time>
      </trkpt>
      <trkpt lat="47.09263" lon="5.99498">
        <ele>366</ele>
        <time>2024-09-01T09:23:03Z</time>
      </trkpt>
      <trkpt lat="47.09263" lon="5.99497">
        <ele>366</ele>
        <time>2024-09-01T09:23:04Z</time>
      </trkpt>
      <trkpt lat="47.09262" lon="5.99497">
        <ele>365.8</ele>
        <time>2024-09-01T09:23:05Z</time>
      </trkpt>
      <trkpt lat="47.09262" lon="5.99497">
        <ele>365.8</ele>
        <time>2024-09-01T09:23:06Z</time>
      </trkpt>
      <trkpt lat="47.09262" lon="5.99497">
        <ele>365.8</ele>
        <time>2024-09-01T09:23:07Z</time>
      </trkpt>
      <trkpt lat="47.09262" lon="5.99497">
        <ele>365.8</ele>
        <time>2024-09-01T09:23:08Z</time>
      </trkpt>
      <trkpt lat="47.09262" lon="5.99498">
        <ele>365.8</ele>
        <time>2024-09-01T09:23:09Z</time>
      </trkpt>
      <trkpt lat="47.09262" lon="5.99498">
        <ele>365.8</ele>
        <time>2024-09-01T09:23:10Z</time>
      </trkpt>
      <trkpt lat="47.09262" lon="5.99498">
        <ele>365.8</ele>
        <time>2024-09-01T09:23:11Z</time>
      </trkpt>
      <trkpt lat="47.09262" lon="5.99498">
        <ele>366</ele>
        <time>2024-09-01T09:23:12Z</time>
      </trkpt>
      <trkpt lat="47.09262" lon="5.99498">
        <ele>365.8</ele>
        <time>2024-09-01T09:23:13Z</time>
      </trkpt>
      <trkpt lat="47.09262" lon="5.99498">
        <ele>365.8</ele>
        <time>2024-09-01T09:23:14Z</time>
      </trkpt>
      <trkpt lat="47.09262" lon="5.99498">
        <ele>366</ele>
        <time>2024-09-01T09:23:15Z</time>
      </trkpt>
      <trkpt lat="47.09262" lon="5.99498">
        <ele>365.8</ele>
        <time>2024-09-01T09:23:16Z</time>
      </trkpt>
      <trkpt lat="47.09262" lon="5.99498">
        <ele>365.8</ele>
        <time>2024-09-01T09:23:17Z</time>
      </trkpt>
      <trkpt lat="47.09262" lon="5.99498">
        <ele>365.8</ele>
        <time>2024-09-01T09:23:18Z</time>
      </trkpt>
      <trkpt lat="47.09262" lon="5.99498">
        <ele>365.8</ele>
        <time>2024-09-01T09:23:19Z</time>
      </trkpt>
      <trkpt lat="47.09262" lon="5.99498">
        <ele>365.8</ele>
        <time>2024-09-01T09:23:20Z</time>
      </trkpt>
      <trkpt lat="47.09262" lon="5.99498">
        <ele>365.8</ele>
        <time>2024-09-01T09:23:21Z</time>
      </trkpt>
      <trkpt lat="47.09262" lon="5.99498">
        <ele>365.8</ele>
        <time>2024-09-01T09:23:22Z</time>
      </trkpt>
      <trkpt lat="47.09262" lon="5.99498">
        <ele>365.8</ele>
        <time>2024-09-01T09:23:23Z</time>
      </trkpt>
      <trkpt lat="47.09262" lon="5.99498">
        <ele>365.8</ele>
        <time>2024-09-01T09:23:24Z</time>
      </trkpt>
      <trkpt lat="47.09262" lon="5.99498">
        <ele>365.8</ele>
        <time>2024-09-01T09:23:25Z</time>
      </trkpt>
      <trkpt lat="47.09262" lon="5.99498">
        <ele>365.8</ele>
        <time>2024-09-01T09:23:26Z</time>
      </trkpt>
      <trkpt lat="47.09262" lon="5.99498">
        <ele>365.6</ele>
        <time>2024-09-01T09:23:27Z</time>
      </trkpt>
      <trkpt lat="47.09262" lon="5.99498">
        <ele>365.8</ele>
        <time>2024-09-01T09:23:28Z</time>
      </trkpt>
      <trkpt lat="47.09262" lon="5.99497">
        <ele>365.6</ele>
        <time>2024-09-01T09:23:29Z</time>
      </trkpt>
      <trkpt lat="47.09262" lon="5.99497">
        <ele>365.8</ele>
        <time>2024-09-01T09:23:30Z</time>
      </trkpt>
      <trkpt lat="47.09262" lon="5.99497">
        <ele>365.8</ele>
        <time>2024-09-01T09:23:31Z</time>
      </trkpt>
      <trkpt lat="47.09262" lon="5.99497">
        <ele>365.6</ele>
        <time>2024-09-01T09:23:32Z</time>
      </trkpt>
      <trkpt lat="47.09262" lon="5.99497">
        <ele>365.6</ele>
        <time>2024-09-01T09:23:33Z</time>
      </trkpt>
      <trkpt lat="47.09262" lon="5.99497">
        <ele>365.8</ele>
        <time>2024-09-01T09:23:34Z</time>
      </trkpt>
      <trkpt lat="47.09263" lon="5.99497">
        <ele>365.6</ele>
        <time>2024-09-01T09:23:35Z</time>
      </trkpt>
      <trkpt lat="47.09263" lon="5.99497">
        <ele>365.8</ele>
        <time>2024-09-01T09:23:36Z</time>
      </trkpt>
      <trkpt lat="47.09263" lon="5.99497">
        <ele>365.8</ele>
        <time>2024-09-01T09:23:37Z</time>
      </trkpt>
      <trkpt lat="47.09264" lon="5.99498">
        <ele>365.8</ele>
        <time>2024-09-01T09:23:38Z</time>
      </trkpt>
      <trkpt lat="47.09264" lon="5.99498">
        <ele>365.8</ele>
        <time>2024-09-01T09:23:39Z</time>
      </trkpt>
      <trkpt lat="47.09263" lon="5.99499">
        <ele>365.8</ele>
        <time>2024-09-01T09:23:40Z</time>
      </trkpt>
      <trkpt lat="47.09263" lon="5.995">
        <ele>365.8</ele>
        <time>2024-09-01T09:23:41Z</time>
      </trkpt>
      <trkpt lat="47.09263" lon="5.99501">
        <ele>365.8</ele>
        <time>2024-09-01T09:23:42Z</time>
      </trkpt>
      <trkpt lat="47.09263" lon="5.99503">
        <ele>365.8</ele>
        <time>2024-09-01T09:23:43Z</time>
      </trkpt>
      <trkpt lat="47.09264" lon="5.99504">
        <ele>365.8</ele>
        <time>2024-09-01T09:23:44Z</time>
      </trkpt>
      <trkpt lat="47.09263" lon="5.99505">
        <ele>365.8</ele>
        <time>2024-09-01T09:23:45Z</time>
      </trkpt>
      <trkpt lat="47.09264" lon="5.99507">
        <ele>365.8</ele>
        <time>2024-09-01T09:23:46Z</time>
      </trkpt>
      <trkpt lat="47.09264" lon="5.99508">
        <ele>365.8</ele>
        <time>2024-09-01T09:23:47Z</time>
      </trkpt>
      <trkpt lat="47.09264" lon="5.99509">
        <ele>366</ele>
        <time>2024-09-01T09:23:48Z</time>
      </trkpt>
      <trkpt lat="47.09265" lon="5.99511">
        <ele>366</ele>
        <time>2024-09-01T09:23:49Z</time>
      </trkpt>
      <trkpt lat="47.09266" lon="5.99512">
        <ele>366</ele>
        <time>2024-09-01T09:23:50Z</time>
      </trkpt>
      <trkpt lat="47.09267" lon="5.99514">
        <ele>366.2</ele>
        <time>2024-09-01T09:23:51Z</time>
      </trkpt>
      <trkpt lat="47.09267" lon="5.99517">
        <ele>366</ele>
        <time>2024-09-01T09:23:52Z</time>
      </trkpt>
      <trkpt lat="47.09268" lon="5.9952">
        <ele>366.2</ele>
        <time>2024-09-01T09:23:53Z</time>
      </trkpt>
      <trkpt lat="47.09269" lon="5.99524">
        <ele>366.2</ele>
        <time>2024-09-01T09:23:54Z</time>
      </trkpt>
      <trkpt lat="47.0927" lon="5.99528">
        <ele>366.2</ele>
        <time>2024-09-01T09:23:55Z</time>
      </trkpt>
      <trkpt lat="47.09271" lon="5.99532">
        <ele>366.4</ele>
        <time>2024-09-01T09:23:56Z</time>
      </trkpt>
      <trkpt lat="47.09272" lon="5.99537">
        <ele>366.4</ele>
        <time>2024-09-01T09:23:57Z</time>
      </trkpt>
      <trkpt lat="47.09274" lon="5.99541">
        <ele>366.4</ele>
        <time>2024-09-01T09:23:58Z</time>
      </trkpt>
      <trkpt lat="47.09275" lon="5.99545">
        <ele>366.4</ele>
        <time>2024-09-01T09:23:59Z</time>
      </trkpt>
      <trkpt lat="47.09276" lon="5.9955">
        <ele>366.6</ele>
        <time>2024-09-01T09:24:00Z</time>
      </trkpt>
      <trkpt lat="47.09277" lon="5.99554">
        <ele>366.6</ele>
        <time>2024-09-01T09:24:01Z</time>
      </trkpt>
      <trkpt lat="47.09277" lon="5.99558">
        <ele>366.6</ele>
        <time>2024-09-01T09:24:02Z</time>
      </trkpt>
      <trkpt lat="47.09278" lon="5.99563">
        <ele>366.8</ele>
        <time>2024-09-01T09:24:03Z</time>
      </trkpt>
      <trkpt lat="47.09278" lon="5.99567">
        <ele>366.8</ele>
        <time>2024-09-01T09:24:04Z</time>
      </trkpt>
      <trkpt lat="47.09279" lon="5.99573">
        <ele>366.8</ele>
        <time>2024-09-01T09:24:05Z</time>
      </trkpt>
      <trkpt lat="47.09279" lon="5.99578">
        <ele>366.8</ele>
        <time>2024-09-01T09:24:06Z</time>
      </trkpt>
      <trkpt lat="47.0928" lon="5.99584">
        <ele>366.8</ele>
        <time>2024-09-01T09:24:07Z</time>
      </trkpt>
      <trkpt lat="47.0928" lon="5.9959">
        <ele>367.2</ele>
        <time>2024-09-01T09:24:08Z</time>
      </trkpt>
      <trkpt lat="47.09281" lon="5.99595">
        <ele>367.2</ele>
        <time>2024-09-01T09:24:09Z</time>
      </trkpt>
      <trkpt lat="47.09282" lon="5.996">
        <ele>367.4</ele>
        <time>2024-09-01T09:24:10Z</time>
      </trkpt>
      <trkpt lat="47.09282" lon="5.99606">
        <ele>367.4</ele>
        <time>2024-09-01T09:24:11Z</time>
      </trkpt>
      <trkpt lat="47.09283" lon="5.99611">
        <ele>367.6</ele>
        <time>2024-09-01T09:24:12Z</time>
      </trkpt>
      <trkpt lat="47.09283" lon="5.99617">
        <ele>367.6</ele>
        <time>2024-09-01T09:24:13Z</time>
      </trkpt>
      <trkpt lat="47.09283" lon="5.99622">
        <ele>367.6</ele>
        <time>2024-09-01T09:24:14Z</time>
      </trkpt>
      <trkpt lat="47.09283" lon="5.99627">
        <ele>367.8</ele>
        <time>2024-09-01T09:24:15Z</time>
      </trkpt>
      <trkpt lat="47.09283" lon="5.99632">
        <ele>367.8</ele>
        <time>2024-09-01T09:24:16Z</time>
      </trkpt>
      <trkpt lat="47.09282" lon="5.99637">
        <ele>367.8</ele>
        <time>2024-09-01T09:24:17Z</time>
      </trkpt>
      <trkpt lat="47.09282" lon="5.99642">
        <ele>368</ele>
        <time>2024-09-01T09:24:18Z</time>
      </trkpt>
      <trkpt lat="47.09282" lon="5.99647">
        <ele>368</ele>
        <time>2024-09-01T09:24:19Z</time>
      </trkpt>
      <trkpt lat="47.09282" lon="5.99651">
        <ele>368</ele>
        <time>2024-09-01T09:24:20Z</time>
      </trkpt>
      <trkpt lat="47.09282" lon="5.99656">
        <ele>368</ele>
        <time>2024-09-01T09:24:21Z</time>
      </trkpt>
      <trkpt lat="47.09283" lon="5.99661">
        <ele>368.2</ele>
        <time>2024-09-01T09:24:22Z</time>
      </trkpt>
      <trkpt lat="47.09283" lon="5.99666">
        <ele>368.2</ele>
        <time>2024-09-01T09:24:23Z</time>
      </trkpt>
      <trkpt lat="47.09283" lon="5.99671">
        <ele>368.4</ele>
        <time>2024-09-01T09:24:24Z</time>
      </trkpt>
      <trkpt lat="47.09284" lon="5.99677">
        <ele>368.4</ele>
        <time>2024-09-01T09:24:25Z</time>
      </trkpt>
      <trkpt lat="47.09284" lon="5.99682">
        <ele>368.6</ele>
        <time>2024-09-01T09:24:26Z</time>
      </trkpt>
      <trkpt lat="47.09285" lon="5.99687">
        <ele>368.6</ele>
        <time>2024-09-01T09:24:27Z</time>
      </trkpt>
      <trkpt lat="47.09286" lon="5.99692">
        <ele>368.6</ele>
        <time>2024-09-01T09:24:28Z</time>
      </trkpt>
      <trkpt lat="47.09286" lon="5.99697">
        <ele>368.8</ele>
        <time>2024-09-01T09:24:29Z</time>
      </trkpt>
      <trkpt lat="47.09287" lon="5.99702">
        <ele>369</ele>
        <time>2024-09-01T09:24:30Z</time>
      </trkpt>
      <trkpt lat="47.09287" lon="5.99707">
        <ele>368.8</ele>
        <time>2024-09-01T09:24:31Z</time>
      </trkpt>
      <trkpt lat="47.09287" lon="5.99712">
        <ele>369</ele>
        <time>2024-09-01T09:24:32Z</time>
      </trkpt>
      <trkpt lat="47.09288" lon="5.99717">
        <ele>369.2</ele>
        <time>2024-09-01T09:24:33Z</time>
      </trkpt>
      <trkpt lat="47.09289" lon="5.99722">
        <ele>369.4</ele>
        <time>2024-09-01T09:24:34Z</time>
      </trkpt>
      <trkpt lat="47.09289" lon="5.99726">
        <ele>369.6</ele>
        <time>2024-09-01T09:24:35Z</time>
      </trkpt>
      <trkpt lat="47.0929" lon="5.99731">
        <ele>370</ele>
        <time>2024-09-01T09:24:36Z</time>
      </trkpt>
      <trkpt lat="47.0929" lon="5.99736">
        <ele>370.2</ele>
        <time>2024-09-01T09:24:37Z</time>
      </trkpt>
      <trkpt lat="47.09291" lon="5.99741">
        <ele>370.2</ele>
        <time>2024-09-01T09:24:38Z</time>
      </trkpt>
      <trkpt lat="47.09292" lon="5.99746">
        <ele>370.4</ele>
        <time>2024-09-01T09:24:39Z</time>
      </trkpt>
      <trkpt lat="47.09293" lon="5.99751">
        <ele>370.6</ele>
        <time>2024-09-01T09:24:40Z</time>
      </trkpt>
      <trkpt lat="47.09293" lon="5.99756">
        <ele>370.8</ele>
        <time>2024-09-01T09:24:41Z</time>
      </trkpt>
      <trkpt lat="47.09294" lon="5.99762">
        <ele>370.8</ele>
        <time>2024-09-01T09:24:42Z</time>
      </trkpt>
      <trkpt lat="47.09295" lon="5.99767">
        <ele>371</ele>
        <time>2024-09-01T09:24:43Z</time>
      </trkpt>
      <trkpt lat="47.09296" lon="5.99772">
        <ele>371</ele>
        <time>2024-09-01T09:24:44Z</time>
      </trkpt>
      <trkpt lat="47.09297" lon="5.99777">
        <ele>371.4</ele>
        <time>2024-09-01T09:24:45Z</time>
      </trkpt>
      <trkpt lat="47.09298" lon="5.99783">
        <ele>371.4</ele>
        <time>2024-09-01T09:24:46Z</time>
      </trkpt>
      <trkpt lat="47.09299" lon="5.99788">
        <ele>371.6</ele>
        <time>2024-09-01T09:24:47Z</time>
      </trkpt>
      <trkpt lat="47.09299" lon="5.99793">
        <ele>371.8</ele>
        <time>2024-09-01T09:24:48Z</time>
      </trkpt>
      <trkpt lat="47.093" lon="5.99797">
        <ele>372</ele>
        <time>2024-09-01T09:24:49Z</time>
      </trkpt>
      <trkpt lat="47.09301" lon="5.99802">
        <ele>372.2</ele>
        <time>2024-09-01T09:24:50Z</time>
      </trkpt>
      <trkpt lat="47.09301" lon="5.99807">
        <ele>372.4</ele>
        <time>2024-09-01T09:24:51Z</time>
      </trkpt>
      <trkpt lat="47.09302" lon="5.99812">
        <ele>372.6</ele>
        <time>2024-09-01T09:24:52Z</time>
      </trkpt>
      <trkpt lat="47.09303" lon="5.99817">
        <ele>372.6</ele>
        <time>2024-09-01T09:24:53Z</time>
      </trkpt>
      <trkpt lat="47.09304" lon="5.99822">
        <ele>372.8</ele>
        <time>2024-09-01T09:24:54Z</time>
      </trkpt>
      <trkpt lat="47.09305" lon="5.99827">
        <ele>373</ele>
        <time>2024-09-01T09:24:55Z</time>
      </trkpt>
      <trkpt lat="47.09306" lon="5.99832">
        <ele>373.2</ele>
        <time>2024-09-01T09:24:56Z</time>
      </trkpt>
      <trkpt lat="47.09306" lon="5.99836">
        <ele>373.2</ele>
        <time>2024-09-01T09:24:57Z</time>
      </trkpt>
      <trkpt lat="47.09307" lon="5.99841">
        <ele>373.6</ele>
        <time>2024-09-01T09:24:58Z</time>
      </trkpt>
      <trkpt lat="47.09308" lon="5.99846">
        <ele>373.8</ele>
        <time>2024-09-01T09:24:59Z</time>
      </trkpt>
      <trkpt lat="47.09308" lon="5.99851">
        <ele>373.8</ele>
        <time>2024-09-01T09:25:00Z</time>
      </trkpt>
      <trkpt lat="47.09309" lon="5.99856">
        <ele>374</ele>
        <time>2024-09-01T09:25:01Z</time>
      </trkpt>
      <trkpt lat="47.0931" lon="5.9986">
        <ele>374.2</ele>
        <time>2024-09-01T09:25:02Z</time>
      </trkpt>
      <trkpt lat="47.09311" lon="5.99865">
        <ele>374.4</ele>
        <time>2024-09-01T09:25:03Z</time>
      </trkpt>
      <trkpt lat="47.09312" lon="5.99869">
        <ele>374.6</ele>
        <time>2024-09-01T09:25:04Z</time>
      </trkpt>
      <trkpt lat="47.09313" lon="5.99874">
        <ele>374.8</ele>
        <time>2024-09-01T09:25:05Z</time>
      </trkpt>
      <trkpt lat="47.09314" lon="5.99878">
        <ele>374.8</ele>
        <time>2024-09-01T09:25:06Z</time>
      </trkpt>
      <trkpt lat="47.09315" lon="5.99883">
        <ele>374.8</ele>
        <time>2024-09-01T09:25:07Z</time>
      </trkpt>
      <trkpt lat="47.09316" lon="5.99888">
        <ele>375</ele>
        <time>2024-09-01T09:25:08Z</time>
      </trkpt>
      <trkpt lat="47.09317" lon="5.99892">
        <ele>375.2</ele>
        <time>2024-09-01T09:25:09Z</time>
      </trkpt>
      <trkpt lat="47.09318" lon="5.99896">
        <ele>375.4</ele>
        <time>2024-09-01T09:25:10Z</time>
      </trkpt>
      <trkpt lat="47.09319" lon="5.999">
        <ele>375.4</ele>
        <time>2024-09-01T09:25:11Z</time>
      </trkpt>
      <trkpt lat="47.0932" lon="5.99905">
        <ele>375.4</ele>
        <time>2024-09-01T09:25:12Z</time>
      </trkpt>
      <trkpt lat="47.09321" lon="5.9991">
        <ele>375.6</ele>
        <time>2024-09-01T09:25:13Z</time>
      </trkpt>
      <trkpt lat="47.09322" lon="5.99914">
        <ele>375.6</ele>
        <time>2024-09-01T09:25:14Z</time>
      </trkpt>
      <trkpt lat="47.09322" lon="5.99919">
        <ele>375.8</ele>
        <time>2024-09-01T09:25:15Z</time>
      </trkpt>
      <trkpt lat="47.09323" lon="5.99924">
        <ele>376</ele>
        <time>2024-09-01T09:25:16Z</time>
      </trkpt>
      <trkpt lat="47.09324" lon="5.99928">
        <ele>376.2</ele>
        <time>2024-09-01T09:25:17Z</time>
      </trkpt>
      <trkpt lat="47.09324" lon="5.99933">
        <ele>376.4</ele>
        <time>2024-09-01T09:25:18Z</time>
      </trkpt>
      <trkpt lat="47.09325" lon="5.99937">
        <ele>376.6</ele>
        <time>2024-09-01T09:25:19Z</time>
      </trkpt>
      <trkpt lat="47.09326" lon="5.99942">
        <ele>376.6</ele>
        <time>2024-09-01T09:25:20Z</time>
      </trkpt>
      <trkpt lat="47.09326" lon="5.99947">
        <ele>376.8</ele>
        <time>2024-09-01T09:25:21Z</time>
      </trkpt>
      <trkpt lat="47.09327" lon="5.99952">
        <ele>376.6</ele>
        <time>2024-09-01T09:25:22Z</time>
      </trkpt>
      <trkpt lat="47.09328" lon="5.99957">
        <ele>376.6</ele>
        <time>2024-09-01T09:25:23Z</time>
      </trkpt>
      <trkpt lat="47.0933" lon="5.99962">
        <ele>376.8</ele>
        <time>2024-09-01T09:25:24Z</time>
      </trkpt>
      <trkpt lat="47.09331" lon="5.99967">
        <ele>377</ele>
        <time>2024-09-01T09:25:25Z</time>
      </trkpt>
      <trkpt lat="47.09333" lon="5.99972">
        <ele>377</ele>
        <time>2024-09-01T09:25:26Z</time>
      </trkpt>
      <trkpt lat="47.09334" lon="5.99977">
        <ele>377</ele>
        <time>2024-09-01T09:25:27Z</time>
      </trkpt>
      <trkpt lat="47.09335" lon="5.99982">
        <ele>377</ele>
        <time>2024-09-01T09:25:28Z</time>
      </trkpt>
      <trkpt lat="47.09337" lon="5.99987">
        <ele>377.2</ele>
        <time>2024-09-01T09:25:29Z</time>
      </trkpt>
      <trkpt lat="47.09338" lon="5.99992">
        <ele>377</ele>
        <time>2024-09-01T09:25:30Z</time>
      </trkpt>
      <trkpt lat="47.09339" lon="5.99997">
        <ele>377</ele>
        <time>2024-09-01T09:25:31Z</time>
      </trkpt>
      <trkpt lat="47.09341" lon="6.00002">
        <ele>377.2</ele>
        <time>2024-09-01T09:25:32Z</time>
      </trkpt>
      <trkpt lat="47.09343" lon="6.00006">
        <ele>377.2</ele>
        <time>2024-09-01T09:25:33Z</time>
      </trkpt>
      <trkpt lat="47.09344" lon="6.00011">
        <ele>377.2</ele>
        <time>2024-09-01T09:25:34Z</time>
      </trkpt>
      <trkpt lat="47.09345" lon="6.00016">
        <ele>377.2</ele>
        <time>2024-09-01T09:25:35Z</time>
      </trkpt>
      <trkpt lat="47.09346" lon="6.00021">
        <ele>377.2</ele>
        <time>2024-09-01T09:25:36Z</time>
      </trkpt>
      <trkpt lat="47.09347" lon="6.00026">
        <ele>377.2</ele>
        <time>2024-09-01T09:25:37Z</time>
      </trkpt>
      <trkpt lat="47.09348" lon="6.00031">
        <ele>377.2</ele>
        <time>2024-09-01T09:25:38Z</time>
      </trkpt>
      <trkpt lat="47.09349" lon="6.00036">
        <ele>377.2</ele>
        <time>2024-09-01T09:25:39Z</time>
      </trkpt>
      <trkpt lat="47.0935" lon="6.00042">
        <ele>377.4</ele>
        <time>2024-09-01T09:25:40Z</time>
      </trkpt>
      <trkpt lat="47.09351" lon="6.00047">
        <ele>377.4</ele>
        <time>2024-09-01T09:25:41Z</time>
      </trkpt>
      <trkpt lat="47.09353" lon="6.00053">
        <ele>377.4</ele>
        <time>2024-09-01T09:25:42Z</time>
      </trkpt>
      <trkpt lat="47.09354" lon="6.00058">
        <ele>377.2</ele>
        <time>2024-09-01T09:25:43Z</time>
      </trkpt>
      <trkpt lat="47.09355" lon="6.00063">
        <ele>377.4</ele>
        <time>2024-09-01T09:25:44Z</time>
      </trkpt>
      <trkpt lat="47.09356" lon="6.00069">
        <ele>377.4</ele>
        <time>2024-09-01T09:25:45Z</time>
      </trkpt>
      <trkpt lat="47.09356" lon="6.00074">
        <ele>377.4</ele>
        <time>2024-09-01T09:25:46Z</time>
      </trkpt>
      <trkpt lat="47.09357" lon="6.00079">
        <ele>377.4</ele>
        <time>2024-09-01T09:25:47Z</time>
      </trkpt>
      <trkpt lat="47.09358" lon="6.00085">
        <ele>377.6</ele>
        <time>2024-09-01T09:25:48Z</time>
      </trkpt>
      <trkpt lat="47.09359" lon="6.0009">
        <ele>377.4</ele>
        <time>2024-09-01T09:25:49Z</time>
      </trkpt>
      <trkpt lat="47.0936" lon="6.00095">
        <ele>377.4</ele>
        <time>2024-09-01T09:25:50Z</time>
      </trkpt>
      <trkpt lat="47.0936" lon="6.001">
        <ele>377.4</ele>
        <time>2024-09-01T09:25:51Z</time>
      </trkpt>
      <trkpt lat="47.09361" lon="6.00106">
        <ele>377.4</ele>
        <time>2024-09-01T09:25:52Z</time>
      </trkpt>
      <trkpt lat="47.09362" lon="6.00111">
        <ele>377.6</ele>
        <time>2024-09-01T09:25:53Z</time>
      </trkpt>
      <trkpt lat="47.09362" lon="6.00117">
        <ele>377.6</ele>
        <time>2024-09-01T09:25:54Z</time>
      </trkpt>
      <trkpt lat="47.09363" lon="6.00122">
        <ele>377.8</ele>
        <time>2024-09-01T09:25:55Z</time>
      </trkpt>
      <trkpt lat="47.09364" lon="6.00128">
        <ele>377.6</ele>
        <time>2024-09-01T09:25:56Z</time>
      </trkpt>
      <trkpt lat="47.09365" lon="6.00133">
        <ele>377.8</ele>
        <time>2024-09-01T09:25:57Z</time>
      </trkpt>
      <trkpt lat="47.09366" lon="6.00138">
        <ele>377.8</ele>
        <time>2024-09-01T09:25:58Z</time>
      </trkpt>
      <trkpt lat="47.09367" lon="6.00143">
        <ele>378</ele>
        <time>2024-09-01T09:25:59Z</time>
      </trkpt>
      <trkpt lat="47.09368" lon="6.00148">
        <ele>378</ele>
        <time>2024-09-01T09:26:00Z</time>
      </trkpt>
      <trkpt lat="47.09369" lon="6.00153">
        <ele>378</ele>
        <time>2024-09-01T09:26:01Z</time>
      </trkpt>
      <trkpt lat="47.0937" lon="6.00158">
        <ele>378.2</ele>
        <time>2024-09-01T09:26:02Z</time>
      </trkpt>
      <trkpt lat="47.09372" lon="6.00163">
        <ele>378</ele>
        <time>2024-09-01T09:26:03Z</time>
      </trkpt>
      <trkpt lat="47.09374" lon="6.00168">
        <ele>378.2</ele>
        <time>2024-09-01T09:26:04Z</time>
      </trkpt>
      <trkpt lat="47.09376" lon="6.00173">
        <ele>378.2</ele>
        <time>2024-09-01T09:26:05Z</time>
      </trkpt>
      <trkpt lat="47.09378" lon="6.00178">
        <ele>378.4</ele>
        <time>2024-09-01T09:26:06Z</time>
      </trkpt>
      <trkpt lat="47.0938" lon="6.00183">
        <ele>378.6</ele>
        <time>2024-09-01T09:26:07Z</time>
      </trkpt>
      <trkpt lat="47.09383" lon="6.00187">
        <ele>378.4</ele>
        <time>2024-09-01T09:26:08Z</time>
      </trkpt>
      <trkpt lat="47.09386" lon="6.00192">
        <ele>378.8</ele>
        <time>2024-09-01T09:26:09Z</time>
      </trkpt>
      <trkpt lat="47.09388" lon="6.00197">
        <ele>378.8</ele>
        <time>2024-09-01T09:26:10Z</time>
      </trkpt>
      <trkpt lat="47.09391" lon="6.00202">
        <ele>378.8</ele>
        <time>2024-09-01T09:26:11Z</time>
      </trkpt>
      <trkpt lat="47.09393" lon="6.00206">
        <ele>379</ele>
        <time>2024-09-01T09:26:12Z</time>
      </trkpt>
      <trkpt lat="47.09396" lon="6.00211">
        <ele>379</ele>
        <time>2024-09-01T09:26:13Z</time>
      </trkpt>
      <trkpt lat="47.09398" lon="6.00215">
        <ele>379</ele>
        <time>2024-09-01T09:26:14Z</time>
      </trkpt>
      <trkpt lat="47.09401" lon="6.00219">
        <ele>379</ele>
        <time>2024-09-01T09:26:15Z</time>
      </trkpt>
      <trkpt lat="47.09404" lon="6.00224">
        <ele>379.4</ele>
        <time>2024-09-01T09:26:16Z</time>
      </trkpt>
      <trkpt lat="47.09406" lon="6.00228">
        <ele>379.4</ele>
        <time>2024-09-01T09:26:17Z</time>
      </trkpt>
      <trkpt lat="47.09409" lon="6.00232">
        <ele>379.4</ele>
        <time>2024-09-01T09:26:18Z</time>
      </trkpt>
      <trkpt lat="47.09412" lon="6.00237">
        <ele>379.6</ele>
        <time>2024-09-01T09:26:19Z</time>
      </trkpt>
      <trkpt lat="47.09414" lon="6.00241">
        <ele>379.8</ele>
        <time>2024-09-01T09:26:20Z</time>
      </trkpt>
      <trkpt lat="47.09417" lon="6.00246">
        <ele>379.8</ele>
        <time>2024-09-01T09:26:21Z</time>
      </trkpt>
      <trkpt lat="47.0942" lon="6.0025">
        <ele>379.8</ele>
        <time>2024-09-01T09:26:22Z</time>
      </trkpt>
      <trkpt lat="47.09423" lon="6.00254">
        <ele>379.8</ele>
        <time>2024-09-01T09:26:23Z</time>
      </trkpt>
      <trkpt lat="47.09425" lon="6.00259">
        <ele>379.8</ele>
        <time>2024-09-01T09:26:24Z</time>
      </trkpt>
      <trkpt lat="47.09428" lon="6.00264">
        <ele>379.8</ele>
        <time>2024-09-01T09:26:25Z</time>
      </trkpt>
      <trkpt lat="47.0943" lon="6.00268">
        <ele>379.8</ele>
        <time>2024-09-01T09:26:26Z</time>
      </trkpt>
      <trkpt lat="47.09433" lon="6.00273">
        <ele>379.8</ele>
        <time>2024-09-01T09:26:27Z</time>
      </trkpt>
      <trkpt lat="47.09435" lon="6.00278">
        <ele>380</ele>
        <time>2024-09-01T09:26:28Z</time>
      </trkpt>
      <trkpt lat="47.09438" lon="6.00282">
        <ele>380</ele>
        <time>2024-09-01T09:26:29Z</time>
      </trkpt>
      <trkpt lat="47.0944" lon="6.00286">
        <ele>380.2</ele>
        <time>2024-09-01T09:26:30Z</time>
      </trkpt>
      <trkpt lat="47.09442" lon="6.00291">
        <ele>380.2</ele>
        <time>2024-09-01T09:26:31Z</time>
      </trkpt>
      <trkpt lat="47.09445" lon="6.00295">
        <ele>380.2</ele>
        <time>2024-09-01T09:26:32Z</time>
      </trkpt>
      <trkpt lat="47.09447" lon="6.003">
        <ele>380.4</ele>
        <time>2024-09-01T09:26:33Z</time>
      </trkpt>
      <trkpt lat="47.09449" lon="6.00305">
        <ele>380.4</ele>
        <time>2024-09-01T09:26:34Z</time>
      </trkpt>
      <trkpt lat="47.09451" lon="6.0031">
        <ele>380.4</ele>
        <time>2024-09-01T09:26:35Z</time>
      </trkpt>
      <trkpt lat="47.09453" lon="6.00314">
        <ele>380.4</ele>
        <time>2024-09-01T09:26:36Z</time>
      </trkpt>
      <trkpt lat="47.09456" lon="6.00319">
        <ele>380.6</ele>
        <time>2024-09-01T09:26:37Z</time>
      </trkpt>
      <trkpt lat="47.09458" lon="6.00324">
        <ele>380.8</ele>
        <time>2024-09-01T09:26:38Z</time>
      </trkpt>
      <trkpt lat="47.09461" lon="6.00328">
        <ele>381</ele>
        <time>2024-09-01T09:26:39Z</time>
      </trkpt>
      <trkpt lat="47.09463" lon="6.00333">
        <ele>380.8</ele>
        <time>2024-09-01T09:26:40Z</time>
      </trkpt>
      <trkpt lat="47.09465" lon="6.00337">
        <ele>381</ele>
        <time>2024-09-01T09:26:41Z</time>
      </trkpt>
      <trkpt lat="47.09466" lon="6.00342">
        <ele>381</ele>
        <time>2024-09-01T09:26:42Z</time>
      </trkpt>
      <trkpt lat="47.09467" lon="6.00347">
        <ele>381</ele>
        <time>2024-09-01T09:26:43Z</time>
      </trkpt>
      <trkpt lat="47.09468" lon="6.00352">
        <ele>381.2</ele>
        <time>2024-09-01T09:26:44Z</time>
      </trkpt>
      <trkpt lat="47.09469" lon="6.00357">
        <ele>381.2</ele>
        <time>2024-09-01T09:26:45Z</time>
      </trkpt>
      <trkpt lat="47.0947" lon="6.00362">
        <ele>381.2</ele>
        <time>2024-09-01T09:26:46Z</time>
      </trkpt>
      <trkpt lat="47.0947" lon="6.00368">
        <ele>381.4</ele>
        <time>2024-09-01T09:26:47Z</time>
      </trkpt>
      <trkpt lat="47.0947" lon="6.00374">
        <ele>381.6</ele>
        <time>2024-09-01T09:26:48Z</time>
      </trkpt>
      <trkpt lat="47.0947" lon="6.00379">
        <ele>381.6</ele>
        <time>2024-09-01T09:26:49Z</time>
      </trkpt>
      <trkpt lat="47.09469" lon="6.00385">
        <ele>381.6</ele>
        <time>2024-09-01T09:26:50Z</time>
      </trkpt>
      <trkpt lat="47.09469" lon="6.0039">
        <ele>381.8</ele>
        <time>2024-09-01T09:26:51Z</time>
      </trkpt>
      <trkpt lat="47.09468" lon="6.00396">
        <ele>381.8</ele>
        <time>2024-09-01T09:26:52Z</time>
      </trkpt>
      <trkpt lat="47.09468" lon="6.00402">
        <ele>381.6</ele>
        <time>2024-09-01T09:26:53Z</time>
      </trkpt>
      <trkpt lat="47.09467" lon="6.00407">
        <ele>381.8</ele>
        <time>2024-09-01T09:26:54Z</time>
      </trkpt>
      <trkpt lat="47.09466" lon="6.00413">
        <ele>381.8</ele>
        <time>2024-09-01T09:26:55Z</time>
      </trkpt>
      <trkpt lat="47.09466" lon="6.00419">
        <ele>381.8</ele>
        <time>2024-09-01T09:26:56Z</time>
      </trkpt>
      <trkpt lat="47.09465" lon="6.00425">
        <ele>381.8</ele>
        <time>2024-09-01T09:26:57Z</time>
      </trkpt>
      <trkpt lat="47.09464" lon="6.00431">
        <ele>381.8</ele>
        <time>2024-09-01T09:26:58Z</time>
      </trkpt>
      <trkpt lat="47.09463" lon="6.00437">
        <ele>382</ele>
        <time>2024-09-01T09:26:59Z</time>
      </trkpt>
      <trkpt lat="47.09462" lon="6.00443">
        <ele>381.8</ele>
        <time>2024-09-01T09:27:00Z</time>
      </trkpt>
      <trkpt lat="47.09462" lon="6.00449">
        <ele>382</ele>
        <time>2024-09-01T09:27:01Z</time>
      </trkpt>
      <trkpt lat="47.09461" lon="6.00455">
        <ele>382</ele>
        <time>2024-09-01T09:27:02Z</time>
      </trkpt>
      <trkpt lat="47.09461" lon="6.00461">
        <ele>382</ele>
        <time>2024-09-01T09:27:03Z</time>
      </trkpt>
      <trkpt lat="47.0946" lon="6.00467">
        <ele>382</ele>
        <time>2024-09-01T09:27:04Z</time>
      </trkpt>
      <trkpt lat="47.0946" lon="6.00473">
        <ele>382.2</ele>
        <time>2024-09-01T09:27:05Z</time>
      </trkpt>
      <trkpt lat="47.0946" lon="6.00479">
        <ele>382.2</ele>
        <time>2024-09-01T09:27:06Z</time>
      </trkpt>
      <trkpt lat="47.09461" lon="6.00485">
        <ele>382</ele>
        <time>2024-09-01T09:27:07Z</time>
      </trkpt>
      <trkpt lat="47.09461" lon="6.0049">
        <ele>382.2</ele>
        <time>2024-09-01T09:27:08Z</time>
      </trkpt>
      <trkpt lat="47.09462" lon="6.00496">
        <ele>382.2</ele>
        <time>2024-09-01T09:27:09Z</time>
      </trkpt>
      <trkpt lat="47.09463" lon="6.00501">
        <ele>382.4</ele>
        <time>2024-09-01T09:27:10Z</time>
      </trkpt>
      <trkpt lat="47.09463" lon="6.00507">
        <ele>382.4</ele>
        <time>2024-09-01T09:27:11Z</time>
      </trkpt>
      <trkpt lat="47.09464" lon="6.00512">
        <ele>382.4</ele>
        <time>2024-09-01T09:27:12Z</time>
      </trkpt>
      <trkpt lat="47.09466" lon="6.00518">
        <ele>382.6</ele>
        <time>2024-09-01T09:27:13Z</time>
      </trkpt>
      <trkpt lat="47.09467" lon="6.00523">
        <ele>382.6</ele>
        <time>2024-09-01T09:27:14Z</time>
      </trkpt>
      <trkpt lat="47.09469" lon="6.00528">
        <ele>382.6</ele>
        <time>2024-09-01T09:27:15Z</time>
      </trkpt>
      <trkpt lat="47.0947" lon="6.00533">
        <ele>382.6</ele>
        <time>2024-09-01T09:27:16Z</time>
      </trkpt>
      <trkpt lat="47.09472" lon="6.00538">
        <ele>382.6</ele>
        <time>2024-09-01T09:27:17Z</time>
      </trkpt>
      <trkpt lat="47.09473" lon="6.00543">
        <ele>382.6</ele>
        <time>2024-09-01T09:27:18Z</time>
      </trkpt>
      <trkpt lat="47.09475" lon="6.00547">
        <ele>382.8</ele>
        <time>2024-09-01T09:27:19Z</time>
      </trkpt>
      <trkpt lat="47.09476" lon="6.00552">
        <ele>382.8</ele>
        <time>2024-09-01T09:27:20Z</time>
      </trkpt>
      <trkpt lat="47.09478" lon="6.00557">
        <ele>382.8</ele>
        <time>2024-09-01T09:27:21Z</time>
      </trkpt>
      <trkpt lat="47.09479" lon="6.00561">
        <ele>383</ele>
        <time>2024-09-01T09:27:22Z</time>
      </trkpt>
      <trkpt lat="47.0948" lon="6.00565">
        <ele>383</ele>
        <time>2024-09-01T09:27:23Z</time>
      </trkpt>
      <trkpt lat="47.09482" lon="6.0057">
        <ele>383</ele>
        <time>2024-09-01T09:27:24Z</time>
      </trkpt>
      <trkpt lat="47.09483" lon="6.00574">
        <ele>383.2</ele>
        <time>2024-09-01T09:27:25Z</time>
      </trkpt>
      <trkpt lat="47.09485" lon="6.00578">
        <ele>383.4</ele>
        <time>2024-09-01T09:27:26Z</time>
      </trkpt>
      <trkpt lat="47.09486" lon="6.00582">
        <ele>383.6</ele>
        <time>2024-09-01T09:27:27Z</time>
      </trkpt>
      <trkpt lat="47.09488" lon="6.00586">
        <ele>383.4</ele>
        <time>2024-09-01T09:27:28Z</time>
      </trkpt>
      <trkpt lat="47.09491" lon="6.0059">
        <ele>383.6</ele>
        <time>2024-09-01T09:27:29Z</time>
      </trkpt>
      <trkpt lat="47.09493" lon="6.00594">
        <ele>383.8</ele>
        <time>2024-09-01T09:27:30Z</time>
      </trkpt>
      <trkpt lat="47.09495" lon="6.00597">
        <ele>384</ele>
        <time>2024-09-01T09:27:31Z</time>
      </trkpt>
      <trkpt lat="47.09497" lon="6.00601">
        <ele>384</ele>
        <time>2024-09-01T09:27:32Z</time>
      </trkpt>
      <trkpt lat="47.095" lon="6.00605">
        <ele>384</ele>
        <time>2024-09-01T09:27:33Z</time>
      </trkpt>
      <trkpt lat="47.09502" lon="6.00608">
        <ele>384.2</ele>
        <time>2024-09-01T09:27:34Z</time>
      </trkpt>
      <trkpt lat="47.09504" lon="6.00611">
        <ele>384.2</ele>
        <time>2024-09-01T09:27:35Z</time>
      </trkpt>
      <trkpt lat="47.09506" lon="6.00614">
        <ele>384.4</ele>
        <time>2024-09-01T09:27:36Z</time>
      </trkpt>
      <trkpt lat="47.09508" lon="6.00617">
        <ele>384.4</ele>
        <time>2024-09-01T09:27:37Z</time>
      </trkpt>
      <trkpt lat="47.09511" lon="6.00619">
        <ele>384.6</ele>
        <time>2024-09-01T09:27:38Z</time>
      </trkpt>
      <trkpt lat="47.09514" lon="6.00622">
        <ele>384.6</ele>
        <time>2024-09-01T09:27:39Z</time>
      </trkpt>
      <trkpt lat="47.09517" lon="6.00625">
        <ele>384.6</ele>
        <time>2024-09-01T09:27:40Z</time>
      </trkpt>
      <trkpt lat="47.0952" lon="6.00627">
        <ele>384.6</ele>
        <time>2024-09-01T09:27:41Z</time>
      </trkpt>
      <trkpt lat="47.09523" lon="6.0063">
        <ele>384.8</ele>
        <time>2024-09-01T09:27:42Z</time>
      </trkpt>
      <trkpt lat="47.09526" lon="6.00632">
        <ele>384.8</ele>
        <time>2024-09-01T09:27:43Z</time>
      </trkpt>
      <trkpt lat="47.09529" lon="6.00634">
        <ele>384.8</ele>
        <time>2024-09-01T09:27:44Z</time>
      </trkpt>
      <trkpt lat="47.09532" lon="6.00636">
        <ele>385</ele>
        <time>2024-09-01T09:27:45Z</time>
      </trkpt>
      <trkpt lat="47.09534" lon="6.00638">
        <ele>385.2</ele>
        <time>2024-09-01T09:27:46Z</time>
      </trkpt>
      <trkpt lat="47.09537" lon="6.00639">
        <ele>385.2</ele>
        <time>2024-09-01T09:27:47Z</time>
      </trkpt>
      <trkpt lat="47.0954" lon="6.00641">
        <ele>385.4</ele>
        <time>2024-09-01T09:27:48Z</time>
      </trkpt>
      <trkpt lat="47.09542" lon="6.00643">
        <ele>385.6</ele>
        <time>2024-09-01T09:27:49Z</time>
      </trkpt>
      <trkpt lat="47.09545" lon="6.00645">
        <ele>385.8</ele>
        <time>2024-09-01T09:27:50Z</time>
      </trkpt>
      <trkpt lat="47.09548" lon="6.00648">
        <ele>385.6</ele>
        <time>2024-09-01T09:27:51Z</time>
      </trkpt>
      <trkpt lat="47.09551" lon="6.0065">
        <ele>385.8</ele>
        <time>2024-09-01T09:27:52Z</time>
      </trkpt>
      <trkpt lat="47.09554" lon="6.00653">
        <ele>385.8</ele>
        <time>2024-09-01T09:27:53Z</time>
      </trkpt>
      <trkpt lat="47.09556" lon="6.00656">
        <ele>386</ele>
        <time>2024-09-01T09:27:54Z</time>
      </trkpt>
      <trkpt lat="47.09559" lon="6.00659">
        <ele>386</ele>
        <time>2024-09-01T09:27:55Z</time>
      </trkpt>
      <trkpt lat="47.09561" lon="6.00662">
        <ele>386</ele>
        <time>2024-09-01T09:27:56Z</time>
      </trkpt>
      <trkpt lat="47.09563" lon="6.00666">
        <ele>386.2</ele>
        <time>2024-09-01T09:27:57Z</time>
      </trkpt>
      <trkpt lat="47.09566" lon="6.00669">
        <ele>386.4</ele>
        <time>2024-09-01T09:27:58Z</time>
      </trkpt>
      <trkpt lat="47.09568" lon="6.00673">
        <ele>386.4</ele>
        <time>2024-09-01T09:27:59Z</time>
      </trkpt>
      <trkpt lat="47.0957" lon="6.00677">
        <ele>386.6</ele>
        <time>2024-09-01T09:28:00Z</time>
      </trkpt>
      <trkpt lat="47.09572" lon="6.00681">
        <ele>386.8</ele>
        <time>2024-09-01T09:28:01Z</time>
      </trkpt>
      <trkpt lat="47.09574" lon="6.00685">
        <ele>386.8</ele>
        <time>2024-09-01T09:28:02Z</time>
      </trkpt>
      <trkpt lat="47.09576" lon="6.00689">
        <ele>387</ele>
        <time>2024-09-01T09:28:03Z</time>
      </trkpt>
      <trkpt lat="47.09578" lon="6.00693">
        <ele>387</ele>
        <time>2024-09-01T09:28:04Z</time>
      </trkpt>
      <trkpt lat="47.0958" lon="6.00698">
        <ele>387.2</ele>
        <time>2024-09-01T09:28:05Z</time>
      </trkpt>
      <trkpt lat="47.09582" lon="6.00703">
        <ele>387.4</ele>
        <time>2024-09-01T09:28:06Z</time>
      </trkpt>
      <trkpt lat="47.09584" lon="6.00708">
        <ele>387.6</ele>
        <time>2024-09-01T09:28:07Z</time>
      </trkpt>
      <trkpt lat="47.09586" lon="6.00712">
        <ele>387.8</ele>
        <time>2024-09-01T09:28:08Z</time>
      </trkpt>
      <trkpt lat="47.09588" lon="6.00717">
        <ele>388</ele>
        <time>2024-09-01T09:28:09Z</time>
      </trkpt>
      <trkpt lat="47.09589" lon="6.00721">
        <ele>388</ele>
        <time>2024-09-01T09:28:10Z</time>
      </trkpt>
      <trkpt lat="47.09591" lon="6.00725">
        <ele>388.4</ele>
        <time>2024-09-01T09:28:11Z</time>
      </trkpt>
      <trkpt lat="47.09593" lon="6.00729">
        <ele>388.4</ele>
        <time>2024-09-01T09:28:12Z</time>
      </trkpt>
      <trkpt lat="47.09595" lon="6.00733">
        <ele>388.6</ele>
        <time>2024-09-01T09:28:13Z</time>
      </trkpt>
      <trkpt lat="47.09597" lon="6.00738">
        <ele>388.4</ele>
        <time>2024-09-01T09:28:14Z</time>
      </trkpt>
      <trkpt lat="47.09599" lon="6.00742">
        <ele>388.6</ele>
        <time>2024-09-01T09:28:15Z</time>
      </trkpt>
      <trkpt lat="47.09601" lon="6.00746">
        <ele>388.6</ele>
        <time>2024-09-01T09:28:16Z</time>
      </trkpt>
      <trkpt lat="47.09603" lon="6.00749">
        <ele>388.8</ele>
        <time>2024-09-01T09:28:17Z</time>
      </trkpt>
      <trkpt lat="47.09605" lon="6.00753">
        <ele>388.8</ele>
        <time>2024-09-01T09:28:18Z</time>
      </trkpt>
      <trkpt lat="47.09607" lon="6.00757">
        <ele>389</ele>
        <time>2024-09-01T09:28:19Z</time>
      </trkpt>
      <trkpt lat="47.09609" lon="6.00761">
        <ele>389</ele>
        <time>2024-09-01T09:28:20Z</time>
      </trkpt>
      <trkpt lat="47.09611" lon="6.00765">
        <ele>389.2</ele>
        <time>2024-09-01T09:28:21Z</time>
      </trkpt>
      <trkpt lat="47.09612" lon="6.00768">
        <ele>389.4</ele>
        <time>2024-09-01T09:28:22Z</time>
      </trkpt>
      <trkpt lat="47.09614" lon="6.00772">
        <ele>389.4</ele>
        <time>2024-09-01T09:28:23Z</time>
      </trkpt>
      <trkpt lat="47.09616" lon="6.00776">
        <ele>389.8</ele>
        <time>2024-09-01T09:28:24Z</time>
      </trkpt>
      <trkpt lat="47.09618" lon="6.00779">
        <ele>390</ele>
        <time>2024-09-01T09:28:25Z</time>
      </trkpt>
      <trkpt lat="47.09621" lon="6.00783">
        <ele>390.4</ele>
        <time>2024-09-01T09:28:26Z</time>
      </trkpt>
      <trkpt lat="47.09623" lon="6.00787">
        <ele>390.4</ele>
        <time>2024-09-01T09:28:27Z</time>
      </trkpt>
      <trkpt lat="47.09626" lon="6.0079">
        <ele>390.4</ele>
        <time>2024-09-01T09:28:28Z</time>
      </trkpt>
      <trkpt lat="47.09628" lon="6.00794">
        <ele>390.6</ele>
        <time>2024-09-01T09:28:29Z</time>
      </trkpt>
      <trkpt lat="47.0963" lon="6.00798">
        <ele>390.6</ele>
        <time>2024-09-01T09:28:30Z</time>
      </trkpt>
      <trkpt lat="47.09631" lon="6.00802">
        <ele>390.6</ele>
        <time>2024-09-01T09:28:31Z</time>
      </trkpt>
      <trkpt lat="47.09633" lon="6.00806">
        <ele>390.8</ele>
        <time>2024-09-01T09:28:32Z</time>
      </trkpt>
      <trkpt lat="47.09634" lon="6.0081">
        <ele>391</ele>
        <time>2024-09-01T09:28:33Z</time>
      </trkpt>
      <trkpt lat="47.09635" lon="6.00815">
        <ele>391</ele>
        <time>2024-09-01T09:28:34Z</time>
      </trkpt>
      <trkpt lat="47.09636" lon="6.0082">
        <ele>391.2</ele>
        <time>2024-09-01T09:28:35Z</time>
      </trkpt>
      <trkpt lat="47.09636" lon="6.00824">
        <ele>391.2</ele>
        <time>2024-09-01T09:28:36Z</time>
      </trkpt>
      <trkpt lat="47.09638" lon="6.00829">
        <ele>391.4</ele>
        <time>2024-09-01T09:28:37Z</time>
      </trkpt>
      <trkpt lat="47.09639" lon="6.00833">
        <ele>391.4</ele>
        <time>2024-09-01T09:28:38Z</time>
      </trkpt>
      <trkpt lat="47.09642" lon="6.00836">
        <ele>391.6</ele>
        <time>2024-09-01T09:28:39Z</time>
      </trkpt>
      <trkpt lat="47.09645" lon="6.00838">
        <ele>391.4</ele>
        <time>2024-09-01T09:28:40Z</time>
      </trkpt>
      <trkpt lat="47.09649" lon="6.00837">
        <ele>391.6</ele>
        <time>2024-09-01T09:28:41Z</time>
      </trkpt>
      <trkpt lat="47.09652" lon="6.00834">
        <ele>391.6</ele>
        <time>2024-09-01T09:28:42Z</time>
      </trkpt>
      <trkpt lat="47.09656" lon="6.00831">
        <ele>391.8</ele>
        <time>2024-09-01T09:28:43Z</time>
      </trkpt>
      <trkpt lat="47.0966" lon="6.00829">
        <ele>391.8</ele>
        <time>2024-09-01T09:28:44Z</time>
      </trkpt>
      <trkpt lat="47.09664" lon="6.00826">
        <ele>391.8</ele>
        <time>2024-09-01T09:28:45Z</time>
      </trkpt>
      <trkpt lat="47.09667" lon="6.00823">
        <ele>391.8</ele>
        <time>2024-09-01T09:28:46Z</time>
      </trkpt>
      <trkpt lat="47.09671" lon="6.0082">
        <ele>391.8</ele>
        <time>2024-09-01T09:28:47Z</time>
      </trkpt>
      <trkpt lat="47.09674" lon="6.00816">
        <ele>392</ele>
        <time>2024-09-01T09:28:48Z</time>
      </trkpt>
      <trkpt lat="47.09678" lon="6.00814">
        <ele>392</ele>
        <time>2024-09-01T09:28:49Z</time>
      </trkpt>
      <trkpt lat="47.09681" lon="6.00811">
        <ele>392</ele>
        <time>2024-09-01T09:28:50Z</time>
      </trkpt>
      <trkpt lat="47.09684" lon="6.00809">
        <ele>392</ele>
        <time>2024-09-01T09:28:51Z</time>
      </trkpt>
      <trkpt lat="47.09687" lon="6.00806">
        <ele>392</ele>
        <time>2024-09-01T09:28:52Z</time>
      </trkpt>
      <trkpt lat="47.09689" lon="6.00803">
        <ele>392.2</ele>
        <time>2024-09-01T09:28:53Z</time>
      </trkpt>
      <trkpt lat="47.09691" lon="6.00799">
        <ele>392.2</ele>
        <time>2024-09-01T09:28:54Z</time>
      </trkpt>
      <trkpt lat="47.09694" lon="6.00796">
        <ele>392.2</ele>
        <time>2024-09-01T09:28:55Z</time>
      </trkpt>
      <trkpt lat="47.09698" lon="6.00794">
        <ele>392.2</ele>
        <time>2024-09-01T09:28:56Z</time>
      </trkpt>
      <trkpt lat="47.09702" lon="6.00793">
        <ele>392.2</ele>
        <time>2024-09-01T09:28:57Z</time>
      </trkpt>
      <trkpt lat="47.09706" lon="6.00792">
        <ele>392.2</ele>
        <time>2024-09-01T09:28:58Z</time>
      </trkpt>
      <trkpt lat="47.0971" lon="6.00791">
        <ele>392.2</ele>
        <time>2024-09-01T09:28:59Z</time>
      </trkpt>
      <trkpt lat="47.09713" lon="6.00789">
        <ele>392.4</ele>
        <time>2024-09-01T09:29:00Z</time>
      </trkpt>
      <trkpt lat="47.09717" lon="6.00788">
        <ele>392.2</ele>
        <time>2024-09-01T09:29:01Z</time>
      </trkpt>
      <trkpt lat="47.0972" lon="6.00787">
        <ele>392.2</ele>
        <time>2024-09-01T09:29:02Z</time>
      </trkpt>
      <trkpt lat="47.09724" lon="6.00787">
        <ele>392.2</ele>
        <time>2024-09-01T09:29:03Z</time>
      </trkpt>
      <trkpt lat="47.09728" lon="6.00788">
        <ele>392.4</ele>
        <time>2024-09-01T09:29:04Z</time>
      </trkpt>
      <trkpt lat="47.09732" lon="6.00789">
        <ele>392.2</ele>
        <time>2024-09-01T09:29:05Z</time>
      </trkpt>
      <trkpt lat="47.09736" lon="6.00792">
        <ele>392.2</ele>
        <time>2024-09-01T09:29:06Z</time>
      </trkpt>
      <trkpt lat="47.09739" lon="6.00796">
        <ele>392.2</ele>
        <time>2024-09-01T09:29:07Z</time>
      </trkpt>
      <trkpt lat="47.09742" lon="6.00799">
        <ele>392.2</ele>
        <time>2024-09-01T09:29:08Z</time>
      </trkpt>
      <trkpt lat="47.09745" lon="6.00803">
        <ele>392.2</ele>
        <time>2024-09-01T09:29:09Z</time>
      </trkpt>
      <trkpt lat="47.09747" lon="6.00807">
        <ele>392.2</ele>
        <time>2024-09-01T09:29:10Z</time>
      </trkpt>
      <trkpt lat="47.0975" lon="6.00811">
        <ele>392.2</ele>
        <time>2024-09-01T09:29:11Z</time>
      </trkpt>
      <trkpt lat="47.09752" lon="6.00816">
        <ele>392.2</ele>
        <time>2024-09-01T09:29:12Z</time>
      </trkpt>
      <trkpt lat="47.09753" lon="6.00821">
        <ele>392.2</ele>
        <time>2024-09-01T09:29:13Z</time>
      </trkpt>
      <trkpt lat="47.09755" lon="6.00826">
        <ele>392.4</ele>
        <time>2024-09-01T09:29:14Z</time>
      </trkpt>
      <trkpt lat="47.09755" lon="6.00831">
        <ele>392.4</ele>
        <time>2024-09-01T09:29:15Z</time>
      </trkpt>
      <trkpt lat="47.09755" lon="6.00836">
        <ele>392.2</ele>
        <time>2024-09-01T09:29:16Z</time>
      </trkpt>
      <trkpt lat="47.09755" lon="6.00841">
        <ele>392.2</ele>
        <time>2024-09-01T09:29:17Z</time>
      </trkpt>
      <trkpt lat="47.09756" lon="6.00846">
        <ele>392.2</ele>
        <time>2024-09-01T09:29:18Z</time>
      </trkpt>
      <trkpt lat="47.09757" lon="6.00851">
        <ele>392.2</ele>
        <time>2024-09-01T09:29:19Z</time>
      </trkpt>
      <trkpt lat="47.09759" lon="6.00855">
        <ele>392.4</ele>
        <time>2024-09-01T09:29:20Z</time>
      </trkpt>
      <trkpt lat="47.09761" lon="6.00858">
        <ele>392.4</ele>
        <time>2024-09-01T09:29:21Z</time>
      </trkpt>
      <trkpt lat="47.09764" lon="6.0086">
        <ele>392.4</ele>
        <time>2024-09-01T09:29:22Z</time>
      </trkpt>
      <trkpt lat="47.09766" lon="6.00862">
        <ele>392.6</ele>
        <time>2024-09-01T09:29:23Z</time>
      </trkpt>
      <trkpt lat="47.09769" lon="6.00864">
        <ele>392.4</ele>
        <time>2024-09-01T09:29:24Z</time>
      </trkpt>
      <trkpt lat="47.09772" lon="6.00866">
        <ele>392.6</ele>
        <time>2024-09-01T09:29:25Z</time>
      </trkpt>
      <trkpt lat="47.09776" lon="6.00867">
        <ele>392.8</ele>
        <time>2024-09-01T09:29:26Z</time>
      </trkpt>
      <trkpt lat="47.09779" lon="6.00869">
        <ele>392.8</ele>
        <time>2024-09-01T09:29:27Z</time>
      </trkpt>
      <trkpt lat="47.09781" lon="6.00871">
        <ele>393.2</ele>
        <time>2024-09-01T09:29:28Z</time>
      </trkpt>
      <trkpt lat="47.09784" lon="6.00872">
        <ele>393.4</ele>
        <time>2024-09-01T09:29:29Z</time>
      </trkpt>
      <trkpt lat="47.09787" lon="6.00874">
        <ele>393.6</ele>
        <time>2024-09-01T09:29:30Z</time>
      </trkpt>
      <trkpt lat="47.0979" lon="6.00875">
        <ele>393.6</ele>
        <time>2024-09-01T09:29:31Z</time>
      </trkpt>
      <trkpt lat="47.09793" lon="6.00877">
        <ele>393.8</ele>
        <time>2024-09-01T09:29:32Z</time>
      </trkpt>
      <trkpt lat="47.09796" lon="6.00879">
        <ele>393.8</ele>
        <time>2024-09-01T09:29:33Z</time>
      </trkpt>
      <trkpt lat="47.09799" lon="6.00881">
        <ele>393.8</ele>
        <time>2024-09-01T09:29:34Z</time>
      </trkpt>
      <trkpt lat="47.09802" lon="6.00883">
        <ele>394</ele>
        <time>2024-09-01T09:29:35Z</time>
      </trkpt>
      <trkpt lat="47.09805" lon="6.00886">
        <ele>394</ele>
        <time>2024-09-01T09:29:36Z</time>
      </trkpt>
      <trkpt lat="47.09807" lon="6.00887">
        <ele>394.2</ele>
        <time>2024-09-01T09:29:37Z</time>
      </trkpt>
      <trkpt lat="47.09809" lon="6.00889">
        <ele>394.2</ele>
        <time>2024-09-01T09:29:38Z</time>
      </trkpt>
      <trkpt lat="47.09811" lon="6.00891">
        <ele>394.4</ele>
        <time>2024-09-01T09:29:39Z</time>
      </trkpt>
      <trkpt lat="47.09814" lon="6.00894">
        <ele>394.2</ele>
        <time>2024-09-01T09:29:40Z</time>
      </trkpt>
      <trkpt lat="47.09818" lon="6.00895">
        <ele>394.4</ele>
        <time>2024-09-01T09:29:41Z</time>
      </trkpt>
      <trkpt lat="47.09821" lon="6.00896">
        <ele>394.6</ele>
        <time>2024-09-01T09:29:42Z</time>
      </trkpt>
      <trkpt lat="47.09823" lon="6.00898">
        <ele>395</ele>
        <time>2024-09-01T09:29:43Z</time>
      </trkpt>
      <trkpt lat="47.09826" lon="6.00899">
        <ele>395.2</ele>
        <time>2024-09-01T09:29:44Z</time>
      </trkpt>
      <trkpt lat="47.09829" lon="6.009">
        <ele>395.4</ele>
        <time>2024-09-01T09:29:45Z</time>
      </trkpt>
      <trkpt lat="47.09832" lon="6.00901">
        <ele>395.6</ele>
        <time>2024-09-01T09:29:46Z</time>
      </trkpt>
      <trkpt lat="47.09835" lon="6.00902">
        <ele>395.8</ele>
        <time>2024-09-01T09:29:47Z</time>
      </trkpt>
      <trkpt lat="47.09838" lon="6.009">
        <ele>395.8</ele>
        <time>2024-09-01T09:29:48Z</time>
      </trkpt>
      <trkpt lat="47.09842" lon="6.00898">
        <ele>395.8</ele>
        <time>2024-09-01T09:29:49Z</time>
      </trkpt>
      <trkpt lat="47.09845" lon="6.00895">
        <ele>395.8</ele>
        <time>2024-09-01T09:29:50Z</time>
      </trkpt>
      <trkpt lat="47.09848" lon="6.00893">
        <ele>396</ele>
        <time>2024-09-01T09:29:51Z</time>
      </trkpt>
      <trkpt lat="47.09852" lon="6.0089">
        <ele>396</ele>
        <time>2024-09-01T09:29:52Z</time>
      </trkpt>
      <trkpt lat="47.09856" lon="6.00887">
        <ele>395.8</ele>
        <time>2024-09-01T09:29:53Z</time>
      </trkpt>
      <trkpt lat="47.0986" lon="6.00885">
        <ele>395.8</ele>
        <time>2024-09-01T09:29:54Z</time>
      </trkpt>
      <trkpt lat="47.09864" lon="6.00882">
        <ele>396</ele>
        <time>2024-09-01T09:29:55Z</time>
      </trkpt>
      <trkpt lat="47.09868" lon="6.00879">
        <ele>396</ele>
        <time>2024-09-01T09:29:56Z</time>
      </trkpt>
      <trkpt lat="47.09873" lon="6.00876">
        <ele>396</ele>
        <time>2024-09-01T09:29:57Z</time>
      </trkpt>
      <trkpt lat="47.09881" lon="6.0087">
        <ele>395.8</ele>
        <time>2024-09-01T09:29:58Z</time>
      </trkpt>
      <trkpt lat="47.09881" lon="6.0087">
        <ele>395.8</ele>
        <time>2024-09-01T09:29:59Z</time>
      </trkpt>
      <trkpt lat="47.09885" lon="6.00867">
        <ele>395.6</ele>
        <time>2024-09-01T09:30:00Z</time>
      </trkpt>
      <trkpt lat="47.09889" lon="6.00864">
        <ele>395.4</ele>
        <time>2024-09-01T09:30:01Z</time>
      </trkpt>
      <trkpt lat="47.09892" lon="6.0086">
        <ele>395.2</ele>
        <time>2024-09-01T09:30:02Z</time>
      </trkpt>
      <trkpt lat="47.09896" lon="6.00856">
        <ele>395.2</ele>
        <time>2024-09-01T09:30:03Z</time>
      </trkpt>
      <trkpt lat="47.09899" lon="6.00853">
        <ele>395</ele>
        <time>2024-09-01T09:30:04Z</time>
      </trkpt>
      <trkpt lat="47.09903" lon="6.0085">
        <ele>395</ele>
        <time>2024-09-01T09:30:05Z</time>
      </trkpt>
      <trkpt lat="47.09906" lon="6.00847">
        <ele>395</ele>
        <time>2024-09-01T09:30:06Z</time>
      </trkpt>
      <trkpt lat="47.09909" lon="6.00844">
        <ele>394.8</ele>
        <time>2024-09-01T09:30:07Z</time>
      </trkpt>
      <trkpt lat="47.09911" lon="6.00841">
        <ele>394.8</ele>
        <time>2024-09-01T09:30:08Z</time>
      </trkpt>
      <trkpt lat="47.09915" lon="6.00838">
        <ele>394.8</ele>
        <time>2024-09-01T09:30:09Z</time>
      </trkpt>
      <trkpt lat="47.09918" lon="6.00836">
        <ele>394.8</ele>
        <time>2024-09-01T09:30:10Z</time>
      </trkpt>
      <trkpt lat="47.09922" lon="6.00834">
        <ele>395</ele>
        <time>2024-09-01T09:30:11Z</time>
      </trkpt>
      <trkpt lat="47.09926" lon="6.00832">
        <ele>394.8</ele>
        <time>2024-09-01T09:30:12Z</time>
      </trkpt>
      <trkpt lat="47.0993" lon="6.00831">
        <ele>395</ele>
        <time>2024-09-01T09:30:13Z</time>
      </trkpt>
      <trkpt lat="47.09934" lon="6.00831">
        <ele>395</ele>
        <time>2024-09-01T09:30:14Z</time>
      </trkpt>
      <trkpt lat="47.09938" lon="6.0083">
        <ele>395</ele>
        <time>2024-09-01T09:30:15Z</time>
      </trkpt>
      <trkpt lat="47.09942" lon="6.00831">
        <ele>395</ele>
        <time>2024-09-01T09:30:16Z</time>
      </trkpt>
      <trkpt lat="47.09945" lon="6.00831">
        <ele>395</ele>
        <time>2024-09-01T09:30:17Z</time>
      </trkpt>
      <trkpt lat="47.09949" lon="6.00831">
        <ele>395.2</ele>
        <time>2024-09-01T09:30:18Z</time>
      </trkpt>
      <trkpt lat="47.09953" lon="6.00832">
        <ele>395.2</ele>
        <time>2024-09-01T09:30:19Z</time>
      </trkpt>
      <trkpt lat="47.09957" lon="6.00832">
        <ele>395.4</ele>
        <time>2024-09-01T09:30:20Z</time>
      </trkpt>
      <trkpt lat="47.09961" lon="6.00831">
        <ele>395.4</ele>
        <time>2024-09-01T09:30:21Z</time>
      </trkpt>
      <trkpt lat="47.09965" lon="6.00832">
        <ele>395.4</ele>
        <time>2024-09-01T09:30:22Z</time>
      </trkpt>
      <trkpt lat="47.0997" lon="6.00832">
        <ele>395.6</ele>
        <time>2024-09-01T09:30:23Z</time>
      </trkpt>
      <trkpt lat="47.09975" lon="6.00832">
        <ele>395.4</ele>
        <time>2024-09-01T09:30:24Z</time>
      </trkpt>
      <trkpt lat="47.09979" lon="6.00833">
        <ele>395.8</ele>
        <time>2024-09-01T09:30:25Z</time>
      </trkpt>
      <trkpt lat="47.09984" lon="6.00833">
        <ele>395.8</ele>
        <time>2024-09-01T09:30:26Z</time>
      </trkpt>
      <trkpt lat="47.09988" lon="6.00833">
        <ele>396</ele>
        <time>2024-09-01T09:30:27Z</time>
      </trkpt>
      <trkpt lat="47.09992" lon="6.00834">
        <ele>396</ele>
        <time>2024-09-01T09:30:28Z</time>
      </trkpt>
      <trkpt lat="47.09996" lon="6.00835">
        <ele>396.2</ele>
        <time>2024-09-01T09:30:29Z</time>
      </trkpt>
      <trkpt lat="47.10001" lon="6.00835">
        <ele>396.4</ele>
        <time>2024-09-01T09:30:30Z</time>
      </trkpt>
      <trkpt lat="47.10005" lon="6.00835">
        <ele>396.6</ele>
        <time>2024-09-01T09:30:31Z</time>
      </trkpt>
      <trkpt lat="47.1001" lon="6.00835">
        <ele>397</ele>
        <time>2024-09-01T09:30:32Z</time>
      </trkpt>
      <trkpt lat="47.10014" lon="6.00836">
        <ele>397.2</ele>
        <time>2024-09-01T09:30:33Z</time>
      </trkpt>
      <trkpt lat="47.10018" lon="6.00836">
        <ele>397.6</ele>
        <time>2024-09-01T09:30:34Z</time>
      </trkpt>
      <trkpt lat="47.10023" lon="6.00836">
        <ele>397.8</ele>
        <time>2024-09-01T09:30:35Z</time>
      </trkpt>
      <trkpt lat="47.10026" lon="6.00836">
        <ele>397.8</ele>
        <time>2024-09-01T09:30:36Z</time>
      </trkpt>
      <trkpt lat="47.1003" lon="6.00837">
        <ele>398.2</ele>
        <time>2024-09-01T09:30:37Z</time>
      </trkpt>
      <trkpt lat="47.10035" lon="6.00838">
        <ele>398.4</ele>
        <time>2024-09-01T09:30:38Z</time>
      </trkpt>
      <trkpt lat="47.10039" lon="6.00839">
        <ele>398.4</ele>
        <time>2024-09-01T09:30:39Z</time>
      </trkpt>
      <trkpt lat="47.10044" lon="6.00839">
        <ele>398.8</ele>
        <time>2024-09-01T09:30:40Z</time>
      </trkpt>
      <trkpt lat="47.10048" lon="6.0084">
        <ele>399</ele>
        <time>2024-09-01T09:30:41Z</time>
      </trkpt>
      <trkpt lat="47.10052" lon="6.0084">
        <ele>399.2</ele>
        <time>2024-09-01T09:30:42Z</time>
      </trkpt>
      <trkpt lat="47.10057" lon="6.00841">
        <ele>399.2</ele>
        <time>2024-09-01T09:30:43Z</time>
      </trkpt>
      <trkpt lat="47.10062" lon="6.00842">
        <ele>399.6</ele>
        <time>2024-09-01T09:30:44Z</time>
      </trkpt>
      <trkpt lat="47.10067" lon="6.00842">
        <ele>399.8</ele>
        <time>2024-09-01T09:30:45Z</time>
      </trkpt>
      <trkpt lat="47.10071" lon="6.00843">
        <ele>399.8</ele>
        <time>2024-09-01T09:30:46Z</time>
      </trkpt>
      <trkpt lat="47.10076" lon="6.00844">
        <ele>400.2</ele>
        <time>2024-09-01T09:30:47Z</time>
      </trkpt>
      <trkpt lat="47.1008" lon="6.00845">
        <ele>400.2</ele>
        <time>2024-09-01T09:30:48Z</time>
      </trkpt>
      <trkpt lat="47.10084" lon="6.00845">
        <ele>400.4</ele>
        <time>2024-09-01T09:30:49Z</time>
      </trkpt>
      <trkpt lat="47.10088" lon="6.00845">
        <ele>400.6</ele>
        <time>2024-09-01T09:30:50Z</time>
      </trkpt>
      <trkpt lat="47.10092" lon="6.00845">
        <ele>400.8</ele>
        <time>2024-09-01T09:30:51Z</time>
      </trkpt>
      <trkpt lat="47.10097" lon="6.00846">
        <ele>401</ele>
        <time>2024-09-01T09:30:52Z</time>
      </trkpt>
      <trkpt lat="47.10101" lon="6.00846">
        <ele>401.4</ele>
        <time>2024-09-01T09:30:53Z</time>
      </trkpt>
      <trkpt lat="47.10106" lon="6.00846">
        <ele>401.4</ele>
        <time>2024-09-01T09:30:54Z</time>
      </trkpt>
      <trkpt lat="47.1011" lon="6.00846">
        <ele>401.6</ele>
        <time>2024-09-01T09:30:55Z</time>
      </trkpt>
      <trkpt lat="47.10114" lon="6.00846">
        <ele>401.8</ele>
        <time>2024-09-01T09:30:56Z</time>
      </trkpt>
      <trkpt lat="47.10118" lon="6.00845">
        <ele>402.2</ele>
        <time>2024-09-01T09:30:57Z</time>
      </trkpt>
      <trkpt lat="47.10122" lon="6.00845">
        <ele>402.4</ele>
        <time>2024-09-01T09:30:58Z</time>
      </trkpt>
      <trkpt lat="47.10127" lon="6.00845">
        <ele>402.4</ele>
        <time>2024-09-01T09:30:59Z</time>
      </trkpt>
      <trkpt lat="47.1013" lon="6.00845">
        <ele>402.8</ele>
        <time>2024-09-01T09:31:00Z</time>
      </trkpt>
      <trkpt lat="47.10135" lon="6.00846">
        <ele>403</ele>
        <time>2024-09-01T09:31:01Z</time>
      </trkpt>
      <trkpt lat="47.10139" lon="6.00846">
        <ele>403.2</ele>
        <time>2024-09-01T09:31:02Z</time>
      </trkpt>
      <trkpt lat="47.10143" lon="6.00846">
        <ele>403.2</ele>
        <time>2024-09-01T09:31:03Z</time>
      </trkpt>
      <trkpt lat="47.10148" lon="6.00846">
        <ele>403.6</ele>
        <time>2024-09-01T09:31:04Z</time>
      </trkpt>
      <trkpt lat="47.10153" lon="6.00846">
        <ele>403.8</ele>
        <time>2024-09-01T09:31:05Z</time>
      </trkpt>
      <trkpt lat="47.10158" lon="6.00847">
        <ele>404.2</ele>
        <time>2024-09-01T09:31:06Z</time>
      </trkpt>
      <trkpt lat="47.10162" lon="6.00847">
        <ele>404.4</ele>
        <time>2024-09-01T09:31:07Z</time>
      </trkpt>
      <trkpt lat="47.10166" lon="6.00846">
        <ele>404.8</ele>
        <time>2024-09-01T09:31:08Z</time>
      </trkpt>
      <trkpt lat="47.1017" lon="6.00846">
        <ele>405.2</ele>
        <time>2024-09-01T09:31:09Z</time>
      </trkpt>
      <trkpt lat="47.10174" lon="6.00845">
        <ele>405.4</ele>
        <time>2024-09-01T09:31:10Z</time>
      </trkpt>
      <trkpt lat="47.10178" lon="6.00844">
        <ele>405.6</ele>
        <time>2024-09-01T09:31:11Z</time>
      </trkpt>
      <trkpt lat="47.10182" lon="6.00843">
        <ele>406.2</ele>
        <time>2024-09-01T09:31:12Z</time>
      </trkpt>
      <trkpt lat="47.10185" lon="6.00842">
        <ele>406.4</ele>
        <time>2024-09-01T09:31:13Z</time>
      </trkpt>
      <trkpt lat="47.10189" lon="6.00842">
        <ele>406.6</ele>
        <time>2024-09-01T09:31:14Z</time>
      </trkpt>
      <trkpt lat="47.10194" lon="6.00842">
        <ele>407</ele>
        <time>2024-09-01T09:31:15Z</time>
      </trkpt>
      <trkpt lat="47.10197" lon="6.00842">
        <ele>407.2</ele>
        <time>2024-09-01T09:31:16Z</time>
      </trkpt>
      <trkpt lat="47.10202" lon="6.00843">
        <ele>407.2</ele>
        <time>2024-09-01T09:31:17Z</time>
      </trkpt>
      <trkpt lat="47.10205" lon="6.00843">
        <ele>407.6</ele>
        <time>2024-09-01T09:31:18Z</time>
      </trkpt>
      <trkpt lat="47.10209" lon="6.00845">
        <ele>407.8</ele>
        <time>2024-09-01T09:31:19Z</time>
      </trkpt>
      <trkpt lat="47.10213" lon="6.00845">
        <ele>408</ele>
        <time>2024-09-01T09:31:20Z</time>
      </trkpt>
      <trkpt lat="47.10217" lon="6.00846">
        <ele>408.4</ele>
        <time>2024-09-01T09:31:21Z</time>
      </trkpt>
      <trkpt lat="47.10221" lon="6.00848">
        <ele>408.6</ele>
        <time>2024-09-01T09:31:22Z</time>
      </trkpt>
      <trkpt lat="47.10225" lon="6.0085">
        <ele>408.8</ele>
        <time>2024-09-01T09:31:23Z</time>
      </trkpt>
      <trkpt lat="47.10229" lon="6.00852">
        <ele>409</ele>
        <time>2024-09-01T09:31:24Z</time>
      </trkpt>
      <trkpt lat="47.10233" lon="6.00854">
        <ele>409.4</ele>
        <time>2024-09-01T09:31:25Z</time>
      </trkpt>
      <trkpt lat="47.10238" lon="6.00856">
        <ele>409.4</ele>
        <time>2024-09-01T09:31:26Z</time>
      </trkpt>
      <trkpt lat="47.10242" lon="6.00857">
        <ele>409.6</ele>
        <time>2024-09-01T09:31:27Z</time>
      </trkpt>
      <trkpt lat="47.10247" lon="6.00858">
        <ele>409.8</ele>
        <time>2024-09-01T09:31:28Z</time>
      </trkpt>
      <trkpt lat="47.10252" lon="6.00859">
        <ele>410</ele>
        <time>2024-09-01T09:31:29Z</time>
      </trkpt>
      <trkpt lat="47.10257" lon="6.00859">
        <ele>410</ele>
        <time>2024-09-01T09:31:30Z</time>
      </trkpt>
      <trkpt lat="47.10261" lon="6.00859">
        <ele>410</ele>
        <time>2024-09-01T09:31:31Z</time>
      </trkpt>
      <trkpt lat="47.10266" lon="6.00859">
        <ele>410.2</ele>
        <time>2024-09-01T09:31:32Z</time>
      </trkpt>
      <trkpt lat="47.10271" lon="6.0086">
        <ele>410.4</ele>
        <time>2024-09-01T09:31:33Z</time>
      </trkpt>
      <trkpt lat="47.10275" lon="6.0086">
        <ele>410.6</ele>
        <time>2024-09-01T09:31:34Z</time>
      </trkpt>
      <trkpt lat="47.10279" lon="6.0086">
        <ele>410.8</ele>
        <time>2024-09-01T09:31:35Z</time>
      </trkpt>
      <trkpt lat="47.10284" lon="6.0086">
        <ele>410.8</ele>
        <time>2024-09-01T09:31:36Z</time>
      </trkpt>
      <trkpt lat="47.10288" lon="6.00859">
        <ele>410.8</ele>
        <time>2024-09-01T09:31:37Z</time>
      </trkpt>
      <trkpt lat="47.10291" lon="6.00858">
        <ele>411</ele>
        <time>2024-09-01T09:31:38Z</time>
      </trkpt>
      <trkpt lat="47.10295" lon="6.00858">
        <ele>411</ele>
        <time>2024-09-01T09:31:39Z</time>
      </trkpt>
      <trkpt lat="47.10299" lon="6.00858">
        <ele>411.4</ele>
        <time>2024-09-01T09:31:40Z</time>
      </trkpt>
      <trkpt lat="47.10303" lon="6.00857">
        <ele>411.6</ele>
        <time>2024-09-01T09:31:41Z</time>
      </trkpt>
      <trkpt lat="47.10306" lon="6.00855">
        <ele>411.8</ele>
        <time>2024-09-01T09:31:42Z</time>
      </trkpt>
      <trkpt lat="47.1031" lon="6.00854">
        <ele>412.2</ele>
        <time>2024-09-01T09:31:43Z</time>
      </trkpt>
      <trkpt lat="47.10313" lon="6.00853">
        <ele>412.4</ele>
        <time>2024-09-01T09:31:44Z</time>
      </trkpt>
      <trkpt lat="47.10317" lon="6.00852">
        <ele>412.6</ele>
        <time>2024-09-01T09:31:45Z</time>
      </trkpt>
      <trkpt lat="47.10321" lon="6.00851">
        <ele>412.8</ele>
        <time>2024-09-01T09:31:46Z</time>
      </trkpt>
      <trkpt lat="47.10325" lon="6.00851">
        <ele>413</ele>
        <time>2024-09-01T09:31:47Z</time>
      </trkpt>
      <trkpt lat="47.10329" lon="6.0085">
        <ele>413</ele>
        <time>2024-09-01T09:31:48Z</time>
      </trkpt>
      <trkpt lat="47.10333" lon="6.0085">
        <ele>413</ele>
        <time>2024-09-01T09:31:49Z</time>
      </trkpt>
      <trkpt lat="47.10336" lon="6.00848">
        <ele>413.2</ele>
        <time>2024-09-01T09:31:50Z</time>
      </trkpt>
      <trkpt lat="47.1034" lon="6.00847">
        <ele>413</ele>
        <time>2024-09-01T09:31:51Z</time>
      </trkpt>
      <trkpt lat="47.10343" lon="6.00845">
        <ele>413.2</ele>
        <time>2024-09-01T09:31:52Z</time>
      </trkpt>
      <trkpt lat="47.10347" lon="6.00843">
        <ele>413.2</ele>
        <time>2024-09-01T09:31:53Z</time>
      </trkpt>
      <trkpt lat="47.1035" lon="6.00841">
        <ele>413.2</ele>
        <time>2024-09-01T09:31:54Z</time>
      </trkpt>
      <trkpt lat="47.10353" lon="6.00838">
        <ele>413.2</ele>
        <time>2024-09-01T09:31:55Z</time>
      </trkpt>
      <trkpt lat="47.10356" lon="6.00835">
        <ele>413.2</ele>
        <time>2024-09-01T09:31:56Z</time>
      </trkpt>
      <trkpt lat="47.10358" lon="6.00833">
        <ele>413.4</ele>
        <time>2024-09-01T09:31:57Z</time>
      </trkpt>
      <trkpt lat="47.10361" lon="6.00829">
        <ele>413.2</ele>
        <time>2024-09-01T09:31:58Z</time>
      </trkpt>
      <trkpt lat="47.10363" lon="6.00827">
        <ele>413.2</ele>
        <time>2024-09-01T09:31:59Z</time>
      </trkpt>
      <trkpt lat="47.10366" lon="6.00823">
        <ele>413.4</ele>
        <time>2024-09-01T09:32:00Z</time>
      </trkpt>
      <trkpt lat="47.10368" lon="6.0082">
        <ele>413.4</ele>
        <time>2024-09-01T09:32:01Z</time>
      </trkpt>
      <trkpt lat="47.10371" lon="6.00817">
        <ele>413.6</ele>
        <time>2024-09-01T09:32:02Z</time>
      </trkpt>
      <trkpt lat="47.10374" lon="6.00814">
        <ele>413.6</ele>
        <time>2024-09-01T09:32:03Z</time>
      </trkpt>
      <trkpt lat="47.10376" lon="6.00812">
        <ele>414</ele>
        <time>2024-09-01T09:32:04Z</time>
      </trkpt>
      <trkpt lat="47.10379" lon="6.0081">
        <ele>413.8</ele>
        <time>2024-09-01T09:32:05Z</time>
      </trkpt>
      <trkpt lat="47.10382" lon="6.00807">
        <ele>414</ele>
        <time>2024-09-01T09:32:06Z</time>
      </trkpt>
      <trkpt lat="47.10385" lon="6.00806">
        <ele>414.2</ele>
        <time>2024-09-01T09:32:07Z</time>
      </trkpt>
      <trkpt lat="47.10388" lon="6.00805">
        <ele>414.4</ele>
        <time>2024-09-01T09:32:08Z</time>
      </trkpt>
      <trkpt lat="47.10391" lon="6.00804">
        <ele>414.6</ele>
        <time>2024-09-01T09:32:09Z</time>
      </trkpt>
      <trkpt lat="47.10394" lon="6.00803">
        <ele>414.8</ele>
        <time>2024-09-01T09:32:10Z</time>
      </trkpt>
      <trkpt lat="47.10397" lon="6.00803">
        <ele>415</ele>
        <time>2024-09-01T09:32:11Z</time>
      </trkpt>
      <trkpt lat="47.104" lon="6.00803">
        <ele>415.4</ele>
        <time>2024-09-01T09:32:12Z</time>
      </trkpt>
      <trkpt lat="47.10404" lon="6.00802">
        <ele>415.4</ele>
        <time>2024-09-01T09:32:13Z</time>
      </trkpt>
      <trkpt lat="47.10408" lon="6.00802">
        <ele>415.8</ele>
        <time>2024-09-01T09:32:14Z</time>
      </trkpt>
      <trkpt lat="47.10412" lon="6.00802">
        <ele>416</ele>
        <time>2024-09-01T09:32:15Z</time>
      </trkpt>
      <trkpt lat="47.10416" lon="6.00802">
        <ele>416.2</ele>
        <time>2024-09-01T09:32:16Z</time>
      </trkpt>
      <trkpt lat="47.1042" lon="6.00801">
        <ele>416.4</ele>
        <time>2024-09-01T09:32:17Z</time>
      </trkpt>
      <trkpt lat="47.10424" lon="6.008">
        <ele>416.6</ele>
        <time>2024-09-01T09:32:18Z</time>
      </trkpt>
      <trkpt lat="47.10428" lon="6.00799">
        <ele>417</ele>
        <time>2024-09-01T09:32:19Z</time>
      </trkpt>
      <trkpt lat="47.10431" lon="6.00797">
        <ele>417</ele>
        <time>2024-09-01T09:32:20Z</time>
      </trkpt>
      <trkpt lat="47.10435" lon="6.00795">
        <ele>417.4</ele>
        <time>2024-09-01T09:32:21Z</time>
      </trkpt>
      <trkpt lat="47.10438" lon="6.00793">
        <ele>417.4</ele>
        <time>2024-09-01T09:32:22Z</time>
      </trkpt>
      <trkpt lat="47.10441" lon="6.0079">
        <ele>417.6</ele>
        <time>2024-09-01T09:32:23Z</time>
      </trkpt>
      <trkpt lat="47.10445" lon="6.00787">
        <ele>417.8</ele>
        <time>2024-09-01T09:32:24Z</time>
      </trkpt>
      <trkpt lat="47.10448" lon="6.00784">
        <ele>417.8</ele>
        <time>2024-09-01T09:32:25Z</time>
      </trkpt>
      <trkpt lat="47.10451" lon="6.00782">
        <ele>418</ele>
        <time>2024-09-01T09:32:26Z</time>
      </trkpt>
      <trkpt lat="47.10454" lon="6.00779">
        <ele>418</ele>
        <time>2024-09-01T09:32:27Z</time>
      </trkpt>
      <trkpt lat="47.10458" lon="6.00776">
        <ele>418</ele>
        <time>2024-09-01T09:32:28Z</time>
      </trkpt>
      <trkpt lat="47.10461" lon="6.00773">
        <ele>418.2</ele>
        <time>2024-09-01T09:32:29Z</time>
      </trkpt>
      <trkpt lat="47.10464" lon="6.0077">
        <ele>418.4</ele>
        <time>2024-09-01T09:32:30Z</time>
      </trkpt>
      <trkpt lat="47.10467" lon="6.00767">
        <ele>418.6</ele>
        <time>2024-09-01T09:32:31Z</time>
      </trkpt>
      <trkpt lat="47.1047" lon="6.00764">
        <ele>418.6</ele>
        <time>2024-09-01T09:32:32Z</time>
      </trkpt>
      <trkpt lat="47.10473" lon="6.00761">
        <ele>418.8</ele>
        <time>2024-09-01T09:32:33Z</time>
      </trkpt>
      <trkpt lat="47.10476" lon="6.00758">
        <ele>418.8</ele>
        <time>2024-09-01T09:32:34Z</time>
      </trkpt>
      <trkpt lat="47.10478" lon="6.00755">
        <ele>419</ele>
        <time>2024-09-01T09:32:35Z</time>
      </trkpt>
      <trkpt lat="47.10481" lon="6.00752">
        <ele>419.2</ele>
        <time>2024-09-01T09:32:36Z</time>
      </trkpt>
      <trkpt lat="47.10484" lon="6.00749">
        <ele>419</ele>
        <time>2024-09-01T09:32:37Z</time>
      </trkpt>
      <trkpt lat="47.10486" lon="6.00746">
        <ele>419.4</ele>
        <time>2024-09-01T09:32:38Z</time>
      </trkpt>
      <trkpt lat="47.10488" lon="6.00743">
        <ele>419.4</ele>
        <time>2024-09-01T09:32:39Z</time>
      </trkpt>
      <trkpt lat="47.10491" lon="6.00741">
        <ele>419.4</ele>
        <time>2024-09-01T09:32:40Z</time>
      </trkpt>
      <trkpt lat="47.10494" lon="6.00738">
        <ele>419.6</ele>
        <time>2024-09-01T09:32:41Z</time>
      </trkpt>
      <trkpt lat="47.10497" lon="6.00736">
        <ele>419.6</ele>
        <time>2024-09-01T09:32:42Z</time>
      </trkpt>
      <trkpt lat="47.105" lon="6.00733">
        <ele>420</ele>
        <time>2024-09-01T09:32:43Z</time>
      </trkpt>
      <trkpt lat="47.10503" lon="6.00731">
        <ele>420.4</ele>
        <time>2024-09-01T09:32:44Z</time>
      </trkpt>
      <trkpt lat="47.10507" lon="6.0073">
        <ele>420.6</ele>
        <time>2024-09-01T09:32:45Z</time>
      </trkpt>
      <trkpt lat="47.1051" lon="6.00729">
        <ele>420.6</ele>
        <time>2024-09-01T09:32:46Z</time>
      </trkpt>
      <trkpt lat="47.10514" lon="6.00728">
        <ele>420.8</ele>
        <time>2024-09-01T09:32:47Z</time>
      </trkpt>
      <trkpt lat="47.10517" lon="6.00727">
        <ele>420.6</ele>
        <time>2024-09-01T09:32:48Z</time>
      </trkpt>
      <trkpt lat="47.10521" lon="6.00727">
        <ele>420.8</ele>
        <time>2024-09-01T09:32:49Z</time>
      </trkpt>
      <trkpt lat="47.10524" lon="6.00727">
        <ele>420.8</ele>
        <time>2024-09-01T09:32:50Z</time>
      </trkpt>
      <trkpt lat="47.10527" lon="6.00727">
        <ele>421.2</ele>
        <time>2024-09-01T09:32:51Z</time>
      </trkpt>
      <trkpt lat="47.10531" lon="6.00727">
        <ele>421.4</ele>
        <time>2024-09-01T09:32:52Z</time>
      </trkpt>
      <trkpt lat="47.10534" lon="6.00728">
        <ele>421.4</ele>
        <time>2024-09-01T09:32:53Z</time>
      </trkpt>
      <trkpt lat="47.10538" lon="6.00729">
        <ele>421.6</ele>
        <time>2024-09-01T09:32:54Z</time>
      </trkpt>
      <trkpt lat="47.10542" lon="6.0073">
        <ele>421.6</ele>
        <time>2024-09-01T09:32:55Z</time>
      </trkpt>
      <trkpt lat="47.10545" lon="6.0073">
        <ele>422</ele>
        <time>2024-09-01T09:32:56Z</time>
      </trkpt>
      <trkpt lat="47.10549" lon="6.00731">
        <ele>422.2</ele>
        <time>2024-09-01T09:32:57Z</time>
      </trkpt>
      <trkpt lat="47.10553" lon="6.00732">
        <ele>422.4</ele>
        <time>2024-09-01T09:32:58Z</time>
      </trkpt>
      <trkpt lat="47.10557" lon="6.00733">
        <ele>422.6</ele>
        <time>2024-09-01T09:32:59Z</time>
      </trkpt>
      <trkpt lat="47.1056" lon="6.00734">
        <ele>422.8</ele>
        <time>2024-09-01T09:33:00Z</time>
      </trkpt>
      <trkpt lat="47.10564" lon="6.00734">
        <ele>423</ele>
        <time>2024-09-01T09:33:01Z</time>
      </trkpt>
      <trkpt lat="47.10568" lon="6.00735">
        <ele>423</ele>
        <time>2024-09-01T09:33:02Z</time>
      </trkpt>
      <trkpt lat="47.10572" lon="6.00735">
        <ele>423.2</ele>
        <time>2024-09-01T09:33:03Z</time>
      </trkpt>
      <trkpt lat="47.10576" lon="6.00736">
        <ele>423.4</ele>
        <time>2024-09-01T09:33:04Z</time>
      </trkpt>
      <trkpt lat="47.1058" lon="6.00736">
        <ele>423.8</ele>
        <time>2024-09-01T09:33:05Z</time>
      </trkpt>
      <trkpt lat="47.10585" lon="6.00736">
        <ele>424</ele>
        <time>2024-09-01T09:33:06Z</time>
      </trkpt>
      <trkpt lat="47.10589" lon="6.00737">
        <ele>424.2</ele>
        <time>2024-09-01T09:33:07Z</time>
      </trkpt>
      <trkpt lat="47.10593" lon="6.00736">
        <ele>424.2</ele>
        <time>2024-09-01T09:33:08Z</time>
      </trkpt>
      <trkpt lat="47.10597" lon="6.00735">
        <ele>424.4</ele>
        <time>2024-09-01T09:33:09Z</time>
      </trkpt>
      <trkpt lat="47.10601" lon="6.00734">
        <ele>424.6</ele>
        <time>2024-09-01T09:33:10Z</time>
      </trkpt>
      <trkpt lat="47.10605" lon="6.00733">
        <ele>424.8</ele>
        <time>2024-09-01T09:33:11Z</time>
      </trkpt>
      <trkpt lat="47.10609" lon="6.00732">
        <ele>424.8</ele>
        <time>2024-09-01T09:33:12Z</time>
      </trkpt>
      <trkpt lat="47.10613" lon="6.00731">
        <ele>425</ele>
        <time>2024-09-01T09:33:13Z</time>
      </trkpt>
      <trkpt lat="47.10617" lon="6.00729">
        <ele>425</ele>
        <time>2024-09-01T09:33:14Z</time>
      </trkpt>
      <trkpt lat="47.10621" lon="6.00728">
        <ele>425.2</ele>
        <time>2024-09-01T09:33:15Z</time>
      </trkpt>
      <trkpt lat="47.10625" lon="6.00726">
        <ele>425.2</ele>
        <time>2024-09-01T09:33:16Z</time>
      </trkpt>
      <trkpt lat="47.10628" lon="6.00725">
        <ele>425.2</ele>
        <time>2024-09-01T09:33:17Z</time>
      </trkpt>
      <trkpt lat="47.10632" lon="6.00724">
        <ele>425.4</ele>
        <time>2024-09-01T09:33:18Z</time>
      </trkpt>
      <trkpt lat="47.10635" lon="6.00722">
        <ele>425.2</ele>
        <time>2024-09-01T09:33:19Z</time>
      </trkpt>
      <trkpt lat="47.10639" lon="6.00721">
        <ele>425.4</ele>
        <time>2024-09-01T09:33:20Z</time>
      </trkpt>
      <trkpt lat="47.10642" lon="6.00719">
        <ele>425.4</ele>
        <time>2024-09-01T09:33:21Z</time>
      </trkpt>
      <trkpt lat="47.10646" lon="6.00717">
        <ele>425.6</ele>
        <time>2024-09-01T09:33:22Z</time>
      </trkpt>
      <trkpt lat="47.1065" lon="6.00716">
        <ele>425.8</ele>
        <time>2024-09-01T09:33:23Z</time>
      </trkpt>
      <trkpt lat="47.10654" lon="6.00715">
        <ele>425.6</ele>
        <time>2024-09-01T09:33:24Z</time>
      </trkpt>
      <trkpt lat="47.10658" lon="6.00714">
        <ele>425.8</ele>
        <time>2024-09-01T09:33:25Z</time>
      </trkpt>
      <trkpt lat="47.10662" lon="6.00713">
        <ele>426</ele>
        <time>2024-09-01T09:33:26Z</time>
      </trkpt>
      <trkpt lat="47.10667" lon="6.00713">
        <ele>426</ele>
        <time>2024-09-01T09:33:27Z</time>
      </trkpt>
      <trkpt lat="47.10671" lon="6.00712">
        <ele>426.2</ele>
        <time>2024-09-01T09:33:28Z</time>
      </trkpt>
      <trkpt lat="47.10675" lon="6.00712">
        <ele>426</ele>
        <time>2024-09-01T09:33:29Z</time>
      </trkpt>
      <trkpt lat="47.1068" lon="6.00712">
        <ele>426.2</ele>
        <time>2024-09-01T09:33:30Z</time>
      </trkpt>
      <trkpt lat="47.10684" lon="6.00713">
        <ele>426.2</ele>
        <time>2024-09-01T09:33:31Z</time>
      </trkpt>
      <trkpt lat="47.10688" lon="6.00714">
        <ele>426.2</ele>
        <time>2024-09-01T09:33:32Z</time>
      </trkpt>
      <trkpt lat="47.10692" lon="6.00715">
        <ele>426.4</ele>
        <time>2024-09-01T09:33:33Z</time>
      </trkpt>
      <trkpt lat="47.10697" lon="6.00716">
        <ele>426.4</ele>
        <time>2024-09-01T09:33:34Z</time>
      </trkpt>
      <trkpt lat="47.10701" lon="6.00717">
        <ele>426.2</ele>
        <time>2024-09-01T09:33:35Z</time>
      </trkpt>
      <trkpt lat="47.10705" lon="6.00718">
        <ele>426.4</ele>
        <time>2024-09-01T09:33:36Z</time>
      </trkpt>
      <trkpt lat="47.10709" lon="6.00719">
        <ele>426.4</ele>
        <time>2024-09-01T09:33:37Z</time>
      </trkpt>
      <trkpt lat="47.10714" lon="6.00719">
        <ele>426.4</ele>
        <time>2024-09-01T09:33:38Z</time>
      </trkpt>
      <trkpt lat="47.10718" lon="6.0072">
        <ele>426.4</ele>
        <time>2024-09-01T09:33:39Z</time>
      </trkpt>
      <trkpt lat="47.10722" lon="6.0072">
        <ele>426.4</ele>
        <time>2024-09-01T09:33:40Z</time>
      </trkpt>
      <trkpt lat="47.10725" lon="6.0072">
        <ele>426.4</ele>
        <time>2024-09-01T09:33:41Z</time>
      </trkpt>
      <trkpt lat="47.10729" lon="6.0072">
        <ele>426.4</ele>
        <time>2024-09-01T09:33:42Z</time>
      </trkpt>
      <trkpt lat="47.10734" lon="6.0072">
        <ele>426.4</ele>
        <time>2024-09-01T09:33:43Z</time>
      </trkpt>
      <trkpt lat="47.10738" lon="6.00721">
        <ele>426.6</ele>
        <time>2024-09-01T09:33:44Z</time>
      </trkpt>
      <trkpt lat="47.10742" lon="6.00721">
        <ele>426.8</ele>
        <time>2024-09-01T09:33:45Z</time>
      </trkpt>
      <trkpt lat="47.10747" lon="6.00722">
        <ele>426.8</ele>
        <time>2024-09-01T09:33:46Z</time>
      </trkpt>
      <trkpt lat="47.10751" lon="6.00722">
        <ele>426.8</ele>
        <time>2024-09-01T09:33:47Z</time>
      </trkpt>
      <trkpt lat="47.10756" lon="6.00722">
        <ele>427</ele>
        <time>2024-09-01T09:33:48Z</time>
      </trkpt>
      <trkpt lat="47.1076" lon="6.00723">
        <ele>427.2</ele>
        <time>2024-09-01T09:33:49Z</time>
      </trkpt>
      <trkpt lat="47.10765" lon="6.00723">
        <ele>427.4</ele>
        <time>2024-09-01T09:33:50Z</time>
      </trkpt>
      <trkpt lat="47.10769" lon="6.00723">
        <ele>427.6</ele>
        <time>2024-09-01T09:33:51Z</time>
      </trkpt>
      <trkpt lat="47.10773" lon="6.00723">
        <ele>427.8</ele>
        <time>2024-09-01T09:33:52Z</time>
      </trkpt>
      <trkpt lat="47.10777" lon="6.00724">
        <ele>428.2</ele>
        <time>2024-09-01T09:33:53Z</time>
      </trkpt>
      <trkpt lat="47.10781" lon="6.00723">
        <ele>428.6</ele>
        <time>2024-09-01T09:33:54Z</time>
      </trkpt>
      <trkpt lat="47.10786" lon="6.00723">
        <ele>428.6</ele>
        <time>2024-09-01T09:33:55Z</time>
      </trkpt>
      <trkpt lat="47.1079" lon="6.00723">
        <ele>428.8</ele>
        <time>2024-09-01T09:33:56Z</time>
      </trkpt>
      <trkpt lat="47.10794" lon="6.00722">
        <ele>429</ele>
        <time>2024-09-01T09:33:57Z</time>
      </trkpt>
      <trkpt lat="47.10799" lon="6.00722">
        <ele>429.2</ele>
        <time>2024-09-01T09:33:58Z</time>
      </trkpt>
      <trkpt lat="47.10803" lon="6.00722">
        <ele>429.4</ele>
        <time>2024-09-01T09:33:59Z</time>
      </trkpt>
      <trkpt lat="47.10808" lon="6.00722">
        <ele>429.6</ele>
        <time>2024-09-01T09:34:00Z</time>
      </trkpt>
      <trkpt lat="47.10812" lon="6.00721">
        <ele>429.8</ele>
        <time>2024-09-01T09:34:01Z</time>
      </trkpt>
      <trkpt lat="47.10817" lon="6.0072">
        <ele>430</ele>
        <time>2024-09-01T09:34:02Z</time>
      </trkpt>
      <trkpt lat="47.10822" lon="6.00718">
        <ele>430.2</ele>
        <time>2024-09-01T09:34:03Z</time>
      </trkpt>
      <trkpt lat="47.10826" lon="6.00716">
        <ele>430.2</ele>
        <time>2024-09-01T09:34:04Z</time>
      </trkpt>
      <trkpt lat="47.10831" lon="6.00714">
        <ele>430.4</ele>
        <time>2024-09-01T09:34:05Z</time>
      </trkpt>
      <trkpt lat="47.10835" lon="6.0071">
        <ele>430.6</ele>
        <time>2024-09-01T09:34:06Z</time>
      </trkpt>
      <trkpt lat="47.10839" lon="6.00707">
        <ele>430.8</ele>
        <time>2024-09-01T09:34:07Z</time>
      </trkpt>
      <trkpt lat="47.10843" lon="6.00702">
        <ele>431</ele>
        <time>2024-09-01T09:34:08Z</time>
      </trkpt>
      <trkpt lat="47.10846" lon="6.00698">
        <ele>431</ele>
        <time>2024-09-01T09:34:09Z</time>
      </trkpt>
      <trkpt lat="47.1085" lon="6.00694">
        <ele>431.4</ele>
        <time>2024-09-01T09:34:10Z</time>
      </trkpt>
      <trkpt lat="47.10853" lon="6.00689">
        <ele>431.4</ele>
        <time>2024-09-01T09:34:11Z</time>
      </trkpt>
      <trkpt lat="47.10856" lon="6.00684">
        <ele>431.6</ele>
        <time>2024-09-01T09:34:12Z</time>
      </trkpt>
      <trkpt lat="47.10859" lon="6.00679">
        <ele>431.8</ele>
        <time>2024-09-01T09:34:13Z</time>
      </trkpt>
      <trkpt lat="47.10862" lon="6.00674">
        <ele>432.2</ele>
        <time>2024-09-01T09:34:14Z</time>
      </trkpt>
      <trkpt lat="47.10865" lon="6.00669">
        <ele>432.4</ele>
        <time>2024-09-01T09:34:15Z</time>
      </trkpt>
      <trkpt lat="47.10867" lon="6.00664">
        <ele>432.8</ele>
        <time>2024-09-01T09:34:16Z</time>
      </trkpt>
      <trkpt lat="47.1087" lon="6.0066">
        <ele>433</ele>
        <time>2024-09-01T09:34:17Z</time>
      </trkpt>
      <trkpt lat="47.10873" lon="6.00655">
        <ele>433</ele>
        <time>2024-09-01T09:34:18Z</time>
      </trkpt>
      <trkpt lat="47.10876" lon="6.00651">
        <ele>433.2</ele>
        <time>2024-09-01T09:34:19Z</time>
      </trkpt>
      <trkpt lat="47.10879" lon="6.00647">
        <ele>433.6</ele>
        <time>2024-09-01T09:34:20Z</time>
      </trkpt>
      <trkpt lat="47.10882" lon="6.00643">
        <ele>433.6</ele>
        <time>2024-09-01T09:34:21Z</time>
      </trkpt>
      <trkpt lat="47.10885" lon="6.00639">
        <ele>433.8</ele>
        <time>2024-09-01T09:34:22Z</time>
      </trkpt>
      <trkpt lat="47.10888" lon="6.00635">
        <ele>433.8</ele>
        <time>2024-09-01T09:34:23Z</time>
      </trkpt>
      <trkpt lat="47.10891" lon="6.00631">
        <ele>433.8</ele>
        <time>2024-09-01T09:34:24Z</time>
      </trkpt>
      <trkpt lat="47.10895" lon="6.00628">
        <ele>433.8</ele>
        <time>2024-09-01T09:34:25Z</time>
      </trkpt>
      <trkpt lat="47.10898" lon="6.00624">
        <ele>434.2</ele>
        <time>2024-09-01T09:34:26Z</time>
      </trkpt>
      <trkpt lat="47.10901" lon="6.00621">
        <ele>434.4</ele>
        <time>2024-09-01T09:34:27Z</time>
      </trkpt>
      <trkpt lat="47.10904" lon="6.00618">
        <ele>434.4</ele>
        <time>2024-09-01T09:34:28Z</time>
      </trkpt>
      <trkpt lat="47.10908" lon="6.00614">
        <ele>434.6</ele>
        <time>2024-09-01T09:34:29Z</time>
      </trkpt>
      <trkpt lat="47.10911" lon="6.00611">
        <ele>434.8</ele>
        <time>2024-09-01T09:34:30Z</time>
      </trkpt>
      <trkpt lat="47.10915" lon="6.00608">
        <ele>435</ele>
        <time>2024-09-01T09:34:31Z</time>
      </trkpt>
      <trkpt lat="47.10918" lon="6.00605">
        <ele>435.2</ele>
        <time>2024-09-01T09:34:32Z</time>
      </trkpt>
      <trkpt lat="47.10921" lon="6.00601">
        <ele>435.2</ele>
        <time>2024-09-01T09:34:33Z</time>
      </trkpt>
      <trkpt lat="47.10925" lon="6.00598">
        <ele>435.4</ele>
        <time>2024-09-01T09:34:34Z</time>
      </trkpt>
      <trkpt lat="47.10928" lon="6.00595">
        <ele>435.8</ele>
        <time>2024-09-01T09:34:35Z</time>
      </trkpt>
      <trkpt lat="47.10931" lon="6.00592">
        <ele>435.8</ele>
        <time>2024-09-01T09:34:36Z</time>
      </trkpt>
      <trkpt lat="47.10935" lon="6.00589">
        <ele>435.8</ele>
        <time>2024-09-01T09:34:37Z</time>
      </trkpt>
      <trkpt lat="47.10938" lon="6.00586">
        <ele>436</ele>
        <time>2024-09-01T09:34:38Z</time>
      </trkpt>
      <trkpt lat="47.10942" lon="6.00583">
        <ele>436</ele>
        <time>2024-09-01T09:34:39Z</time>
      </trkpt>
      <trkpt lat="47.10945" lon="6.0058">
        <ele>436.2</ele>
        <time>2024-09-01T09:34:40Z</time>
      </trkpt>
      <trkpt lat="47.10948" lon="6.00576">
        <ele>436.2</ele>
        <time>2024-09-01T09:34:41Z</time>
      </trkpt>
      <trkpt lat="47.10952" lon="6.00573">
        <ele>436.4</ele>
        <time>2024-09-01T09:34:42Z</time>
      </trkpt>
      <trkpt lat="47.10955" lon="6.0057">
        <ele>436.4</ele>
        <time>2024-09-01T09:34:43Z</time>
      </trkpt>
      <trkpt lat="47.10959" lon="6.00567">
        <ele>436.6</ele>
        <time>2024-09-01T09:34:44Z</time>
      </trkpt>
      <trkpt lat="47.10962" lon="6.00564">
        <ele>436.6</ele>
        <time>2024-09-01T09:34:45Z</time>
      </trkpt>
      <trkpt lat="47.10966" lon="6.00561">
        <ele>437</ele>
        <time>2024-09-01T09:34:46Z</time>
      </trkpt>
      <trkpt lat="47.10969" lon="6.00558">
        <ele>437.2</ele>
        <time>2024-09-01T09:34:47Z</time>
      </trkpt>
      <trkpt lat="47.10973" lon="6.00555">
        <ele>437.4</ele>
        <time>2024-09-01T09:34:48Z</time>
      </trkpt>
      <trkpt lat="47.10977" lon="6.00552">
        <ele>437.6</ele>
        <time>2024-09-01T09:34:49Z</time>
      </trkpt>
      <trkpt lat="47.1098" lon="6.00548">
        <ele>437.8</ele>
        <time>2024-09-01T09:34:50Z</time>
      </trkpt>
      <trkpt lat="47.10984" lon="6.00545">
        <ele>437.8</ele>
        <time>2024-09-01T09:34:51Z</time>
      </trkpt>
      <trkpt lat="47.10988" lon="6.00542">
        <ele>438</ele>
        <time>2024-09-01T09:34:52Z</time>
      </trkpt>
      <trkpt lat="47.10992" lon="6.00539">
        <ele>438.2</ele>
        <time>2024-09-01T09:34:53Z</time>
      </trkpt>
      <trkpt lat="47.10995" lon="6.00535">
        <ele>438.2</ele>
        <time>2024-09-01T09:34:54Z</time>
      </trkpt>
      <trkpt lat="47.10999" lon="6.00532">
        <ele>438.4</ele>
        <time>2024-09-01T09:34:55Z</time>
      </trkpt>
      <trkpt lat="47.11002" lon="6.00529">
        <ele>438.8</ele>
        <time>2024-09-01T09:34:56Z</time>
      </trkpt>
      <trkpt lat="47.11006" lon="6.00526">
        <ele>438.8</ele>
        <time>2024-09-01T09:34:57Z</time>
      </trkpt>
      <trkpt lat="47.1101" lon="6.00523">
        <ele>439</ele>
        <time>2024-09-01T09:34:58Z</time>
      </trkpt>
      <trkpt lat="47.11013" lon="6.0052">
        <ele>439</ele>
        <time>2024-09-01T09:34:59Z</time>
      </trkpt>
      <trkpt lat="47.11017" lon="6.00517">
        <ele>439.2</ele>
        <time>2024-09-01T09:35:00Z</time>
      </trkpt>
      <trkpt lat="47.1102" lon="6.00514">
        <ele>439.2</ele>
        <time>2024-09-01T09:35:01Z</time>
      </trkpt>
      <trkpt lat="47.11023" lon="6.00511">
        <ele>439.2</ele>
        <time>2024-09-01T09:35:02Z</time>
      </trkpt>
      <trkpt lat="47.11027" lon="6.00508">
        <ele>439.4</ele>
        <time>2024-09-01T09:35:03Z</time>
      </trkpt>
      <trkpt lat="47.1103" lon="6.00506">
        <ele>439.6</ele>
        <time>2024-09-01T09:35:04Z</time>
      </trkpt>
      <trkpt lat="47.11034" lon="6.00503">
        <ele>439.8</ele>
        <time>2024-09-01T09:35:05Z</time>
      </trkpt>
      <trkpt lat="47.11037" lon="6.005">
        <ele>440</ele>
        <time>2024-09-01T09:35:06Z</time>
      </trkpt>
      <trkpt lat="47.11041" lon="6.00498">
        <ele>440.2</ele>
        <time>2024-09-01T09:35:07Z</time>
      </trkpt>
      <trkpt lat="47.11045" lon="6.00495">
        <ele>440.4</ele>
        <time>2024-09-01T09:35:08Z</time>
      </trkpt>
      <trkpt lat="47.11048" lon="6.00492">
        <ele>440.8</ele>
        <time>2024-09-01T09:35:09Z</time>
      </trkpt>
      <trkpt lat="47.11052" lon="6.00488">
        <ele>441</ele>
        <time>2024-09-01T09:35:10Z</time>
      </trkpt>
      <trkpt lat="47.11055" lon="6.00485">
        <ele>441</ele>
        <time>2024-09-01T09:35:11Z</time>
      </trkpt>
      <trkpt lat="47.11059" lon="6.00482">
        <ele>441.4</ele>
        <time>2024-09-01T09:35:12Z</time>
      </trkpt>
      <trkpt lat="47.11063" lon="6.0048">
        <ele>441.6</ele>
        <time>2024-09-01T09:35:13Z</time>
      </trkpt>
      <trkpt lat="47.11066" lon="6.00477">
        <ele>441.6</ele>
        <time>2024-09-01T09:35:14Z</time>
      </trkpt>
      <trkpt lat="47.11069" lon="6.00474">
        <ele>442</ele>
        <time>2024-09-01T09:35:15Z</time>
      </trkpt>
      <trkpt lat="47.11072" lon="6.0047">
        <ele>442</ele>
        <time>2024-09-01T09:35:16Z</time>
      </trkpt>
      <trkpt lat="47.11075" lon="6.00467">
        <ele>442.2</ele>
        <time>2024-09-01T09:35:17Z</time>
      </trkpt>
      <trkpt lat="47.11078" lon="6.00463">
        <ele>442.4</ele>
        <time>2024-09-01T09:35:18Z</time>
      </trkpt>
      <trkpt lat="47.11081" lon="6.00459">
        <ele>442.4</ele>
        <time>2024-09-01T09:35:19Z</time>
      </trkpt>
      <trkpt lat="47.11084" lon="6.00455">
        <ele>442.8</ele>
        <time>2024-09-01T09:35:20Z</time>
      </trkpt>
      <trkpt lat="47.11087" lon="6.00452">
        <ele>443</ele>
        <time>2024-09-01T09:35:21Z</time>
      </trkpt>
      <trkpt lat="47.11089" lon="6.00449">
        <ele>443.2</ele>
        <time>2024-09-01T09:35:22Z</time>
      </trkpt>
      <trkpt lat="47.11091" lon="6.00446">
        <ele>443.4</ele>
        <time>2024-09-01T09:35:23Z</time>
      </trkpt>
      <trkpt lat="47.11093" lon="6.00444">
        <ele>443.8</ele>
        <time>2024-09-01T09:35:24Z</time>
      </trkpt>
      <trkpt lat="47.11095" lon="6.00442">
        <ele>444</ele>
        <time>2024-09-01T09:35:25Z</time>
      </trkpt>
      <trkpt lat="47.11097" lon="6.0044">
        <ele>444</ele>
        <time>2024-09-01T09:35:26Z</time>
      </trkpt>
      <trkpt lat="47.11099" lon="6.00438">
        <ele>444</ele>
        <time>2024-09-01T09:35:27Z</time>
      </trkpt>
      <trkpt lat="47.11101" lon="6.00436">
        <ele>444.2</ele>
        <time>2024-09-01T09:35:28Z</time>
      </trkpt>
      <trkpt lat="47.11103" lon="6.00434">
        <ele>444.4</ele>
        <time>2024-09-01T09:35:29Z</time>
      </trkpt>
      <trkpt lat="47.11105" lon="6.00433">
        <ele>444.6</ele>
        <time>2024-09-01T09:35:30Z</time>
      </trkpt>
      <trkpt lat="47.11106" lon="6.00432">
        <ele>444.6</ele>
        <time>2024-09-01T09:35:31Z</time>
      </trkpt>
      <trkpt lat="47.11107" lon="6.00431">
        <ele>444.6</ele>
        <time>2024-09-01T09:35:32Z</time>
      </trkpt>
      <trkpt lat="47.11108" lon="6.00431">
        <ele>444.6</ele>
        <time>2024-09-01T09:35:33Z</time>
      </trkpt>
      <trkpt lat="47.11109" lon="6.00431">
        <ele>444.6</ele>
        <time>2024-09-01T09:35:34Z</time>
      </trkpt>
      <trkpt lat="47.11109" lon="6.00432">
        <ele>444.6</ele>
        <time>2024-09-01T09:35:35Z</time>
      </trkpt>
      <trkpt lat="47.11109" lon="6.00432">
        <ele>444.6</ele>
        <time>2024-09-01T09:35:36Z</time>
      </trkpt>
      <trkpt lat="47.11109" lon="6.00433">
        <ele>444.8</ele>
        <time>2024-09-01T09:35:37Z</time>
      </trkpt>
      <trkpt lat="47.11109" lon="6.00434">
        <ele>445</ele>
        <time>2024-09-01T09:35:38Z</time>
      </trkpt>
      <trkpt lat="47.11109" lon="6.00434">
        <ele>445</ele>
        <time>2024-09-01T09:35:39Z</time>
      </trkpt>
      <trkpt lat="47.11109" lon="6.00434">
        <ele>445</ele>
        <time>2024-09-01T09:35:40Z</time>
      </trkpt>
      <trkpt lat="47.11109" lon="6.00435">
        <ele>445</ele>
        <time>2024-09-01T09:35:41Z</time>
      </trkpt>
      <trkpt lat="47.11109" lon="6.00434">
        <ele>445</ele>
        <time>2024-09-01T09:35:42Z</time>
      </trkpt>
      <trkpt lat="47.11109" lon="6.00434">
        <ele>445</ele>
        <time>2024-09-01T09:35:43Z</time>
      </trkpt>
      <trkpt lat="47.11109" lon="6.00434">
        <ele>445.2</ele>
        <time>2024-09-01T09:35:44Z</time>
      </trkpt>
      <trkpt lat="47.11109" lon="6.00434">
        <ele>445.2</ele>
        <time>2024-09-01T09:35:45Z</time>
      </trkpt>
      <trkpt lat="47.11109" lon="6.00434">
        <ele>445</ele>
        <time>2024-09-01T09:35:46Z</time>
      </trkpt>
      <trkpt lat="47.11109" lon="6.00434">
        <ele>445.2</ele>
        <time>2024-09-01T09:35:47Z</time>
      </trkpt>
      <trkpt lat="47.11109" lon="6.00434">
        <ele>445.2</ele>
        <time>2024-09-01T09:35:48Z</time>
      </trkpt>
      <trkpt lat="47.11109" lon="6.00434">
        <ele>445.2</ele>
        <time>2024-09-01T09:35:49Z</time>
      </trkpt>
      <trkpt lat="47.11109" lon="6.00434">
        <ele>445.2</ele>
        <time>2024-09-01T09:35:50Z</time>
      </trkpt>
      <trkpt lat="47.11109" lon="6.00434">
        <ele>445.2</ele>
        <time>2024-09-01T09:35:51Z</time>
      </trkpt>
      <trkpt lat="47.11109" lon="6.00434">
        <ele>445.2</ele>
        <time>2024-09-01T09:35:52Z</time>
      </trkpt>
      <trkpt lat="47.11109" lon="6.00434">
        <ele>445.2</ele>
        <time>2024-09-01T09:35:53Z</time>
      </trkpt>
      <trkpt lat="47.11109" lon="6.00434">
        <ele>445.2</ele>
        <time>2024-09-01T09:35:54Z</time>
      </trkpt>
      <trkpt lat="47.11109" lon="6.00434">
        <ele>445.2</ele>
        <time>2024-09-01T09:35:55Z</time>
      </trkpt>
      <trkpt lat="47.11109" lon="6.00433">
        <ele>445.2</ele>
        <time>2024-09-01T09:35:56Z</time>
      </trkpt>
      <trkpt lat="47.11108" lon="6.00433">
        <ele>445.2</ele>
        <time>2024-09-01T09:35:57Z</time>
      </trkpt>
      <trkpt lat="47.11108" lon="6.00433">
        <ele>445.2</ele>
        <time>2024-09-01T09:35:58Z</time>
      </trkpt>
      <trkpt lat="47.11108" lon="6.00433">
        <ele>445.4</ele>
        <time>2024-09-01T09:35:59Z</time>
      </trkpt>
      <trkpt lat="47.11108" lon="6.00433">
        <ele>445.2</ele>
        <time>2024-09-01T09:36:00Z</time>
      </trkpt>
      <trkpt lat="47.11108" lon="6.00433">
        <ele>445.2</ele>
        <time>2024-09-01T09:36:01Z</time>
      </trkpt>
      <trkpt lat="47.11108" lon="6.00433">
        <ele>445.2</ele>
        <time>2024-09-01T09:36:02Z</time>
      </trkpt>
      <trkpt lat="47.11108" lon="6.00433">
        <ele>445.2</ele>
        <time>2024-09-01T09:36:03Z</time>
      </trkpt>
      <trkpt lat="47.11108" lon="6.00433">
        <ele>445.2</ele>
        <time>2024-09-01T09:36:04Z</time>
      </trkpt>
      <trkpt lat="47.11108" lon="6.00433">
        <ele>445.2</ele>
        <time>2024-09-01T09:36:05Z</time>
      </trkpt>
      <trkpt lat="47.11108" lon="6.00433">
        <ele>445.2</ele>
        <time>2024-09-01T09:36:06Z</time>
      </trkpt>
      <trkpt lat="47.11107" lon="6.00433">
        <ele>445.2</ele>
        <time>2024-09-01T09:36:07Z</time>
      </trkpt>
      <trkpt lat="47.11107" lon="6.00433">
        <ele>445.2</ele>
        <time>2024-09-01T09:36:08Z</time>
      </trkpt>
      <trkpt lat="47.11107" lon="6.00433">
        <ele>445.2</ele>
        <time>2024-09-01T09:36:09Z</time>
      </trkpt>
      <trkpt lat="47.11107" lon="6.00433">
        <ele>445</ele>
        <time>2024-09-01T09:36:10Z</time>
      </trkpt>
      <trkpt lat="47.11107" lon="6.00433">
        <ele>445.2</ele>
        <time>2024-09-01T09:36:11Z</time>
      </trkpt>
      <trkpt lat="47.11107" lon="6.00433">
        <ele>445.2</ele>
        <time>2024-09-01T09:36:12Z</time>
      </trkpt>
      <trkpt lat="47.11107" lon="6.00433">
        <ele>445.2</ele>
        <time>2024-09-01T09:36:13Z</time>
      </trkpt>
      <trkpt lat="47.11107" lon="6.00433">
        <ele>445.2</ele>
        <time>2024-09-01T09:36:14Z</time>
      </trkpt>
      <trkpt lat="47.11107" lon="6.00433">
        <ele>445.2</ele>
        <time>2024-09-01T09:36:15Z</time>
      </trkpt>
      <trkpt lat="47.11107" lon="6.00433">
        <ele>445</ele>
        <time>2024-09-01T09:36:16Z</time>
      </trkpt>
      <trkpt lat="47.11107" lon="6.00433">
        <ele>445</ele>
        <time>2024-09-01T09:36:17Z</time>
      </trkpt>
      <trkpt lat="47.11107" lon="6.00433">
        <ele>445.2</ele>
        <time>2024-09-01T09:36:18Z</time>
      </trkpt>
      <trkpt lat="47.11107" lon="6.00433">
        <ele>445.2</ele>
        <time>2024-09-01T09:36:19Z</time>
      </trkpt>
      <trkpt lat="47.11107" lon="6.00433">
        <ele>445.2</ele>
        <time>2024-09-01T09:36:20Z</time>
      </trkpt>
      <trkpt lat="47.11107" lon="6.00433">
        <ele>445</ele>
        <time>2024-09-01T09:36:21Z</time>
      </trkpt>
      <trkpt lat="47.11107" lon="6.00433">
        <ele>445</ele>
        <time>2024-09-01T09:36:22Z</time>
      </trkpt>
      <trkpt lat="47.11107" lon="6.00433">
        <ele>445</ele>
        <time>2024-09-01T09:36:23Z</time>
      </trkpt>
      <trkpt lat="47.11107" lon="6.00433">
        <ele>445</ele>
        <time>2024-09-01T09:36:24Z</time>
      </trkpt>
      <trkpt lat="47.11107" lon="6.00433">
        <ele>445</ele>
        <time>2024-09-01T09:36:25Z</time>
      </trkpt>
      <trkpt lat="47.11107" lon="6.00433">
        <ele>445</ele>
        <time>2024-09-01T09:36:26Z</time>
      </trkpt>
      <trkpt lat="47.11107" lon="6.00433">
        <ele>445</ele>
        <time>2024-09-01T09:36:27Z</time>
      </trkpt>
      <trkpt lat="47.11107" lon="6.00433">
        <ele>445</ele>
        <time>2024-09-01T09:36:28Z</time>
      </trkpt>
      <trkpt lat="47.11107" lon="6.00433">
        <ele>445</ele>
        <time>2024-09-01T09:36:29Z</time>
      </trkpt>
      <trkpt lat="47.11107" lon="6.00433">
        <ele>445</ele>
        <time>2024-09-01T09:36:30Z</time>
      </trkpt>
      <trkpt lat="47.11107" lon="6.00433">
        <ele>445</ele>
        <time>2024-09-01T09:36:31Z</time>
      </trkpt>
      <trkpt lat="47.11107" lon="6.00433">
        <ele>445</ele>
        <time>2024-09-01T09:36:32Z</time>
      </trkpt>
      <trkpt lat="47.11108" lon="6.00433">
        <ele>445</ele>
        <time>2024-09-01T09:36:33Z</time>
      </trkpt>
      <trkpt lat="47.11108" lon="6.00433">
        <ele>445</ele>
        <time>2024-09-01T09:36:34Z</time>
      </trkpt>
      <trkpt lat="47.11108" lon="6.00434">
        <ele>445</ele>
        <time>2024-09-01T09:36:35Z</time>
      </trkpt>
      <trkpt lat="47.11108" lon="6.00434">
        <ele>445.2</ele>
        <time>2024-09-01T09:36:36Z</time>
      </trkpt>
      <trkpt lat="47.11109" lon="6.00434">
        <ele>445</ele>
        <time>2024-09-01T09:36:37Z</time>
      </trkpt>
      <trkpt lat="47.11109" lon="6.00434">
        <ele>445</ele>
        <time>2024-09-01T09:36:38Z</time>
      </trkpt>
      <trkpt lat="47.11109" lon="6.00434">
        <ele>445.2</ele>
        <time>2024-09-01T09:36:39Z</time>
      </trkpt>
      <trkpt lat="47.11109" lon="6.00434">
        <ele>445</ele>
        <time>2024-09-01T09:36:40Z</time>
      </trkpt>
      <trkpt lat="47.11109" lon="6.00434">
        <ele>445</ele>
        <time>2024-09-01T09:36:41Z</time>
      </trkpt>
      <trkpt lat="47.11109" lon="6.00434">
        <ele>445.2</ele>
        <time>2024-09-01T09:36:42Z</time>
      </trkpt>
      <trkpt lat="47.11109" lon="6.00434">
        <ele>445</ele>
        <time>2024-09-01T09:36:43Z</time>
      </trkpt>
      <trkpt lat="47.11109" lon="6.00434">
        <ele>445</ele>
        <time>2024-09-01T09:36:44Z</time>
      </trkpt>
      <trkpt lat="47.11109" lon="6.00434">
        <ele>445</ele>
        <time>2024-09-01T09:36:45Z</time>
      </trkpt>
      <trkpt lat="47.11109" lon="6.00434">
        <ele>445</ele>
        <time>2024-09-01T09:36:46Z</time>
      </trkpt>
      <trkpt lat="47.11109" lon="6.00434">
        <ele>445.2</ele>
        <time>2024-09-01T09:36:47Z</time>
      </trkpt>
      <trkpt lat="47.11109" lon="6.00434">
        <ele>445</ele>
        <time>2024-09-01T09:36:48Z</time>
      </trkpt>
      <trkpt lat="47.11109" lon="6.00434">
        <ele>445.2</ele>
        <time>2024-09-01T09:36:49Z</time>
      </trkpt>
      <trkpt lat="47.11109" lon="6.00434">
        <ele>445</ele>
        <time>2024-09-01T09:36:50Z</time>
      </trkpt>
      <trkpt lat="47.11109" lon="6.00434">
        <ele>445.2</ele>
        <time>2024-09-01T09:36:51Z</time>
      </trkpt>
      <trkpt lat="47.11109" lon="6.00434">
        <ele>445</ele>
        <time>2024-09-01T09:36:52Z</time>
      </trkpt>
      <trkpt lat="47.11109" lon="6.00434">
        <ele>445</ele>
        <time>2024-09-01T09:36:53Z</time>
      </trkpt>
      <trkpt lat="47.11109" lon="6.00434">
        <ele>445</ele>
        <time>2024-09-01T09:36:54Z</time>
      </trkpt>
      <trkpt lat="47.11109" lon="6.00434">
        <ele>445</ele>
        <time>2024-09-01T09:36:55Z</time>
      </trkpt>
      <trkpt lat="47.11109" lon="6.00434">
        <ele>445</ele>
        <time>2024-09-01T09:36:56Z</time>
      </trkpt>
      <trkpt lat="47.11109" lon="6.00434">
        <ele>445.2</ele>
        <time>2024-09-01T09:36:57Z</time>
      </trkpt>
      <trkpt lat="47.11109" lon="6.00434">
        <ele>445.2</ele>
        <time>2024-09-01T09:36:58Z</time>
      </trkpt>
      <trkpt lat="47.11109" lon="6.00434">
        <ele>445</ele>
        <time>2024-09-01T09:36:59Z</time>
      </trkpt>
      <trkpt lat="47.11109" lon="6.00434">
        <ele>445</ele>
        <time>2024-09-01T09:37:00Z</time>
      </trkpt>
      <trkpt lat="47.11108" lon="6.00434">
        <ele>445</ele>
        <time>2024-09-01T09:37:01Z</time>
      </trkpt>
      <trkpt lat="47.11108" lon="6.00434">
        <ele>445</ele>
        <time>2024-09-01T09:37:02Z</time>
      </trkpt>
      <trkpt lat="47.11108" lon="6.00435">
        <ele>445</ele>
        <time>2024-09-01T09:37:03Z</time>
      </trkpt>
      <trkpt lat="47.11108" lon="6.00435">
        <ele>445</ele>
        <time>2024-09-01T09:37:04Z</time>
      </trkpt>
      <trkpt lat="47.11108" lon="6.00435">
        <ele>445</ele>
        <time>2024-09-01T09:37:05Z</time>
      </trkpt>
      <trkpt lat="47.11108" lon="6.00435">
        <ele>445</ele>
        <time>2024-09-01T09:37:06Z</time>
      </trkpt>
      <trkpt lat="47.11108" lon="6.00435">
        <ele>445</ele>
        <time>2024-09-01T09:37:07Z</time>
      </trkpt>
      <trkpt lat="47.11108" lon="6.00435">
        <ele>445</ele>
        <time>2024-09-01T09:37:08Z</time>
      </trkpt>
      <trkpt lat="47.11108" lon="6.00435">
        <ele>445</ele>
        <time>2024-09-01T09:37:09Z</time>
      </trkpt>
      <trkpt lat="47.11108" lon="6.00435">
        <ele>445.2</ele>
        <time>2024-09-01T09:37:10Z</time>
      </trkpt>
      <trkpt lat="47.11108" lon="6.00435">
        <ele>445</ele>
        <time>2024-09-01T09:37:11Z</time>
      </trkpt>
      <trkpt lat="47.11108" lon="6.00435">
        <ele>445</ele>
        <time>2024-09-01T09:37:12Z</time>
      </trkpt>
      <trkpt lat="47.11107" lon="6.00435">
        <ele>445</ele>
        <time>2024-09-01T09:37:13Z</time>
      </trkpt>
      <trkpt lat="47.11107" lon="6.00435">
        <ele>445</ele>
        <time>2024-09-01T09:37:14Z</time>
      </trkpt>
      <trkpt lat="47.11107" lon="6.00435">
        <ele>445</ele>
        <time>2024-09-01T09:37:15Z</time>
      </trkpt>
      <trkpt lat="47.11107" lon="6.00435">
        <ele>445</ele>
        <time>2024-09-01T09:37:16Z</time>
      </trkpt>
      <trkpt lat="47.11107" lon="6.00435">
        <ele>445</ele>
        <time>2024-09-01T09:37:17Z</time>
      </trkpt>
      <trkpt lat="47.11106" lon="6.00435">
        <ele>445</ele>
        <time>2024-09-01T09:37:18Z</time>
      </trkpt>
      <trkpt lat="47.11106" lon="6.00435">
        <ele>445</ele>
        <time>2024-09-01T09:37:19Z</time>
      </trkpt>
      <trkpt lat="47.11106" lon="6.00435">
        <ele>445</ele>
        <time>2024-09-01T09:37:20Z</time>
      </trkpt>
      <trkpt lat="47.11106" lon="6.00435">
        <ele>445</ele>
        <time>2024-09-01T09:37:21Z</time>
      </trkpt>
      <trkpt lat="47.11106" lon="6.00435">
        <ele>445</ele>
        <time>2024-09-01T09:37:22Z</time>
      </trkpt>
      <trkpt lat="47.11106" lon="6.00435">
        <ele>444.8</ele>
        <time>2024-09-01T09:37:23Z</time>
      </trkpt>
      <trkpt lat="47.11106" lon="6.00435">
        <ele>444.8</ele>
        <time>2024-09-01T09:37:24Z</time>
      </trkpt>
      <trkpt lat="47.11106" lon="6.00435">
        <ele>444.8</ele>
        <time>2024-09-01T09:37:25Z</time>
      </trkpt>
      <trkpt lat="47.11106" lon="6.00435">
        <ele>445</ele>
        <time>2024-09-01T09:37:26Z</time>
      </trkpt>
      <trkpt lat="47.11106" lon="6.00435">
        <ele>444.8</ele>
        <time>2024-09-01T09:37:27Z</time>
      </trkpt>
      <trkpt lat="47.11106" lon="6.00435">
        <ele>444.8</ele>
        <time>2024-09-01T09:37:28Z</time>
      </trkpt>
      <trkpt lat="47.11106" lon="6.00435">
        <ele>445</ele>
        <time>2024-09-01T09:37:29Z</time>
      </trkpt>
      <trkpt lat="47.11106" lon="6.00435">
        <ele>445</ele>
        <time>2024-09-01T09:37:30Z</time>
      </trkpt>
      <trkpt lat="47.11106" lon="6.00435">
        <ele>445</ele>
        <time>2024-09-01T09:37:31Z</time>
      </trkpt>
      <trkpt lat="47.11106" lon="6.00435">
        <ele>445</ele>
        <time>2024-09-01T09:37:32Z</time>
      </trkpt>
      <trkpt lat="47.11106" lon="6.00435">
        <ele>445</ele>
        <time>2024-09-01T09:37:33Z</time>
      </trkpt>
      <trkpt lat="47.11106" lon="6.00436">
        <ele>445</ele>
        <time>2024-09-01T09:37:34Z</time>
      </trkpt>
      <trkpt lat="47.11106" lon="6.00436">
        <ele>445</ele>
        <time>2024-09-01T09:37:35Z</time>
      </trkpt>
      <trkpt lat="47.11106" lon="6.00436">
        <ele>445</ele>
        <time>2024-09-01T09:37:36Z</time>
      </trkpt>
      <trkpt lat="47.11106" lon="6.00436">
        <ele>444.8</ele>
        <time>2024-09-01T09:37:37Z</time>
      </trkpt>
      <trkpt lat="47.11106" lon="6.00436">
        <ele>445</ele>
        <time>2024-09-01T09:37:38Z</time>
      </trkpt>
      <trkpt lat="47.11106" lon="6.00436">
        <ele>445</ele>
        <time>2024-09-01T09:37:39Z</time>
      </trkpt>
      <trkpt lat="47.11106" lon="6.00436">
        <ele>445</ele>
        <time>2024-09-01T09:37:40Z</time>
      </trkpt>
      <trkpt lat="47.11106" lon="6.00436">
        <ele>445</ele>
        <time>2024-09-01T09:37:41Z</time>
      </trkpt>
      <trkpt lat="47.11106" lon="6.00436">
        <ele>445</ele>
        <time>2024-09-01T09:37:42Z</time>
      </trkpt>
      <trkpt lat="47.11106" lon="6.00436">
        <ele>445.2</ele>
        <time>2024-09-01T09:37:43Z</time>
      </trkpt>
      <trkpt lat="47.11107" lon="6.00435">
        <ele>445</ele>
        <time>2024-09-01T09:37:44Z</time>
      </trkpt>
      <trkpt lat="47.11108" lon="6.00433">
        <ele>445</ele>
        <time>2024-09-01T09:37:45Z</time>
      </trkpt>
      <trkpt lat="47.11109" lon="6.00431">
        <ele>445</ele>
        <time>2024-09-01T09:37:46Z</time>
      </trkpt>
      <trkpt lat="47.1111" lon="6.00429">
        <ele>445</ele>
        <time>2024-09-01T09:37:47Z</time>
      </trkpt>
      <trkpt lat="47.11112" lon="6.00427">
        <ele>445</ele>
        <time>2024-09-01T09:37:48Z</time>
      </trkpt>
      <trkpt lat="47.11114" lon="6.00424">
        <ele>445.2</ele>
        <time>2024-09-01T09:37:49Z</time>
      </trkpt>
      <trkpt lat="47.11115" lon="6.00422">
        <ele>445.2</ele>
        <time>2024-09-01T09:37:50Z</time>
      </trkpt>
      <trkpt lat="47.11117" lon="6.00419">
        <ele>445</ele>
        <time>2024-09-01T09:37:51Z</time>
      </trkpt>
      <trkpt lat="47.11119" lon="6.00417">
        <ele>445.2</ele>
        <time>2024-09-01T09:37:52Z</time>
      </trkpt>
      <trkpt lat="47.11121" lon="6.00414">
        <ele>445.2</ele>
        <time>2024-09-01T09:37:53Z</time>
      </trkpt>
      <trkpt lat="47.11123" lon="6.00412">
        <ele>445.2</ele>
        <time>2024-09-01T09:37:54Z</time>
      </trkpt>
      <trkpt lat="47.11125" lon="6.00409">
        <ele>445.4</ele>
        <time>2024-09-01T09:37:55Z</time>
      </trkpt>
      <trkpt lat="47.11127" lon="6.00406">
        <ele>445.6</ele>
        <time>2024-09-01T09:37:56Z</time>
      </trkpt>
      <trkpt lat="47.11129" lon="6.00403">
        <ele>445.4</ele>
        <time>2024-09-01T09:37:57Z</time>
      </trkpt>
      <trkpt lat="47.11131" lon="6.004">
        <ele>445.6</ele>
        <time>2024-09-01T09:37:58Z</time>
      </trkpt>
      <trkpt lat="47.11133" lon="6.00398">
        <ele>445.8</ele>
        <time>2024-09-01T09:37:59Z</time>
      </trkpt>
      <trkpt lat="47.11134" lon="6.00395">
        <ele>446</ele>
        <time>2024-09-01T09:38:00Z</time>
      </trkpt>
      <trkpt lat="47.11137" lon="6.00393">
        <ele>446</ele>
        <time>2024-09-01T09:38:01Z</time>
      </trkpt>
      <trkpt lat="47.11139" lon="6.0039">
        <ele>446.2</ele>
        <time>2024-09-01T09:38:02Z</time>
      </trkpt>
      <trkpt lat="47.11141" lon="6.00387">
        <ele>446.4</ele>
        <time>2024-09-01T09:38:03Z</time>
      </trkpt>
      <trkpt lat="47.11144" lon="6.00384">
        <ele>446.4</ele>
        <time>2024-09-01T09:38:04Z</time>
      </trkpt>
      <trkpt lat="47.11146" lon="6.00381">
        <ele>446.8</ele>
        <time>2024-09-01T09:38:05Z</time>
      </trkpt>
      <trkpt lat="47.11148" lon="6.00378">
        <ele>447</ele>
        <time>2024-09-01T09:38:06Z</time>
      </trkpt>
      <trkpt lat="47.1115" lon="6.00375">
        <ele>447.2</ele>
        <time>2024-09-01T09:38:07Z</time>
      </trkpt>
      <trkpt lat="47.11152" lon="6.00373">
        <ele>447.2</ele>
        <time>2024-09-01T09:38:08Z</time>
      </trkpt>
      <trkpt lat="47.11154" lon="6.0037">
        <ele>447.4</ele>
        <time>2024-09-01T09:38:09Z</time>
      </trkpt>
      <trkpt lat="47.11156" lon="6.00367">
        <ele>447.6</ele>
        <time>2024-09-01T09:38:10Z</time>
      </trkpt>
      <trkpt lat="47.11158" lon="6.00364">
        <ele>447.8</ele>
        <time>2024-09-01T09:38:11Z</time>
      </trkpt>
      <trkpt lat="47.11161" lon="6.00361">
        <ele>447.8</ele>
        <time>2024-09-01T09:38:12Z</time>
      </trkpt>
      <trkpt lat="47.11163" lon="6.00359">
        <ele>448</ele>
        <time>2024-09-01T09:38:13Z</time>
      </trkpt>
      <trkpt lat="47.11165" lon="6.00357">
        <ele>448.2</ele>
        <time>2024-09-01T09:38:14Z</time>
      </trkpt>
      <trkpt lat="47.11167" lon="6.00354">
        <ele>448.4</ele>
        <time>2024-09-01T09:38:15Z</time>
      </trkpt>
      <trkpt lat="47.1117" lon="6.00352">
        <ele>448.4</ele>
        <time>2024-09-01T09:38:16Z</time>
      </trkpt>
      <trkpt lat="47.11172" lon="6.0035">
        <ele>448.6</ele>
        <time>2024-09-01T09:38:17Z</time>
      </trkpt>
      <trkpt lat="47.11175" lon="6.00348">
        <ele>448.8</ele>
        <time>2024-09-01T09:38:18Z</time>
      </trkpt>
      <trkpt lat="47.11177" lon="6.00346">
        <ele>448.8</ele>
        <time>2024-09-01T09:38:19Z</time>
      </trkpt>
      <trkpt lat="47.11179" lon="6.00344">
        <ele>449</ele>
        <time>2024-09-01T09:38:20Z</time>
      </trkpt>
      <trkpt lat="47.11181" lon="6.00341">
        <ele>449.2</ele>
        <time>2024-09-01T09:38:21Z</time>
      </trkpt>
      <trkpt lat="47.11183" lon="6.00339">
        <ele>449.2</ele>
        <time>2024-09-01T09:38:22Z</time>
      </trkpt>
      <trkpt lat="47.11185" lon="6.00337">
        <ele>449.6</ele>
        <time>2024-09-01T09:38:23Z</time>
      </trkpt>
      <trkpt lat="47.11188" lon="6.00335">
        <ele>449.6</ele>
        <time>2024-09-01T09:38:24Z</time>
      </trkpt>
      <trkpt lat="47.1119" lon="6.00334">
        <ele>449.8</ele>
        <time>2024-09-01T09:38:25Z</time>
      </trkpt>
      <trkpt lat="47.11192" lon="6.00333">
        <ele>450</ele>
        <time>2024-09-01T09:38:26Z</time>
      </trkpt>
      <trkpt lat="47.11195" lon="6.00332">
        <ele>450</ele>
        <time>2024-09-01T09:38:27Z</time>
      </trkpt>
      <trkpt lat="47.11197" lon="6.00332">
        <ele>450.2</ele>
        <time>2024-09-01T09:38:28Z</time>
      </trkpt>
      <trkpt lat="47.112" lon="6.00331">
        <ele>450.4</ele>
        <time>2024-09-01T09:38:29Z</time>
      </trkpt>
      <trkpt lat="47.11203" lon="6.0033">
        <ele>450.6</ele>
        <time>2024-09-01T09:38:30Z</time>
      </trkpt>
      <trkpt lat="47.11205" lon="6.00329">
        <ele>450.6</ele>
        <time>2024-09-01T09:38:31Z</time>
      </trkpt>
      <trkpt lat="47.11208" lon="6.00327">
        <ele>450.8</ele>
        <time>2024-09-01T09:38:32Z</time>
      </trkpt>
      <trkpt lat="47.1121" lon="6.00326">
        <ele>450.6</ele>
        <time>2024-09-01T09:38:33Z</time>
      </trkpt>
      <trkpt lat="47.11212" lon="6.00325">
        <ele>451</ele>
        <time>2024-09-01T09:38:34Z</time>
      </trkpt>
      <trkpt lat="47.11214" lon="6.00324">
        <ele>451</ele>
        <time>2024-09-01T09:38:35Z</time>
      </trkpt>
      <trkpt lat="47.11216" lon="6.00323">
        <ele>451</ele>
        <time>2024-09-01T09:38:36Z</time>
      </trkpt>
      <trkpt lat="47.11217" lon="6.00322">
        <ele>451</ele>
        <time>2024-09-01T09:38:37Z</time>
      </trkpt>
      <trkpt lat="47.1122" lon="6.0032">
        <ele>451</ele>
        <time>2024-09-01T09:38:38Z</time>
      </trkpt>
      <trkpt lat="47.11222" lon="6.00318">
        <ele>451.4</ele>
        <time>2024-09-01T09:38:39Z</time>
      </trkpt>
      <trkpt lat="47.11225" lon="6.00316">
        <ele>451.6</ele>
        <time>2024-09-01T09:38:40Z</time>
      </trkpt>
      <trkpt lat="47.11227" lon="6.00315">
        <ele>451.4</ele>
        <time>2024-09-01T09:38:41Z</time>
      </trkpt>
      <trkpt lat="47.1123" lon="6.00313">
        <ele>451.6</ele>
        <time>2024-09-01T09:38:42Z</time>
      </trkpt>
      <trkpt lat="47.11232" lon="6.00311">
        <ele>451.8</ele>
        <time>2024-09-01T09:38:43Z</time>
      </trkpt>
      <trkpt lat="47.11236" lon="6.0031">
        <ele>452</ele>
        <time>2024-09-01T09:38:44Z</time>
      </trkpt>
      <trkpt lat="47.11239" lon="6.00309">
        <ele>452.2</ele>
        <time>2024-09-01T09:38:45Z</time>
      </trkpt>
      <trkpt lat="47.11242" lon="6.00308">
        <ele>452.4</ele>
        <time>2024-09-01T09:38:46Z</time>
      </trkpt>
      <trkpt lat="47.11245" lon="6.00306">
        <ele>452.6</ele>
        <time>2024-09-01T09:38:47Z</time>
      </trkpt>
      <trkpt lat="47.11248" lon="6.00305">
        <ele>452.8</ele>
        <time>2024-09-01T09:38:48Z</time>
      </trkpt>
      <trkpt lat="47.1125" lon="6.00303">
        <ele>452.8</ele>
        <time>2024-09-01T09:38:49Z</time>
      </trkpt>
      <trkpt lat="47.11253" lon="6.00302">
        <ele>452.8</ele>
        <time>2024-09-01T09:38:50Z</time>
      </trkpt>
      <trkpt lat="47.11255" lon="6.003">
        <ele>452.8</ele>
        <time>2024-09-01T09:38:51Z</time>
      </trkpt>
      <trkpt lat="47.11258" lon="6.00299">
        <ele>453.2</ele>
        <time>2024-09-01T09:38:52Z</time>
      </trkpt>
      <trkpt lat="47.11261" lon="6.00297">
        <ele>453.2</ele>
        <time>2024-09-01T09:38:53Z</time>
      </trkpt>
      <trkpt lat="47.11263" lon="6.00296">
        <ele>453.4</ele>
        <time>2024-09-01T09:38:54Z</time>
      </trkpt>
      <trkpt lat="47.11266" lon="6.00295">
        <ele>453.4</ele>
        <time>2024-09-01T09:38:55Z</time>
      </trkpt>
      <trkpt lat="47.11268" lon="6.00294">
        <ele>453.6</ele>
        <time>2024-09-01T09:38:56Z</time>
      </trkpt>
      <trkpt lat="47.11271" lon="6.00293">
        <ele>453.8</ele>
        <time>2024-09-01T09:38:57Z</time>
      </trkpt>
      <trkpt lat="47.11273" lon="6.00291">
        <ele>453.6</ele>
        <time>2024-09-01T09:38:58Z</time>
      </trkpt>
      <trkpt lat="47.11276" lon="6.0029">
        <ele>453.8</ele>
        <time>2024-09-01T09:38:59Z</time>
      </trkpt>
      <trkpt lat="47.11279" lon="6.00289">
        <ele>453.8</ele>
        <time>2024-09-01T09:39:00Z</time>
      </trkpt>
      <trkpt lat="47.11282" lon="6.00287">
        <ele>453.8</ele>
        <time>2024-09-01T09:39:01Z</time>
      </trkpt>
      <trkpt lat="47.11285" lon="6.00286">
        <ele>453.8</ele>
        <time>2024-09-01T09:39:02Z</time>
      </trkpt>
      <trkpt lat="47.11287" lon="6.00285">
        <ele>454</ele>
        <time>2024-09-01T09:39:03Z</time>
      </trkpt>
      <trkpt lat="47.1129" lon="6.00284">
        <ele>454</ele>
        <time>2024-09-01T09:39:04Z</time>
      </trkpt>
      <trkpt lat="47.11293" lon="6.00282">
        <ele>454</ele>
        <time>2024-09-01T09:39:05Z</time>
      </trkpt>
      <trkpt lat="47.11295" lon="6.00281">
        <ele>454.2</ele>
        <time>2024-09-01T09:39:06Z</time>
      </trkpt>
      <trkpt lat="47.11298" lon="6.0028">
        <ele>454.2</ele>
        <time>2024-09-01T09:39:07Z</time>
      </trkpt>
      <trkpt lat="47.11301" lon="6.00279">
        <ele>454.2</ele>
        <time>2024-09-01T09:39:08Z</time>
      </trkpt>
      <trkpt lat="47.11303" lon="6.00279">
        <ele>454.2</ele>
        <time>2024-09-01T09:39:09Z</time>
      </trkpt>
      <trkpt lat="47.11306" lon="6.0028">
        <ele>454.4</ele>
        <time>2024-09-01T09:39:10Z</time>
      </trkpt>
      <trkpt lat="47.11308" lon="6.00281">
        <ele>454.4</ele>
        <time>2024-09-01T09:39:11Z</time>
      </trkpt>
      <trkpt lat="47.11311" lon="6.00282">
        <ele>454.6</ele>
        <time>2024-09-01T09:39:12Z</time>
      </trkpt>
      <trkpt lat="47.11313" lon="6.00285">
        <ele>454.6</ele>
        <time>2024-09-01T09:39:13Z</time>
      </trkpt>
      <trkpt lat="47.11315" lon="6.00287">
        <ele>454.4</ele>
        <time>2024-09-01T09:39:14Z</time>
      </trkpt>
      <trkpt lat="47.11317" lon="6.0029">
        <ele>454.4</ele>
        <time>2024-09-01T09:39:15Z</time>
      </trkpt>
      <trkpt lat="47.11318" lon="6.00294">
        <ele>454.6</ele>
        <time>2024-09-01T09:39:16Z</time>
      </trkpt>
      <trkpt lat="47.11319" lon="6.00297">
        <ele>454.6</ele>
        <time>2024-09-01T09:39:17Z</time>
      </trkpt>
      <trkpt lat="47.11321" lon="6.00299">
        <ele>454.6</ele>
        <time>2024-09-01T09:39:18Z</time>
      </trkpt>
      <trkpt lat="47.11322" lon="6.00301">
        <ele>454.6</ele>
        <time>2024-09-01T09:39:19Z</time>
      </trkpt>
      <trkpt lat="47.11325" lon="6.00301">
        <ele>454.4</ele>
        <time>2024-09-01T09:39:20Z</time>
      </trkpt>
      <trkpt lat="47.11327" lon="6.00302">
        <ele>454.6</ele>
        <time>2024-09-01T09:39:21Z</time>
      </trkpt>
      <trkpt lat="47.1133" lon="6.00304">
        <ele>454.6</ele>
        <time>2024-09-01T09:39:22Z</time>
      </trkpt>
      <trkpt lat="47.11333" lon="6.00306">
        <ele>454.6</ele>
        <time>2024-09-01T09:39:23Z</time>
      </trkpt>
      <trkpt lat="47.11336" lon="6.00308">
        <ele>454.6</ele>
        <time>2024-09-01T09:39:24Z</time>
      </trkpt>
      <trkpt lat="47.11339" lon="6.00309">
        <ele>454.8</ele>
        <time>2024-09-01T09:39:25Z</time>
      </trkpt>
      <trkpt lat="47.11342" lon="6.00309">
        <ele>454.8</ele>
        <time>2024-09-01T09:39:26Z</time>
      </trkpt>
      <trkpt lat="47.11345" lon="6.00307">
        <ele>454.8</ele>
        <time>2024-09-01T09:39:27Z</time>
      </trkpt>
      <trkpt lat="47.11348" lon="6.00306">
        <ele>454.8</ele>
        <time>2024-09-01T09:39:28Z</time>
      </trkpt>
      <trkpt lat="47.11351" lon="6.00305">
        <ele>454.8</ele>
        <time>2024-09-01T09:39:29Z</time>
      </trkpt>
      <trkpt lat="47.11354" lon="6.00303">
        <ele>454.8</ele>
        <time>2024-09-01T09:39:30Z</time>
      </trkpt>
      <trkpt lat="47.11361" lon="6.00301">
        <ele>454.8</ele>
        <time>2024-09-01T09:39:31Z</time>
      </trkpt>
      <trkpt lat="47.11361" lon="6.00301">
        <ele>454.8</ele>
        <time>2024-09-01T09:39:32Z</time>
      </trkpt>
      <trkpt lat="47.11365" lon="6.003">
        <ele>454.8</ele>
        <time>2024-09-01T09:39:33Z</time>
      </trkpt>
      <trkpt lat="47.1137" lon="6.00299">
        <ele>454.8</ele>
        <time>2024-09-01T09:39:34Z</time>
      </trkpt>
      <trkpt lat="47.11375" lon="6.00297">
        <ele>454.8</ele>
        <time>2024-09-01T09:39:35Z</time>
      </trkpt>
      <trkpt lat="47.1138" lon="6.00296">
        <ele>455</ele>
        <time>2024-09-01T09:39:36Z</time>
      </trkpt>
      <trkpt lat="47.11384" lon="6.00294">
        <ele>454.8</ele>
        <time>2024-09-01T09:39:37Z</time>
      </trkpt>
      <trkpt lat="47.1139" lon="6.00291">
        <ele>454.8</ele>
        <time>2024-09-01T09:39:38Z</time>
      </trkpt>
      <trkpt lat="47.11395" lon="6.00289">
        <ele>454.8</ele>
        <time>2024-09-01T09:39:39Z</time>
      </trkpt>
      <trkpt lat="47.11401" lon="6.00287">
        <ele>454.8</ele>
        <time>2024-09-01T09:39:40Z</time>
      </trkpt>
      <trkpt lat="47.11407" lon="6.00285">
        <ele>454.6</ele>
        <time>2024-09-01T09:39:41Z</time>
      </trkpt>
      <trkpt lat="47.11413" lon="6.00282">
        <ele>454.2</ele>
        <time>2024-09-01T09:39:42Z</time>
      </trkpt>
      <trkpt lat="47.11419" lon="6.0028">
        <ele>454</ele>
        <time>2024-09-01T09:39:43Z</time>
      </trkpt>
      <trkpt lat="47.11426" lon="6.00278">
        <ele>454</ele>
        <time>2024-09-01T09:39:44Z</time>
      </trkpt>
      <trkpt lat="47.11432" lon="6.00275">
        <ele>453.8</ele>
        <time>2024-09-01T09:39:45Z</time>
      </trkpt>
      <trkpt lat="47.11437" lon="6.00274">
        <ele>453.8</ele>
        <time>2024-09-01T09:39:46Z</time>
      </trkpt>
      <trkpt lat="47.11442" lon="6.00272">
        <ele>453.6</ele>
        <time>2024-09-01T09:39:47Z</time>
      </trkpt>
      <trkpt lat="47.11447" lon="6.0027">
        <ele>453.2</ele>
        <time>2024-09-01T09:39:48Z</time>
      </trkpt>
      <trkpt lat="47.11452" lon="6.00268">
        <ele>452.8</ele>
        <time>2024-09-01T09:39:49Z</time>
      </trkpt>
      <trkpt lat="47.11458" lon="6.00266">
        <ele>452.4</ele>
        <time>2024-09-01T09:39:50Z</time>
      </trkpt>
      <trkpt lat="47.11463" lon="6.00263">
        <ele>452.2</ele>
        <time>2024-09-01T09:39:51Z</time>
      </trkpt>
      <trkpt lat="47.11469" lon="6.00262">
        <ele>452.2</ele>
        <time>2024-09-01T09:39:52Z</time>
      </trkpt>
      <trkpt lat="47.11476" lon="6.0026">
        <ele>452</ele>
        <time>2024-09-01T09:39:53Z</time>
      </trkpt>
      <trkpt lat="47.11482" lon="6.00257">
        <ele>451.8</ele>
        <time>2024-09-01T09:39:54Z</time>
      </trkpt>
      <trkpt lat="47.11488" lon="6.00255">
        <ele>451.8</ele>
        <time>2024-09-01T09:39:55Z</time>
      </trkpt>
      <trkpt lat="47.11493" lon="6.00253">
        <ele>451.8</ele>
        <time>2024-09-01T09:39:56Z</time>
      </trkpt>
      <trkpt lat="47.11498" lon="6.00251">
        <ele>451.8</ele>
        <time>2024-09-01T09:39:57Z</time>
      </trkpt>
      <trkpt lat="47.11502" lon="6.00248">
        <ele>451.8</ele>
        <time>2024-09-01T09:39:58Z</time>
      </trkpt>
      <trkpt lat="47.11505" lon="6.00244">
        <ele>452</ele>
        <time>2024-09-01T09:39:59Z</time>
      </trkpt>
      <trkpt lat="47.11509" lon="6.00241">
        <ele>451.8</ele>
        <time>2024-09-01T09:40:00Z</time>
      </trkpt>
      <trkpt lat="47.11514" lon="6.00237">
        <ele>451.6</ele>
        <time>2024-09-01T09:40:01Z</time>
      </trkpt>
      <trkpt lat="47.11519" lon="6.00234">
        <ele>451.6</ele>
        <time>2024-09-01T09:40:02Z</time>
      </trkpt>
      <trkpt lat="47.11523" lon="6.00232">
        <ele>451.6</ele>
        <time>2024-09-01T09:40:03Z</time>
      </trkpt>
      <trkpt lat="47.11531" lon="6.00229">
        <ele>451.6</ele>
        <time>2024-09-01T09:40:04Z</time>
      </trkpt>
      <trkpt lat="47.11531" lon="6.00229">
        <ele>451.6</ele>
        <time>2024-09-01T09:40:05Z</time>
      </trkpt>
      <trkpt lat="47.11537" lon="6.00224">
        <ele>451.6</ele>
        <time>2024-09-01T09:40:06Z</time>
      </trkpt>
      <trkpt lat="47.11541" lon="6.00222">
        <ele>451.4</ele>
        <time>2024-09-01T09:40:07Z</time>
      </trkpt>
      <trkpt lat="47.11541" lon="6.00222">
        <ele>451.6</ele>
        <time>2024-09-01T09:40:08Z</time>
      </trkpt>
      <trkpt lat="47.11544" lon="6.0022">
        <ele>451.6</ele>
        <time>2024-09-01T09:40:09Z</time>
      </trkpt>
      <trkpt lat="47.11548" lon="6.00216">
        <ele>451.8</ele>
        <time>2024-09-01T09:40:10Z</time>
      </trkpt>
      <trkpt lat="47.11553" lon="6.00213">
        <ele>451.6</ele>
        <time>2024-09-01T09:40:11Z</time>
      </trkpt>
      <trkpt lat="47.11556" lon="6.00211">
        <ele>451.6</ele>
        <time>2024-09-01T09:40:12Z</time>
      </trkpt>
      <trkpt lat="47.11559" lon="6.00209">
        <ele>451.6</ele>
        <time>2024-09-01T09:40:13Z</time>
      </trkpt>
      <trkpt lat="47.11562" lon="6.00208">
        <ele>451.8</ele>
        <time>2024-09-01T09:40:14Z</time>
      </trkpt>
      <trkpt lat="47.11566" lon="6.00206">
        <ele>451.8</ele>
        <time>2024-09-01T09:40:15Z</time>
      </trkpt>
      <trkpt lat="47.11569" lon="6.00203">
        <ele>452</ele>
        <time>2024-09-01T09:40:16Z</time>
      </trkpt>
      <trkpt lat="47.11572" lon="6.00201">
        <ele>452.2</ele>
        <time>2024-09-01T09:40:17Z</time>
      </trkpt>
      <trkpt lat="47.11575" lon="6.00199">
        <ele>452.2</ele>
        <time>2024-09-01T09:40:18Z</time>
      </trkpt>
      <trkpt lat="47.11579" lon="6.00198">
        <ele>452.6</ele>
        <time>2024-09-01T09:40:19Z</time>
      </trkpt>
      <trkpt lat="47.11582" lon="6.00196">
        <ele>452.6</ele>
        <time>2024-09-01T09:40:20Z</time>
      </trkpt>
      <trkpt lat="47.11586" lon="6.00194">
        <ele>452.8</ele>
        <time>2024-09-01T09:40:21Z</time>
      </trkpt>
      <trkpt lat="47.1159" lon="6.00194">
        <ele>452.8</ele>
        <time>2024-09-01T09:40:22Z</time>
      </trkpt>
      <trkpt lat="47.11593" lon="6.00194">
        <ele>453.2</ele>
        <time>2024-09-01T09:40:23Z</time>
      </trkpt>
      <trkpt lat="47.11597" lon="6.00195">
        <ele>453.2</ele>
        <time>2024-09-01T09:40:24Z</time>
      </trkpt>
      <trkpt lat="47.11601" lon="6.00195">
        <ele>453.4</ele>
        <time>2024-09-01T09:40:25Z</time>
      </trkpt>
      <trkpt lat="47.11604" lon="6.00195">
        <ele>453.6</ele>
        <time>2024-09-01T09:40:26Z</time>
      </trkpt>
      <trkpt lat="47.11608" lon="6.00194">
        <ele>453.6</ele>
        <time>2024-09-01T09:40:27Z</time>
      </trkpt>
      <trkpt lat="47.11612" lon="6.00193">
        <ele>453.8</ele>
        <time>2024-09-01T09:40:28Z</time>
      </trkpt>
      <trkpt lat="47.11615" lon="6.00192">
        <ele>454.2</ele>
        <time>2024-09-01T09:40:29Z</time>
      </trkpt>
      <trkpt lat="47.11619" lon="6.00191">
        <ele>454.6</ele>
        <time>2024-09-01T09:40:30Z</time>
      </trkpt>
      <trkpt lat="47.11622" lon="6.0019">
        <ele>455</ele>
        <time>2024-09-01T09:40:31Z</time>
      </trkpt>
      <trkpt lat="47.11624" lon="6.00188">
        <ele>455.4</ele>
        <time>2024-09-01T09:40:32Z</time>
      </trkpt>
      <trkpt lat="47.11628" lon="6.00187">
        <ele>455.8</ele>
        <time>2024-09-01T09:40:33Z</time>
      </trkpt>
      <trkpt lat="47.11631" lon="6.00186">
        <ele>456</ele>
        <time>2024-09-01T09:40:34Z</time>
      </trkpt>
      <trkpt lat="47.11634" lon="6.00186">
        <ele>456.2</ele>
        <time>2024-09-01T09:40:35Z</time>
      </trkpt>
      <trkpt lat="47.11638" lon="6.00186">
        <ele>456.4</ele>
        <time>2024-09-01T09:40:36Z</time>
      </trkpt>
      <trkpt lat="47.11641" lon="6.00187">
        <ele>456.4</ele>
        <time>2024-09-01T09:40:37Z</time>
      </trkpt>
      <trkpt lat="47.11645" lon="6.00189">
        <ele>456.4</ele>
        <time>2024-09-01T09:40:38Z</time>
      </trkpt>
      <trkpt lat="47.11649" lon="6.00191">
        <ele>456.6</ele>
        <time>2024-09-01T09:40:39Z</time>
      </trkpt>
      <trkpt lat="47.11653" lon="6.00193">
        <ele>456.6</ele>
        <time>2024-09-01T09:40:40Z</time>
      </trkpt>
      <trkpt lat="47.11657" lon="6.00195">
        <ele>456.6</ele>
        <time>2024-09-01T09:40:41Z</time>
      </trkpt>
      <trkpt lat="47.11662" lon="6.00197">
        <ele>456.6</ele>
        <time>2024-09-01T09:40:42Z</time>
      </trkpt>
      <trkpt lat="47.11662" lon="6.00197">
        <ele>456.6</ele>
        <time>2024-09-01T09:40:43Z</time>
      </trkpt>
      <trkpt lat="47.11665" lon="6.00197">
        <ele>456.6</ele>
        <time>2024-09-01T09:40:44Z</time>
      </trkpt>
      <trkpt lat="47.11667" lon="6.00197">
        <ele>456.8</ele>
        <time>2024-09-01T09:40:45Z</time>
      </trkpt>
      <trkpt lat="47.11669" lon="6.00197">
        <ele>456.8</ele>
        <time>2024-09-01T09:40:46Z</time>
      </trkpt>
      <trkpt lat="47.11672" lon="6.00195">
        <ele>456.8</ele>
        <time>2024-09-01T09:40:47Z</time>
      </trkpt>
      <trkpt lat="47.11675" lon="6.00194">
        <ele>456.8</ele>
        <time>2024-09-01T09:40:48Z</time>
      </trkpt>
      <trkpt lat="47.11678" lon="6.00192">
        <ele>456.8</ele>
        <time>2024-09-01T09:40:49Z</time>
      </trkpt>
      <trkpt lat="47.11681" lon="6.00191">
        <ele>456.8</ele>
        <time>2024-09-01T09:40:50Z</time>
      </trkpt>
      <trkpt lat="47.11684" lon="6.0019">
        <ele>456.8</ele>
        <time>2024-09-01T09:40:51Z</time>
      </trkpt>
      <trkpt lat="47.11687" lon="6.00188">
        <ele>456.8</ele>
        <time>2024-09-01T09:40:52Z</time>
      </trkpt>
      <trkpt lat="47.11691" lon="6.00187">
        <ele>457</ele>
        <time>2024-09-01T09:40:53Z</time>
      </trkpt>
      <trkpt lat="47.11695" lon="6.00185">
        <ele>457</ele>
        <time>2024-09-01T09:40:54Z</time>
      </trkpt>
      <trkpt lat="47.11699" lon="6.00184">
        <ele>457</ele>
        <time>2024-09-01T09:40:55Z</time>
      </trkpt>
      <trkpt lat="47.11705" lon="6.00182">
        <ele>457</ele>
        <time>2024-09-01T09:40:56Z</time>
      </trkpt>
      <trkpt lat="47.11709" lon="6.00179">
        <ele>457</ele>
        <time>2024-09-01T09:40:57Z</time>
      </trkpt>
      <trkpt lat="47.11713" lon="6.00177">
        <ele>457.2</ele>
        <time>2024-09-01T09:40:58Z</time>
      </trkpt>
      <trkpt lat="47.11716" lon="6.00175">
        <ele>457.2</ele>
        <time>2024-09-01T09:40:59Z</time>
      </trkpt>
      <trkpt lat="47.11719" lon="6.00173">
        <ele>457.2</ele>
        <time>2024-09-01T09:41:00Z</time>
      </trkpt>
      <trkpt lat="47.11723" lon="6.00171">
        <ele>457.2</ele>
        <time>2024-09-01T09:41:01Z</time>
      </trkpt>
      <trkpt lat="47.11727" lon="6.00169">
        <ele>457.2</ele>
        <time>2024-09-01T09:41:02Z</time>
      </trkpt>
      <trkpt lat="47.1173" lon="6.00166">
        <ele>457.2</ele>
        <time>2024-09-01T09:41:03Z</time>
      </trkpt>
      <trkpt lat="47.11733" lon="6.00162">
        <ele>457.4</ele>
        <time>2024-09-01T09:41:04Z</time>
      </trkpt>
      <trkpt lat="47.11737" lon="6.00158">
        <ele>457.2</ele>
        <time>2024-09-01T09:41:05Z</time>
      </trkpt>
      <trkpt lat="47.1174" lon="6.00154">
        <ele>457.2</ele>
        <time>2024-09-01T09:41:06Z</time>
      </trkpt>
      <trkpt lat="47.11743" lon="6.0015">
        <ele>457.4</ele>
        <time>2024-09-01T09:41:07Z</time>
      </trkpt>
      <trkpt lat="47.11745" lon="6.00145">
        <ele>457.4</ele>
        <time>2024-09-01T09:41:08Z</time>
      </trkpt>
      <trkpt lat="47.11747" lon="6.00142">
        <ele>457.4</ele>
        <time>2024-09-01T09:41:09Z</time>
      </trkpt>
      <trkpt lat="47.11749" lon="6.00138">
        <ele>457.6</ele>
        <time>2024-09-01T09:41:10Z</time>
      </trkpt>
      <trkpt lat="47.11751" lon="6.00135">
        <ele>457.8</ele>
        <time>2024-09-01T09:41:11Z</time>
      </trkpt>
      <trkpt lat="47.11752" lon="6.00131">
        <ele>458</ele>
        <time>2024-09-01T09:41:12Z</time>
      </trkpt>
      <trkpt lat="47.11754" lon="6.00127">
        <ele>458</ele>
        <time>2024-09-01T09:41:13Z</time>
      </trkpt>
      <trkpt lat="47.11757" lon="6.00124">
        <ele>458.2</ele>
        <time>2024-09-01T09:41:14Z</time>
      </trkpt>
      <trkpt lat="47.11759" lon="6.0012">
        <ele>458.4</ele>
        <time>2024-09-01T09:41:15Z</time>
      </trkpt>
      <trkpt lat="47.11761" lon="6.00117">
        <ele>458.4</ele>
        <time>2024-09-01T09:41:16Z</time>
      </trkpt>
      <trkpt lat="47.11763" lon="6.00113">
        <ele>458.4</ele>
        <time>2024-09-01T09:41:17Z</time>
      </trkpt>
      <trkpt lat="47.11765" lon="6.0011">
        <ele>458.6</ele>
        <time>2024-09-01T09:41:18Z</time>
      </trkpt>
      <trkpt lat="47.11767" lon="6.00107">
        <ele>458.8</ele>
        <time>2024-09-01T09:41:19Z</time>
      </trkpt>
      <trkpt lat="47.11769" lon="6.00103">
        <ele>458.8</ele>
        <time>2024-09-01T09:41:20Z</time>
      </trkpt>
      <trkpt lat="47.11771" lon="6.001">
        <ele>458.8</ele>
        <time>2024-09-01T09:41:21Z</time>
      </trkpt>
      <trkpt lat="47.11773" lon="6.00097">
        <ele>459</ele>
        <time>2024-09-01T09:41:22Z</time>
      </trkpt>
      <trkpt lat="47.11776" lon="6.00094">
        <ele>459.2</ele>
        <time>2024-09-01T09:41:23Z</time>
      </trkpt>
      <trkpt lat="47.11777" lon="6.00091">
        <ele>459.4</ele>
        <time>2024-09-01T09:41:24Z</time>
      </trkpt>
      <trkpt lat="47.11779" lon="6.00088">
        <ele>459.6</ele>
        <time>2024-09-01T09:41:25Z</time>
      </trkpt>
      <trkpt lat="47.1178" lon="6.00083">
        <ele>459.6</ele>
        <time>2024-09-01T09:41:26Z</time>
      </trkpt>
      <trkpt lat="47.11782" lon="6.00079">
        <ele>459.6</ele>
        <time>2024-09-01T09:41:27Z</time>
      </trkpt>
      <trkpt lat="47.11784" lon="6.00076">
        <ele>459.8</ele>
        <time>2024-09-01T09:41:28Z</time>
      </trkpt>
      <trkpt lat="47.11786" lon="6.00072">
        <ele>460.2</ele>
        <time>2024-09-01T09:41:29Z</time>
      </trkpt>
      <trkpt lat="47.11788" lon="6.00069">
        <ele>460.4</ele>
        <time>2024-09-01T09:41:30Z</time>
      </trkpt>
      <trkpt lat="47.1179" lon="6.00065">
        <ele>460.4</ele>
        <time>2024-09-01T09:41:31Z</time>
      </trkpt>
      <trkpt lat="47.11792" lon="6.00062">
        <ele>460.6</ele>
        <time>2024-09-01T09:41:32Z</time>
      </trkpt>
      <trkpt lat="47.11794" lon="6.0006">
        <ele>460.8</ele>
        <time>2024-09-01T09:41:33Z</time>
      </trkpt>
      <trkpt lat="47.11796" lon="6.00057">
        <ele>461</ele>
        <time>2024-09-01T09:41:34Z</time>
      </trkpt>
      <trkpt lat="47.11798" lon="6.00055">
        <ele>461.2</ele>
        <time>2024-09-01T09:41:35Z</time>
      </trkpt>
      <trkpt lat="47.11801" lon="6.00054">
        <ele>461</ele>
        <time>2024-09-01T09:41:36Z</time>
      </trkpt>
      <trkpt lat="47.11803" lon="6.00053">
        <ele>461.2</ele>
        <time>2024-09-01T09:41:37Z</time>
      </trkpt>
      <trkpt lat="47.11805" lon="6.00052">
        <ele>461.4</ele>
        <time>2024-09-01T09:41:38Z</time>
      </trkpt>
      <trkpt lat="47.11805" lon="6.0005">
        <ele>461.4</ele>
        <time>2024-09-01T09:41:39Z</time>
      </trkpt>
      <trkpt lat="47.11806" lon="6.00049">
        <ele>461.4</ele>
        <time>2024-09-01T09:41:40Z</time>
      </trkpt>
      <trkpt lat="47.11807" lon="6.00045">
        <ele>461.4</ele>
        <time>2024-09-01T09:41:41Z</time>
      </trkpt>
      <trkpt lat="47.11808" lon="6.00042">
        <ele>461.6</ele>
        <time>2024-09-01T09:41:42Z</time>
      </trkpt>
      <trkpt lat="47.1181" lon="6.00038">
        <ele>461.4</ele>
        <time>2024-09-01T09:41:43Z</time>
      </trkpt>
      <trkpt lat="47.11812" lon="6.00035">
        <ele>461.6</ele>
        <time>2024-09-01T09:41:44Z</time>
      </trkpt>
      <trkpt lat="47.11815" lon="6.00032">
        <ele>461.6</ele>
        <time>2024-09-01T09:41:45Z</time>
      </trkpt>
      <trkpt lat="47.11818" lon="6.00028">
        <ele>461.4</ele>
        <time>2024-09-01T09:41:46Z</time>
      </trkpt>
      <trkpt lat="47.1182" lon="6.00026">
        <ele>461.6</ele>
        <time>2024-09-01T09:41:47Z</time>
      </trkpt>
      <trkpt lat="47.11823" lon="6.00023">
        <ele>461.6</ele>
        <time>2024-09-01T09:41:48Z</time>
      </trkpt>
      <trkpt lat="47.11825" lon="6.0002">
        <ele>461.4</ele>
        <time>2024-09-01T09:41:49Z</time>
      </trkpt>
      <trkpt lat="47.11828" lon="6.00017">
        <ele>461.4</ele>
        <time>2024-09-01T09:41:50Z</time>
      </trkpt>
      <trkpt lat="47.1183" lon="6.00015">
        <ele>461.4</ele>
        <time>2024-09-01T09:41:51Z</time>
      </trkpt>
      <trkpt lat="47.11833" lon="6.00012">
        <ele>461</ele>
        <time>2024-09-01T09:41:52Z</time>
      </trkpt>
      <trkpt lat="47.11836" lon="6.00009">
        <ele>461</ele>
        <time>2024-09-01T09:41:53Z</time>
      </trkpt>
      <trkpt lat="47.11839" lon="6.00006">
        <ele>461.2</ele>
        <time>2024-09-01T09:41:54Z</time>
      </trkpt>
      <trkpt lat="47.11842" lon="6.00002">
        <ele>461</ele>
        <time>2024-09-01T09:41:55Z</time>
      </trkpt>
      <trkpt lat="47.11843" lon="5.99997">
        <ele>461.2</ele>
        <time>2024-09-01T09:41:56Z</time>
      </trkpt>
      <trkpt lat="47.11843" lon="5.99992">
        <ele>461.2</ele>
        <time>2024-09-01T09:41:57Z</time>
      </trkpt>
      <trkpt lat="47.11844" lon="5.99988">
        <ele>461.2</ele>
        <time>2024-09-01T09:41:58Z</time>
      </trkpt>
      <trkpt lat="47.11846" lon="5.99984">
        <ele>461.2</ele>
        <time>2024-09-01T09:41:59Z</time>
      </trkpt>
      <trkpt lat="47.11849" lon="5.99981">
        <ele>461.2</ele>
        <time>2024-09-01T09:42:00Z</time>
      </trkpt>
      <trkpt lat="47.1185" lon="5.99979">
        <ele>461.2</ele>
        <time>2024-09-01T09:42:01Z</time>
      </trkpt>
      <trkpt lat="47.11853" lon="5.99976">
        <ele>461.2</ele>
        <time>2024-09-01T09:42:02Z</time>
      </trkpt>
      <trkpt lat="47.11856" lon="5.99975">
        <ele>461.4</ele>
        <time>2024-09-01T09:42:03Z</time>
      </trkpt>
      <trkpt lat="47.11858" lon="5.99973">
        <ele>461.6</ele>
        <time>2024-09-01T09:42:04Z</time>
      </trkpt>
      <trkpt lat="47.11861" lon="5.99972">
        <ele>461.8</ele>
        <time>2024-09-01T09:42:05Z</time>
      </trkpt>
      <trkpt lat="47.11863" lon="5.99969">
        <ele>461.8</ele>
        <time>2024-09-01T09:42:06Z</time>
      </trkpt>
      <trkpt lat="47.11865" lon="5.99966">
        <ele>462.2</ele>
        <time>2024-09-01T09:42:07Z</time>
      </trkpt>
      <trkpt lat="47.11867" lon="5.99962">
        <ele>462.4</ele>
        <time>2024-09-01T09:42:08Z</time>
      </trkpt>
      <trkpt lat="47.11868" lon="5.99958">
        <ele>462.2</ele>
        <time>2024-09-01T09:42:09Z</time>
      </trkpt>
      <trkpt lat="47.1187" lon="5.99954">
        <ele>462.4</ele>
        <time>2024-09-01T09:42:10Z</time>
      </trkpt>
      <trkpt lat="47.11871" lon="5.99949">
        <ele>462.8</ele>
        <time>2024-09-01T09:42:11Z</time>
      </trkpt>
      <trkpt lat="47.11872" lon="5.99945">
        <ele>462.8</ele>
        <time>2024-09-01T09:42:12Z</time>
      </trkpt>
      <trkpt lat="47.11873" lon="5.99939">
        <ele>463.2</ele>
        <time>2024-09-01T09:42:13Z</time>
      </trkpt>
      <trkpt lat="47.11874" lon="5.99934">
        <ele>463</ele>
        <time>2024-09-01T09:42:14Z</time>
      </trkpt>
      <trkpt lat="47.11876" lon="5.99929">
        <ele>463.2</ele>
        <time>2024-09-01T09:42:15Z</time>
      </trkpt>
      <trkpt lat="47.11877" lon="5.99925">
        <ele>463.2</ele>
        <time>2024-09-01T09:42:16Z</time>
      </trkpt>
      <trkpt lat="47.11879" lon="5.9992">
        <ele>463.2</ele>
        <time>2024-09-01T09:42:17Z</time>
      </trkpt>
      <trkpt lat="47.1188" lon="5.99915">
        <ele>463</ele>
        <time>2024-09-01T09:42:18Z</time>
      </trkpt>
      <trkpt lat="47.11881" lon="5.99909">
        <ele>463</ele>
        <time>2024-09-01T09:42:19Z</time>
      </trkpt>
      <trkpt lat="47.11882" lon="5.99904">
        <ele>463</ele>
        <time>2024-09-01T09:42:20Z</time>
      </trkpt>
      <trkpt lat="47.11884" lon="5.99899">
        <ele>463</ele>
        <time>2024-09-01T09:42:21Z</time>
      </trkpt>
      <trkpt lat="47.11886" lon="5.99895">
        <ele>462.8</ele>
        <time>2024-09-01T09:42:22Z</time>
      </trkpt>
      <trkpt lat="47.1189" lon="5.99891">
        <ele>462.8</ele>
        <time>2024-09-01T09:42:23Z</time>
      </trkpt>
      <trkpt lat="47.11892" lon="5.99889">
        <ele>462.6</ele>
        <time>2024-09-01T09:42:24Z</time>
      </trkpt>
      <trkpt lat="47.11896" lon="5.99885">
        <ele>462.6</ele>
        <time>2024-09-01T09:42:25Z</time>
      </trkpt>
      <trkpt lat="47.11897" lon="5.99881">
        <ele>462.6</ele>
        <time>2024-09-01T09:42:26Z</time>
      </trkpt>
      <trkpt lat="47.11899" lon="5.99879">
        <ele>462.6</ele>
        <time>2024-09-01T09:42:27Z</time>
      </trkpt>
      <trkpt lat="47.11903" lon="5.99874">
        <ele>462.4</ele>
        <time>2024-09-01T09:42:28Z</time>
      </trkpt>
      <trkpt lat="47.11903" lon="5.99874">
        <ele>462.6</ele>
        <time>2024-09-01T09:42:29Z</time>
      </trkpt>
      <trkpt lat="47.11909" lon="5.99871">
        <ele>462.4</ele>
        <time>2024-09-01T09:42:30Z</time>
      </trkpt>
      <trkpt lat="47.11909" lon="5.99871">
        <ele>462.6</ele>
        <time>2024-09-01T09:42:31Z</time>
      </trkpt>
      <trkpt lat="47.11911" lon="5.99869">
        <ele>462.4</ele>
        <time>2024-09-01T09:42:32Z</time>
      </trkpt>
      <trkpt lat="47.11913" lon="5.99868">
        <ele>462.6</ele>
        <time>2024-09-01T09:42:33Z</time>
      </trkpt>
      <trkpt lat="47.11916" lon="5.99867">
        <ele>462.6</ele>
        <time>2024-09-01T09:42:34Z</time>
      </trkpt>
      <trkpt lat="47.11918" lon="5.99865">
        <ele>462.6</ele>
        <time>2024-09-01T09:42:35Z</time>
      </trkpt>
      <trkpt lat="47.1192" lon="5.99864">
        <ele>462.6</ele>
        <time>2024-09-01T09:42:36Z</time>
      </trkpt>
      <trkpt lat="47.11921" lon="5.99862">
        <ele>463</ele>
        <time>2024-09-01T09:42:37Z</time>
      </trkpt>
      <trkpt lat="47.11923" lon="5.9986">
        <ele>463.2</ele>
        <time>2024-09-01T09:42:38Z</time>
      </trkpt>
      <trkpt lat="47.11926" lon="5.99859">
        <ele>463.6</ele>
        <time>2024-09-01T09:42:39Z</time>
      </trkpt>
      <trkpt lat="47.11928" lon="5.99857">
        <ele>463.6</ele>
        <time>2024-09-01T09:42:40Z</time>
      </trkpt>
      <trkpt lat="47.1193" lon="5.99855">
        <ele>464</ele>
        <time>2024-09-01T09:42:41Z</time>
      </trkpt>
      <trkpt lat="47.11932" lon="5.99853">
        <ele>464.2</ele>
        <time>2024-09-01T09:42:42Z</time>
      </trkpt>
      <trkpt lat="47.11934" lon="5.99851">
        <ele>464.2</ele>
        <time>2024-09-01T09:42:43Z</time>
      </trkpt>
      <trkpt lat="47.11936" lon="5.99849">
        <ele>464.2</ele>
        <time>2024-09-01T09:42:44Z</time>
      </trkpt>
      <trkpt lat="47.11938" lon="5.99846">
        <ele>464.4</ele>
        <time>2024-09-01T09:42:45Z</time>
      </trkpt>
      <trkpt lat="47.11941" lon="5.99845">
        <ele>464.6</ele>
        <time>2024-09-01T09:42:46Z</time>
      </trkpt>
      <trkpt lat="47.11944" lon="5.99843">
        <ele>464.6</ele>
        <time>2024-09-01T09:42:47Z</time>
      </trkpt>
      <trkpt lat="47.11947" lon="5.99842">
        <ele>464.8</ele>
        <time>2024-09-01T09:42:48Z</time>
      </trkpt>
      <trkpt lat="47.11949" lon="5.99841">
        <ele>464.6</ele>
        <time>2024-09-01T09:42:49Z</time>
      </trkpt>
      <trkpt lat="47.11951" lon="5.99839">
        <ele>465</ele>
        <time>2024-09-01T09:42:50Z</time>
      </trkpt>
      <trkpt lat="47.11954" lon="5.99838">
        <ele>465.2</ele>
        <time>2024-09-01T09:42:51Z</time>
      </trkpt>
      <trkpt lat="47.11957" lon="5.99837">
        <ele>465.2</ele>
        <time>2024-09-01T09:42:52Z</time>
      </trkpt>
      <trkpt lat="47.11959" lon="5.99836">
        <ele>465.4</ele>
        <time>2024-09-01T09:42:53Z</time>
      </trkpt>
      <trkpt lat="47.11962" lon="5.99834">
        <ele>465.4</ele>
        <time>2024-09-01T09:42:54Z</time>
      </trkpt>
      <trkpt lat="47.11965" lon="5.99833">
        <ele>465.6</ele>
        <time>2024-09-01T09:42:55Z</time>
      </trkpt>
      <trkpt lat="47.11969" lon="5.99831">
        <ele>465.6</ele>
        <time>2024-09-01T09:42:56Z</time>
      </trkpt>
      <trkpt lat="47.11972" lon="5.99828">
        <ele>465.6</ele>
        <time>2024-09-01T09:42:57Z</time>
      </trkpt>
      <trkpt lat="47.11975" lon="5.99825">
        <ele>465.4</ele>
        <time>2024-09-01T09:42:58Z</time>
      </trkpt>
      <trkpt lat="47.11978" lon="5.99822">
        <ele>465.6</ele>
        <time>2024-09-01T09:42:59Z</time>
      </trkpt>
      <trkpt lat="47.11982" lon="5.99818">
        <ele>465.6</ele>
        <time>2024-09-01T09:43:00Z</time>
      </trkpt>
      <trkpt lat="47.11986" lon="5.99814">
        <ele>465.6</ele>
        <time>2024-09-01T09:43:01Z</time>
      </trkpt>
      <trkpt lat="47.11989" lon="5.99811">
        <ele>465.4</ele>
        <time>2024-09-01T09:43:02Z</time>
      </trkpt>
      <trkpt lat="47.11992" lon="5.99809">
        <ele>465.6</ele>
        <time>2024-09-01T09:43:03Z</time>
      </trkpt>
      <trkpt lat="47.11995" lon="5.99808">
        <ele>465.4</ele>
        <time>2024-09-01T09:43:04Z</time>
      </trkpt>
      <trkpt lat="47.11998" lon="5.99807">
        <ele>465.6</ele>
        <time>2024-09-01T09:43:05Z</time>
      </trkpt>
      <trkpt lat="47.12001" lon="5.99806">
        <ele>465.4</ele>
        <time>2024-09-01T09:43:06Z</time>
      </trkpt>
      <trkpt lat="47.12004" lon="5.99804">
        <ele>465.2</ele>
        <time>2024-09-01T09:43:07Z</time>
      </trkpt>
      <trkpt lat="47.12007" lon="5.99802">
        <ele>465</ele>
        <time>2024-09-01T09:43:08Z</time>
      </trkpt>
      <trkpt lat="47.12011" lon="5.998">
        <ele>465</ele>
        <time>2024-09-01T09:43:09Z</time>
      </trkpt>
      <trkpt lat="47.12015" lon="5.99798">
        <ele>465</ele>
        <time>2024-09-01T09:43:10Z</time>
      </trkpt>
      <trkpt lat="47.12019" lon="5.99796">
        <ele>464.8</ele>
        <time>2024-09-01T09:43:11Z</time>
      </trkpt>
      <trkpt lat="47.12023" lon="5.99794">
        <ele>464.8</ele>
        <time>2024-09-01T09:43:12Z</time>
      </trkpt>
      <trkpt lat="47.12026" lon="5.99793">
        <ele>465</ele>
        <time>2024-09-01T09:43:13Z</time>
      </trkpt>
      <trkpt lat="47.12029" lon="5.99791">
        <ele>464.6</ele>
        <time>2024-09-01T09:43:14Z</time>
      </trkpt>
      <trkpt lat="47.1203" lon="5.99788">
        <ele>464.8</ele>
        <time>2024-09-01T09:43:15Z</time>
      </trkpt>
      <trkpt lat="47.12032" lon="5.99785">
        <ele>464.6</ele>
        <time>2024-09-01T09:43:16Z</time>
      </trkpt>
      <trkpt lat="47.12034" lon="5.99782">
        <ele>464.6</ele>
        <time>2024-09-01T09:43:17Z</time>
      </trkpt>
      <trkpt lat="47.12037" lon="5.99779">
        <ele>464.4</ele>
        <time>2024-09-01T09:43:18Z</time>
      </trkpt>
      <trkpt lat="47.1204" lon="5.99776">
        <ele>464.4</ele>
        <time>2024-09-01T09:43:19Z</time>
      </trkpt>
      <trkpt lat="47.12043" lon="5.99771">
        <ele>464.4</ele>
        <time>2024-09-01T09:43:20Z</time>
      </trkpt>
      <trkpt lat="47.12045" lon="5.99766">
        <ele>464.2</ele>
        <time>2024-09-01T09:43:21Z</time>
      </trkpt>
      <trkpt lat="47.12047" lon="5.99761">
        <ele>464</ele>
        <time>2024-09-01T09:43:22Z</time>
      </trkpt>
      <trkpt lat="47.12049" lon="5.99755">
        <ele>464</ele>
        <time>2024-09-01T09:43:23Z</time>
      </trkpt>
      <trkpt lat="47.12051" lon="5.9975">
        <ele>464</ele>
        <time>2024-09-01T09:43:24Z</time>
      </trkpt>
      <trkpt lat="47.12054" lon="5.99746">
        <ele>463.8</ele>
        <time>2024-09-01T09:43:25Z</time>
      </trkpt>
      <trkpt lat="47.12058" lon="5.99742">
        <ele>463.8</ele>
        <time>2024-09-01T09:43:26Z</time>
      </trkpt>
      <trkpt lat="47.12062" lon="5.99737">
        <ele>463.6</ele>
        <time>2024-09-01T09:43:27Z</time>
      </trkpt>
      <trkpt lat="47.12066" lon="5.99733">
        <ele>463.6</ele>
        <time>2024-09-01T09:43:28Z</time>
      </trkpt>
      <trkpt lat="47.12069" lon="5.99728">
        <ele>463.4</ele>
        <time>2024-09-01T09:43:29Z</time>
      </trkpt>
      <trkpt lat="47.12072" lon="5.99723">
        <ele>463.4</ele>
        <time>2024-09-01T09:43:30Z</time>
      </trkpt>
      <trkpt lat="47.12076" lon="5.99719">
        <ele>463.4</ele>
        <time>2024-09-01T09:43:31Z</time>
      </trkpt>
      <trkpt lat="47.12079" lon="5.99714">
        <ele>463.4</ele>
        <time>2024-09-01T09:43:32Z</time>
      </trkpt>
      <trkpt lat="47.12082" lon="5.9971">
        <ele>463.4</ele>
        <time>2024-09-01T09:43:33Z</time>
      </trkpt>
      <trkpt lat="47.12085" lon="5.99706">
        <ele>463.4</ele>
        <time>2024-09-01T09:43:34Z</time>
      </trkpt>
      <trkpt lat="47.12088" lon="5.99702">
        <ele>463.4</ele>
        <time>2024-09-01T09:43:35Z</time>
      </trkpt>
      <trkpt lat="47.12092" lon="5.99698">
        <ele>463.4</ele>
        <time>2024-09-01T09:43:36Z</time>
      </trkpt>
      <trkpt lat="47.12094" lon="5.99693">
        <ele>463.4</ele>
        <time>2024-09-01T09:43:37Z</time>
      </trkpt>
      <trkpt lat="47.12098" lon="5.99689">
        <ele>463.6</ele>
        <time>2024-09-01T09:43:38Z</time>
      </trkpt>
      <trkpt lat="47.121" lon="5.99685">
        <ele>463.6</ele>
        <time>2024-09-01T09:43:39Z</time>
      </trkpt>
      <trkpt lat="47.12103" lon="5.99682">
        <ele>463.8</ele>
        <time>2024-09-01T09:43:40Z</time>
      </trkpt>
      <trkpt lat="47.12106" lon="5.99679">
        <ele>463.8</ele>
        <time>2024-09-01T09:43:41Z</time>
      </trkpt>
      <trkpt lat="47.12109" lon="5.99675">
        <ele>464</ele>
        <time>2024-09-01T09:43:42Z</time>
      </trkpt>
      <trkpt lat="47.12114" lon="5.99671">
        <ele>464</ele>
        <time>2024-09-01T09:43:43Z</time>
      </trkpt>
      <trkpt lat="47.12118" lon="5.99668">
        <ele>464</ele>
        <time>2024-09-01T09:43:44Z</time>
      </trkpt>
      <trkpt lat="47.12121" lon="5.99666">
        <ele>464</ele>
        <time>2024-09-01T09:43:45Z</time>
      </trkpt>
      <trkpt lat="47.12124" lon="5.99664">
        <ele>464.2</ele>
        <time>2024-09-01T09:43:46Z</time>
      </trkpt>
      <trkpt lat="47.12127" lon="5.99662">
        <ele>464.4</ele>
        <time>2024-09-01T09:43:47Z</time>
      </trkpt>
      <trkpt lat="47.1213" lon="5.9966">
        <ele>464.4</ele>
        <time>2024-09-01T09:43:48Z</time>
      </trkpt>
      <trkpt lat="47.12133" lon="5.99658">
        <ele>464.2</ele>
        <time>2024-09-01T09:43:49Z</time>
      </trkpt>
      <trkpt lat="47.12136" lon="5.99656">
        <ele>464.2</ele>
        <time>2024-09-01T09:43:50Z</time>
      </trkpt>
      <trkpt lat="47.12138" lon="5.99654">
        <ele>464.4</ele>
        <time>2024-09-01T09:43:51Z</time>
      </trkpt>
      <trkpt lat="47.12141" lon="5.99652">
        <ele>464.2</ele>
        <time>2024-09-01T09:43:52Z</time>
      </trkpt>
      <trkpt lat="47.12145" lon="5.9965">
        <ele>464.2</ele>
        <time>2024-09-01T09:43:53Z</time>
      </trkpt>
      <trkpt lat="47.12148" lon="5.99649">
        <ele>464.2</ele>
        <time>2024-09-01T09:43:54Z</time>
      </trkpt>
      <trkpt lat="47.12153" lon="5.99648">
        <ele>464.2</ele>
        <time>2024-09-01T09:43:55Z</time>
      </trkpt>
      <trkpt lat="47.12156" lon="5.99647">
        <ele>464.2</ele>
        <time>2024-09-01T09:43:56Z</time>
      </trkpt>
      <trkpt lat="47.1216" lon="5.99645">
        <ele>464</ele>
        <time>2024-09-01T09:43:57Z</time>
      </trkpt>
      <trkpt lat="47.12164" lon="5.99642">
        <ele>464</ele>
        <time>2024-09-01T09:43:58Z</time>
      </trkpt>
      <trkpt lat="47.12168" lon="5.99639">
        <ele>463.6</ele>
        <time>2024-09-01T09:43:59Z</time>
      </trkpt>
      <trkpt lat="47.12172" lon="5.99635">
        <ele>463.6</ele>
        <time>2024-09-01T09:44:00Z</time>
      </trkpt>
      <trkpt lat="47.12176" lon="5.99634">
        <ele>463.4</ele>
        <time>2024-09-01T09:44:01Z</time>
      </trkpt>
      <trkpt lat="47.1218" lon="5.99633">
        <ele>463.2</ele>
        <time>2024-09-01T09:44:02Z</time>
      </trkpt>
      <trkpt lat="47.12185" lon="5.99633">
        <ele>463</ele>
        <time>2024-09-01T09:44:03Z</time>
      </trkpt>
      <trkpt lat="47.1219" lon="5.99634">
        <ele>462.8</ele>
        <time>2024-09-01T09:44:04Z</time>
      </trkpt>
      <trkpt lat="47.12193" lon="5.99635">
        <ele>462.6</ele>
        <time>2024-09-01T09:44:05Z</time>
      </trkpt>
      <trkpt lat="47.12196" lon="5.99636">
        <ele>462.6</ele>
        <time>2024-09-01T09:44:06Z</time>
      </trkpt>
      <trkpt lat="47.12199" lon="5.99638">
        <ele>462.4</ele>
        <time>2024-09-01T09:44:07Z</time>
      </trkpt>
      <trkpt lat="47.12201" lon="5.99639">
        <ele>462.4</ele>
        <time>2024-09-01T09:44:08Z</time>
      </trkpt>
      <trkpt lat="47.12202" lon="5.99639">
        <ele>462.4</ele>
        <time>2024-09-01T09:44:09Z</time>
      </trkpt>
      <trkpt lat="47.12204" lon="5.9964">
        <ele>462.2</ele>
        <time>2024-09-01T09:44:10Z</time>
      </trkpt>
      <trkpt lat="47.12205" lon="5.99641">
        <ele>462.2</ele>
        <time>2024-09-01T09:44:11Z</time>
      </trkpt>
      <trkpt lat="47.12207" lon="5.99641">
        <ele>462.2</ele>
        <time>2024-09-01T09:44:12Z</time>
      </trkpt>
      <trkpt lat="47.12208" lon="5.99641">
        <ele>462.4</ele>
        <time>2024-09-01T09:44:13Z</time>
      </trkpt>
      <trkpt lat="47.12209" lon="5.99641">
        <ele>462.2</ele>
        <time>2024-09-01T09:44:14Z</time>
      </trkpt>
      <trkpt lat="47.1221" lon="5.99642">
        <ele>462.2</ele>
        <time>2024-09-01T09:44:15Z</time>
      </trkpt>
      <trkpt lat="47.12211" lon="5.99642">
        <ele>462.4</ele>
        <time>2024-09-01T09:44:16Z</time>
      </trkpt>
      <trkpt lat="47.12211" lon="5.99642">
        <ele>462.4</ele>
        <time>2024-09-01T09:44:17Z</time>
      </trkpt>
      <trkpt lat="47.12212" lon="5.99642">
        <ele>462.4</ele>
        <time>2024-09-01T09:44:18Z</time>
      </trkpt>
      <trkpt lat="47.12212" lon="5.99642">
        <ele>462.2</ele>
        <time>2024-09-01T09:44:19Z</time>
      </trkpt>
      <trkpt lat="47.12212" lon="5.99642">
        <ele>462.4</ele>
        <time>2024-09-01T09:44:20Z</time>
      </trkpt>
      <trkpt lat="47.12212" lon="5.99642">
        <ele>462.4</ele>
        <time>2024-09-01T09:44:21Z</time>
      </trkpt>
      <trkpt lat="47.12212" lon="5.99642">
        <ele>462.4</ele>
        <time>2024-09-01T09:44:22Z</time>
      </trkpt>
      <trkpt lat="47.12213" lon="5.99642">
        <ele>462.4</ele>
        <time>2024-09-01T09:44:23Z</time>
      </trkpt>
      <trkpt lat="47.12213" lon="5.99643">
        <ele>462.4</ele>
        <time>2024-09-01T09:44:24Z</time>
      </trkpt>
      <trkpt lat="47.12214" lon="5.99643">
        <ele>462.4</ele>
        <time>2024-09-01T09:44:25Z</time>
      </trkpt>
      <trkpt lat="47.12216" lon="5.99643">
        <ele>462.4</ele>
        <time>2024-09-01T09:44:26Z</time>
      </trkpt>
      <trkpt lat="47.12216" lon="5.99643">
        <ele>462.4</ele>
        <time>2024-09-01T09:44:27Z</time>
      </trkpt>
      <trkpt lat="47.12216" lon="5.99643">
        <ele>462.4</ele>
        <time>2024-09-01T09:44:28Z</time>
      </trkpt>
      <trkpt lat="47.12217" lon="5.99643">
        <ele>462.4</ele>
        <time>2024-09-01T09:44:29Z</time>
      </trkpt>
      <trkpt lat="47.12217" lon="5.99643">
        <ele>462.4</ele>
        <time>2024-09-01T09:44:30Z</time>
      </trkpt>
      <trkpt lat="47.12218" lon="5.99642">
        <ele>462.4</ele>
        <time>2024-09-01T09:44:31Z</time>
      </trkpt>
      <trkpt lat="47.12219" lon="5.99642">
        <ele>462.2</ele>
        <time>2024-09-01T09:44:32Z</time>
      </trkpt>
      <trkpt lat="47.1222" lon="5.99641">
        <ele>462.4</ele>
        <time>2024-09-01T09:44:33Z</time>
      </trkpt>
      <trkpt lat="47.12221" lon="5.99641">
        <ele>462.4</ele>
        <time>2024-09-01T09:44:34Z</time>
      </trkpt>
      <trkpt lat="47.12222" lon="5.99641">
        <ele>462.2</ele>
        <time>2024-09-01T09:44:35Z</time>
      </trkpt>
      <trkpt lat="47.12223" lon="5.99643">
        <ele>462.2</ele>
        <time>2024-09-01T09:44:36Z</time>
      </trkpt>
      <trkpt lat="47.12224" lon="5.99643">
        <ele>462.2</ele>
        <time>2024-09-01T09:44:37Z</time>
      </trkpt>
      <trkpt lat="47.12225" lon="5.99643">
        <ele>462.2</ele>
        <time>2024-09-01T09:44:38Z</time>
      </trkpt>
      <trkpt lat="47.12226" lon="5.99643">
        <ele>462.2</ele>
        <time>2024-09-01T09:44:39Z</time>
      </trkpt>
      <trkpt lat="47.12226" lon="5.99643">
        <ele>462</ele>
        <time>2024-09-01T09:44:40Z</time>
      </trkpt>
      <trkpt lat="47.12226" lon="5.99644">
        <ele>462</ele>
        <time>2024-09-01T09:44:41Z</time>
      </trkpt>
      <trkpt lat="47.12226" lon="5.99644">
        <ele>462.2</ele>
        <time>2024-09-01T09:44:42Z</time>
      </trkpt>
      <trkpt lat="47.12226" lon="5.99644">
        <ele>462</ele>
        <time>2024-09-01T09:44:43Z</time>
      </trkpt>
      <trkpt lat="47.12226" lon="5.99644">
        <ele>462.2</ele>
        <time>2024-09-01T09:44:44Z</time>
      </trkpt>
      <trkpt lat="47.12226" lon="5.99644">
        <ele>462</ele>
        <time>2024-09-01T09:44:45Z</time>
      </trkpt>
      <trkpt lat="47.12226" lon="5.99643">
        <ele>462</ele>
        <time>2024-09-01T09:44:46Z</time>
      </trkpt>
      <trkpt lat="47.12226" lon="5.99643">
        <ele>462</ele>
        <time>2024-09-01T09:44:47Z</time>
      </trkpt>
      <trkpt lat="47.12226" lon="5.99643">
        <ele>462</ele>
        <time>2024-09-01T09:44:48Z</time>
      </trkpt>
      <trkpt lat="47.12226" lon="5.99643">
        <ele>462.2</ele>
        <time>2024-09-01T09:44:49Z</time>
      </trkpt>
      <trkpt lat="47.12226" lon="5.99643">
        <ele>462.2</ele>
        <time>2024-09-01T09:44:50Z</time>
      </trkpt>
      <trkpt lat="47.12227" lon="5.99642">
        <ele>462.2</ele>
        <time>2024-09-01T09:44:51Z</time>
      </trkpt>
      <trkpt lat="47.12227" lon="5.99642">
        <ele>462.2</ele>
        <time>2024-09-01T09:44:52Z</time>
      </trkpt>
      <trkpt lat="47.12227" lon="5.99642">
        <ele>462.4</ele>
        <time>2024-09-01T09:44:53Z</time>
      </trkpt>
      <trkpt lat="47.12227" lon="5.99641">
        <ele>462.2</ele>
        <time>2024-09-01T09:44:54Z</time>
      </trkpt>
      <trkpt lat="47.12227" lon="5.99641">
        <ele>462</ele>
        <time>2024-09-01T09:44:55Z</time>
      </trkpt>
      <trkpt lat="47.12226" lon="5.9964">
        <ele>462.2</ele>
        <time>2024-09-01T09:44:56Z</time>
      </trkpt>
      <trkpt lat="47.12226" lon="5.99639">
        <ele>462.2</ele>
        <time>2024-09-01T09:44:57Z</time>
      </trkpt>
      <trkpt lat="47.12226" lon="5.99639">
        <ele>462.4</ele>
        <time>2024-09-01T09:44:58Z</time>
      </trkpt>
      <trkpt lat="47.12226" lon="5.99638">
        <ele>462.4</ele>
        <time>2024-09-01T09:44:59Z</time>
      </trkpt>
      <trkpt lat="47.12226" lon="5.99637">
        <ele>462.2</ele>
        <time>2024-09-01T09:45:00Z</time>
      </trkpt>
      <trkpt lat="47.12226" lon="5.99636">
        <ele>462.2</ele>
        <time>2024-09-01T09:45:01Z</time>
      </trkpt>
      <trkpt lat="47.12226" lon="5.99636">
        <ele>462.4</ele>
        <time>2024-09-01T09:45:02Z</time>
      </trkpt>
      <trkpt lat="47.12227" lon="5.99636">
        <ele>462.2</ele>
        <time>2024-09-01T09:45:03Z</time>
      </trkpt>
      <trkpt lat="47.12227" lon="5.99637">
        <ele>462.2</ele>
        <time>2024-09-01T09:45:04Z</time>
      </trkpt>
      <trkpt lat="47.12227" lon="5.99638">
        <ele>462.2</ele>
        <time>2024-09-01T09:45:05Z</time>
      </trkpt>
      <trkpt lat="47.12228" lon="5.99639">
        <ele>462.4</ele>
        <time>2024-09-01T09:45:06Z</time>
      </trkpt>
      <trkpt lat="47.12228" lon="5.99641">
        <ele>462.4</ele>
        <time>2024-09-01T09:45:07Z</time>
      </trkpt>
      <trkpt lat="47.12229" lon="5.99642">
        <ele>462.4</ele>
        <time>2024-09-01T09:45:08Z</time>
      </trkpt>
      <trkpt lat="47.1223" lon="5.99645">
        <ele>462.4</ele>
        <time>2024-09-01T09:45:09Z</time>
      </trkpt>
      <trkpt lat="47.12231" lon="5.99647">
        <ele>462.4</ele>
        <time>2024-09-01T09:45:10Z</time>
      </trkpt>
      <trkpt lat="47.12232" lon="5.9965">
        <ele>462.6</ele>
        <time>2024-09-01T09:45:11Z</time>
      </trkpt>
      <trkpt lat="47.12233" lon="5.99652">
        <ele>462.6</ele>
        <time>2024-09-01T09:45:12Z</time>
      </trkpt>
      <trkpt lat="47.12234" lon="5.99654">
        <ele>462.6</ele>
        <time>2024-09-01T09:45:13Z</time>
      </trkpt>
      <trkpt lat="47.12236" lon="5.99658">
        <ele>462.6</ele>
        <time>2024-09-01T09:45:14Z</time>
      </trkpt>
      <trkpt lat="47.12237" lon="5.99662">
        <ele>462.6</ele>
        <time>2024-09-01T09:45:15Z</time>
      </trkpt>
      <trkpt lat="47.12239" lon="5.99667">
        <ele>462.6</ele>
        <time>2024-09-01T09:45:16Z</time>
      </trkpt>
      <trkpt lat="47.12241" lon="5.99672">
        <ele>462.6</ele>
        <time>2024-09-01T09:45:17Z</time>
      </trkpt>
      <trkpt lat="47.12242" lon="5.99677">
        <ele>462.8</ele>
        <time>2024-09-01T09:45:18Z</time>
      </trkpt>
      <trkpt lat="47.12243" lon="5.99683">
        <ele>462.6</ele>
        <time>2024-09-01T09:45:19Z</time>
      </trkpt>
      <trkpt lat="47.12244" lon="5.99688">
        <ele>462.8</ele>
        <time>2024-09-01T09:45:20Z</time>
      </trkpt>
      <trkpt lat="47.12246" lon="5.99693">
        <ele>462.6</ele>
        <time>2024-09-01T09:45:21Z</time>
      </trkpt>
      <trkpt lat="47.12246" lon="5.99697">
        <ele>462.6</ele>
        <time>2024-09-01T09:45:22Z</time>
      </trkpt>
      <trkpt lat="47.12247" lon="5.99701">
        <ele>462.8</ele>
        <time>2024-09-01T09:45:23Z</time>
      </trkpt>
      <trkpt lat="47.12249" lon="5.99707">
        <ele>462.8</ele>
        <time>2024-09-01T09:45:24Z</time>
      </trkpt>
      <trkpt lat="47.1225" lon="5.99712">
        <ele>462.6</ele>
        <time>2024-09-01T09:45:25Z</time>
      </trkpt>
      <trkpt lat="47.1225" lon="5.99717">
        <ele>462.6</ele>
        <time>2024-09-01T09:45:26Z</time>
      </trkpt>
      <trkpt lat="47.12251" lon="5.99723">
        <ele>462.8</ele>
        <time>2024-09-01T09:45:27Z</time>
      </trkpt>
      <trkpt lat="47.12252" lon="5.99728">
        <ele>462.6</ele>
        <time>2024-09-01T09:45:28Z</time>
      </trkpt>
      <trkpt lat="47.12252" lon="5.99732">
        <ele>462.6</ele>
        <time>2024-09-01T09:45:29Z</time>
      </trkpt>
      <trkpt lat="47.12252" lon="5.99738">
        <ele>462.6</ele>
        <time>2024-09-01T09:45:30Z</time>
      </trkpt>
      <trkpt lat="47.12252" lon="5.99745">
        <ele>462.6</ele>
        <time>2024-09-01T09:45:31Z</time>
      </trkpt>
      <trkpt lat="47.12253" lon="5.99752">
        <ele>462.6</ele>
        <time>2024-09-01T09:45:32Z</time>
      </trkpt>
      <trkpt lat="47.12254" lon="5.99759">
        <ele>462.6</ele>
        <time>2024-09-01T09:45:33Z</time>
      </trkpt>
      <trkpt lat="47.12255" lon="5.99766">
        <ele>462.6</ele>
        <time>2024-09-01T09:45:34Z</time>
      </trkpt>
      <trkpt lat="47.12256" lon="5.99772">
        <ele>462.6</ele>
        <time>2024-09-01T09:45:35Z</time>
      </trkpt>
      <trkpt lat="47.12256" lon="5.99779">
        <ele>462.6</ele>
        <time>2024-09-01T09:45:36Z</time>
      </trkpt>
      <trkpt lat="47.12256" lon="5.99784">
        <ele>462.8</ele>
        <time>2024-09-01T09:45:37Z</time>
      </trkpt>
      <trkpt lat="47.12257" lon="5.9979">
        <ele>462.8</ele>
        <time>2024-09-01T09:45:38Z</time>
      </trkpt>
      <trkpt lat="47.12257" lon="5.99795">
        <ele>462.8</ele>
        <time>2024-09-01T09:45:39Z</time>
      </trkpt>
      <trkpt lat="47.12257" lon="5.998">
        <ele>463</ele>
        <time>2024-09-01T09:45:40Z</time>
      </trkpt>
      <trkpt lat="47.12257" lon="5.99805">
        <ele>463.2</ele>
        <time>2024-09-01T09:45:41Z</time>
      </trkpt>
      <trkpt lat="47.12257" lon="5.99811">
        <ele>463.2</ele>
        <time>2024-09-01T09:45:42Z</time>
      </trkpt>
      <trkpt lat="47.12257" lon="5.99816">
        <ele>463.2</ele>
        <time>2024-09-01T09:45:43Z</time>
      </trkpt>
      <trkpt lat="47.12258" lon="5.9982">
        <ele>463.4</ele>
        <time>2024-09-01T09:45:44Z</time>
      </trkpt>
      <trkpt lat="47.12259" lon="5.99825">
        <ele>463.6</ele>
        <time>2024-09-01T09:45:45Z</time>
      </trkpt>
      <trkpt lat="47.12261" lon="5.99829">
        <ele>463.6</ele>
        <time>2024-09-01T09:45:46Z</time>
      </trkpt>
      <trkpt lat="47.12262" lon="5.99835">
        <ele>463.8</ele>
        <time>2024-09-01T09:45:47Z</time>
      </trkpt>
      <trkpt lat="47.12263" lon="5.9984">
        <ele>464</ele>
        <time>2024-09-01T09:45:48Z</time>
      </trkpt>
      <trkpt lat="47.12264" lon="5.99845">
        <ele>464</ele>
        <time>2024-09-01T09:45:49Z</time>
      </trkpt>
      <trkpt lat="47.12265" lon="5.99851">
        <ele>464.4</ele>
        <time>2024-09-01T09:45:50Z</time>
      </trkpt>
      <trkpt lat="47.12265" lon="5.99855">
        <ele>464.6</ele>
        <time>2024-09-01T09:45:51Z</time>
      </trkpt>
      <trkpt lat="47.12266" lon="5.9986">
        <ele>464.6</ele>
        <time>2024-09-01T09:45:52Z</time>
      </trkpt>
      <trkpt lat="47.12267" lon="5.99865">
        <ele>464.8</ele>
        <time>2024-09-01T09:45:53Z</time>
      </trkpt>
      <trkpt lat="47.12268" lon="5.99871">
        <ele>464.6</ele>
        <time>2024-09-01T09:45:54Z</time>
      </trkpt>
      <trkpt lat="47.1227" lon="5.99877">
        <ele>464.8</ele>
        <time>2024-09-01T09:45:55Z</time>
      </trkpt>
      <trkpt lat="47.12271" lon="5.99883">
        <ele>464.8</ele>
        <time>2024-09-01T09:45:56Z</time>
      </trkpt>
      <trkpt lat="47.12272" lon="5.99889">
        <ele>464.8</ele>
        <time>2024-09-01T09:45:57Z</time>
      </trkpt>
      <trkpt lat="47.12273" lon="5.99896">
        <ele>465</ele>
        <time>2024-09-01T09:45:58Z</time>
      </trkpt>
      <trkpt lat="47.12273" lon="5.99903">
        <ele>465.2</ele>
        <time>2024-09-01T09:45:59Z</time>
      </trkpt>
      <trkpt lat="47.12274" lon="5.99908">
        <ele>465.2</ele>
        <time>2024-09-01T09:46:00Z</time>
      </trkpt>
      <trkpt lat="47.12274" lon="5.99914">
        <ele>465.4</ele>
        <time>2024-09-01T09:46:01Z</time>
      </trkpt>
      <trkpt lat="47.12274" lon="5.9992">
        <ele>465.4</ele>
        <time>2024-09-01T09:46:02Z</time>
      </trkpt>
      <trkpt lat="47.12274" lon="5.99926">
        <ele>465.6</ele>
        <time>2024-09-01T09:46:03Z</time>
      </trkpt>
      <trkpt lat="47.12273" lon="5.99931">
        <ele>465.6</ele>
        <time>2024-09-01T09:46:04Z</time>
      </trkpt>
      <trkpt lat="47.12273" lon="5.99936">
        <ele>465.8</ele>
        <time>2024-09-01T09:46:05Z</time>
      </trkpt>
      <trkpt lat="47.12272" lon="5.99941">
        <ele>466.2</ele>
        <time>2024-09-01T09:46:06Z</time>
      </trkpt>
      <trkpt lat="47.12271" lon="5.99947">
        <ele>466.2</ele>
        <time>2024-09-01T09:46:07Z</time>
      </trkpt>
      <trkpt lat="47.1227" lon="5.99952">
        <ele>466.2</ele>
        <time>2024-09-01T09:46:08Z</time>
      </trkpt>
      <trkpt lat="47.12269" lon="5.99957">
        <ele>466.4</ele>
        <time>2024-09-01T09:46:09Z</time>
      </trkpt>
      <trkpt lat="47.12267" lon="5.99963">
        <ele>466.4</ele>
        <time>2024-09-01T09:46:10Z</time>
      </trkpt>
      <trkpt lat="47.12265" lon="5.99968">
        <ele>466.4</ele>
        <time>2024-09-01T09:46:11Z</time>
      </trkpt>
      <trkpt lat="47.12264" lon="5.99973">
        <ele>466.6</ele>
        <time>2024-09-01T09:46:12Z</time>
      </trkpt>
      <trkpt lat="47.12262" lon="5.99977">
        <ele>466.8</ele>
        <time>2024-09-01T09:46:13Z</time>
      </trkpt>
      <trkpt lat="47.1226" lon="5.99982">
        <ele>466.6</ele>
        <time>2024-09-01T09:46:14Z</time>
      </trkpt>
      <trkpt lat="47.12258" lon="5.99987">
        <ele>466.8</ele>
        <time>2024-09-01T09:46:15Z</time>
      </trkpt>
      <trkpt lat="47.12256" lon="5.99992">
        <ele>467</ele>
        <time>2024-09-01T09:46:16Z</time>
      </trkpt>
      <trkpt lat="47.12254" lon="5.99996">
        <ele>467</ele>
        <time>2024-09-01T09:46:17Z</time>
      </trkpt>
      <trkpt lat="47.12252" lon="6">
        <ele>467.2</ele>
        <time>2024-09-01T09:46:18Z</time>
      </trkpt>
      <trkpt lat="47.1225" lon="6.00005">
        <ele>467.2</ele>
        <time>2024-09-01T09:46:19Z</time>
      </trkpt>
      <trkpt lat="47.12247" lon="6.00009">
        <ele>467.2</ele>
        <time>2024-09-01T09:46:20Z</time>
      </trkpt>
      <trkpt lat="47.12245" lon="6.00013">
        <ele>467.4</ele>
        <time>2024-09-01T09:46:21Z</time>
      </trkpt>
      <trkpt lat="47.12243" lon="6.00017">
        <ele>467.4</ele>
        <time>2024-09-01T09:46:22Z</time>
      </trkpt>
      <trkpt lat="47.12241" lon="6.00021">
        <ele>467.6</ele>
        <time>2024-09-01T09:46:23Z</time>
      </trkpt>
      <trkpt lat="47.12239" lon="6.00026">
        <ele>467.4</ele>
        <time>2024-09-01T09:46:24Z</time>
      </trkpt>
      <trkpt lat="47.12238" lon="6.0003">
        <ele>467.6</ele>
        <time>2024-09-01T09:46:25Z</time>
      </trkpt>
      <trkpt lat="47.12235" lon="6.00035">
        <ele>467.8</ele>
        <time>2024-09-01T09:46:26Z</time>
      </trkpt>
      <trkpt lat="47.12233" lon="6.00039">
        <ele>467.8</ele>
        <time>2024-09-01T09:46:27Z</time>
      </trkpt>
      <trkpt lat="47.12232" lon="6.00044">
        <ele>468</ele>
        <time>2024-09-01T09:46:28Z</time>
      </trkpt>
      <trkpt lat="47.12231" lon="6.00048">
        <ele>468.2</ele>
        <time>2024-09-01T09:46:29Z</time>
      </trkpt>
      <trkpt lat="47.1223" lon="6.00053">
        <ele>468.4</ele>
        <time>2024-09-01T09:46:30Z</time>
      </trkpt>
      <trkpt lat="47.12228" lon="6.00058">
        <ele>468.6</ele>
        <time>2024-09-01T09:46:31Z</time>
      </trkpt>
      <trkpt lat="47.12228" lon="6.00065">
        <ele>468.8</ele>
        <time>2024-09-01T09:46:32Z</time>
      </trkpt>
      <trkpt lat="47.12227" lon="6.00071">
        <ele>469.2</ele>
        <time>2024-09-01T09:46:33Z</time>
      </trkpt>
      <trkpt lat="47.12227" lon="6.00077">
        <ele>469.2</ele>
        <time>2024-09-01T09:46:34Z</time>
      </trkpt>
      <trkpt lat="47.12227" lon="6.00083">
        <ele>469.4</ele>
        <time>2024-09-01T09:46:35Z</time>
      </trkpt>
      <trkpt lat="47.12226" lon="6.00088">
        <ele>469.6</ele>
        <time>2024-09-01T09:46:36Z</time>
      </trkpt>
      <trkpt lat="47.12227" lon="6.00094">
        <ele>469.8</ele>
        <time>2024-09-01T09:46:37Z</time>
      </trkpt>
      <trkpt lat="47.12226" lon="6.00098">
        <ele>469.8</ele>
        <time>2024-09-01T09:46:38Z</time>
      </trkpt>
      <trkpt lat="47.12226" lon="6.00101">
        <ele>469.8</ele>
        <time>2024-09-01T09:46:39Z</time>
      </trkpt>
      <trkpt lat="47.12227" lon="6.00104">
        <ele>470</ele>
        <time>2024-09-01T09:46:40Z</time>
      </trkpt>
      <trkpt lat="47.12227" lon="6.00106">
        <ele>470</ele>
        <time>2024-09-01T09:46:41Z</time>
      </trkpt>
      <trkpt lat="47.12228" lon="6.00108">
        <ele>470</ele>
        <time>2024-09-01T09:46:42Z</time>
      </trkpt>
      <trkpt lat="47.12228" lon="6.00109">
        <ele>470</ele>
        <time>2024-09-01T09:46:43Z</time>
      </trkpt>
      <trkpt lat="47.12229" lon="6.0011">
        <ele>470</ele>
        <time>2024-09-01T09:46:44Z</time>
      </trkpt>
      <trkpt lat="47.12228" lon="6.00111">
        <ele>470</ele>
        <time>2024-09-01T09:46:45Z</time>
      </trkpt>
      <trkpt lat="47.12228" lon="6.00111">
        <ele>470</ele>
        <time>2024-09-01T09:46:46Z</time>
      </trkpt>
      <trkpt lat="47.12228" lon="6.00111">
        <ele>470</ele>
        <time>2024-09-01T09:46:47Z</time>
      </trkpt>
      <trkpt lat="47.12227" lon="6.00111">
        <ele>470</ele>
        <time>2024-09-01T09:46:48Z</time>
      </trkpt>
      <trkpt lat="47.12228" lon="6.00111">
        <ele>470</ele>
        <time>2024-09-01T09:46:49Z</time>
      </trkpt>
      <trkpt lat="47.12228" lon="6.00111">
        <ele>470</ele>
        <time>2024-09-01T09:46:50Z</time>
      </trkpt>
      <trkpt lat="47.12228" lon="6.00112">
        <ele>470.2</ele>
        <time>2024-09-01T09:46:51Z</time>
      </trkpt>
      <trkpt lat="47.12228" lon="6.00112">
        <ele>470</ele>
        <time>2024-09-01T09:46:52Z</time>
      </trkpt>
      <trkpt lat="47.12228" lon="6.00112">
        <ele>470</ele>
        <time>2024-09-01T09:46:53Z</time>
      </trkpt>
      <trkpt lat="47.12228" lon="6.00112">
        <ele>470.2</ele>
        <time>2024-09-01T09:46:54Z</time>
      </trkpt>
      <trkpt lat="47.12228" lon="6.00112">
        <ele>470</ele>
        <time>2024-09-01T09:46:55Z</time>
      </trkpt>
      <trkpt lat="47.12228" lon="6.00113">
        <ele>470</ele>
        <time>2024-09-01T09:46:56Z</time>
      </trkpt>
      <trkpt lat="47.12228" lon="6.00113">
        <ele>470.2</ele>
        <time>2024-09-01T09:46:57Z</time>
      </trkpt>
      <trkpt lat="47.12228" lon="6.00113">
        <ele>470.2</ele>
        <time>2024-09-01T09:46:58Z</time>
      </trkpt>
      <trkpt lat="47.12228" lon="6.00113">
        <ele>470</ele>
        <time>2024-09-01T09:46:59Z</time>
      </trkpt>
      <trkpt lat="47.12228" lon="6.00114">
        <ele>470</ele>
        <time>2024-09-01T09:47:00Z</time>
      </trkpt>
      <trkpt lat="47.12228" lon="6.00114">
        <ele>470.2</ele>
        <time>2024-09-01T09:47:01Z</time>
      </trkpt>
      <trkpt lat="47.12228" lon="6.00114">
        <ele>470</ele>
        <time>2024-09-01T09:47:02Z</time>
      </trkpt>
      <trkpt lat="47.12228" lon="6.00115">
        <ele>470.2</ele>
        <time>2024-09-01T09:47:03Z</time>
      </trkpt>
      <trkpt lat="47.12229" lon="6.00115">
        <ele>470.2</ele>
        <time>2024-09-01T09:47:04Z</time>
      </trkpt>
      <trkpt lat="47.12229" lon="6.00116">
        <ele>470</ele>
        <time>2024-09-01T09:47:05Z</time>
      </trkpt>
      <trkpt lat="47.12231" lon="6.00117">
        <ele>470.2</ele>
        <time>2024-09-01T09:47:06Z</time>
      </trkpt>
      <trkpt lat="47.12232" lon="6.00119">
        <ele>470</ele>
        <time>2024-09-01T09:47:07Z</time>
      </trkpt>
      <trkpt lat="47.12234" lon="6.00121">
        <ele>470.2</ele>
        <time>2024-09-01T09:47:08Z</time>
      </trkpt>
      <trkpt lat="47.12235" lon="6.00122">
        <ele>470</ele>
        <time>2024-09-01T09:47:09Z</time>
      </trkpt>
      <trkpt lat="47.12237" lon="6.00124">
        <ele>470.2</ele>
        <time>2024-09-01T09:47:10Z</time>
      </trkpt>
      <trkpt lat="47.12238" lon="6.00127">
        <ele>470.2</ele>
        <time>2024-09-01T09:47:11Z</time>
      </trkpt>
      <trkpt lat="47.12241" lon="6.0013">
        <ele>470.2</ele>
        <time>2024-09-01T09:47:12Z</time>
      </trkpt>
      <trkpt lat="47.12243" lon="6.00133">
        <ele>470</ele>
        <time>2024-09-01T09:47:13Z</time>
      </trkpt>
      <trkpt lat="47.12245" lon="6.00136">
        <ele>470.2</ele>
        <time>2024-09-01T09:47:14Z</time>
      </trkpt>
      <trkpt lat="47.12248" lon="6.00139">
        <ele>470.2</ele>
        <time>2024-09-01T09:47:15Z</time>
      </trkpt>
      <trkpt lat="47.1225" lon="6.00141">
        <ele>470</ele>
        <time>2024-09-01T09:47:16Z</time>
      </trkpt>
      <trkpt lat="47.12252" lon="6.00143">
        <ele>470.2</ele>
        <time>2024-09-01T09:47:17Z</time>
      </trkpt>
      <trkpt lat="47.12255" lon="6.00145">
        <ele>470.4</ele>
        <time>2024-09-01T09:47:18Z</time>
      </trkpt>
      <trkpt lat="47.12257" lon="6.00145">
        <ele>470.4</ele>
        <time>2024-09-01T09:47:19Z</time>
      </trkpt>
      <trkpt lat="47.12259" lon="6.00147">
        <ele>470.4</ele>
        <time>2024-09-01T09:47:20Z</time>
      </trkpt>
      <trkpt lat="47.12261" lon="6.00148">
        <ele>470.6</ele>
        <time>2024-09-01T09:47:21Z</time>
      </trkpt>
      <trkpt lat="47.12263" lon="6.0015">
        <ele>470.6</ele>
        <time>2024-09-01T09:47:22Z</time>
      </trkpt>
      <trkpt lat="47.12265" lon="6.00151">
        <ele>470.6</ele>
        <time>2024-09-01T09:47:23Z</time>
      </trkpt>
      <trkpt lat="47.12267" lon="6.00152">
        <ele>470.6</ele>
        <time>2024-09-01T09:47:24Z</time>
      </trkpt>
      <trkpt lat="47.12269" lon="6.00152">
        <ele>470.8</ele>
        <time>2024-09-01T09:47:25Z</time>
      </trkpt>
      <trkpt lat="47.12272" lon="6.00154">
        <ele>470.6</ele>
        <time>2024-09-01T09:47:26Z</time>
      </trkpt>
      <trkpt lat="47.12276" lon="6.00155">
        <ele>471</ele>
        <time>2024-09-01T09:47:27Z</time>
      </trkpt>
      <trkpt lat="47.12279" lon="6.00157">
        <ele>470.8</ele>
        <time>2024-09-01T09:47:28Z</time>
      </trkpt>
      <trkpt lat="47.12281" lon="6.00159">
        <ele>471</ele>
        <time>2024-09-01T09:47:29Z</time>
      </trkpt>
      <trkpt lat="47.12284" lon="6.00162">
        <ele>471.2</ele>
        <time>2024-09-01T09:47:30Z</time>
      </trkpt>
      <trkpt lat="47.12287" lon="6.00164">
        <ele>471.2</ele>
        <time>2024-09-01T09:47:31Z</time>
      </trkpt>
      <trkpt lat="47.12291" lon="6.00167">
        <ele>471.2</ele>
        <time>2024-09-01T09:47:32Z</time>
      </trkpt>
      <trkpt lat="47.12294" lon="6.0017">
        <ele>471.4</ele>
        <time>2024-09-01T09:47:33Z</time>
      </trkpt>
      <trkpt lat="47.12298" lon="6.00174">
        <ele>471.6</ele>
        <time>2024-09-01T09:47:34Z</time>
      </trkpt>
      <trkpt lat="47.12305" lon="6.00178">
        <ele>471.6</ele>
        <time>2024-09-01T09:47:35Z</time>
      </trkpt>
      <trkpt lat="47.12309" lon="6.00179">
        <ele>471.8</ele>
        <time>2024-09-01T09:47:36Z</time>
      </trkpt>
      <trkpt lat="47.12312" lon="6.0018">
        <ele>471.6</ele>
        <time>2024-09-01T09:47:37Z</time>
      </trkpt>
      <trkpt lat="47.12312" lon="6.0018">
        <ele>471.6</ele>
        <time>2024-09-01T09:47:38Z</time>
      </trkpt>
      <trkpt lat="47.12315" lon="6.00181">
        <ele>471.8</ele>
        <time>2024-09-01T09:47:39Z</time>
      </trkpt>
      <trkpt lat="47.12318" lon="6.00181">
        <ele>471.8</ele>
        <time>2024-09-01T09:47:40Z</time>
      </trkpt>
      <trkpt lat="47.12325" lon="6.0018">
        <ele>471.8</ele>
        <time>2024-09-01T09:47:41Z</time>
      </trkpt>
      <trkpt lat="47.12325" lon="6.0018">
        <ele>471.8</ele>
        <time>2024-09-01T09:47:42Z</time>
      </trkpt>
      <trkpt lat="47.12329" lon="6.0018">
        <ele>471.8</ele>
        <time>2024-09-01T09:47:43Z</time>
      </trkpt>
      <trkpt lat="47.12333" lon="6.0018">
        <ele>471.8</ele>
        <time>2024-09-01T09:47:44Z</time>
      </trkpt>
      <trkpt lat="47.12337" lon="6.00182">
        <ele>471.6</ele>
        <time>2024-09-01T09:47:45Z</time>
      </trkpt>
      <trkpt lat="47.12342" lon="6.00185">
        <ele>471.8</ele>
        <time>2024-09-01T09:47:46Z</time>
      </trkpt>
      <trkpt lat="47.12347" lon="6.00189">
        <ele>471.8</ele>
        <time>2024-09-01T09:47:47Z</time>
      </trkpt>
      <trkpt lat="47.12351" lon="6.00192">
        <ele>471.8</ele>
        <time>2024-09-01T09:47:48Z</time>
      </trkpt>
      <trkpt lat="47.12355" lon="6.00194">
        <ele>471.8</ele>
        <time>2024-09-01T09:47:49Z</time>
      </trkpt>
      <trkpt lat="47.12359" lon="6.00196">
        <ele>471.6</ele>
        <time>2024-09-01T09:47:50Z</time>
      </trkpt>
      <trkpt lat="47.12364" lon="6.00198">
        <ele>471.6</ele>
        <time>2024-09-01T09:47:51Z</time>
      </trkpt>
      <trkpt lat="47.1237" lon="6.002">
        <ele>471.6</ele>
        <time>2024-09-01T09:47:52Z</time>
      </trkpt>
      <trkpt lat="47.12374" lon="6.00202">
        <ele>471.4</ele>
        <time>2024-09-01T09:47:53Z</time>
      </trkpt>
      <trkpt lat="47.12378" lon="6.00203">
        <ele>471.4</ele>
        <time>2024-09-01T09:47:54Z</time>
      </trkpt>
      <trkpt lat="47.12382" lon="6.00204">
        <ele>471.4</ele>
        <time>2024-09-01T09:47:55Z</time>
      </trkpt>
      <trkpt lat="47.12386" lon="6.00207">
        <ele>471.2</ele>
        <time>2024-09-01T09:47:56Z</time>
      </trkpt>
      <trkpt lat="47.12391" lon="6.00211">
        <ele>471.4</ele>
        <time>2024-09-01T09:47:57Z</time>
      </trkpt>
      <trkpt lat="47.12394" lon="6.00214">
        <ele>471.2</ele>
        <time>2024-09-01T09:47:58Z</time>
      </trkpt>
      <trkpt lat="47.12396" lon="6.00218">
        <ele>471.2</ele>
        <time>2024-09-01T09:47:59Z</time>
      </trkpt>
      <trkpt lat="47.12399" lon="6.00223">
        <ele>471.2</ele>
        <time>2024-09-01T09:48:00Z</time>
      </trkpt>
      <trkpt lat="47.12402" lon="6.00227">
        <ele>471.4</ele>
        <time>2024-09-01T09:48:01Z</time>
      </trkpt>
      <trkpt lat="47.12406" lon="6.00231">
        <ele>471.2</ele>
        <time>2024-09-01T09:48:02Z</time>
      </trkpt>
      <trkpt lat="47.12409" lon="6.00236">
        <ele>471.2</ele>
        <time>2024-09-01T09:48:03Z</time>
      </trkpt>
      <trkpt lat="47.12413" lon="6.00241">
        <ele>471</ele>
        <time>2024-09-01T09:48:04Z</time>
      </trkpt>
      <trkpt lat="47.12415" lon="6.00244">
        <ele>471.2</ele>
        <time>2024-09-01T09:48:05Z</time>
      </trkpt>
      <trkpt lat="47.12417" lon="6.00248">
        <ele>471.2</ele>
        <time>2024-09-01T09:48:06Z</time>
      </trkpt>
      <trkpt lat="47.1242" lon="6.00251">
        <ele>471.2</ele>
        <time>2024-09-01T09:48:07Z</time>
      </trkpt>
      <trkpt lat="47.12423" lon="6.00254">
        <ele>471.2</ele>
        <time>2024-09-01T09:48:08Z</time>
      </trkpt>
      <trkpt lat="47.12426" lon="6.00255">
        <ele>471.2</ele>
        <time>2024-09-01T09:48:09Z</time>
      </trkpt>
      <trkpt lat="47.1243" lon="6.00256">
        <ele>471.2</ele>
        <time>2024-09-01T09:48:10Z</time>
      </trkpt>
      <trkpt lat="47.12434" lon="6.00257">
        <ele>471</ele>
        <time>2024-09-01T09:48:11Z</time>
      </trkpt>
      <trkpt lat="47.12439" lon="6.00257">
        <ele>471.2</ele>
        <time>2024-09-01T09:48:12Z</time>
      </trkpt>
      <trkpt lat="47.12444" lon="6.00256">
        <ele>471.2</ele>
        <time>2024-09-01T09:48:13Z</time>
      </trkpt>
      <trkpt lat="47.12449" lon="6.00255">
        <ele>471.2</ele>
        <time>2024-09-01T09:48:14Z</time>
      </trkpt>
      <trkpt lat="47.12454" lon="6.00253">
        <ele>471</ele>
        <time>2024-09-01T09:48:15Z</time>
      </trkpt>
      <trkpt lat="47.12459" lon="6.00252">
        <ele>471.2</ele>
        <time>2024-09-01T09:48:16Z</time>
      </trkpt>
      <trkpt lat="47.12465" lon="6.0025">
        <ele>471</ele>
        <time>2024-09-01T09:48:17Z</time>
      </trkpt>
      <trkpt lat="47.1247" lon="6.00249">
        <ele>471.2</ele>
        <time>2024-09-01T09:48:18Z</time>
      </trkpt>
      <trkpt lat="47.12476" lon="6.0025">
        <ele>471</ele>
        <time>2024-09-01T09:48:19Z</time>
      </trkpt>
      <trkpt lat="47.12483" lon="6.00251">
        <ele>470.6</ele>
        <time>2024-09-01T09:48:20Z</time>
      </trkpt>
      <trkpt lat="47.12489" lon="6.00253">
        <ele>470.6</ele>
        <time>2024-09-01T09:48:21Z</time>
      </trkpt>
      <trkpt lat="47.12495" lon="6.00253">
        <ele>470</ele>
        <time>2024-09-01T09:48:22Z</time>
      </trkpt>
      <trkpt lat="47.12501" lon="6.00255">
        <ele>469.6</ele>
        <time>2024-09-01T09:48:23Z</time>
      </trkpt>
      <trkpt lat="47.12508" lon="6.00256">
        <ele>469.2</ele>
        <time>2024-09-01T09:48:24Z</time>
      </trkpt>
      <trkpt lat="47.12514" lon="6.00256">
        <ele>468.8</ele>
        <time>2024-09-01T09:48:25Z</time>
      </trkpt>
      <trkpt lat="47.12523" lon="6.0026">
        <ele>468.4</ele>
        <time>2024-09-01T09:48:26Z</time>
      </trkpt>
      <trkpt lat="47.1253" lon="6.00264">
        <ele>468</ele>
        <time>2024-09-01T09:48:27Z</time>
      </trkpt>
      <trkpt lat="47.12534" lon="6.00268">
        <ele>467.4</ele>
        <time>2024-09-01T09:48:28Z</time>
      </trkpt>
      <trkpt lat="47.12538" lon="6.00273">
        <ele>467.2</ele>
        <time>2024-09-01T09:48:29Z</time>
      </trkpt>
      <trkpt lat="47.12542" lon="6.0028">
        <ele>467</ele>
        <time>2024-09-01T09:48:30Z</time>
      </trkpt>
      <trkpt lat="47.12546" lon="6.00285">
        <ele>466.8</ele>
        <time>2024-09-01T09:48:31Z</time>
      </trkpt>
      <trkpt lat="47.12548" lon="6.0029">
        <ele>466.6</ele>
        <time>2024-09-01T09:48:32Z</time>
      </trkpt>
      <trkpt lat="47.12551" lon="6.00293">
        <ele>466.4</ele>
        <time>2024-09-01T09:48:33Z</time>
      </trkpt>
      <trkpt lat="47.12554" lon="6.00297">
        <ele>466.4</ele>
        <time>2024-09-01T09:48:34Z</time>
      </trkpt>
      <trkpt lat="47.12556" lon="6.003">
        <ele>466</ele>
        <time>2024-09-01T09:48:35Z</time>
      </trkpt>
      <trkpt lat="47.12558" lon="6.00304">
        <ele>465.8</ele>
        <time>2024-09-01T09:48:36Z</time>
      </trkpt>
      <trkpt lat="47.1256" lon="6.00306">
        <ele>465.6</ele>
        <time>2024-09-01T09:48:37Z</time>
      </trkpt>
      <trkpt lat="47.12563" lon="6.00309">
        <ele>465.6</ele>
        <time>2024-09-01T09:48:38Z</time>
      </trkpt>
      <trkpt lat="47.12566" lon="6.00313">
        <ele>465.6</ele>
        <time>2024-09-01T09:48:39Z</time>
      </trkpt>
      <trkpt lat="47.12568" lon="6.00316">
        <ele>465.6</ele>
        <time>2024-09-01T09:48:40Z</time>
      </trkpt>
      <trkpt lat="47.12571" lon="6.00317">
        <ele>465.4</ele>
        <time>2024-09-01T09:48:41Z</time>
      </trkpt>
      <trkpt lat="47.12574" lon="6.00317">
        <ele>465.2</ele>
        <time>2024-09-01T09:48:42Z</time>
      </trkpt>
      <trkpt lat="47.12578" lon="6.00317">
        <ele>465.2</ele>
        <time>2024-09-01T09:48:43Z</time>
      </trkpt>
      <trkpt lat="47.12581" lon="6.00316">
        <ele>465.2</ele>
        <time>2024-09-01T09:48:44Z</time>
      </trkpt>
      <trkpt lat="47.12585" lon="6.00314">
        <ele>464.8</ele>
        <time>2024-09-01T09:48:45Z</time>
      </trkpt>
      <trkpt lat="47.12588" lon="6.00313">
        <ele>464.8</ele>
        <time>2024-09-01T09:48:46Z</time>
      </trkpt>
      <trkpt lat="47.12592" lon="6.00313">
        <ele>464.8</ele>
        <time>2024-09-01T09:48:47Z</time>
      </trkpt>
      <trkpt lat="47.12597" lon="6.00314">
        <ele>464.4</ele>
        <time>2024-09-01T09:48:48Z</time>
      </trkpt>
      <trkpt lat="47.12601" lon="6.00316">
        <ele>464.2</ele>
        <time>2024-09-01T09:48:49Z</time>
      </trkpt>
      <trkpt lat="47.12607" lon="6.00319">
        <ele>464</ele>
        <time>2024-09-01T09:48:50Z</time>
      </trkpt>
      <trkpt lat="47.12613" lon="6.00323">
        <ele>464</ele>
        <time>2024-09-01T09:48:51Z</time>
      </trkpt>
      <trkpt lat="47.12622" lon="6.0033">
        <ele>463.6</ele>
        <time>2024-09-01T09:48:52Z</time>
      </trkpt>
      <trkpt lat="47.12629" lon="6.00337">
        <ele>463.4</ele>
        <time>2024-09-01T09:48:53Z</time>
      </trkpt>
      <trkpt lat="47.12635" lon="6.00345">
        <ele>463</ele>
        <time>2024-09-01T09:48:54Z</time>
      </trkpt>
      <trkpt lat="47.12641" lon="6.00353">
        <ele>462.8</ele>
        <time>2024-09-01T09:48:55Z</time>
      </trkpt>
      <trkpt lat="47.12645" lon="6.00361">
        <ele>462.8</ele>
        <time>2024-09-01T09:48:56Z</time>
      </trkpt>
      <trkpt lat="47.12649" lon="6.00371">
        <ele>462.4</ele>
        <time>2024-09-01T09:48:57Z</time>
      </trkpt>
      <trkpt lat="47.12655" lon="6.00381">
        <ele>462</ele>
        <time>2024-09-01T09:48:58Z</time>
      </trkpt>
      <trkpt lat="47.12659" lon="6.0039">
        <ele>461.6</ele>
        <time>2024-09-01T09:48:59Z</time>
      </trkpt>
      <trkpt lat="47.12665" lon="6.004">
        <ele>461</ele>
        <time>2024-09-01T09:49:00Z</time>
      </trkpt>
      <trkpt lat="47.12671" lon="6.00408">
        <ele>460.8</ele>
        <time>2024-09-01T09:49:01Z</time>
      </trkpt>
      <trkpt lat="47.12678" lon="6.00415">
        <ele>460.2</ele>
        <time>2024-09-01T09:49:02Z</time>
      </trkpt>
      <trkpt lat="47.12686" lon="6.00422">
        <ele>459.8</ele>
        <time>2024-09-01T09:49:03Z</time>
      </trkpt>
      <trkpt lat="47.12694" lon="6.00429">
        <ele>459.2</ele>
        <time>2024-09-01T09:49:04Z</time>
      </trkpt>
      <trkpt lat="47.12702" lon="6.00438">
        <ele>458.8</ele>
        <time>2024-09-01T09:49:05Z</time>
      </trkpt>
      <trkpt lat="47.12709" lon="6.00447">
        <ele>458.6</ele>
        <time>2024-09-01T09:49:06Z</time>
      </trkpt>
      <trkpt lat="47.12715" lon="6.00456">
        <ele>458.2</ele>
        <time>2024-09-01T09:49:07Z</time>
      </trkpt>
      <trkpt lat="47.1272" lon="6.00466">
        <ele>458</ele>
        <time>2024-09-01T09:49:08Z</time>
      </trkpt>
      <trkpt lat="47.12725" lon="6.00476">
        <ele>457.2</ele>
        <time>2024-09-01T09:49:09Z</time>
      </trkpt>
      <trkpt lat="47.12727" lon="6.00486">
        <ele>456.2</ele>
        <time>2024-09-01T09:49:10Z</time>
      </trkpt>
      <trkpt lat="47.1273" lon="6.00498">
        <ele>455.8</ele>
        <time>2024-09-01T09:49:11Z</time>
      </trkpt>
      <trkpt lat="47.12732" lon="6.00508">
        <ele>455.4</ele>
        <time>2024-09-01T09:49:12Z</time>
      </trkpt>
      <trkpt lat="47.12733" lon="6.00519">
        <ele>455</ele>
        <time>2024-09-01T09:49:13Z</time>
      </trkpt>
      <trkpt lat="47.12735" lon="6.0053">
        <ele>454.2</ele>
        <time>2024-09-01T09:49:14Z</time>
      </trkpt>
      <trkpt lat="47.12738" lon="6.0054">
        <ele>454</ele>
        <time>2024-09-01T09:49:15Z</time>
      </trkpt>
      <trkpt lat="47.12742" lon="6.0055">
        <ele>453.8</ele>
        <time>2024-09-01T09:49:16Z</time>
      </trkpt>
      <trkpt lat="47.12746" lon="6.00559">
        <ele>453.8</ele>
        <time>2024-09-01T09:49:17Z</time>
      </trkpt>
      <trkpt lat="47.1275" lon="6.00567">
        <ele>453.6</ele>
        <time>2024-09-01T09:49:18Z</time>
      </trkpt>
      <trkpt lat="47.12753" lon="6.00575">
        <ele>453.2</ele>
        <time>2024-09-01T09:49:19Z</time>
      </trkpt>
      <trkpt lat="47.12756" lon="6.00582">
        <ele>453</ele>
        <time>2024-09-01T09:49:20Z</time>
      </trkpt>
      <trkpt lat="47.12759" lon="6.00589">
        <ele>452.8</ele>
        <time>2024-09-01T09:49:21Z</time>
      </trkpt>
      <trkpt lat="47.12761" lon="6.00596">
        <ele>452.6</ele>
        <time>2024-09-01T09:49:22Z</time>
      </trkpt>
      <trkpt lat="47.12763" lon="6.00602">
        <ele>452.4</ele>
        <time>2024-09-01T09:49:23Z</time>
      </trkpt>
      <trkpt lat="47.12766" lon="6.00608">
        <ele>452.2</ele>
        <time>2024-09-01T09:49:24Z</time>
      </trkpt>
      <trkpt lat="47.12768" lon="6.00614">
        <ele>452.2</ele>
        <time>2024-09-01T09:49:25Z</time>
      </trkpt>
      <trkpt lat="47.12771" lon="6.00619">
        <ele>452.2</ele>
        <time>2024-09-01T09:49:26Z</time>
      </trkpt>
      <trkpt lat="47.12774" lon="6.00623">
        <ele>452.2</ele>
        <time>2024-09-01T09:49:27Z</time>
      </trkpt>
      <trkpt lat="47.12778" lon="6.00628">
        <ele>452.2</ele>
        <time>2024-09-01T09:49:28Z</time>
      </trkpt>
      <trkpt lat="47.12782" lon="6.00634">
        <ele>452.2</ele>
        <time>2024-09-01T09:49:29Z</time>
      </trkpt>
      <trkpt lat="47.12786" lon="6.0064">
        <ele>452.2</ele>
        <time>2024-09-01T09:49:30Z</time>
      </trkpt>
      <trkpt lat="47.12791" lon="6.00646">
        <ele>452.2</ele>
        <time>2024-09-01T09:49:31Z</time>
      </trkpt>
      <trkpt lat="47.12795" lon="6.00651">
        <ele>452.2</ele>
        <time>2024-09-01T09:49:32Z</time>
      </trkpt>
      <trkpt lat="47.12799" lon="6.00658">
        <ele>452</ele>
        <time>2024-09-01T09:49:33Z</time>
      </trkpt>
      <trkpt lat="47.12802" lon="6.00665">
        <ele>452</ele>
        <time>2024-09-01T09:49:34Z</time>
      </trkpt>
      <trkpt lat="47.12806" lon="6.00672">
        <ele>452.2</ele>
        <time>2024-09-01T09:49:35Z</time>
      </trkpt>
      <trkpt lat="47.12811" lon="6.00679">
        <ele>452</ele>
        <time>2024-09-01T09:49:36Z</time>
      </trkpt>
      <trkpt lat="47.12815" lon="6.00686">
        <ele>452</ele>
        <time>2024-09-01T09:49:37Z</time>
      </trkpt>
      <trkpt lat="47.1282" lon="6.00693">
        <ele>452</ele>
        <time>2024-09-01T09:49:38Z</time>
      </trkpt>
      <trkpt lat="47.12826" lon="6.00699">
        <ele>451.8</ele>
        <time>2024-09-01T09:49:39Z</time>
      </trkpt>
      <trkpt lat="47.12832" lon="6.00705">
        <ele>451.8</ele>
        <time>2024-09-01T09:49:40Z</time>
      </trkpt>
      <trkpt lat="47.12838" lon="6.00711">
        <ele>451.8</ele>
        <time>2024-09-01T09:49:41Z</time>
      </trkpt>
      <trkpt lat="47.12845" lon="6.00716">
        <ele>451.6</ele>
        <time>2024-09-01T09:49:42Z</time>
      </trkpt>
      <trkpt lat="47.12851" lon="6.00721">
        <ele>451.4</ele>
        <time>2024-09-01T09:49:43Z</time>
      </trkpt>
      <trkpt lat="47.12857" lon="6.00728">
        <ele>451</ele>
        <time>2024-09-01T09:49:44Z</time>
      </trkpt>
      <trkpt lat="47.12861" lon="6.00736">
        <ele>450.6</ele>
        <time>2024-09-01T09:49:45Z</time>
      </trkpt>
      <trkpt lat="47.12865" lon="6.00744">
        <ele>450.2</ele>
        <time>2024-09-01T09:49:46Z</time>
      </trkpt>
      <trkpt lat="47.12868" lon="6.00753">
        <ele>449.8</ele>
        <time>2024-09-01T09:49:47Z</time>
      </trkpt>
      <trkpt lat="47.1287" lon="6.00762">
        <ele>449.2</ele>
        <time>2024-09-01T09:49:48Z</time>
      </trkpt>
      <trkpt lat="47.12872" lon="6.0077">
        <ele>448.8</ele>
        <time>2024-09-01T09:49:49Z</time>
      </trkpt>
      <trkpt lat="47.12874" lon="6.00779">
        <ele>448.6</ele>
        <time>2024-09-01T09:49:50Z</time>
      </trkpt>
      <trkpt lat="47.12876" lon="6.00787">
        <ele>448.4</ele>
        <time>2024-09-01T09:49:51Z</time>
      </trkpt>
      <trkpt lat="47.12879" lon="6.00795">
        <ele>448.2</ele>
        <time>2024-09-01T09:49:52Z</time>
      </trkpt>
      <trkpt lat="47.12883" lon="6.00802">
        <ele>448.2</ele>
        <time>2024-09-01T09:49:53Z</time>
      </trkpt>
      <trkpt lat="47.12886" lon="6.00809">
        <ele>448.2</ele>
        <time>2024-09-01T09:49:54Z</time>
      </trkpt>
      <trkpt lat="47.12891" lon="6.00814">
        <ele>448</ele>
        <time>2024-09-01T09:49:55Z</time>
      </trkpt>
      <trkpt lat="47.12896" lon="6.0082">
        <ele>448</ele>
        <time>2024-09-01T09:49:56Z</time>
      </trkpt>
      <trkpt lat="47.129" lon="6.00825">
        <ele>447.8</ele>
        <time>2024-09-01T09:49:57Z</time>
      </trkpt>
      <trkpt lat="47.12906" lon="6.00831">
        <ele>447.6</ele>
        <time>2024-09-01T09:49:58Z</time>
      </trkpt>
      <trkpt lat="47.12911" lon="6.00836">
        <ele>447.6</ele>
        <time>2024-09-01T09:49:59Z</time>
      </trkpt>
      <trkpt lat="47.12915" lon="6.00842">
        <ele>447.6</ele>
        <time>2024-09-01T09:50:00Z</time>
      </trkpt>
      <trkpt lat="47.1292" lon="6.00848">
        <ele>447.6</ele>
        <time>2024-09-01T09:50:01Z</time>
      </trkpt>
      <trkpt lat="47.12925" lon="6.00855">
        <ele>447.4</ele>
        <time>2024-09-01T09:50:02Z</time>
      </trkpt>
      <trkpt lat="47.12929" lon="6.00862">
        <ele>447.2</ele>
        <time>2024-09-01T09:50:03Z</time>
      </trkpt>
      <trkpt lat="47.12934" lon="6.00869">
        <ele>447</ele>
        <time>2024-09-01T09:50:04Z</time>
      </trkpt>
      <trkpt lat="47.12938" lon="6.00876">
        <ele>447.2</ele>
        <time>2024-09-01T09:50:05Z</time>
      </trkpt>
      <trkpt lat="47.12942" lon="6.00885">
        <ele>447</ele>
        <time>2024-09-01T09:50:06Z</time>
      </trkpt>
      <trkpt lat="47.12943" lon="6.00895">
        <ele>446.8</ele>
        <time>2024-09-01T09:50:07Z</time>
      </trkpt>
      <trkpt lat="47.12944" lon="6.00905">
        <ele>446.6</ele>
        <time>2024-09-01T09:50:08Z</time>
      </trkpt>
      <trkpt lat="47.12943" lon="6.00915">
        <ele>446.6</ele>
        <time>2024-09-01T09:50:09Z</time>
      </trkpt>
      <trkpt lat="47.12943" lon="6.00925">
        <ele>446.4</ele>
        <time>2024-09-01T09:50:10Z</time>
      </trkpt>
      <trkpt lat="47.12944" lon="6.00934">
        <ele>446.2</ele>
        <time>2024-09-01T09:50:11Z</time>
      </trkpt>
      <trkpt lat="47.12944" lon="6.00943">
        <ele>446.4</ele>
        <time>2024-09-01T09:50:12Z</time>
      </trkpt>
      <trkpt lat="47.12945" lon="6.00952">
        <ele>446.2</ele>
        <time>2024-09-01T09:50:13Z</time>
      </trkpt>
      <trkpt lat="47.12946" lon="6.00961">
        <ele>446.2</ele>
        <time>2024-09-01T09:50:14Z</time>
      </trkpt>
      <trkpt lat="47.12947" lon="6.0097">
        <ele>446.2</ele>
        <time>2024-09-01T09:50:15Z</time>
      </trkpt>
      <trkpt lat="47.12948" lon="6.00978">
        <ele>445.8</ele>
        <time>2024-09-01T09:50:16Z</time>
      </trkpt>
      <trkpt lat="47.1295" lon="6.00986">
        <ele>445.6</ele>
        <time>2024-09-01T09:50:17Z</time>
      </trkpt>
      <trkpt lat="47.12951" lon="6.00994">
        <ele>445.4</ele>
        <time>2024-09-01T09:50:18Z</time>
      </trkpt>
      <trkpt lat="47.12953" lon="6.01002">
        <ele>445.2</ele>
        <time>2024-09-01T09:50:19Z</time>
      </trkpt>
      <trkpt lat="47.12956" lon="6.01009">
        <ele>445.2</ele>
        <time>2024-09-01T09:50:20Z</time>
      </trkpt>
      <trkpt lat="47.1296" lon="6.01016">
        <ele>445.2</ele>
        <time>2024-09-01T09:50:21Z</time>
      </trkpt>
      <trkpt lat="47.12964" lon="6.01023">
        <ele>445.2</ele>
        <time>2024-09-01T09:50:22Z</time>
      </trkpt>
      <trkpt lat="47.12968" lon="6.0103">
        <ele>445.2</ele>
        <time>2024-09-01T09:50:23Z</time>
      </trkpt>
      <trkpt lat="47.12971" lon="6.01037">
        <ele>445</ele>
        <time>2024-09-01T09:50:24Z</time>
      </trkpt>
      <trkpt lat="47.12975" lon="6.01044">
        <ele>444.8</ele>
        <time>2024-09-01T09:50:25Z</time>
      </trkpt>
      <trkpt lat="47.12979" lon="6.0105">
        <ele>444.8</ele>
        <time>2024-09-01T09:50:26Z</time>
      </trkpt>
      <trkpt lat="47.12984" lon="6.01057">
        <ele>444.8</ele>
        <time>2024-09-01T09:50:27Z</time>
      </trkpt>
      <trkpt lat="47.12988" lon="6.01063">
        <ele>444.6</ele>
        <time>2024-09-01T09:50:28Z</time>
      </trkpt>
      <trkpt lat="47.12992" lon="6.01069">
        <ele>444.4</ele>
        <time>2024-09-01T09:50:29Z</time>
      </trkpt>
      <trkpt lat="47.12997" lon="6.01075">
        <ele>444.4</ele>
        <time>2024-09-01T09:50:30Z</time>
      </trkpt>
      <trkpt lat="47.13001" lon="6.01082">
        <ele>444.4</ele>
        <time>2024-09-01T09:50:31Z</time>
      </trkpt>
      <trkpt lat="47.13004" lon="6.01089">
        <ele>444.4</ele>
        <time>2024-09-01T09:50:32Z</time>
      </trkpt>
      <trkpt lat="47.13006" lon="6.01097">
        <ele>444</ele>
        <time>2024-09-01T09:50:33Z</time>
      </trkpt>
      <trkpt lat="47.13006" lon="6.01106">
        <ele>443.6</ele>
        <time>2024-09-01T09:50:34Z</time>
      </trkpt>
      <trkpt lat="47.13006" lon="6.01116">
        <ele>443.4</ele>
        <time>2024-09-01T09:50:35Z</time>
      </trkpt>
      <trkpt lat="47.13005" lon="6.01125">
        <ele>443.2</ele>
        <time>2024-09-01T09:50:36Z</time>
      </trkpt>
      <trkpt lat="47.13004" lon="6.01135">
        <ele>443.2</ele>
        <time>2024-09-01T09:50:37Z</time>
      </trkpt>
      <trkpt lat="47.13003" lon="6.01147">
        <ele>443</ele>
        <time>2024-09-01T09:50:38Z</time>
      </trkpt>
      <trkpt lat="47.13003" lon="6.01159">
        <ele>443.2</ele>
        <time>2024-09-01T09:50:39Z</time>
      </trkpt>
      <trkpt lat="47.13004" lon="6.01171">
        <ele>443</ele>
        <time>2024-09-01T09:50:40Z</time>
      </trkpt>
      <trkpt lat="47.13005" lon="6.01183">
        <ele>442.8</ele>
        <time>2024-09-01T09:50:41Z</time>
      </trkpt>
      <trkpt lat="47.13007" lon="6.01193">
        <ele>442.8</ele>
        <time>2024-09-01T09:50:42Z</time>
      </trkpt>
      <trkpt lat="47.1301" lon="6.01203">
        <ele>442.8</ele>
        <time>2024-09-01T09:50:43Z</time>
      </trkpt>
      <trkpt lat="47.13017" lon="6.01222">
        <ele>442.4</ele>
        <time>2024-09-01T09:50:44Z</time>
      </trkpt>
      <trkpt lat="47.13017" lon="6.01222">
        <ele>442.4</ele>
        <time>2024-09-01T09:50:45Z</time>
      </trkpt>
      <trkpt lat="47.1302" lon="6.01231">
        <ele>442.4</ele>
        <time>2024-09-01T09:50:46Z</time>
      </trkpt>
      <trkpt lat="47.13023" lon="6.01241">
        <ele>442.2</ele>
        <time>2024-09-01T09:50:47Z</time>
      </trkpt>
      <trkpt lat="47.13025" lon="6.0125">
        <ele>442.2</ele>
        <time>2024-09-01T09:50:48Z</time>
      </trkpt>
      <trkpt lat="47.13027" lon="6.0126">
        <ele>441.6</ele>
        <time>2024-09-01T09:50:49Z</time>
      </trkpt>
      <trkpt lat="47.1303" lon="6.0127">
        <ele>441.2</ele>
        <time>2024-09-01T09:50:50Z</time>
      </trkpt>
      <trkpt lat="47.13034" lon="6.01279">
        <ele>441.2</ele>
        <time>2024-09-01T09:50:51Z</time>
      </trkpt>
      <trkpt lat="47.13038" lon="6.01286">
        <ele>440.8</ele>
        <time>2024-09-01T09:50:52Z</time>
      </trkpt>
      <trkpt lat="47.13043" lon="6.01293">
        <ele>440.8</ele>
        <time>2024-09-01T09:50:53Z</time>
      </trkpt>
      <trkpt lat="47.13047" lon="6.01299">
        <ele>440.8</ele>
        <time>2024-09-01T09:50:54Z</time>
      </trkpt>
      <trkpt lat="47.13051" lon="6.01306">
        <ele>440.8</ele>
        <time>2024-09-01T09:50:55Z</time>
      </trkpt>
      <trkpt lat="47.13055" lon="6.01311">
        <ele>440.6</ele>
        <time>2024-09-01T09:50:56Z</time>
      </trkpt>
      <trkpt lat="47.1306" lon="6.01317">
        <ele>440.6</ele>
        <time>2024-09-01T09:50:57Z</time>
      </trkpt>
      <trkpt lat="47.13065" lon="6.01322">
        <ele>440.8</ele>
        <time>2024-09-01T09:50:58Z</time>
      </trkpt>
      <trkpt lat="47.1307" lon="6.01327">
        <ele>440.8</ele>
        <time>2024-09-01T09:50:59Z</time>
      </trkpt>
      <trkpt lat="47.13074" lon="6.01331">
        <ele>440.6</ele>
        <time>2024-09-01T09:51:00Z</time>
      </trkpt>
      <trkpt lat="47.13079" lon="6.01336">
        <ele>440.6</ele>
        <time>2024-09-01T09:51:01Z</time>
      </trkpt>
      <trkpt lat="47.13082" lon="6.01341">
        <ele>440.6</ele>
        <time>2024-09-01T09:51:02Z</time>
      </trkpt>
      <trkpt lat="47.13085" lon="6.01345">
        <ele>440.6</ele>
        <time>2024-09-01T09:51:03Z</time>
      </trkpt>
      <trkpt lat="47.13087" lon="6.01349">
        <ele>440.4</ele>
        <time>2024-09-01T09:51:04Z</time>
      </trkpt>
      <trkpt lat="47.1309" lon="6.01352">
        <ele>440.6</ele>
        <time>2024-09-01T09:51:05Z</time>
      </trkpt>
      <trkpt lat="47.13092" lon="6.01355">
        <ele>440.6</ele>
        <time>2024-09-01T09:51:06Z</time>
      </trkpt>
      <trkpt lat="47.13095" lon="6.01358">
        <ele>440.6</ele>
        <time>2024-09-01T09:51:07Z</time>
      </trkpt>
      <trkpt lat="47.13098" lon="6.01361">
        <ele>440.4</ele>
        <time>2024-09-01T09:51:08Z</time>
      </trkpt>
      <trkpt lat="47.13102" lon="6.01364">
        <ele>440.6</ele>
        <time>2024-09-01T09:51:09Z</time>
      </trkpt>
      <trkpt lat="47.13105" lon="6.01367">
        <ele>440.6</ele>
        <time>2024-09-01T09:51:10Z</time>
      </trkpt>
      <trkpt lat="47.13108" lon="6.01371">
        <ele>440.4</ele>
        <time>2024-09-01T09:51:11Z</time>
      </trkpt>
      <trkpt lat="47.1311" lon="6.01378">
        <ele>440.2</ele>
        <time>2024-09-01T09:51:12Z</time>
      </trkpt>
      <trkpt lat="47.13113" lon="6.01384">
        <ele>440</ele>
        <time>2024-09-01T09:51:13Z</time>
      </trkpt>
      <trkpt lat="47.13115" lon="6.01388">
        <ele>440.2</ele>
        <time>2024-09-01T09:51:14Z</time>
      </trkpt>
      <trkpt lat="47.13117" lon="6.01392">
        <ele>440</ele>
        <time>2024-09-01T09:51:15Z</time>
      </trkpt>
      <trkpt lat="47.13119" lon="6.01396">
        <ele>439.8</ele>
        <time>2024-09-01T09:51:16Z</time>
      </trkpt>
      <trkpt lat="47.13121" lon="6.014">
        <ele>439.6</ele>
        <time>2024-09-01T09:51:17Z</time>
      </trkpt>
      <trkpt lat="47.13122" lon="6.01403">
        <ele>439.8</ele>
        <time>2024-09-01T09:51:18Z</time>
      </trkpt>
      <trkpt lat="47.13124" lon="6.01407">
        <ele>439.8</ele>
        <time>2024-09-01T09:51:19Z</time>
      </trkpt>
      <trkpt lat="47.13124" lon="6.0141">
        <ele>439.6</ele>
        <time>2024-09-01T09:51:20Z</time>
      </trkpt>
      <trkpt lat="47.13125" lon="6.01413">
        <ele>439.6</ele>
        <time>2024-09-01T09:51:21Z</time>
      </trkpt>
      <trkpt lat="47.13126" lon="6.01416">
        <ele>439.6</ele>
        <time>2024-09-01T09:51:22Z</time>
      </trkpt>
      <trkpt lat="47.13127" lon="6.0142">
        <ele>439.4</ele>
        <time>2024-09-01T09:51:23Z</time>
      </trkpt>
      <trkpt lat="47.13128" lon="6.01422">
        <ele>439.6</ele>
        <time>2024-09-01T09:51:24Z</time>
      </trkpt>
      <trkpt lat="47.13129" lon="6.01425">
        <ele>439.6</ele>
        <time>2024-09-01T09:51:25Z</time>
      </trkpt>
      <trkpt lat="47.1313" lon="6.01427">
        <ele>439.6</ele>
        <time>2024-09-01T09:51:26Z</time>
      </trkpt>
      <trkpt lat="47.13131" lon="6.0143">
        <ele>439.6</ele>
        <time>2024-09-01T09:51:27Z</time>
      </trkpt>
      <trkpt lat="47.13132" lon="6.01433">
        <ele>439.4</ele>
        <time>2024-09-01T09:51:28Z</time>
      </trkpt>
      <trkpt lat="47.13133" lon="6.01435">
        <ele>439.6</ele>
        <time>2024-09-01T09:51:29Z</time>
      </trkpt>
      <trkpt lat="47.13134" lon="6.01438">
        <ele>439.4</ele>
        <time>2024-09-01T09:51:30Z</time>
      </trkpt>
      <trkpt lat="47.13134" lon="6.01441">
        <ele>439.6</ele>
        <time>2024-09-01T09:51:31Z</time>
      </trkpt>
      <trkpt lat="47.13134" lon="6.01443">
        <ele>439.4</ele>
        <time>2024-09-01T09:51:32Z</time>
      </trkpt>
      <trkpt lat="47.13134" lon="6.01446">
        <ele>439.4</ele>
        <time>2024-09-01T09:51:33Z</time>
      </trkpt>
      <trkpt lat="47.13134" lon="6.01448">
        <ele>439.6</ele>
        <time>2024-09-01T09:51:34Z</time>
      </trkpt>
      <trkpt lat="47.13135" lon="6.01449">
        <ele>439.4</ele>
        <time>2024-09-01T09:51:35Z</time>
      </trkpt>
      <trkpt lat="47.13135" lon="6.0145">
        <ele>439.4</ele>
        <time>2024-09-01T09:51:36Z</time>
      </trkpt>
      <trkpt lat="47.13135" lon="6.0145">
        <ele>439.2</ele>
        <time>2024-09-01T09:51:37Z</time>
      </trkpt>
      <trkpt lat="47.13135" lon="6.0145">
        <ele>439.4</ele>
        <time>2024-09-01T09:51:38Z</time>
      </trkpt>
      <trkpt lat="47.13135" lon="6.0145">
        <ele>439.4</ele>
        <time>2024-09-01T09:51:39Z</time>
      </trkpt>
      <trkpt lat="47.13135" lon="6.01451">
        <ele>439.2</ele>
        <time>2024-09-01T09:51:40Z</time>
      </trkpt>
      <trkpt lat="47.13135" lon="6.01453">
        <ele>439.2</ele>
        <time>2024-09-01T09:51:41Z</time>
      </trkpt>
      <trkpt lat="47.13136" lon="6.01454">
        <ele>439.2</ele>
        <time>2024-09-01T09:51:42Z</time>
      </trkpt>
      <trkpt lat="47.13136" lon="6.01456">
        <ele>439.4</ele>
        <time>2024-09-01T09:51:43Z</time>
      </trkpt>
      <trkpt lat="47.13136" lon="6.01456">
        <ele>439.2</ele>
        <time>2024-09-01T09:51:44Z</time>
      </trkpt>
      <trkpt lat="47.13137" lon="6.01458">
        <ele>439.2</ele>
        <time>2024-09-01T09:51:45Z</time>
      </trkpt>
      <trkpt lat="47.13137" lon="6.01458">
        <ele>439.2</ele>
        <time>2024-09-01T09:51:46Z</time>
      </trkpt>
      <trkpt lat="47.13137" lon="6.01459">
        <ele>439.4</ele>
        <time>2024-09-01T09:51:47Z</time>
      </trkpt>
      <trkpt lat="47.13137" lon="6.01459">
        <ele>439.4</ele>
        <time>2024-09-01T09:51:48Z</time>
      </trkpt>
      <trkpt lat="47.13137" lon="6.0146">
        <ele>439.4</ele>
        <time>2024-09-01T09:51:49Z</time>
      </trkpt>
      <trkpt lat="47.13137" lon="6.0146">
        <ele>439.2</ele>
        <time>2024-09-01T09:51:50Z</time>
      </trkpt>
      <trkpt lat="47.13137" lon="6.01461">
        <ele>439.4</ele>
        <time>2024-09-01T09:51:51Z</time>
      </trkpt>
      <trkpt lat="47.13137" lon="6.01462">
        <ele>439.4</ele>
        <time>2024-09-01T09:51:52Z</time>
      </trkpt>
      <trkpt lat="47.13137" lon="6.01462">
        <ele>439.4</ele>
        <time>2024-09-01T09:51:53Z</time>
      </trkpt>
      <trkpt lat="47.13137" lon="6.01461">
        <ele>439.4</ele>
        <time>2024-09-01T09:51:54Z</time>
      </trkpt>
      <trkpt lat="47.13137" lon="6.0146">
        <ele>439.4</ele>
        <time>2024-09-01T09:51:55Z</time>
      </trkpt>
      <trkpt lat="47.13137" lon="6.0146">
        <ele>439.2</ele>
        <time>2024-09-01T09:51:56Z</time>
      </trkpt>
      <trkpt lat="47.13137" lon="6.01459">
        <ele>439.4</ele>
        <time>2024-09-01T09:51:57Z</time>
      </trkpt>
      <trkpt lat="47.13137" lon="6.01459">
        <ele>439.4</ele>
        <time>2024-09-01T09:51:58Z</time>
      </trkpt>
      <trkpt lat="47.13137" lon="6.01459">
        <ele>439.4</ele>
        <time>2024-09-01T09:51:59Z</time>
      </trkpt>
      <trkpt lat="47.13137" lon="6.01459">
        <ele>439.6</ele>
        <time>2024-09-01T09:52:00Z</time>
      </trkpt>
      <trkpt lat="47.13137" lon="6.01459">
        <ele>439.6</ele>
        <time>2024-09-01T09:52:01Z</time>
      </trkpt>
      <trkpt lat="47.13137" lon="6.01459">
        <ele>439.6</ele>
        <time>2024-09-01T09:52:02Z</time>
      </trkpt>
      <trkpt lat="47.13137" lon="6.0146">
        <ele>439.4</ele>
        <time>2024-09-01T09:52:03Z</time>
      </trkpt>
      <trkpt lat="47.13137" lon="6.0146">
        <ele>439.6</ele>
        <time>2024-09-01T09:52:04Z</time>
      </trkpt>
      <trkpt lat="47.13136" lon="6.0146">
        <ele>439.6</ele>
        <time>2024-09-01T09:52:05Z</time>
      </trkpt>
      <trkpt lat="47.13136" lon="6.0146">
        <ele>439.6</ele>
        <time>2024-09-01T09:52:06Z</time>
      </trkpt>
      <trkpt lat="47.13137" lon="6.01461">
        <ele>439.4</ele>
        <time>2024-09-01T09:52:07Z</time>
      </trkpt>
      <trkpt lat="47.13138" lon="6.01462">
        <ele>439.6</ele>
        <time>2024-09-01T09:52:08Z</time>
      </trkpt>
      <trkpt lat="47.13138" lon="6.01463">
        <ele>439.4</ele>
        <time>2024-09-01T09:52:09Z</time>
      </trkpt>
      <trkpt lat="47.13139" lon="6.01464">
        <ele>439.4</ele>
        <time>2024-09-01T09:52:10Z</time>
      </trkpt>
      <trkpt lat="47.13141" lon="6.01466">
        <ele>439.6</ele>
        <time>2024-09-01T09:52:11Z</time>
      </trkpt>
      <trkpt lat="47.13143" lon="6.01468">
        <ele>439.6</ele>
        <time>2024-09-01T09:52:12Z</time>
      </trkpt>
      <trkpt lat="47.13145" lon="6.01471">
        <ele>439.6</ele>
        <time>2024-09-01T09:52:13Z</time>
      </trkpt>
      <trkpt lat="47.13148" lon="6.01474">
        <ele>439.6</ele>
        <time>2024-09-01T09:52:14Z</time>
      </trkpt>
      <trkpt lat="47.1315" lon="6.01478">
        <ele>439.4</ele>
        <time>2024-09-01T09:52:15Z</time>
      </trkpt>
      <trkpt lat="47.13153" lon="6.01482">
        <ele>439.4</ele>
        <time>2024-09-01T09:52:16Z</time>
      </trkpt>
      <trkpt lat="47.13156" lon="6.01486">
        <ele>439.4</ele>
        <time>2024-09-01T09:52:17Z</time>
      </trkpt>
      <trkpt lat="47.13159" lon="6.01489">
        <ele>439.4</ele>
        <time>2024-09-01T09:52:18Z</time>
      </trkpt>
      <trkpt lat="47.13163" lon="6.01492">
        <ele>439.6</ele>
        <time>2024-09-01T09:52:19Z</time>
      </trkpt>
      <trkpt lat="47.13167" lon="6.01495">
        <ele>439.6</ele>
        <time>2024-09-01T09:52:20Z</time>
      </trkpt>
      <trkpt lat="47.13171" lon="6.01498">
        <ele>439.4</ele>
        <time>2024-09-01T09:52:21Z</time>
      </trkpt>
      <trkpt lat="47.13175" lon="6.015">
        <ele>439.4</ele>
        <time>2024-09-01T09:52:22Z</time>
      </trkpt>
      <trkpt lat="47.13179" lon="6.01503">
        <ele>439.4</ele>
        <time>2024-09-01T09:52:23Z</time>
      </trkpt>
      <trkpt lat="47.13182" lon="6.01507">
        <ele>439.2</ele>
        <time>2024-09-01T09:52:24Z</time>
      </trkpt>
      <trkpt lat="47.13187" lon="6.0151">
        <ele>439.2</ele>
        <time>2024-09-01T09:52:25Z</time>
      </trkpt>
      <trkpt lat="47.13192" lon="6.01515">
        <ele>439</ele>
        <time>2024-09-01T09:52:26Z</time>
      </trkpt>
      <trkpt lat="47.13196" lon="6.01519">
        <ele>439.2</ele>
        <time>2024-09-01T09:52:27Z</time>
      </trkpt>
      <trkpt lat="47.13201" lon="6.01525">
        <ele>439.2</ele>
        <time>2024-09-01T09:52:28Z</time>
      </trkpt>
      <trkpt lat="47.13204" lon="6.0153">
        <ele>439</ele>
        <time>2024-09-01T09:52:29Z</time>
      </trkpt>
      <trkpt lat="47.13207" lon="6.01535">
        <ele>439.2</ele>
        <time>2024-09-01T09:52:30Z</time>
      </trkpt>
      <trkpt lat="47.13211" lon="6.0154">
        <ele>439.2</ele>
        <time>2024-09-01T09:52:31Z</time>
      </trkpt>
      <trkpt lat="47.13214" lon="6.01545">
        <ele>439.2</ele>
        <time>2024-09-01T09:52:32Z</time>
      </trkpt>
      <trkpt lat="47.13217" lon="6.0155">
        <ele>439.2</ele>
        <time>2024-09-01T09:52:33Z</time>
      </trkpt>
      <trkpt lat="47.1322" lon="6.01555">
        <ele>439.2</ele>
        <time>2024-09-01T09:52:34Z</time>
      </trkpt>
      <trkpt lat="47.13223" lon="6.0156">
        <ele>439</ele>
        <time>2024-09-01T09:52:35Z</time>
      </trkpt>
      <trkpt lat="47.13225" lon="6.01565">
        <ele>439.2</ele>
        <time>2024-09-01T09:52:36Z</time>
      </trkpt>
      <trkpt lat="47.13229" lon="6.01571">
        <ele>439.2</ele>
        <time>2024-09-01T09:52:37Z</time>
      </trkpt>
      <trkpt lat="47.13232" lon="6.01576">
        <ele>439</ele>
        <time>2024-09-01T09:52:38Z</time>
      </trkpt>
      <trkpt lat="47.13236" lon="6.01583">
        <ele>439</ele>
        <time>2024-09-01T09:52:39Z</time>
      </trkpt>
      <trkpt lat="47.1324" lon="6.01589">
        <ele>439.2</ele>
        <time>2024-09-01T09:52:40Z</time>
      </trkpt>
      <trkpt lat="47.13243" lon="6.01594">
        <ele>439.2</ele>
        <time>2024-09-01T09:52:41Z</time>
      </trkpt>
      <trkpt lat="47.13247" lon="6.01599">
        <ele>439.2</ele>
        <time>2024-09-01T09:52:42Z</time>
      </trkpt>
      <trkpt lat="47.13251" lon="6.01604">
        <ele>439.2</ele>
        <time>2024-09-01T09:52:43Z</time>
      </trkpt>
      <trkpt lat="47.13258" lon="6.01615">
        <ele>439.2</ele>
        <time>2024-09-01T09:52:44Z</time>
      </trkpt>
      <trkpt lat="47.13258" lon="6.01615">
        <ele>439.4</ele>
        <time>2024-09-01T09:52:45Z</time>
      </trkpt>
      <trkpt lat="47.13261" lon="6.0162">
        <ele>439.4</ele>
        <time>2024-09-01T09:52:46Z</time>
      </trkpt>
      <trkpt lat="47.13263" lon="6.01626">
        <ele>439.6</ele>
        <time>2024-09-01T09:52:47Z</time>
      </trkpt>
      <trkpt lat="47.13265" lon="6.01633">
        <ele>439.6</ele>
        <time>2024-09-01T09:52:48Z</time>
      </trkpt>
      <trkpt lat="47.13265" lon="6.01639">
        <ele>439.8</ele>
        <time>2024-09-01T09:52:49Z</time>
      </trkpt>
      <trkpt lat="47.13266" lon="6.01645">
        <ele>440</ele>
        <time>2024-09-01T09:52:50Z</time>
      </trkpt>
      <trkpt lat="47.13266" lon="6.01652">
        <ele>440.2</ele>
        <time>2024-09-01T09:52:51Z</time>
      </trkpt>
      <trkpt lat="47.13267" lon="6.01657">
        <ele>440.4</ele>
        <time>2024-09-01T09:52:52Z</time>
      </trkpt>
      <trkpt lat="47.13268" lon="6.01663">
        <ele>440.6</ele>
        <time>2024-09-01T09:52:53Z</time>
      </trkpt>
      <trkpt lat="47.13269" lon="6.0167">
        <ele>440.4</ele>
        <time>2024-09-01T09:52:54Z</time>
      </trkpt>
      <trkpt lat="47.13269" lon="6.01677">
        <ele>440.8</ele>
        <time>2024-09-01T09:52:55Z</time>
      </trkpt>
      <trkpt lat="47.1327" lon="6.01683">
        <ele>440.8</ele>
        <time>2024-09-01T09:52:56Z</time>
      </trkpt>
      <trkpt lat="47.13271" lon="6.01689">
        <ele>441.2</ele>
        <time>2024-09-01T09:52:57Z</time>
      </trkpt>
      <trkpt lat="47.13273" lon="6.01696">
        <ele>441.2</ele>
        <time>2024-09-01T09:52:58Z</time>
      </trkpt>
      <trkpt lat="47.13274" lon="6.01703">
        <ele>441.4</ele>
        <time>2024-09-01T09:52:59Z</time>
      </trkpt>
      <trkpt lat="47.13276" lon="6.0171">
        <ele>441.8</ele>
        <time>2024-09-01T09:53:00Z</time>
      </trkpt>
      <trkpt lat="47.13278" lon="6.01717">
        <ele>441.8</ele>
        <time>2024-09-01T09:53:01Z</time>
      </trkpt>
      <trkpt lat="47.1328" lon="6.01723">
        <ele>441.8</ele>
        <time>2024-09-01T09:53:02Z</time>
      </trkpt>
      <trkpt lat="47.13282" lon="6.01729">
        <ele>442</ele>
        <time>2024-09-01T09:53:03Z</time>
      </trkpt>
      <trkpt lat="47.13283" lon="6.01734">
        <ele>442.2</ele>
        <time>2024-09-01T09:53:04Z</time>
      </trkpt>
      <trkpt lat="47.13285" lon="6.01739">
        <ele>442.2</ele>
        <time>2024-09-01T09:53:05Z</time>
      </trkpt>
      <trkpt lat="47.13287" lon="6.01743">
        <ele>442.4</ele>
        <time>2024-09-01T09:53:06Z</time>
      </trkpt>
      <trkpt lat="47.1329" lon="6.01746">
        <ele>442.4</ele>
        <time>2024-09-01T09:53:07Z</time>
      </trkpt>
      <trkpt lat="47.13293" lon="6.01749">
        <ele>442.6</ele>
        <time>2024-09-01T09:53:08Z</time>
      </trkpt>
      <trkpt lat="47.13297" lon="6.01752">
        <ele>442.8</ele>
        <time>2024-09-01T09:53:09Z</time>
      </trkpt>
      <trkpt lat="47.13301" lon="6.01754">
        <ele>442.8</ele>
        <time>2024-09-01T09:53:10Z</time>
      </trkpt>
      <trkpt lat="47.13305" lon="6.01756">
        <ele>442.8</ele>
        <time>2024-09-01T09:53:11Z</time>
      </trkpt>
      <trkpt lat="47.1331" lon="6.01756">
        <ele>442.8</ele>
        <time>2024-09-01T09:53:12Z</time>
      </trkpt>
      <trkpt lat="47.13316" lon="6.01756">
        <ele>442.8</ele>
        <time>2024-09-01T09:53:13Z</time>
      </trkpt>
      <trkpt lat="47.13322" lon="6.01756">
        <ele>442.8</ele>
        <time>2024-09-01T09:53:14Z</time>
      </trkpt>
      <trkpt lat="47.13328" lon="6.01757">
        <ele>442.8</ele>
        <time>2024-09-01T09:53:15Z</time>
      </trkpt>
      <trkpt lat="47.13334" lon="6.01758">
        <ele>442.8</ele>
        <time>2024-09-01T09:53:16Z</time>
      </trkpt>
      <trkpt lat="47.1334" lon="6.01761">
        <ele>442.8</ele>
        <time>2024-09-01T09:53:17Z</time>
      </trkpt>
      <trkpt lat="47.13345" lon="6.01764">
        <ele>442.6</ele>
        <time>2024-09-01T09:53:18Z</time>
      </trkpt>
      <trkpt lat="47.13351" lon="6.01769">
        <ele>442.8</ele>
        <time>2024-09-01T09:53:19Z</time>
      </trkpt>
      <trkpt lat="47.13356" lon="6.01776">
        <ele>442.4</ele>
        <time>2024-09-01T09:53:20Z</time>
      </trkpt>
      <trkpt lat="47.13361" lon="6.01783">
        <ele>442.4</ele>
        <time>2024-09-01T09:53:21Z</time>
      </trkpt>
      <trkpt lat="47.13365" lon="6.0179">
        <ele>442</ele>
        <time>2024-09-01T09:53:22Z</time>
      </trkpt>
      <trkpt lat="47.13369" lon="6.01797">
        <ele>442.2</ele>
        <time>2024-09-01T09:53:23Z</time>
      </trkpt>
      <trkpt lat="47.13372" lon="6.01804">
        <ele>441.8</ele>
        <time>2024-09-01T09:53:24Z</time>
      </trkpt>
      <trkpt lat="47.13374" lon="6.0181">
        <ele>442</ele>
        <time>2024-09-01T09:53:25Z</time>
      </trkpt>
      <trkpt lat="47.13377" lon="6.01816">
        <ele>442</ele>
        <time>2024-09-01T09:53:26Z</time>
      </trkpt>
      <trkpt lat="47.13379" lon="6.01821">
        <ele>441.8</ele>
        <time>2024-09-01T09:53:27Z</time>
      </trkpt>
      <trkpt lat="47.13381" lon="6.01826">
        <ele>441.8</ele>
        <time>2024-09-01T09:53:28Z</time>
      </trkpt>
      <trkpt lat="47.13382" lon="6.01831">
        <ele>442</ele>
        <time>2024-09-01T09:53:29Z</time>
      </trkpt>
      <trkpt lat="47.13383" lon="6.01836">
        <ele>442</ele>
        <time>2024-09-01T09:53:30Z</time>
      </trkpt>
      <trkpt lat="47.13384" lon="6.01842">
        <ele>441.8</ele>
        <time>2024-09-01T09:53:31Z</time>
      </trkpt>
      <trkpt lat="47.13385" lon="6.01848">
        <ele>442</ele>
        <time>2024-09-01T09:53:32Z</time>
      </trkpt>
      <trkpt lat="47.13386" lon="6.01854">
        <ele>442</ele>
        <time>2024-09-01T09:53:33Z</time>
      </trkpt>
      <trkpt lat="47.13387" lon="6.0186">
        <ele>442.2</ele>
        <time>2024-09-01T09:53:34Z</time>
      </trkpt>
      <trkpt lat="47.13388" lon="6.01867">
        <ele>442</ele>
        <time>2024-09-01T09:53:35Z</time>
      </trkpt>
      <trkpt lat="47.13389" lon="6.01873">
        <ele>442.2</ele>
        <time>2024-09-01T09:53:36Z</time>
      </trkpt>
      <trkpt lat="47.1339" lon="6.01879">
        <ele>442.4</ele>
        <time>2024-09-01T09:53:37Z</time>
      </trkpt>
      <trkpt lat="47.13391" lon="6.01885">
        <ele>442.4</ele>
        <time>2024-09-01T09:53:38Z</time>
      </trkpt>
      <trkpt lat="47.13392" lon="6.01891">
        <ele>442.4</ele>
        <time>2024-09-01T09:53:39Z</time>
      </trkpt>
      <trkpt lat="47.13392" lon="6.01897">
        <ele>442.4</ele>
        <time>2024-09-01T09:53:40Z</time>
      </trkpt>
      <trkpt lat="47.13393" lon="6.01902">
        <ele>442.4</ele>
        <time>2024-09-01T09:53:41Z</time>
      </trkpt>
      <trkpt lat="47.13392" lon="6.01907">
        <ele>442.4</ele>
        <time>2024-09-01T09:53:42Z</time>
      </trkpt>
      <trkpt lat="47.13392" lon="6.01911">
        <ele>442.6</ele>
        <time>2024-09-01T09:53:43Z</time>
      </trkpt>
      <trkpt lat="47.1339" lon="6.01915">
        <ele>442.6</ele>
        <time>2024-09-01T09:53:44Z</time>
      </trkpt>
      <trkpt lat="47.13389" lon="6.01919">
        <ele>442.8</ele>
        <time>2024-09-01T09:53:45Z</time>
      </trkpt>
      <trkpt lat="47.13387" lon="6.01923">
        <ele>443</ele>
        <time>2024-09-01T09:53:46Z</time>
      </trkpt>
      <trkpt lat="47.13386" lon="6.01928">
        <ele>443</ele>
        <time>2024-09-01T09:53:47Z</time>
      </trkpt>
      <trkpt lat="47.13385" lon="6.01933">
        <ele>443.4</ele>
        <time>2024-09-01T09:53:48Z</time>
      </trkpt>
      <trkpt lat="47.13385" lon="6.01938">
        <ele>443.4</ele>
        <time>2024-09-01T09:53:49Z</time>
      </trkpt>
      <trkpt lat="47.13385" lon="6.01944">
        <ele>443.4</ele>
        <time>2024-09-01T09:53:50Z</time>
      </trkpt>
      <trkpt lat="47.13385" lon="6.0195">
        <ele>443.6</ele>
        <time>2024-09-01T09:53:51Z</time>
      </trkpt>
      <trkpt lat="47.13386" lon="6.01957">
        <ele>443.4</ele>
        <time>2024-09-01T09:53:52Z</time>
      </trkpt>
      <trkpt lat="47.13385" lon="6.01965">
        <ele>443.6</ele>
        <time>2024-09-01T09:53:53Z</time>
      </trkpt>
      <trkpt lat="47.13385" lon="6.01972">
        <ele>443.6</ele>
        <time>2024-09-01T09:53:54Z</time>
      </trkpt>
      <trkpt lat="47.13385" lon="6.01979">
        <ele>443.6</ele>
        <time>2024-09-01T09:53:55Z</time>
      </trkpt>
      <trkpt lat="47.13385" lon="6.01986">
        <ele>443.6</ele>
        <time>2024-09-01T09:53:56Z</time>
      </trkpt>
      <trkpt lat="47.13385" lon="6.01993">
        <ele>443.8</ele>
        <time>2024-09-01T09:53:57Z</time>
      </trkpt>
      <trkpt lat="47.13386" lon="6.02">
        <ele>443.6</ele>
        <time>2024-09-01T09:53:58Z</time>
      </trkpt>
      <trkpt lat="47.13387" lon="6.02011">
        <ele>443.6</ele>
        <time>2024-09-01T09:53:59Z</time>
      </trkpt>
      <trkpt lat="47.13387" lon="6.02011">
        <ele>443.8</ele>
        <time>2024-09-01T09:54:00Z</time>
      </trkpt>
      <trkpt lat="47.13388" lon="6.02023">
        <ele>443.8</ele>
        <time>2024-09-01T09:54:01Z</time>
      </trkpt>
      <trkpt lat="47.13388" lon="6.02023">
        <ele>444</ele>
        <time>2024-09-01T09:54:02Z</time>
      </trkpt>
      <trkpt lat="47.13389" lon="6.02028">
        <ele>444</ele>
        <time>2024-09-01T09:54:03Z</time>
      </trkpt>
      <trkpt lat="47.1339" lon="6.02033">
        <ele>444.2</ele>
        <time>2024-09-01T09:54:04Z</time>
      </trkpt>
      <trkpt lat="47.13391" lon="6.02039">
        <ele>444.4</ele>
        <time>2024-09-01T09:54:05Z</time>
      </trkpt>
      <trkpt lat="47.13392" lon="6.02044">
        <ele>444.2</ele>
        <time>2024-09-01T09:54:06Z</time>
      </trkpt>
      <trkpt lat="47.13392" lon="6.0205">
        <ele>444.4</ele>
        <time>2024-09-01T09:54:07Z</time>
      </trkpt>
      <trkpt lat="47.13392" lon="6.02056">
        <ele>444.4</ele>
        <time>2024-09-01T09:54:08Z</time>
      </trkpt>
      <trkpt lat="47.13393" lon="6.02062">
        <ele>444.4</ele>
        <time>2024-09-01T09:54:09Z</time>
      </trkpt>
      <trkpt lat="47.13393" lon="6.02067">
        <ele>444.4</ele>
        <time>2024-09-01T09:54:10Z</time>
      </trkpt>
      <trkpt lat="47.13394" lon="6.02073">
        <ele>444.6</ele>
        <time>2024-09-01T09:54:11Z</time>
      </trkpt>
      <trkpt lat="47.13395" lon="6.02079">
        <ele>444.4</ele>
        <time>2024-09-01T09:54:12Z</time>
      </trkpt>
      <trkpt lat="47.13396" lon="6.02085">
        <ele>444.6</ele>
        <time>2024-09-01T09:54:13Z</time>
      </trkpt>
      <trkpt lat="47.13397" lon="6.02092">
        <ele>444.6</ele>
        <time>2024-09-01T09:54:14Z</time>
      </trkpt>
      <trkpt lat="47.13396" lon="6.02098">
        <ele>444.6</ele>
        <time>2024-09-01T09:54:15Z</time>
      </trkpt>
      <trkpt lat="47.13396" lon="6.02104">
        <ele>444.8</ele>
        <time>2024-09-01T09:54:16Z</time>
      </trkpt>
      <trkpt lat="47.13396" lon="6.0211">
        <ele>444.6</ele>
        <time>2024-09-01T09:54:17Z</time>
      </trkpt>
      <trkpt lat="47.13397" lon="6.02115">
        <ele>444.8</ele>
        <time>2024-09-01T09:54:18Z</time>
      </trkpt>
      <trkpt lat="47.13398" lon="6.0212">
        <ele>445</ele>
        <time>2024-09-01T09:54:19Z</time>
      </trkpt>
      <trkpt lat="47.13399" lon="6.02125">
        <ele>445</ele>
        <time>2024-09-01T09:54:20Z</time>
      </trkpt>
      <trkpt lat="47.13401" lon="6.02129">
        <ele>445</ele>
        <time>2024-09-01T09:54:21Z</time>
      </trkpt>
      <trkpt lat="47.13403" lon="6.02134">
        <ele>444.8</ele>
        <time>2024-09-01T09:54:22Z</time>
      </trkpt>
      <trkpt lat="47.13404" lon="6.02139">
        <ele>445</ele>
        <time>2024-09-01T09:54:23Z</time>
      </trkpt>
      <trkpt lat="47.13407" lon="6.02144">
        <ele>445</ele>
        <time>2024-09-01T09:54:24Z</time>
      </trkpt>
      <trkpt lat="47.13409" lon="6.02148">
        <ele>445.2</ele>
        <time>2024-09-01T09:54:25Z</time>
      </trkpt>
      <trkpt lat="47.13411" lon="6.02153">
        <ele>445</ele>
        <time>2024-09-01T09:54:26Z</time>
      </trkpt>
      <trkpt lat="47.13414" lon="6.02157">
        <ele>445.2</ele>
        <time>2024-09-01T09:54:27Z</time>
      </trkpt>
      <trkpt lat="47.13417" lon="6.02161">
        <ele>445.2</ele>
        <time>2024-09-01T09:54:28Z</time>
      </trkpt>
      <trkpt lat="47.13421" lon="6.02165">
        <ele>445.2</ele>
        <time>2024-09-01T09:54:29Z</time>
      </trkpt>
      <trkpt lat="47.13424" lon="6.02169">
        <ele>445.4</ele>
        <time>2024-09-01T09:54:30Z</time>
      </trkpt>
      <trkpt lat="47.13427" lon="6.02173">
        <ele>445.2</ele>
        <time>2024-09-01T09:54:31Z</time>
      </trkpt>
      <trkpt lat="47.1343" lon="6.02176">
        <ele>445.4</ele>
        <time>2024-09-01T09:54:32Z</time>
      </trkpt>
      <trkpt lat="47.13433" lon="6.0218">
        <ele>445.4</ele>
        <time>2024-09-01T09:54:33Z</time>
      </trkpt>
      <trkpt lat="47.13436" lon="6.02185">
        <ele>445.2</ele>
        <time>2024-09-01T09:54:34Z</time>
      </trkpt>
      <trkpt lat="47.13438" lon="6.02191">
        <ele>445.4</ele>
        <time>2024-09-01T09:54:35Z</time>
      </trkpt>
      <trkpt lat="47.13441" lon="6.02197">
        <ele>445.2</ele>
        <time>2024-09-01T09:54:36Z</time>
      </trkpt>
      <trkpt lat="47.13443" lon="6.02202">
        <ele>445.2</ele>
        <time>2024-09-01T09:54:37Z</time>
      </trkpt>
      <trkpt lat="47.13446" lon="6.02208">
        <ele>445.4</ele>
        <time>2024-09-01T09:54:38Z</time>
      </trkpt>
      <trkpt lat="47.13448" lon="6.02213">
        <ele>445.6</ele>
        <time>2024-09-01T09:54:39Z</time>
      </trkpt>
      <trkpt lat="47.13449" lon="6.02218">
        <ele>445.4</ele>
        <time>2024-09-01T09:54:40Z</time>
      </trkpt>
      <trkpt lat="47.13449" lon="6.02224">
        <ele>445.4</ele>
        <time>2024-09-01T09:54:41Z</time>
      </trkpt>
      <trkpt lat="47.1345" lon="6.02229">
        <ele>445.4</ele>
        <time>2024-09-01T09:54:42Z</time>
      </trkpt>
      <trkpt lat="47.13451" lon="6.02236">
        <ele>445.4</ele>
        <time>2024-09-01T09:54:43Z</time>
      </trkpt>
      <trkpt lat="47.13452" lon="6.02241">
        <ele>445.4</ele>
        <time>2024-09-01T09:54:44Z</time>
      </trkpt>
      <trkpt lat="47.13453" lon="6.02247">
        <ele>445.4</ele>
        <time>2024-09-01T09:54:45Z</time>
      </trkpt>
      <trkpt lat="47.13454" lon="6.02252">
        <ele>445.6</ele>
        <time>2024-09-01T09:54:46Z</time>
      </trkpt>
      <trkpt lat="47.13455" lon="6.02257">
        <ele>445.6</ele>
        <time>2024-09-01T09:54:47Z</time>
      </trkpt>
      <trkpt lat="47.13455" lon="6.02261">
        <ele>445.6</ele>
        <time>2024-09-01T09:54:48Z</time>
      </trkpt>
      <trkpt lat="47.13455" lon="6.02265">
        <ele>446</ele>
        <time>2024-09-01T09:54:49Z</time>
      </trkpt>
      <trkpt lat="47.13456" lon="6.02269">
        <ele>446.2</ele>
        <time>2024-09-01T09:54:50Z</time>
      </trkpt>
      <trkpt lat="47.13457" lon="6.02273">
        <ele>446.4</ele>
        <time>2024-09-01T09:54:51Z</time>
      </trkpt>
      <trkpt lat="47.13458" lon="6.02277">
        <ele>446.4</ele>
        <time>2024-09-01T09:54:52Z</time>
      </trkpt>
      <trkpt lat="47.13459" lon="6.02281">
        <ele>446.6</ele>
        <time>2024-09-01T09:54:53Z</time>
      </trkpt>
      <trkpt lat="47.13459" lon="6.02285">
        <ele>446.8</ele>
        <time>2024-09-01T09:54:54Z</time>
      </trkpt>
      <trkpt lat="47.1346" lon="6.02288">
        <ele>447</ele>
        <time>2024-09-01T09:54:55Z</time>
      </trkpt>
      <trkpt lat="47.1346" lon="6.02293">
        <ele>447</ele>
        <time>2024-09-01T09:54:56Z</time>
      </trkpt>
      <trkpt lat="47.1346" lon="6.02297">
        <ele>447</ele>
        <time>2024-09-01T09:54:57Z</time>
      </trkpt>
      <trkpt lat="47.1346" lon="6.02301">
        <ele>447.2</ele>
        <time>2024-09-01T09:54:58Z</time>
      </trkpt>
      <trkpt lat="47.13459" lon="6.02306">
        <ele>447.2</ele>
        <time>2024-09-01T09:54:59Z</time>
      </trkpt>
      <trkpt lat="47.13459" lon="6.02313">
        <ele>447.4</ele>
        <time>2024-09-01T09:55:00Z</time>
      </trkpt>
      <trkpt lat="47.13459" lon="6.02318">
        <ele>447.4</ele>
        <time>2024-09-01T09:55:01Z</time>
      </trkpt>
      <trkpt lat="47.13459" lon="6.02324">
        <ele>447.6</ele>
        <time>2024-09-01T09:55:02Z</time>
      </trkpt>
      <trkpt lat="47.1346" lon="6.02328">
        <ele>447.8</ele>
        <time>2024-09-01T09:55:03Z</time>
      </trkpt>
      <trkpt lat="47.13461" lon="6.02332">
        <ele>447.8</ele>
        <time>2024-09-01T09:55:04Z</time>
      </trkpt>
      <trkpt lat="47.13461" lon="6.02336">
        <ele>448.2</ele>
        <time>2024-09-01T09:55:05Z</time>
      </trkpt>
      <trkpt lat="47.13462" lon="6.02339">
        <ele>448.2</ele>
        <time>2024-09-01T09:55:06Z</time>
      </trkpt>
      <trkpt lat="47.13463" lon="6.02342">
        <ele>448.4</ele>
        <time>2024-09-01T09:55:07Z</time>
      </trkpt>
      <trkpt lat="47.13464" lon="6.02345">
        <ele>448.4</ele>
        <time>2024-09-01T09:55:08Z</time>
      </trkpt>
      <trkpt lat="47.13466" lon="6.02349">
        <ele>448.6</ele>
        <time>2024-09-01T09:55:09Z</time>
      </trkpt>
      <trkpt lat="47.13467" lon="6.02353">
        <ele>448.8</ele>
        <time>2024-09-01T09:55:10Z</time>
      </trkpt>
      <trkpt lat="47.13469" lon="6.02357">
        <ele>448.8</ele>
        <time>2024-09-01T09:55:11Z</time>
      </trkpt>
      <trkpt lat="47.1347" lon="6.02361">
        <ele>449.2</ele>
        <time>2024-09-01T09:55:12Z</time>
      </trkpt>
      <trkpt lat="47.13471" lon="6.02366">
        <ele>449.2</ele>
        <time>2024-09-01T09:55:13Z</time>
      </trkpt>
      <trkpt lat="47.13474" lon="6.02471">
        <ele>452.2</ele>
        <time>2024-09-01T09:55:31Z</time>
      </trkpt>
      <trkpt lat="47.13472" lon="6.02481">
        <ele>452.2</ele>
        <time>2024-09-01T09:55:32Z</time>
      </trkpt>
      <trkpt lat="47.13482" lon="6.02488">
        <ele>452</ele>
        <time>2024-09-01T09:55:33Z</time>
      </trkpt>
      <trkpt lat="47.13483" lon="6.02492">
        <ele>452</ele>
        <time>2024-09-01T09:55:34Z</time>
      </trkpt>
      <trkpt lat="47.13484" lon="6.02498">
        <ele>452</ele>
        <time>2024-09-01T09:55:35Z</time>
      </trkpt>
      <trkpt lat="47.13485" lon="6.02504">
        <ele>452</ele>
        <time>2024-09-01T09:55:36Z</time>
      </trkpt>
      <trkpt lat="47.13487" lon="6.02509">
        <ele>452</ele>
        <time>2024-09-01T09:55:37Z</time>
      </trkpt>
      <trkpt lat="47.13489" lon="6.02514">
        <ele>452</ele>
        <time>2024-09-01T09:55:38Z</time>
      </trkpt>
      <trkpt lat="47.13492" lon="6.02519">
        <ele>451.4</ele>
        <time>2024-09-01T09:55:39Z</time>
      </trkpt>
      <trkpt lat="47.13494" lon="6.02524">
        <ele>451.4</ele>
        <time>2024-09-01T09:55:40Z</time>
      </trkpt>
      <trkpt lat="47.13497" lon="6.02531">
        <ele>451.2</ele>
        <time>2024-09-01T09:55:41Z</time>
      </trkpt>
      <trkpt lat="47.135" lon="6.02538">
        <ele>451.2</ele>
        <time>2024-09-01T09:55:42Z</time>
      </trkpt>
      <trkpt lat="47.13503" lon="6.02544">
        <ele>451</ele>
        <time>2024-09-01T09:55:43Z</time>
      </trkpt>
      <trkpt lat="47.13504" lon="6.02549">
        <ele>451</ele>
        <time>2024-09-01T09:55:44Z</time>
      </trkpt>
      <trkpt lat="47.13506" lon="6.02554">
        <ele>451.2</ele>
        <time>2024-09-01T09:55:45Z</time>
      </trkpt>
      <trkpt lat="47.13509" lon="6.02558">
        <ele>451.6</ele>
        <time>2024-09-01T09:55:46Z</time>
      </trkpt>
      <trkpt lat="47.13511" lon="6.02561">
        <ele>451.6</ele>
        <time>2024-09-01T09:55:47Z</time>
      </trkpt>
      <trkpt lat="47.13513" lon="6.02565">
        <ele>451.8</ele>
        <time>2024-09-01T09:55:48Z</time>
      </trkpt>
      <trkpt lat="47.13515" lon="6.02568">
        <ele>451.8</ele>
        <time>2024-09-01T09:55:49Z</time>
      </trkpt>
      <trkpt lat="47.13517" lon="6.02572">
        <ele>451.8</ele>
        <time>2024-09-01T09:55:50Z</time>
      </trkpt>
      <trkpt lat="47.13519" lon="6.02575">
        <ele>452</ele>
        <time>2024-09-01T09:55:51Z</time>
      </trkpt>
      <trkpt lat="47.13522" lon="6.02577">
        <ele>451.8</ele>
        <time>2024-09-01T09:55:52Z</time>
      </trkpt>
      <trkpt lat="47.13524" lon="6.0258">
        <ele>451.8</ele>
        <time>2024-09-01T09:55:53Z</time>
      </trkpt>
      <trkpt lat="47.13524" lon="6.0258">
        <ele>451.6</ele>
        <time>2024-09-01T09:55:54Z</time>
      </trkpt>
      <trkpt lat="47.13529" lon="6.02584">
        <ele>451.4</ele>
        <time>2024-09-01T09:55:55Z</time>
      </trkpt>
      <trkpt lat="47.13531" lon="6.02585">
        <ele>451.4</ele>
        <time>2024-09-01T09:55:56Z</time>
      </trkpt>
      <trkpt lat="47.13531" lon="6.02585">
        <ele>451.2</ele>
        <time>2024-09-01T09:55:57Z</time>
      </trkpt>
      <trkpt lat="47.13533" lon="6.02587">
        <ele>451.4</ele>
        <time>2024-09-01T09:55:58Z</time>
      </trkpt>
      <trkpt lat="47.13537" lon="6.0259">
        <ele>451.2</ele>
        <time>2024-09-01T09:55:59Z</time>
      </trkpt>
      <trkpt lat="47.13537" lon="6.0259">
        <ele>451.2</ele>
        <time>2024-09-01T09:56:00Z</time>
      </trkpt>
      <trkpt lat="47.13542" lon="6.02595">
        <ele>451.2</ele>
        <time>2024-09-01T09:56:01Z</time>
      </trkpt>
      <trkpt lat="47.13545" lon="6.02598">
        <ele>451.2</ele>
        <time>2024-09-01T09:56:02Z</time>
      </trkpt>
      <trkpt lat="47.13547" lon="6.02601">
        <ele>451</ele>
        <time>2024-09-01T09:56:03Z</time>
      </trkpt>
      <trkpt lat="47.13548" lon="6.02606">
        <ele>451</ele>
        <time>2024-09-01T09:56:04Z</time>
      </trkpt>
      <trkpt lat="47.13548" lon="6.02606">
        <ele>451</ele>
        <time>2024-09-01T09:56:05Z</time>
      </trkpt>
      <trkpt lat="47.13548" lon="6.02609">
        <ele>450.8</ele>
        <time>2024-09-01T09:56:06Z</time>
      </trkpt>
      <trkpt lat="47.13545" lon="6.02613">
        <ele>451</ele>
        <time>2024-09-01T09:56:07Z</time>
      </trkpt>
      <trkpt lat="47.13544" lon="6.02615">
        <ele>450.8</ele>
        <time>2024-09-01T09:56:08Z</time>
      </trkpt>
      <trkpt lat="47.13543" lon="6.02618">
        <ele>451</ele>
        <time>2024-09-01T09:56:09Z</time>
      </trkpt>
      <trkpt lat="47.13541" lon="6.02621">
        <ele>450.8</ele>
        <time>2024-09-01T09:56:10Z</time>
      </trkpt>
      <trkpt lat="47.1354" lon="6.02623">
        <ele>450.8</ele>
        <time>2024-09-01T09:56:11Z</time>
      </trkpt>
      <trkpt lat="47.13538" lon="6.02626">
        <ele>450.8</ele>
        <time>2024-09-01T09:56:12Z</time>
      </trkpt>
      <trkpt lat="47.13535" lon="6.02627">
        <ele>451</ele>
        <time>2024-09-01T09:56:13Z</time>
      </trkpt>
      <trkpt lat="47.13533" lon="6.02629">
        <ele>451</ele>
        <time>2024-09-01T09:56:14Z</time>
      </trkpt>
      <trkpt lat="47.13532" lon="6.02631">
        <ele>450.8</ele>
        <time>2024-09-01T09:56:15Z</time>
      </trkpt>
      <trkpt lat="47.1353" lon="6.02634">
        <ele>451</ele>
        <time>2024-09-01T09:56:16Z</time>
      </trkpt>
      <trkpt lat="47.13529" lon="6.02636">
        <ele>450.8</ele>
        <time>2024-09-01T09:56:17Z</time>
      </trkpt>
      <trkpt lat="47.13527" lon="6.02638">
        <ele>451.2</ele>
        <time>2024-09-01T09:56:18Z</time>
      </trkpt>
      <trkpt lat="47.13526" lon="6.02641">
        <ele>451</ele>
        <time>2024-09-01T09:56:19Z</time>
      </trkpt>
      <trkpt lat="47.13525" lon="6.02644">
        <ele>451.2</ele>
        <time>2024-09-01T09:56:20Z</time>
      </trkpt>
      <trkpt lat="47.13524" lon="6.02647">
        <ele>451.2</ele>
        <time>2024-09-01T09:56:21Z</time>
      </trkpt>
      <trkpt lat="47.13523" lon="6.0265">
        <ele>451.4</ele>
        <time>2024-09-01T09:56:22Z</time>
      </trkpt>
      <trkpt lat="47.13523" lon="6.02652">
        <ele>451.6</ele>
        <time>2024-09-01T09:56:23Z</time>
      </trkpt>
      <trkpt lat="47.13522" lon="6.02654">
        <ele>451.4</ele>
        <time>2024-09-01T09:56:24Z</time>
      </trkpt>
      <trkpt lat="47.13522" lon="6.02656">
        <ele>451.8</ele>
        <time>2024-09-01T09:56:25Z</time>
      </trkpt>
      <trkpt lat="47.13521" lon="6.02659">
        <ele>451.8</ele>
        <time>2024-09-01T09:56:26Z</time>
      </trkpt>
      <trkpt lat="47.13521" lon="6.02663">
        <ele>451.6</ele>
        <time>2024-09-01T09:56:27Z</time>
      </trkpt>
      <trkpt lat="47.13521" lon="6.02666">
        <ele>451.8</ele>
        <time>2024-09-01T09:56:28Z</time>
      </trkpt>
      <trkpt lat="47.13522" lon="6.02668">
        <ele>451.8</ele>
        <time>2024-09-01T09:56:29Z</time>
      </trkpt>
      <trkpt lat="47.13522" lon="6.02671">
        <ele>451.8</ele>
        <time>2024-09-01T09:56:30Z</time>
      </trkpt>
      <trkpt lat="47.13523" lon="6.02674">
        <ele>452</ele>
        <time>2024-09-01T09:56:31Z</time>
      </trkpt>
      <trkpt lat="47.13524" lon="6.02679">
        <ele>452</ele>
        <time>2024-09-01T09:56:32Z</time>
      </trkpt>
      <trkpt lat="47.13525" lon="6.02683">
        <ele>452.2</ele>
        <time>2024-09-01T09:56:33Z</time>
      </trkpt>
      <trkpt lat="47.13526" lon="6.02687">
        <ele>452.2</ele>
        <time>2024-09-01T09:56:34Z</time>
      </trkpt>
      <trkpt lat="47.13526" lon="6.02691">
        <ele>452.4</ele>
        <time>2024-09-01T09:56:35Z</time>
      </trkpt>
      <trkpt lat="47.13527" lon="6.02694">
        <ele>452.2</ele>
        <time>2024-09-01T09:56:36Z</time>
      </trkpt>
      <trkpt lat="47.13529" lon="6.02699">
        <ele>452.2</ele>
        <time>2024-09-01T09:56:37Z</time>
      </trkpt>
      <trkpt lat="47.13531" lon="6.02703">
        <ele>452.4</ele>
        <time>2024-09-01T09:56:38Z</time>
      </trkpt>
      <trkpt lat="47.13532" lon="6.02707">
        <ele>452.2</ele>
        <time>2024-09-01T09:56:39Z</time>
      </trkpt>
      <trkpt lat="47.13533" lon="6.0271">
        <ele>452.4</ele>
        <time>2024-09-01T09:56:40Z</time>
      </trkpt>
      <trkpt lat="47.13534" lon="6.02713">
        <ele>452.4</ele>
        <time>2024-09-01T09:56:41Z</time>
      </trkpt>
      <trkpt lat="47.13535" lon="6.02717">
        <ele>452.2</ele>
        <time>2024-09-01T09:56:42Z</time>
      </trkpt>
      <trkpt lat="47.13536" lon="6.02721">
        <ele>452.4</ele>
        <time>2024-09-01T09:56:43Z</time>
      </trkpt>
      <trkpt lat="47.13536" lon="6.02724">
        <ele>452.4</ele>
        <time>2024-09-01T09:56:44Z</time>
      </trkpt>
      <trkpt lat="47.13538" lon="6.02729">
        <ele>452.4</ele>
        <time>2024-09-01T09:56:45Z</time>
      </trkpt>
      <trkpt lat="47.13539" lon="6.02734">
        <ele>452.4</ele>
        <time>2024-09-01T09:56:46Z</time>
      </trkpt>
      <trkpt lat="47.1354" lon="6.02743">
        <ele>452.2</ele>
        <time>2024-09-01T09:56:47Z</time>
      </trkpt>
      <trkpt lat="47.1354" lon="6.02743">
        <ele>452.4</ele>
        <time>2024-09-01T09:56:48Z</time>
      </trkpt>
      <trkpt lat="47.13541" lon="6.02748">
        <ele>452.4</ele>
        <time>2024-09-01T09:56:49Z</time>
      </trkpt>
      <trkpt lat="47.13542" lon="6.02756">
        <ele>452.4</ele>
        <time>2024-09-01T09:56:50Z</time>
      </trkpt>
      <trkpt lat="47.13542" lon="6.02756">
        <ele>452.2</ele>
        <time>2024-09-01T09:56:51Z</time>
      </trkpt>
      <trkpt lat="47.13543" lon="6.02764">
        <ele>452.2</ele>
        <time>2024-09-01T09:56:52Z</time>
      </trkpt>
      <trkpt lat="47.13543" lon="6.02764">
        <ele>452.2</ele>
        <time>2024-09-01T09:56:53Z</time>
      </trkpt>
      <trkpt lat="47.13543" lon="6.02768">
        <ele>452.4</ele>
        <time>2024-09-01T09:56:54Z</time>
      </trkpt>
      <trkpt lat="47.13544" lon="6.02772">
        <ele>452.2</ele>
        <time>2024-09-01T09:56:55Z</time>
      </trkpt>
      <trkpt lat="47.13545" lon="6.02776">
        <ele>452.2</ele>
        <time>2024-09-01T09:56:56Z</time>
      </trkpt>
      <trkpt lat="47.13545" lon="6.02781">
        <ele>452.2</ele>
        <time>2024-09-01T09:56:57Z</time>
      </trkpt>
      <trkpt lat="47.13546" lon="6.02785">
        <ele>452.2</ele>
        <time>2024-09-01T09:56:58Z</time>
      </trkpt>
      <trkpt lat="47.13547" lon="6.0279">
        <ele>452.2</ele>
        <time>2024-09-01T09:56:59Z</time>
      </trkpt>
      <trkpt lat="47.13548" lon="6.02795">
        <ele>452.2</ele>
        <time>2024-09-01T09:57:00Z</time>
      </trkpt>
      <trkpt lat="47.13549" lon="6.028">
        <ele>452</ele>
        <time>2024-09-01T09:57:01Z</time>
      </trkpt>
      <trkpt lat="47.1355" lon="6.02804">
        <ele>452.2</ele>
        <time>2024-09-01T09:57:02Z</time>
      </trkpt>
      <trkpt lat="47.13552" lon="6.02807">
        <ele>452.2</ele>
        <time>2024-09-01T09:57:03Z</time>
      </trkpt>
      <trkpt lat="47.13553" lon="6.0281">
        <ele>452.2</ele>
        <time>2024-09-01T09:57:04Z</time>
      </trkpt>
      <trkpt lat="47.13555" lon="6.02813">
        <ele>452</ele>
        <time>2024-09-01T09:57:05Z</time>
      </trkpt>
      <trkpt lat="47.13557" lon="6.02817">
        <ele>452</ele>
        <time>2024-09-01T09:57:06Z</time>
      </trkpt>
      <trkpt lat="47.13559" lon="6.02821">
        <ele>452</ele>
        <time>2024-09-01T09:57:07Z</time>
      </trkpt>
      <trkpt lat="47.13562" lon="6.02824">
        <ele>452.2</ele>
        <time>2024-09-01T09:57:08Z</time>
      </trkpt>
      <trkpt lat="47.13566" lon="6.02829">
        <ele>452</ele>
        <time>2024-09-01T09:57:09Z</time>
      </trkpt>
      <trkpt lat="47.13566" lon="6.02829">
        <ele>452.2</ele>
        <time>2024-09-01T09:57:10Z</time>
      </trkpt>
      <trkpt lat="47.13568" lon="6.0283">
        <ele>452.4</ele>
        <time>2024-09-01T09:57:11Z</time>
      </trkpt>
      <trkpt lat="47.13571" lon="6.0283">
        <ele>452.4</ele>
        <time>2024-09-01T09:57:12Z</time>
      </trkpt>
      <trkpt lat="47.13574" lon="6.02831">
        <ele>452.4</ele>
        <time>2024-09-01T09:57:13Z</time>
      </trkpt>
      <trkpt lat="47.13578" lon="6.02832">
        <ele>452.6</ele>
        <time>2024-09-01T09:57:14Z</time>
      </trkpt>
      <trkpt lat="47.13582" lon="6.02833">
        <ele>452.6</ele>
        <time>2024-09-01T09:57:15Z</time>
      </trkpt>
      <trkpt lat="47.13586" lon="6.02832">
        <ele>452.6</ele>
        <time>2024-09-01T09:57:16Z</time>
      </trkpt>
      <trkpt lat="47.13589" lon="6.02831">
        <ele>452.6</ele>
        <time>2024-09-01T09:57:17Z</time>
      </trkpt>
      <trkpt lat="47.13592" lon="6.02831">
        <ele>452.6</ele>
        <time>2024-09-01T09:57:18Z</time>
      </trkpt>
      <trkpt lat="47.13595" lon="6.0283">
        <ele>452.8</ele>
        <time>2024-09-01T09:57:19Z</time>
      </trkpt>
      <trkpt lat="47.13598" lon="6.02829">
        <ele>452.8</ele>
        <time>2024-09-01T09:57:20Z</time>
      </trkpt>
      <trkpt lat="47.13601" lon="6.02827">
        <ele>452.8</ele>
        <time>2024-09-01T09:57:21Z</time>
      </trkpt>
      <trkpt lat="47.13604" lon="6.02826">
        <ele>452.6</ele>
        <time>2024-09-01T09:57:22Z</time>
      </trkpt>
      <trkpt lat="47.13607" lon="6.02824">
        <ele>452.8</ele>
        <time>2024-09-01T09:57:23Z</time>
      </trkpt>
      <trkpt lat="47.1361" lon="6.02822">
        <ele>452.6</ele>
        <time>2024-09-01T09:57:24Z</time>
      </trkpt>
      <trkpt lat="47.13613" lon="6.02821">
        <ele>452.8</ele>
        <time>2024-09-01T09:57:25Z</time>
      </trkpt>
      <trkpt lat="47.13616" lon="6.0282">
        <ele>452.6</ele>
        <time>2024-09-01T09:57:26Z</time>
      </trkpt>
      <trkpt lat="47.1362" lon="6.02819">
        <ele>452.4</ele>
        <time>2024-09-01T09:57:27Z</time>
      </trkpt>
      <trkpt lat="47.13623" lon="6.02818">
        <ele>452.2</ele>
        <time>2024-09-01T09:57:28Z</time>
      </trkpt>
      <trkpt lat="47.13627" lon="6.02817">
        <ele>452.2</ele>
        <time>2024-09-01T09:57:29Z</time>
      </trkpt>
      <trkpt lat="47.13631" lon="6.02816">
        <ele>452.2</ele>
        <time>2024-09-01T09:57:30Z</time>
      </trkpt>
      <trkpt lat="47.13634" lon="6.02815">
        <ele>452.2</ele>
        <time>2024-09-01T09:57:31Z</time>
      </trkpt>
      <trkpt lat="47.13637" lon="6.02814">
        <ele>452.2</ele>
        <time>2024-09-01T09:57:32Z</time>
      </trkpt>
      <trkpt lat="47.1364" lon="6.02814">
        <ele>452</ele>
        <time>2024-09-01T09:57:33Z</time>
      </trkpt>
      <trkpt lat="47.13643" lon="6.02814">
        <ele>451.8</ele>
        <time>2024-09-01T09:57:34Z</time>
      </trkpt>
      <trkpt lat="47.13646" lon="6.02815">
        <ele>451.8</ele>
        <time>2024-09-01T09:57:35Z</time>
      </trkpt>
      <trkpt lat="47.13648" lon="6.02817">
        <ele>452</ele>
        <time>2024-09-01T09:57:36Z</time>
      </trkpt>
      <trkpt lat="47.1365" lon="6.02818">
        <ele>452</ele>
        <time>2024-09-01T09:57:37Z</time>
      </trkpt>
      <trkpt lat="47.13653" lon="6.0282">
        <ele>451.8</ele>
        <time>2024-09-01T09:57:38Z</time>
      </trkpt>
      <trkpt lat="47.13656" lon="6.02822">
        <ele>452</ele>
        <time>2024-09-01T09:57:39Z</time>
      </trkpt>
      <trkpt lat="47.1366" lon="6.02826">
        <ele>452</ele>
        <time>2024-09-01T09:57:40Z</time>
      </trkpt>
      <trkpt lat="47.13663" lon="6.02829">
        <ele>452</ele>
        <time>2024-09-01T09:57:41Z</time>
      </trkpt>
      <trkpt lat="47.13666" lon="6.02833">
        <ele>452</ele>
        <time>2024-09-01T09:57:42Z</time>
      </trkpt>
      <trkpt lat="47.13669" lon="6.02836">
        <ele>452</ele>
        <time>2024-09-01T09:57:43Z</time>
      </trkpt>
      <trkpt lat="47.13671" lon="6.02838">
        <ele>452</ele>
        <time>2024-09-01T09:57:44Z</time>
      </trkpt>
      <trkpt lat="47.13674" lon="6.02842">
        <ele>452</ele>
        <time>2024-09-01T09:57:45Z</time>
      </trkpt>
      <trkpt lat="47.13678" lon="6.02843">
        <ele>451.8</ele>
        <time>2024-09-01T09:57:46Z</time>
      </trkpt>
      <trkpt lat="47.13682" lon="6.02844">
        <ele>451.8</ele>
        <time>2024-09-01T09:57:47Z</time>
      </trkpt>
      <trkpt lat="47.13686" lon="6.02844">
        <ele>452</ele>
        <time>2024-09-01T09:57:48Z</time>
      </trkpt>
      <trkpt lat="47.1369" lon="6.02844">
        <ele>451.8</ele>
        <time>2024-09-01T09:57:49Z</time>
      </trkpt>
      <trkpt lat="47.13693" lon="6.02844">
        <ele>451.8</ele>
        <time>2024-09-01T09:57:50Z</time>
      </trkpt>
      <trkpt lat="47.13697" lon="6.02843">
        <ele>452</ele>
        <time>2024-09-01T09:57:51Z</time>
      </trkpt>
      <trkpt lat="47.137" lon="6.02842">
        <ele>451.8</ele>
        <time>2024-09-01T09:57:52Z</time>
      </trkpt>
      <trkpt lat="47.13703" lon="6.02841">
        <ele>452</ele>
        <time>2024-09-01T09:57:53Z</time>
      </trkpt>
      <trkpt lat="47.13706" lon="6.0284">
        <ele>451.8</ele>
        <time>2024-09-01T09:57:54Z</time>
      </trkpt>
      <trkpt lat="47.13709" lon="6.0284">
        <ele>451.8</ele>
        <time>2024-09-01T09:57:55Z</time>
      </trkpt>
      <trkpt lat="47.13711" lon="6.02839">
        <ele>452</ele>
        <time>2024-09-01T09:57:56Z</time>
      </trkpt>
      <trkpt lat="47.13714" lon="6.02837">
        <ele>451.8</ele>
        <time>2024-09-01T09:57:57Z</time>
      </trkpt>
      <trkpt lat="47.13717" lon="6.02835">
        <ele>452</ele>
        <time>2024-09-01T09:57:58Z</time>
      </trkpt>
      <trkpt lat="47.1372" lon="6.02833">
        <ele>451.8</ele>
        <time>2024-09-01T09:57:59Z</time>
      </trkpt>
      <trkpt lat="47.13723" lon="6.02832">
        <ele>452</ele>
        <time>2024-09-01T09:58:00Z</time>
      </trkpt>
      <trkpt lat="47.13727" lon="6.0283">
        <ele>451.8</ele>
        <time>2024-09-01T09:58:01Z</time>
      </trkpt>
      <trkpt lat="47.1373" lon="6.02829">
        <ele>451.8</ele>
        <time>2024-09-01T09:58:02Z</time>
      </trkpt>
      <trkpt lat="47.13733" lon="6.02828">
        <ele>452</ele>
        <time>2024-09-01T09:58:03Z</time>
      </trkpt>
      <trkpt lat="47.13736" lon="6.02828">
        <ele>451.8</ele>
        <time>2024-09-01T09:58:04Z</time>
      </trkpt>
      <trkpt lat="47.13738" lon="6.02828">
        <ele>452</ele>
        <time>2024-09-01T09:58:05Z</time>
      </trkpt>
      <trkpt lat="47.1374" lon="6.02829">
        <ele>452</ele>
        <time>2024-09-01T09:58:06Z</time>
      </trkpt>
      <trkpt lat="47.13743" lon="6.0283">
        <ele>452</ele>
        <time>2024-09-01T09:58:07Z</time>
      </trkpt>
      <trkpt lat="47.13745" lon="6.0283">
        <ele>452</ele>
        <time>2024-09-01T09:58:08Z</time>
      </trkpt>
      <trkpt lat="47.13747" lon="6.02831">
        <ele>452</ele>
        <time>2024-09-01T09:58:09Z</time>
      </trkpt>
      <trkpt lat="47.13749" lon="6.02832">
        <ele>452</ele>
        <time>2024-09-01T09:58:10Z</time>
      </trkpt>
      <trkpt lat="47.13752" lon="6.02833">
        <ele>452</ele>
        <time>2024-09-01T09:58:11Z</time>
      </trkpt>
      <trkpt lat="47.13754" lon="6.02834">
        <ele>452</ele>
        <time>2024-09-01T09:58:12Z</time>
      </trkpt>
      <trkpt lat="47.13757" lon="6.02835">
        <ele>452</ele>
        <time>2024-09-01T09:58:13Z</time>
      </trkpt>
      <trkpt lat="47.1376" lon="6.02836">
        <ele>452.2</ele>
        <time>2024-09-01T09:58:14Z</time>
      </trkpt>
      <trkpt lat="47.13762" lon="6.02837">
        <ele>452</ele>
        <time>2024-09-01T09:58:15Z</time>
      </trkpt>
      <trkpt lat="47.13764" lon="6.02839">
        <ele>452.2</ele>
        <time>2024-09-01T09:58:16Z</time>
      </trkpt>
      <trkpt lat="47.13766" lon="6.02841">
        <ele>452</ele>
        <time>2024-09-01T09:58:17Z</time>
      </trkpt>
      <trkpt lat="47.13767" lon="6.02844">
        <ele>452.2</ele>
        <time>2024-09-01T09:58:18Z</time>
      </trkpt>
      <trkpt lat="47.13769" lon="6.02846">
        <ele>452.2</ele>
        <time>2024-09-01T09:58:19Z</time>
      </trkpt>
      <trkpt lat="47.13771" lon="6.02849">
        <ele>452.2</ele>
        <time>2024-09-01T09:58:20Z</time>
      </trkpt>
      <trkpt lat="47.13772" lon="6.02852">
        <ele>452.4</ele>
        <time>2024-09-01T09:58:21Z</time>
      </trkpt>
      <trkpt lat="47.13775" lon="6.02854">
        <ele>452.4</ele>
        <time>2024-09-01T09:58:22Z</time>
      </trkpt>
      <trkpt lat="47.13777" lon="6.02856">
        <ele>452.2</ele>
        <time>2024-09-01T09:58:23Z</time>
      </trkpt>
      <trkpt lat="47.13779" lon="6.02859">
        <ele>452.6</ele>
        <time>2024-09-01T09:58:24Z</time>
      </trkpt>
      <trkpt lat="47.1378" lon="6.02861">
        <ele>452.6</ele>
        <time>2024-09-01T09:58:25Z</time>
      </trkpt>
      <trkpt lat="47.13782" lon="6.02863">
        <ele>452.6</ele>
        <time>2024-09-01T09:58:26Z</time>
      </trkpt>
      <trkpt lat="47.13783" lon="6.02867">
        <ele>452.8</ele>
        <time>2024-09-01T09:58:27Z</time>
      </trkpt>
      <trkpt lat="47.13785" lon="6.0287">
        <ele>452.8</ele>
        <time>2024-09-01T09:58:28Z</time>
      </trkpt>
      <trkpt lat="47.13786" lon="6.02873">
        <ele>453</ele>
        <time>2024-09-01T09:58:29Z</time>
      </trkpt>
      <trkpt lat="47.13788" lon="6.02876">
        <ele>453</ele>
        <time>2024-09-01T09:58:30Z</time>
      </trkpt>
      <trkpt lat="47.1379" lon="6.02879">
        <ele>453</ele>
        <time>2024-09-01T09:58:31Z</time>
      </trkpt>
      <trkpt lat="47.13791" lon="6.02882">
        <ele>453.2</ele>
        <time>2024-09-01T09:58:32Z</time>
      </trkpt>
      <trkpt lat="47.13792" lon="6.02885">
        <ele>453.2</ele>
        <time>2024-09-01T09:58:33Z</time>
      </trkpt>
      <trkpt lat="47.13793" lon="6.02889">
        <ele>453.4</ele>
        <time>2024-09-01T09:58:34Z</time>
      </trkpt>
      <trkpt lat="47.13794" lon="6.02892">
        <ele>453.4</ele>
        <time>2024-09-01T09:58:35Z</time>
      </trkpt>
      <trkpt lat="47.13796" lon="6.02894">
        <ele>453.4</ele>
        <time>2024-09-01T09:58:36Z</time>
      </trkpt>
      <trkpt lat="47.13799" lon="6.02898">
        <ele>453.6</ele>
        <time>2024-09-01T09:58:37Z</time>
      </trkpt>
      <trkpt lat="47.13801" lon="6.02899">
        <ele>453.6</ele>
        <time>2024-09-01T09:58:38Z</time>
      </trkpt>
      <trkpt lat="47.13804" lon="6.02899">
        <ele>453.6</ele>
        <time>2024-09-01T09:58:39Z</time>
      </trkpt>
      <trkpt lat="47.13806" lon="6.02899">
        <ele>453.8</ele>
        <time>2024-09-01T09:58:40Z</time>
      </trkpt>
      <trkpt lat="47.13808" lon="6.02899">
        <ele>453.8</ele>
        <time>2024-09-01T09:58:41Z</time>
      </trkpt>
      <trkpt lat="47.13811" lon="6.029">
        <ele>454</ele>
        <time>2024-09-01T09:58:42Z</time>
      </trkpt>
      <trkpt lat="47.13812" lon="6.029">
        <ele>454</ele>
        <time>2024-09-01T09:58:43Z</time>
      </trkpt>
      <trkpt lat="47.13815" lon="6.029">
        <ele>454</ele>
        <time>2024-09-01T09:58:44Z</time>
      </trkpt>
      <trkpt lat="47.13817" lon="6.029">
        <ele>454.2</ele>
        <time>2024-09-01T09:58:45Z</time>
      </trkpt>
      <trkpt lat="47.1382" lon="6.02901">
        <ele>454.2</ele>
        <time>2024-09-01T09:58:46Z</time>
      </trkpt>
      <trkpt lat="47.13822" lon="6.02903">
        <ele>454.4</ele>
        <time>2024-09-01T09:58:47Z</time>
      </trkpt>
      <trkpt lat="47.13825" lon="6.02904">
        <ele>454.4</ele>
        <time>2024-09-01T09:58:48Z</time>
      </trkpt>
      <trkpt lat="47.13826" lon="6.02906">
        <ele>454.6</ele>
        <time>2024-09-01T09:58:49Z</time>
      </trkpt>
      <trkpt lat="47.13828" lon="6.02909">
        <ele>454.6</ele>
        <time>2024-09-01T09:58:50Z</time>
      </trkpt>
      <trkpt lat="47.1383" lon="6.02913">
        <ele>454.8</ele>
        <time>2024-09-01T09:58:51Z</time>
      </trkpt>
      <trkpt lat="47.13832" lon="6.02917">
        <ele>454.8</ele>
        <time>2024-09-01T09:58:52Z</time>
      </trkpt>
      <trkpt lat="47.13834" lon="6.0292">
        <ele>454.8</ele>
        <time>2024-09-01T09:58:53Z</time>
      </trkpt>
      <trkpt lat="47.13836" lon="6.02925">
        <ele>455</ele>
        <time>2024-09-01T09:58:54Z</time>
      </trkpt>
      <trkpt lat="47.13838" lon="6.02929">
        <ele>454.8</ele>
        <time>2024-09-01T09:58:55Z</time>
      </trkpt>
      <trkpt lat="47.1384" lon="6.02934">
        <ele>454.8</ele>
        <time>2024-09-01T09:58:56Z</time>
      </trkpt>
      <trkpt lat="47.13842" lon="6.02938">
        <ele>454.8</ele>
        <time>2024-09-01T09:58:57Z</time>
      </trkpt>
      <trkpt lat="47.13843" lon="6.02942">
        <ele>454.8</ele>
        <time>2024-09-01T09:58:58Z</time>
      </trkpt>
      <trkpt lat="47.13845" lon="6.02945">
        <ele>454.8</ele>
        <time>2024-09-01T09:58:59Z</time>
      </trkpt>
      <trkpt lat="47.13846" lon="6.02949">
        <ele>454.8</ele>
        <time>2024-09-01T09:59:00Z</time>
      </trkpt>
      <trkpt lat="47.13848" lon="6.02953">
        <ele>454.8</ele>
        <time>2024-09-01T09:59:01Z</time>
      </trkpt>
      <trkpt lat="47.13851" lon="6.02957">
        <ele>454.8</ele>
        <time>2024-09-01T09:59:02Z</time>
      </trkpt>
      <trkpt lat="47.13854" lon="6.02962">
        <ele>454.8</ele>
        <time>2024-09-01T09:59:03Z</time>
      </trkpt>
      <trkpt lat="47.13856" lon="6.02967">
        <ele>454.6</ele>
        <time>2024-09-01T09:59:04Z</time>
      </trkpt>
      <trkpt lat="47.13858" lon="6.02971">
        <ele>454.4</ele>
        <time>2024-09-01T09:59:05Z</time>
      </trkpt>
      <trkpt lat="47.13859" lon="6.02976">
        <ele>454.4</ele>
        <time>2024-09-01T09:59:06Z</time>
      </trkpt>
      <trkpt lat="47.13859" lon="6.02979">
        <ele>454.4</ele>
        <time>2024-09-01T09:59:07Z</time>
      </trkpt>
      <trkpt lat="47.13859" lon="6.02982">
        <ele>454.4</ele>
        <time>2024-09-01T09:59:08Z</time>
      </trkpt>
      <trkpt lat="47.13858" lon="6.02984">
        <ele>454.6</ele>
        <time>2024-09-01T09:59:09Z</time>
      </trkpt>
      <trkpt lat="47.13856" lon="6.02986">
        <ele>454.6</ele>
        <time>2024-09-01T09:59:10Z</time>
      </trkpt>
      <trkpt lat="47.13854" lon="6.02988">
        <ele>454.4</ele>
        <time>2024-09-01T09:59:11Z</time>
      </trkpt>
      <trkpt lat="47.13853" lon="6.02991">
        <ele>454.4</ele>
        <time>2024-09-01T09:59:12Z</time>
      </trkpt>
      <trkpt lat="47.13851" lon="6.02992">
        <ele>454.6</ele>
        <time>2024-09-01T09:59:13Z</time>
      </trkpt>
      <trkpt lat="47.13848" lon="6.02994">
        <ele>454.4</ele>
        <time>2024-09-01T09:59:14Z</time>
      </trkpt>
      <trkpt lat="47.13846" lon="6.02995">
        <ele>454.4</ele>
        <time>2024-09-01T09:59:15Z</time>
      </trkpt>
      <trkpt lat="47.13843" lon="6.02995">
        <ele>454.6</ele>
        <time>2024-09-01T09:59:16Z</time>
      </trkpt>
      <trkpt lat="47.1384" lon="6.02997">
        <ele>454.8</ele>
        <time>2024-09-01T09:59:17Z</time>
      </trkpt>
      <trkpt lat="47.13838" lon="6.02999">
        <ele>454.8</ele>
        <time>2024-09-01T09:59:18Z</time>
      </trkpt>
      <trkpt lat="47.13835" lon="6.03001">
        <ele>455</ele>
        <time>2024-09-01T09:59:19Z</time>
      </trkpt>
      <trkpt lat="47.13832" lon="6.03003">
        <ele>455</ele>
        <time>2024-09-01T09:59:20Z</time>
      </trkpt>
      <trkpt lat="47.1383" lon="6.03006">
        <ele>455</ele>
        <time>2024-09-01T09:59:21Z</time>
      </trkpt>
      <trkpt lat="47.13828" lon="6.03008">
        <ele>455.2</ele>
        <time>2024-09-01T09:59:22Z</time>
      </trkpt>
      <trkpt lat="47.13826" lon="6.03011">
        <ele>455.2</ele>
        <time>2024-09-01T09:59:23Z</time>
      </trkpt>
      <trkpt lat="47.13824" lon="6.03014">
        <ele>455.4</ele>
        <time>2024-09-01T09:59:24Z</time>
      </trkpt>
      <trkpt lat="47.13823" lon="6.03016">
        <ele>455.4</ele>
        <time>2024-09-01T09:59:25Z</time>
      </trkpt>
      <trkpt lat="47.13821" lon="6.03018">
        <ele>455.4</ele>
        <time>2024-09-01T09:59:26Z</time>
      </trkpt>
      <trkpt lat="47.14042" lon="6.0389">
        <ele>458</ele>
        <time>2024-09-01T10:02:51Z</time>
      </trkpt>
      <trkpt lat="47.14045" lon="6.0389">
        <ele>457.6</ele>
        <time>2024-09-01T10:02:52Z</time>
      </trkpt>
      <trkpt lat="47.14048" lon="6.03889">
        <ele>457.6</ele>
        <time>2024-09-01T10:02:53Z</time>
      </trkpt>
      <trkpt lat="47.1405" lon="6.03895">
        <ele>457.6</ele>
        <time>2024-09-01T10:02:54Z</time>
      </trkpt>
      <trkpt lat="47.14053" lon="6.03897">
        <ele>457.6</ele>
        <time>2024-09-01T10:02:55Z</time>
      </trkpt>
      <trkpt lat="47.14056" lon="6.03899">
        <ele>457.8</ele>
        <time>2024-09-01T10:02:56Z</time>
      </trkpt>
      <trkpt lat="47.1406" lon="6.03906">
        <ele>457.8</ele>
        <time>2024-09-01T10:02:57Z</time>
      </trkpt>
      <trkpt lat="47.14063" lon="6.03908">
        <ele>458</ele>
        <time>2024-09-01T10:02:58Z</time>
      </trkpt>
      <trkpt lat="47.14067" lon="6.0391">
        <ele>458</ele>
        <time>2024-09-01T10:02:59Z</time>
      </trkpt>
      <trkpt lat="47.14071" lon="6.0391">
        <ele>458</ele>
        <time>2024-09-01T10:03:00Z</time>
      </trkpt>
      <trkpt lat="47.14073" lon="6.03913">
        <ele>458.2</ele>
        <time>2024-09-01T10:03:01Z</time>
      </trkpt>
      <trkpt lat="47.14076" lon="6.03915">
        <ele>458.2</ele>
        <time>2024-09-01T10:03:02Z</time>
      </trkpt>
      <trkpt lat="47.14079" lon="6.03921">
        <ele>458.6</ele>
        <time>2024-09-01T10:03:04Z</time>
      </trkpt>
      <trkpt lat="47.14082" lon="6.03925">
        <ele>458.6</ele>
        <time>2024-09-01T10:03:05Z</time>
      </trkpt>
      <trkpt lat="47.14086" lon="6.03933">
        <ele>458.6</ele>
        <time>2024-09-01T10:03:06Z</time>
      </trkpt>
      <trkpt lat="47.14086" lon="6.03933">
        <ele>458.4</ele>
        <time>2024-09-01T10:03:07Z</time>
      </trkpt>
      <trkpt lat="47.14089" lon="6.03936">
        <ele>458.2</ele>
        <time>2024-09-01T10:03:08Z</time>
      </trkpt>
      <trkpt lat="47.14092" lon="6.0394">
        <ele>458.2</ele>
        <time>2024-09-01T10:03:09Z</time>
      </trkpt>
      <trkpt lat="47.14095" lon="6.03943">
        <ele>458.2</ele>
        <time>2024-09-01T10:03:10Z</time>
      </trkpt>
      <trkpt lat="47.14098" lon="6.03947">
        <ele>458.2</ele>
        <time>2024-09-01T10:03:11Z</time>
      </trkpt>
      <trkpt lat="47.14102" lon="6.03951">
        <ele>458.4</ele>
        <time>2024-09-01T10:03:12Z</time>
      </trkpt>
      <trkpt lat="47.14105" lon="6.03954">
        <ele>458.4</ele>
        <time>2024-09-01T10:03:13Z</time>
      </trkpt>
      <trkpt lat="47.14108" lon="6.03958">
        <ele>458.4</ele>
        <time>2024-09-01T10:03:14Z</time>
      </trkpt>
      <trkpt lat="47.14111" lon="6.03962">
        <ele>458.6</ele>
        <time>2024-09-01T10:03:15Z</time>
      </trkpt>
      <trkpt lat="47.14113" lon="6.03966">
        <ele>458.6</ele>
        <time>2024-09-01T10:03:16Z</time>
      </trkpt>
      <trkpt lat="47.14116" lon="6.03971">
        <ele>458.6</ele>
        <time>2024-09-01T10:03:17Z</time>
      </trkpt>
      <trkpt lat="47.14118" lon="6.03975">
        <ele>458.4</ele>
        <time>2024-09-01T10:03:18Z</time>
      </trkpt>
      <trkpt lat="47.14119" lon="6.0398">
        <ele>458.6</ele>
        <time>2024-09-01T10:03:19Z</time>
      </trkpt>
      <trkpt lat="47.14121" lon="6.03985">
        <ele>458.6</ele>
        <time>2024-09-01T10:03:20Z</time>
      </trkpt>
      <trkpt lat="47.14121" lon="6.0399">
        <ele>458.6</ele>
        <time>2024-09-01T10:03:21Z</time>
      </trkpt>
      <trkpt lat="47.14122" lon="6.03996">
        <ele>458.8</ele>
        <time>2024-09-01T10:03:22Z</time>
      </trkpt>
      <trkpt lat="47.14122" lon="6.04001">
        <ele>458.6</ele>
        <time>2024-09-01T10:03:23Z</time>
      </trkpt>
      <trkpt lat="47.14123" lon="6.04007">
        <ele>458.6</ele>
        <time>2024-09-01T10:03:24Z</time>
      </trkpt>
      <trkpt lat="47.14123" lon="6.04013">
        <ele>458.6</ele>
        <time>2024-09-01T10:03:25Z</time>
      </trkpt>
      <trkpt lat="47.14123" lon="6.04018">
        <ele>458.6</ele>
        <time>2024-09-01T10:03:26Z</time>
      </trkpt>
      <trkpt lat="47.14122" lon="6.04024">
        <ele>458.6</ele>
        <time>2024-09-01T10:03:27Z</time>
      </trkpt>
      <trkpt lat="47.14122" lon="6.0403">
        <ele>458.6</ele>
        <time>2024-09-01T10:03:28Z</time>
      </trkpt>
      <trkpt lat="47.14123" lon="6.04036">
        <ele>458.6</ele>
        <time>2024-09-01T10:03:29Z</time>
      </trkpt>
      <trkpt lat="47.14124" lon="6.04041">
        <ele>458.6</ele>
        <time>2024-09-01T10:03:30Z</time>
      </trkpt>
      <trkpt lat="47.14127" lon="6.04047">
        <ele>458.4</ele>
        <time>2024-09-01T10:03:31Z</time>
      </trkpt>
      <trkpt lat="47.1413" lon="6.04051">
        <ele>458.6</ele>
        <time>2024-09-01T10:03:32Z</time>
      </trkpt>
      <trkpt lat="47.14134" lon="6.04055">
        <ele>458.4</ele>
        <time>2024-09-01T10:03:33Z</time>
      </trkpt>
      <trkpt lat="47.14137" lon="6.04058">
        <ele>458.4</ele>
        <time>2024-09-01T10:03:34Z</time>
      </trkpt>
      <trkpt lat="47.14141" lon="6.04061">
        <ele>458.4</ele>
        <time>2024-09-01T10:03:35Z</time>
      </trkpt>
      <trkpt lat="47.14144" lon="6.04063">
        <ele>458.6</ele>
        <time>2024-09-01T10:03:36Z</time>
      </trkpt>
      <trkpt lat="47.14148" lon="6.04066">
        <ele>458.4</ele>
        <time>2024-09-01T10:03:37Z</time>
      </trkpt>
      <trkpt lat="47.14152" lon="6.04069">
        <ele>458.4</ele>
        <time>2024-09-01T10:03:38Z</time>
      </trkpt>
      <trkpt lat="47.14155" lon="6.04072">
        <ele>458.4</ele>
        <time>2024-09-01T10:03:39Z</time>
      </trkpt>
      <trkpt lat="47.14158" lon="6.04075">
        <ele>458.4</ele>
        <time>2024-09-01T10:03:40Z</time>
      </trkpt>
      <trkpt lat="47.14161" lon="6.04078">
        <ele>458.4</ele>
        <time>2024-09-01T10:03:41Z</time>
      </trkpt>
      <trkpt lat="47.14165" lon="6.0408">
        <ele>458.4</ele>
        <time>2024-09-01T10:03:42Z</time>
      </trkpt>
      <trkpt lat="47.14168" lon="6.04083">
        <ele>458.8</ele>
        <time>2024-09-01T10:03:43Z</time>
      </trkpt>
      <trkpt lat="47.14175" lon="6.04089">
        <ele>458.6</ele>
        <time>2024-09-01T10:03:44Z</time>
      </trkpt>
      <trkpt lat="47.14178" lon="6.04093">
        <ele>458.8</ele>
        <time>2024-09-01T10:03:45Z</time>
      </trkpt>
      <trkpt lat="47.14178" lon="6.04093">
        <ele>458.8</ele>
        <time>2024-09-01T10:03:46Z</time>
      </trkpt>
      <trkpt lat="47.14182" lon="6.04096">
        <ele>458.8</ele>
        <time>2024-09-01T10:03:47Z</time>
      </trkpt>
      <trkpt lat="47.14188" lon="6.04103">
        <ele>459</ele>
        <time>2024-09-01T10:03:48Z</time>
      </trkpt>
      <trkpt lat="47.14192" lon="6.04106">
        <ele>459</ele>
        <time>2024-09-01T10:03:49Z</time>
      </trkpt>
      <trkpt lat="47.14192" lon="6.04106">
        <ele>459</ele>
        <time>2024-09-01T10:03:50Z</time>
      </trkpt>
      <trkpt lat="47.14195" lon="6.04109">
        <ele>459.2</ele>
        <time>2024-09-01T10:03:51Z</time>
      </trkpt>
      <trkpt lat="47.14198" lon="6.04112">
        <ele>459.2</ele>
        <time>2024-09-01T10:03:52Z</time>
      </trkpt>
      <trkpt lat="47.14202" lon="6.04115">
        <ele>459.4</ele>
        <time>2024-09-01T10:03:53Z</time>
      </trkpt>
      <trkpt lat="47.14205" lon="6.04118">
        <ele>459.4</ele>
        <time>2024-09-01T10:03:54Z</time>
      </trkpt>
      <trkpt lat="47.14209" lon="6.04121">
        <ele>459.6</ele>
        <time>2024-09-01T10:03:55Z</time>
      </trkpt>
      <trkpt lat="47.14216" lon="6.04126">
        <ele>459.6</ele>
        <time>2024-09-01T10:03:56Z</time>
      </trkpt>
      <trkpt lat="47.14216" lon="6.04126">
        <ele>459.6</ele>
        <time>2024-09-01T10:03:57Z</time>
      </trkpt>
      <trkpt lat="47.1422" lon="6.04129">
        <ele>460</ele>
        <time>2024-09-01T10:03:58Z</time>
      </trkpt>
      <trkpt lat="47.14223" lon="6.04132">
        <ele>460</ele>
        <time>2024-09-01T10:03:59Z</time>
      </trkpt>
      <trkpt lat="47.14227" lon="6.04135">
        <ele>460</ele>
        <time>2024-09-01T10:04:00Z</time>
      </trkpt>
      <trkpt lat="47.14234" lon="6.04141">
        <ele>460.2</ele>
        <time>2024-09-01T10:04:01Z</time>
      </trkpt>
      <trkpt lat="47.14234" lon="6.04141">
        <ele>460.2</ele>
        <time>2024-09-01T10:04:02Z</time>
      </trkpt>
      <trkpt lat="47.14237" lon="6.04144">
        <ele>460.2</ele>
        <time>2024-09-01T10:04:03Z</time>
      </trkpt>
      <trkpt lat="47.1424" lon="6.04146">
        <ele>460.4</ele>
        <time>2024-09-01T10:04:04Z</time>
      </trkpt>
      <trkpt lat="47.14244" lon="6.04149">
        <ele>460.4</ele>
        <time>2024-09-01T10:04:05Z</time>
      </trkpt>
      <trkpt lat="47.14247" lon="6.04152">
        <ele>460.4</ele>
        <time>2024-09-01T10:04:06Z</time>
      </trkpt>
      <trkpt lat="47.1425" lon="6.04155">
        <ele>460.6</ele>
        <time>2024-09-01T10:04:07Z</time>
      </trkpt>
      <trkpt lat="47.14253" lon="6.04158">
        <ele>460.6</ele>
        <time>2024-09-01T10:04:08Z</time>
      </trkpt>
      <trkpt lat="47.14257" lon="6.04161">
        <ele>460.6</ele>
        <time>2024-09-01T10:04:09Z</time>
      </trkpt>
      <trkpt lat="47.1426" lon="6.04163">
        <ele>460.6</ele>
        <time>2024-09-01T10:04:10Z</time>
      </trkpt>
      <trkpt lat="47.14263" lon="6.04166">
        <ele>460.8</ele>
        <time>2024-09-01T10:04:11Z</time>
      </trkpt>
      <trkpt lat="47.14267" lon="6.04169">
        <ele>460.6</ele>
        <time>2024-09-01T10:04:12Z</time>
      </trkpt>
      <trkpt lat="47.14271" lon="6.04171">
        <ele>460.8</ele>
        <time>2024-09-01T10:04:13Z</time>
      </trkpt>
      <trkpt lat="47.14274" lon="6.04174">
        <ele>460.6</ele>
        <time>2024-09-01T10:04:14Z</time>
      </trkpt>
      <trkpt lat="47.14278" lon="6.04176">
        <ele>460.6</ele>
        <time>2024-09-01T10:04:15Z</time>
      </trkpt>
      <trkpt lat="47.14281" lon="6.04179">
        <ele>460.8</ele>
        <time>2024-09-01T10:04:16Z</time>
      </trkpt>
      <trkpt lat="47.14284" lon="6.04181">
        <ele>460.6</ele>
        <time>2024-09-01T10:04:17Z</time>
      </trkpt>
      <trkpt lat="47.1429" lon="6.04187">
        <ele>460.8</ele>
        <time>2024-09-01T10:04:18Z</time>
      </trkpt>
      <trkpt lat="47.1429" lon="6.04187">
        <ele>460.8</ele>
        <time>2024-09-01T10:04:19Z</time>
      </trkpt>
      <trkpt lat="47.14293" lon="6.04191">
        <ele>460.8</ele>
        <time>2024-09-01T10:04:20Z</time>
      </trkpt>
      <trkpt lat="47.14296" lon="6.04194">
        <ele>461</ele>
        <time>2024-09-01T10:04:21Z</time>
      </trkpt>
      <trkpt lat="47.14299" lon="6.04198">
        <ele>461</ele>
        <time>2024-09-01T10:04:22Z</time>
      </trkpt>
      <trkpt lat="47.14302" lon="6.04202">
        <ele>461</ele>
        <time>2024-09-01T10:04:23Z</time>
      </trkpt>
      <trkpt lat="47.14308" lon="6.0421">
        <ele>461.2</ele>
        <time>2024-09-01T10:04:24Z</time>
      </trkpt>
      <trkpt lat="47.14311" lon="6.04213">
        <ele>461.2</ele>
        <time>2024-09-01T10:04:25Z</time>
      </trkpt>
      <trkpt lat="47.14314" lon="6.04217">
        <ele>461.4</ele>
        <time>2024-09-01T10:04:26Z</time>
      </trkpt>
      <trkpt lat="47.14318" lon="6.0422">
        <ele>461.6</ele>
        <time>2024-09-01T10:04:27Z</time>
      </trkpt>
      <trkpt lat="47.14321" lon="6.04223">
        <ele>461.6</ele>
        <time>2024-09-01T10:04:28Z</time>
      </trkpt>
      <trkpt lat="47.14325" lon="6.04225">
        <ele>461.4</ele>
        <time>2024-09-01T10:04:29Z</time>
      </trkpt>
      <trkpt lat="47.14329" lon="6.04227">
        <ele>461.6</ele>
        <time>2024-09-01T10:04:30Z</time>
      </trkpt>
      <trkpt lat="47.14332" lon="6.04229">
        <ele>461.6</ele>
        <time>2024-09-01T10:04:31Z</time>
      </trkpt>
      <trkpt lat="47.14332" lon="6.04229">
        <ele>461.8</ele>
        <time>2024-09-01T10:04:32Z</time>
      </trkpt>
      <trkpt lat="47.14335" lon="6.04231">
        <ele>461.8</ele>
        <time>2024-09-01T10:04:33Z</time>
      </trkpt>
      <trkpt lat="47.14338" lon="6.04233">
        <ele>461.8</ele>
        <time>2024-09-01T10:04:34Z</time>
      </trkpt>
      <trkpt lat="47.14341" lon="6.04235">
        <ele>461.6</ele>
        <time>2024-09-01T10:04:35Z</time>
      </trkpt>
      <trkpt lat="47.14344" lon="6.04238">
        <ele>461.8</ele>
        <time>2024-09-01T10:04:36Z</time>
      </trkpt>
      <trkpt lat="47.14347" lon="6.0424">
        <ele>461.8</ele>
        <time>2024-09-01T10:04:37Z</time>
      </trkpt>
      <trkpt lat="47.14349" lon="6.04242">
        <ele>461.6</ele>
        <time>2024-09-01T10:04:38Z</time>
      </trkpt>
      <trkpt lat="47.14352" lon="6.04244">
        <ele>461.6</ele>
        <time>2024-09-01T10:04:39Z</time>
      </trkpt>
      <trkpt lat="47.14355" lon="6.04247">
        <ele>461.6</ele>
        <time>2024-09-01T10:04:40Z</time>
      </trkpt>
      <trkpt lat="47.14358" lon="6.04255">
        <ele>461.6</ele>
        <time>2024-09-01T10:04:41Z</time>
      </trkpt>
      <trkpt lat="47.14357" lon="6.04261">
        <ele>461.8</ele>
        <time>2024-09-01T10:04:42Z</time>
      </trkpt>
      <trkpt lat="47.14357" lon="6.04261">
        <ele>461.6</ele>
        <time>2024-09-01T10:04:43Z</time>
      </trkpt>
      <trkpt lat="47.14355" lon="6.04267">
        <ele>461.6</ele>
        <time>2024-09-01T10:04:44Z</time>
      </trkpt>
      <trkpt lat="47.14353" lon="6.04273">
        <ele>461.8</ele>
        <time>2024-09-01T10:04:45Z</time>
      </trkpt>
      <trkpt lat="47.14351" lon="6.04279">
        <ele>461.6</ele>
        <time>2024-09-01T10:04:46Z</time>
      </trkpt>
      <trkpt lat="47.14349" lon="6.04286">
        <ele>461.6</ele>
        <time>2024-09-01T10:04:47Z</time>
      </trkpt>
      <trkpt lat="47.14347" lon="6.04292">
        <ele>461.6</ele>
        <time>2024-09-01T10:04:48Z</time>
      </trkpt>
      <trkpt lat="47.14345" lon="6.04299">
        <ele>461.6</ele>
        <time>2024-09-01T10:04:49Z</time>
      </trkpt>
      <trkpt lat="47.14343" lon="6.04305">
        <ele>461.4</ele>
        <time>2024-09-01T10:04:50Z</time>
      </trkpt>
      <trkpt lat="47.14341" lon="6.04311">
        <ele>461.4</ele>
        <time>2024-09-01T10:04:51Z</time>
      </trkpt>
      <trkpt lat="47.14339" lon="6.04318">
        <ele>461.4</ele>
        <time>2024-09-01T10:04:52Z</time>
      </trkpt>
      <trkpt lat="47.14337" lon="6.04324">
        <ele>461.2</ele>
        <time>2024-09-01T10:04:53Z</time>
      </trkpt>
      <trkpt lat="47.14335" lon="6.0433">
        <ele>461.2</ele>
        <time>2024-09-01T10:04:54Z</time>
      </trkpt>
      <trkpt lat="47.14333" lon="6.04336">
        <ele>460.8</ele>
        <time>2024-09-01T10:04:55Z</time>
      </trkpt>
      <trkpt lat="47.14331" lon="6.04343">
        <ele>460.8</ele>
        <time>2024-09-01T10:04:56Z</time>
      </trkpt>
      <trkpt lat="47.14329" lon="6.0435">
        <ele>460.6</ele>
        <time>2024-09-01T10:04:57Z</time>
      </trkpt>
      <trkpt lat="47.14327" lon="6.04357">
        <ele>460.6</ele>
        <time>2024-09-01T10:04:58Z</time>
      </trkpt>
      <trkpt lat="47.14325" lon="6.04364">
        <ele>460.6</ele>
        <time>2024-09-01T10:04:59Z</time>
      </trkpt>
      <trkpt lat="47.14323" lon="6.04371">
        <ele>460.2</ele>
        <time>2024-09-01T10:05:00Z</time>
      </trkpt>
      <trkpt lat="47.1432" lon="6.04379">
        <ele>460.2</ele>
        <time>2024-09-01T10:05:01Z</time>
      </trkpt>
      <trkpt lat="47.14318" lon="6.04386">
        <ele>460.2</ele>
        <time>2024-09-01T10:05:02Z</time>
      </trkpt>
      <trkpt lat="47.14316" lon="6.04393">
        <ele>460.2</ele>
        <time>2024-09-01T10:05:03Z</time>
      </trkpt>
      <trkpt lat="47.14314" lon="6.04399">
        <ele>460</ele>
        <time>2024-09-01T10:05:04Z</time>
      </trkpt>
      <trkpt lat="47.14312" lon="6.04406">
        <ele>459.8</ele>
        <time>2024-09-01T10:05:05Z</time>
      </trkpt>
      <trkpt lat="47.1431" lon="6.04412">
        <ele>459.8</ele>
        <time>2024-09-01T10:05:06Z</time>
      </trkpt>
      <trkpt lat="47.14308" lon="6.04419">
        <ele>459.6</ele>
        <time>2024-09-01T10:05:07Z</time>
      </trkpt>
      <trkpt lat="47.14307" lon="6.04425">
        <ele>459.4</ele>
        <time>2024-09-01T10:05:08Z</time>
      </trkpt>
      <trkpt lat="47.14306" lon="6.04431">
        <ele>459.4</ele>
        <time>2024-09-01T10:05:09Z</time>
      </trkpt>
      <trkpt lat="47.14305" lon="6.04436">
        <ele>459.4</ele>
        <time>2024-09-01T10:05:10Z</time>
      </trkpt>
      <trkpt lat="47.14304" lon="6.04442">
        <ele>459.4</ele>
        <time>2024-09-01T10:05:11Z</time>
      </trkpt>
      <trkpt lat="47.14302" lon="6.04447">
        <ele>459.4</ele>
        <time>2024-09-01T10:05:12Z</time>
      </trkpt>
      <trkpt lat="47.14301" lon="6.04452">
        <ele>459.2</ele>
        <time>2024-09-01T10:05:13Z</time>
      </trkpt>
      <trkpt lat="47.14299" lon="6.04456">
        <ele>459.2</ele>
        <time>2024-09-01T10:05:14Z</time>
      </trkpt>
      <trkpt lat="47.14298" lon="6.04461">
        <ele>459.2</ele>
        <time>2024-09-01T10:05:15Z</time>
      </trkpt>
      <trkpt lat="47.14297" lon="6.04465">
        <ele>459.2</ele>
        <time>2024-09-01T10:05:16Z</time>
      </trkpt>
      <trkpt lat="47.14295" lon="6.0447">
        <ele>459.2</ele>
        <time>2024-09-01T10:05:17Z</time>
      </trkpt>
      <trkpt lat="47.14294" lon="6.04474">
        <ele>459.2</ele>
        <time>2024-09-01T10:05:18Z</time>
      </trkpt>
      <trkpt lat="47.14293" lon="6.04479">
        <ele>459.2</ele>
        <time>2024-09-01T10:05:19Z</time>
      </trkpt>
      <trkpt lat="47.14292" lon="6.04483">
        <ele>459.2</ele>
        <time>2024-09-01T10:05:20Z</time>
      </trkpt>
      <trkpt lat="47.14291" lon="6.04487">
        <ele>459</ele>
        <time>2024-09-01T10:05:21Z</time>
      </trkpt>
      <trkpt lat="47.14289" lon="6.04491">
        <ele>459.2</ele>
        <time>2024-09-01T10:05:22Z</time>
      </trkpt>
      <trkpt lat="47.14288" lon="6.04495">
        <ele>459</ele>
        <time>2024-09-01T10:05:23Z</time>
      </trkpt>
      <trkpt lat="47.14287" lon="6.04499">
        <ele>459.2</ele>
        <time>2024-09-01T10:05:24Z</time>
      </trkpt>
      <trkpt lat="47.14286" lon="6.04503">
        <ele>459</ele>
        <time>2024-09-01T10:05:25Z</time>
      </trkpt>
      <trkpt lat="47.14284" lon="6.04506">
        <ele>459</ele>
        <time>2024-09-01T10:05:26Z</time>
      </trkpt>
      <trkpt lat="47.14282" lon="6.0451">
        <ele>459</ele>
        <time>2024-09-01T10:05:27Z</time>
      </trkpt>
      <trkpt lat="47.14281" lon="6.04513">
        <ele>458.8</ele>
        <time>2024-09-01T10:05:28Z</time>
      </trkpt>
      <trkpt lat="47.1428" lon="6.04516">
        <ele>458.8</ele>
        <time>2024-09-01T10:05:29Z</time>
      </trkpt>
      <trkpt lat="47.14279" lon="6.04519">
        <ele>458.8</ele>
        <time>2024-09-01T10:05:30Z</time>
      </trkpt>
      <trkpt lat="47.1428" lon="6.04521">
        <ele>458.8</ele>
        <time>2024-09-01T10:05:31Z</time>
      </trkpt>
      <trkpt lat="47.14282" lon="6.04523">
        <ele>459</ele>
        <time>2024-09-01T10:05:32Z</time>
      </trkpt>
      <trkpt lat="47.14283" lon="6.04525">
        <ele>458.8</ele>
        <time>2024-09-01T10:05:33Z</time>
      </trkpt>
      <trkpt lat="47.14285" lon="6.04526">
        <ele>459</ele>
        <time>2024-09-01T10:05:34Z</time>
      </trkpt>
      <trkpt lat="47.14286" lon="6.04527">
        <ele>458.8</ele>
        <time>2024-09-01T10:05:35Z</time>
      </trkpt>
      <trkpt lat="47.14288" lon="6.04529">
        <ele>458.8</ele>
        <time>2024-09-01T10:05:36Z</time>
      </trkpt>
      <trkpt lat="47.14289" lon="6.0453">
        <ele>458.8</ele>
        <time>2024-09-01T10:05:37Z</time>
      </trkpt>
      <trkpt lat="47.14291" lon="6.04531">
        <ele>458.8</ele>
        <time>2024-09-01T10:05:38Z</time>
      </trkpt>
      <trkpt lat="47.14292" lon="6.04532">
        <ele>458.8</ele>
        <time>2024-09-01T10:05:39Z</time>
      </trkpt>
      <trkpt lat="47.14293" lon="6.04532">
        <ele>458.8</ele>
        <time>2024-09-01T10:05:40Z</time>
      </trkpt>
      <trkpt lat="47.14294" lon="6.04533">
        <ele>458.8</ele>
        <time>2024-09-01T10:05:41Z</time>
      </trkpt>
      <trkpt lat="47.14296" lon="6.04534">
        <ele>459</ele>
        <time>2024-09-01T10:05:42Z</time>
      </trkpt>
      <trkpt lat="47.14297" lon="6.04535">
        <ele>459</ele>
        <time>2024-09-01T10:05:43Z</time>
      </trkpt>
      <trkpt lat="47.14299" lon="6.04536">
        <ele>459.2</ele>
        <time>2024-09-01T10:05:44Z</time>
      </trkpt>
      <trkpt lat="47.14299" lon="6.04536">
        <ele>459.2</ele>
        <time>2024-09-01T10:05:45Z</time>
      </trkpt>
      <trkpt lat="47.143" lon="6.04536">
        <ele>459</ele>
        <time>2024-09-01T10:05:46Z</time>
      </trkpt>
      <trkpt lat="47.14301" lon="6.04536">
        <ele>459.2</ele>
        <time>2024-09-01T10:05:47Z</time>
      </trkpt>
      <trkpt lat="47.14302" lon="6.04537">
        <ele>459.2</ele>
        <time>2024-09-01T10:05:48Z</time>
      </trkpt>
      <trkpt lat="47.14303" lon="6.04537">
        <ele>459.2</ele>
        <time>2024-09-01T10:05:49Z</time>
      </trkpt>
      <trkpt lat="47.14303" lon="6.04537">
        <ele>459.2</ele>
        <time>2024-09-01T10:05:50Z</time>
      </trkpt>
      <trkpt lat="47.14305" lon="6.04539">
        <ele>459.2</ele>
        <time>2024-09-01T10:05:51Z</time>
      </trkpt>
      <trkpt lat="47.14306" lon="6.0454">
        <ele>459.2</ele>
        <time>2024-09-01T10:05:52Z</time>
      </trkpt>
      <trkpt lat="47.14306" lon="6.04541">
        <ele>459.2</ele>
        <time>2024-09-01T10:05:53Z</time>
      </trkpt>
      <trkpt lat="47.14306" lon="6.04541">
        <ele>459</ele>
        <time>2024-09-01T10:05:54Z</time>
      </trkpt>
      <trkpt lat="47.14306" lon="6.04541">
        <ele>459.2</ele>
        <time>2024-09-01T10:05:55Z</time>
      </trkpt>
      <trkpt lat="47.14307" lon="6.04542">
        <ele>459.2</ele>
        <time>2024-09-01T10:05:56Z</time>
      </trkpt>
      <trkpt lat="47.14307" lon="6.04542">
        <ele>459.4</ele>
        <time>2024-09-01T10:05:57Z</time>
      </trkpt>
      <trkpt lat="47.14306" lon="6.04542">
        <ele>459.2</ele>
        <time>2024-09-01T10:05:58Z</time>
      </trkpt>
    </trkseg>
  </trk>
</gpx>